<?xml version="1.0" encoding="UTF-8" standalone="no" ?>
<gpx xmlns="http://www.topografix.com/GPX/1/1" xmlns:xsi="http://www.w3.org/2001/XMLSchema-instance" xsi:schemaLocation="http://www.topografix.com/GPX/1/1 http://www.topografix.com/GPX/1/1/gpx.xsd" version="1.1" creator="VisuGPX - https://www.visugpx.com">
  <metadata>
    <name>Sortie 42                                                                 LES AYNANS</name>
  </metadata>
  <trk>
    <name><![CDATA[Sortie 42                                                                 LES AYNANS]]></name>
    <extensions>
      <line xmlns="http://www.topografix.com/GPX/gpx_style/0/2">
        <color>0000FF</color>
        <width>4</width>
      </line>
    </extensions>
    <trkseg>
      <trkpt lat="47.62883" lon="6.84683">
        <ele>370.9</ele>
        <time>2025-09-13T09:38:41Z</time>
      </trkpt>
      <trkpt lat="47.62883" lon="6.84684">
        <ele>370.9</ele>
        <time>2025-09-13T09:38:42Z</time>
      </trkpt>
      <trkpt lat="47.62883" lon="6.84684">
        <ele>370.9</ele>
        <time>2025-09-13T09:38:43Z</time>
      </trkpt>
      <trkpt lat="47.62883" lon="6.84685">
        <ele>370.9</ele>
        <time>2025-09-13T09:38:44Z</time>
      </trkpt>
      <trkpt lat="47.62883" lon="6.84685">
        <ele>370.9</ele>
        <time>2025-09-13T09:38:45Z</time>
      </trkpt>
      <trkpt lat="47.62883" lon="6.84685">
        <ele>370.9</ele>
        <time>2025-09-13T09:38:46Z</time>
      </trkpt>
      <trkpt lat="47.62883" lon="6.84686">
        <ele>370.9</ele>
        <time>2025-09-13T09:38:47Z</time>
      </trkpt>
      <trkpt lat="47.62883" lon="6.84686">
        <ele>370.9</ele>
        <time>2025-09-13T09:38:48Z</time>
      </trkpt>
      <trkpt lat="47.62883" lon="6.84686">
        <ele>370.9</ele>
        <time>2025-09-13T09:38:49Z</time>
      </trkpt>
      <trkpt lat="47.62883" lon="6.84688">
        <ele>370.9</ele>
        <time>2025-09-13T09:38:50Z</time>
      </trkpt>
      <trkpt lat="47.62883" lon="6.84689">
        <ele>370.9</ele>
        <time>2025-09-13T09:38:51Z</time>
      </trkpt>
      <trkpt lat="47.62883" lon="6.84689">
        <ele>371</ele>
        <time>2025-09-13T09:38:52Z</time>
      </trkpt>
      <trkpt lat="47.62883" lon="6.8469">
        <ele>371</ele>
        <time>2025-09-13T09:38:53Z</time>
      </trkpt>
      <trkpt lat="47.62882" lon="6.8469">
        <ele>371</ele>
        <time>2025-09-13T09:38:54Z</time>
      </trkpt>
      <trkpt lat="47.62882" lon="6.8469">
        <ele>371</ele>
        <time>2025-09-13T09:38:56Z</time>
      </trkpt>
      <trkpt lat="47.62882" lon="6.84691">
        <ele>371</ele>
        <time>2025-09-13T09:38:57Z</time>
      </trkpt>
      <trkpt lat="47.62882" lon="6.84691">
        <ele>371</ele>
        <time>2025-09-13T09:38:58Z</time>
      </trkpt>
      <trkpt lat="47.62882" lon="6.84691">
        <ele>371</ele>
        <time>2025-09-13T09:38:59Z</time>
      </trkpt>
      <trkpt lat="47.62882" lon="6.84692">
        <ele>371</ele>
        <time>2025-09-13T09:39:00Z</time>
      </trkpt>
      <trkpt lat="47.62882" lon="6.84692">
        <ele>371</ele>
        <time>2025-09-13T09:39:02Z</time>
      </trkpt>
      <trkpt lat="47.62882" lon="6.84693">
        <ele>371</ele>
        <time>2025-09-13T09:39:03Z</time>
      </trkpt>
      <trkpt lat="47.62881" lon="6.84693">
        <ele>371</ele>
        <time>2025-09-13T09:39:04Z</time>
      </trkpt>
      <trkpt lat="47.62881" lon="6.84693">
        <ele>371</ele>
        <time>2025-09-13T09:39:05Z</time>
      </trkpt>
      <trkpt lat="47.62881" lon="6.84694">
        <ele>371</ele>
        <time>2025-09-13T09:39:06Z</time>
      </trkpt>
      <trkpt lat="47.62881" lon="6.84694">
        <ele>371</ele>
        <time>2025-09-13T09:39:07Z</time>
      </trkpt>
      <trkpt lat="47.62881" lon="6.84695">
        <ele>371</ele>
        <time>2025-09-13T09:39:08Z</time>
      </trkpt>
      <trkpt lat="47.62881" lon="6.84695">
        <ele>371</ele>
        <time>2025-09-13T09:39:09Z</time>
      </trkpt>
      <trkpt lat="47.62881" lon="6.84695">
        <ele>371</ele>
        <time>2025-09-13T09:39:11Z</time>
      </trkpt>
      <trkpt lat="47.62881" lon="6.84696">
        <ele>371</ele>
        <time>2025-09-13T09:39:12Z</time>
      </trkpt>
      <trkpt lat="47.6288" lon="6.84696">
        <ele>371</ele>
        <time>2025-09-13T09:39:13Z</time>
      </trkpt>
      <trkpt lat="47.6288" lon="6.84697">
        <ele>371</ele>
        <time>2025-09-13T09:39:15Z</time>
      </trkpt>
      <trkpt lat="47.6288" lon="6.84697">
        <ele>371</ele>
        <time>2025-09-13T09:39:16Z</time>
      </trkpt>
      <trkpt lat="47.6288" lon="6.84698">
        <ele>371</ele>
        <time>2025-09-13T09:39:17Z</time>
      </trkpt>
      <trkpt lat="47.6288" lon="6.84698">
        <ele>371</ele>
        <time>2025-09-13T09:39:18Z</time>
      </trkpt>
      <trkpt lat="47.6288" lon="6.84695">
        <ele>371.1</ele>
        <time>2025-09-13T09:39:20Z</time>
      </trkpt>
      <trkpt lat="47.6288" lon="6.84695">
        <ele>367</ele>
        <extensions>
          <visugpx:TrkExtension xmlns:visugpx="https://www.visugpx.com/editgpx/">
            <visugpx:node>1</visugpx:node>
            </visugpx:TrkExtension>
        </extensions>
      </trkpt>
      <trkpt lat="47.6288" lon="6.84694">
        <ele>371.1</ele>
        <time>2025-09-13T09:39:21Z</time>
      </trkpt>
      <trkpt lat="47.6288" lon="6.84695">
        <ele>371.1</ele>
        <time>2025-09-13T09:39:22Z</time>
      </trkpt>
      <trkpt lat="47.6288" lon="6.84695">
        <ele>371.1</ele>
        <time>2025-09-13T09:39:23Z</time>
      </trkpt>
      <trkpt lat="47.6288" lon="6.84694">
        <ele>371.1</ele>
        <time>2025-09-13T09:39:24Z</time>
      </trkpt>
      <trkpt lat="47.6288" lon="6.84694">
        <ele>371.1</ele>
        <time>2025-09-13T09:39:25Z</time>
      </trkpt>
      <trkpt lat="47.62881" lon="6.84693">
        <ele>371.1</ele>
        <time>2025-09-13T09:39:26Z</time>
      </trkpt>
      <trkpt lat="47.62881" lon="6.84693">
        <ele>371.1</ele>
        <time>2025-09-13T09:39:27Z</time>
      </trkpt>
      <trkpt lat="47.62883" lon="6.84693">
        <ele>371.1</ele>
        <time>2025-09-13T09:39:28Z</time>
      </trkpt>
      <trkpt lat="47.62884" lon="6.84694">
        <ele>371.2</ele>
        <time>2025-09-13T09:39:29Z</time>
      </trkpt>
      <trkpt lat="47.62884" lon="6.84695">
        <ele>371.2</ele>
        <time>2025-09-13T09:39:30Z</time>
      </trkpt>
      <trkpt lat="47.62886" lon="6.84697">
        <ele>371.2</ele>
        <time>2025-09-13T09:39:31Z</time>
      </trkpt>
      <trkpt lat="47.62891" lon="6.84703">
        <ele>371.3</ele>
        <time>2025-09-13T09:39:32Z</time>
      </trkpt>
      <trkpt lat="47.62912" lon="6.84734">
        <ele>370</ele>
        <time>2025-09-13T09:39:34Z</time>
      </trkpt>
      <trkpt lat="47.62913" lon="6.84742">
        <ele>369.6</ele>
        <time>2025-09-13T09:39:35Z</time>
      </trkpt>
      <trkpt lat="47.6291" lon="6.8475">
        <ele>369.3</ele>
        <time>2025-09-13T09:39:36Z</time>
      </trkpt>
      <trkpt lat="47.62905" lon="6.84754">
        <ele>369.1</ele>
        <time>2025-09-13T09:39:38Z</time>
      </trkpt>
      <trkpt lat="47.629" lon="6.84758">
        <ele>369</ele>
        <time>2025-09-13T09:39:39Z</time>
      </trkpt>
      <trkpt lat="47.62895" lon="6.84761">
        <ele>368.8</ele>
        <time>2025-09-13T09:39:40Z</time>
      </trkpt>
      <trkpt lat="47.62891" lon="6.84769">
        <ele>368.7</ele>
        <time>2025-09-13T09:39:41Z</time>
      </trkpt>
      <trkpt lat="47.62892" lon="6.84778">
        <ele>368.7</ele>
        <time>2025-09-13T09:39:42Z</time>
      </trkpt>
      <trkpt lat="47.62897" lon="6.84793">
        <ele>368.6</ele>
        <time>2025-09-13T09:39:43Z</time>
      </trkpt>
      <trkpt lat="47.62899" lon="6.848">
        <ele>368.7</ele>
        <time>2025-09-13T09:39:45Z</time>
      </trkpt>
      <trkpt lat="47.62901" lon="6.84808">
        <ele>369</ele>
        <time>2025-09-13T09:39:46Z</time>
      </trkpt>
      <trkpt lat="47.62905" lon="6.84815">
        <ele>369.3</ele>
        <time>2025-09-13T09:39:47Z</time>
      </trkpt>
      <trkpt lat="47.62907" lon="6.84823">
        <ele>369.6</ele>
        <time>2025-09-13T09:39:48Z</time>
      </trkpt>
      <trkpt lat="47.6291" lon="6.84828">
        <ele>369.8</ele>
        <time>2025-09-13T09:39:49Z</time>
      </trkpt>
      <trkpt lat="47.62914" lon="6.84831">
        <ele>370</ele>
        <time>2025-09-13T09:39:50Z</time>
      </trkpt>
      <trkpt lat="47.62919" lon="6.84832">
        <ele>370.2</ele>
        <time>2025-09-13T09:39:51Z</time>
      </trkpt>
      <trkpt lat="47.62924" lon="6.84829">
        <ele>370.4</ele>
        <time>2025-09-13T09:39:52Z</time>
      </trkpt>
      <trkpt lat="47.62925" lon="6.84832">
        <ele>370.4</ele>
        <time>2025-09-13T09:39:53Z</time>
      </trkpt>
      <trkpt lat="47.62924" lon="6.84834">
        <ele>370.5</ele>
        <time>2025-09-13T09:39:54Z</time>
      </trkpt>
      <trkpt lat="47.62921" lon="6.84838">
        <ele>370.5</ele>
        <time>2025-09-13T09:39:55Z</time>
      </trkpt>
      <trkpt lat="47.62918" lon="6.84846">
        <ele>370.4</ele>
        <time>2025-09-13T09:39:56Z</time>
      </trkpt>
      <trkpt lat="47.62916" lon="6.84854">
        <ele>370.3</ele>
        <time>2025-09-13T09:39:57Z</time>
      </trkpt>
      <trkpt lat="47.62913" lon="6.84865">
        <ele>370</ele>
        <time>2025-09-13T09:39:58Z</time>
      </trkpt>
      <trkpt lat="47.62914" lon="6.84878">
        <ele>369.7</ele>
        <time>2025-09-13T09:39:59Z</time>
      </trkpt>
      <trkpt lat="47.62914" lon="6.84889">
        <ele>369.5</ele>
        <time>2025-09-13T09:40:00Z</time>
      </trkpt>
      <trkpt lat="47.62914" lon="6.84901">
        <ele>369.2</ele>
        <time>2025-09-13T09:40:01Z</time>
      </trkpt>
      <trkpt lat="47.62915" lon="6.84916">
        <ele>368.9</ele>
        <time>2025-09-13T09:40:02Z</time>
      </trkpt>
      <trkpt lat="47.62915" lon="6.84932">
        <ele>368.6</ele>
        <time>2025-09-13T09:40:03Z</time>
      </trkpt>
      <trkpt lat="47.62915" lon="6.84947">
        <ele>368.1</ele>
        <time>2025-09-13T09:40:04Z</time>
      </trkpt>
      <trkpt lat="47.62914" lon="6.84962">
        <ele>367.8</ele>
        <time>2025-09-13T09:40:05Z</time>
      </trkpt>
      <trkpt lat="47.62912" lon="6.84974">
        <ele>367.7</ele>
        <time>2025-09-13T09:40:06Z</time>
      </trkpt>
      <trkpt lat="47.62908" lon="6.84984">
        <ele>367.6</ele>
        <time>2025-09-13T09:40:07Z</time>
      </trkpt>
      <trkpt lat="47.62902" lon="6.84989">
        <ele>367.6</ele>
        <time>2025-09-13T09:40:08Z</time>
      </trkpt>
      <trkpt lat="47.62893" lon="6.84984">
        <ele>367.5</ele>
        <time>2025-09-13T09:40:09Z</time>
      </trkpt>
      <trkpt lat="47.62883" lon="6.84976">
        <ele>365.8</ele>
        <time>2025-09-13T09:40:10Z</time>
      </trkpt>
      <trkpt lat="47.62876" lon="6.84981">
        <ele>364.6</ele>
        <time>2025-09-13T09:40:11Z</time>
      </trkpt>
      <trkpt lat="47.6287" lon="6.84992">
        <ele>363.8</ele>
        <time>2025-09-13T09:40:12Z</time>
      </trkpt>
      <trkpt lat="47.62866" lon="6.85002">
        <ele>363.3</ele>
        <time>2025-09-13T09:40:13Z</time>
      </trkpt>
      <trkpt lat="47.62862" lon="6.85012">
        <ele>362.8</ele>
        <time>2025-09-13T09:40:14Z</time>
      </trkpt>
      <trkpt lat="47.62856" lon="6.85022">
        <ele>362.2</ele>
        <time>2025-09-13T09:40:15Z</time>
      </trkpt>
      <trkpt lat="47.62851" lon="6.85031">
        <ele>361.7</ele>
        <time>2025-09-13T09:40:16Z</time>
      </trkpt>
      <trkpt lat="47.62845" lon="6.8504">
        <ele>361.1</ele>
        <time>2025-09-13T09:40:17Z</time>
      </trkpt>
      <trkpt lat="47.62839" lon="6.85048">
        <ele>360.5</ele>
        <time>2025-09-13T09:40:18Z</time>
      </trkpt>
      <trkpt lat="47.62833" lon="6.85054">
        <ele>360</ele>
        <time>2025-09-13T09:40:19Z</time>
      </trkpt>
      <trkpt lat="47.62827" lon="6.85052">
        <ele>359.6</ele>
        <time>2025-09-13T09:40:20Z</time>
      </trkpt>
      <trkpt lat="47.6282" lon="6.8504">
        <ele>359.5</ele>
        <time>2025-09-13T09:40:21Z</time>
      </trkpt>
      <trkpt lat="47.62819" lon="6.85027">
        <ele>359.5</ele>
        <time>2025-09-13T09:40:22Z</time>
      </trkpt>
      <trkpt lat="47.62817" lon="6.85016">
        <ele>359.4</ele>
        <time>2025-09-13T09:40:23Z</time>
      </trkpt>
      <trkpt lat="47.62816" lon="6.85008">
        <ele>359.4</ele>
        <time>2025-09-13T09:40:24Z</time>
      </trkpt>
      <trkpt lat="47.62814" lon="6.84998">
        <ele>359.4</ele>
        <time>2025-09-13T09:40:25Z</time>
      </trkpt>
      <trkpt lat="47.6281" lon="6.84992">
        <ele>359.4</ele>
        <time>2025-09-13T09:40:26Z</time>
      </trkpt>
      <trkpt lat="47.62804" lon="6.84988">
        <ele>359.4</ele>
        <time>2025-09-13T09:40:27Z</time>
      </trkpt>
      <trkpt lat="47.62799" lon="6.84991">
        <ele>359.1</ele>
        <time>2025-09-13T09:40:28Z</time>
      </trkpt>
      <trkpt lat="47.62792" lon="6.85">
        <ele>358.7</ele>
        <time>2025-09-13T09:40:29Z</time>
      </trkpt>
      <trkpt lat="47.62792" lon="6.85">
        <ele>359.5</ele>
        <extensions>
          <visugpx:TrkExtension xmlns:visugpx="https://www.visugpx.com/editgpx/">
            <visugpx:node>2</visugpx:node>
            </visugpx:TrkExtension>
        </extensions>
      </trkpt>
      <trkpt lat="47.62786" lon="6.85006">
        <ele>358.4</ele>
        <time>2025-09-13T09:40:30Z</time>
      </trkpt>
      <trkpt lat="47.62779" lon="6.85012">
        <ele>358.2</ele>
        <time>2025-09-13T09:40:31Z</time>
      </trkpt>
      <trkpt lat="47.62773" lon="6.85017">
        <ele>358.2</ele>
        <time>2025-09-13T09:40:32Z</time>
      </trkpt>
      <trkpt lat="47.62765" lon="6.85021">
        <ele>358.1</ele>
        <time>2025-09-13T09:40:33Z</time>
      </trkpt>
      <trkpt lat="47.62758" lon="6.85026">
        <ele>358.1</ele>
        <time>2025-09-13T09:40:34Z</time>
      </trkpt>
      <trkpt lat="47.6275" lon="6.85031">
        <ele>358.1</ele>
        <time>2025-09-13T09:40:35Z</time>
      </trkpt>
      <trkpt lat="47.62744" lon="6.85036">
        <ele>358.1</ele>
        <time>2025-09-13T09:40:36Z</time>
      </trkpt>
      <trkpt lat="47.62736" lon="6.8504">
        <ele>358.2</ele>
        <time>2025-09-13T09:40:37Z</time>
      </trkpt>
      <trkpt lat="47.62729" lon="6.85044">
        <ele>358</ele>
        <time>2025-09-13T09:40:38Z</time>
      </trkpt>
      <trkpt lat="47.62721" lon="6.85049">
        <ele>357.9</ele>
        <time>2025-09-13T09:40:39Z</time>
      </trkpt>
      <trkpt lat="47.62715" lon="6.85052">
        <ele>357.8</ele>
        <time>2025-09-13T09:40:40Z</time>
      </trkpt>
      <trkpt lat="47.62707" lon="6.85057">
        <ele>357.6</ele>
        <time>2025-09-13T09:40:41Z</time>
      </trkpt>
      <trkpt lat="47.62699" lon="6.85062">
        <ele>357.5</ele>
        <time>2025-09-13T09:40:42Z</time>
      </trkpt>
      <trkpt lat="47.62691" lon="6.85066">
        <ele>357.3</ele>
        <time>2025-09-13T09:40:43Z</time>
      </trkpt>
      <trkpt lat="47.62684" lon="6.85071">
        <ele>357.2</ele>
        <time>2025-09-13T09:40:44Z</time>
      </trkpt>
      <trkpt lat="47.62676" lon="6.85076">
        <ele>357.1</ele>
        <time>2025-09-13T09:40:45Z</time>
      </trkpt>
      <trkpt lat="47.62669" lon="6.85078">
        <ele>357.1</ele>
        <time>2025-09-13T09:40:46Z</time>
      </trkpt>
      <trkpt lat="47.62661" lon="6.85081">
        <ele>357.1</ele>
        <time>2025-09-13T09:40:47Z</time>
      </trkpt>
      <trkpt lat="47.62653" lon="6.85083">
        <ele>357.1</ele>
        <time>2025-09-13T09:40:48Z</time>
      </trkpt>
      <trkpt lat="47.62648" lon="6.85086">
        <ele>357.2</ele>
        <time>2025-09-13T09:40:49Z</time>
      </trkpt>
      <trkpt lat="47.62642" lon="6.85085">
        <ele>357.2</ele>
        <time>2025-09-13T09:40:50Z</time>
      </trkpt>
      <trkpt lat="47.62632" lon="6.85089">
        <ele>357.3</ele>
        <time>2025-09-13T09:40:51Z</time>
      </trkpt>
      <trkpt lat="47.62626" lon="6.85092">
        <ele>357.3</ele>
        <time>2025-09-13T09:40:52Z</time>
      </trkpt>
      <trkpt lat="47.62619" lon="6.85092">
        <ele>357.3</ele>
        <time>2025-09-13T09:40:53Z</time>
      </trkpt>
      <trkpt lat="47.62611" lon="6.85091">
        <ele>357.2</ele>
        <time>2025-09-13T09:40:54Z</time>
      </trkpt>
      <trkpt lat="47.62604" lon="6.85091">
        <ele>357.2</ele>
        <time>2025-09-13T09:40:55Z</time>
      </trkpt>
      <trkpt lat="47.62596" lon="6.8509">
        <ele>357.1</ele>
        <time>2025-09-13T09:40:56Z</time>
      </trkpt>
      <trkpt lat="47.62588" lon="6.85089">
        <ele>357.1</ele>
        <time>2025-09-13T09:40:57Z</time>
      </trkpt>
      <trkpt lat="47.62581" lon="6.85087">
        <ele>357.1</ele>
        <time>2025-09-13T09:40:58Z</time>
      </trkpt>
      <trkpt lat="47.62573" lon="6.85083">
        <ele>357.1</ele>
        <time>2025-09-13T09:40:59Z</time>
      </trkpt>
      <trkpt lat="47.62566" lon="6.8508">
        <ele>357.1</ele>
        <time>2025-09-13T09:41:00Z</time>
      </trkpt>
      <trkpt lat="47.62558" lon="6.85077">
        <ele>357.1</ele>
        <time>2025-09-13T09:41:01Z</time>
      </trkpt>
      <trkpt lat="47.62551" lon="6.85073">
        <ele>357.1</ele>
        <time>2025-09-13T09:41:02Z</time>
      </trkpt>
      <trkpt lat="47.62543" lon="6.85069">
        <ele>357</ele>
        <time>2025-09-13T09:41:03Z</time>
      </trkpt>
      <trkpt lat="47.62536" lon="6.85067">
        <ele>357</ele>
        <time>2025-09-13T09:41:04Z</time>
      </trkpt>
      <trkpt lat="47.62528" lon="6.85064">
        <ele>356.9</ele>
        <time>2025-09-13T09:41:05Z</time>
      </trkpt>
      <trkpt lat="47.6252" lon="6.85061">
        <ele>356.9</ele>
        <time>2025-09-13T09:41:06Z</time>
      </trkpt>
      <trkpt lat="47.62512" lon="6.85058">
        <ele>356.9</ele>
        <time>2025-09-13T09:41:07Z</time>
      </trkpt>
      <trkpt lat="47.62506" lon="6.85055">
        <ele>356.8</ele>
        <time>2025-09-13T09:41:08Z</time>
      </trkpt>
      <trkpt lat="47.62498" lon="6.85052">
        <ele>356.8</ele>
        <time>2025-09-13T09:41:09Z</time>
      </trkpt>
      <trkpt lat="47.6249" lon="6.8505">
        <ele>356.7</ele>
        <time>2025-09-13T09:41:10Z</time>
      </trkpt>
      <trkpt lat="47.62482" lon="6.85047">
        <ele>356.7</ele>
        <time>2025-09-13T09:41:11Z</time>
      </trkpt>
      <trkpt lat="47.62475" lon="6.85042">
        <ele>356.7</ele>
        <time>2025-09-13T09:41:12Z</time>
      </trkpt>
      <trkpt lat="47.62467" lon="6.85039">
        <ele>356.6</ele>
        <time>2025-09-13T09:41:13Z</time>
      </trkpt>
      <trkpt lat="47.62459" lon="6.85036">
        <ele>356.6</ele>
        <time>2025-09-13T09:41:14Z</time>
      </trkpt>
      <trkpt lat="47.62452" lon="6.85033">
        <ele>356.6</ele>
        <time>2025-09-13T09:41:15Z</time>
      </trkpt>
      <trkpt lat="47.62444" lon="6.8503">
        <ele>356.6</ele>
        <time>2025-09-13T09:41:16Z</time>
      </trkpt>
      <trkpt lat="47.62436" lon="6.85027">
        <ele>356.6</ele>
        <time>2025-09-13T09:41:17Z</time>
      </trkpt>
      <trkpt lat="47.62429" lon="6.85024">
        <ele>356.6</ele>
        <time>2025-09-13T09:41:18Z</time>
      </trkpt>
      <trkpt lat="47.62421" lon="6.85021">
        <ele>356.6</ele>
        <time>2025-09-13T09:41:19Z</time>
      </trkpt>
      <trkpt lat="47.62414" lon="6.85018">
        <ele>356.6</ele>
        <time>2025-09-13T09:41:20Z</time>
      </trkpt>
      <trkpt lat="47.62407" lon="6.85016">
        <ele>356.6</ele>
        <time>2025-09-13T09:41:21Z</time>
      </trkpt>
      <trkpt lat="47.62399" lon="6.85013">
        <ele>356.7</ele>
        <time>2025-09-13T09:41:22Z</time>
      </trkpt>
      <trkpt lat="47.62392" lon="6.8501">
        <ele>356.7</ele>
        <time>2025-09-13T09:41:23Z</time>
      </trkpt>
      <trkpt lat="47.62385" lon="6.85007">
        <ele>356.7</ele>
        <time>2025-09-13T09:41:24Z</time>
      </trkpt>
      <trkpt lat="47.62379" lon="6.85004">
        <ele>356.7</ele>
        <time>2025-09-13T09:41:25Z</time>
      </trkpt>
      <trkpt lat="47.62372" lon="6.85003">
        <ele>356.7</ele>
        <time>2025-09-13T09:41:26Z</time>
      </trkpt>
      <trkpt lat="47.62365" lon="6.85">
        <ele>356.8</ele>
        <time>2025-09-13T09:41:27Z</time>
      </trkpt>
      <trkpt lat="47.62361" lon="6.85001">
        <ele>357</ele>
        <extensions>
          <visugpx:TrkExtension xmlns:visugpx="https://www.visugpx.com/editgpx/">
            <visugpx:node>3</visugpx:node>
            </visugpx:TrkExtension>
        </extensions>
      </trkpt>
      <trkpt lat="47.62357" lon="6.84998">
        <ele>356.7</ele>
        <time>2025-09-13T09:41:28Z</time>
      </trkpt>
      <trkpt lat="47.6235" lon="6.84996">
        <ele>356.7</ele>
        <time>2025-09-13T09:41:29Z</time>
      </trkpt>
      <trkpt lat="47.62344" lon="6.84994">
        <ele>356.6</ele>
        <time>2025-09-13T09:41:30Z</time>
      </trkpt>
      <trkpt lat="47.62335" lon="6.84992">
        <ele>356.6</ele>
        <time>2025-09-13T09:41:31Z</time>
      </trkpt>
      <trkpt lat="47.62329" lon="6.8499">
        <ele>356.6</ele>
        <time>2025-09-13T09:41:32Z</time>
      </trkpt>
      <trkpt lat="47.62321" lon="6.84988">
        <ele>356.6</ele>
        <time>2025-09-13T09:41:33Z</time>
      </trkpt>
      <trkpt lat="47.62313" lon="6.84987">
        <ele>356.6</ele>
        <time>2025-09-13T09:41:34Z</time>
      </trkpt>
      <trkpt lat="47.62306" lon="6.84984">
        <ele>356.5</ele>
        <time>2025-09-13T09:41:35Z</time>
      </trkpt>
      <trkpt lat="47.62299" lon="6.8498">
        <ele>356.5</ele>
        <time>2025-09-13T09:41:36Z</time>
      </trkpt>
      <trkpt lat="47.62293" lon="6.84979">
        <ele>356.5</ele>
        <time>2025-09-13T09:41:37Z</time>
      </trkpt>
      <trkpt lat="47.62285" lon="6.84978">
        <ele>356.5</ele>
        <time>2025-09-13T09:41:38Z</time>
      </trkpt>
      <trkpt lat="47.62277" lon="6.84978">
        <ele>356.5</ele>
        <time>2025-09-13T09:41:39Z</time>
      </trkpt>
      <trkpt lat="47.62271" lon="6.84978">
        <ele>356.5</ele>
        <time>2025-09-13T09:41:40Z</time>
      </trkpt>
      <trkpt lat="47.62263" lon="6.84978">
        <ele>356.5</ele>
        <time>2025-09-13T09:41:41Z</time>
      </trkpt>
      <trkpt lat="47.62256" lon="6.84977">
        <ele>356.5</ele>
        <time>2025-09-13T09:41:42Z</time>
      </trkpt>
      <trkpt lat="47.62248" lon="6.84978">
        <ele>356.6</ele>
        <time>2025-09-13T09:41:43Z</time>
      </trkpt>
      <trkpt lat="47.6224" lon="6.84979">
        <ele>356.6</ele>
        <time>2025-09-13T09:41:45Z</time>
      </trkpt>
      <trkpt lat="47.62233" lon="6.8498">
        <ele>356.7</ele>
        <time>2025-09-13T09:41:46Z</time>
      </trkpt>
      <trkpt lat="47.62225" lon="6.84982">
        <ele>356.7</ele>
        <time>2025-09-13T09:41:47Z</time>
      </trkpt>
      <trkpt lat="47.62219" lon="6.84983">
        <ele>356.8</ele>
        <time>2025-09-13T09:41:48Z</time>
      </trkpt>
      <trkpt lat="47.62211" lon="6.84984">
        <ele>356.8</ele>
        <time>2025-09-13T09:41:49Z</time>
      </trkpt>
      <trkpt lat="47.62203" lon="6.84985">
        <ele>356.8</ele>
        <time>2025-09-13T09:41:50Z</time>
      </trkpt>
      <trkpt lat="47.62196" lon="6.84986">
        <ele>356.9</ele>
        <time>2025-09-13T09:41:51Z</time>
      </trkpt>
      <trkpt lat="47.62188" lon="6.84987">
        <ele>356.9</ele>
        <time>2025-09-13T09:41:52Z</time>
      </trkpt>
      <trkpt lat="47.6218" lon="6.84989">
        <ele>357</ele>
        <time>2025-09-13T09:41:53Z</time>
      </trkpt>
      <trkpt lat="47.62176" lon="6.84992">
        <ele>357</ele>
        <time>2025-09-13T09:41:54Z</time>
      </trkpt>
      <trkpt lat="47.62168" lon="6.84996">
        <ele>357.1</ele>
        <time>2025-09-13T09:41:55Z</time>
      </trkpt>
      <trkpt lat="47.62161" lon="6.84998">
        <ele>357.2</ele>
        <time>2025-09-13T09:41:56Z</time>
      </trkpt>
      <trkpt lat="47.62155" lon="6.85002">
        <ele>357.3</ele>
        <time>2025-09-13T09:41:57Z</time>
      </trkpt>
      <trkpt lat="47.62152" lon="6.84992">
        <ele>357.3</ele>
        <time>2025-09-13T09:41:58Z</time>
      </trkpt>
      <trkpt lat="47.62148" lon="6.84975">
        <ele>357.4</ele>
        <time>2025-09-13T09:41:59Z</time>
      </trkpt>
      <trkpt lat="47.62148" lon="6.84964">
        <ele>357.5</ele>
        <time>2025-09-13T09:42:00Z</time>
      </trkpt>
      <trkpt lat="47.62147" lon="6.84956">
        <ele>357.5</ele>
        <time>2025-09-13T09:42:01Z</time>
      </trkpt>
      <trkpt lat="47.62143" lon="6.84946">
        <ele>357.6</ele>
        <time>2025-09-13T09:42:02Z</time>
      </trkpt>
      <trkpt lat="47.62139" lon="6.84938">
        <ele>357.6</ele>
        <time>2025-09-13T09:42:03Z</time>
      </trkpt>
      <trkpt lat="47.62137" lon="6.8493">
        <ele>357.7</ele>
        <time>2025-09-13T09:42:04Z</time>
      </trkpt>
      <trkpt lat="47.62134" lon="6.84923">
        <ele>357.8</ele>
        <time>2025-09-13T09:42:05Z</time>
      </trkpt>
      <trkpt lat="47.62128" lon="6.8492">
        <ele>357.8</ele>
        <time>2025-09-13T09:42:06Z</time>
      </trkpt>
      <trkpt lat="47.62119" lon="6.84922">
        <ele>357.9</ele>
        <time>2025-09-13T09:42:07Z</time>
      </trkpt>
      <trkpt lat="47.6211" lon="6.84923">
        <ele>357.9</ele>
        <time>2025-09-13T09:42:08Z</time>
      </trkpt>
      <trkpt lat="47.62105" lon="6.84932">
        <ele>357.9</ele>
        <time>2025-09-13T09:42:09Z</time>
      </trkpt>
      <trkpt lat="47.621" lon="6.84942">
        <ele>358</ele>
        <time>2025-09-13T09:42:10Z</time>
      </trkpt>
      <trkpt lat="47.62092" lon="6.84947">
        <ele>358</ele>
        <time>2025-09-13T09:42:11Z</time>
      </trkpt>
      <trkpt lat="47.62085" lon="6.84953">
        <ele>358</ele>
        <time>2025-09-13T09:42:12Z</time>
      </trkpt>
      <trkpt lat="47.62078" lon="6.84957">
        <ele>358</ele>
        <time>2025-09-13T09:42:13Z</time>
      </trkpt>
      <trkpt lat="47.62072" lon="6.84958">
        <ele>358</ele>
        <time>2025-09-13T09:42:14Z</time>
      </trkpt>
      <trkpt lat="47.62065" lon="6.84961">
        <ele>358.1</ele>
        <time>2025-09-13T09:42:15Z</time>
      </trkpt>
      <trkpt lat="47.62059" lon="6.84961">
        <ele>358.1</ele>
        <time>2025-09-13T09:42:16Z</time>
      </trkpt>
      <trkpt lat="47.62039" lon="6.84963">
        <ele>358.2</ele>
        <time>2025-09-13T09:42:17Z</time>
      </trkpt>
      <trkpt lat="47.62037" lon="6.84963">
        <ele>358.2</ele>
        <time>2025-09-13T09:42:18Z</time>
      </trkpt>
      <trkpt lat="47.62028" lon="6.84968">
        <ele>358.3</ele>
        <time>2025-09-13T09:42:19Z</time>
      </trkpt>
      <trkpt lat="47.62022" lon="6.84971">
        <ele>358.3</ele>
        <time>2025-09-13T09:42:20Z</time>
      </trkpt>
      <trkpt lat="47.62015" lon="6.84974">
        <ele>358.3</ele>
        <time>2025-09-13T09:42:21Z</time>
      </trkpt>
      <trkpt lat="47.62005" lon="6.84974">
        <ele>358.4</ele>
        <time>2025-09-13T09:42:22Z</time>
      </trkpt>
      <trkpt lat="47.61997" lon="6.84976">
        <ele>358.7</ele>
        <time>2025-09-13T09:42:23Z</time>
      </trkpt>
      <trkpt lat="47.61987" lon="6.84976">
        <ele>359.2</ele>
        <time>2025-09-13T09:42:24Z</time>
      </trkpt>
      <trkpt lat="47.61979" lon="6.84977">
        <ele>359.7</ele>
        <time>2025-09-13T09:42:25Z</time>
      </trkpt>
      <trkpt lat="47.6197" lon="6.84979">
        <ele>360.3</ele>
        <time>2025-09-13T09:42:26Z</time>
      </trkpt>
      <trkpt lat="47.61962" lon="6.8498">
        <ele>360.8</ele>
        <time>2025-09-13T09:42:27Z</time>
      </trkpt>
      <trkpt lat="47.61954" lon="6.84981">
        <ele>361.3</ele>
        <time>2025-09-13T09:42:28Z</time>
      </trkpt>
      <trkpt lat="47.61947" lon="6.8498">
        <ele>361.7</ele>
        <time>2025-09-13T09:42:29Z</time>
      </trkpt>
      <trkpt lat="47.6194" lon="6.84977">
        <ele>362.1</ele>
        <time>2025-09-13T09:42:30Z</time>
      </trkpt>
      <trkpt lat="47.61934" lon="6.84979">
        <ele>362.3</ele>
        <time>2025-09-13T09:42:31Z</time>
      </trkpt>
      <trkpt lat="47.61928" lon="6.84986">
        <ele>362.4</ele>
        <time>2025-09-13T09:42:32Z</time>
      </trkpt>
      <trkpt lat="47.61923" lon="6.84994">
        <ele>362.3</ele>
        <time>2025-09-13T09:42:33Z</time>
      </trkpt>
      <trkpt lat="47.61923" lon="6.84999">
        <ele>362.8</ele>
        <extensions>
          <visugpx:TrkExtension xmlns:visugpx="https://www.visugpx.com/editgpx/">
            <visugpx:node>4</visugpx:node>
            </visugpx:TrkExtension>
        </extensions>
      </trkpt>
      <trkpt lat="47.61919" lon="6.85004">
        <ele>362.2</ele>
        <time>2025-09-13T09:42:34Z</time>
      </trkpt>
      <trkpt lat="47.61914" lon="6.85014">
        <ele>362.1</ele>
        <time>2025-09-13T09:42:35Z</time>
      </trkpt>
      <trkpt lat="47.61909" lon="6.85023">
        <ele>362</ele>
        <time>2025-09-13T09:42:36Z</time>
      </trkpt>
      <trkpt lat="47.61904" lon="6.85035">
        <ele>362</ele>
        <time>2025-09-13T09:42:37Z</time>
      </trkpt>
      <trkpt lat="47.619" lon="6.85046">
        <ele>361.9</ele>
        <time>2025-09-13T09:42:38Z</time>
      </trkpt>
      <trkpt lat="47.61895" lon="6.85057">
        <ele>361.9</ele>
        <time>2025-09-13T09:42:39Z</time>
      </trkpt>
      <trkpt lat="47.61891" lon="6.85069">
        <ele>361.9</ele>
        <time>2025-09-13T09:42:40Z</time>
      </trkpt>
      <trkpt lat="47.61887" lon="6.8508">
        <ele>361.9</ele>
        <time>2025-09-13T09:42:41Z</time>
      </trkpt>
      <trkpt lat="47.61883" lon="6.85091">
        <ele>361.8</ele>
        <time>2025-09-13T09:42:42Z</time>
      </trkpt>
      <trkpt lat="47.61878" lon="6.85102">
        <ele>361.8</ele>
        <time>2025-09-13T09:42:43Z</time>
      </trkpt>
      <trkpt lat="47.61875" lon="6.85111">
        <ele>361.8</ele>
        <time>2025-09-13T09:42:44Z</time>
      </trkpt>
      <trkpt lat="47.61871" lon="6.85121">
        <ele>361.8</ele>
        <time>2025-09-13T09:42:45Z</time>
      </trkpt>
      <trkpt lat="47.61867" lon="6.85132">
        <ele>361.7</ele>
        <time>2025-09-13T09:42:46Z</time>
      </trkpt>
      <trkpt lat="47.61863" lon="6.85144">
        <ele>361.7</ele>
        <time>2025-09-13T09:42:47Z</time>
      </trkpt>
      <trkpt lat="47.61859" lon="6.85154">
        <ele>361.6</ele>
        <time>2025-09-13T09:42:48Z</time>
      </trkpt>
      <trkpt lat="47.61855" lon="6.85165">
        <ele>361.4</ele>
        <time>2025-09-13T09:42:49Z</time>
      </trkpt>
      <trkpt lat="47.6185" lon="6.85176">
        <ele>361.4</ele>
        <time>2025-09-13T09:42:50Z</time>
      </trkpt>
      <trkpt lat="47.61844" lon="6.85186">
        <ele>361.3</ele>
        <time>2025-09-13T09:42:51Z</time>
      </trkpt>
      <trkpt lat="47.61837" lon="6.85194">
        <ele>361.2</ele>
        <time>2025-09-13T09:42:52Z</time>
      </trkpt>
      <trkpt lat="47.61836" lon="6.85195">
        <ele>361</ele>
        <extensions>
          <visugpx:TrkExtension xmlns:visugpx="https://www.visugpx.com/editgpx/">
            <visugpx:node>5</visugpx:node>
            </visugpx:TrkExtension>
        </extensions>
      </trkpt>
      <trkpt lat="47.61829" lon="6.85199">
        <ele>361.1</ele>
        <time>2025-09-13T09:42:53Z</time>
      </trkpt>
      <trkpt lat="47.61822" lon="6.85208">
        <ele>360.8</ele>
        <time>2025-09-13T09:42:54Z</time>
      </trkpt>
      <trkpt lat="47.6182" lon="6.85222">
        <ele>359.9</ele>
        <time>2025-09-13T09:42:55Z</time>
      </trkpt>
      <trkpt lat="47.61822" lon="6.85236">
        <ele>359.8</ele>
        <time>2025-09-13T09:42:56Z</time>
      </trkpt>
      <trkpt lat="47.61824" lon="6.8525">
        <ele>359.7</ele>
        <time>2025-09-13T09:42:57Z</time>
      </trkpt>
      <trkpt lat="47.61827" lon="6.85265">
        <ele>359.6</ele>
        <time>2025-09-13T09:42:58Z</time>
      </trkpt>
      <trkpt lat="47.61827" lon="6.85278">
        <ele>359.6</ele>
        <time>2025-09-13T09:42:59Z</time>
      </trkpt>
      <trkpt lat="47.61826" lon="6.85292">
        <ele>359.6</ele>
        <time>2025-09-13T09:43:00Z</time>
      </trkpt>
      <trkpt lat="47.61825" lon="6.85307">
        <ele>359.7</ele>
        <time>2025-09-13T09:43:01Z</time>
      </trkpt>
      <trkpt lat="47.61826" lon="6.8532">
        <ele>359.7</ele>
        <time>2025-09-13T09:43:02Z</time>
      </trkpt>
      <trkpt lat="47.61826" lon="6.85332">
        <ele>359.8</ele>
        <time>2025-09-13T09:43:03Z</time>
      </trkpt>
      <trkpt lat="47.61827" lon="6.85346">
        <ele>359.9</ele>
        <time>2025-09-13T09:43:04Z</time>
      </trkpt>
      <trkpt lat="47.61828" lon="6.85358">
        <ele>360</ele>
        <time>2025-09-13T09:43:05Z</time>
      </trkpt>
      <trkpt lat="47.61829" lon="6.8537">
        <ele>360.1</ele>
        <time>2025-09-13T09:43:06Z</time>
      </trkpt>
      <trkpt lat="47.6183" lon="6.85382">
        <ele>360.1</ele>
        <time>2025-09-13T09:43:07Z</time>
      </trkpt>
      <trkpt lat="47.6183" lon="6.85394">
        <ele>360.2</ele>
        <time>2025-09-13T09:43:08Z</time>
      </trkpt>
      <trkpt lat="47.61832" lon="6.85407">
        <ele>360.3</ele>
        <time>2025-09-13T09:43:09Z</time>
      </trkpt>
      <trkpt lat="47.61832" lon="6.85418">
        <ele>360.4</ele>
        <time>2025-09-13T09:43:10Z</time>
      </trkpt>
      <trkpt lat="47.61833" lon="6.85429">
        <ele>360.4</ele>
        <time>2025-09-13T09:43:11Z</time>
      </trkpt>
      <trkpt lat="47.61835" lon="6.85442">
        <ele>360.4</ele>
        <time>2025-09-13T09:43:12Z</time>
      </trkpt>
      <trkpt lat="47.61836" lon="6.85455">
        <ele>360.4</ele>
        <time>2025-09-13T09:43:13Z</time>
      </trkpt>
      <trkpt lat="47.61837" lon="6.85467">
        <ele>360.4</ele>
        <time>2025-09-13T09:43:14Z</time>
      </trkpt>
      <trkpt lat="47.61837" lon="6.85478">
        <ele>360.4</ele>
        <time>2025-09-13T09:43:15Z</time>
      </trkpt>
      <trkpt lat="47.61838" lon="6.85491">
        <ele>360.4</ele>
        <time>2025-09-13T09:43:16Z</time>
      </trkpt>
      <trkpt lat="47.6184" lon="6.85504">
        <ele>360.3</ele>
        <time>2025-09-13T09:43:17Z</time>
      </trkpt>
      <trkpt lat="47.61841" lon="6.85516">
        <ele>360.3</ele>
        <time>2025-09-13T09:43:18Z</time>
      </trkpt>
      <trkpt lat="47.61843" lon="6.85529">
        <ele>360.3</ele>
        <time>2025-09-13T09:43:19Z</time>
      </trkpt>
      <trkpt lat="47.61844" lon="6.85541">
        <ele>360.1</ele>
        <time>2025-09-13T09:43:20Z</time>
      </trkpt>
      <trkpt lat="47.61845" lon="6.85553">
        <ele>359.9</ele>
        <time>2025-09-13T09:43:21Z</time>
      </trkpt>
      <trkpt lat="47.61846" lon="6.85566">
        <ele>359.6</ele>
        <time>2025-09-13T09:43:22Z</time>
      </trkpt>
      <trkpt lat="47.61847" lon="6.8558">
        <ele>359.4</ele>
        <time>2025-09-13T09:43:23Z</time>
      </trkpt>
      <trkpt lat="47.61848" lon="6.85595">
        <ele>359.2</ele>
        <time>2025-09-13T09:43:24Z</time>
      </trkpt>
      <trkpt lat="47.61849" lon="6.85609">
        <ele>359</ele>
        <time>2025-09-13T09:43:25Z</time>
      </trkpt>
      <trkpt lat="47.61849" lon="6.85622">
        <ele>358.8</ele>
        <time>2025-09-13T09:43:26Z</time>
      </trkpt>
      <trkpt lat="47.61848" lon="6.85637">
        <ele>358.5</ele>
        <time>2025-09-13T09:43:27Z</time>
      </trkpt>
      <trkpt lat="47.61847" lon="6.85651">
        <ele>358.3</ele>
        <time>2025-09-13T09:43:28Z</time>
      </trkpt>
      <trkpt lat="47.61842" lon="6.85666">
        <ele>358.3</ele>
        <time>2025-09-13T09:43:29Z</time>
      </trkpt>
      <trkpt lat="47.6184" lon="6.85679">
        <ele>358.5</ele>
        <extensions>
          <visugpx:TrkExtension xmlns:visugpx="https://www.visugpx.com/editgpx/">
            <visugpx:node>6</visugpx:node>
            </visugpx:TrkExtension>
        </extensions>
      </trkpt>
      <trkpt lat="47.61838" lon="6.85681">
        <ele>358.2</ele>
        <time>2025-09-13T09:43:30Z</time>
      </trkpt>
      <trkpt lat="47.61837" lon="6.85694">
        <ele>358.2</ele>
        <time>2025-09-13T09:43:31Z</time>
      </trkpt>
      <trkpt lat="47.61841" lon="6.85708">
        <ele>358.1</ele>
        <time>2025-09-13T09:43:32Z</time>
      </trkpt>
      <trkpt lat="47.61845" lon="6.85724">
        <ele>358</ele>
        <time>2025-09-13T09:43:33Z</time>
      </trkpt>
      <trkpt lat="47.61843" lon="6.85737">
        <ele>358</ele>
        <time>2025-09-13T09:43:34Z</time>
      </trkpt>
      <trkpt lat="47.61839" lon="6.85749">
        <ele>358</ele>
        <time>2025-09-13T09:43:35Z</time>
      </trkpt>
      <trkpt lat="47.61836" lon="6.85763">
        <ele>358.1</ele>
        <time>2025-09-13T09:43:36Z</time>
      </trkpt>
      <trkpt lat="47.61833" lon="6.85777">
        <ele>358.1</ele>
        <time>2025-09-13T09:43:37Z</time>
      </trkpt>
      <trkpt lat="47.6183" lon="6.85788">
        <ele>358.1</ele>
        <time>2025-09-13T09:43:38Z</time>
      </trkpt>
      <trkpt lat="47.61827" lon="6.85801">
        <ele>358</ele>
        <time>2025-09-13T09:43:39Z</time>
      </trkpt>
      <trkpt lat="47.61824" lon="6.85814">
        <ele>357.9</ele>
        <time>2025-09-13T09:43:40Z</time>
      </trkpt>
      <trkpt lat="47.61821" lon="6.85827">
        <ele>357.8</ele>
        <time>2025-09-13T09:43:41Z</time>
      </trkpt>
      <trkpt lat="47.61818" lon="6.8584">
        <ele>357.7</ele>
        <time>2025-09-13T09:43:42Z</time>
      </trkpt>
      <trkpt lat="47.61815" lon="6.85852">
        <ele>357.5</ele>
        <time>2025-09-13T09:43:43Z</time>
      </trkpt>
      <trkpt lat="47.61811" lon="6.85866">
        <ele>357.3</ele>
        <time>2025-09-13T09:43:44Z</time>
      </trkpt>
      <trkpt lat="47.61808" lon="6.85879">
        <ele>357</ele>
        <time>2025-09-13T09:43:45Z</time>
      </trkpt>
      <trkpt lat="47.61803" lon="6.85892">
        <ele>356.7</ele>
        <time>2025-09-13T09:43:46Z</time>
      </trkpt>
      <trkpt lat="47.61799" lon="6.85905">
        <ele>356.3</ele>
        <time>2025-09-13T09:43:47Z</time>
      </trkpt>
      <trkpt lat="47.61795" lon="6.8592">
        <ele>355.8</ele>
        <time>2025-09-13T09:43:48Z</time>
      </trkpt>
      <trkpt lat="47.61789" lon="6.85932">
        <ele>355.3</ele>
        <time>2025-09-13T09:43:49Z</time>
      </trkpt>
      <trkpt lat="47.61781" lon="6.85943">
        <ele>354.8</ele>
        <time>2025-09-13T09:43:50Z</time>
      </trkpt>
      <trkpt lat="47.61773" lon="6.85954">
        <ele>354.4</ele>
        <time>2025-09-13T09:43:51Z</time>
      </trkpt>
      <trkpt lat="47.61765" lon="6.85963">
        <ele>353.9</ele>
        <time>2025-09-13T09:43:52Z</time>
      </trkpt>
      <trkpt lat="47.61756" lon="6.85965">
        <ele>353.6</ele>
        <extensions>
          <visugpx:TrkExtension xmlns:visugpx="https://www.visugpx.com/editgpx/">
            <visugpx:node>7</visugpx:node>
            </visugpx:TrkExtension>
        </extensions>
      </trkpt>
      <trkpt lat="47.61754" lon="6.85966">
        <ele>353.5</ele>
        <time>2025-09-13T09:43:53Z</time>
      </trkpt>
      <trkpt lat="47.61743" lon="6.85963">
        <ele>353</ele>
        <time>2025-09-13T09:43:54Z</time>
      </trkpt>
      <trkpt lat="47.61732" lon="6.85961">
        <ele>352.5</ele>
        <time>2025-09-13T09:43:55Z</time>
      </trkpt>
      <trkpt lat="47.61722" lon="6.85957">
        <ele>352.1</ele>
        <time>2025-09-13T09:43:56Z</time>
      </trkpt>
      <trkpt lat="47.61713" lon="6.85951">
        <ele>351.7</ele>
        <time>2025-09-13T09:43:57Z</time>
      </trkpt>
      <trkpt lat="47.61702" lon="6.85946">
        <ele>351.4</ele>
        <time>2025-09-13T09:43:58Z</time>
      </trkpt>
      <trkpt lat="47.61691" lon="6.85941">
        <ele>351.2</ele>
        <time>2025-09-13T09:43:59Z</time>
      </trkpt>
      <trkpt lat="47.61682" lon="6.85937">
        <ele>351</ele>
        <time>2025-09-13T09:44:00Z</time>
      </trkpt>
      <trkpt lat="47.61672" lon="6.85934">
        <ele>350.9</ele>
        <time>2025-09-13T09:44:01Z</time>
      </trkpt>
      <trkpt lat="47.61663" lon="6.85931">
        <ele>350.8</ele>
        <time>2025-09-13T09:44:02Z</time>
      </trkpt>
      <trkpt lat="47.61653" lon="6.85927">
        <ele>350.7</ele>
        <time>2025-09-13T09:44:03Z</time>
      </trkpt>
      <trkpt lat="47.61643" lon="6.85925">
        <ele>350.7</ele>
        <time>2025-09-13T09:44:04Z</time>
      </trkpt>
      <trkpt lat="47.61633" lon="6.85925">
        <ele>350.7</ele>
        <time>2025-09-13T09:44:05Z</time>
      </trkpt>
      <trkpt lat="47.61625" lon="6.85924">
        <ele>350.7</ele>
        <time>2025-09-13T09:44:06Z</time>
      </trkpt>
      <trkpt lat="47.61617" lon="6.85923">
        <ele>350.8</ele>
        <time>2025-09-13T09:44:07Z</time>
      </trkpt>
      <trkpt lat="47.61609" lon="6.85922">
        <ele>350.9</ele>
        <time>2025-09-13T09:44:08Z</time>
      </trkpt>
      <trkpt lat="47.616" lon="6.85919">
        <ele>350.9</ele>
        <time>2025-09-13T09:44:09Z</time>
      </trkpt>
      <trkpt lat="47.61592" lon="6.85916">
        <ele>351</ele>
        <time>2025-09-13T09:44:10Z</time>
      </trkpt>
      <trkpt lat="47.61587" lon="6.85915">
        <ele>351.1</ele>
        <time>2025-09-13T09:44:11Z</time>
      </trkpt>
      <trkpt lat="47.61578" lon="6.85918">
        <ele>351</ele>
        <time>2025-09-13T09:44:12Z</time>
      </trkpt>
      <trkpt lat="47.61572" lon="6.85927">
        <ele>351</ele>
        <time>2025-09-13T09:44:13Z</time>
      </trkpt>
      <trkpt lat="47.61569" lon="6.85935">
        <ele>351</ele>
        <time>2025-09-13T09:44:14Z</time>
      </trkpt>
      <trkpt lat="47.61568" lon="6.85943">
        <ele>351</ele>
        <time>2025-09-13T09:44:15Z</time>
      </trkpt>
      <trkpt lat="47.61569" lon="6.85951">
        <ele>351</ele>
        <time>2025-09-13T09:44:16Z</time>
      </trkpt>
      <trkpt lat="47.61569" lon="6.85949">
        <ele>350.8</ele>
        <extensions>
          <visugpx:TrkExtension xmlns:visugpx="https://www.visugpx.com/editgpx/">
            <visugpx:node>8</visugpx:node>
            </visugpx:TrkExtension>
        </extensions>
      </trkpt>
      <trkpt lat="47.61575" lon="6.85967">
        <ele>351</ele>
        <time>2025-09-13T09:44:17Z</time>
      </trkpt>
      <trkpt lat="47.61577" lon="6.85979">
        <ele>350.9</ele>
        <time>2025-09-13T09:44:18Z</time>
      </trkpt>
      <trkpt lat="47.61578" lon="6.85992">
        <ele>350.9</ele>
        <time>2025-09-13T09:44:19Z</time>
      </trkpt>
      <trkpt lat="47.6158" lon="6.86003">
        <ele>350.8</ele>
        <time>2025-09-13T09:44:20Z</time>
      </trkpt>
      <trkpt lat="47.6158" lon="6.86013">
        <ele>350.8</ele>
        <time>2025-09-13T09:44:21Z</time>
      </trkpt>
      <trkpt lat="47.61581" lon="6.86024">
        <ele>350.7</ele>
        <time>2025-09-13T09:44:22Z</time>
      </trkpt>
      <trkpt lat="47.61581" lon="6.86036">
        <ele>350.6</ele>
        <time>2025-09-13T09:44:23Z</time>
      </trkpt>
      <trkpt lat="47.61581" lon="6.86041">
        <ele>350.6</ele>
        <time>2025-09-13T09:44:24Z</time>
      </trkpt>
      <trkpt lat="47.61581" lon="6.86053">
        <ele>350.4</ele>
        <time>2025-09-13T09:44:25Z</time>
      </trkpt>
      <trkpt lat="47.61583" lon="6.86066">
        <ele>350.3</ele>
        <time>2025-09-13T09:44:26Z</time>
      </trkpt>
      <trkpt lat="47.61584" lon="6.8608">
        <ele>350.2</ele>
        <time>2025-09-13T09:44:27Z</time>
      </trkpt>
      <trkpt lat="47.61586" lon="6.86094">
        <ele>350.1</ele>
        <time>2025-09-13T09:44:28Z</time>
      </trkpt>
      <trkpt lat="47.61588" lon="6.86108">
        <ele>350.1</ele>
        <time>2025-09-13T09:44:29Z</time>
      </trkpt>
      <trkpt lat="47.61589" lon="6.8612">
        <ele>350.1</ele>
        <time>2025-09-13T09:44:30Z</time>
      </trkpt>
      <trkpt lat="47.6159" lon="6.86133">
        <ele>350</ele>
        <time>2025-09-13T09:44:31Z</time>
      </trkpt>
      <trkpt lat="47.61592" lon="6.86145">
        <ele>350</ele>
        <time>2025-09-13T09:44:32Z</time>
      </trkpt>
      <trkpt lat="47.61593" lon="6.86156">
        <ele>350</ele>
        <time>2025-09-13T09:44:33Z</time>
      </trkpt>
      <trkpt lat="47.61594" lon="6.86165">
        <ele>350</ele>
        <time>2025-09-13T09:44:34Z</time>
      </trkpt>
      <trkpt lat="47.61596" lon="6.86167">
        <ele>350</ele>
        <extensions>
          <visugpx:TrkExtension xmlns:visugpx="https://www.visugpx.com/editgpx/">
            <visugpx:node>9</visugpx:node>
            </visugpx:TrkExtension>
        </extensions>
      </trkpt>
      <trkpt lat="47.61598" lon="6.86172">
        <ele>350</ele>
        <time>2025-09-13T09:44:35Z</time>
      </trkpt>
      <trkpt lat="47.61613" lon="6.86175">
        <ele>350</ele>
        <time>2025-09-13T09:44:36Z</time>
      </trkpt>
      <trkpt lat="47.61621" lon="6.86173">
        <ele>349.9</ele>
        <time>2025-09-13T09:44:37Z</time>
      </trkpt>
      <trkpt lat="47.61628" lon="6.86169">
        <ele>349.9</ele>
        <time>2025-09-13T09:44:38Z</time>
      </trkpt>
      <trkpt lat="47.61635" lon="6.86167">
        <ele>349.9</ele>
        <time>2025-09-13T09:44:39Z</time>
      </trkpt>
      <trkpt lat="47.61642" lon="6.86165">
        <ele>349.8</ele>
        <time>2025-09-13T09:44:40Z</time>
      </trkpt>
      <trkpt lat="47.61649" lon="6.86164">
        <ele>349.8</ele>
        <time>2025-09-13T09:44:41Z</time>
      </trkpt>
      <trkpt lat="47.61657" lon="6.86163">
        <ele>349.9</ele>
        <time>2025-09-13T09:44:42Z</time>
      </trkpt>
      <trkpt lat="47.61664" lon="6.86164">
        <ele>349.9</ele>
        <time>2025-09-13T09:44:43Z</time>
      </trkpt>
      <trkpt lat="47.61671" lon="6.86164">
        <ele>349.9</ele>
        <time>2025-09-13T09:44:44Z</time>
      </trkpt>
      <trkpt lat="47.61679" lon="6.86163">
        <ele>349.9</ele>
        <time>2025-09-13T09:44:45Z</time>
      </trkpt>
      <trkpt lat="47.61687" lon="6.86165">
        <ele>349.9</ele>
        <time>2025-09-13T09:44:46Z</time>
      </trkpt>
      <trkpt lat="47.61696" lon="6.86167">
        <ele>349.9</ele>
        <time>2025-09-13T09:44:47Z</time>
      </trkpt>
      <trkpt lat="47.61703" lon="6.86169">
        <ele>350</ele>
        <time>2025-09-13T09:44:48Z</time>
      </trkpt>
      <trkpt lat="47.6171" lon="6.86172">
        <ele>350</ele>
        <time>2025-09-13T09:44:49Z</time>
      </trkpt>
      <trkpt lat="47.61718" lon="6.86175">
        <ele>350</ele>
        <time>2025-09-13T09:44:50Z</time>
      </trkpt>
      <trkpt lat="47.61724" lon="6.8618">
        <ele>350</ele>
        <time>2025-09-13T09:44:51Z</time>
      </trkpt>
      <trkpt lat="47.6173" lon="6.86182">
        <ele>350.1</ele>
        <time>2025-09-13T09:44:52Z</time>
      </trkpt>
      <trkpt lat="47.61733" lon="6.86185">
        <ele>350.1</ele>
        <time>2025-09-13T09:44:53Z</time>
      </trkpt>
      <trkpt lat="47.61733" lon="6.86189">
        <ele>350.1</ele>
        <time>2025-09-13T09:44:54Z</time>
      </trkpt>
      <trkpt lat="47.61734" lon="6.86191">
        <ele>350.1</ele>
        <time>2025-09-13T09:44:55Z</time>
      </trkpt>
      <trkpt lat="47.61737" lon="6.86194">
        <ele>350.1</ele>
        <time>2025-09-13T09:44:56Z</time>
      </trkpt>
      <trkpt lat="47.61738" lon="6.86195">
        <ele>350.2</ele>
        <time>2025-09-13T09:44:57Z</time>
      </trkpt>
      <trkpt lat="47.61742" lon="6.86198">
        <ele>350.2</ele>
        <time>2025-09-13T09:44:58Z</time>
      </trkpt>
      <trkpt lat="47.61743" lon="6.86199">
        <ele>350.2</ele>
        <time>2025-09-13T09:44:59Z</time>
      </trkpt>
      <trkpt lat="47.61746" lon="6.86203">
        <ele>350.3</ele>
        <time>2025-09-13T09:45:00Z</time>
      </trkpt>
      <trkpt lat="47.61749" lon="6.86206">
        <ele>350.3</ele>
        <time>2025-09-13T09:45:01Z</time>
      </trkpt>
      <trkpt lat="47.61752" lon="6.86212">
        <ele>350.3</ele>
        <time>2025-09-13T09:45:02Z</time>
      </trkpt>
      <trkpt lat="47.61755" lon="6.86216">
        <ele>350.3</ele>
        <time>2025-09-13T09:45:04Z</time>
      </trkpt>
      <trkpt lat="47.61759" lon="6.8622">
        <ele>350.4</ele>
        <time>2025-09-13T09:45:05Z</time>
      </trkpt>
      <trkpt lat="47.61763" lon="6.86227">
        <ele>350.4</ele>
        <time>2025-09-13T09:45:06Z</time>
      </trkpt>
      <trkpt lat="47.61767" lon="6.86232">
        <ele>350.4</ele>
        <time>2025-09-13T09:45:07Z</time>
      </trkpt>
      <trkpt lat="47.61772" lon="6.8624">
        <ele>350.4</ele>
        <time>2025-09-13T09:45:08Z</time>
      </trkpt>
      <trkpt lat="47.61777" lon="6.86248">
        <ele>350.5</ele>
        <time>2025-09-13T09:45:09Z</time>
      </trkpt>
      <trkpt lat="47.61782" lon="6.86255">
        <ele>350.5</ele>
        <time>2025-09-13T09:45:10Z</time>
      </trkpt>
      <trkpt lat="47.61787" lon="6.86261">
        <ele>350.5</ele>
        <time>2025-09-13T09:45:11Z</time>
      </trkpt>
      <trkpt lat="47.61791" lon="6.86268">
        <ele>350.6</ele>
        <time>2025-09-13T09:45:12Z</time>
      </trkpt>
      <trkpt lat="47.61796" lon="6.86276">
        <ele>350.6</ele>
        <time>2025-09-13T09:45:13Z</time>
      </trkpt>
      <trkpt lat="47.61801" lon="6.86284">
        <ele>350.7</ele>
        <time>2025-09-13T09:45:14Z</time>
      </trkpt>
      <trkpt lat="47.61803" lon="6.86295">
        <ele>350.7</ele>
        <time>2025-09-13T09:45:15Z</time>
      </trkpt>
      <trkpt lat="47.61804" lon="6.86305">
        <ele>350.7</ele>
        <time>2025-09-13T09:45:16Z</time>
      </trkpt>
      <trkpt lat="47.61804" lon="6.86317">
        <ele>350.8</ele>
        <time>2025-09-13T09:45:17Z</time>
      </trkpt>
      <trkpt lat="47.61804" lon="6.86329">
        <ele>350.8</ele>
        <time>2025-09-13T09:45:18Z</time>
      </trkpt>
      <trkpt lat="47.61803" lon="6.86339">
        <ele>350.8</ele>
        <time>2025-09-13T09:45:19Z</time>
      </trkpt>
      <trkpt lat="47.61803" lon="6.86348">
        <ele>350.9</ele>
        <time>2025-09-13T09:45:20Z</time>
      </trkpt>
      <trkpt lat="47.61802" lon="6.86358">
        <ele>350.9</ele>
        <time>2025-09-13T09:45:21Z</time>
      </trkpt>
      <trkpt lat="47.61802" lon="6.86369">
        <ele>351</ele>
        <time>2025-09-13T09:45:22Z</time>
      </trkpt>
      <trkpt lat="47.61802" lon="6.8638">
        <ele>351</ele>
        <time>2025-09-13T09:45:23Z</time>
      </trkpt>
      <trkpt lat="47.61803" lon="6.86392">
        <ele>351.1</ele>
        <time>2025-09-13T09:45:24Z</time>
      </trkpt>
      <trkpt lat="47.61804" lon="6.86405">
        <ele>351.1</ele>
        <time>2025-09-13T09:45:25Z</time>
      </trkpt>
      <trkpt lat="47.61804" lon="6.86417">
        <ele>351.1</ele>
        <time>2025-09-13T09:45:26Z</time>
      </trkpt>
      <trkpt lat="47.61806" lon="6.86428">
        <ele>351.1</ele>
        <time>2025-09-13T09:45:27Z</time>
      </trkpt>
      <trkpt lat="47.61805" lon="6.86439">
        <ele>351.1</ele>
        <time>2025-09-13T09:45:28Z</time>
      </trkpt>
      <trkpt lat="47.61806" lon="6.86451">
        <ele>351</ele>
        <time>2025-09-13T09:45:29Z</time>
      </trkpt>
      <trkpt lat="47.61807" lon="6.86462">
        <ele>351.1</ele>
        <time>2025-09-13T09:45:30Z</time>
      </trkpt>
      <trkpt lat="47.61807" lon="6.86473">
        <ele>351.1</ele>
        <time>2025-09-13T09:45:31Z</time>
      </trkpt>
      <trkpt lat="47.61807" lon="6.86483">
        <ele>351.1</ele>
        <time>2025-09-13T09:45:32Z</time>
      </trkpt>
      <trkpt lat="47.61808" lon="6.86494">
        <ele>351.1</ele>
        <time>2025-09-13T09:45:33Z</time>
      </trkpt>
      <trkpt lat="47.61809" lon="6.86505">
        <ele>351.1</ele>
        <time>2025-09-13T09:45:34Z</time>
      </trkpt>
      <trkpt lat="47.61809" lon="6.86518">
        <ele>351.1</ele>
        <time>2025-09-13T09:45:35Z</time>
      </trkpt>
      <trkpt lat="47.6181" lon="6.86527">
        <ele>351.1</ele>
        <time>2025-09-13T09:45:36Z</time>
      </trkpt>
      <trkpt lat="47.61811" lon="6.86538">
        <ele>351.1</ele>
        <time>2025-09-13T09:45:37Z</time>
      </trkpt>
      <trkpt lat="47.61813" lon="6.86551">
        <ele>351.1</ele>
        <time>2025-09-13T09:45:38Z</time>
      </trkpt>
      <trkpt lat="47.61814" lon="6.86562">
        <ele>351.1</ele>
        <time>2025-09-13T09:45:39Z</time>
      </trkpt>
      <trkpt lat="47.61815" lon="6.86572">
        <ele>351.2</ele>
        <time>2025-09-13T09:45:40Z</time>
      </trkpt>
      <trkpt lat="47.61816" lon="6.86584">
        <ele>351.2</ele>
        <time>2025-09-13T09:45:41Z</time>
      </trkpt>
      <trkpt lat="47.61817" lon="6.86595">
        <ele>351.2</ele>
        <time>2025-09-13T09:45:42Z</time>
      </trkpt>
      <trkpt lat="47.61818" lon="6.86606">
        <ele>351.3</ele>
        <time>2025-09-13T09:45:43Z</time>
      </trkpt>
      <trkpt lat="47.61819" lon="6.86618">
        <ele>351.3</ele>
        <time>2025-09-13T09:45:44Z</time>
      </trkpt>
      <trkpt lat="47.6182" lon="6.86629">
        <ele>351.4</ele>
        <time>2025-09-13T09:45:45Z</time>
      </trkpt>
      <trkpt lat="47.61821" lon="6.86641">
        <ele>351.5</ele>
        <time>2025-09-13T09:45:46Z</time>
      </trkpt>
      <trkpt lat="47.61822" lon="6.86651">
        <ele>351.5</ele>
        <time>2025-09-13T09:45:47Z</time>
      </trkpt>
      <trkpt lat="47.61824" lon="6.86662">
        <ele>351.6</ele>
        <time>2025-09-13T09:45:48Z</time>
      </trkpt>
      <trkpt lat="47.61825" lon="6.86672">
        <ele>351.7</ele>
        <time>2025-09-13T09:45:49Z</time>
      </trkpt>
      <trkpt lat="47.61827" lon="6.86684">
        <ele>351.9</ele>
        <time>2025-09-13T09:45:50Z</time>
      </trkpt>
      <trkpt lat="47.61829" lon="6.86696">
        <ele>352</ele>
        <time>2025-09-13T09:45:51Z</time>
      </trkpt>
      <trkpt lat="47.6183" lon="6.86706">
        <ele>352.1</ele>
        <time>2025-09-13T09:45:52Z</time>
      </trkpt>
      <trkpt lat="47.61831" lon="6.86715">
        <ele>352.5</ele>
        <time>2025-09-13T09:45:53Z</time>
      </trkpt>
      <trkpt lat="47.61827" lon="6.86724">
        <ele>353.1</ele>
        <time>2025-09-13T09:45:54Z</time>
      </trkpt>
      <trkpt lat="47.61822" lon="6.86734">
        <ele>353.4</ele>
        <time>2025-09-13T09:45:55Z</time>
      </trkpt>
      <trkpt lat="47.61817" lon="6.86739">
        <ele>353.6</ele>
        <time>2025-09-13T09:45:56Z</time>
      </trkpt>
      <trkpt lat="47.61812" lon="6.86745">
        <ele>353.8</ele>
        <time>2025-09-13T09:45:57Z</time>
      </trkpt>
      <trkpt lat="47.61807" lon="6.86749">
        <ele>353.9</ele>
        <time>2025-09-13T09:45:58Z</time>
      </trkpt>
      <trkpt lat="47.61803" lon="6.86754">
        <ele>354.1</ele>
        <time>2025-09-13T09:45:59Z</time>
      </trkpt>
      <trkpt lat="47.618" lon="6.86761">
        <ele>354.3</ele>
        <time>2025-09-13T09:46:00Z</time>
      </trkpt>
      <trkpt lat="47.61797" lon="6.86768">
        <ele>354.4</ele>
        <time>2025-09-13T09:46:01Z</time>
      </trkpt>
      <trkpt lat="47.61795" lon="6.86776">
        <ele>354.5</ele>
        <time>2025-09-13T09:46:02Z</time>
      </trkpt>
      <trkpt lat="47.61792" lon="6.86783">
        <ele>354.6</ele>
        <time>2025-09-13T09:46:03Z</time>
      </trkpt>
      <trkpt lat="47.6179" lon="6.8679">
        <ele>354.7</ele>
        <time>2025-09-13T09:46:04Z</time>
      </trkpt>
      <trkpt lat="47.61788" lon="6.86799">
        <ele>354.7</ele>
        <time>2025-09-13T09:46:05Z</time>
      </trkpt>
      <trkpt lat="47.61783" lon="6.86815">
        <ele>354.9</ele>
        <time>2025-09-13T09:46:06Z</time>
      </trkpt>
      <trkpt lat="47.61781" lon="6.86824">
        <ele>355</ele>
        <time>2025-09-13T09:46:07Z</time>
      </trkpt>
      <trkpt lat="47.61779" lon="6.86833">
        <ele>355.1</ele>
        <time>2025-09-13T09:46:08Z</time>
      </trkpt>
      <trkpt lat="47.61778" lon="6.86843">
        <ele>355.2</ele>
        <time>2025-09-13T09:46:09Z</time>
      </trkpt>
      <trkpt lat="47.61775" lon="6.86851">
        <ele>355.4</ele>
        <time>2025-09-13T09:46:10Z</time>
      </trkpt>
      <trkpt lat="47.61773" lon="6.8686">
        <ele>355.5</ele>
        <time>2025-09-13T09:46:11Z</time>
      </trkpt>
      <trkpt lat="47.6177" lon="6.8687">
        <ele>355.7</ele>
        <time>2025-09-13T09:46:12Z</time>
      </trkpt>
      <trkpt lat="47.61768" lon="6.86879">
        <ele>355.8</ele>
        <time>2025-09-13T09:46:13Z</time>
      </trkpt>
      <trkpt lat="47.61764" lon="6.86887">
        <ele>356</ele>
        <time>2025-09-13T09:46:14Z</time>
      </trkpt>
      <trkpt lat="47.6176" lon="6.86895">
        <ele>356.3</ele>
        <time>2025-09-13T09:46:15Z</time>
      </trkpt>
      <trkpt lat="47.61756" lon="6.86901">
        <ele>356.5</ele>
        <time>2025-09-13T09:46:16Z</time>
      </trkpt>
      <trkpt lat="47.61752" lon="6.86907">
        <ele>356.7</ele>
        <time>2025-09-13T09:46:17Z</time>
      </trkpt>
      <trkpt lat="47.61748" lon="6.86912">
        <ele>357</ele>
        <time>2025-09-13T09:46:18Z</time>
      </trkpt>
      <trkpt lat="47.61743" lon="6.86919">
        <ele>357.2</ele>
        <time>2025-09-13T09:46:19Z</time>
      </trkpt>
      <trkpt lat="47.61739" lon="6.86924">
        <ele>357.5</ele>
        <time>2025-09-13T09:46:20Z</time>
      </trkpt>
      <trkpt lat="47.61736" lon="6.86928">
        <ele>357.7</ele>
        <time>2025-09-13T09:46:21Z</time>
      </trkpt>
      <trkpt lat="47.61732" lon="6.86934">
        <ele>357.8</ele>
        <time>2025-09-13T09:46:22Z</time>
      </trkpt>
      <trkpt lat="47.61729" lon="6.8694">
        <ele>357.9</ele>
        <time>2025-09-13T09:46:23Z</time>
      </trkpt>
      <trkpt lat="47.61725" lon="6.86945">
        <ele>358.1</ele>
        <time>2025-09-13T09:46:24Z</time>
      </trkpt>
      <trkpt lat="47.61722" lon="6.86951">
        <ele>358.2</ele>
        <time>2025-09-13T09:46:25Z</time>
      </trkpt>
      <trkpt lat="47.61719" lon="6.86957">
        <ele>358.3</ele>
        <time>2025-09-13T09:46:26Z</time>
      </trkpt>
      <trkpt lat="47.61715" lon="6.86963">
        <ele>358.5</ele>
        <time>2025-09-13T09:46:27Z</time>
      </trkpt>
      <trkpt lat="47.61712" lon="6.86968">
        <ele>358.6</ele>
        <time>2025-09-13T09:46:28Z</time>
      </trkpt>
      <trkpt lat="47.61711" lon="6.86976">
        <ele>358.5</ele>
        <time>2025-09-13T09:46:29Z</time>
      </trkpt>
      <trkpt lat="47.61714" lon="6.86984">
        <ele>358.4</ele>
        <time>2025-09-13T09:46:30Z</time>
      </trkpt>
      <trkpt lat="47.61718" lon="6.86992">
        <ele>358.2</ele>
        <time>2025-09-13T09:46:31Z</time>
      </trkpt>
      <trkpt lat="47.61723" lon="6.86995">
        <ele>358</ele>
        <time>2025-09-13T09:46:32Z</time>
      </trkpt>
      <trkpt lat="47.61728" lon="6.87">
        <ele>357.9</ele>
        <time>2025-09-13T09:46:33Z</time>
      </trkpt>
      <trkpt lat="47.61735" lon="6.87">
        <ele>357.7</ele>
        <time>2025-09-13T09:46:34Z</time>
      </trkpt>
      <trkpt lat="47.61741" lon="6.86998">
        <ele>357.5</ele>
        <time>2025-09-13T09:46:35Z</time>
      </trkpt>
      <trkpt lat="47.61746" lon="6.86992">
        <ele>357.4</ele>
        <time>2025-09-13T09:46:36Z</time>
      </trkpt>
      <trkpt lat="47.61751" lon="6.86984">
        <ele>357.3</ele>
        <time>2025-09-13T09:46:37Z</time>
      </trkpt>
      <trkpt lat="47.61757" lon="6.86976">
        <ele>357.2</ele>
        <time>2025-09-13T09:46:38Z</time>
      </trkpt>
      <trkpt lat="47.61762" lon="6.86969">
        <ele>357.2</ele>
        <time>2025-09-13T09:46:39Z</time>
      </trkpt>
      <trkpt lat="47.61767" lon="6.86962">
        <ele>357.2</ele>
        <time>2025-09-13T09:46:40Z</time>
      </trkpt>
      <trkpt lat="47.61773" lon="6.86956">
        <ele>357.2</ele>
        <time>2025-09-13T09:46:41Z</time>
      </trkpt>
      <trkpt lat="47.61779" lon="6.86949">
        <ele>357.3</ele>
        <time>2025-09-13T09:46:42Z</time>
      </trkpt>
      <trkpt lat="47.61786" lon="6.86944">
        <ele>357.4</ele>
        <time>2025-09-13T09:46:43Z</time>
      </trkpt>
      <trkpt lat="47.61793" lon="6.86941">
        <ele>357.5</ele>
        <time>2025-09-13T09:46:44Z</time>
      </trkpt>
      <trkpt lat="47.618" lon="6.86938">
        <ele>357.7</ele>
        <time>2025-09-13T09:46:45Z</time>
      </trkpt>
      <trkpt lat="47.61808" lon="6.86936">
        <ele>358</ele>
        <time>2025-09-13T09:46:46Z</time>
      </trkpt>
      <trkpt lat="47.61815" lon="6.86934">
        <ele>358.2</ele>
        <time>2025-09-13T09:46:47Z</time>
      </trkpt>
      <trkpt lat="47.61821" lon="6.86932">
        <ele>358.4</ele>
        <time>2025-09-13T09:46:48Z</time>
      </trkpt>
      <trkpt lat="47.61827" lon="6.86929">
        <ele>358.7</ele>
        <time>2025-09-13T09:46:49Z</time>
      </trkpt>
      <trkpt lat="47.61833" lon="6.86927">
        <ele>358.9</ele>
        <time>2025-09-13T09:46:50Z</time>
      </trkpt>
      <trkpt lat="47.61839" lon="6.86925">
        <ele>359.1</ele>
        <time>2025-09-13T09:46:51Z</time>
      </trkpt>
      <trkpt lat="47.61845" lon="6.86922">
        <ele>359.4</ele>
        <time>2025-09-13T09:46:52Z</time>
      </trkpt>
      <trkpt lat="47.61852" lon="6.86919">
        <ele>359.6</ele>
        <time>2025-09-13T09:46:53Z</time>
      </trkpt>
      <trkpt lat="47.61858" lon="6.86917">
        <ele>359.8</ele>
        <time>2025-09-13T09:46:54Z</time>
      </trkpt>
      <trkpt lat="47.61864" lon="6.86918">
        <ele>360.1</ele>
        <time>2025-09-13T09:46:55Z</time>
      </trkpt>
      <trkpt lat="47.61869" lon="6.8692">
        <ele>360.2</ele>
        <time>2025-09-13T09:46:56Z</time>
      </trkpt>
      <trkpt lat="47.61873" lon="6.86926">
        <ele>360.3</ele>
        <time>2025-09-13T09:46:57Z</time>
      </trkpt>
      <trkpt lat="47.61877" lon="6.86934">
        <ele>360.4</ele>
        <time>2025-09-13T09:46:58Z</time>
      </trkpt>
      <trkpt lat="47.6188" lon="6.86942">
        <ele>360.6</ele>
        <time>2025-09-13T09:46:59Z</time>
      </trkpt>
      <trkpt lat="47.61881" lon="6.86951">
        <ele>360.7</ele>
        <time>2025-09-13T09:47:00Z</time>
      </trkpt>
      <trkpt lat="47.61884" lon="6.86959">
        <ele>360.8</ele>
        <time>2025-09-13T09:47:01Z</time>
      </trkpt>
      <trkpt lat="47.61889" lon="6.86965">
        <ele>360.9</ele>
        <time>2025-09-13T09:47:02Z</time>
      </trkpt>
      <trkpt lat="47.61896" lon="6.86966">
        <ele>361</ele>
        <time>2025-09-13T09:47:03Z</time>
      </trkpt>
      <trkpt lat="47.61902" lon="6.86964">
        <ele>361</ele>
        <time>2025-09-13T09:47:04Z</time>
      </trkpt>
      <trkpt lat="47.61908" lon="6.86961">
        <ele>361.1</ele>
        <time>2025-09-13T09:47:05Z</time>
      </trkpt>
      <trkpt lat="47.61913" lon="6.86958">
        <ele>361.1</ele>
        <time>2025-09-13T09:47:06Z</time>
      </trkpt>
      <trkpt lat="47.6192" lon="6.8696">
        <ele>361.4</ele>
        <time>2025-09-13T09:47:07Z</time>
      </trkpt>
      <trkpt lat="47.61925" lon="6.86966">
        <ele>361.6</ele>
        <time>2025-09-13T09:47:08Z</time>
      </trkpt>
      <trkpt lat="47.61929" lon="6.86975">
        <ele>361.8</ele>
        <time>2025-09-13T09:47:10Z</time>
      </trkpt>
      <trkpt lat="47.61932" lon="6.86985">
        <ele>362</ele>
        <time>2025-09-13T09:47:11Z</time>
      </trkpt>
      <trkpt lat="47.61934" lon="6.86994">
        <ele>362.3</ele>
        <time>2025-09-13T09:47:12Z</time>
      </trkpt>
      <trkpt lat="47.61938" lon="6.87003">
        <ele>362.5</ele>
        <time>2025-09-13T09:47:13Z</time>
      </trkpt>
      <trkpt lat="47.6194" lon="6.87012">
        <ele>362.7</ele>
        <time>2025-09-13T09:47:14Z</time>
      </trkpt>
      <trkpt lat="47.61943" lon="6.8702">
        <ele>362.8</ele>
        <time>2025-09-13T09:47:15Z</time>
      </trkpt>
      <trkpt lat="47.61945" lon="6.87029">
        <ele>363</ele>
        <time>2025-09-13T09:47:16Z</time>
      </trkpt>
      <trkpt lat="47.61948" lon="6.87037">
        <ele>363.1</ele>
        <time>2025-09-13T09:47:17Z</time>
      </trkpt>
      <trkpt lat="47.61948" lon="6.87046">
        <ele>363.2</ele>
        <time>2025-09-13T09:47:18Z</time>
      </trkpt>
      <trkpt lat="47.61949" lon="6.87054">
        <ele>363.4</ele>
        <time>2025-09-13T09:47:19Z</time>
      </trkpt>
      <trkpt lat="47.61952" lon="6.87062">
        <ele>363.6</ele>
        <time>2025-09-13T09:47:20Z</time>
      </trkpt>
      <trkpt lat="47.61955" lon="6.87071">
        <ele>363.8</ele>
        <time>2025-09-13T09:47:21Z</time>
      </trkpt>
      <trkpt lat="47.61958" lon="6.87077">
        <ele>364</ele>
        <time>2025-09-13T09:47:22Z</time>
      </trkpt>
      <trkpt lat="47.6196" lon="6.87084">
        <ele>364.2</ele>
        <time>2025-09-13T09:47:23Z</time>
      </trkpt>
      <trkpt lat="47.61963" lon="6.87092">
        <ele>364.3</ele>
        <time>2025-09-13T09:47:24Z</time>
      </trkpt>
      <trkpt lat="47.61965" lon="6.871">
        <ele>364.4</ele>
        <time>2025-09-13T09:47:25Z</time>
      </trkpt>
      <trkpt lat="47.61968" lon="6.87107">
        <ele>364.6</ele>
        <time>2025-09-13T09:47:26Z</time>
      </trkpt>
      <trkpt lat="47.6197" lon="6.87114">
        <ele>364.7</ele>
        <time>2025-09-13T09:47:27Z</time>
      </trkpt>
      <trkpt lat="47.61972" lon="6.87121">
        <ele>364.9</ele>
        <time>2025-09-13T09:47:28Z</time>
      </trkpt>
      <trkpt lat="47.61974" lon="6.87129">
        <ele>365</ele>
        <time>2025-09-13T09:47:29Z</time>
      </trkpt>
      <trkpt lat="47.61976" lon="6.87138">
        <ele>365.2</ele>
        <time>2025-09-13T09:47:30Z</time>
      </trkpt>
      <trkpt lat="47.61979" lon="6.87146">
        <ele>365.4</ele>
        <time>2025-09-13T09:47:31Z</time>
      </trkpt>
      <trkpt lat="47.61982" lon="6.87154">
        <ele>365.5</ele>
        <time>2025-09-13T09:47:32Z</time>
      </trkpt>
      <trkpt lat="47.61984" lon="6.87163">
        <ele>365.7</ele>
        <time>2025-09-13T09:47:33Z</time>
      </trkpt>
      <trkpt lat="47.61987" lon="6.87171">
        <ele>365.8</ele>
        <time>2025-09-13T09:47:34Z</time>
      </trkpt>
      <trkpt lat="47.61989" lon="6.87179">
        <ele>366</ele>
        <time>2025-09-13T09:47:35Z</time>
      </trkpt>
      <trkpt lat="47.61991" lon="6.87187">
        <ele>366.1</ele>
        <time>2025-09-13T09:47:36Z</time>
      </trkpt>
      <trkpt lat="47.61994" lon="6.87196">
        <ele>366.2</ele>
        <time>2025-09-13T09:47:37Z</time>
      </trkpt>
      <trkpt lat="47.61996" lon="6.87205">
        <ele>366.4</ele>
        <time>2025-09-13T09:47:38Z</time>
      </trkpt>
      <trkpt lat="47.61997" lon="6.87213">
        <ele>366.5</ele>
        <time>2025-09-13T09:47:39Z</time>
      </trkpt>
      <trkpt lat="47.61999" lon="6.87222">
        <ele>366.6</ele>
        <time>2025-09-13T09:47:40Z</time>
      </trkpt>
      <trkpt lat="47.62" lon="6.87231">
        <ele>366.7</ele>
        <time>2025-09-13T09:47:41Z</time>
      </trkpt>
      <trkpt lat="47.62001" lon="6.87241">
        <ele>366.8</ele>
        <time>2025-09-13T09:47:42Z</time>
      </trkpt>
      <trkpt lat="47.62002" lon="6.87251">
        <ele>366.8</ele>
        <time>2025-09-13T09:47:43Z</time>
      </trkpt>
      <trkpt lat="47.62002" lon="6.87262">
        <ele>367</ele>
        <time>2025-09-13T09:47:44Z</time>
      </trkpt>
      <trkpt lat="47.62003" lon="6.87272">
        <ele>367</ele>
        <time>2025-09-13T09:47:45Z</time>
      </trkpt>
      <trkpt lat="47.62003" lon="6.87281">
        <ele>367.1</ele>
        <time>2025-09-13T09:47:46Z</time>
      </trkpt>
      <trkpt lat="47.62004" lon="6.87291">
        <ele>367.2</ele>
        <time>2025-09-13T09:47:47Z</time>
      </trkpt>
      <trkpt lat="47.62005" lon="6.873">
        <ele>367.3</ele>
        <time>2025-09-13T09:47:48Z</time>
      </trkpt>
      <trkpt lat="47.62005" lon="6.87311">
        <ele>367.3</ele>
        <time>2025-09-13T09:47:49Z</time>
      </trkpt>
      <trkpt lat="47.62006" lon="6.87321">
        <ele>367.3</ele>
        <time>2025-09-13T09:47:50Z</time>
      </trkpt>
      <trkpt lat="47.62005" lon="6.8733">
        <ele>367.3</ele>
        <time>2025-09-13T09:47:51Z</time>
      </trkpt>
      <trkpt lat="47.62005" lon="6.87339">
        <ele>367.2</ele>
        <time>2025-09-13T09:47:52Z</time>
      </trkpt>
      <trkpt lat="47.62006" lon="6.8735">
        <ele>367.2</ele>
        <time>2025-09-13T09:47:53Z</time>
      </trkpt>
      <trkpt lat="47.62006" lon="6.87368">
        <ele>367.2</ele>
        <time>2025-09-13T09:47:54Z</time>
      </trkpt>
      <trkpt lat="47.62008" lon="6.87379">
        <ele>367.2</ele>
        <time>2025-09-13T09:47:55Z</time>
      </trkpt>
      <trkpt lat="47.62008" lon="6.87391">
        <ele>367.3</ele>
        <time>2025-09-13T09:47:56Z</time>
      </trkpt>
      <trkpt lat="47.62008" lon="6.874">
        <ele>367.3</ele>
        <time>2025-09-13T09:47:57Z</time>
      </trkpt>
      <trkpt lat="47.62008" lon="6.8741">
        <ele>367.4</ele>
        <time>2025-09-13T09:47:58Z</time>
      </trkpt>
      <trkpt lat="47.62008" lon="6.87421">
        <ele>367.4</ele>
        <time>2025-09-13T09:47:59Z</time>
      </trkpt>
      <trkpt lat="47.62008" lon="6.8743">
        <ele>367.5</ele>
        <time>2025-09-13T09:48:00Z</time>
      </trkpt>
      <trkpt lat="47.62009" lon="6.87442">
        <ele>367.7</ele>
        <time>2025-09-13T09:48:01Z</time>
      </trkpt>
      <trkpt lat="47.62009" lon="6.87454">
        <ele>367.8</ele>
        <time>2025-09-13T09:48:02Z</time>
      </trkpt>
      <trkpt lat="47.62009" lon="6.87463">
        <ele>368</ele>
        <time>2025-09-13T09:48:03Z</time>
      </trkpt>
      <trkpt lat="47.62009" lon="6.87472">
        <ele>368.2</ele>
        <time>2025-09-13T09:48:04Z</time>
      </trkpt>
      <trkpt lat="47.6201" lon="6.87481">
        <ele>368.4</ele>
        <time>2025-09-13T09:48:05Z</time>
      </trkpt>
      <trkpt lat="47.62011" lon="6.87492">
        <ele>368.7</ele>
        <time>2025-09-13T09:48:06Z</time>
      </trkpt>
      <trkpt lat="47.62011" lon="6.87502">
        <ele>368.9</ele>
        <time>2025-09-13T09:48:07Z</time>
      </trkpt>
      <trkpt lat="47.6201" lon="6.8751">
        <ele>369.1</ele>
        <time>2025-09-13T09:48:08Z</time>
      </trkpt>
      <trkpt lat="47.62011" lon="6.8752">
        <ele>369.4</ele>
        <time>2025-09-13T09:48:09Z</time>
      </trkpt>
      <trkpt lat="47.62011" lon="6.87529">
        <ele>369.6</ele>
        <time>2025-09-13T09:48:10Z</time>
      </trkpt>
      <trkpt lat="47.62011" lon="6.87537">
        <ele>369.9</ele>
        <time>2025-09-13T09:48:11Z</time>
      </trkpt>
      <trkpt lat="47.62012" lon="6.87546">
        <ele>370.1</ele>
        <time>2025-09-13T09:48:12Z</time>
      </trkpt>
      <trkpt lat="47.62011" lon="6.87554">
        <ele>370.3</ele>
        <time>2025-09-13T09:48:13Z</time>
      </trkpt>
      <trkpt lat="47.62011" lon="6.87562">
        <ele>370.5</ele>
        <time>2025-09-13T09:48:14Z</time>
      </trkpt>
      <trkpt lat="47.62011" lon="6.87571">
        <ele>370.7</ele>
        <time>2025-09-13T09:48:15Z</time>
      </trkpt>
      <trkpt lat="47.62012" lon="6.87579">
        <ele>370.9</ele>
        <time>2025-09-13T09:48:16Z</time>
      </trkpt>
      <trkpt lat="47.62012" lon="6.87588">
        <ele>371.1</ele>
        <time>2025-09-13T09:48:17Z</time>
      </trkpt>
      <trkpt lat="47.62012" lon="6.87596">
        <ele>371.3</ele>
        <time>2025-09-13T09:48:18Z</time>
      </trkpt>
      <trkpt lat="47.62011" lon="6.87604">
        <ele>371.4</ele>
        <time>2025-09-13T09:48:19Z</time>
      </trkpt>
      <trkpt lat="47.62011" lon="6.87614">
        <ele>371.6</ele>
        <time>2025-09-13T09:48:20Z</time>
      </trkpt>
      <trkpt lat="47.62011" lon="6.87622">
        <ele>371.8</ele>
        <time>2025-09-13T09:48:21Z</time>
      </trkpt>
      <trkpt lat="47.62011" lon="6.8763">
        <ele>371.9</ele>
        <time>2025-09-13T09:48:22Z</time>
      </trkpt>
      <trkpt lat="47.62011" lon="6.87639">
        <ele>372</ele>
        <time>2025-09-13T09:48:23Z</time>
      </trkpt>
      <trkpt lat="47.62011" lon="6.87647">
        <ele>372.2</ele>
        <time>2025-09-13T09:48:24Z</time>
      </trkpt>
      <trkpt lat="47.62012" lon="6.87655">
        <ele>372.3</ele>
        <time>2025-09-13T09:48:25Z</time>
      </trkpt>
      <trkpt lat="47.62012" lon="6.87663">
        <ele>372.4</ele>
        <time>2025-09-13T09:48:26Z</time>
      </trkpt>
      <trkpt lat="47.62012" lon="6.87672">
        <ele>372.5</ele>
        <time>2025-09-13T09:48:27Z</time>
      </trkpt>
      <trkpt lat="47.62012" lon="6.87681">
        <ele>372.7</ele>
        <time>2025-09-13T09:48:28Z</time>
      </trkpt>
      <trkpt lat="47.62012" lon="6.8769">
        <ele>372.8</ele>
        <time>2025-09-13T09:48:29Z</time>
      </trkpt>
      <trkpt lat="47.62013" lon="6.87699">
        <ele>372.9</ele>
        <time>2025-09-13T09:48:30Z</time>
      </trkpt>
      <trkpt lat="47.62013" lon="6.87708">
        <ele>373</ele>
        <time>2025-09-13T09:48:31Z</time>
      </trkpt>
      <trkpt lat="47.62013" lon="6.87717">
        <ele>373.1</ele>
        <time>2025-09-13T09:48:32Z</time>
      </trkpt>
      <trkpt lat="47.62013" lon="6.87725">
        <ele>373.2</ele>
        <time>2025-09-13T09:48:33Z</time>
      </trkpt>
      <trkpt lat="47.62013" lon="6.87735">
        <ele>373.3</ele>
        <time>2025-09-13T09:48:34Z</time>
      </trkpt>
      <trkpt lat="47.62013" lon="6.87745">
        <ele>373.3</ele>
        <time>2025-09-13T09:48:35Z</time>
      </trkpt>
      <trkpt lat="47.62013" lon="6.87755">
        <ele>373.4</ele>
        <time>2025-09-13T09:48:36Z</time>
      </trkpt>
      <trkpt lat="47.62013" lon="6.87764">
        <ele>373.5</ele>
        <time>2025-09-13T09:48:37Z</time>
      </trkpt>
      <trkpt lat="47.62013" lon="6.87772">
        <ele>373.5</ele>
        <time>2025-09-13T09:48:38Z</time>
      </trkpt>
      <trkpt lat="47.62013" lon="6.87781">
        <ele>373.6</ele>
        <time>2025-09-13T09:48:39Z</time>
      </trkpt>
      <trkpt lat="47.62013" lon="6.8779">
        <ele>373.6</ele>
        <time>2025-09-13T09:48:40Z</time>
      </trkpt>
      <trkpt lat="47.62013" lon="6.878">
        <ele>373.7</ele>
        <time>2025-09-13T09:48:41Z</time>
      </trkpt>
      <trkpt lat="47.62012" lon="6.87809">
        <ele>373.8</ele>
        <time>2025-09-13T09:48:42Z</time>
      </trkpt>
      <trkpt lat="47.62012" lon="6.87819">
        <ele>373.8</ele>
        <time>2025-09-13T09:48:43Z</time>
      </trkpt>
      <trkpt lat="47.62011" lon="6.87829">
        <ele>373.9</ele>
        <time>2025-09-13T09:48:44Z</time>
      </trkpt>
      <trkpt lat="47.62011" lon="6.87838">
        <ele>374</ele>
        <time>2025-09-13T09:48:45Z</time>
      </trkpt>
      <trkpt lat="47.62011" lon="6.87846">
        <ele>374.1</ele>
        <time>2025-09-13T09:48:46Z</time>
      </trkpt>
      <trkpt lat="47.6201" lon="6.87856">
        <ele>374.3</ele>
        <time>2025-09-13T09:48:47Z</time>
      </trkpt>
      <trkpt lat="47.6201" lon="6.87866">
        <ele>374.5</ele>
        <time>2025-09-13T09:48:48Z</time>
      </trkpt>
      <trkpt lat="47.62009" lon="6.87876">
        <ele>374.7</ele>
        <time>2025-09-13T09:48:49Z</time>
      </trkpt>
      <trkpt lat="47.62009" lon="6.87885">
        <ele>374.9</ele>
        <time>2025-09-13T09:48:50Z</time>
      </trkpt>
      <trkpt lat="47.62009" lon="6.87894">
        <ele>375.1</ele>
        <time>2025-09-13T09:48:51Z</time>
      </trkpt>
      <trkpt lat="47.62008" lon="6.87903">
        <ele>375.4</ele>
        <time>2025-09-13T09:48:52Z</time>
      </trkpt>
      <trkpt lat="47.62009" lon="6.8791">
        <ele>375.6</ele>
        <time>2025-09-13T09:48:53Z</time>
      </trkpt>
      <trkpt lat="47.62009" lon="6.8792">
        <ele>375.9</ele>
        <time>2025-09-13T09:48:54Z</time>
      </trkpt>
      <trkpt lat="47.62009" lon="6.87927">
        <ele>376.1</ele>
        <time>2025-09-13T09:48:55Z</time>
      </trkpt>
      <trkpt lat="47.62009" lon="6.87936">
        <ele>376.4</ele>
        <time>2025-09-13T09:48:56Z</time>
      </trkpt>
      <trkpt lat="47.62009" lon="6.87944">
        <ele>376.7</ele>
        <time>2025-09-13T09:48:57Z</time>
      </trkpt>
      <trkpt lat="47.62009" lon="6.87954">
        <ele>376.9</ele>
        <time>2025-09-13T09:48:58Z</time>
      </trkpt>
      <trkpt lat="47.62009" lon="6.87961">
        <ele>377.2</ele>
        <time>2025-09-13T09:48:59Z</time>
      </trkpt>
      <trkpt lat="47.6201" lon="6.8797">
        <ele>377.4</ele>
        <time>2025-09-13T09:49:00Z</time>
      </trkpt>
      <trkpt lat="47.6201" lon="6.87977">
        <ele>377.6</ele>
        <time>2025-09-13T09:49:01Z</time>
      </trkpt>
      <trkpt lat="47.6201" lon="6.87986">
        <ele>377.9</ele>
        <time>2025-09-13T09:49:02Z</time>
      </trkpt>
      <trkpt lat="47.6201" lon="6.87994">
        <ele>378.1</ele>
        <time>2025-09-13T09:49:03Z</time>
      </trkpt>
      <trkpt lat="47.6201" lon="6.88003">
        <ele>378.4</ele>
        <time>2025-09-13T09:49:04Z</time>
      </trkpt>
      <trkpt lat="47.6201" lon="6.8801">
        <ele>378.6</ele>
        <time>2025-09-13T09:49:05Z</time>
      </trkpt>
      <trkpt lat="47.62011" lon="6.8802">
        <ele>379</ele>
        <time>2025-09-13T09:49:06Z</time>
      </trkpt>
      <trkpt lat="47.62011" lon="6.88028">
        <ele>379.2</ele>
        <time>2025-09-13T09:49:07Z</time>
      </trkpt>
      <trkpt lat="47.62011" lon="6.88035">
        <ele>379.5</ele>
        <time>2025-09-13T09:49:08Z</time>
      </trkpt>
      <trkpt lat="47.62012" lon="6.88043">
        <ele>379.7</ele>
        <time>2025-09-13T09:49:09Z</time>
      </trkpt>
      <trkpt lat="47.62012" lon="6.88052">
        <ele>380.1</ele>
        <time>2025-09-13T09:49:10Z</time>
      </trkpt>
      <trkpt lat="47.62012" lon="6.8806">
        <ele>380.3</ele>
        <time>2025-09-13T09:49:11Z</time>
      </trkpt>
      <trkpt lat="47.62013" lon="6.88069">
        <ele>380.6</ele>
        <time>2025-09-13T09:49:12Z</time>
      </trkpt>
      <trkpt lat="47.62013" lon="6.88077">
        <ele>380.9</ele>
        <time>2025-09-13T09:49:13Z</time>
      </trkpt>
      <trkpt lat="47.62013" lon="6.88085">
        <ele>381.1</ele>
        <time>2025-09-13T09:49:14Z</time>
      </trkpt>
      <trkpt lat="47.62013" lon="6.88093">
        <ele>381.4</ele>
        <time>2025-09-13T09:49:15Z</time>
      </trkpt>
      <trkpt lat="47.62013" lon="6.88101">
        <ele>381.6</ele>
        <time>2025-09-13T09:49:16Z</time>
      </trkpt>
      <trkpt lat="47.62013" lon="6.88108">
        <ele>381.9</ele>
        <time>2025-09-13T09:49:17Z</time>
      </trkpt>
      <trkpt lat="47.62013" lon="6.88117">
        <ele>382.1</ele>
        <time>2025-09-13T09:49:18Z</time>
      </trkpt>
      <trkpt lat="47.62014" lon="6.88126">
        <ele>382.4</ele>
        <time>2025-09-13T09:49:19Z</time>
      </trkpt>
      <trkpt lat="47.62014" lon="6.88135">
        <ele>382.6</ele>
        <time>2025-09-13T09:49:20Z</time>
      </trkpt>
      <trkpt lat="47.62015" lon="6.88143">
        <ele>382.9</ele>
        <time>2025-09-13T09:49:21Z</time>
      </trkpt>
      <trkpt lat="47.62015" lon="6.88153">
        <ele>383.1</ele>
        <time>2025-09-13T09:49:22Z</time>
      </trkpt>
      <trkpt lat="47.62015" lon="6.88161">
        <ele>383.3</ele>
        <time>2025-09-13T09:49:23Z</time>
      </trkpt>
      <trkpt lat="47.62015" lon="6.8817">
        <ele>383.5</ele>
        <time>2025-09-13T09:49:24Z</time>
      </trkpt>
      <trkpt lat="47.62015" lon="6.88179">
        <ele>383.6</ele>
        <time>2025-09-13T09:49:25Z</time>
      </trkpt>
      <trkpt lat="47.62016" lon="6.88188">
        <ele>383.7</ele>
        <time>2025-09-13T09:49:26Z</time>
      </trkpt>
      <trkpt lat="47.62016" lon="6.88197">
        <ele>383.7</ele>
        <time>2025-09-13T09:49:27Z</time>
      </trkpt>
      <trkpt lat="47.62016" lon="6.88207">
        <ele>383.5</ele>
        <time>2025-09-13T09:49:28Z</time>
      </trkpt>
      <trkpt lat="47.62017" lon="6.88216">
        <ele>383.4</ele>
        <time>2025-09-13T09:49:29Z</time>
      </trkpt>
      <trkpt lat="47.62017" lon="6.88226">
        <ele>383.1</ele>
        <time>2025-09-13T09:49:30Z</time>
      </trkpt>
      <trkpt lat="47.62018" lon="6.88237">
        <ele>382.8</ele>
        <time>2025-09-13T09:49:31Z</time>
      </trkpt>
      <trkpt lat="47.62018" lon="6.88249">
        <ele>382.4</ele>
        <time>2025-09-13T09:49:32Z</time>
      </trkpt>
      <trkpt lat="47.62019" lon="6.8826">
        <ele>382</ele>
        <time>2025-09-13T09:49:33Z</time>
      </trkpt>
      <trkpt lat="47.62019" lon="6.88271">
        <ele>381.6</ele>
        <time>2025-09-13T09:49:34Z</time>
      </trkpt>
      <trkpt lat="47.6202" lon="6.88285">
        <ele>381</ele>
        <time>2025-09-13T09:49:35Z</time>
      </trkpt>
      <trkpt lat="47.6202" lon="6.88299">
        <ele>380.4</ele>
        <time>2025-09-13T09:49:36Z</time>
      </trkpt>
      <trkpt lat="47.62021" lon="6.88314">
        <ele>379.7</ele>
        <time>2025-09-13T09:49:37Z</time>
      </trkpt>
      <trkpt lat="47.62021" lon="6.88328">
        <ele>379.1</ele>
        <time>2025-09-13T09:49:38Z</time>
      </trkpt>
      <trkpt lat="47.62021" lon="6.88341">
        <ele>378.5</ele>
        <time>2025-09-13T09:49:39Z</time>
      </trkpt>
      <trkpt lat="47.62021" lon="6.88358">
        <ele>377.7</ele>
        <time>2025-09-13T09:49:40Z</time>
      </trkpt>
      <trkpt lat="47.62021" lon="6.88374">
        <ele>376.9</ele>
        <time>2025-09-13T09:49:41Z</time>
      </trkpt>
      <trkpt lat="47.62022" lon="6.8839">
        <ele>376.1</ele>
        <time>2025-09-13T09:49:42Z</time>
      </trkpt>
      <trkpt lat="47.62023" lon="6.88406">
        <ele>375.5</ele>
        <time>2025-09-13T09:49:43Z</time>
      </trkpt>
      <trkpt lat="47.62024" lon="6.88423">
        <ele>374.9</ele>
        <time>2025-09-13T09:49:44Z</time>
      </trkpt>
      <trkpt lat="47.62026" lon="6.88439">
        <ele>374.3</ele>
        <time>2025-09-13T09:49:45Z</time>
      </trkpt>
      <trkpt lat="47.6203" lon="6.88456">
        <ele>373.5</ele>
        <time>2025-09-13T09:49:46Z</time>
      </trkpt>
      <trkpt lat="47.62032" lon="6.88473">
        <ele>372.7</ele>
        <time>2025-09-13T09:49:47Z</time>
      </trkpt>
      <trkpt lat="47.62036" lon="6.8849">
        <ele>371.8</ele>
        <time>2025-09-13T09:49:48Z</time>
      </trkpt>
      <trkpt lat="47.62038" lon="6.88506">
        <ele>370.9</ele>
        <time>2025-09-13T09:49:49Z</time>
      </trkpt>
      <trkpt lat="47.6204" lon="6.88523">
        <ele>370.1</ele>
        <time>2025-09-13T09:49:50Z</time>
      </trkpt>
      <trkpt lat="47.62043" lon="6.8854">
        <ele>369.4</ele>
        <time>2025-09-13T09:49:51Z</time>
      </trkpt>
      <trkpt lat="47.62044" lon="6.88559">
        <ele>369</ele>
        <time>2025-09-13T09:49:52Z</time>
      </trkpt>
      <trkpt lat="47.62045" lon="6.88577">
        <ele>368.8</ele>
        <time>2025-09-13T09:49:53Z</time>
      </trkpt>
      <trkpt lat="47.62046" lon="6.88593">
        <ele>368.7</ele>
        <time>2025-09-13T09:49:54Z</time>
      </trkpt>
      <trkpt lat="47.62045" lon="6.88613">
        <ele>368.8</ele>
        <time>2025-09-13T09:49:55Z</time>
      </trkpt>
      <trkpt lat="47.62045" lon="6.88629">
        <ele>369</ele>
        <time>2025-09-13T09:49:56Z</time>
      </trkpt>
      <trkpt lat="47.62045" lon="6.88645">
        <ele>369.3</ele>
        <time>2025-09-13T09:49:57Z</time>
      </trkpt>
      <trkpt lat="47.62046" lon="6.88661">
        <ele>369.6</ele>
        <time>2025-09-13T09:49:58Z</time>
      </trkpt>
      <trkpt lat="47.62046" lon="6.88675">
        <ele>370</ele>
        <time>2025-09-13T09:49:59Z</time>
      </trkpt>
      <trkpt lat="47.62046" lon="6.8869">
        <ele>370.4</ele>
        <time>2025-09-13T09:50:00Z</time>
      </trkpt>
      <trkpt lat="47.62047" lon="6.88704">
        <ele>370.7</ele>
        <time>2025-09-13T09:50:01Z</time>
      </trkpt>
      <trkpt lat="47.62047" lon="6.88718">
        <ele>371.1</ele>
        <time>2025-09-13T09:50:02Z</time>
      </trkpt>
      <trkpt lat="47.62048" lon="6.88732">
        <ele>371.5</ele>
        <time>2025-09-13T09:50:03Z</time>
      </trkpt>
      <trkpt lat="47.62048" lon="6.88748">
        <ele>371.8</ele>
        <time>2025-09-13T09:50:04Z</time>
      </trkpt>
      <trkpt lat="47.62049" lon="6.88762">
        <ele>372.2</ele>
        <time>2025-09-13T09:50:05Z</time>
      </trkpt>
      <trkpt lat="47.62047" lon="6.88776">
        <ele>372.4</ele>
        <time>2025-09-13T09:50:06Z</time>
      </trkpt>
      <trkpt lat="47.62048" lon="6.88789">
        <ele>372.4</ele>
        <time>2025-09-13T09:50:07Z</time>
      </trkpt>
      <trkpt lat="47.62048" lon="6.88802">
        <ele>372.4</ele>
        <time>2025-09-13T09:50:08Z</time>
      </trkpt>
      <trkpt lat="47.62048" lon="6.88817">
        <ele>372.3</ele>
        <time>2025-09-13T09:50:09Z</time>
      </trkpt>
      <trkpt lat="47.62049" lon="6.8883">
        <ele>372.3</ele>
        <time>2025-09-13T09:50:10Z</time>
      </trkpt>
      <trkpt lat="47.6205" lon="6.88844">
        <ele>372.2</ele>
        <time>2025-09-13T09:50:11Z</time>
      </trkpt>
      <trkpt lat="47.62051" lon="6.88858">
        <ele>372.1</ele>
        <time>2025-09-13T09:50:12Z</time>
      </trkpt>
      <trkpt lat="47.62052" lon="6.88872">
        <ele>372.1</ele>
        <time>2025-09-13T09:50:13Z</time>
      </trkpt>
      <trkpt lat="47.62053" lon="6.88887">
        <ele>372</ele>
        <time>2025-09-13T09:50:14Z</time>
      </trkpt>
      <trkpt lat="47.62053" lon="6.88901">
        <ele>371.9</ele>
        <time>2025-09-13T09:50:15Z</time>
      </trkpt>
      <trkpt lat="47.62054" lon="6.88915">
        <ele>371.8</ele>
        <time>2025-09-13T09:50:16Z</time>
      </trkpt>
      <trkpt lat="47.62054" lon="6.88929">
        <ele>371.7</ele>
        <time>2025-09-13T09:50:17Z</time>
      </trkpt>
      <trkpt lat="47.62054" lon="6.88943">
        <ele>371.5</ele>
        <time>2025-09-13T09:50:18Z</time>
      </trkpt>
      <trkpt lat="47.62054" lon="6.88956">
        <ele>371.4</ele>
        <time>2025-09-13T09:50:19Z</time>
      </trkpt>
      <trkpt lat="47.62054" lon="6.88971">
        <ele>371.2</ele>
        <time>2025-09-13T09:50:20Z</time>
      </trkpt>
      <trkpt lat="47.62055" lon="6.88985">
        <ele>370.9</ele>
        <time>2025-09-13T09:50:21Z</time>
      </trkpt>
      <trkpt lat="47.62056" lon="6.88999">
        <ele>370.7</ele>
        <time>2025-09-13T09:50:22Z</time>
      </trkpt>
      <trkpt lat="47.62056" lon="6.89015">
        <ele>370.5</ele>
        <time>2025-09-13T09:50:23Z</time>
      </trkpt>
      <trkpt lat="47.62056" lon="6.89029">
        <ele>370.3</ele>
        <time>2025-09-13T09:50:24Z</time>
      </trkpt>
      <trkpt lat="47.62056" lon="6.89044">
        <ele>370</ele>
        <time>2025-09-13T09:50:25Z</time>
      </trkpt>
      <trkpt lat="47.62056" lon="6.89059">
        <ele>369.8</ele>
        <time>2025-09-13T09:50:26Z</time>
      </trkpt>
      <trkpt lat="47.62057" lon="6.89073">
        <ele>369.5</ele>
        <time>2025-09-13T09:50:27Z</time>
      </trkpt>
      <trkpt lat="47.62057" lon="6.89088">
        <ele>369.2</ele>
        <time>2025-09-13T09:50:28Z</time>
      </trkpt>
      <trkpt lat="47.62058" lon="6.89104">
        <ele>368.9</ele>
        <time>2025-09-13T09:50:29Z</time>
      </trkpt>
      <trkpt lat="47.62059" lon="6.89118">
        <ele>368.6</ele>
        <time>2025-09-13T09:50:30Z</time>
      </trkpt>
      <trkpt lat="47.6206" lon="6.89134">
        <ele>368.3</ele>
        <time>2025-09-13T09:50:31Z</time>
      </trkpt>
      <trkpt lat="47.6206" lon="6.8915">
        <ele>368</ele>
        <time>2025-09-13T09:50:32Z</time>
      </trkpt>
      <trkpt lat="47.62061" lon="6.89165">
        <ele>367.7</ele>
        <time>2025-09-13T09:50:33Z</time>
      </trkpt>
      <trkpt lat="47.62062" lon="6.89182">
        <ele>367.3</ele>
        <time>2025-09-13T09:50:34Z</time>
      </trkpt>
      <trkpt lat="47.62062" lon="6.89196">
        <ele>366.9</ele>
        <time>2025-09-13T09:50:35Z</time>
      </trkpt>
      <trkpt lat="47.62063" lon="6.89214">
        <ele>366.4</ele>
        <time>2025-09-13T09:50:36Z</time>
      </trkpt>
      <trkpt lat="47.62063" lon="6.89229">
        <ele>366</ele>
        <time>2025-09-13T09:50:37Z</time>
      </trkpt>
      <trkpt lat="47.62063" lon="6.89244">
        <ele>365.5</ele>
        <time>2025-09-13T09:50:38Z</time>
      </trkpt>
      <trkpt lat="47.62064" lon="6.8926">
        <ele>365.1</ele>
        <time>2025-09-13T09:50:39Z</time>
      </trkpt>
      <trkpt lat="47.62064" lon="6.89276">
        <ele>364.7</ele>
        <time>2025-09-13T09:50:40Z</time>
      </trkpt>
      <trkpt lat="47.62064" lon="6.89295">
        <ele>364.3</ele>
        <time>2025-09-13T09:50:41Z</time>
      </trkpt>
      <trkpt lat="47.62063" lon="6.89312">
        <ele>364</ele>
        <time>2025-09-13T09:50:42Z</time>
      </trkpt>
      <trkpt lat="47.62059" lon="6.89327">
        <ele>363.8</ele>
        <time>2025-09-13T09:50:43Z</time>
      </trkpt>
      <trkpt lat="47.62054" lon="6.89342">
        <ele>363.6</ele>
        <time>2025-09-13T09:50:44Z</time>
      </trkpt>
      <trkpt lat="47.62047" lon="6.89356">
        <ele>363.6</ele>
        <time>2025-09-13T09:50:45Z</time>
      </trkpt>
      <trkpt lat="47.62041" lon="6.8937">
        <ele>363.5</ele>
        <time>2025-09-13T09:50:46Z</time>
      </trkpt>
      <trkpt lat="47.62034" lon="6.89384">
        <ele>363.6</ele>
        <time>2025-09-13T09:50:47Z</time>
      </trkpt>
      <trkpt lat="47.6203" lon="6.89397">
        <ele>363.7</ele>
        <time>2025-09-13T09:50:48Z</time>
      </trkpt>
      <trkpt lat="47.62027" lon="6.89413">
        <ele>363.9</ele>
        <time>2025-09-13T09:50:49Z</time>
      </trkpt>
      <trkpt lat="47.62027" lon="6.89429">
        <ele>364.1</ele>
        <time>2025-09-13T09:50:50Z</time>
      </trkpt>
      <trkpt lat="47.62028" lon="6.89445">
        <ele>364.2</ele>
        <time>2025-09-13T09:50:51Z</time>
      </trkpt>
      <trkpt lat="47.6203" lon="6.89459">
        <ele>364.3</ele>
        <time>2025-09-13T09:50:52Z</time>
      </trkpt>
      <trkpt lat="47.62031" lon="6.89474">
        <ele>364.5</ele>
        <time>2025-09-13T09:50:53Z</time>
      </trkpt>
      <trkpt lat="47.62033" lon="6.89487">
        <ele>364.7</ele>
        <time>2025-09-13T09:50:54Z</time>
      </trkpt>
      <trkpt lat="47.62034" lon="6.89502">
        <ele>364.9</ele>
        <time>2025-09-13T09:50:55Z</time>
      </trkpt>
      <trkpt lat="47.62033" lon="6.89516">
        <ele>365.1</ele>
        <time>2025-09-13T09:50:56Z</time>
      </trkpt>
      <trkpt lat="47.62029" lon="6.89528">
        <ele>365.2</ele>
        <time>2025-09-13T09:50:57Z</time>
      </trkpt>
      <trkpt lat="47.62023" lon="6.89539">
        <ele>365.4</ele>
        <time>2025-09-13T09:50:58Z</time>
      </trkpt>
      <trkpt lat="47.62017" lon="6.89548">
        <ele>365.6</ele>
        <time>2025-09-13T09:50:59Z</time>
      </trkpt>
      <trkpt lat="47.62009" lon="6.89555">
        <ele>365.8</ele>
        <time>2025-09-13T09:51:00Z</time>
      </trkpt>
      <trkpt lat="47.62002" lon="6.89564">
        <ele>366</ele>
        <time>2025-09-13T09:51:01Z</time>
      </trkpt>
      <trkpt lat="47.61996" lon="6.89572">
        <ele>366.3</ele>
        <time>2025-09-13T09:51:02Z</time>
      </trkpt>
      <trkpt lat="47.61989" lon="6.89578">
        <ele>366.5</ele>
        <time>2025-09-13T09:51:03Z</time>
      </trkpt>
      <trkpt lat="47.61983" lon="6.89586">
        <ele>366.8</ele>
        <time>2025-09-13T09:51:04Z</time>
      </trkpt>
      <trkpt lat="47.61976" lon="6.89594">
        <ele>367.1</ele>
        <time>2025-09-13T09:51:05Z</time>
      </trkpt>
      <trkpt lat="47.6197" lon="6.89602">
        <ele>367.4</ele>
        <time>2025-09-13T09:51:06Z</time>
      </trkpt>
      <trkpt lat="47.61964" lon="6.89607">
        <ele>367.6</ele>
        <time>2025-09-13T09:51:07Z</time>
      </trkpt>
      <trkpt lat="47.61958" lon="6.89614">
        <ele>367.8</ele>
        <time>2025-09-13T09:51:08Z</time>
      </trkpt>
      <trkpt lat="47.61951" lon="6.89619">
        <ele>367.9</ele>
        <time>2025-09-13T09:51:09Z</time>
      </trkpt>
      <trkpt lat="47.61944" lon="6.89623">
        <ele>368</ele>
        <time>2025-09-13T09:51:10Z</time>
      </trkpt>
      <trkpt lat="47.61935" lon="6.89625">
        <ele>367.9</ele>
        <time>2025-09-13T09:51:11Z</time>
      </trkpt>
      <trkpt lat="47.61927" lon="6.89628">
        <ele>367.7</ele>
        <time>2025-09-13T09:51:12Z</time>
      </trkpt>
      <trkpt lat="47.61919" lon="6.89631">
        <ele>367.4</ele>
        <time>2025-09-13T09:51:13Z</time>
      </trkpt>
      <trkpt lat="47.6191" lon="6.89633">
        <ele>367</ele>
        <time>2025-09-13T09:51:14Z</time>
      </trkpt>
      <trkpt lat="47.61902" lon="6.89638">
        <ele>366.6</ele>
        <time>2025-09-13T09:51:15Z</time>
      </trkpt>
      <trkpt lat="47.61894" lon="6.89641">
        <ele>366.3</ele>
        <time>2025-09-13T09:51:16Z</time>
      </trkpt>
      <trkpt lat="47.61886" lon="6.89645">
        <ele>366</ele>
        <time>2025-09-13T09:51:17Z</time>
      </trkpt>
      <trkpt lat="47.61876" lon="6.89648">
        <ele>365.8</ele>
        <time>2025-09-13T09:51:18Z</time>
      </trkpt>
      <trkpt lat="47.61868" lon="6.89653">
        <ele>365.6</ele>
        <time>2025-09-13T09:51:19Z</time>
      </trkpt>
      <trkpt lat="47.61859" lon="6.89657">
        <ele>365.5</ele>
        <time>2025-09-13T09:51:20Z</time>
      </trkpt>
      <trkpt lat="47.61851" lon="6.89662">
        <ele>365.5</ele>
        <time>2025-09-13T09:51:21Z</time>
      </trkpt>
      <trkpt lat="47.61843" lon="6.89668">
        <ele>365.7</ele>
        <time>2025-09-13T09:51:22Z</time>
      </trkpt>
      <trkpt lat="47.61835" lon="6.89676">
        <ele>365.9</ele>
        <time>2025-09-13T09:51:23Z</time>
      </trkpt>
      <trkpt lat="47.61829" lon="6.89685">
        <ele>366.1</ele>
        <time>2025-09-13T09:51:24Z</time>
      </trkpt>
      <trkpt lat="47.61825" lon="6.89695">
        <ele>366.3</ele>
        <time>2025-09-13T09:51:25Z</time>
      </trkpt>
      <trkpt lat="47.6182" lon="6.89706">
        <ele>366.7</ele>
        <time>2025-09-13T09:51:26Z</time>
      </trkpt>
      <trkpt lat="47.61816" lon="6.89716">
        <ele>367</ele>
        <time>2025-09-13T09:51:27Z</time>
      </trkpt>
      <trkpt lat="47.61812" lon="6.89727">
        <ele>367.5</ele>
        <time>2025-09-13T09:51:28Z</time>
      </trkpt>
      <trkpt lat="47.61809" lon="6.89737">
        <ele>367.9</ele>
        <time>2025-09-13T09:51:29Z</time>
      </trkpt>
      <trkpt lat="47.61805" lon="6.89747">
        <ele>368.3</ele>
        <time>2025-09-13T09:51:30Z</time>
      </trkpt>
      <trkpt lat="47.61802" lon="6.89757">
        <ele>368.8</ele>
        <time>2025-09-13T09:51:31Z</time>
      </trkpt>
      <trkpt lat="47.61799" lon="6.89765">
        <ele>369.2</ele>
        <time>2025-09-13T09:51:32Z</time>
      </trkpt>
      <trkpt lat="47.61795" lon="6.89774">
        <ele>369.6</ele>
        <time>2025-09-13T09:51:33Z</time>
      </trkpt>
      <trkpt lat="47.61792" lon="6.89782">
        <ele>370</ele>
        <time>2025-09-13T09:51:34Z</time>
      </trkpt>
      <trkpt lat="47.61788" lon="6.8979">
        <ele>370.4</ele>
        <time>2025-09-13T09:51:35Z</time>
      </trkpt>
      <trkpt lat="47.61784" lon="6.89796">
        <ele>370.8</ele>
        <time>2025-09-13T09:51:36Z</time>
      </trkpt>
      <trkpt lat="47.61781" lon="6.89803">
        <ele>371.2</ele>
        <time>2025-09-13T09:51:37Z</time>
      </trkpt>
      <trkpt lat="47.61776" lon="6.89808">
        <ele>371.5</ele>
        <time>2025-09-13T09:51:38Z</time>
      </trkpt>
      <trkpt lat="47.61772" lon="6.89813">
        <ele>371.9</ele>
        <time>2025-09-13T09:51:39Z</time>
      </trkpt>
      <trkpt lat="47.61768" lon="6.89819">
        <ele>372.2</ele>
        <time>2025-09-13T09:51:40Z</time>
      </trkpt>
      <trkpt lat="47.61764" lon="6.89824">
        <ele>372.6</ele>
        <time>2025-09-13T09:51:41Z</time>
      </trkpt>
      <trkpt lat="47.61758" lon="6.89827">
        <ele>372.9</ele>
        <time>2025-09-13T09:51:42Z</time>
      </trkpt>
      <trkpt lat="47.61754" lon="6.89829">
        <ele>373.2</ele>
        <time>2025-09-13T09:51:43Z</time>
      </trkpt>
      <trkpt lat="47.61748" lon="6.89832">
        <ele>373.6</ele>
        <time>2025-09-13T09:51:44Z</time>
      </trkpt>
      <trkpt lat="47.61744" lon="6.89835">
        <ele>373.9</ele>
        <time>2025-09-13T09:51:45Z</time>
      </trkpt>
      <trkpt lat="47.61739" lon="6.89838">
        <ele>374.2</ele>
        <time>2025-09-13T09:51:46Z</time>
      </trkpt>
      <trkpt lat="47.61734" lon="6.89841">
        <ele>374.5</ele>
        <time>2025-09-13T09:51:47Z</time>
      </trkpt>
      <trkpt lat="47.61729" lon="6.89843">
        <ele>374.8</ele>
        <time>2025-09-13T09:51:48Z</time>
      </trkpt>
      <trkpt lat="47.61724" lon="6.89845">
        <ele>375</ele>
        <time>2025-09-13T09:51:49Z</time>
      </trkpt>
      <trkpt lat="47.61717" lon="6.89846">
        <ele>375.4</ele>
        <time>2025-09-13T09:51:50Z</time>
      </trkpt>
      <trkpt lat="47.61712" lon="6.89849">
        <ele>375.7</ele>
        <time>2025-09-13T09:51:51Z</time>
      </trkpt>
      <trkpt lat="47.61707" lon="6.89852">
        <ele>376</ele>
        <time>2025-09-13T09:51:52Z</time>
      </trkpt>
      <trkpt lat="47.61703" lon="6.89854">
        <ele>376.2</ele>
        <time>2025-09-13T09:51:53Z</time>
      </trkpt>
      <trkpt lat="47.61698" lon="6.89858">
        <ele>376.5</ele>
        <time>2025-09-13T09:51:54Z</time>
      </trkpt>
      <trkpt lat="47.61693" lon="6.8986">
        <ele>376.8</ele>
        <time>2025-09-13T09:51:55Z</time>
      </trkpt>
      <trkpt lat="47.61687" lon="6.89863">
        <ele>377</ele>
        <time>2025-09-13T09:51:56Z</time>
      </trkpt>
      <trkpt lat="47.61682" lon="6.89866">
        <ele>377.2</ele>
        <time>2025-09-13T09:51:57Z</time>
      </trkpt>
      <trkpt lat="47.61676" lon="6.89868">
        <ele>377.5</ele>
        <time>2025-09-13T09:51:58Z</time>
      </trkpt>
      <trkpt lat="47.61672" lon="6.8987">
        <ele>377.6</ele>
        <time>2025-09-13T09:51:59Z</time>
      </trkpt>
      <trkpt lat="47.61667" lon="6.89873">
        <ele>377.8</ele>
        <time>2025-09-13T09:52:00Z</time>
      </trkpt>
      <trkpt lat="47.61661" lon="6.89876">
        <ele>377.9</ele>
        <time>2025-09-13T09:52:01Z</time>
      </trkpt>
      <trkpt lat="47.61656" lon="6.8988">
        <ele>378</ele>
        <time>2025-09-13T09:52:02Z</time>
      </trkpt>
      <trkpt lat="47.61651" lon="6.89883">
        <ele>378</ele>
        <time>2025-09-13T09:52:03Z</time>
      </trkpt>
      <trkpt lat="47.61645" lon="6.89886">
        <ele>378</ele>
        <time>2025-09-13T09:52:04Z</time>
      </trkpt>
      <trkpt lat="47.61639" lon="6.89889">
        <ele>378</ele>
        <time>2025-09-13T09:52:05Z</time>
      </trkpt>
      <trkpt lat="47.61633" lon="6.89892">
        <ele>378</ele>
        <time>2025-09-13T09:52:06Z</time>
      </trkpt>
      <trkpt lat="47.61628" lon="6.89895">
        <ele>378</ele>
        <time>2025-09-13T09:52:07Z</time>
      </trkpt>
      <trkpt lat="47.61622" lon="6.89899">
        <ele>377.9</ele>
        <time>2025-09-13T09:52:08Z</time>
      </trkpt>
      <trkpt lat="47.61616" lon="6.89904">
        <ele>377.9</ele>
        <time>2025-09-13T09:52:09Z</time>
      </trkpt>
      <trkpt lat="47.6161" lon="6.89908">
        <ele>377.8</ele>
        <time>2025-09-13T09:52:10Z</time>
      </trkpt>
      <trkpt lat="47.61605" lon="6.89914">
        <ele>377.6</ele>
        <time>2025-09-13T09:52:11Z</time>
      </trkpt>
      <trkpt lat="47.616" lon="6.8992">
        <ele>377.5</ele>
        <time>2025-09-13T09:52:12Z</time>
      </trkpt>
      <trkpt lat="47.61596" lon="6.89927">
        <ele>377.3</ele>
        <time>2025-09-13T09:52:13Z</time>
      </trkpt>
      <trkpt lat="47.61591" lon="6.89936">
        <ele>377.1</ele>
        <time>2025-09-13T09:52:14Z</time>
      </trkpt>
      <trkpt lat="47.61587" lon="6.89945">
        <ele>376.9</ele>
        <time>2025-09-13T09:52:15Z</time>
      </trkpt>
      <trkpt lat="47.61583" lon="6.89955">
        <ele>376.6</ele>
        <time>2025-09-13T09:52:16Z</time>
      </trkpt>
      <trkpt lat="47.6158" lon="6.89965">
        <ele>376.4</ele>
        <time>2025-09-13T09:52:17Z</time>
      </trkpt>
      <trkpt lat="47.61575" lon="6.89976">
        <ele>376.2</ele>
        <time>2025-09-13T09:52:18Z</time>
      </trkpt>
      <trkpt lat="47.61572" lon="6.89987">
        <ele>376</ele>
        <time>2025-09-13T09:52:19Z</time>
      </trkpt>
      <trkpt lat="47.61568" lon="6.89998">
        <ele>375.8</ele>
        <time>2025-09-13T09:52:20Z</time>
      </trkpt>
      <trkpt lat="47.61564" lon="6.9001">
        <ele>375.8</ele>
        <time>2025-09-13T09:52:21Z</time>
      </trkpt>
      <trkpt lat="47.61561" lon="6.90022">
        <ele>375.7</ele>
        <time>2025-09-13T09:52:22Z</time>
      </trkpt>
      <trkpt lat="47.61557" lon="6.90034">
        <ele>375.7</ele>
        <time>2025-09-13T09:52:23Z</time>
      </trkpt>
      <trkpt lat="47.61553" lon="6.90045">
        <ele>375.7</ele>
        <time>2025-09-13T09:52:24Z</time>
      </trkpt>
      <trkpt lat="47.6155" lon="6.90056">
        <ele>375.7</ele>
        <time>2025-09-13T09:52:25Z</time>
      </trkpt>
      <trkpt lat="47.61546" lon="6.90068">
        <ele>375.7</ele>
        <time>2025-09-13T09:52:26Z</time>
      </trkpt>
      <trkpt lat="47.61543" lon="6.90079">
        <ele>375.8</ele>
        <time>2025-09-13T09:52:27Z</time>
      </trkpt>
      <trkpt lat="47.61538" lon="6.90091">
        <ele>375.8</ele>
        <time>2025-09-13T09:52:28Z</time>
      </trkpt>
      <trkpt lat="47.61535" lon="6.90102">
        <ele>375.9</ele>
        <time>2025-09-13T09:52:29Z</time>
      </trkpt>
      <trkpt lat="47.61531" lon="6.90113">
        <ele>376</ele>
        <time>2025-09-13T09:52:30Z</time>
      </trkpt>
      <trkpt lat="47.61528" lon="6.90124">
        <ele>376.1</ele>
        <time>2025-09-13T09:52:31Z</time>
      </trkpt>
      <trkpt lat="47.61524" lon="6.90135">
        <ele>376.2</ele>
        <time>2025-09-13T09:52:32Z</time>
      </trkpt>
      <trkpt lat="47.6152" lon="6.90147">
        <ele>376.3</ele>
        <time>2025-09-13T09:52:33Z</time>
      </trkpt>
      <trkpt lat="47.61517" lon="6.90158">
        <ele>376.4</ele>
        <time>2025-09-13T09:52:34Z</time>
      </trkpt>
      <trkpt lat="47.61513" lon="6.90168">
        <ele>376.5</ele>
        <time>2025-09-13T09:52:35Z</time>
      </trkpt>
      <trkpt lat="47.61509" lon="6.9018">
        <ele>376.7</ele>
        <time>2025-09-13T09:52:36Z</time>
      </trkpt>
      <trkpt lat="47.61505" lon="6.9019">
        <ele>376.9</ele>
        <time>2025-09-13T09:52:37Z</time>
      </trkpt>
      <trkpt lat="47.61502" lon="6.902">
        <ele>377.1</ele>
        <time>2025-09-13T09:52:38Z</time>
      </trkpt>
      <trkpt lat="47.61498" lon="6.90211">
        <ele>377.4</ele>
        <time>2025-09-13T09:52:39Z</time>
      </trkpt>
      <trkpt lat="47.61495" lon="6.90221">
        <ele>377.6</ele>
        <time>2025-09-13T09:52:40Z</time>
      </trkpt>
      <trkpt lat="47.61491" lon="6.9023">
        <ele>377.7</ele>
        <time>2025-09-13T09:52:41Z</time>
      </trkpt>
      <trkpt lat="47.61488" lon="6.9024">
        <ele>377.9</ele>
        <time>2025-09-13T09:52:42Z</time>
      </trkpt>
      <trkpt lat="47.61484" lon="6.90249">
        <ele>378.1</ele>
        <time>2025-09-13T09:52:43Z</time>
      </trkpt>
      <trkpt lat="47.61482" lon="6.90259">
        <ele>378.2</ele>
        <time>2025-09-13T09:52:44Z</time>
      </trkpt>
      <trkpt lat="47.61479" lon="6.90268">
        <ele>378.2</ele>
        <time>2025-09-13T09:52:45Z</time>
      </trkpt>
      <trkpt lat="47.61476" lon="6.90277">
        <ele>378.3</ele>
        <time>2025-09-13T09:52:46Z</time>
      </trkpt>
      <trkpt lat="47.61473" lon="6.90287">
        <ele>378.2</ele>
        <time>2025-09-13T09:52:47Z</time>
      </trkpt>
      <trkpt lat="47.61469" lon="6.90296">
        <ele>378.1</ele>
        <time>2025-09-13T09:52:48Z</time>
      </trkpt>
      <trkpt lat="47.61466" lon="6.90305">
        <ele>377.9</ele>
        <time>2025-09-13T09:52:49Z</time>
      </trkpt>
      <trkpt lat="47.61461" lon="6.90314">
        <ele>377.7</ele>
        <time>2025-09-13T09:52:50Z</time>
      </trkpt>
      <trkpt lat="47.61457" lon="6.90324">
        <ele>377.4</ele>
        <time>2025-09-13T09:52:51Z</time>
      </trkpt>
      <trkpt lat="47.61452" lon="6.90334">
        <ele>377</ele>
        <time>2025-09-13T09:52:52Z</time>
      </trkpt>
      <trkpt lat="47.61448" lon="6.90344">
        <ele>376.6</ele>
        <time>2025-09-13T09:52:53Z</time>
      </trkpt>
      <trkpt lat="47.61443" lon="6.90356">
        <ele>376.2</ele>
        <time>2025-09-13T09:52:54Z</time>
      </trkpt>
      <trkpt lat="47.61439" lon="6.90367">
        <ele>375.7</ele>
        <time>2025-09-13T09:52:55Z</time>
      </trkpt>
      <trkpt lat="47.61434" lon="6.90379">
        <ele>375.3</ele>
        <time>2025-09-13T09:52:56Z</time>
      </trkpt>
      <trkpt lat="47.61429" lon="6.90391">
        <ele>374.8</ele>
        <time>2025-09-13T09:52:57Z</time>
      </trkpt>
      <trkpt lat="47.61423" lon="6.90403">
        <ele>374.3</ele>
        <time>2025-09-13T09:52:58Z</time>
      </trkpt>
      <trkpt lat="47.61418" lon="6.90415">
        <ele>373.9</ele>
        <time>2025-09-13T09:52:59Z</time>
      </trkpt>
      <trkpt lat="47.61412" lon="6.90427">
        <ele>373.5</ele>
        <time>2025-09-13T09:53:00Z</time>
      </trkpt>
      <trkpt lat="47.61406" lon="6.9044">
        <ele>373.2</ele>
        <time>2025-09-13T09:53:01Z</time>
      </trkpt>
      <trkpt lat="47.61403" lon="6.90453">
        <ele>373</ele>
        <time>2025-09-13T09:53:02Z</time>
      </trkpt>
      <trkpt lat="47.61397" lon="6.90464">
        <ele>372.7</ele>
        <time>2025-09-13T09:53:03Z</time>
      </trkpt>
      <trkpt lat="47.61391" lon="6.90477">
        <ele>372.4</ele>
        <time>2025-09-13T09:53:04Z</time>
      </trkpt>
      <trkpt lat="47.61386" lon="6.90489">
        <ele>372.2</ele>
        <time>2025-09-13T09:53:05Z</time>
      </trkpt>
      <trkpt lat="47.6138" lon="6.90502">
        <ele>372</ele>
        <time>2025-09-13T09:53:06Z</time>
      </trkpt>
      <trkpt lat="47.61374" lon="6.90513">
        <ele>371.8</ele>
        <time>2025-09-13T09:53:07Z</time>
      </trkpt>
      <trkpt lat="47.61369" lon="6.90526">
        <ele>371.6</ele>
        <time>2025-09-13T09:53:08Z</time>
      </trkpt>
      <trkpt lat="47.61364" lon="6.90538">
        <ele>371.5</ele>
        <time>2025-09-13T09:53:09Z</time>
      </trkpt>
      <trkpt lat="47.61359" lon="6.9055">
        <ele>371.4</ele>
        <time>2025-09-13T09:53:10Z</time>
      </trkpt>
      <trkpt lat="47.61353" lon="6.90561">
        <ele>371.3</ele>
        <time>2025-09-13T09:53:11Z</time>
      </trkpt>
      <trkpt lat="47.61348" lon="6.90571">
        <ele>371.2</ele>
        <time>2025-09-13T09:53:12Z</time>
      </trkpt>
      <trkpt lat="47.61342" lon="6.90581">
        <ele>371.1</ele>
        <time>2025-09-13T09:53:13Z</time>
      </trkpt>
      <trkpt lat="47.61336" lon="6.90591">
        <ele>371</ele>
        <time>2025-09-13T09:53:14Z</time>
      </trkpt>
      <trkpt lat="47.61329" lon="6.90597">
        <ele>371</ele>
        <time>2025-09-13T09:53:15Z</time>
      </trkpt>
      <trkpt lat="47.61324" lon="6.90602">
        <ele>370.9</ele>
        <time>2025-09-13T09:53:16Z</time>
      </trkpt>
      <trkpt lat="47.61318" lon="6.9061">
        <ele>370.9</ele>
        <time>2025-09-13T09:53:17Z</time>
      </trkpt>
      <trkpt lat="47.61311" lon="6.90618">
        <ele>370.8</ele>
        <time>2025-09-13T09:53:18Z</time>
      </trkpt>
      <trkpt lat="47.61305" lon="6.90627">
        <ele>370.8</ele>
        <time>2025-09-13T09:53:19Z</time>
      </trkpt>
      <trkpt lat="47.613" lon="6.90634">
        <ele>370.7</ele>
        <time>2025-09-13T09:53:20Z</time>
      </trkpt>
      <trkpt lat="47.61294" lon="6.90641">
        <ele>370.7</ele>
        <time>2025-09-13T09:53:21Z</time>
      </trkpt>
      <trkpt lat="47.61289" lon="6.90648">
        <ele>370.6</ele>
        <time>2025-09-13T09:53:22Z</time>
      </trkpt>
      <trkpt lat="47.61283" lon="6.90655">
        <ele>370.5</ele>
        <time>2025-09-13T09:53:23Z</time>
      </trkpt>
      <trkpt lat="47.61277" lon="6.90663">
        <ele>370.4</ele>
        <time>2025-09-13T09:53:24Z</time>
      </trkpt>
      <trkpt lat="47.61273" lon="6.90671">
        <ele>370.3</ele>
        <time>2025-09-13T09:53:25Z</time>
      </trkpt>
      <trkpt lat="47.61266" lon="6.90678">
        <ele>370.1</ele>
        <time>2025-09-13T09:53:26Z</time>
      </trkpt>
      <trkpt lat="47.61259" lon="6.90687">
        <ele>369.9</ele>
        <time>2025-09-13T09:53:27Z</time>
      </trkpt>
      <trkpt lat="47.61251" lon="6.90696">
        <ele>369.7</ele>
        <time>2025-09-13T09:53:28Z</time>
      </trkpt>
      <trkpt lat="47.61245" lon="6.90704">
        <ele>369.5</ele>
        <time>2025-09-13T09:53:29Z</time>
      </trkpt>
      <trkpt lat="47.61238" lon="6.90713">
        <ele>369.3</ele>
        <time>2025-09-13T09:53:30Z</time>
      </trkpt>
      <trkpt lat="47.61232" lon="6.90722">
        <ele>369.1</ele>
        <time>2025-09-13T09:53:31Z</time>
      </trkpt>
      <trkpt lat="47.61226" lon="6.90732">
        <ele>368.9</ele>
        <time>2025-09-13T09:53:32Z</time>
      </trkpt>
      <trkpt lat="47.61221" lon="6.90743">
        <ele>368.7</ele>
        <time>2025-09-13T09:53:33Z</time>
      </trkpt>
      <trkpt lat="47.61215" lon="6.90753">
        <ele>368.6</ele>
        <time>2025-09-13T09:53:34Z</time>
      </trkpt>
      <trkpt lat="47.61209" lon="6.90763">
        <ele>368.5</ele>
        <time>2025-09-13T09:53:35Z</time>
      </trkpt>
      <trkpt lat="47.61204" lon="6.90773">
        <ele>368.3</ele>
        <time>2025-09-13T09:53:36Z</time>
      </trkpt>
      <trkpt lat="47.61198" lon="6.90783">
        <ele>368.2</ele>
        <time>2025-09-13T09:53:37Z</time>
      </trkpt>
      <trkpt lat="47.61192" lon="6.90794">
        <ele>368.1</ele>
        <time>2025-09-13T09:53:38Z</time>
      </trkpt>
      <trkpt lat="47.61188" lon="6.90804">
        <ele>368</ele>
        <time>2025-09-13T09:53:39Z</time>
      </trkpt>
      <trkpt lat="47.61182" lon="6.90814">
        <ele>368</ele>
        <time>2025-09-13T09:53:40Z</time>
      </trkpt>
      <trkpt lat="47.61176" lon="6.90825">
        <ele>367.9</ele>
        <time>2025-09-13T09:53:41Z</time>
      </trkpt>
      <trkpt lat="47.6117" lon="6.90836">
        <ele>367.9</ele>
        <time>2025-09-13T09:53:42Z</time>
      </trkpt>
      <trkpt lat="47.61165" lon="6.90846">
        <ele>367.8</ele>
        <time>2025-09-13T09:53:43Z</time>
      </trkpt>
      <trkpt lat="47.61159" lon="6.90856">
        <ele>367.7</ele>
        <time>2025-09-13T09:53:44Z</time>
      </trkpt>
      <trkpt lat="47.61155" lon="6.90866">
        <ele>367.7</ele>
        <time>2025-09-13T09:53:46Z</time>
      </trkpt>
      <trkpt lat="47.61149" lon="6.90877">
        <ele>367.7</ele>
        <time>2025-09-13T09:53:47Z</time>
      </trkpt>
      <trkpt lat="47.61144" lon="6.90888">
        <ele>367.7</ele>
        <time>2025-09-13T09:53:48Z</time>
      </trkpt>
      <trkpt lat="47.61141" lon="6.90898">
        <ele>367.7</ele>
        <time>2025-09-13T09:53:49Z</time>
      </trkpt>
      <trkpt lat="47.61136" lon="6.90909">
        <ele>367.7</ele>
        <time>2025-09-13T09:53:50Z</time>
      </trkpt>
      <trkpt lat="47.61132" lon="6.9092">
        <ele>367.7</ele>
        <time>2025-09-13T09:53:51Z</time>
      </trkpt>
      <trkpt lat="47.61128" lon="6.9093">
        <ele>367.7</ele>
        <time>2025-09-13T09:53:52Z</time>
      </trkpt>
      <trkpt lat="47.61124" lon="6.90941">
        <ele>367.8</ele>
        <time>2025-09-13T09:53:53Z</time>
      </trkpt>
      <trkpt lat="47.61119" lon="6.90952">
        <ele>367.9</ele>
        <time>2025-09-13T09:53:54Z</time>
      </trkpt>
      <trkpt lat="47.61115" lon="6.90963">
        <ele>368</ele>
        <time>2025-09-13T09:53:55Z</time>
      </trkpt>
      <trkpt lat="47.61111" lon="6.90972">
        <ele>368.1</ele>
        <time>2025-09-13T09:53:56Z</time>
      </trkpt>
      <trkpt lat="47.61107" lon="6.90982">
        <ele>368.2</ele>
        <time>2025-09-13T09:53:57Z</time>
      </trkpt>
      <trkpt lat="47.61103" lon="6.90991">
        <ele>368.4</ele>
        <time>2025-09-13T09:53:58Z</time>
      </trkpt>
      <trkpt lat="47.61098" lon="6.91">
        <ele>368.5</ele>
        <time>2025-09-13T09:53:59Z</time>
      </trkpt>
      <trkpt lat="47.61093" lon="6.91009">
        <ele>368.7</ele>
        <time>2025-09-13T09:54:00Z</time>
      </trkpt>
      <trkpt lat="47.61089" lon="6.91015">
        <ele>368.8</ele>
        <time>2025-09-13T09:54:01Z</time>
      </trkpt>
      <trkpt lat="47.61083" lon="6.91024">
        <ele>368.9</ele>
        <time>2025-09-13T09:54:02Z</time>
      </trkpt>
      <trkpt lat="47.61079" lon="6.91031">
        <ele>369</ele>
        <time>2025-09-13T09:54:03Z</time>
      </trkpt>
      <trkpt lat="47.61074" lon="6.91038">
        <ele>369.1</ele>
        <time>2025-09-13T09:54:04Z</time>
      </trkpt>
      <trkpt lat="47.6107" lon="6.91045">
        <ele>369.2</ele>
        <time>2025-09-13T09:54:05Z</time>
      </trkpt>
      <trkpt lat="47.61066" lon="6.91052">
        <ele>369.2</ele>
        <time>2025-09-13T09:54:06Z</time>
      </trkpt>
      <trkpt lat="47.61061" lon="6.9106">
        <ele>369.3</ele>
        <time>2025-09-13T09:54:07Z</time>
      </trkpt>
      <trkpt lat="47.61055" lon="6.91067">
        <ele>369.3</ele>
        <time>2025-09-13T09:54:08Z</time>
      </trkpt>
      <trkpt lat="47.61052" lon="6.91075">
        <ele>369.3</ele>
        <time>2025-09-13T09:54:09Z</time>
      </trkpt>
      <trkpt lat="47.61048" lon="6.91084">
        <ele>369.4</ele>
        <time>2025-09-13T09:54:10Z</time>
      </trkpt>
      <trkpt lat="47.61044" lon="6.91093">
        <ele>369.4</ele>
        <time>2025-09-13T09:54:11Z</time>
      </trkpt>
      <trkpt lat="47.61039" lon="6.91102">
        <ele>369.4</ele>
        <time>2025-09-13T09:54:12Z</time>
      </trkpt>
      <trkpt lat="47.61035" lon="6.91111">
        <ele>369.3</ele>
        <time>2025-09-13T09:54:13Z</time>
      </trkpt>
      <trkpt lat="47.61031" lon="6.91121">
        <ele>369.3</ele>
        <time>2025-09-13T09:54:14Z</time>
      </trkpt>
      <trkpt lat="47.61027" lon="6.9113">
        <ele>369.3</ele>
        <time>2025-09-13T09:54:15Z</time>
      </trkpt>
      <trkpt lat="47.61023" lon="6.9114">
        <ele>369.3</ele>
        <time>2025-09-13T09:54:16Z</time>
      </trkpt>
      <trkpt lat="47.61018" lon="6.91149">
        <ele>369.3</ele>
        <time>2025-09-13T09:54:17Z</time>
      </trkpt>
      <trkpt lat="47.61014" lon="6.91159">
        <ele>369.3</ele>
        <time>2025-09-13T09:54:18Z</time>
      </trkpt>
      <trkpt lat="47.6101" lon="6.91169">
        <ele>369.2</ele>
        <time>2025-09-13T09:54:19Z</time>
      </trkpt>
      <trkpt lat="47.61005" lon="6.91179">
        <ele>369.1</ele>
        <time>2025-09-13T09:54:20Z</time>
      </trkpt>
      <trkpt lat="47.61001" lon="6.91188">
        <ele>369.1</ele>
        <time>2025-09-13T09:54:21Z</time>
      </trkpt>
      <trkpt lat="47.60996" lon="6.91198">
        <ele>369</ele>
        <time>2025-09-13T09:54:22Z</time>
      </trkpt>
      <trkpt lat="47.6099" lon="6.91209">
        <ele>368.9</ele>
        <time>2025-09-13T09:54:23Z</time>
      </trkpt>
      <trkpt lat="47.60986" lon="6.91219">
        <ele>368.8</ele>
        <time>2025-09-13T09:54:24Z</time>
      </trkpt>
      <trkpt lat="47.6098" lon="6.91229">
        <ele>368.8</ele>
        <time>2025-09-13T09:54:25Z</time>
      </trkpt>
      <trkpt lat="47.60973" lon="6.91238">
        <ele>368.8</ele>
        <time>2025-09-13T09:54:26Z</time>
      </trkpt>
      <trkpt lat="47.60967" lon="6.91247">
        <ele>368.6</ele>
        <time>2025-09-13T09:54:27Z</time>
      </trkpt>
      <trkpt lat="47.6096" lon="6.91255">
        <ele>368.5</ele>
        <time>2025-09-13T09:54:28Z</time>
      </trkpt>
      <trkpt lat="47.60953" lon="6.91263">
        <ele>368.4</ele>
        <time>2025-09-13T09:54:29Z</time>
      </trkpt>
      <trkpt lat="47.60947" lon="6.9127">
        <ele>368.4</ele>
        <time>2025-09-13T09:54:30Z</time>
      </trkpt>
      <trkpt lat="47.60939" lon="6.91276">
        <ele>368.3</ele>
        <time>2025-09-13T09:54:31Z</time>
      </trkpt>
      <trkpt lat="47.60932" lon="6.91281">
        <ele>368.2</ele>
        <time>2025-09-13T09:54:32Z</time>
      </trkpt>
      <trkpt lat="47.60924" lon="6.91287">
        <ele>368.2</ele>
        <time>2025-09-13T09:54:33Z</time>
      </trkpt>
      <trkpt lat="47.60917" lon="6.91293">
        <ele>368.1</ele>
        <time>2025-09-13T09:54:34Z</time>
      </trkpt>
      <trkpt lat="47.60911" lon="6.913">
        <ele>368.1</ele>
        <time>2025-09-13T09:54:35Z</time>
      </trkpt>
      <trkpt lat="47.60906" lon="6.91307">
        <ele>368</ele>
        <time>2025-09-13T09:54:36Z</time>
      </trkpt>
      <trkpt lat="47.60899" lon="6.91314">
        <ele>367.9</ele>
        <time>2025-09-13T09:54:37Z</time>
      </trkpt>
      <trkpt lat="47.60886" lon="6.91328">
        <ele>367.7</ele>
        <time>2025-09-13T09:54:38Z</time>
      </trkpt>
      <trkpt lat="47.6088" lon="6.91335">
        <ele>367.6</ele>
        <time>2025-09-13T09:54:39Z</time>
      </trkpt>
      <trkpt lat="47.60874" lon="6.91343">
        <ele>367.5</ele>
        <time>2025-09-13T09:54:40Z</time>
      </trkpt>
      <trkpt lat="47.60867" lon="6.91351">
        <ele>367.4</ele>
        <time>2025-09-13T09:54:41Z</time>
      </trkpt>
      <trkpt lat="47.60862" lon="6.91359">
        <ele>367.2</ele>
        <time>2025-09-13T09:54:42Z</time>
      </trkpt>
      <trkpt lat="47.60857" lon="6.91368">
        <ele>367</ele>
        <time>2025-09-13T09:54:43Z</time>
      </trkpt>
      <trkpt lat="47.60852" lon="6.91377">
        <ele>366.9</ele>
        <time>2025-09-13T09:54:44Z</time>
      </trkpt>
      <trkpt lat="47.60848" lon="6.91386">
        <ele>366.8</ele>
        <time>2025-09-13T09:54:45Z</time>
      </trkpt>
      <trkpt lat="47.60842" lon="6.91395">
        <ele>366.6</ele>
        <time>2025-09-13T09:54:46Z</time>
      </trkpt>
      <trkpt lat="47.60838" lon="6.91404">
        <ele>366.5</ele>
        <time>2025-09-13T09:54:47Z</time>
      </trkpt>
      <trkpt lat="47.60833" lon="6.91413">
        <ele>366.4</ele>
        <time>2025-09-13T09:54:48Z</time>
      </trkpt>
      <trkpt lat="47.60829" lon="6.91419">
        <ele>366.4</ele>
        <time>2025-09-13T09:54:49Z</time>
      </trkpt>
      <trkpt lat="47.60826" lon="6.91423">
        <ele>366.3</ele>
        <time>2025-09-13T09:54:50Z</time>
      </trkpt>
      <trkpt lat="47.60824" lon="6.91426">
        <ele>366.3</ele>
        <time>2025-09-13T09:54:51Z</time>
      </trkpt>
      <trkpt lat="47.60821" lon="6.9143">
        <ele>366.2</ele>
        <time>2025-09-13T09:54:52Z</time>
      </trkpt>
      <trkpt lat="47.6082" lon="6.91432">
        <ele>366.2</ele>
        <time>2025-09-13T09:54:53Z</time>
      </trkpt>
      <trkpt lat="47.60817" lon="6.91438">
        <ele>366.2</ele>
        <time>2025-09-13T09:54:54Z</time>
      </trkpt>
      <trkpt lat="47.60813" lon="6.91444">
        <ele>366.2</ele>
        <time>2025-09-13T09:54:55Z</time>
      </trkpt>
      <trkpt lat="47.60809" lon="6.91452">
        <ele>366.2</ele>
        <time>2025-09-13T09:54:56Z</time>
      </trkpt>
      <trkpt lat="47.60805" lon="6.91459">
        <ele>366.2</ele>
        <time>2025-09-13T09:54:57Z</time>
      </trkpt>
      <trkpt lat="47.60801" lon="6.91467">
        <ele>366.3</ele>
        <time>2025-09-13T09:54:58Z</time>
      </trkpt>
      <trkpt lat="47.60797" lon="6.91474">
        <ele>366.3</ele>
        <time>2025-09-13T09:54:59Z</time>
      </trkpt>
      <trkpt lat="47.60792" lon="6.91482">
        <ele>366.4</ele>
        <time>2025-09-13T09:55:00Z</time>
      </trkpt>
      <trkpt lat="47.60788" lon="6.9149">
        <ele>366.5</ele>
        <time>2025-09-13T09:55:01Z</time>
      </trkpt>
      <trkpt lat="47.60783" lon="6.915">
        <ele>366.7</ele>
        <time>2025-09-13T09:55:02Z</time>
      </trkpt>
      <trkpt lat="47.60779" lon="6.91507">
        <ele>366.8</ele>
        <time>2025-09-13T09:55:03Z</time>
      </trkpt>
      <trkpt lat="47.60776" lon="6.91514">
        <ele>366.9</ele>
        <time>2025-09-13T09:55:04Z</time>
      </trkpt>
      <trkpt lat="47.60772" lon="6.91521">
        <ele>367</ele>
        <time>2025-09-13T09:55:05Z</time>
      </trkpt>
      <trkpt lat="47.60768" lon="6.91529">
        <ele>367.1</ele>
        <time>2025-09-13T09:55:06Z</time>
      </trkpt>
      <trkpt lat="47.60763" lon="6.91537">
        <ele>367.2</ele>
        <time>2025-09-13T09:55:07Z</time>
      </trkpt>
      <trkpt lat="47.60759" lon="6.91544">
        <ele>367.2</ele>
        <time>2025-09-13T09:55:08Z</time>
      </trkpt>
      <trkpt lat="47.60754" lon="6.91554">
        <ele>367.3</ele>
        <time>2025-09-13T09:55:09Z</time>
      </trkpt>
      <trkpt lat="47.6075" lon="6.91563">
        <ele>367.3</ele>
        <time>2025-09-13T09:55:10Z</time>
      </trkpt>
      <trkpt lat="47.60745" lon="6.9157">
        <ele>367.4</ele>
        <time>2025-09-13T09:55:11Z</time>
      </trkpt>
      <trkpt lat="47.6074" lon="6.91578">
        <ele>367.4</ele>
        <time>2025-09-13T09:55:12Z</time>
      </trkpt>
      <trkpt lat="47.60735" lon="6.91587">
        <ele>367.5</ele>
        <time>2025-09-13T09:55:13Z</time>
      </trkpt>
      <trkpt lat="47.60731" lon="6.91597">
        <ele>367.5</ele>
        <time>2025-09-13T09:55:14Z</time>
      </trkpt>
      <trkpt lat="47.60727" lon="6.91606">
        <ele>367.6</ele>
        <time>2025-09-13T09:55:15Z</time>
      </trkpt>
      <trkpt lat="47.60723" lon="6.91615">
        <ele>367.7</ele>
        <time>2025-09-13T09:55:16Z</time>
      </trkpt>
      <trkpt lat="47.60718" lon="6.91624">
        <ele>367.8</ele>
        <time>2025-09-13T09:55:17Z</time>
      </trkpt>
      <trkpt lat="47.60715" lon="6.91633">
        <ele>367.8</ele>
        <time>2025-09-13T09:55:18Z</time>
      </trkpt>
      <trkpt lat="47.60713" lon="6.91644">
        <ele>367.9</ele>
        <time>2025-09-13T09:55:19Z</time>
      </trkpt>
      <trkpt lat="47.60711" lon="6.91654">
        <ele>368</ele>
        <time>2025-09-13T09:55:20Z</time>
      </trkpt>
      <trkpt lat="47.60708" lon="6.91663">
        <ele>368</ele>
        <time>2025-09-13T09:55:21Z</time>
      </trkpt>
      <trkpt lat="47.60705" lon="6.91673">
        <ele>368</ele>
        <time>2025-09-13T09:55:22Z</time>
      </trkpt>
      <trkpt lat="47.60703" lon="6.91683">
        <ele>368.1</ele>
        <time>2025-09-13T09:55:23Z</time>
      </trkpt>
      <trkpt lat="47.60701" lon="6.91694">
        <ele>368.1</ele>
        <time>2025-09-13T09:55:24Z</time>
      </trkpt>
      <trkpt lat="47.607" lon="6.91705">
        <ele>368.2</ele>
        <time>2025-09-13T09:55:25Z</time>
      </trkpt>
      <trkpt lat="47.60699" lon="6.91715">
        <ele>368.3</ele>
        <time>2025-09-13T09:55:26Z</time>
      </trkpt>
      <trkpt lat="47.60698" lon="6.91726">
        <ele>368.4</ele>
        <time>2025-09-13T09:55:27Z</time>
      </trkpt>
      <trkpt lat="47.60697" lon="6.91737">
        <ele>368.4</ele>
        <time>2025-09-13T09:55:28Z</time>
      </trkpt>
      <trkpt lat="47.60697" lon="6.91748">
        <ele>368.5</ele>
        <time>2025-09-13T09:55:29Z</time>
      </trkpt>
      <trkpt lat="47.60697" lon="6.9176">
        <ele>368.6</ele>
        <time>2025-09-13T09:55:30Z</time>
      </trkpt>
      <trkpt lat="47.60697" lon="6.9177">
        <ele>368.7</ele>
        <time>2025-09-13T09:55:31Z</time>
      </trkpt>
      <trkpt lat="47.60697" lon="6.91781">
        <ele>368.7</ele>
        <time>2025-09-13T09:55:32Z</time>
      </trkpt>
      <trkpt lat="47.60697" lon="6.91792">
        <ele>368.8</ele>
        <time>2025-09-13T09:55:34Z</time>
      </trkpt>
      <trkpt lat="47.60697" lon="6.91802">
        <ele>368.8</ele>
        <time>2025-09-13T09:55:35Z</time>
      </trkpt>
      <trkpt lat="47.60698" lon="6.91813">
        <ele>368.8</ele>
        <time>2025-09-13T09:55:36Z</time>
      </trkpt>
      <trkpt lat="47.60698" lon="6.91823">
        <ele>368.8</ele>
        <time>2025-09-13T09:55:37Z</time>
      </trkpt>
      <trkpt lat="47.60699" lon="6.91835">
        <ele>368.8</ele>
        <time>2025-09-13T09:55:38Z</time>
      </trkpt>
      <trkpt lat="47.607" lon="6.91847">
        <ele>368.8</ele>
        <time>2025-09-13T09:55:39Z</time>
      </trkpt>
      <trkpt lat="47.60701" lon="6.91857">
        <ele>368.9</ele>
        <time>2025-09-13T09:55:40Z</time>
      </trkpt>
      <trkpt lat="47.60702" lon="6.91868">
        <ele>368.9</ele>
        <time>2025-09-13T09:55:41Z</time>
      </trkpt>
      <trkpt lat="47.60703" lon="6.91879">
        <ele>369</ele>
        <time>2025-09-13T09:55:42Z</time>
      </trkpt>
      <trkpt lat="47.60704" lon="6.9189">
        <ele>369</ele>
        <time>2025-09-13T09:55:43Z</time>
      </trkpt>
      <trkpt lat="47.60705" lon="6.919">
        <ele>369</ele>
        <time>2025-09-13T09:55:44Z</time>
      </trkpt>
      <trkpt lat="47.60705" lon="6.91911">
        <ele>369</ele>
        <time>2025-09-13T09:55:45Z</time>
      </trkpt>
      <trkpt lat="47.60706" lon="6.91922">
        <ele>369.1</ele>
        <time>2025-09-13T09:55:46Z</time>
      </trkpt>
      <trkpt lat="47.60706" lon="6.91934">
        <ele>369.1</ele>
        <time>2025-09-13T09:55:47Z</time>
      </trkpt>
      <trkpt lat="47.60707" lon="6.91945">
        <ele>369.1</ele>
        <time>2025-09-13T09:55:48Z</time>
      </trkpt>
      <trkpt lat="47.60706" lon="6.91957">
        <ele>369.1</ele>
        <time>2025-09-13T09:55:49Z</time>
      </trkpt>
      <trkpt lat="47.60706" lon="6.91967">
        <ele>369</ele>
        <time>2025-09-13T09:55:50Z</time>
      </trkpt>
      <trkpt lat="47.60705" lon="6.91979">
        <ele>369</ele>
        <time>2025-09-13T09:55:51Z</time>
      </trkpt>
      <trkpt lat="47.60703" lon="6.9199">
        <ele>369</ele>
        <time>2025-09-13T09:55:52Z</time>
      </trkpt>
      <trkpt lat="47.60701" lon="6.92001">
        <ele>368.9</ele>
        <time>2025-09-13T09:55:53Z</time>
      </trkpt>
      <trkpt lat="47.60699" lon="6.92012">
        <ele>368.8</ele>
        <time>2025-09-13T09:55:54Z</time>
      </trkpt>
      <trkpt lat="47.60697" lon="6.92023">
        <ele>368.7</ele>
        <time>2025-09-13T09:55:55Z</time>
      </trkpt>
      <trkpt lat="47.60695" lon="6.92034">
        <ele>368.6</ele>
        <time>2025-09-13T09:55:56Z</time>
      </trkpt>
      <trkpt lat="47.60692" lon="6.92044">
        <ele>368.5</ele>
        <time>2025-09-13T09:55:57Z</time>
      </trkpt>
      <trkpt lat="47.6069" lon="6.92055">
        <ele>368.4</ele>
        <time>2025-09-13T09:55:58Z</time>
      </trkpt>
      <trkpt lat="47.60686" lon="6.92067">
        <ele>368.2</ele>
        <time>2025-09-13T09:55:59Z</time>
      </trkpt>
      <trkpt lat="47.60683" lon="6.92079">
        <ele>368</ele>
        <time>2025-09-13T09:56:00Z</time>
      </trkpt>
      <trkpt lat="47.6068" lon="6.92091">
        <ele>367.8</ele>
        <time>2025-09-13T09:56:01Z</time>
      </trkpt>
      <trkpt lat="47.60677" lon="6.92104">
        <ele>367.5</ele>
        <time>2025-09-13T09:56:02Z</time>
      </trkpt>
      <trkpt lat="47.60674" lon="6.92116">
        <ele>367.3</ele>
        <time>2025-09-13T09:56:03Z</time>
      </trkpt>
      <trkpt lat="47.6067" lon="6.92127">
        <ele>367</ele>
        <time>2025-09-13T09:56:04Z</time>
      </trkpt>
      <trkpt lat="47.60667" lon="6.9214">
        <ele>366.7</ele>
        <time>2025-09-13T09:56:05Z</time>
      </trkpt>
      <trkpt lat="47.60663" lon="6.92152">
        <ele>366.4</ele>
        <time>2025-09-13T09:56:06Z</time>
      </trkpt>
      <trkpt lat="47.60659" lon="6.92165">
        <ele>366.1</ele>
        <time>2025-09-13T09:56:07Z</time>
      </trkpt>
      <trkpt lat="47.60655" lon="6.92177">
        <ele>365.8</ele>
        <time>2025-09-13T09:56:08Z</time>
      </trkpt>
      <trkpt lat="47.60651" lon="6.9219">
        <ele>365.4</ele>
        <time>2025-09-13T09:56:09Z</time>
      </trkpt>
      <trkpt lat="47.60646" lon="6.92203">
        <ele>365.1</ele>
        <time>2025-09-13T09:56:10Z</time>
      </trkpt>
      <trkpt lat="47.60643" lon="6.92216">
        <ele>364.8</ele>
        <time>2025-09-13T09:56:11Z</time>
      </trkpt>
      <trkpt lat="47.60639" lon="6.92228">
        <ele>364.5</ele>
        <time>2025-09-13T09:56:12Z</time>
      </trkpt>
      <trkpt lat="47.60635" lon="6.92241">
        <ele>364.1</ele>
        <time>2025-09-13T09:56:13Z</time>
      </trkpt>
      <trkpt lat="47.6063" lon="6.92254">
        <ele>363.8</ele>
        <time>2025-09-13T09:56:14Z</time>
      </trkpt>
      <trkpt lat="47.60626" lon="6.92267">
        <ele>363.4</ele>
        <time>2025-09-13T09:56:15Z</time>
      </trkpt>
      <trkpt lat="47.60622" lon="6.92281">
        <ele>363.1</ele>
        <time>2025-09-13T09:56:16Z</time>
      </trkpt>
      <trkpt lat="47.60618" lon="6.92294">
        <ele>362.8</ele>
        <time>2025-09-13T09:56:17Z</time>
      </trkpt>
      <trkpt lat="47.60615" lon="6.92308">
        <ele>362.5</ele>
        <time>2025-09-13T09:56:18Z</time>
      </trkpt>
      <trkpt lat="47.60611" lon="6.92321">
        <ele>362.2</ele>
        <time>2025-09-13T09:56:19Z</time>
      </trkpt>
      <trkpt lat="47.60608" lon="6.92335">
        <ele>361.8</ele>
        <time>2025-09-13T09:56:20Z</time>
      </trkpt>
      <trkpt lat="47.60605" lon="6.9235">
        <ele>361.5</ele>
        <time>2025-09-13T09:56:21Z</time>
      </trkpt>
      <trkpt lat="47.60601" lon="6.92363">
        <ele>361.3</ele>
        <time>2025-09-13T09:56:22Z</time>
      </trkpt>
      <trkpt lat="47.60598" lon="6.92377">
        <ele>361</ele>
        <time>2025-09-13T09:56:23Z</time>
      </trkpt>
      <trkpt lat="47.60594" lon="6.92392">
        <ele>360.8</ele>
        <time>2025-09-13T09:56:24Z</time>
      </trkpt>
      <trkpt lat="47.60588" lon="6.92404">
        <ele>360.7</ele>
        <time>2025-09-13T09:56:25Z</time>
      </trkpt>
      <trkpt lat="47.6058" lon="6.92416">
        <ele>360.6</ele>
        <time>2025-09-13T09:56:26Z</time>
      </trkpt>
      <trkpt lat="47.60571" lon="6.92424">
        <ele>360.4</ele>
        <time>2025-09-13T09:56:27Z</time>
      </trkpt>
      <trkpt lat="47.60561" lon="6.9243">
        <ele>360.4</ele>
        <time>2025-09-13T09:56:28Z</time>
      </trkpt>
      <trkpt lat="47.60551" lon="6.92435">
        <ele>360.4</ele>
        <time>2025-09-13T09:56:29Z</time>
      </trkpt>
      <trkpt lat="47.60542" lon="6.92439">
        <ele>360.4</ele>
        <time>2025-09-13T09:56:30Z</time>
      </trkpt>
      <trkpt lat="47.60533" lon="6.92444">
        <ele>360.4</ele>
        <time>2025-09-13T09:56:31Z</time>
      </trkpt>
      <trkpt lat="47.60525" lon="6.92449">
        <ele>360.4</ele>
        <time>2025-09-13T09:56:32Z</time>
      </trkpt>
      <trkpt lat="47.60516" lon="6.92455">
        <ele>360.5</ele>
        <time>2025-09-13T09:56:33Z</time>
      </trkpt>
      <trkpt lat="47.60508" lon="6.92462">
        <ele>360.5</ele>
        <time>2025-09-13T09:56:34Z</time>
      </trkpt>
      <trkpt lat="47.60501" lon="6.92472">
        <ele>360.6</ele>
        <time>2025-09-13T09:56:35Z</time>
      </trkpt>
      <trkpt lat="47.60495" lon="6.92481">
        <ele>360.7</ele>
        <time>2025-09-13T09:56:36Z</time>
      </trkpt>
      <trkpt lat="47.6049" lon="6.9249">
        <ele>360.9</ele>
        <time>2025-09-13T09:56:37Z</time>
      </trkpt>
      <trkpt lat="47.60484" lon="6.92499">
        <ele>361.1</ele>
        <time>2025-09-13T09:56:38Z</time>
      </trkpt>
      <trkpt lat="47.60478" lon="6.92508">
        <ele>361.3</ele>
        <time>2025-09-13T09:56:39Z</time>
      </trkpt>
      <trkpt lat="47.60472" lon="6.92518">
        <ele>361.5</ele>
        <time>2025-09-13T09:56:40Z</time>
      </trkpt>
      <trkpt lat="47.60467" lon="6.92527">
        <ele>361.7</ele>
        <time>2025-09-13T09:56:41Z</time>
      </trkpt>
      <trkpt lat="47.60463" lon="6.92535">
        <ele>361.9</ele>
        <time>2025-09-13T09:56:42Z</time>
      </trkpt>
      <trkpt lat="47.60458" lon="6.92542">
        <ele>362.2</ele>
        <time>2025-09-13T09:56:43Z</time>
      </trkpt>
      <trkpt lat="47.60454" lon="6.9255">
        <ele>362.5</ele>
        <time>2025-09-13T09:56:44Z</time>
      </trkpt>
      <trkpt lat="47.60449" lon="6.92558">
        <ele>362.7</ele>
        <time>2025-09-13T09:56:45Z</time>
      </trkpt>
      <trkpt lat="47.60444" lon="6.92565">
        <ele>363.1</ele>
        <time>2025-09-13T09:56:46Z</time>
      </trkpt>
      <trkpt lat="47.60439" lon="6.92573">
        <ele>363.4</ele>
        <time>2025-09-13T09:56:47Z</time>
      </trkpt>
      <trkpt lat="47.60434" lon="6.9258">
        <ele>363.7</ele>
        <time>2025-09-13T09:56:48Z</time>
      </trkpt>
      <trkpt lat="47.60429" lon="6.92587">
        <ele>364</ele>
        <time>2025-09-13T09:56:49Z</time>
      </trkpt>
      <trkpt lat="47.60425" lon="6.92593">
        <ele>364.3</ele>
        <time>2025-09-13T09:56:50Z</time>
      </trkpt>
      <trkpt lat="47.6042" lon="6.926">
        <ele>364.6</ele>
        <time>2025-09-13T09:56:51Z</time>
      </trkpt>
      <trkpt lat="47.60415" lon="6.92607">
        <ele>364.9</ele>
        <time>2025-09-13T09:56:52Z</time>
      </trkpt>
      <trkpt lat="47.6041" lon="6.92614">
        <ele>365.2</ele>
        <time>2025-09-13T09:56:53Z</time>
      </trkpt>
      <trkpt lat="47.60405" lon="6.92621">
        <ele>365.6</ele>
        <time>2025-09-13T09:56:54Z</time>
      </trkpt>
      <trkpt lat="47.60401" lon="6.92628">
        <ele>365.9</ele>
        <time>2025-09-13T09:56:55Z</time>
      </trkpt>
      <trkpt lat="47.60396" lon="6.92635">
        <ele>366.2</ele>
        <time>2025-09-13T09:56:56Z</time>
      </trkpt>
      <trkpt lat="47.60393" lon="6.92642">
        <ele>366.5</ele>
        <time>2025-09-13T09:56:57Z</time>
      </trkpt>
      <trkpt lat="47.60389" lon="6.9265">
        <ele>366.8</ele>
        <time>2025-09-13T09:56:58Z</time>
      </trkpt>
      <trkpt lat="47.60381" lon="6.92663">
        <ele>367.3</ele>
        <time>2025-09-13T09:56:59Z</time>
      </trkpt>
      <trkpt lat="47.60376" lon="6.92668">
        <ele>367.5</ele>
        <time>2025-09-13T09:57:00Z</time>
      </trkpt>
      <trkpt lat="47.60371" lon="6.92675">
        <ele>367.8</ele>
        <time>2025-09-13T09:57:01Z</time>
      </trkpt>
      <trkpt lat="47.60366" lon="6.92681">
        <ele>367.9</ele>
        <time>2025-09-13T09:57:02Z</time>
      </trkpt>
      <trkpt lat="47.60362" lon="6.92688">
        <ele>368.1</ele>
        <time>2025-09-13T09:57:03Z</time>
      </trkpt>
      <trkpt lat="47.60358" lon="6.92696">
        <ele>368.3</ele>
        <time>2025-09-13T09:57:04Z</time>
      </trkpt>
      <trkpt lat="47.60354" lon="6.92703">
        <ele>368.4</ele>
        <time>2025-09-13T09:57:05Z</time>
      </trkpt>
      <trkpt lat="47.6035" lon="6.92709">
        <ele>368.6</ele>
        <time>2025-09-13T09:57:06Z</time>
      </trkpt>
      <trkpt lat="47.60346" lon="6.92716">
        <ele>368.7</ele>
        <time>2025-09-13T09:57:07Z</time>
      </trkpt>
      <trkpt lat="47.60342" lon="6.92724">
        <ele>368.9</ele>
        <time>2025-09-13T09:57:08Z</time>
      </trkpt>
      <trkpt lat="47.60337" lon="6.92731">
        <ele>369.1</ele>
        <time>2025-09-13T09:57:09Z</time>
      </trkpt>
      <trkpt lat="47.60333" lon="6.92738">
        <ele>369.3</ele>
        <time>2025-09-13T09:57:10Z</time>
      </trkpt>
      <trkpt lat="47.60329" lon="6.92746">
        <ele>369.4</ele>
        <time>2025-09-13T09:57:11Z</time>
      </trkpt>
      <trkpt lat="47.60326" lon="6.92754">
        <ele>369.5</ele>
        <time>2025-09-13T09:57:12Z</time>
      </trkpt>
      <trkpt lat="47.60322" lon="6.92764">
        <ele>369.7</ele>
        <time>2025-09-13T09:57:13Z</time>
      </trkpt>
      <trkpt lat="47.60319" lon="6.92772">
        <ele>369.8</ele>
        <time>2025-09-13T09:57:14Z</time>
      </trkpt>
      <trkpt lat="47.60317" lon="6.92782">
        <ele>369.9</ele>
        <time>2025-09-13T09:57:15Z</time>
      </trkpt>
      <trkpt lat="47.60314" lon="6.92791">
        <ele>370.1</ele>
        <time>2025-09-13T09:57:16Z</time>
      </trkpt>
      <trkpt lat="47.60311" lon="6.92801">
        <ele>370.2</ele>
        <time>2025-09-13T09:57:17Z</time>
      </trkpt>
      <trkpt lat="47.60308" lon="6.92811">
        <ele>370.3</ele>
        <time>2025-09-13T09:57:18Z</time>
      </trkpt>
      <trkpt lat="47.60305" lon="6.9282">
        <ele>370.4</ele>
        <time>2025-09-13T09:57:19Z</time>
      </trkpt>
      <trkpt lat="47.60302" lon="6.92829">
        <ele>370.4</ele>
        <time>2025-09-13T09:57:20Z</time>
      </trkpt>
      <trkpt lat="47.60299" lon="6.92839">
        <ele>370.5</ele>
        <time>2025-09-13T09:57:21Z</time>
      </trkpt>
      <trkpt lat="47.60296" lon="6.92849">
        <ele>370.5</ele>
        <time>2025-09-13T09:57:22Z</time>
      </trkpt>
      <trkpt lat="47.60294" lon="6.92859">
        <ele>370.6</ele>
        <time>2025-09-13T09:57:23Z</time>
      </trkpt>
      <trkpt lat="47.6029" lon="6.92869">
        <ele>370.6</ele>
        <time>2025-09-13T09:57:24Z</time>
      </trkpt>
      <trkpt lat="47.60287" lon="6.92879">
        <ele>370.6</ele>
        <time>2025-09-13T09:57:25Z</time>
      </trkpt>
      <trkpt lat="47.60284" lon="6.92888">
        <ele>370.5</ele>
        <time>2025-09-13T09:57:26Z</time>
      </trkpt>
      <trkpt lat="47.60282" lon="6.92898">
        <ele>370.4</ele>
        <time>2025-09-13T09:57:27Z</time>
      </trkpt>
      <trkpt lat="47.60278" lon="6.92909">
        <ele>370.3</ele>
        <time>2025-09-13T09:57:28Z</time>
      </trkpt>
      <trkpt lat="47.60275" lon="6.9292">
        <ele>370.2</ele>
        <time>2025-09-13T09:57:29Z</time>
      </trkpt>
      <trkpt lat="47.60272" lon="6.92931">
        <ele>370.1</ele>
        <time>2025-09-13T09:57:30Z</time>
      </trkpt>
      <trkpt lat="47.60268" lon="6.92942">
        <ele>370</ele>
        <time>2025-09-13T09:57:31Z</time>
      </trkpt>
      <trkpt lat="47.60264" lon="6.92952">
        <ele>369.9</ele>
        <time>2025-09-13T09:57:32Z</time>
      </trkpt>
      <trkpt lat="47.60261" lon="6.92962">
        <ele>369.8</ele>
        <time>2025-09-13T09:57:33Z</time>
      </trkpt>
      <trkpt lat="47.60258" lon="6.92972">
        <ele>369.7</ele>
        <time>2025-09-13T09:57:34Z</time>
      </trkpt>
      <trkpt lat="47.60255" lon="6.92983">
        <ele>369.6</ele>
        <time>2025-09-13T09:57:35Z</time>
      </trkpt>
      <trkpt lat="47.6025" lon="6.92993">
        <ele>369.5</ele>
        <time>2025-09-13T09:57:36Z</time>
      </trkpt>
      <trkpt lat="47.60247" lon="6.93004">
        <ele>369.3</ele>
        <time>2025-09-13T09:57:37Z</time>
      </trkpt>
      <trkpt lat="47.60244" lon="6.93015">
        <ele>369.1</ele>
        <time>2025-09-13T09:57:38Z</time>
      </trkpt>
      <trkpt lat="47.60241" lon="6.93027">
        <ele>368.8</ele>
        <time>2025-09-13T09:57:40Z</time>
      </trkpt>
      <trkpt lat="47.60237" lon="6.93038">
        <ele>368.6</ele>
        <time>2025-09-13T09:57:41Z</time>
      </trkpt>
      <trkpt lat="47.60234" lon="6.93048">
        <ele>368.3</ele>
        <time>2025-09-13T09:57:42Z</time>
      </trkpt>
      <trkpt lat="47.6023" lon="6.9306">
        <ele>368.1</ele>
        <time>2025-09-13T09:57:43Z</time>
      </trkpt>
      <trkpt lat="47.60227" lon="6.93073">
        <ele>367.8</ele>
        <time>2025-09-13T09:57:44Z</time>
      </trkpt>
      <trkpt lat="47.60223" lon="6.93084">
        <ele>367.5</ele>
        <time>2025-09-13T09:57:45Z</time>
      </trkpt>
      <trkpt lat="47.60219" lon="6.93096">
        <ele>367.3</ele>
        <time>2025-09-13T09:57:46Z</time>
      </trkpt>
      <trkpt lat="47.60215" lon="6.93109">
        <ele>367</ele>
        <time>2025-09-13T09:57:47Z</time>
      </trkpt>
      <trkpt lat="47.60211" lon="6.93122">
        <ele>366.8</ele>
        <time>2025-09-13T09:57:48Z</time>
      </trkpt>
      <trkpt lat="47.60208" lon="6.93135">
        <ele>366.6</ele>
        <time>2025-09-13T09:57:49Z</time>
      </trkpt>
      <trkpt lat="47.60204" lon="6.93149">
        <ele>366.5</ele>
        <time>2025-09-13T09:57:50Z</time>
      </trkpt>
      <trkpt lat="47.602" lon="6.93162">
        <ele>366.5</ele>
        <time>2025-09-13T09:57:51Z</time>
      </trkpt>
      <trkpt lat="47.60196" lon="6.93174">
        <ele>366.5</ele>
        <time>2025-09-13T09:57:52Z</time>
      </trkpt>
      <trkpt lat="47.60193" lon="6.93186">
        <ele>366.5</ele>
        <time>2025-09-13T09:57:53Z</time>
      </trkpt>
      <trkpt lat="47.60188" lon="6.93198">
        <ele>366.7</ele>
        <time>2025-09-13T09:57:54Z</time>
      </trkpt>
      <trkpt lat="47.60184" lon="6.93212">
        <ele>366.9</ele>
        <time>2025-09-13T09:57:55Z</time>
      </trkpt>
      <trkpt lat="47.6018" lon="6.93224">
        <ele>367.2</ele>
        <time>2025-09-13T09:57:56Z</time>
      </trkpt>
      <trkpt lat="47.60177" lon="6.93236">
        <ele>367.5</ele>
        <time>2025-09-13T09:57:57Z</time>
      </trkpt>
      <trkpt lat="47.60173" lon="6.93247">
        <ele>367.8</ele>
        <time>2025-09-13T09:57:58Z</time>
      </trkpt>
      <trkpt lat="47.6017" lon="6.93259">
        <ele>368.1</ele>
        <time>2025-09-13T09:57:59Z</time>
      </trkpt>
      <trkpt lat="47.60166" lon="6.9327">
        <ele>368.5</ele>
        <time>2025-09-13T09:58:00Z</time>
      </trkpt>
      <trkpt lat="47.60164" lon="6.93282">
        <ele>368.8</ele>
        <time>2025-09-13T09:58:01Z</time>
      </trkpt>
      <trkpt lat="47.6016" lon="6.93293">
        <ele>369.2</ele>
        <time>2025-09-13T09:58:02Z</time>
      </trkpt>
      <trkpt lat="47.60157" lon="6.93303">
        <ele>369.6</ele>
        <time>2025-09-13T09:58:03Z</time>
      </trkpt>
      <trkpt lat="47.60154" lon="6.93313">
        <ele>370</ele>
        <time>2025-09-13T09:58:04Z</time>
      </trkpt>
      <trkpt lat="47.60152" lon="6.93321">
        <ele>370.3</ele>
        <time>2025-09-13T09:58:05Z</time>
      </trkpt>
      <trkpt lat="47.60148" lon="6.93332">
        <ele>370.7</ele>
        <time>2025-09-13T09:58:06Z</time>
      </trkpt>
      <trkpt lat="47.60145" lon="6.93341">
        <ele>371.1</ele>
        <time>2025-09-13T09:58:07Z</time>
      </trkpt>
      <trkpt lat="47.60142" lon="6.93351">
        <ele>371.4</ele>
        <time>2025-09-13T09:58:08Z</time>
      </trkpt>
      <trkpt lat="47.60139" lon="6.93361">
        <ele>371.7</ele>
        <time>2025-09-13T09:58:09Z</time>
      </trkpt>
      <trkpt lat="47.60137" lon="6.9337">
        <ele>372</ele>
        <time>2025-09-13T09:58:10Z</time>
      </trkpt>
      <trkpt lat="47.60134" lon="6.9338">
        <ele>372.2</ele>
        <time>2025-09-13T09:58:11Z</time>
      </trkpt>
      <trkpt lat="47.60131" lon="6.93389">
        <ele>372.4</ele>
        <time>2025-09-13T09:58:12Z</time>
      </trkpt>
      <trkpt lat="47.60128" lon="6.93398">
        <ele>372.6</ele>
        <time>2025-09-13T09:58:13Z</time>
      </trkpt>
      <trkpt lat="47.60126" lon="6.93408">
        <ele>372.8</ele>
        <time>2025-09-13T09:58:14Z</time>
      </trkpt>
      <trkpt lat="47.60123" lon="6.93417">
        <ele>373</ele>
        <time>2025-09-13T09:58:15Z</time>
      </trkpt>
      <trkpt lat="47.60119" lon="6.93426">
        <ele>373.2</ele>
        <time>2025-09-13T09:58:16Z</time>
      </trkpt>
      <trkpt lat="47.60116" lon="6.93436">
        <ele>373.3</ele>
        <time>2025-09-13T09:58:17Z</time>
      </trkpt>
      <trkpt lat="47.60113" lon="6.93446">
        <ele>373.4</ele>
        <time>2025-09-13T09:58:18Z</time>
      </trkpt>
      <trkpt lat="47.60111" lon="6.93455">
        <ele>373.5</ele>
        <time>2025-09-13T09:58:19Z</time>
      </trkpt>
      <trkpt lat="47.60108" lon="6.93464">
        <ele>373.6</ele>
        <time>2025-09-13T09:58:20Z</time>
      </trkpt>
      <trkpt lat="47.60105" lon="6.93473">
        <ele>373.6</ele>
        <time>2025-09-13T09:58:21Z</time>
      </trkpt>
      <trkpt lat="47.60101" lon="6.93483">
        <ele>373.6</ele>
        <time>2025-09-13T09:58:22Z</time>
      </trkpt>
      <trkpt lat="47.60098" lon="6.93493">
        <ele>373.6</ele>
        <time>2025-09-13T09:58:23Z</time>
      </trkpt>
      <trkpt lat="47.60095" lon="6.93503">
        <ele>373.6</ele>
        <time>2025-09-13T09:58:24Z</time>
      </trkpt>
      <trkpt lat="47.60091" lon="6.93513">
        <ele>373.5</ele>
        <time>2025-09-13T09:58:25Z</time>
      </trkpt>
      <trkpt lat="47.60089" lon="6.93522">
        <ele>373.5</ele>
        <time>2025-09-13T09:58:26Z</time>
      </trkpt>
      <trkpt lat="47.60086" lon="6.93535">
        <ele>373.4</ele>
        <time>2025-09-13T09:58:27Z</time>
      </trkpt>
      <trkpt lat="47.60083" lon="6.93546">
        <ele>373.3</ele>
        <time>2025-09-13T09:58:28Z</time>
      </trkpt>
      <trkpt lat="47.60079" lon="6.93557">
        <ele>373.2</ele>
        <time>2025-09-13T09:58:29Z</time>
      </trkpt>
      <trkpt lat="47.60076" lon="6.93569">
        <ele>373.1</ele>
        <time>2025-09-13T09:58:30Z</time>
      </trkpt>
      <trkpt lat="47.60073" lon="6.93582">
        <ele>373</ele>
        <time>2025-09-13T09:58:31Z</time>
      </trkpt>
      <trkpt lat="47.6007" lon="6.93593">
        <ele>373</ele>
        <time>2025-09-13T09:58:32Z</time>
      </trkpt>
      <trkpt lat="47.60065" lon="6.93604">
        <ele>372.9</ele>
        <time>2025-09-13T09:58:33Z</time>
      </trkpt>
      <trkpt lat="47.60062" lon="6.93616">
        <ele>373</ele>
        <time>2025-09-13T09:58:34Z</time>
      </trkpt>
      <trkpt lat="47.60058" lon="6.93627">
        <ele>373</ele>
        <time>2025-09-13T09:58:35Z</time>
      </trkpt>
      <trkpt lat="47.60055" lon="6.93639">
        <ele>373.1</ele>
        <time>2025-09-13T09:58:36Z</time>
      </trkpt>
      <trkpt lat="47.60051" lon="6.93651">
        <ele>373.2</ele>
        <time>2025-09-13T09:58:37Z</time>
      </trkpt>
      <trkpt lat="47.60048" lon="6.93663">
        <ele>373.3</ele>
        <time>2025-09-13T09:58:38Z</time>
      </trkpt>
      <trkpt lat="47.60045" lon="6.93674">
        <ele>373.4</ele>
        <time>2025-09-13T09:58:39Z</time>
      </trkpt>
      <trkpt lat="47.60042" lon="6.93684">
        <ele>373.6</ele>
        <time>2025-09-13T09:58:40Z</time>
      </trkpt>
      <trkpt lat="47.60039" lon="6.93694">
        <ele>373.8</ele>
        <time>2025-09-13T09:58:41Z</time>
      </trkpt>
      <trkpt lat="47.60036" lon="6.93704">
        <ele>374.1</ele>
        <time>2025-09-13T09:58:42Z</time>
      </trkpt>
      <trkpt lat="47.60032" lon="6.93712">
        <ele>374.3</ele>
        <time>2025-09-13T09:58:43Z</time>
      </trkpt>
      <trkpt lat="47.60029" lon="6.93722">
        <ele>374.7</ele>
        <time>2025-09-13T09:58:44Z</time>
      </trkpt>
      <trkpt lat="47.60023" lon="6.93741">
        <ele>375.3</ele>
        <time>2025-09-13T09:58:45Z</time>
      </trkpt>
      <trkpt lat="47.6002" lon="6.9375">
        <ele>375.6</ele>
        <time>2025-09-13T09:58:46Z</time>
      </trkpt>
      <trkpt lat="47.60018" lon="6.93758">
        <ele>375.8</ele>
        <time>2025-09-13T09:58:47Z</time>
      </trkpt>
      <trkpt lat="47.60016" lon="6.93767">
        <ele>376.1</ele>
        <time>2025-09-13T09:58:48Z</time>
      </trkpt>
      <trkpt lat="47.60013" lon="6.93776">
        <ele>376.3</ele>
        <time>2025-09-13T09:58:49Z</time>
      </trkpt>
      <trkpt lat="47.6001" lon="6.93785">
        <ele>376.6</ele>
        <time>2025-09-13T09:58:50Z</time>
      </trkpt>
      <trkpt lat="47.60008" lon="6.93793">
        <ele>376.8</ele>
        <time>2025-09-13T09:58:51Z</time>
      </trkpt>
      <trkpt lat="47.60006" lon="6.93802">
        <ele>377</ele>
        <time>2025-09-13T09:58:52Z</time>
      </trkpt>
      <trkpt lat="47.60003" lon="6.93811">
        <ele>377.2</ele>
        <time>2025-09-13T09:58:53Z</time>
      </trkpt>
      <trkpt lat="47.60001" lon="6.9382">
        <ele>377.4</ele>
        <time>2025-09-13T09:58:54Z</time>
      </trkpt>
      <trkpt lat="47.59998" lon="6.93829">
        <ele>377.5</ele>
        <time>2025-09-13T09:58:55Z</time>
      </trkpt>
      <trkpt lat="47.59995" lon="6.93837">
        <ele>377.6</ele>
        <time>2025-09-13T09:58:56Z</time>
      </trkpt>
      <trkpt lat="47.59992" lon="6.93846">
        <ele>377.7</ele>
        <time>2025-09-13T09:58:57Z</time>
      </trkpt>
      <trkpt lat="47.5999" lon="6.93855">
        <ele>377.8</ele>
        <time>2025-09-13T09:58:58Z</time>
      </trkpt>
      <trkpt lat="47.59987" lon="6.93864">
        <ele>377.9</ele>
        <time>2025-09-13T09:58:59Z</time>
      </trkpt>
      <trkpt lat="47.59984" lon="6.93874">
        <ele>378</ele>
        <time>2025-09-13T09:59:00Z</time>
      </trkpt>
      <trkpt lat="47.59981" lon="6.93883">
        <ele>378</ele>
        <time>2025-09-13T09:59:01Z</time>
      </trkpt>
      <trkpt lat="47.59978" lon="6.93892">
        <ele>378.1</ele>
        <time>2025-09-13T09:59:02Z</time>
      </trkpt>
      <trkpt lat="47.59975" lon="6.93902">
        <ele>378.1</ele>
        <time>2025-09-13T09:59:03Z</time>
      </trkpt>
      <trkpt lat="47.59972" lon="6.93912">
        <ele>378.1</ele>
        <time>2025-09-13T09:59:04Z</time>
      </trkpt>
      <trkpt lat="47.59969" lon="6.93921">
        <ele>378</ele>
        <time>2025-09-13T09:59:05Z</time>
      </trkpt>
      <trkpt lat="47.59967" lon="6.93931">
        <ele>378</ele>
        <time>2025-09-13T09:59:06Z</time>
      </trkpt>
      <trkpt lat="47.59963" lon="6.93941">
        <ele>377.9</ele>
        <time>2025-09-13T09:59:07Z</time>
      </trkpt>
      <trkpt lat="47.59961" lon="6.93951">
        <ele>377.8</ele>
        <time>2025-09-13T09:59:08Z</time>
      </trkpt>
      <trkpt lat="47.59958" lon="6.93961">
        <ele>377.7</ele>
        <time>2025-09-13T09:59:09Z</time>
      </trkpt>
      <trkpt lat="47.59954" lon="6.93971">
        <ele>377.6</ele>
        <time>2025-09-13T09:59:10Z</time>
      </trkpt>
      <trkpt lat="47.59951" lon="6.93982">
        <ele>377.6</ele>
        <time>2025-09-13T09:59:11Z</time>
      </trkpt>
      <trkpt lat="47.59947" lon="6.93992">
        <ele>377.5</ele>
        <time>2025-09-13T09:59:12Z</time>
      </trkpt>
      <trkpt lat="47.59944" lon="6.94003">
        <ele>377.3</ele>
        <time>2025-09-13T09:59:13Z</time>
      </trkpt>
      <trkpt lat="47.59941" lon="6.94014">
        <ele>377.1</ele>
        <time>2025-09-13T09:59:14Z</time>
      </trkpt>
      <trkpt lat="47.59938" lon="6.94025">
        <ele>376.8</ele>
        <time>2025-09-13T09:59:15Z</time>
      </trkpt>
      <trkpt lat="47.59935" lon="6.94036">
        <ele>376.5</ele>
        <time>2025-09-13T09:59:16Z</time>
      </trkpt>
      <trkpt lat="47.59931" lon="6.94048">
        <ele>376.2</ele>
        <time>2025-09-13T09:59:17Z</time>
      </trkpt>
      <trkpt lat="47.59928" lon="6.94058">
        <ele>375.9</ele>
        <time>2025-09-13T09:59:18Z</time>
      </trkpt>
      <trkpt lat="47.59924" lon="6.9407">
        <ele>375.5</ele>
        <time>2025-09-13T09:59:19Z</time>
      </trkpt>
      <trkpt lat="47.59921" lon="6.94083">
        <ele>375.1</ele>
        <time>2025-09-13T09:59:20Z</time>
      </trkpt>
      <trkpt lat="47.59917" lon="6.94096">
        <ele>374.6</ele>
        <time>2025-09-13T09:59:21Z</time>
      </trkpt>
      <trkpt lat="47.59913" lon="6.9411">
        <ele>374.1</ele>
        <time>2025-09-13T09:59:22Z</time>
      </trkpt>
      <trkpt lat="47.5991" lon="6.94123">
        <ele>373.6</ele>
        <time>2025-09-13T09:59:23Z</time>
      </trkpt>
      <trkpt lat="47.59905" lon="6.94137">
        <ele>373</ele>
        <time>2025-09-13T09:59:24Z</time>
      </trkpt>
      <trkpt lat="47.59902" lon="6.9415">
        <ele>372.4</ele>
        <time>2025-09-13T09:59:25Z</time>
      </trkpt>
      <trkpt lat="47.59897" lon="6.94165">
        <ele>371.8</ele>
        <time>2025-09-13T09:59:26Z</time>
      </trkpt>
      <trkpt lat="47.59893" lon="6.9418">
        <ele>371.2</ele>
        <time>2025-09-13T09:59:27Z</time>
      </trkpt>
      <trkpt lat="47.59888" lon="6.94196">
        <ele>370.5</ele>
        <time>2025-09-13T09:59:28Z</time>
      </trkpt>
      <trkpt lat="47.59883" lon="6.94211">
        <ele>369.8</ele>
        <time>2025-09-13T09:59:29Z</time>
      </trkpt>
      <trkpt lat="47.59879" lon="6.94227">
        <ele>369.2</ele>
        <time>2025-09-13T09:59:30Z</time>
      </trkpt>
      <trkpt lat="47.59874" lon="6.94242">
        <ele>368.7</ele>
        <time>2025-09-13T09:59:31Z</time>
      </trkpt>
      <trkpt lat="47.5987" lon="6.94257">
        <ele>368.4</ele>
        <time>2025-09-13T09:59:32Z</time>
      </trkpt>
      <trkpt lat="47.59865" lon="6.94272">
        <ele>368.1</ele>
        <time>2025-09-13T09:59:33Z</time>
      </trkpt>
      <trkpt lat="47.5986" lon="6.94288">
        <ele>367.8</ele>
        <time>2025-09-13T09:59:34Z</time>
      </trkpt>
      <trkpt lat="47.59855" lon="6.94306">
        <ele>367.6</ele>
        <time>2025-09-13T09:59:35Z</time>
      </trkpt>
      <trkpt lat="47.59851" lon="6.94322">
        <ele>367.5</ele>
        <time>2025-09-13T09:59:36Z</time>
      </trkpt>
      <trkpt lat="47.59846" lon="6.94338">
        <ele>367.5</ele>
        <time>2025-09-13T09:59:37Z</time>
      </trkpt>
      <trkpt lat="47.59841" lon="6.94354">
        <ele>367.5</ele>
        <time>2025-09-13T09:59:38Z</time>
      </trkpt>
      <trkpt lat="47.59837" lon="6.94368">
        <ele>367.3</ele>
        <time>2025-09-13T09:59:39Z</time>
      </trkpt>
      <trkpt lat="47.59832" lon="6.94383">
        <ele>367.2</ele>
        <time>2025-09-13T09:59:40Z</time>
      </trkpt>
      <trkpt lat="47.59828" lon="6.94398">
        <ele>367.1</ele>
        <time>2025-09-13T09:59:41Z</time>
      </trkpt>
      <trkpt lat="47.59823" lon="6.94413">
        <ele>366.9</ele>
        <time>2025-09-13T09:59:42Z</time>
      </trkpt>
      <trkpt lat="47.59818" lon="6.94428">
        <ele>366.8</ele>
        <time>2025-09-13T09:59:43Z</time>
      </trkpt>
      <trkpt lat="47.59814" lon="6.94443">
        <ele>366.7</ele>
        <time>2025-09-13T09:59:44Z</time>
      </trkpt>
      <trkpt lat="47.5981" lon="6.94457">
        <ele>366.6</ele>
        <time>2025-09-13T09:59:46Z</time>
      </trkpt>
      <trkpt lat="47.59806" lon="6.94472">
        <ele>366.6</ele>
        <time>2025-09-13T09:59:47Z</time>
      </trkpt>
      <trkpt lat="47.59801" lon="6.94487">
        <ele>366.4</ele>
        <time>2025-09-13T09:59:48Z</time>
      </trkpt>
      <trkpt lat="47.59797" lon="6.94501">
        <ele>366.3</ele>
        <time>2025-09-13T09:59:49Z</time>
      </trkpt>
      <trkpt lat="47.59792" lon="6.94515">
        <ele>366.2</ele>
        <time>2025-09-13T09:59:50Z</time>
      </trkpt>
      <trkpt lat="47.59788" lon="6.9453">
        <ele>366.1</ele>
        <time>2025-09-13T09:59:51Z</time>
      </trkpt>
      <trkpt lat="47.59784" lon="6.94542">
        <ele>366.1</ele>
        <time>2025-09-13T09:59:52Z</time>
      </trkpt>
      <trkpt lat="47.5978" lon="6.94558">
        <ele>365.9</ele>
        <time>2025-09-13T09:59:53Z</time>
      </trkpt>
      <trkpt lat="47.59776" lon="6.9457">
        <ele>365.9</ele>
        <time>2025-09-13T09:59:54Z</time>
      </trkpt>
      <trkpt lat="47.59771" lon="6.94584">
        <ele>365.8</ele>
        <time>2025-09-13T09:59:55Z</time>
      </trkpt>
      <trkpt lat="47.59767" lon="6.94597">
        <ele>365.7</ele>
        <time>2025-09-13T09:59:56Z</time>
      </trkpt>
      <trkpt lat="47.59764" lon="6.9461">
        <ele>365.6</ele>
        <time>2025-09-13T09:59:57Z</time>
      </trkpt>
      <trkpt lat="47.59759" lon="6.94625">
        <ele>365.5</ele>
        <time>2025-09-13T09:59:58Z</time>
      </trkpt>
      <trkpt lat="47.59755" lon="6.94638">
        <ele>365.5</ele>
        <time>2025-09-13T09:59:59Z</time>
      </trkpt>
      <trkpt lat="47.59752" lon="6.94652">
        <ele>365.4</ele>
        <time>2025-09-13T10:00:00Z</time>
      </trkpt>
      <trkpt lat="47.59747" lon="6.94666">
        <ele>365.2</ele>
        <time>2025-09-13T10:00:01Z</time>
      </trkpt>
      <trkpt lat="47.59743" lon="6.94678">
        <ele>365.1</ele>
        <time>2025-09-13T10:00:02Z</time>
      </trkpt>
      <trkpt lat="47.59739" lon="6.9469">
        <ele>364.9</ele>
        <time>2025-09-13T10:00:03Z</time>
      </trkpt>
      <trkpt lat="47.59734" lon="6.94703">
        <ele>364.6</ele>
        <time>2025-09-13T10:00:04Z</time>
      </trkpt>
      <trkpt lat="47.59729" lon="6.94716">
        <ele>364.4</ele>
        <time>2025-09-13T10:00:05Z</time>
      </trkpt>
      <trkpt lat="47.59725" lon="6.94729">
        <ele>364</ele>
        <time>2025-09-13T10:00:06Z</time>
      </trkpt>
      <trkpt lat="47.59721" lon="6.94742">
        <ele>363.6</ele>
        <time>2025-09-13T10:00:07Z</time>
      </trkpt>
      <trkpt lat="47.59716" lon="6.94755">
        <ele>363.2</ele>
        <time>2025-09-13T10:00:08Z</time>
      </trkpt>
      <trkpt lat="47.59712" lon="6.94769">
        <ele>362.7</ele>
        <time>2025-09-13T10:00:09Z</time>
      </trkpt>
      <trkpt lat="47.59707" lon="6.94783">
        <ele>362.1</ele>
        <time>2025-09-13T10:00:10Z</time>
      </trkpt>
      <trkpt lat="47.59701" lon="6.94797">
        <ele>361.6</ele>
        <time>2025-09-13T10:00:11Z</time>
      </trkpt>
      <trkpt lat="47.59697" lon="6.94813">
        <ele>361</ele>
        <time>2025-09-13T10:00:12Z</time>
      </trkpt>
      <trkpt lat="47.59692" lon="6.94826">
        <ele>360.4</ele>
        <time>2025-09-13T10:00:13Z</time>
      </trkpt>
      <trkpt lat="47.59685" lon="6.94842">
        <ele>359.6</ele>
        <time>2025-09-13T10:00:14Z</time>
      </trkpt>
      <trkpt lat="47.5968" lon="6.94856">
        <ele>359</ele>
        <time>2025-09-13T10:00:15Z</time>
      </trkpt>
      <trkpt lat="47.59675" lon="6.94872">
        <ele>358.3</ele>
        <time>2025-09-13T10:00:16Z</time>
      </trkpt>
      <trkpt lat="47.59669" lon="6.94887">
        <ele>357.5</ele>
        <time>2025-09-13T10:00:17Z</time>
      </trkpt>
      <trkpt lat="47.59661" lon="6.94899">
        <ele>356.8</ele>
        <time>2025-09-13T10:00:18Z</time>
      </trkpt>
      <trkpt lat="47.59649" lon="6.94931">
        <ele>355.4</ele>
        <time>2025-09-13T10:00:19Z</time>
      </trkpt>
      <trkpt lat="47.59641" lon="6.94945">
        <ele>354.6</ele>
        <time>2025-09-13T10:00:20Z</time>
      </trkpt>
      <trkpt lat="47.59633" lon="6.9496">
        <ele>353.8</ele>
        <time>2025-09-13T10:00:21Z</time>
      </trkpt>
      <trkpt lat="47.59625" lon="6.94975">
        <ele>353</ele>
        <time>2025-09-13T10:00:22Z</time>
      </trkpt>
      <trkpt lat="47.59616" lon="6.94987">
        <ele>352.4</ele>
        <time>2025-09-13T10:00:23Z</time>
      </trkpt>
      <trkpt lat="47.59607" lon="6.95">
        <ele>351.7</ele>
        <time>2025-09-13T10:00:24Z</time>
      </trkpt>
      <trkpt lat="47.59597" lon="6.95011">
        <ele>351</ele>
        <time>2025-09-13T10:00:25Z</time>
      </trkpt>
      <trkpt lat="47.59587" lon="6.95021">
        <ele>350.4</ele>
        <time>2025-09-13T10:00:26Z</time>
      </trkpt>
      <trkpt lat="47.59577" lon="6.95033">
        <ele>349.7</ele>
        <time>2025-09-13T10:00:27Z</time>
      </trkpt>
      <trkpt lat="47.59568" lon="6.95045">
        <ele>349.1</ele>
        <time>2025-09-13T10:00:28Z</time>
      </trkpt>
      <trkpt lat="47.59558" lon="6.95056">
        <ele>348.6</ele>
        <time>2025-09-13T10:00:29Z</time>
      </trkpt>
      <trkpt lat="47.59549" lon="6.95068">
        <ele>348.2</ele>
        <time>2025-09-13T10:00:30Z</time>
      </trkpt>
      <trkpt lat="47.59539" lon="6.9508">
        <ele>347.7</ele>
        <time>2025-09-13T10:00:31Z</time>
      </trkpt>
      <trkpt lat="47.59529" lon="6.9509">
        <ele>347.3</ele>
        <time>2025-09-13T10:00:32Z</time>
      </trkpt>
      <trkpt lat="47.59519" lon="6.95101">
        <ele>346.8</ele>
        <time>2025-09-13T10:00:33Z</time>
      </trkpt>
      <trkpt lat="47.59511" lon="6.95112">
        <ele>346.3</ele>
        <time>2025-09-13T10:00:34Z</time>
      </trkpt>
      <trkpt lat="47.59501" lon="6.95124">
        <ele>345.9</ele>
        <time>2025-09-13T10:00:35Z</time>
      </trkpt>
      <trkpt lat="47.59492" lon="6.95135">
        <ele>345.4</ele>
        <time>2025-09-13T10:00:36Z</time>
      </trkpt>
      <trkpt lat="47.59482" lon="6.95147">
        <ele>344.9</ele>
        <time>2025-09-13T10:00:37Z</time>
      </trkpt>
      <trkpt lat="47.59473" lon="6.95159">
        <ele>344.5</ele>
        <time>2025-09-13T10:00:38Z</time>
      </trkpt>
      <trkpt lat="47.59464" lon="6.95171">
        <ele>344.1</ele>
        <time>2025-09-13T10:00:39Z</time>
      </trkpt>
      <trkpt lat="47.59455" lon="6.95183">
        <ele>343.7</ele>
        <time>2025-09-13T10:00:40Z</time>
      </trkpt>
      <trkpt lat="47.59446" lon="6.95194">
        <ele>343.6</ele>
        <time>2025-09-13T10:00:41Z</time>
      </trkpt>
      <trkpt lat="47.59436" lon="6.95206">
        <ele>343.4</ele>
        <time>2025-09-13T10:00:42Z</time>
      </trkpt>
      <trkpt lat="47.59427" lon="6.95217">
        <ele>343.3</ele>
        <time>2025-09-13T10:00:43Z</time>
      </trkpt>
      <trkpt lat="47.59418" lon="6.95228">
        <ele>343.1</ele>
        <time>2025-09-13T10:00:44Z</time>
      </trkpt>
      <trkpt lat="47.59409" lon="6.95239">
        <ele>343</ele>
        <time>2025-09-13T10:00:45Z</time>
      </trkpt>
      <trkpt lat="47.59401" lon="6.9525">
        <ele>343</ele>
        <time>2025-09-13T10:00:46Z</time>
      </trkpt>
      <trkpt lat="47.59391" lon="6.9526">
        <ele>343</ele>
        <time>2025-09-13T10:00:47Z</time>
      </trkpt>
      <trkpt lat="47.59383" lon="6.9527">
        <ele>343</ele>
        <time>2025-09-13T10:00:48Z</time>
      </trkpt>
      <trkpt lat="47.59375" lon="6.9528">
        <ele>343.2</ele>
        <time>2025-09-13T10:00:49Z</time>
      </trkpt>
      <trkpt lat="47.59368" lon="6.95289">
        <ele>343.4</ele>
        <time>2025-09-13T10:00:50Z</time>
      </trkpt>
      <trkpt lat="47.5936" lon="6.953">
        <ele>343.8</ele>
        <time>2025-09-13T10:00:51Z</time>
      </trkpt>
      <trkpt lat="47.59353" lon="6.95309">
        <ele>344.1</ele>
        <time>2025-09-13T10:00:52Z</time>
      </trkpt>
      <trkpt lat="47.59345" lon="6.95318">
        <ele>344.5</ele>
        <time>2025-09-13T10:00:53Z</time>
      </trkpt>
      <trkpt lat="47.59338" lon="6.95327">
        <ele>344.9</ele>
        <time>2025-09-13T10:00:54Z</time>
      </trkpt>
      <trkpt lat="47.59332" lon="6.95335">
        <ele>345.3</ele>
        <time>2025-09-13T10:00:55Z</time>
      </trkpt>
      <trkpt lat="47.59326" lon="6.95343">
        <ele>345.6</ele>
        <time>2025-09-13T10:00:56Z</time>
      </trkpt>
      <trkpt lat="47.5932" lon="6.9535">
        <ele>345.8</ele>
        <time>2025-09-13T10:00:57Z</time>
      </trkpt>
      <trkpt lat="47.59315" lon="6.95356">
        <ele>346</ele>
        <time>2025-09-13T10:00:58Z</time>
      </trkpt>
      <trkpt lat="47.5931" lon="6.95363">
        <ele>346.1</ele>
        <time>2025-09-13T10:00:59Z</time>
      </trkpt>
      <trkpt lat="47.59304" lon="6.9537">
        <ele>346.4</ele>
        <time>2025-09-13T10:01:00Z</time>
      </trkpt>
      <trkpt lat="47.59298" lon="6.95377">
        <ele>346.7</ele>
        <time>2025-09-13T10:01:01Z</time>
      </trkpt>
      <trkpt lat="47.59293" lon="6.95384">
        <ele>347</ele>
        <time>2025-09-13T10:01:02Z</time>
      </trkpt>
      <trkpt lat="47.59289" lon="6.95389">
        <ele>347.2</ele>
        <time>2025-09-13T10:01:03Z</time>
      </trkpt>
      <trkpt lat="47.59284" lon="6.95396">
        <ele>347.6</ele>
        <time>2025-09-13T10:01:04Z</time>
      </trkpt>
      <trkpt lat="47.59279" lon="6.95403">
        <ele>347.9</ele>
        <time>2025-09-13T10:01:05Z</time>
      </trkpt>
      <trkpt lat="47.59273" lon="6.9541">
        <ele>348.2</ele>
        <time>2025-09-13T10:01:06Z</time>
      </trkpt>
      <trkpt lat="47.59268" lon="6.95415">
        <ele>348.5</ele>
        <time>2025-09-13T10:01:07Z</time>
      </trkpt>
      <trkpt lat="47.59263" lon="6.95422">
        <ele>348.8</ele>
        <time>2025-09-13T10:01:08Z</time>
      </trkpt>
      <trkpt lat="47.59258" lon="6.95428">
        <ele>349</ele>
        <time>2025-09-13T10:01:09Z</time>
      </trkpt>
      <trkpt lat="47.59253" lon="6.95434">
        <ele>349.2</ele>
        <time>2025-09-13T10:01:10Z</time>
      </trkpt>
      <trkpt lat="47.59248" lon="6.9544">
        <ele>349.4</ele>
        <time>2025-09-13T10:01:11Z</time>
      </trkpt>
      <trkpt lat="47.59243" lon="6.95446">
        <ele>349.5</ele>
        <time>2025-09-13T10:01:12Z</time>
      </trkpt>
      <trkpt lat="47.59238" lon="6.95452">
        <ele>349.6</ele>
        <time>2025-09-13T10:01:13Z</time>
      </trkpt>
      <trkpt lat="47.59232" lon="6.95459">
        <ele>349.7</ele>
        <time>2025-09-13T10:01:14Z</time>
      </trkpt>
      <trkpt lat="47.59227" lon="6.95466">
        <ele>349.8</ele>
        <time>2025-09-13T10:01:15Z</time>
      </trkpt>
      <trkpt lat="47.59223" lon="6.95472">
        <ele>349.7</ele>
        <time>2025-09-13T10:01:16Z</time>
      </trkpt>
      <trkpt lat="47.59217" lon="6.95479">
        <ele>349.7</ele>
        <time>2025-09-13T10:01:17Z</time>
      </trkpt>
      <trkpt lat="47.59211" lon="6.95486">
        <ele>349.6</ele>
        <time>2025-09-13T10:01:18Z</time>
      </trkpt>
      <trkpt lat="47.59205" lon="6.95493">
        <ele>349.5</ele>
        <time>2025-09-13T10:01:19Z</time>
      </trkpt>
      <trkpt lat="47.59199" lon="6.95502">
        <ele>349.3</ele>
        <time>2025-09-13T10:01:20Z</time>
      </trkpt>
      <trkpt lat="47.59193" lon="6.9551">
        <ele>349.1</ele>
        <time>2025-09-13T10:01:21Z</time>
      </trkpt>
      <trkpt lat="47.59188" lon="6.95519">
        <ele>348.9</ele>
        <time>2025-09-13T10:01:22Z</time>
      </trkpt>
      <trkpt lat="47.59183" lon="6.95527">
        <ele>348.7</ele>
        <time>2025-09-13T10:01:23Z</time>
      </trkpt>
      <trkpt lat="47.59178" lon="6.95537">
        <ele>348.5</ele>
        <time>2025-09-13T10:01:24Z</time>
      </trkpt>
      <trkpt lat="47.59173" lon="6.95549">
        <ele>348.2</ele>
        <time>2025-09-13T10:01:25Z</time>
      </trkpt>
      <trkpt lat="47.59169" lon="6.9556">
        <ele>348</ele>
        <time>2025-09-13T10:01:26Z</time>
      </trkpt>
      <trkpt lat="47.59166" lon="6.95572">
        <ele>347.8</ele>
        <time>2025-09-13T10:01:27Z</time>
      </trkpt>
      <trkpt lat="47.59162" lon="6.95585">
        <ele>347.6</ele>
        <time>2025-09-13T10:01:28Z</time>
      </trkpt>
      <trkpt lat="47.59159" lon="6.95598">
        <ele>347.4</ele>
        <time>2025-09-13T10:01:29Z</time>
      </trkpt>
      <trkpt lat="47.59155" lon="6.9561">
        <ele>347.1</ele>
        <time>2025-09-13T10:01:30Z</time>
      </trkpt>
      <trkpt lat="47.59152" lon="6.95623">
        <ele>346.8</ele>
        <time>2025-09-13T10:01:31Z</time>
      </trkpt>
      <trkpt lat="47.59148" lon="6.95637">
        <ele>346.4</ele>
        <time>2025-09-13T10:01:32Z</time>
      </trkpt>
      <trkpt lat="47.59143" lon="6.95652">
        <ele>346</ele>
        <time>2025-09-13T10:01:33Z</time>
      </trkpt>
      <trkpt lat="47.59139" lon="6.95666">
        <ele>345.6</ele>
        <time>2025-09-13T10:01:34Z</time>
      </trkpt>
      <trkpt lat="47.59135" lon="6.9568">
        <ele>345.2</ele>
        <time>2025-09-13T10:01:35Z</time>
      </trkpt>
      <trkpt lat="47.5913" lon="6.95694">
        <ele>344.8</ele>
        <time>2025-09-13T10:01:36Z</time>
      </trkpt>
      <trkpt lat="47.59125" lon="6.95709">
        <ele>344.5</ele>
        <time>2025-09-13T10:01:37Z</time>
      </trkpt>
      <trkpt lat="47.59121" lon="6.95722">
        <ele>344.2</ele>
        <time>2025-09-13T10:01:38Z</time>
      </trkpt>
      <trkpt lat="47.59117" lon="6.95738">
        <ele>343.9</ele>
        <time>2025-09-13T10:01:39Z</time>
      </trkpt>
      <trkpt lat="47.59113" lon="6.95752">
        <ele>343.7</ele>
        <time>2025-09-13T10:01:40Z</time>
      </trkpt>
      <trkpt lat="47.59109" lon="6.95765">
        <ele>343.6</ele>
        <time>2025-09-13T10:01:41Z</time>
      </trkpt>
      <trkpt lat="47.59105" lon="6.9578">
        <ele>343.4</ele>
        <time>2025-09-13T10:01:42Z</time>
      </trkpt>
      <trkpt lat="47.591" lon="6.95794">
        <ele>343.2</ele>
        <time>2025-09-13T10:01:43Z</time>
      </trkpt>
      <trkpt lat="47.59096" lon="6.95809">
        <ele>343.1</ele>
        <time>2025-09-13T10:01:44Z</time>
      </trkpt>
      <trkpt lat="47.59091" lon="6.95822">
        <ele>343</ele>
        <time>2025-09-13T10:01:45Z</time>
      </trkpt>
      <trkpt lat="47.59086" lon="6.95834">
        <ele>342.9</ele>
        <time>2025-09-13T10:01:46Z</time>
      </trkpt>
      <trkpt lat="47.5908" lon="6.95845">
        <ele>342.9</ele>
        <time>2025-09-13T10:01:47Z</time>
      </trkpt>
      <trkpt lat="47.59073" lon="6.95857">
        <ele>342.8</ele>
        <time>2025-09-13T10:01:48Z</time>
      </trkpt>
      <trkpt lat="47.59065" lon="6.95869">
        <ele>342.7</ele>
        <time>2025-09-13T10:01:49Z</time>
      </trkpt>
      <trkpt lat="47.59058" lon="6.95879">
        <ele>342.6</ele>
        <time>2025-09-13T10:01:50Z</time>
      </trkpt>
      <trkpt lat="47.59051" lon="6.95888">
        <ele>342.6</ele>
        <time>2025-09-13T10:01:51Z</time>
      </trkpt>
      <trkpt lat="47.59043" lon="6.95897">
        <ele>342.5</ele>
        <time>2025-09-13T10:01:52Z</time>
      </trkpt>
      <trkpt lat="47.59035" lon="6.95905">
        <ele>342.5</ele>
        <time>2025-09-13T10:01:53Z</time>
      </trkpt>
      <trkpt lat="47.59027" lon="6.95913">
        <ele>342.5</ele>
        <time>2025-09-13T10:01:54Z</time>
      </trkpt>
      <trkpt lat="47.59019" lon="6.9592">
        <ele>342.5</ele>
        <time>2025-09-13T10:01:55Z</time>
      </trkpt>
      <trkpt lat="47.5901" lon="6.95926">
        <ele>342.5</ele>
        <time>2025-09-13T10:01:56Z</time>
      </trkpt>
      <trkpt lat="47.59002" lon="6.95932">
        <ele>342.6</ele>
        <time>2025-09-13T10:01:57Z</time>
      </trkpt>
      <trkpt lat="47.58994" lon="6.95936">
        <ele>342.7</ele>
        <time>2025-09-13T10:01:58Z</time>
      </trkpt>
      <trkpt lat="47.58986" lon="6.95941">
        <ele>342.7</ele>
        <time>2025-09-13T10:01:59Z</time>
      </trkpt>
      <trkpt lat="47.58978" lon="6.95945">
        <ele>342.7</ele>
        <time>2025-09-13T10:02:00Z</time>
      </trkpt>
      <trkpt lat="47.5897" lon="6.9595">
        <ele>342.8</ele>
        <time>2025-09-13T10:02:01Z</time>
      </trkpt>
      <trkpt lat="47.58963" lon="6.95953">
        <ele>342.8</ele>
        <time>2025-09-13T10:02:02Z</time>
      </trkpt>
      <trkpt lat="47.58955" lon="6.95956">
        <ele>342.8</ele>
        <time>2025-09-13T10:02:03Z</time>
      </trkpt>
      <trkpt lat="47.58947" lon="6.95959">
        <ele>342.8</ele>
        <time>2025-09-13T10:02:05Z</time>
      </trkpt>
      <trkpt lat="47.58939" lon="6.95962">
        <ele>342.8</ele>
        <time>2025-09-13T10:02:06Z</time>
      </trkpt>
      <trkpt lat="47.58932" lon="6.95967">
        <ele>342.8</ele>
        <time>2025-09-13T10:02:07Z</time>
      </trkpt>
      <trkpt lat="47.58925" lon="6.9597">
        <ele>342.8</ele>
        <time>2025-09-13T10:02:08Z</time>
      </trkpt>
      <trkpt lat="47.58916" lon="6.95972">
        <ele>342.9</ele>
        <time>2025-09-13T10:02:09Z</time>
      </trkpt>
      <trkpt lat="47.58909" lon="6.95974">
        <ele>342.8</ele>
        <time>2025-09-13T10:02:10Z</time>
      </trkpt>
      <trkpt lat="47.58901" lon="6.95974">
        <ele>342.8</ele>
        <time>2025-09-13T10:02:11Z</time>
      </trkpt>
      <trkpt lat="47.58894" lon="6.95976">
        <ele>342.8</ele>
        <time>2025-09-13T10:02:12Z</time>
      </trkpt>
      <trkpt lat="47.58887" lon="6.95975">
        <ele>342.7</ele>
        <time>2025-09-13T10:02:13Z</time>
      </trkpt>
      <trkpt lat="47.5888" lon="6.95975">
        <ele>342.7</ele>
        <time>2025-09-13T10:02:14Z</time>
      </trkpt>
      <trkpt lat="47.58871" lon="6.95974">
        <ele>342.6</ele>
        <time>2025-09-13T10:02:15Z</time>
      </trkpt>
      <trkpt lat="47.58865" lon="6.95972">
        <ele>342.6</ele>
        <time>2025-09-13T10:02:16Z</time>
      </trkpt>
      <trkpt lat="47.58856" lon="6.9597">
        <ele>342.5</ele>
        <time>2025-09-13T10:02:17Z</time>
      </trkpt>
      <trkpt lat="47.58849" lon="6.95968">
        <ele>342.4</ele>
        <time>2025-09-13T10:02:18Z</time>
      </trkpt>
      <trkpt lat="47.58842" lon="6.95965">
        <ele>342.4</ele>
        <time>2025-09-13T10:02:19Z</time>
      </trkpt>
      <trkpt lat="47.58834" lon="6.95964">
        <ele>342.2</ele>
        <time>2025-09-13T10:02:20Z</time>
      </trkpt>
      <trkpt lat="47.58827" lon="6.95961">
        <ele>342.1</ele>
        <time>2025-09-13T10:02:21Z</time>
      </trkpt>
      <trkpt lat="47.58819" lon="6.9596">
        <ele>342</ele>
        <time>2025-09-13T10:02:22Z</time>
      </trkpt>
      <trkpt lat="47.58811" lon="6.95957">
        <ele>341.8</ele>
        <time>2025-09-13T10:02:23Z</time>
      </trkpt>
      <trkpt lat="47.58804" lon="6.95955">
        <ele>341.7</ele>
        <time>2025-09-13T10:02:24Z</time>
      </trkpt>
      <trkpt lat="47.58795" lon="6.95953">
        <ele>341.5</ele>
        <time>2025-09-13T10:02:25Z</time>
      </trkpt>
      <trkpt lat="47.58788" lon="6.95951">
        <ele>341.3</ele>
        <time>2025-09-13T10:02:26Z</time>
      </trkpt>
      <trkpt lat="47.58778" lon="6.9595">
        <ele>341.1</ele>
        <time>2025-09-13T10:02:27Z</time>
      </trkpt>
      <trkpt lat="47.58771" lon="6.95947">
        <ele>340.9</ele>
        <time>2025-09-13T10:02:28Z</time>
      </trkpt>
      <trkpt lat="47.58762" lon="6.95945">
        <ele>340.7</ele>
        <time>2025-09-13T10:02:29Z</time>
      </trkpt>
      <trkpt lat="47.58753" lon="6.95942">
        <ele>340.5</ele>
        <time>2025-09-13T10:02:30Z</time>
      </trkpt>
      <trkpt lat="47.58745" lon="6.95941">
        <ele>340.4</ele>
        <time>2025-09-13T10:02:31Z</time>
      </trkpt>
      <trkpt lat="47.58737" lon="6.95939">
        <ele>340.2</ele>
        <time>2025-09-13T10:02:32Z</time>
      </trkpt>
      <trkpt lat="47.58729" lon="6.95937">
        <ele>340</ele>
        <time>2025-09-13T10:02:33Z</time>
      </trkpt>
      <trkpt lat="47.5872" lon="6.95937">
        <ele>339.7</ele>
        <time>2025-09-13T10:02:34Z</time>
      </trkpt>
      <trkpt lat="47.58713" lon="6.95937">
        <ele>339.5</ele>
        <time>2025-09-13T10:02:35Z</time>
      </trkpt>
      <trkpt lat="47.58705" lon="6.95938">
        <ele>339.3</ele>
        <time>2025-09-13T10:02:36Z</time>
      </trkpt>
      <trkpt lat="47.58696" lon="6.95939">
        <ele>339</ele>
        <time>2025-09-13T10:02:37Z</time>
      </trkpt>
      <trkpt lat="47.58687" lon="6.9594">
        <ele>338.7</ele>
        <time>2025-09-13T10:02:38Z</time>
      </trkpt>
      <trkpt lat="47.58679" lon="6.95941">
        <ele>338.4</ele>
        <time>2025-09-13T10:02:39Z</time>
      </trkpt>
      <trkpt lat="47.5867" lon="6.95944">
        <ele>338.1</ele>
        <time>2025-09-13T10:02:40Z</time>
      </trkpt>
      <trkpt lat="47.58662" lon="6.95947">
        <ele>337.8</ele>
        <time>2025-09-13T10:02:41Z</time>
      </trkpt>
      <trkpt lat="47.58645" lon="6.95953">
        <ele>337.4</ele>
        <time>2025-09-13T10:02:42Z</time>
      </trkpt>
      <trkpt lat="47.58636" lon="6.95959">
        <ele>337.2</ele>
        <time>2025-09-13T10:02:43Z</time>
      </trkpt>
      <trkpt lat="47.5863" lon="6.95963">
        <ele>337.2</ele>
        <time>2025-09-13T10:02:44Z</time>
      </trkpt>
      <trkpt lat="47.58621" lon="6.9597">
        <ele>337.2</ele>
        <time>2025-09-13T10:02:45Z</time>
      </trkpt>
      <trkpt lat="47.58614" lon="6.95976">
        <ele>337.2</ele>
        <time>2025-09-13T10:02:46Z</time>
      </trkpt>
      <trkpt lat="47.58607" lon="6.9598">
        <ele>337.2</ele>
        <time>2025-09-13T10:02:47Z</time>
      </trkpt>
      <trkpt lat="47.58603" lon="6.95982">
        <ele>337.2</ele>
        <time>2025-09-13T10:02:48Z</time>
      </trkpt>
      <trkpt lat="47.58601" lon="6.95984">
        <ele>337.1</ele>
        <time>2025-09-13T10:02:49Z</time>
      </trkpt>
      <trkpt lat="47.586" lon="6.95984">
        <ele>337.1</ele>
        <time>2025-09-13T10:02:50Z</time>
      </trkpt>
      <trkpt lat="47.58596" lon="6.95988">
        <ele>337.1</ele>
        <time>2025-09-13T10:02:51Z</time>
      </trkpt>
      <trkpt lat="47.58594" lon="6.9599">
        <ele>337.1</ele>
        <time>2025-09-13T10:02:52Z</time>
      </trkpt>
      <trkpt lat="47.58591" lon="6.95996">
        <ele>337.1</ele>
        <time>2025-09-13T10:02:53Z</time>
      </trkpt>
      <trkpt lat="47.58589" lon="6.96002">
        <ele>337.1</ele>
        <time>2025-09-13T10:02:54Z</time>
      </trkpt>
      <trkpt lat="47.58585" lon="6.96009">
        <ele>337.1</ele>
        <time>2025-09-13T10:02:55Z</time>
      </trkpt>
      <trkpt lat="47.58581" lon="6.96015">
        <ele>337.1</ele>
        <time>2025-09-13T10:02:56Z</time>
      </trkpt>
      <trkpt lat="47.58577" lon="6.96021">
        <ele>337.1</ele>
        <time>2025-09-13T10:02:57Z</time>
      </trkpt>
      <trkpt lat="47.58573" lon="6.96028">
        <ele>337.1</ele>
        <time>2025-09-13T10:02:58Z</time>
      </trkpt>
      <trkpt lat="47.58567" lon="6.96036">
        <ele>337</ele>
        <time>2025-09-13T10:02:59Z</time>
      </trkpt>
      <trkpt lat="47.58562" lon="6.96045">
        <ele>337</ele>
        <time>2025-09-13T10:03:00Z</time>
      </trkpt>
      <trkpt lat="47.58558" lon="6.96056">
        <ele>337</ele>
        <time>2025-09-13T10:03:01Z</time>
      </trkpt>
      <trkpt lat="47.58552" lon="6.96065">
        <ele>336.9</ele>
        <time>2025-09-13T10:03:02Z</time>
      </trkpt>
      <trkpt lat="47.58547" lon="6.96071">
        <ele>336.9</ele>
        <time>2025-09-13T10:03:03Z</time>
      </trkpt>
      <trkpt lat="47.58541" lon="6.9608">
        <ele>336.9</ele>
        <time>2025-09-13T10:03:04Z</time>
      </trkpt>
      <trkpt lat="47.58536" lon="6.96089">
        <ele>336.9</ele>
        <time>2025-09-13T10:03:05Z</time>
      </trkpt>
      <trkpt lat="47.58531" lon="6.96096">
        <ele>336.9</ele>
        <time>2025-09-13T10:03:06Z</time>
      </trkpt>
      <trkpt lat="47.58526" lon="6.96105">
        <ele>336.9</ele>
        <time>2025-09-13T10:03:07Z</time>
      </trkpt>
      <trkpt lat="47.5852" lon="6.96114">
        <ele>336.9</ele>
        <time>2025-09-13T10:03:08Z</time>
      </trkpt>
      <trkpt lat="47.58514" lon="6.96123">
        <ele>336.9</ele>
        <time>2025-09-13T10:03:09Z</time>
      </trkpt>
      <trkpt lat="47.58509" lon="6.96132">
        <ele>336.9</ele>
        <time>2025-09-13T10:03:10Z</time>
      </trkpt>
      <trkpt lat="47.58503" lon="6.96141">
        <ele>336.9</ele>
        <time>2025-09-13T10:03:11Z</time>
      </trkpt>
      <trkpt lat="47.58497" lon="6.96151">
        <ele>336.8</ele>
        <time>2025-09-13T10:03:12Z</time>
      </trkpt>
      <trkpt lat="47.58492" lon="6.96159">
        <ele>336.8</ele>
        <time>2025-09-13T10:03:13Z</time>
      </trkpt>
      <trkpt lat="47.58486" lon="6.96169">
        <ele>336.8</ele>
        <time>2025-09-13T10:03:14Z</time>
      </trkpt>
      <trkpt lat="47.58481" lon="6.96178">
        <ele>336.7</ele>
        <time>2025-09-13T10:03:15Z</time>
      </trkpt>
      <trkpt lat="47.58475" lon="6.96186">
        <ele>336.7</ele>
        <time>2025-09-13T10:03:16Z</time>
      </trkpt>
      <trkpt lat="47.5847" lon="6.96195">
        <ele>336.7</ele>
        <time>2025-09-13T10:03:17Z</time>
      </trkpt>
      <trkpt lat="47.58464" lon="6.96205">
        <ele>336.8</ele>
        <time>2025-09-13T10:03:18Z</time>
      </trkpt>
      <trkpt lat="47.58459" lon="6.96213">
        <ele>336.8</ele>
        <time>2025-09-13T10:03:19Z</time>
      </trkpt>
      <trkpt lat="47.58453" lon="6.96222">
        <ele>336.8</ele>
        <time>2025-09-13T10:03:20Z</time>
      </trkpt>
      <trkpt lat="47.58448" lon="6.96232">
        <ele>336.8</ele>
        <time>2025-09-13T10:03:21Z</time>
      </trkpt>
      <trkpt lat="47.58443" lon="6.96241">
        <ele>336.8</ele>
        <time>2025-09-13T10:03:22Z</time>
      </trkpt>
      <trkpt lat="47.58437" lon="6.96249">
        <ele>336.7</ele>
        <time>2025-09-13T10:03:23Z</time>
      </trkpt>
      <trkpt lat="47.58432" lon="6.96258">
        <ele>336.7</ele>
        <time>2025-09-13T10:03:24Z</time>
      </trkpt>
      <trkpt lat="47.58426" lon="6.96266">
        <ele>336.7</ele>
        <time>2025-09-13T10:03:25Z</time>
      </trkpt>
      <trkpt lat="47.5842" lon="6.96275">
        <ele>336.7</ele>
        <time>2025-09-13T10:03:26Z</time>
      </trkpt>
      <trkpt lat="47.58415" lon="6.96285">
        <ele>336.7</ele>
        <time>2025-09-13T10:03:27Z</time>
      </trkpt>
      <trkpt lat="47.58409" lon="6.96293">
        <ele>336.7</ele>
        <time>2025-09-13T10:03:28Z</time>
      </trkpt>
      <trkpt lat="47.58404" lon="6.96302">
        <ele>336.6</ele>
        <time>2025-09-13T10:03:29Z</time>
      </trkpt>
      <trkpt lat="47.58399" lon="6.96311">
        <ele>336.6</ele>
        <time>2025-09-13T10:03:30Z</time>
      </trkpt>
      <trkpt lat="47.58394" lon="6.9632">
        <ele>336.7</ele>
        <time>2025-09-13T10:03:31Z</time>
      </trkpt>
      <trkpt lat="47.58389" lon="6.96329">
        <ele>336.7</ele>
        <time>2025-09-13T10:03:32Z</time>
      </trkpt>
      <trkpt lat="47.58384" lon="6.96337">
        <ele>336.7</ele>
        <time>2025-09-13T10:03:33Z</time>
      </trkpt>
      <trkpt lat="47.58378" lon="6.96347">
        <ele>336.8</ele>
        <time>2025-09-13T10:03:34Z</time>
      </trkpt>
      <trkpt lat="47.58373" lon="6.96356">
        <ele>336.8</ele>
        <time>2025-09-13T10:03:35Z</time>
      </trkpt>
      <trkpt lat="47.58367" lon="6.96365">
        <ele>336.8</ele>
        <time>2025-09-13T10:03:36Z</time>
      </trkpt>
      <trkpt lat="47.58363" lon="6.96373">
        <ele>336.8</ele>
        <time>2025-09-13T10:03:37Z</time>
      </trkpt>
      <trkpt lat="47.58357" lon="6.96383">
        <ele>336.8</ele>
        <time>2025-09-13T10:03:38Z</time>
      </trkpt>
      <trkpt lat="47.58352" lon="6.96391">
        <ele>336.8</ele>
        <time>2025-09-13T10:03:39Z</time>
      </trkpt>
      <trkpt lat="47.58346" lon="6.96399">
        <ele>336.8</ele>
        <time>2025-09-13T10:03:40Z</time>
      </trkpt>
      <trkpt lat="47.58341" lon="6.96408">
        <ele>336.8</ele>
        <time>2025-09-13T10:03:41Z</time>
      </trkpt>
      <trkpt lat="47.58335" lon="6.96418">
        <ele>336.9</ele>
        <time>2025-09-13T10:03:42Z</time>
      </trkpt>
      <trkpt lat="47.5833" lon="6.96428">
        <ele>337</ele>
        <time>2025-09-13T10:03:43Z</time>
      </trkpt>
      <trkpt lat="47.58325" lon="6.96437">
        <ele>337.1</ele>
        <time>2025-09-13T10:03:44Z</time>
      </trkpt>
      <trkpt lat="47.5832" lon="6.96444">
        <ele>337.1</ele>
        <time>2025-09-13T10:03:45Z</time>
      </trkpt>
      <trkpt lat="47.58315" lon="6.96453">
        <ele>337.2</ele>
        <time>2025-09-13T10:03:46Z</time>
      </trkpt>
      <trkpt lat="47.5831" lon="6.96461">
        <ele>337.2</ele>
        <time>2025-09-13T10:03:47Z</time>
      </trkpt>
      <trkpt lat="47.58305" lon="6.9647">
        <ele>337.2</ele>
        <time>2025-09-13T10:03:48Z</time>
      </trkpt>
      <trkpt lat="47.58299" lon="6.96478">
        <ele>337.3</ele>
        <time>2025-09-13T10:03:49Z</time>
      </trkpt>
      <trkpt lat="47.58294" lon="6.96487">
        <ele>337.3</ele>
        <time>2025-09-13T10:03:50Z</time>
      </trkpt>
      <trkpt lat="47.58288" lon="6.96496">
        <ele>337.3</ele>
        <time>2025-09-13T10:03:51Z</time>
      </trkpt>
      <trkpt lat="47.58284" lon="6.96504">
        <ele>337.4</ele>
        <time>2025-09-13T10:03:52Z</time>
      </trkpt>
      <trkpt lat="47.58279" lon="6.96512">
        <ele>337.5</ele>
        <time>2025-09-13T10:03:53Z</time>
      </trkpt>
      <trkpt lat="47.58273" lon="6.96522">
        <ele>337.7</ele>
        <time>2025-09-13T10:03:54Z</time>
      </trkpt>
      <trkpt lat="47.58268" lon="6.96529">
        <ele>337.8</ele>
        <time>2025-09-13T10:03:55Z</time>
      </trkpt>
      <trkpt lat="47.58263" lon="6.96537">
        <ele>338</ele>
        <time>2025-09-13T10:03:56Z</time>
      </trkpt>
      <trkpt lat="47.58258" lon="6.96544">
        <ele>338.2</ele>
        <time>2025-09-13T10:03:58Z</time>
      </trkpt>
      <trkpt lat="47.58254" lon="6.96551">
        <ele>338.4</ele>
        <time>2025-09-13T10:03:59Z</time>
      </trkpt>
      <trkpt lat="47.58249" lon="6.96557">
        <ele>338.5</ele>
        <time>2025-09-13T10:04:00Z</time>
      </trkpt>
      <trkpt lat="47.58245" lon="6.96564">
        <ele>338.7</ele>
        <time>2025-09-13T10:04:01Z</time>
      </trkpt>
      <trkpt lat="47.58241" lon="6.96571">
        <ele>338.8</ele>
        <time>2025-09-13T10:04:02Z</time>
      </trkpt>
      <trkpt lat="47.58236" lon="6.96578">
        <ele>339</ele>
        <time>2025-09-13T10:04:03Z</time>
      </trkpt>
      <trkpt lat="47.58233" lon="6.96584">
        <ele>339.2</ele>
        <time>2025-09-13T10:04:04Z</time>
      </trkpt>
      <trkpt lat="47.58229" lon="6.9659">
        <ele>339.2</ele>
        <time>2025-09-13T10:04:05Z</time>
      </trkpt>
      <trkpt lat="47.58225" lon="6.96597">
        <ele>339.3</ele>
        <time>2025-09-13T10:04:06Z</time>
      </trkpt>
      <trkpt lat="47.58221" lon="6.96603">
        <ele>339.4</ele>
        <time>2025-09-13T10:04:07Z</time>
      </trkpt>
      <trkpt lat="47.58217" lon="6.9661">
        <ele>339.3</ele>
        <time>2025-09-13T10:04:08Z</time>
      </trkpt>
      <trkpt lat="47.58213" lon="6.96616">
        <ele>339.2</ele>
        <time>2025-09-13T10:04:09Z</time>
      </trkpt>
      <trkpt lat="47.58209" lon="6.96622">
        <ele>339.2</ele>
        <time>2025-09-13T10:04:10Z</time>
      </trkpt>
      <trkpt lat="47.58205" lon="6.96631">
        <ele>339.1</ele>
        <time>2025-09-13T10:04:11Z</time>
      </trkpt>
      <trkpt lat="47.582" lon="6.9664">
        <ele>339</ele>
        <time>2025-09-13T10:04:12Z</time>
      </trkpt>
      <trkpt lat="47.58197" lon="6.96649">
        <ele>338.9</ele>
        <time>2025-09-13T10:04:13Z</time>
      </trkpt>
      <trkpt lat="47.58194" lon="6.96661">
        <ele>338.8</ele>
        <time>2025-09-13T10:04:14Z</time>
      </trkpt>
      <trkpt lat="47.58192" lon="6.96672">
        <ele>338.7</ele>
        <time>2025-09-13T10:04:15Z</time>
      </trkpt>
      <trkpt lat="47.58191" lon="6.96685">
        <ele>338.6</ele>
        <time>2025-09-13T10:04:16Z</time>
      </trkpt>
      <trkpt lat="47.58192" lon="6.96697">
        <ele>338.5</ele>
        <time>2025-09-13T10:04:17Z</time>
      </trkpt>
      <trkpt lat="47.58194" lon="6.96708">
        <ele>338.3</ele>
        <time>2025-09-13T10:04:18Z</time>
      </trkpt>
      <trkpt lat="47.58196" lon="6.9672">
        <ele>338.1</ele>
        <time>2025-09-13T10:04:19Z</time>
      </trkpt>
      <trkpt lat="47.58198" lon="6.96733">
        <ele>337.9</ele>
        <time>2025-09-13T10:04:20Z</time>
      </trkpt>
      <trkpt lat="47.582" lon="6.96748">
        <ele>337.7</ele>
        <time>2025-09-13T10:04:21Z</time>
      </trkpt>
      <trkpt lat="47.58198" lon="6.96772">
        <ele>337.4</ele>
        <time>2025-09-13T10:04:22Z</time>
      </trkpt>
      <trkpt lat="47.58195" lon="6.96785">
        <ele>337.2</ele>
        <time>2025-09-13T10:04:23Z</time>
      </trkpt>
      <trkpt lat="47.5819" lon="6.96798">
        <ele>337.2</ele>
        <time>2025-09-13T10:04:24Z</time>
      </trkpt>
      <trkpt lat="47.58185" lon="6.96808">
        <ele>337.1</ele>
        <time>2025-09-13T10:04:25Z</time>
      </trkpt>
      <trkpt lat="47.58179" lon="6.96817">
        <ele>337.1</ele>
        <time>2025-09-13T10:04:26Z</time>
      </trkpt>
      <trkpt lat="47.58174" lon="6.96826">
        <ele>337.1</ele>
        <time>2025-09-13T10:04:27Z</time>
      </trkpt>
      <trkpt lat="47.58168" lon="6.96836">
        <ele>337.1</ele>
        <time>2025-09-13T10:04:28Z</time>
      </trkpt>
      <trkpt lat="47.58162" lon="6.96845">
        <ele>337.1</ele>
        <time>2025-09-13T10:04:29Z</time>
      </trkpt>
      <trkpt lat="47.58156" lon="6.96855">
        <ele>337.2</ele>
        <time>2025-09-13T10:04:30Z</time>
      </trkpt>
      <trkpt lat="47.58151" lon="6.96864">
        <ele>337.2</ele>
        <time>2025-09-13T10:04:31Z</time>
      </trkpt>
      <trkpt lat="47.58146" lon="6.96871">
        <ele>337.3</ele>
        <time>2025-09-13T10:04:32Z</time>
      </trkpt>
      <trkpt lat="47.58139" lon="6.9688">
        <ele>337.3</ele>
        <time>2025-09-13T10:04:33Z</time>
      </trkpt>
      <trkpt lat="47.58133" lon="6.96887">
        <ele>337.4</ele>
        <time>2025-09-13T10:04:34Z</time>
      </trkpt>
      <trkpt lat="47.58127" lon="6.96894">
        <ele>337.5</ele>
        <time>2025-09-13T10:04:35Z</time>
      </trkpt>
      <trkpt lat="47.58121" lon="6.969">
        <ele>337.6</ele>
        <time>2025-09-13T10:04:36Z</time>
      </trkpt>
      <trkpt lat="47.58114" lon="6.96906">
        <ele>337.6</ele>
        <time>2025-09-13T10:04:37Z</time>
      </trkpt>
      <trkpt lat="47.58107" lon="6.96912">
        <ele>337.7</ele>
        <time>2025-09-13T10:04:38Z</time>
      </trkpt>
      <trkpt lat="47.581" lon="6.96918">
        <ele>337.7</ele>
        <time>2025-09-13T10:04:39Z</time>
      </trkpt>
      <trkpt lat="47.58094" lon="6.96923">
        <ele>337.7</ele>
        <time>2025-09-13T10:04:40Z</time>
      </trkpt>
      <trkpt lat="47.58087" lon="6.96928">
        <ele>337.7</ele>
        <time>2025-09-13T10:04:41Z</time>
      </trkpt>
      <trkpt lat="47.5808" lon="6.96933">
        <ele>337.8</ele>
        <time>2025-09-13T10:04:42Z</time>
      </trkpt>
      <trkpt lat="47.58073" lon="6.96937">
        <ele>337.8</ele>
        <time>2025-09-13T10:04:43Z</time>
      </trkpt>
      <trkpt lat="47.58066" lon="6.96941">
        <ele>337.8</ele>
        <time>2025-09-13T10:04:44Z</time>
      </trkpt>
      <trkpt lat="47.58059" lon="6.96945">
        <ele>337.9</ele>
        <time>2025-09-13T10:04:45Z</time>
      </trkpt>
      <trkpt lat="47.58052" lon="6.96949">
        <ele>337.9</ele>
        <time>2025-09-13T10:04:46Z</time>
      </trkpt>
      <trkpt lat="47.58045" lon="6.96952">
        <ele>337.9</ele>
        <time>2025-09-13T10:04:47Z</time>
      </trkpt>
      <trkpt lat="47.58038" lon="6.96956">
        <ele>337.9</ele>
        <time>2025-09-13T10:04:48Z</time>
      </trkpt>
      <trkpt lat="47.58032" lon="6.9696">
        <ele>337.9</ele>
        <time>2025-09-13T10:04:49Z</time>
      </trkpt>
      <trkpt lat="47.58024" lon="6.96964">
        <ele>337.9</ele>
        <time>2025-09-13T10:04:50Z</time>
      </trkpt>
      <trkpt lat="47.58017" lon="6.96968">
        <ele>337.9</ele>
        <time>2025-09-13T10:04:51Z</time>
      </trkpt>
      <trkpt lat="47.5801" lon="6.96971">
        <ele>337.9</ele>
        <time>2025-09-13T10:04:52Z</time>
      </trkpt>
      <trkpt lat="47.58003" lon="6.96974">
        <ele>337.9</ele>
        <time>2025-09-13T10:04:53Z</time>
      </trkpt>
      <trkpt lat="47.57995" lon="6.96977">
        <ele>337.9</ele>
        <time>2025-09-13T10:04:54Z</time>
      </trkpt>
      <trkpt lat="47.57988" lon="6.96979">
        <ele>337.9</ele>
        <time>2025-09-13T10:04:55Z</time>
      </trkpt>
      <trkpt lat="47.57981" lon="6.96981">
        <ele>337.9</ele>
        <time>2025-09-13T10:04:56Z</time>
      </trkpt>
      <trkpt lat="47.57973" lon="6.96982">
        <ele>337.9</ele>
        <time>2025-09-13T10:04:57Z</time>
      </trkpt>
      <trkpt lat="47.57966" lon="6.96984">
        <ele>337.9</ele>
        <time>2025-09-13T10:04:58Z</time>
      </trkpt>
      <trkpt lat="47.57959" lon="6.96986">
        <ele>337.9</ele>
        <time>2025-09-13T10:04:59Z</time>
      </trkpt>
      <trkpt lat="47.57952" lon="6.96989">
        <ele>338</ele>
        <time>2025-09-13T10:05:00Z</time>
      </trkpt>
      <trkpt lat="47.57945" lon="6.96992">
        <ele>338</ele>
        <time>2025-09-13T10:05:01Z</time>
      </trkpt>
      <trkpt lat="47.57938" lon="6.96997">
        <ele>338</ele>
        <time>2025-09-13T10:05:02Z</time>
      </trkpt>
      <trkpt lat="47.57933" lon="6.97002">
        <ele>338.1</ele>
        <time>2025-09-13T10:05:03Z</time>
      </trkpt>
      <trkpt lat="47.57927" lon="6.97008">
        <ele>338.1</ele>
        <time>2025-09-13T10:05:04Z</time>
      </trkpt>
      <trkpt lat="47.57923" lon="6.97013">
        <ele>338.2</ele>
        <time>2025-09-13T10:05:05Z</time>
      </trkpt>
      <trkpt lat="47.57919" lon="6.97019">
        <ele>338.2</ele>
        <time>2025-09-13T10:05:06Z</time>
      </trkpt>
      <trkpt lat="47.57917" lon="6.97023">
        <ele>338.3</ele>
        <time>2025-09-13T10:05:07Z</time>
      </trkpt>
      <trkpt lat="47.57914" lon="6.97027">
        <ele>338.3</ele>
        <time>2025-09-13T10:05:08Z</time>
      </trkpt>
      <trkpt lat="47.57912" lon="6.97032">
        <ele>338.4</ele>
        <time>2025-09-13T10:05:09Z</time>
      </trkpt>
      <trkpt lat="47.5791" lon="6.97039">
        <ele>338.4</ele>
        <time>2025-09-13T10:05:10Z</time>
      </trkpt>
      <trkpt lat="47.57909" lon="6.97043">
        <ele>338.4</ele>
        <time>2025-09-13T10:05:11Z</time>
      </trkpt>
      <trkpt lat="47.57907" lon="6.97054">
        <ele>338.4</ele>
        <time>2025-09-13T10:05:12Z</time>
      </trkpt>
      <trkpt lat="47.57906" lon="6.97063">
        <ele>338.4</ele>
        <time>2025-09-13T10:05:13Z</time>
      </trkpt>
      <trkpt lat="47.57906" lon="6.97073">
        <ele>338.4</ele>
        <time>2025-09-13T10:05:14Z</time>
      </trkpt>
      <trkpt lat="47.57905" lon="6.97083">
        <ele>338.5</ele>
        <time>2025-09-13T10:05:15Z</time>
      </trkpt>
      <trkpt lat="47.57905" lon="6.97093">
        <ele>338.5</ele>
        <time>2025-09-13T10:05:16Z</time>
      </trkpt>
      <trkpt lat="47.57905" lon="6.97105">
        <ele>338.5</ele>
        <time>2025-09-13T10:05:17Z</time>
      </trkpt>
      <trkpt lat="47.57904" lon="6.97115">
        <ele>338.5</ele>
        <time>2025-09-13T10:05:18Z</time>
      </trkpt>
      <trkpt lat="47.57904" lon="6.97125">
        <ele>338.6</ele>
        <time>2025-09-13T10:05:19Z</time>
      </trkpt>
      <trkpt lat="47.57903" lon="6.97136">
        <ele>338.6</ele>
        <time>2025-09-13T10:05:20Z</time>
      </trkpt>
      <trkpt lat="47.57903" lon="6.97148">
        <ele>338.6</ele>
        <time>2025-09-13T10:05:21Z</time>
      </trkpt>
      <trkpt lat="47.57904" lon="6.97159">
        <ele>338.6</ele>
        <time>2025-09-13T10:05:22Z</time>
      </trkpt>
      <trkpt lat="47.57905" lon="6.9717">
        <ele>338.6</ele>
        <time>2025-09-13T10:05:23Z</time>
      </trkpt>
      <trkpt lat="47.57906" lon="6.97181">
        <ele>338.6</ele>
        <time>2025-09-13T10:05:24Z</time>
      </trkpt>
      <trkpt lat="47.57907" lon="6.97192">
        <ele>338.7</ele>
        <time>2025-09-13T10:05:25Z</time>
      </trkpt>
      <trkpt lat="47.57909" lon="6.97202">
        <ele>338.7</ele>
        <time>2025-09-13T10:05:26Z</time>
      </trkpt>
      <trkpt lat="47.57911" lon="6.97212">
        <ele>338.7</ele>
        <time>2025-09-13T10:05:27Z</time>
      </trkpt>
      <trkpt lat="47.57914" lon="6.97221">
        <ele>338.8</ele>
        <time>2025-09-13T10:05:28Z</time>
      </trkpt>
      <trkpt lat="47.57917" lon="6.9723">
        <ele>338.8</ele>
        <time>2025-09-13T10:05:29Z</time>
      </trkpt>
      <trkpt lat="47.57921" lon="6.9724">
        <ele>338.8</ele>
        <time>2025-09-13T10:05:30Z</time>
      </trkpt>
      <trkpt lat="47.57924" lon="6.97249">
        <ele>338.7</ele>
        <time>2025-09-13T10:05:31Z</time>
      </trkpt>
      <trkpt lat="47.57927" lon="6.97259">
        <ele>338.7</ele>
        <time>2025-09-13T10:05:32Z</time>
      </trkpt>
      <trkpt lat="47.5793" lon="6.9727">
        <ele>338.6</ele>
        <time>2025-09-13T10:05:33Z</time>
      </trkpt>
      <trkpt lat="47.57934" lon="6.9728">
        <ele>338.6</ele>
        <time>2025-09-13T10:05:34Z</time>
      </trkpt>
      <trkpt lat="47.57938" lon="6.97291">
        <ele>338.6</ele>
        <time>2025-09-13T10:05:35Z</time>
      </trkpt>
      <trkpt lat="47.57941" lon="6.97302">
        <ele>338.6</ele>
        <time>2025-09-13T10:05:36Z</time>
      </trkpt>
      <trkpt lat="47.57943" lon="6.97314">
        <ele>338.6</ele>
        <time>2025-09-13T10:05:37Z</time>
      </trkpt>
      <trkpt lat="47.57945" lon="6.97326">
        <ele>338.6</ele>
        <time>2025-09-13T10:05:38Z</time>
      </trkpt>
      <trkpt lat="47.57945" lon="6.97338">
        <ele>338.6</ele>
        <time>2025-09-13T10:05:39Z</time>
      </trkpt>
      <trkpt lat="47.57944" lon="6.9735">
        <ele>338.7</ele>
        <time>2025-09-13T10:05:40Z</time>
      </trkpt>
      <trkpt lat="47.57942" lon="6.97362">
        <ele>338.7</ele>
        <time>2025-09-13T10:05:41Z</time>
      </trkpt>
      <trkpt lat="47.5794" lon="6.97373">
        <ele>338.8</ele>
        <time>2025-09-13T10:05:42Z</time>
      </trkpt>
      <trkpt lat="47.57937" lon="6.97384">
        <ele>338.9</ele>
        <time>2025-09-13T10:05:43Z</time>
      </trkpt>
      <trkpt lat="47.57933" lon="6.97395">
        <ele>339</ele>
        <time>2025-09-13T10:05:44Z</time>
      </trkpt>
      <trkpt lat="47.57927" lon="6.97405">
        <ele>339.2</ele>
        <time>2025-09-13T10:05:45Z</time>
      </trkpt>
      <trkpt lat="47.57922" lon="6.97412">
        <ele>339.3</ele>
        <time>2025-09-13T10:05:46Z</time>
      </trkpt>
      <trkpt lat="47.57917" lon="6.97419">
        <ele>339.5</ele>
        <time>2025-09-13T10:05:47Z</time>
      </trkpt>
      <trkpt lat="47.57912" lon="6.97428">
        <ele>339.7</ele>
        <time>2025-09-13T10:05:48Z</time>
      </trkpt>
      <trkpt lat="47.57907" lon="6.97436">
        <ele>340</ele>
        <time>2025-09-13T10:05:49Z</time>
      </trkpt>
      <trkpt lat="47.57903" lon="6.97443">
        <ele>340.2</ele>
        <time>2025-09-13T10:05:50Z</time>
      </trkpt>
      <trkpt lat="47.57898" lon="6.97451">
        <ele>340.4</ele>
        <time>2025-09-13T10:05:51Z</time>
      </trkpt>
      <trkpt lat="47.57893" lon="6.97458">
        <ele>340.5</ele>
        <time>2025-09-13T10:05:52Z</time>
      </trkpt>
      <trkpt lat="47.57887" lon="6.97466">
        <ele>340.7</ele>
        <time>2025-09-13T10:05:53Z</time>
      </trkpt>
      <trkpt lat="47.57881" lon="6.9747">
        <ele>340.6</ele>
        <time>2025-09-13T10:05:54Z</time>
      </trkpt>
      <trkpt lat="47.57874" lon="6.97474">
        <ele>340.5</ele>
        <time>2025-09-13T10:05:55Z</time>
      </trkpt>
      <trkpt lat="47.57867" lon="6.97475">
        <ele>340.5</ele>
        <time>2025-09-13T10:05:56Z</time>
      </trkpt>
      <trkpt lat="47.57858" lon="6.97477">
        <ele>340.4</ele>
        <time>2025-09-13T10:05:57Z</time>
      </trkpt>
      <trkpt lat="47.57851" lon="6.97478">
        <ele>340.3</ele>
        <time>2025-09-13T10:05:58Z</time>
      </trkpt>
      <trkpt lat="47.57844" lon="6.97479">
        <ele>340.3</ele>
        <time>2025-09-13T10:05:59Z</time>
      </trkpt>
      <trkpt lat="47.57836" lon="6.97477">
        <ele>340.2</ele>
        <time>2025-09-13T10:06:00Z</time>
      </trkpt>
      <trkpt lat="47.57829" lon="6.97472">
        <ele>340</ele>
        <time>2025-09-13T10:06:01Z</time>
      </trkpt>
      <trkpt lat="47.57823" lon="6.97466">
        <ele>339.9</ele>
        <time>2025-09-13T10:06:02Z</time>
      </trkpt>
      <trkpt lat="47.57815" lon="6.97459">
        <ele>339.7</ele>
        <time>2025-09-13T10:06:03Z</time>
      </trkpt>
      <trkpt lat="47.57809" lon="6.97452">
        <ele>339.6</ele>
        <time>2025-09-13T10:06:04Z</time>
      </trkpt>
      <trkpt lat="47.57803" lon="6.97444">
        <ele>339.6</ele>
        <time>2025-09-13T10:06:05Z</time>
      </trkpt>
      <trkpt lat="47.57796" lon="6.97437">
        <ele>339.5</ele>
        <time>2025-09-13T10:06:06Z</time>
      </trkpt>
      <trkpt lat="47.57791" lon="6.97431">
        <ele>339.5</ele>
        <time>2025-09-13T10:06:07Z</time>
      </trkpt>
      <trkpt lat="47.57785" lon="6.97424">
        <ele>339.5</ele>
        <time>2025-09-13T10:06:08Z</time>
      </trkpt>
      <trkpt lat="47.57779" lon="6.97418">
        <ele>339.5</ele>
        <time>2025-09-13T10:06:09Z</time>
      </trkpt>
      <trkpt lat="47.57774" lon="6.97411">
        <ele>339.5</ele>
        <time>2025-09-13T10:06:10Z</time>
      </trkpt>
      <trkpt lat="47.57768" lon="6.97405">
        <ele>339.5</ele>
        <time>2025-09-13T10:06:11Z</time>
      </trkpt>
      <trkpt lat="47.57762" lon="6.97399">
        <ele>339.5</ele>
        <time>2025-09-13T10:06:12Z</time>
      </trkpt>
      <trkpt lat="47.57756" lon="6.97393">
        <ele>339.5</ele>
        <time>2025-09-13T10:06:13Z</time>
      </trkpt>
      <trkpt lat="47.57751" lon="6.97386">
        <ele>339.5</ele>
        <time>2025-09-13T10:06:14Z</time>
      </trkpt>
      <trkpt lat="47.57745" lon="6.97378">
        <ele>339.5</ele>
        <time>2025-09-13T10:06:15Z</time>
      </trkpt>
      <trkpt lat="47.57739" lon="6.97371">
        <ele>339.5</ele>
        <time>2025-09-13T10:06:16Z</time>
      </trkpt>
      <trkpt lat="47.57733" lon="6.97365">
        <ele>339.5</ele>
        <time>2025-09-13T10:06:17Z</time>
      </trkpt>
      <trkpt lat="47.57726" lon="6.97359">
        <ele>339.5</ele>
        <time>2025-09-13T10:06:18Z</time>
      </trkpt>
      <trkpt lat="47.5772" lon="6.97354">
        <ele>339.5</ele>
        <time>2025-09-13T10:06:19Z</time>
      </trkpt>
      <trkpt lat="47.57715" lon="6.97349">
        <ele>339.6</ele>
        <time>2025-09-13T10:06:20Z</time>
      </trkpt>
      <trkpt lat="47.57708" lon="6.97345">
        <ele>339.7</ele>
        <time>2025-09-13T10:06:21Z</time>
      </trkpt>
      <trkpt lat="47.577" lon="6.97341">
        <ele>339.7</ele>
        <time>2025-09-13T10:06:22Z</time>
      </trkpt>
      <trkpt lat="47.57694" lon="6.97338">
        <ele>339.8</ele>
        <time>2025-09-13T10:06:23Z</time>
      </trkpt>
      <trkpt lat="47.57689" lon="6.97335">
        <ele>339.9</ele>
        <time>2025-09-13T10:06:24Z</time>
      </trkpt>
      <trkpt lat="47.57682" lon="6.97332">
        <ele>340</ele>
        <time>2025-09-13T10:06:25Z</time>
      </trkpt>
      <trkpt lat="47.57677" lon="6.97328">
        <ele>340</ele>
        <time>2025-09-13T10:06:26Z</time>
      </trkpt>
      <trkpt lat="47.57671" lon="6.97324">
        <ele>340.1</ele>
        <time>2025-09-13T10:06:27Z</time>
      </trkpt>
      <trkpt lat="47.57665" lon="6.9732">
        <ele>340.2</ele>
        <time>2025-09-13T10:06:28Z</time>
      </trkpt>
      <trkpt lat="47.5766" lon="6.97317">
        <ele>340.3</ele>
        <time>2025-09-13T10:06:29Z</time>
      </trkpt>
      <trkpt lat="47.57654" lon="6.97313">
        <ele>340.4</ele>
        <time>2025-09-13T10:06:30Z</time>
      </trkpt>
      <trkpt lat="47.57649" lon="6.97307">
        <ele>340.6</ele>
        <time>2025-09-13T10:06:31Z</time>
      </trkpt>
      <trkpt lat="47.57644" lon="6.973">
        <ele>340.7</ele>
        <time>2025-09-13T10:06:32Z</time>
      </trkpt>
      <trkpt lat="47.57644" lon="6.97291">
        <ele>340.7</ele>
        <time>2025-09-13T10:06:33Z</time>
      </trkpt>
      <trkpt lat="47.57645" lon="6.97278">
        <ele>340.7</ele>
        <time>2025-09-13T10:06:34Z</time>
      </trkpt>
      <trkpt lat="47.5765" lon="6.97269">
        <ele>340.6</ele>
        <time>2025-09-13T10:06:35Z</time>
      </trkpt>
      <trkpt lat="47.57656" lon="6.9726">
        <ele>340.6</ele>
        <time>2025-09-13T10:06:36Z</time>
      </trkpt>
      <trkpt lat="47.57661" lon="6.97251">
        <ele>340.5</ele>
        <time>2025-09-13T10:06:37Z</time>
      </trkpt>
      <trkpt lat="47.57665" lon="6.97242">
        <ele>340.5</ele>
        <time>2025-09-13T10:06:38Z</time>
      </trkpt>
      <trkpt lat="47.5767" lon="6.97235">
        <ele>340.5</ele>
        <time>2025-09-13T10:06:39Z</time>
      </trkpt>
      <trkpt lat="47.57675" lon="6.97227">
        <ele>340.6</ele>
        <time>2025-09-13T10:06:40Z</time>
      </trkpt>
      <trkpt lat="47.5768" lon="6.97217">
        <ele>340.6</ele>
        <time>2025-09-13T10:06:41Z</time>
      </trkpt>
      <trkpt lat="47.57685" lon="6.97208">
        <ele>340.6</ele>
        <time>2025-09-13T10:06:42Z</time>
      </trkpt>
      <trkpt lat="47.5769" lon="6.97199">
        <ele>340.6</ele>
        <time>2025-09-13T10:06:43Z</time>
      </trkpt>
      <trkpt lat="47.57695" lon="6.9719">
        <ele>340.6</ele>
        <time>2025-09-13T10:06:44Z</time>
      </trkpt>
      <trkpt lat="47.577" lon="6.97181">
        <ele>340.7</ele>
        <time>2025-09-13T10:06:45Z</time>
      </trkpt>
      <trkpt lat="47.57704" lon="6.97171">
        <ele>340.8</ele>
        <time>2025-09-13T10:06:46Z</time>
      </trkpt>
      <trkpt lat="47.57707" lon="6.97161">
        <ele>340.9</ele>
        <time>2025-09-13T10:06:47Z</time>
      </trkpt>
      <trkpt lat="47.57707" lon="6.97149">
        <ele>341</ele>
        <time>2025-09-13T10:06:48Z</time>
      </trkpt>
      <trkpt lat="47.57701" lon="6.9714">
        <ele>341.2</ele>
        <time>2025-09-13T10:06:49Z</time>
      </trkpt>
      <trkpt lat="47.57696" lon="6.97133">
        <ele>341.4</ele>
        <time>2025-09-13T10:06:50Z</time>
      </trkpt>
      <trkpt lat="47.57689" lon="6.97127">
        <ele>341.7</ele>
        <time>2025-09-13T10:06:51Z</time>
      </trkpt>
      <trkpt lat="47.57684" lon="6.9712">
        <ele>341.9</ele>
        <time>2025-09-13T10:06:52Z</time>
      </trkpt>
      <trkpt lat="47.5768" lon="6.97114">
        <ele>342.1</ele>
        <time>2025-09-13T10:06:53Z</time>
      </trkpt>
      <trkpt lat="47.57675" lon="6.97108">
        <ele>342.3</ele>
        <time>2025-09-13T10:06:54Z</time>
      </trkpt>
      <trkpt lat="47.57672" lon="6.97101">
        <ele>342.5</ele>
        <time>2025-09-13T10:06:55Z</time>
      </trkpt>
      <trkpt lat="47.57668" lon="6.97095">
        <ele>342.7</ele>
        <time>2025-09-13T10:06:56Z</time>
      </trkpt>
      <trkpt lat="47.57664" lon="6.97088">
        <ele>342.9</ele>
        <time>2025-09-13T10:06:57Z</time>
      </trkpt>
      <trkpt lat="47.5766" lon="6.97083">
        <ele>343.1</ele>
        <time>2025-09-13T10:06:58Z</time>
      </trkpt>
      <trkpt lat="47.57657" lon="6.97076">
        <ele>343.4</ele>
        <time>2025-09-13T10:06:59Z</time>
      </trkpt>
      <trkpt lat="47.57653" lon="6.97071">
        <ele>343.6</ele>
        <time>2025-09-13T10:07:00Z</time>
      </trkpt>
      <trkpt lat="47.57648" lon="6.97064">
        <ele>343.9</ele>
        <time>2025-09-13T10:07:01Z</time>
      </trkpt>
      <trkpt lat="47.57644" lon="6.97058">
        <ele>344.1</ele>
        <time>2025-09-13T10:07:02Z</time>
      </trkpt>
      <trkpt lat="47.5764" lon="6.97053">
        <ele>344.4</ele>
        <time>2025-09-13T10:07:03Z</time>
      </trkpt>
      <trkpt lat="47.57637" lon="6.97047">
        <ele>344.6</ele>
        <time>2025-09-13T10:07:04Z</time>
      </trkpt>
      <trkpt lat="47.57632" lon="6.97041">
        <ele>344.9</ele>
        <time>2025-09-13T10:07:05Z</time>
      </trkpt>
      <trkpt lat="47.57628" lon="6.97035">
        <ele>345.1</ele>
        <time>2025-09-13T10:07:06Z</time>
      </trkpt>
      <trkpt lat="47.57624" lon="6.9703">
        <ele>345.3</ele>
        <time>2025-09-13T10:07:07Z</time>
      </trkpt>
      <trkpt lat="47.57619" lon="6.97026">
        <ele>345.6</ele>
        <time>2025-09-13T10:07:08Z</time>
      </trkpt>
      <trkpt lat="47.57616" lon="6.9702">
        <ele>345.8</ele>
        <time>2025-09-13T10:07:09Z</time>
      </trkpt>
      <trkpt lat="47.57611" lon="6.97015">
        <ele>346</ele>
        <time>2025-09-13T10:07:10Z</time>
      </trkpt>
      <trkpt lat="47.57607" lon="6.9701">
        <ele>346.2</ele>
        <time>2025-09-13T10:07:11Z</time>
      </trkpt>
      <trkpt lat="47.57602" lon="6.97004">
        <ele>346.3</ele>
        <time>2025-09-13T10:07:12Z</time>
      </trkpt>
      <trkpt lat="47.57598" lon="6.96998">
        <ele>346.5</ele>
        <time>2025-09-13T10:07:13Z</time>
      </trkpt>
      <trkpt lat="47.57594" lon="6.96992">
        <ele>346.6</ele>
        <time>2025-09-13T10:07:14Z</time>
      </trkpt>
      <trkpt lat="47.57589" lon="6.96986">
        <ele>346.7</ele>
        <time>2025-09-13T10:07:15Z</time>
      </trkpt>
      <trkpt lat="47.57586" lon="6.96979">
        <ele>346.7</ele>
        <time>2025-09-13T10:07:16Z</time>
      </trkpt>
      <trkpt lat="47.57581" lon="6.96972">
        <ele>346.7</ele>
        <time>2025-09-13T10:07:17Z</time>
      </trkpt>
      <trkpt lat="47.57577" lon="6.96964">
        <ele>346.7</ele>
        <time>2025-09-13T10:07:18Z</time>
      </trkpt>
      <trkpt lat="47.57572" lon="6.96956">
        <ele>346.6</ele>
        <time>2025-09-13T10:07:19Z</time>
      </trkpt>
      <trkpt lat="47.57568" lon="6.96949">
        <ele>346.5</ele>
        <time>2025-09-13T10:07:20Z</time>
      </trkpt>
      <trkpt lat="47.57563" lon="6.96942">
        <ele>346.4</ele>
        <time>2025-09-13T10:07:21Z</time>
      </trkpt>
      <trkpt lat="47.57558" lon="6.96934">
        <ele>346.2</ele>
        <time>2025-09-13T10:07:22Z</time>
      </trkpt>
      <trkpt lat="47.57553" lon="6.96925">
        <ele>346.1</ele>
        <time>2025-09-13T10:07:23Z</time>
      </trkpt>
      <trkpt lat="47.57549" lon="6.96918">
        <ele>345.9</ele>
        <time>2025-09-13T10:07:24Z</time>
      </trkpt>
      <trkpt lat="47.57544" lon="6.96909">
        <ele>345.6</ele>
        <time>2025-09-13T10:07:25Z</time>
      </trkpt>
      <trkpt lat="47.57539" lon="6.96901">
        <ele>345.4</ele>
        <time>2025-09-13T10:07:26Z</time>
      </trkpt>
      <trkpt lat="47.57534" lon="6.96892">
        <ele>345.1</ele>
        <time>2025-09-13T10:07:27Z</time>
      </trkpt>
      <trkpt lat="47.57529" lon="6.96883">
        <ele>344.9</ele>
        <time>2025-09-13T10:07:28Z</time>
      </trkpt>
      <trkpt lat="47.57523" lon="6.96873">
        <ele>344.6</ele>
        <time>2025-09-13T10:07:29Z</time>
      </trkpt>
      <trkpt lat="47.57517" lon="6.96865">
        <ele>344.4</ele>
        <time>2025-09-13T10:07:30Z</time>
      </trkpt>
      <trkpt lat="47.57512" lon="6.96856">
        <ele>344.2</ele>
        <time>2025-09-13T10:07:31Z</time>
      </trkpt>
      <trkpt lat="47.57506" lon="6.96847">
        <ele>344</ele>
        <time>2025-09-13T10:07:32Z</time>
      </trkpt>
      <trkpt lat="47.575" lon="6.96838">
        <ele>343.8</ele>
        <time>2025-09-13T10:07:33Z</time>
      </trkpt>
      <trkpt lat="47.57494" lon="6.9683">
        <ele>343.6</ele>
        <time>2025-09-13T10:07:34Z</time>
      </trkpt>
      <trkpt lat="47.57488" lon="6.96819">
        <ele>343.4</ele>
        <time>2025-09-13T10:07:35Z</time>
      </trkpt>
      <trkpt lat="47.57482" lon="6.9681">
        <ele>343.3</ele>
        <time>2025-09-13T10:07:36Z</time>
      </trkpt>
      <trkpt lat="47.57477" lon="6.96801">
        <ele>343.2</ele>
        <time>2025-09-13T10:07:37Z</time>
      </trkpt>
      <trkpt lat="47.57471" lon="6.96791">
        <ele>343.1</ele>
        <time>2025-09-13T10:07:38Z</time>
      </trkpt>
      <trkpt lat="47.57466" lon="6.96783">
        <ele>343.1</ele>
        <time>2025-09-13T10:07:39Z</time>
      </trkpt>
      <trkpt lat="47.57461" lon="6.96774">
        <ele>343</ele>
        <time>2025-09-13T10:07:40Z</time>
      </trkpt>
      <trkpt lat="47.57454" lon="6.96764">
        <ele>343</ele>
        <time>2025-09-13T10:07:41Z</time>
      </trkpt>
      <trkpt lat="47.57448" lon="6.96757">
        <ele>343</ele>
        <time>2025-09-13T10:07:42Z</time>
      </trkpt>
      <trkpt lat="47.57443" lon="6.96748">
        <ele>343.1</ele>
        <time>2025-09-13T10:07:43Z</time>
      </trkpt>
      <trkpt lat="47.57439" lon="6.96739">
        <ele>343.1</ele>
        <time>2025-09-13T10:07:44Z</time>
      </trkpt>
      <trkpt lat="47.57433" lon="6.9673">
        <ele>343.1</ele>
        <time>2025-09-13T10:07:45Z</time>
      </trkpt>
      <trkpt lat="47.57428" lon="6.96721">
        <ele>343.2</ele>
        <time>2025-09-13T10:07:46Z</time>
      </trkpt>
      <trkpt lat="47.57422" lon="6.96713">
        <ele>343.2</ele>
        <time>2025-09-13T10:07:47Z</time>
      </trkpt>
      <trkpt lat="47.57417" lon="6.96706">
        <ele>343.3</ele>
        <time>2025-09-13T10:07:48Z</time>
      </trkpt>
      <trkpt lat="47.57412" lon="6.96697">
        <ele>343.4</ele>
        <time>2025-09-13T10:07:49Z</time>
      </trkpt>
      <trkpt lat="47.57407" lon="6.9669">
        <ele>343.5</ele>
        <time>2025-09-13T10:07:50Z</time>
      </trkpt>
      <trkpt lat="47.57401" lon="6.96682">
        <ele>343.6</ele>
        <time>2025-09-13T10:07:51Z</time>
      </trkpt>
      <trkpt lat="47.57396" lon="6.96674">
        <ele>343.7</ele>
        <time>2025-09-13T10:07:52Z</time>
      </trkpt>
      <trkpt lat="47.57391" lon="6.96666">
        <ele>343.9</ele>
        <time>2025-09-13T10:07:53Z</time>
      </trkpt>
      <trkpt lat="47.57386" lon="6.96659">
        <ele>344</ele>
        <time>2025-09-13T10:07:54Z</time>
      </trkpt>
      <trkpt lat="47.5738" lon="6.96651">
        <ele>344.2</ele>
        <time>2025-09-13T10:07:55Z</time>
      </trkpt>
      <trkpt lat="47.57376" lon="6.96644">
        <ele>344.3</ele>
        <time>2025-09-13T10:07:56Z</time>
      </trkpt>
      <trkpt lat="47.5737" lon="6.96635">
        <ele>344.4</ele>
        <time>2025-09-13T10:07:57Z</time>
      </trkpt>
      <trkpt lat="47.57365" lon="6.96627">
        <ele>344.6</ele>
        <time>2025-09-13T10:07:58Z</time>
      </trkpt>
      <trkpt lat="47.5736" lon="6.96621">
        <ele>344.7</ele>
        <time>2025-09-13T10:07:59Z</time>
      </trkpt>
      <trkpt lat="47.57356" lon="6.96614">
        <ele>344.8</ele>
        <time>2025-09-13T10:08:00Z</time>
      </trkpt>
      <trkpt lat="47.57351" lon="6.96605">
        <ele>345</ele>
        <time>2025-09-13T10:08:01Z</time>
      </trkpt>
      <trkpt lat="47.57346" lon="6.96598">
        <ele>345.1</ele>
        <time>2025-09-13T10:08:02Z</time>
      </trkpt>
      <trkpt lat="47.57342" lon="6.9659">
        <ele>345.2</ele>
        <time>2025-09-13T10:08:03Z</time>
      </trkpt>
      <trkpt lat="47.57337" lon="6.96584">
        <ele>345.3</ele>
        <time>2025-09-13T10:08:04Z</time>
      </trkpt>
      <trkpt lat="47.57333" lon="6.96577">
        <ele>345.3</ele>
        <time>2025-09-13T10:08:05Z</time>
      </trkpt>
      <trkpt lat="47.57328" lon="6.9657">
        <ele>345.4</ele>
        <time>2025-09-13T10:08:06Z</time>
      </trkpt>
      <trkpt lat="47.57323" lon="6.96563">
        <ele>345.4</ele>
        <time>2025-09-13T10:08:07Z</time>
      </trkpt>
      <trkpt lat="47.57318" lon="6.96555">
        <ele>345.3</ele>
        <time>2025-09-13T10:08:08Z</time>
      </trkpt>
      <trkpt lat="47.57314" lon="6.96548">
        <ele>345.3</ele>
        <time>2025-09-13T10:08:09Z</time>
      </trkpt>
      <trkpt lat="47.57309" lon="6.9654">
        <ele>345.2</ele>
        <time>2025-09-13T10:08:10Z</time>
      </trkpt>
      <trkpt lat="47.57304" lon="6.96532">
        <ele>345.1</ele>
        <time>2025-09-13T10:08:11Z</time>
      </trkpt>
      <trkpt lat="47.57299" lon="6.96525">
        <ele>345</ele>
        <time>2025-09-13T10:08:12Z</time>
      </trkpt>
      <trkpt lat="47.57295" lon="6.96517">
        <ele>344.8</ele>
        <time>2025-09-13T10:08:13Z</time>
      </trkpt>
      <trkpt lat="47.5729" lon="6.9651">
        <ele>344.7</ele>
        <time>2025-09-13T10:08:14Z</time>
      </trkpt>
      <trkpt lat="47.57284" lon="6.96501">
        <ele>344.6</ele>
        <time>2025-09-13T10:08:15Z</time>
      </trkpt>
      <trkpt lat="47.5728" lon="6.96494">
        <ele>344.4</ele>
        <time>2025-09-13T10:08:16Z</time>
      </trkpt>
      <trkpt lat="47.57274" lon="6.96486">
        <ele>344.3</ele>
        <time>2025-09-13T10:08:17Z</time>
      </trkpt>
      <trkpt lat="47.5727" lon="6.96477">
        <ele>344.2</ele>
        <time>2025-09-13T10:08:18Z</time>
      </trkpt>
      <trkpt lat="47.57265" lon="6.96468">
        <ele>344</ele>
        <time>2025-09-13T10:08:19Z</time>
      </trkpt>
      <trkpt lat="47.57259" lon="6.9646">
        <ele>344</ele>
        <time>2025-09-13T10:08:20Z</time>
      </trkpt>
      <trkpt lat="47.57253" lon="6.96452">
        <ele>343.9</ele>
        <time>2025-09-13T10:08:21Z</time>
      </trkpt>
      <trkpt lat="47.57247" lon="6.96444">
        <ele>343.9</ele>
        <time>2025-09-13T10:08:22Z</time>
      </trkpt>
      <trkpt lat="47.57241" lon="6.96436">
        <ele>343.8</ele>
        <time>2025-09-13T10:08:23Z</time>
      </trkpt>
      <trkpt lat="47.57236" lon="6.96428">
        <ele>343.8</ele>
        <time>2025-09-13T10:08:24Z</time>
      </trkpt>
      <trkpt lat="47.57229" lon="6.96419">
        <ele>343.8</ele>
        <time>2025-09-13T10:08:25Z</time>
      </trkpt>
      <trkpt lat="47.57224" lon="6.96411">
        <ele>343.7</ele>
        <time>2025-09-13T10:08:26Z</time>
      </trkpt>
      <trkpt lat="47.57218" lon="6.96402">
        <ele>343.7</ele>
        <time>2025-09-13T10:08:27Z</time>
      </trkpt>
      <trkpt lat="47.57214" lon="6.96394">
        <ele>343.7</ele>
        <time>2025-09-13T10:08:28Z</time>
      </trkpt>
      <trkpt lat="47.57209" lon="6.96385">
        <ele>343.8</ele>
        <time>2025-09-13T10:08:29Z</time>
      </trkpt>
      <trkpt lat="47.57203" lon="6.96377">
        <ele>343.9</ele>
        <time>2025-09-13T10:08:30Z</time>
      </trkpt>
      <trkpt lat="47.57198" lon="6.96369">
        <ele>344</ele>
        <time>2025-09-13T10:08:31Z</time>
      </trkpt>
      <trkpt lat="47.57192" lon="6.96361">
        <ele>344.1</ele>
        <time>2025-09-13T10:08:32Z</time>
      </trkpt>
      <trkpt lat="47.57189" lon="6.96353">
        <ele>344.2</ele>
        <time>2025-09-13T10:08:33Z</time>
      </trkpt>
      <trkpt lat="47.57183" lon="6.96345">
        <ele>344.4</ele>
        <time>2025-09-13T10:08:34Z</time>
      </trkpt>
      <trkpt lat="47.57179" lon="6.96338">
        <ele>344.6</ele>
        <time>2025-09-13T10:08:35Z</time>
      </trkpt>
      <trkpt lat="47.57175" lon="6.96331">
        <ele>344.7</ele>
        <time>2025-09-13T10:08:36Z</time>
      </trkpt>
      <trkpt lat="47.57169" lon="6.96324">
        <ele>344.9</ele>
        <time>2025-09-13T10:08:37Z</time>
      </trkpt>
      <trkpt lat="47.57164" lon="6.96317">
        <ele>345.1</ele>
        <time>2025-09-13T10:08:38Z</time>
      </trkpt>
      <trkpt lat="47.57159" lon="6.96309">
        <ele>345.3</ele>
        <time>2025-09-13T10:08:39Z</time>
      </trkpt>
      <trkpt lat="47.57155" lon="6.96301">
        <ele>345.5</ele>
        <time>2025-09-13T10:08:40Z</time>
      </trkpt>
      <trkpt lat="47.5715" lon="6.96295">
        <ele>345.6</ele>
        <time>2025-09-13T10:08:41Z</time>
      </trkpt>
      <trkpt lat="47.57146" lon="6.96288">
        <ele>345.8</ele>
        <time>2025-09-13T10:08:42Z</time>
      </trkpt>
      <trkpt lat="47.57143" lon="6.96282">
        <ele>345.9</ele>
        <time>2025-09-13T10:08:43Z</time>
      </trkpt>
      <trkpt lat="47.57138" lon="6.96274">
        <ele>346.1</ele>
        <time>2025-09-13T10:08:44Z</time>
      </trkpt>
      <trkpt lat="47.57133" lon="6.96268">
        <ele>346.2</ele>
        <time>2025-09-13T10:08:45Z</time>
      </trkpt>
      <trkpt lat="47.5713" lon="6.96261">
        <ele>346.4</ele>
        <time>2025-09-13T10:08:46Z</time>
      </trkpt>
      <trkpt lat="47.57125" lon="6.96254">
        <ele>346.5</ele>
        <time>2025-09-13T10:08:47Z</time>
      </trkpt>
      <trkpt lat="47.57121" lon="6.96247">
        <ele>346.7</ele>
        <time>2025-09-13T10:08:48Z</time>
      </trkpt>
      <trkpt lat="47.57116" lon="6.9624">
        <ele>346.8</ele>
        <time>2025-09-13T10:08:49Z</time>
      </trkpt>
      <trkpt lat="47.57111" lon="6.96233">
        <ele>346.9</ele>
        <time>2025-09-13T10:08:50Z</time>
      </trkpt>
      <trkpt lat="47.57108" lon="6.96227">
        <ele>347</ele>
        <time>2025-09-13T10:08:51Z</time>
      </trkpt>
      <trkpt lat="47.57103" lon="6.9622">
        <ele>347.2</ele>
        <time>2025-09-13T10:08:52Z</time>
      </trkpt>
      <trkpt lat="47.57099" lon="6.96213">
        <ele>347.2</ele>
        <time>2025-09-13T10:08:53Z</time>
      </trkpt>
      <trkpt lat="47.57095" lon="6.96205">
        <ele>347.3</ele>
        <time>2025-09-13T10:08:54Z</time>
      </trkpt>
      <trkpt lat="47.5709" lon="6.96199">
        <ele>347.4</ele>
        <time>2025-09-13T10:08:55Z</time>
      </trkpt>
      <trkpt lat="47.57086" lon="6.96192">
        <ele>347.4</ele>
        <time>2025-09-13T10:08:56Z</time>
      </trkpt>
      <trkpt lat="47.57081" lon="6.96184">
        <ele>347.4</ele>
        <time>2025-09-13T10:08:57Z</time>
      </trkpt>
      <trkpt lat="47.57077" lon="6.96177">
        <ele>347.4</ele>
        <time>2025-09-13T10:08:58Z</time>
      </trkpt>
      <trkpt lat="47.57072" lon="6.96169">
        <ele>347.4</ele>
        <time>2025-09-13T10:08:59Z</time>
      </trkpt>
      <trkpt lat="47.57067" lon="6.96161">
        <ele>347.3</ele>
        <time>2025-09-13T10:09:00Z</time>
      </trkpt>
      <trkpt lat="47.57063" lon="6.96153">
        <ele>347.2</ele>
        <time>2025-09-13T10:09:01Z</time>
      </trkpt>
      <trkpt lat="47.57059" lon="6.96145">
        <ele>347.1</ele>
        <time>2025-09-13T10:09:02Z</time>
      </trkpt>
      <trkpt lat="47.57055" lon="6.96136">
        <ele>347</ele>
        <time>2025-09-13T10:09:03Z</time>
      </trkpt>
      <trkpt lat="47.5705" lon="6.96128">
        <ele>346.9</ele>
        <time>2025-09-13T10:09:04Z</time>
      </trkpt>
      <trkpt lat="47.57046" lon="6.96119">
        <ele>346.7</ele>
        <time>2025-09-13T10:09:05Z</time>
      </trkpt>
      <trkpt lat="47.57042" lon="6.96111">
        <ele>346.5</ele>
        <time>2025-09-13T10:09:06Z</time>
      </trkpt>
      <trkpt lat="47.57038" lon="6.96103">
        <ele>346.3</ele>
        <time>2025-09-13T10:09:07Z</time>
      </trkpt>
      <trkpt lat="47.57033" lon="6.96093">
        <ele>346</ele>
        <time>2025-09-13T10:09:08Z</time>
      </trkpt>
      <trkpt lat="47.57028" lon="6.96084">
        <ele>345.7</ele>
        <time>2025-09-13T10:09:09Z</time>
      </trkpt>
      <trkpt lat="47.57024" lon="6.96074">
        <ele>345.4</ele>
        <time>2025-09-13T10:09:10Z</time>
      </trkpt>
      <trkpt lat="47.57019" lon="6.96064">
        <ele>345.1</ele>
        <time>2025-09-13T10:09:11Z</time>
      </trkpt>
      <trkpt lat="47.57014" lon="6.96054">
        <ele>344.8</ele>
        <time>2025-09-13T10:09:12Z</time>
      </trkpt>
      <trkpt lat="47.5701" lon="6.96044">
        <ele>344.4</ele>
        <time>2025-09-13T10:09:13Z</time>
      </trkpt>
      <trkpt lat="47.57005" lon="6.96033">
        <ele>344</ele>
        <time>2025-09-13T10:09:14Z</time>
      </trkpt>
      <trkpt lat="47.57" lon="6.96022">
        <ele>343.5</ele>
        <time>2025-09-13T10:09:15Z</time>
      </trkpt>
      <trkpt lat="47.56995" lon="6.96012">
        <ele>343</ele>
        <time>2025-09-13T10:09:16Z</time>
      </trkpt>
      <trkpt lat="47.56989" lon="6.96001">
        <ele>342.4</ele>
        <time>2025-09-13T10:09:17Z</time>
      </trkpt>
      <trkpt lat="47.56983" lon="6.95989">
        <ele>341.9</ele>
        <time>2025-09-13T10:09:18Z</time>
      </trkpt>
      <trkpt lat="47.56977" lon="6.95977">
        <ele>341.4</ele>
        <time>2025-09-13T10:09:19Z</time>
      </trkpt>
      <trkpt lat="47.56971" lon="6.95965">
        <ele>340.9</ele>
        <time>2025-09-13T10:09:20Z</time>
      </trkpt>
      <trkpt lat="47.56965" lon="6.95953">
        <ele>340.5</ele>
        <time>2025-09-13T10:09:21Z</time>
      </trkpt>
      <trkpt lat="47.5696" lon="6.95942">
        <ele>340.2</ele>
        <time>2025-09-13T10:09:22Z</time>
      </trkpt>
      <trkpt lat="47.56954" lon="6.9593">
        <ele>339.9</ele>
        <time>2025-09-13T10:09:23Z</time>
      </trkpt>
      <trkpt lat="47.56948" lon="6.95917">
        <ele>339.6</ele>
        <time>2025-09-13T10:09:24Z</time>
      </trkpt>
      <trkpt lat="47.56942" lon="6.95905">
        <ele>339.5</ele>
        <time>2025-09-13T10:09:25Z</time>
      </trkpt>
      <trkpt lat="47.56937" lon="6.95893">
        <ele>339.5</ele>
        <time>2025-09-13T10:09:26Z</time>
      </trkpt>
      <trkpt lat="47.56931" lon="6.95882">
        <ele>339.5</ele>
        <time>2025-09-13T10:09:27Z</time>
      </trkpt>
      <trkpt lat="47.56925" lon="6.9587">
        <ele>339.5</ele>
        <time>2025-09-13T10:09:28Z</time>
      </trkpt>
      <trkpt lat="47.5692" lon="6.9586">
        <ele>339.7</ele>
        <time>2025-09-13T10:09:29Z</time>
      </trkpt>
      <trkpt lat="47.56915" lon="6.95848">
        <ele>339.8</ele>
        <time>2025-09-13T10:09:30Z</time>
      </trkpt>
      <trkpt lat="47.5691" lon="6.95838">
        <ele>339.9</ele>
        <time>2025-09-13T10:09:31Z</time>
      </trkpt>
      <trkpt lat="47.56904" lon="6.95827">
        <ele>340</ele>
        <time>2025-09-13T10:09:32Z</time>
      </trkpt>
      <trkpt lat="47.56899" lon="6.95818">
        <ele>340.2</ele>
        <time>2025-09-13T10:09:33Z</time>
      </trkpt>
      <trkpt lat="47.56894" lon="6.9581">
        <ele>340.4</ele>
        <time>2025-09-13T10:09:34Z</time>
      </trkpt>
      <trkpt lat="47.56888" lon="6.958">
        <ele>340.7</ele>
        <time>2025-09-13T10:09:35Z</time>
      </trkpt>
      <trkpt lat="47.56882" lon="6.95792">
        <ele>340.9</ele>
        <time>2025-09-13T10:09:36Z</time>
      </trkpt>
      <trkpt lat="47.56878" lon="6.95783">
        <ele>341.2</ele>
        <time>2025-09-13T10:09:37Z</time>
      </trkpt>
      <trkpt lat="47.56874" lon="6.95776">
        <ele>341.4</ele>
        <time>2025-09-13T10:09:38Z</time>
      </trkpt>
      <trkpt lat="47.56869" lon="6.95769">
        <ele>341.7</ele>
        <time>2025-09-13T10:09:39Z</time>
      </trkpt>
      <trkpt lat="47.56864" lon="6.95762">
        <ele>341.9</ele>
        <time>2025-09-13T10:09:40Z</time>
      </trkpt>
      <trkpt lat="47.56858" lon="6.95755">
        <ele>342.2</ele>
        <time>2025-09-13T10:09:41Z</time>
      </trkpt>
      <trkpt lat="47.56853" lon="6.95748">
        <ele>342.4</ele>
        <time>2025-09-13T10:09:42Z</time>
      </trkpt>
      <trkpt lat="47.56848" lon="6.95742">
        <ele>342.6</ele>
        <time>2025-09-13T10:09:43Z</time>
      </trkpt>
      <trkpt lat="47.56843" lon="6.95736">
        <ele>342.8</ele>
        <time>2025-09-13T10:09:44Z</time>
      </trkpt>
      <trkpt lat="47.56838" lon="6.95731">
        <ele>343</ele>
        <time>2025-09-13T10:09:45Z</time>
      </trkpt>
      <trkpt lat="47.56833" lon="6.95724">
        <ele>343.2</ele>
        <time>2025-09-13T10:09:46Z</time>
      </trkpt>
      <trkpt lat="47.56828" lon="6.95719">
        <ele>343.3</ele>
        <time>2025-09-13T10:09:47Z</time>
      </trkpt>
      <trkpt lat="47.56823" lon="6.95713">
        <ele>343.5</ele>
        <time>2025-09-13T10:09:48Z</time>
      </trkpt>
      <trkpt lat="47.56818" lon="6.95707">
        <ele>343.6</ele>
        <time>2025-09-13T10:09:49Z</time>
      </trkpt>
      <trkpt lat="47.56813" lon="6.95701">
        <ele>343.8</ele>
        <time>2025-09-13T10:09:50Z</time>
      </trkpt>
      <trkpt lat="47.56808" lon="6.95696">
        <ele>343.9</ele>
        <time>2025-09-13T10:09:51Z</time>
      </trkpt>
      <trkpt lat="47.56804" lon="6.95691">
        <ele>344</ele>
        <time>2025-09-13T10:09:52Z</time>
      </trkpt>
      <trkpt lat="47.56799" lon="6.95685">
        <ele>344</ele>
        <time>2025-09-13T10:09:53Z</time>
      </trkpt>
      <trkpt lat="47.56794" lon="6.95679">
        <ele>344.1</ele>
        <time>2025-09-13T10:09:54Z</time>
      </trkpt>
      <trkpt lat="47.56788" lon="6.95673">
        <ele>344.1</ele>
        <time>2025-09-13T10:09:55Z</time>
      </trkpt>
      <trkpt lat="47.56784" lon="6.95668">
        <ele>344.2</ele>
        <time>2025-09-13T10:09:56Z</time>
      </trkpt>
      <trkpt lat="47.56778" lon="6.95661">
        <ele>344.2</ele>
        <time>2025-09-13T10:09:57Z</time>
      </trkpt>
      <trkpt lat="47.56773" lon="6.95655">
        <ele>344.2</ele>
        <time>2025-09-13T10:09:58Z</time>
      </trkpt>
      <trkpt lat="47.56768" lon="6.95648">
        <ele>344.2</ele>
        <time>2025-09-13T10:09:59Z</time>
      </trkpt>
      <trkpt lat="47.56763" lon="6.95642">
        <ele>344.1</ele>
        <time>2025-09-13T10:10:00Z</time>
      </trkpt>
      <trkpt lat="47.56757" lon="6.95635">
        <ele>344.1</ele>
        <time>2025-09-13T10:10:01Z</time>
      </trkpt>
      <trkpt lat="47.56752" lon="6.95628">
        <ele>344.1</ele>
        <time>2025-09-13T10:10:02Z</time>
      </trkpt>
      <trkpt lat="47.56747" lon="6.95621">
        <ele>344</ele>
        <time>2025-09-13T10:10:03Z</time>
      </trkpt>
      <trkpt lat="47.56742" lon="6.95612">
        <ele>343.8</ele>
        <time>2025-09-13T10:10:04Z</time>
      </trkpt>
      <trkpt lat="47.56737" lon="6.95605">
        <ele>343.7</ele>
        <time>2025-09-13T10:10:05Z</time>
      </trkpt>
      <trkpt lat="47.56732" lon="6.95597">
        <ele>343.5</ele>
        <time>2025-09-13T10:10:06Z</time>
      </trkpt>
      <trkpt lat="47.56727" lon="6.95589">
        <ele>343.3</ele>
        <time>2025-09-13T10:10:07Z</time>
      </trkpt>
      <trkpt lat="47.56721" lon="6.95581">
        <ele>343.1</ele>
        <time>2025-09-13T10:10:08Z</time>
      </trkpt>
      <trkpt lat="47.56715" lon="6.95573">
        <ele>342.9</ele>
        <time>2025-09-13T10:10:09Z</time>
      </trkpt>
      <trkpt lat="47.5671" lon="6.95565">
        <ele>342.6</ele>
        <time>2025-09-13T10:10:10Z</time>
      </trkpt>
      <trkpt lat="47.56704" lon="6.95556">
        <ele>342.4</ele>
        <time>2025-09-13T10:10:11Z</time>
      </trkpt>
      <trkpt lat="47.56698" lon="6.95548">
        <ele>342.1</ele>
        <time>2025-09-13T10:10:12Z</time>
      </trkpt>
      <trkpt lat="47.56692" lon="6.9554">
        <ele>341.9</ele>
        <time>2025-09-13T10:10:13Z</time>
      </trkpt>
      <trkpt lat="47.56686" lon="6.95531">
        <ele>341.7</ele>
        <time>2025-09-13T10:10:14Z</time>
      </trkpt>
      <trkpt lat="47.56679" lon="6.95522">
        <ele>341.4</ele>
        <time>2025-09-13T10:10:15Z</time>
      </trkpt>
      <trkpt lat="47.56674" lon="6.95513">
        <ele>341.2</ele>
        <time>2025-09-13T10:10:16Z</time>
      </trkpt>
      <trkpt lat="47.56667" lon="6.95503">
        <ele>340.9</ele>
        <time>2025-09-13T10:10:17Z</time>
      </trkpt>
      <trkpt lat="47.56663" lon="6.95493">
        <ele>340.7</ele>
        <time>2025-09-13T10:10:18Z</time>
      </trkpt>
      <trkpt lat="47.56656" lon="6.95484">
        <ele>340.5</ele>
        <time>2025-09-13T10:10:19Z</time>
      </trkpt>
      <trkpt lat="47.5665" lon="6.95475">
        <ele>340.2</ele>
        <time>2025-09-13T10:10:20Z</time>
      </trkpt>
      <trkpt lat="47.56643" lon="6.95466">
        <ele>340</ele>
        <time>2025-09-13T10:10:21Z</time>
      </trkpt>
      <trkpt lat="47.56638" lon="6.95457">
        <ele>339.7</ele>
        <time>2025-09-13T10:10:22Z</time>
      </trkpt>
      <trkpt lat="47.56631" lon="6.95448">
        <ele>339.5</ele>
        <time>2025-09-13T10:10:23Z</time>
      </trkpt>
      <trkpt lat="47.56625" lon="6.95439">
        <ele>339.3</ele>
        <time>2025-09-13T10:10:24Z</time>
      </trkpt>
      <trkpt lat="47.56617" lon="6.9543">
        <ele>339.1</ele>
        <time>2025-09-13T10:10:25Z</time>
      </trkpt>
      <trkpt lat="47.56611" lon="6.95422">
        <ele>338.9</ele>
        <time>2025-09-13T10:10:26Z</time>
      </trkpt>
      <trkpt lat="47.56604" lon="6.95414">
        <ele>338.6</ele>
        <time>2025-09-13T10:10:27Z</time>
      </trkpt>
      <trkpt lat="47.56597" lon="6.95406">
        <ele>338.5</ele>
        <time>2025-09-13T10:10:28Z</time>
      </trkpt>
      <trkpt lat="47.5659" lon="6.95398">
        <ele>338.3</ele>
        <time>2025-09-13T10:10:29Z</time>
      </trkpt>
      <trkpt lat="47.56584" lon="6.95389">
        <ele>338.2</ele>
        <time>2025-09-13T10:10:30Z</time>
      </trkpt>
      <trkpt lat="47.56578" lon="6.95381">
        <ele>338.1</ele>
        <time>2025-09-13T10:10:31Z</time>
      </trkpt>
      <trkpt lat="47.56572" lon="6.95373">
        <ele>338</ele>
        <time>2025-09-13T10:10:32Z</time>
      </trkpt>
      <trkpt lat="47.56564" lon="6.95364">
        <ele>337.8</ele>
        <time>2025-09-13T10:10:33Z</time>
      </trkpt>
      <trkpt lat="47.56558" lon="6.95356">
        <ele>337.7</ele>
        <time>2025-09-13T10:10:34Z</time>
      </trkpt>
      <trkpt lat="47.56552" lon="6.95348">
        <ele>337.6</ele>
        <time>2025-09-13T10:10:35Z</time>
      </trkpt>
      <trkpt lat="47.56546" lon="6.9534">
        <ele>337.5</ele>
        <time>2025-09-13T10:10:36Z</time>
      </trkpt>
      <trkpt lat="47.56538" lon="6.95332">
        <ele>337.4</ele>
        <time>2025-09-13T10:10:37Z</time>
      </trkpt>
      <trkpt lat="47.56532" lon="6.95325">
        <ele>337.4</ele>
        <time>2025-09-13T10:10:38Z</time>
      </trkpt>
      <trkpt lat="47.56526" lon="6.95317">
        <ele>337.4</ele>
        <time>2025-09-13T10:10:39Z</time>
      </trkpt>
      <trkpt lat="47.56519" lon="6.9531">
        <ele>337.4</ele>
        <time>2025-09-13T10:10:40Z</time>
      </trkpt>
      <trkpt lat="47.56514" lon="6.95302">
        <ele>337.5</ele>
        <time>2025-09-13T10:10:41Z</time>
      </trkpt>
      <trkpt lat="47.56507" lon="6.95294">
        <ele>337.6</ele>
        <time>2025-09-13T10:10:42Z</time>
      </trkpt>
      <trkpt lat="47.56502" lon="6.95286">
        <ele>337.7</ele>
        <time>2025-09-13T10:10:43Z</time>
      </trkpt>
      <trkpt lat="47.56496" lon="6.95279">
        <ele>337.8</ele>
        <time>2025-09-13T10:10:44Z</time>
      </trkpt>
      <trkpt lat="47.5649" lon="6.95271">
        <ele>337.9</ele>
        <time>2025-09-13T10:10:45Z</time>
      </trkpt>
      <trkpt lat="47.56484" lon="6.95264">
        <ele>338.1</ele>
        <time>2025-09-13T10:10:46Z</time>
      </trkpt>
      <trkpt lat="47.56478" lon="6.95256">
        <ele>338.3</ele>
        <time>2025-09-13T10:10:47Z</time>
      </trkpt>
      <trkpt lat="47.56472" lon="6.95249">
        <ele>338.5</ele>
        <time>2025-09-13T10:10:48Z</time>
      </trkpt>
      <trkpt lat="47.56466" lon="6.95242">
        <ele>338.7</ele>
        <time>2025-09-13T10:10:49Z</time>
      </trkpt>
      <trkpt lat="47.56461" lon="6.95235">
        <ele>338.9</ele>
        <time>2025-09-13T10:10:50Z</time>
      </trkpt>
      <trkpt lat="47.56457" lon="6.95227">
        <ele>339.1</ele>
        <time>2025-09-13T10:10:51Z</time>
      </trkpt>
      <trkpt lat="47.56452" lon="6.95219">
        <ele>339.3</ele>
        <time>2025-09-13T10:10:52Z</time>
      </trkpt>
      <trkpt lat="47.56448" lon="6.9521">
        <ele>339.5</ele>
        <time>2025-09-13T10:10:53Z</time>
      </trkpt>
      <trkpt lat="47.56445" lon="6.95201">
        <ele>339.7</ele>
        <time>2025-09-13T10:10:54Z</time>
      </trkpt>
      <trkpt lat="47.56441" lon="6.95192">
        <ele>339.9</ele>
        <time>2025-09-13T10:10:55Z</time>
      </trkpt>
      <trkpt lat="47.56438" lon="6.95183">
        <ele>340.1</ele>
        <time>2025-09-13T10:10:56Z</time>
      </trkpt>
      <trkpt lat="47.56437" lon="6.95174">
        <ele>340.3</ele>
        <time>2025-09-13T10:10:57Z</time>
      </trkpt>
      <trkpt lat="47.56435" lon="6.95166">
        <ele>340.5</ele>
        <time>2025-09-13T10:10:58Z</time>
      </trkpt>
      <trkpt lat="47.56435" lon="6.95155">
        <ele>340.6</ele>
        <time>2025-09-13T10:10:59Z</time>
      </trkpt>
      <trkpt lat="47.56435" lon="6.95146">
        <ele>340.8</ele>
        <time>2025-09-13T10:11:00Z</time>
      </trkpt>
      <trkpt lat="47.56434" lon="6.95137">
        <ele>341</ele>
        <time>2025-09-13T10:11:01Z</time>
      </trkpt>
      <trkpt lat="47.56434" lon="6.95128">
        <ele>341.1</ele>
        <time>2025-09-13T10:11:02Z</time>
      </trkpt>
      <trkpt lat="47.56434" lon="6.95119">
        <ele>341.3</ele>
        <time>2025-09-13T10:11:03Z</time>
      </trkpt>
      <trkpt lat="47.56434" lon="6.9511">
        <ele>341.4</ele>
        <time>2025-09-13T10:11:04Z</time>
      </trkpt>
      <trkpt lat="47.56434" lon="6.95101">
        <ele>341.5</ele>
        <time>2025-09-13T10:11:05Z</time>
      </trkpt>
      <trkpt lat="47.56433" lon="6.95091">
        <ele>341.6</ele>
        <time>2025-09-13T10:11:06Z</time>
      </trkpt>
      <trkpt lat="47.56433" lon="6.95082">
        <ele>341.7</ele>
        <time>2025-09-13T10:11:07Z</time>
      </trkpt>
      <trkpt lat="47.56433" lon="6.95073">
        <ele>341.7</ele>
        <time>2025-09-13T10:11:08Z</time>
      </trkpt>
      <trkpt lat="47.56433" lon="6.95063">
        <ele>341.8</ele>
        <time>2025-09-13T10:11:09Z</time>
      </trkpt>
      <trkpt lat="47.56433" lon="6.95054">
        <ele>341.8</ele>
        <time>2025-09-13T10:11:10Z</time>
      </trkpt>
      <trkpt lat="47.56432" lon="6.95044">
        <ele>341.9</ele>
        <time>2025-09-13T10:11:11Z</time>
      </trkpt>
      <trkpt lat="47.56432" lon="6.95035">
        <ele>341.9</ele>
        <time>2025-09-13T10:11:12Z</time>
      </trkpt>
      <trkpt lat="47.56433" lon="6.95025">
        <ele>342</ele>
        <time>2025-09-13T10:11:13Z</time>
      </trkpt>
      <trkpt lat="47.56433" lon="6.95015">
        <ele>342</ele>
        <time>2025-09-13T10:11:14Z</time>
      </trkpt>
      <trkpt lat="47.56433" lon="6.95005">
        <ele>342</ele>
        <time>2025-09-13T10:11:15Z</time>
      </trkpt>
      <trkpt lat="47.56434" lon="6.94995">
        <ele>342</ele>
        <time>2025-09-13T10:11:16Z</time>
      </trkpt>
      <trkpt lat="47.56435" lon="6.94984">
        <ele>341.9</ele>
        <time>2025-09-13T10:11:17Z</time>
      </trkpt>
      <trkpt lat="47.56435" lon="6.94974">
        <ele>341.9</ele>
        <time>2025-09-13T10:11:18Z</time>
      </trkpt>
      <trkpt lat="47.56436" lon="6.94963">
        <ele>341.8</ele>
        <time>2025-09-13T10:11:19Z</time>
      </trkpt>
      <trkpt lat="47.56437" lon="6.94954">
        <ele>341.8</ele>
        <time>2025-09-13T10:11:20Z</time>
      </trkpt>
      <trkpt lat="47.56439" lon="6.94944">
        <ele>341.7</ele>
        <time>2025-09-13T10:11:21Z</time>
      </trkpt>
      <trkpt lat="47.56442" lon="6.94933">
        <ele>341.6</ele>
        <time>2025-09-13T10:11:22Z</time>
      </trkpt>
      <trkpt lat="47.56444" lon="6.94922">
        <ele>341.5</ele>
        <time>2025-09-13T10:11:23Z</time>
      </trkpt>
      <trkpt lat="47.56447" lon="6.94912">
        <ele>341.4</ele>
        <time>2025-09-13T10:11:24Z</time>
      </trkpt>
      <trkpt lat="47.5645" lon="6.94902">
        <ele>341.3</ele>
        <time>2025-09-13T10:11:25Z</time>
      </trkpt>
      <trkpt lat="47.56453" lon="6.94892">
        <ele>341.2</ele>
        <time>2025-09-13T10:11:26Z</time>
      </trkpt>
      <trkpt lat="47.56457" lon="6.94881">
        <ele>341</ele>
        <time>2025-09-13T10:11:27Z</time>
      </trkpt>
      <trkpt lat="47.56461" lon="6.94872">
        <ele>340.9</ele>
        <time>2025-09-13T10:11:28Z</time>
      </trkpt>
      <trkpt lat="47.56466" lon="6.94862">
        <ele>340.8</ele>
        <time>2025-09-13T10:11:29Z</time>
      </trkpt>
      <trkpt lat="47.5647" lon="6.94852">
        <ele>340.7</ele>
        <time>2025-09-13T10:11:30Z</time>
      </trkpt>
      <trkpt lat="47.56474" lon="6.94845">
        <ele>340.6</ele>
        <time>2025-09-13T10:11:31Z</time>
      </trkpt>
      <trkpt lat="47.5648" lon="6.94836">
        <ele>340.5</ele>
        <time>2025-09-13T10:11:32Z</time>
      </trkpt>
      <trkpt lat="47.56484" lon="6.94827">
        <ele>340.4</ele>
        <time>2025-09-13T10:11:33Z</time>
      </trkpt>
      <trkpt lat="47.56489" lon="6.94818">
        <ele>340.3</ele>
        <time>2025-09-13T10:11:34Z</time>
      </trkpt>
      <trkpt lat="47.56492" lon="6.94808">
        <ele>340.1</ele>
        <time>2025-09-13T10:11:35Z</time>
      </trkpt>
      <trkpt lat="47.56495" lon="6.94797">
        <ele>339.9</ele>
        <time>2025-09-13T10:11:36Z</time>
      </trkpt>
      <trkpt lat="47.56499" lon="6.94787">
        <ele>339.7</ele>
        <time>2025-09-13T10:11:37Z</time>
      </trkpt>
      <trkpt lat="47.56504" lon="6.94777">
        <ele>339.3</ele>
        <time>2025-09-13T10:11:38Z</time>
      </trkpt>
      <trkpt lat="47.56509" lon="6.94769">
        <ele>338.9</ele>
        <time>2025-09-13T10:11:39Z</time>
      </trkpt>
      <trkpt lat="47.56518" lon="6.94765">
        <ele>338.5</ele>
        <time>2025-09-13T10:11:40Z</time>
      </trkpt>
      <trkpt lat="47.56528" lon="6.94761">
        <ele>338.1</ele>
        <time>2025-09-13T10:11:41Z</time>
      </trkpt>
      <trkpt lat="47.56536" lon="6.94754">
        <ele>337.7</ele>
        <time>2025-09-13T10:11:42Z</time>
      </trkpt>
      <trkpt lat="47.56542" lon="6.94743">
        <ele>337.3</ele>
        <time>2025-09-13T10:11:43Z</time>
      </trkpt>
      <trkpt lat="47.56545" lon="6.9473">
        <ele>336.9</ele>
        <time>2025-09-13T10:11:44Z</time>
      </trkpt>
      <trkpt lat="47.56548" lon="6.94717">
        <ele>336.5</ele>
        <time>2025-09-13T10:11:45Z</time>
      </trkpt>
      <trkpt lat="47.56549" lon="6.94703">
        <ele>336.1</ele>
        <time>2025-09-13T10:11:46Z</time>
      </trkpt>
      <trkpt lat="47.56551" lon="6.9469">
        <ele>335.7</ele>
        <time>2025-09-13T10:11:47Z</time>
      </trkpt>
      <trkpt lat="47.56553" lon="6.94678">
        <ele>335.3</ele>
        <time>2025-09-13T10:11:48Z</time>
      </trkpt>
      <trkpt lat="47.56556" lon="6.94664">
        <ele>334.9</ele>
        <time>2025-09-13T10:11:49Z</time>
      </trkpt>
      <trkpt lat="47.56558" lon="6.94651">
        <ele>334.7</ele>
        <time>2025-09-13T10:11:50Z</time>
      </trkpt>
      <trkpt lat="47.5656" lon="6.94637">
        <ele>334.4</ele>
        <time>2025-09-13T10:11:51Z</time>
      </trkpt>
      <trkpt lat="47.56562" lon="6.94623">
        <ele>334.2</ele>
        <time>2025-09-13T10:11:52Z</time>
      </trkpt>
      <trkpt lat="47.56562" lon="6.9461">
        <ele>334</ele>
        <time>2025-09-13T10:11:53Z</time>
      </trkpt>
      <trkpt lat="47.56562" lon="6.94596">
        <ele>333.8</ele>
        <time>2025-09-13T10:11:54Z</time>
      </trkpt>
      <trkpt lat="47.56563" lon="6.94582">
        <ele>333.6</ele>
        <time>2025-09-13T10:11:55Z</time>
      </trkpt>
      <trkpt lat="47.56563" lon="6.94568">
        <ele>333.5</ele>
        <time>2025-09-13T10:11:56Z</time>
      </trkpt>
      <trkpt lat="47.56563" lon="6.94556">
        <ele>333.4</ele>
        <time>2025-09-13T10:11:57Z</time>
      </trkpt>
      <trkpt lat="47.56562" lon="6.94543">
        <ele>333.4</ele>
        <time>2025-09-13T10:11:58Z</time>
      </trkpt>
      <trkpt lat="47.56563" lon="6.94531">
        <ele>333.3</ele>
        <time>2025-09-13T10:11:59Z</time>
      </trkpt>
      <trkpt lat="47.56563" lon="6.94519">
        <ele>333.3</ele>
        <time>2025-09-13T10:12:00Z</time>
      </trkpt>
      <trkpt lat="47.56562" lon="6.94508">
        <ele>333.3</ele>
        <time>2025-09-13T10:12:01Z</time>
      </trkpt>
      <trkpt lat="47.56563" lon="6.94497">
        <ele>333.3</ele>
        <time>2025-09-13T10:12:02Z</time>
      </trkpt>
      <trkpt lat="47.56563" lon="6.94487">
        <ele>333.3</ele>
        <time>2025-09-13T10:12:03Z</time>
      </trkpt>
      <trkpt lat="47.56564" lon="6.94477">
        <ele>333.4</ele>
        <time>2025-09-13T10:12:04Z</time>
      </trkpt>
      <trkpt lat="47.56564" lon="6.94468">
        <ele>333.4</ele>
        <time>2025-09-13T10:12:05Z</time>
      </trkpt>
      <trkpt lat="47.56563" lon="6.94461">
        <ele>333.5</ele>
        <time>2025-09-13T10:12:06Z</time>
      </trkpt>
      <trkpt lat="47.56564" lon="6.94454">
        <ele>333.5</ele>
        <time>2025-09-13T10:12:07Z</time>
      </trkpt>
      <trkpt lat="47.56564" lon="6.9445">
        <ele>333.6</ele>
        <time>2025-09-13T10:12:08Z</time>
      </trkpt>
      <trkpt lat="47.56564" lon="6.94449">
        <ele>333.6</ele>
        <time>2025-09-13T10:12:09Z</time>
      </trkpt>
      <trkpt lat="47.56563" lon="6.94442">
        <ele>333.6</ele>
        <time>2025-09-13T10:12:10Z</time>
      </trkpt>
      <trkpt lat="47.56563" lon="6.94438">
        <ele>333.6</ele>
        <time>2025-09-13T10:12:11Z</time>
      </trkpt>
      <trkpt lat="47.56562" lon="6.94432">
        <ele>333.6</ele>
        <time>2025-09-13T10:12:12Z</time>
      </trkpt>
      <trkpt lat="47.56558" lon="6.94425">
        <ele>333.6</ele>
        <time>2025-09-13T10:12:13Z</time>
      </trkpt>
      <trkpt lat="47.56553" lon="6.94419">
        <ele>333.6</ele>
        <time>2025-09-13T10:12:14Z</time>
      </trkpt>
      <trkpt lat="47.56547" lon="6.94415">
        <ele>333.5</ele>
        <time>2025-09-13T10:12:15Z</time>
      </trkpt>
      <trkpt lat="47.56542" lon="6.94413">
        <ele>333.5</ele>
        <time>2025-09-13T10:12:16Z</time>
      </trkpt>
      <trkpt lat="47.56535" lon="6.9441">
        <ele>333.5</ele>
        <time>2025-09-13T10:12:17Z</time>
      </trkpt>
      <trkpt lat="47.56527" lon="6.9441">
        <ele>333.6</ele>
        <time>2025-09-13T10:12:18Z</time>
      </trkpt>
      <trkpt lat="47.56521" lon="6.94408">
        <ele>333.6</ele>
        <time>2025-09-13T10:12:19Z</time>
      </trkpt>
      <trkpt lat="47.56514" lon="6.94405">
        <ele>333.7</ele>
        <time>2025-09-13T10:12:21Z</time>
      </trkpt>
      <trkpt lat="47.56508" lon="6.94402">
        <ele>333.8</ele>
        <time>2025-09-13T10:12:22Z</time>
      </trkpt>
      <trkpt lat="47.565" lon="6.94399">
        <ele>333.9</ele>
        <time>2025-09-13T10:12:23Z</time>
      </trkpt>
      <trkpt lat="47.56494" lon="6.94396">
        <ele>334.1</ele>
        <time>2025-09-13T10:12:24Z</time>
      </trkpt>
      <trkpt lat="47.56486" lon="6.94393">
        <ele>334.3</ele>
        <time>2025-09-13T10:12:25Z</time>
      </trkpt>
      <trkpt lat="47.56479" lon="6.94389">
        <ele>334.5</ele>
        <time>2025-09-13T10:12:26Z</time>
      </trkpt>
      <trkpt lat="47.56474" lon="6.94384">
        <ele>334.7</ele>
        <time>2025-09-13T10:12:27Z</time>
      </trkpt>
      <trkpt lat="47.56469" lon="6.94378">
        <ele>335</ele>
        <time>2025-09-13T10:12:28Z</time>
      </trkpt>
      <trkpt lat="47.56463" lon="6.94371">
        <ele>335.3</ele>
        <time>2025-09-13T10:12:29Z</time>
      </trkpt>
      <trkpt lat="47.56458" lon="6.94364">
        <ele>335.6</ele>
        <time>2025-09-13T10:12:30Z</time>
      </trkpt>
      <trkpt lat="47.56454" lon="6.94357">
        <ele>336</ele>
        <time>2025-09-13T10:12:31Z</time>
      </trkpt>
      <trkpt lat="47.56451" lon="6.9435">
        <ele>336.3</ele>
        <time>2025-09-13T10:12:32Z</time>
      </trkpt>
      <trkpt lat="47.56447" lon="6.94343">
        <ele>336.7</ele>
        <time>2025-09-13T10:12:33Z</time>
      </trkpt>
      <trkpt lat="47.56443" lon="6.94336">
        <ele>337</ele>
        <time>2025-09-13T10:12:34Z</time>
      </trkpt>
      <trkpt lat="47.5644" lon="6.94329">
        <ele>337.4</ele>
        <time>2025-09-13T10:12:35Z</time>
      </trkpt>
      <trkpt lat="47.56436" lon="6.94323">
        <ele>337.7</ele>
        <time>2025-09-13T10:12:36Z</time>
      </trkpt>
      <trkpt lat="47.56432" lon="6.94316">
        <ele>337.8</ele>
        <time>2025-09-13T10:12:37Z</time>
      </trkpt>
      <trkpt lat="47.56428" lon="6.9431">
        <ele>337.9</ele>
        <time>2025-09-13T10:12:38Z</time>
      </trkpt>
      <trkpt lat="47.56424" lon="6.94304">
        <ele>338.3</ele>
        <time>2025-09-13T10:12:39Z</time>
      </trkpt>
      <trkpt lat="47.5642" lon="6.94299">
        <ele>338.6</ele>
        <time>2025-09-13T10:12:40Z</time>
      </trkpt>
      <trkpt lat="47.56416" lon="6.94294">
        <ele>339</ele>
        <time>2025-09-13T10:12:41Z</time>
      </trkpt>
      <trkpt lat="47.56412" lon="6.94288">
        <ele>339.3</ele>
        <time>2025-09-13T10:12:42Z</time>
      </trkpt>
      <trkpt lat="47.56409" lon="6.94284">
        <ele>339.6</ele>
        <time>2025-09-13T10:12:43Z</time>
      </trkpt>
      <trkpt lat="47.56405" lon="6.94279">
        <ele>340</ele>
        <time>2025-09-13T10:12:44Z</time>
      </trkpt>
      <trkpt lat="47.56401" lon="6.94274">
        <ele>340.3</ele>
        <time>2025-09-13T10:12:45Z</time>
      </trkpt>
      <trkpt lat="47.56397" lon="6.94271">
        <ele>340.6</ele>
        <time>2025-09-13T10:12:46Z</time>
      </trkpt>
      <trkpt lat="47.56399" lon="6.9427">
        <ele>340.8</ele>
        <time>2025-09-13T10:12:47Z</time>
      </trkpt>
      <trkpt lat="47.56396" lon="6.94266">
        <ele>341</ele>
        <time>2025-09-13T10:12:48Z</time>
      </trkpt>
      <trkpt lat="47.56393" lon="6.94264">
        <ele>341.2</ele>
        <time>2025-09-13T10:12:49Z</time>
      </trkpt>
      <trkpt lat="47.56392" lon="6.94263">
        <ele>341.3</ele>
        <time>2025-09-13T10:12:50Z</time>
      </trkpt>
      <trkpt lat="47.56389" lon="6.9426">
        <ele>341.5</ele>
        <time>2025-09-13T10:12:51Z</time>
      </trkpt>
      <trkpt lat="47.56386" lon="6.94258">
        <ele>341.7</ele>
        <time>2025-09-13T10:12:52Z</time>
      </trkpt>
      <trkpt lat="47.56379" lon="6.94253">
        <ele>342.1</ele>
        <time>2025-09-13T10:12:53Z</time>
      </trkpt>
      <trkpt lat="47.56372" lon="6.94248">
        <ele>342.5</ele>
        <time>2025-09-13T10:12:54Z</time>
      </trkpt>
      <trkpt lat="47.56365" lon="6.94245">
        <ele>342.8</ele>
        <time>2025-09-13T10:12:55Z</time>
      </trkpt>
      <trkpt lat="47.56361" lon="6.94241">
        <ele>343</ele>
        <time>2025-09-13T10:12:56Z</time>
      </trkpt>
      <trkpt lat="47.56354" lon="6.94236">
        <ele>343.3</ele>
        <time>2025-09-13T10:12:57Z</time>
      </trkpt>
      <trkpt lat="47.56348" lon="6.94234">
        <ele>343.5</ele>
        <time>2025-09-13T10:12:58Z</time>
      </trkpt>
      <trkpt lat="47.56342" lon="6.94232">
        <ele>343.7</ele>
        <time>2025-09-13T10:12:59Z</time>
      </trkpt>
      <trkpt lat="47.56337" lon="6.94231">
        <ele>343.8</ele>
        <time>2025-09-13T10:13:00Z</time>
      </trkpt>
      <trkpt lat="47.56332" lon="6.9423">
        <ele>344</ele>
        <time>2025-09-13T10:13:01Z</time>
      </trkpt>
      <trkpt lat="47.56326" lon="6.9423">
        <ele>344.1</ele>
        <time>2025-09-13T10:13:02Z</time>
      </trkpt>
      <trkpt lat="47.56319" lon="6.94228">
        <ele>344.3</ele>
        <time>2025-09-13T10:13:03Z</time>
      </trkpt>
      <trkpt lat="47.56313" lon="6.94226">
        <ele>344.4</ele>
        <time>2025-09-13T10:13:04Z</time>
      </trkpt>
      <trkpt lat="47.56308" lon="6.94226">
        <ele>344.6</ele>
        <time>2025-09-13T10:13:05Z</time>
      </trkpt>
      <trkpt lat="47.56303" lon="6.94224">
        <ele>344.6</ele>
        <time>2025-09-13T10:13:06Z</time>
      </trkpt>
      <trkpt lat="47.56297" lon="6.94223">
        <ele>344.7</ele>
        <time>2025-09-13T10:13:07Z</time>
      </trkpt>
      <trkpt lat="47.56292" lon="6.94222">
        <ele>344.8</ele>
        <time>2025-09-13T10:13:08Z</time>
      </trkpt>
      <trkpt lat="47.56286" lon="6.9422">
        <ele>344.9</ele>
        <time>2025-09-13T10:13:09Z</time>
      </trkpt>
      <trkpt lat="47.56281" lon="6.94218">
        <ele>345</ele>
        <time>2025-09-13T10:13:10Z</time>
      </trkpt>
      <trkpt lat="47.56275" lon="6.94216">
        <ele>345.1</ele>
        <time>2025-09-13T10:13:11Z</time>
      </trkpt>
      <trkpt lat="47.5627" lon="6.94213">
        <ele>345.2</ele>
        <time>2025-09-13T10:13:12Z</time>
      </trkpt>
      <trkpt lat="47.5626" lon="6.94208">
        <ele>345.4</ele>
        <time>2025-09-13T10:13:13Z</time>
      </trkpt>
      <trkpt lat="47.56254" lon="6.94205">
        <ele>345.6</ele>
        <time>2025-09-13T10:13:14Z</time>
      </trkpt>
      <trkpt lat="47.56249" lon="6.94203">
        <ele>345.6</ele>
        <time>2025-09-13T10:13:15Z</time>
      </trkpt>
      <trkpt lat="47.56243" lon="6.942">
        <ele>345.7</ele>
        <time>2025-09-13T10:13:16Z</time>
      </trkpt>
      <trkpt lat="47.56238" lon="6.94197">
        <ele>345.8</ele>
        <time>2025-09-13T10:13:17Z</time>
      </trkpt>
      <trkpt lat="47.56232" lon="6.94194">
        <ele>345.9</ele>
        <time>2025-09-13T10:13:18Z</time>
      </trkpt>
      <trkpt lat="47.56226" lon="6.94191">
        <ele>346</ele>
        <time>2025-09-13T10:13:19Z</time>
      </trkpt>
      <trkpt lat="47.56221" lon="6.94187">
        <ele>346.1</ele>
        <time>2025-09-13T10:13:20Z</time>
      </trkpt>
      <trkpt lat="47.56216" lon="6.94184">
        <ele>346.3</ele>
        <time>2025-09-13T10:13:21Z</time>
      </trkpt>
      <trkpt lat="47.56211" lon="6.9418">
        <ele>346.5</ele>
        <time>2025-09-13T10:13:22Z</time>
      </trkpt>
      <trkpt lat="47.56206" lon="6.94177">
        <ele>346.6</ele>
        <time>2025-09-13T10:13:23Z</time>
      </trkpt>
      <trkpt lat="47.56202" lon="6.94173">
        <ele>346.8</ele>
        <time>2025-09-13T10:13:24Z</time>
      </trkpt>
      <trkpt lat="47.56198" lon="6.9417">
        <ele>347</ele>
        <time>2025-09-13T10:13:25Z</time>
      </trkpt>
      <trkpt lat="47.56192" lon="6.94167">
        <ele>347.2</ele>
        <time>2025-09-13T10:13:26Z</time>
      </trkpt>
      <trkpt lat="47.56187" lon="6.94164">
        <ele>347.4</ele>
        <time>2025-09-13T10:13:27Z</time>
      </trkpt>
      <trkpt lat="47.56182" lon="6.9416">
        <ele>347.7</ele>
        <time>2025-09-13T10:13:28Z</time>
      </trkpt>
      <trkpt lat="47.56177" lon="6.94157">
        <ele>347.9</ele>
        <time>2025-09-13T10:13:29Z</time>
      </trkpt>
      <trkpt lat="47.56172" lon="6.94153">
        <ele>348.2</ele>
        <time>2025-09-13T10:13:30Z</time>
      </trkpt>
      <trkpt lat="47.56168" lon="6.9415">
        <ele>348.5</ele>
        <time>2025-09-13T10:13:31Z</time>
      </trkpt>
      <trkpt lat="47.5617" lon="6.9415">
        <ele>348.6</ele>
        <time>2025-09-13T10:13:32Z</time>
      </trkpt>
      <trkpt lat="47.56166" lon="6.94146">
        <ele>348.9</ele>
        <time>2025-09-13T10:13:33Z</time>
      </trkpt>
      <trkpt lat="47.56164" lon="6.94143">
        <ele>349.1</ele>
        <time>2025-09-13T10:13:34Z</time>
      </trkpt>
      <trkpt lat="47.56163" lon="6.94141">
        <ele>349.2</ele>
        <time>2025-09-13T10:13:35Z</time>
      </trkpt>
      <trkpt lat="47.5616" lon="6.94138">
        <ele>349.4</ele>
        <time>2025-09-13T10:13:36Z</time>
      </trkpt>
      <trkpt lat="47.56156" lon="6.94135">
        <ele>349.7</ele>
        <time>2025-09-13T10:13:37Z</time>
      </trkpt>
      <trkpt lat="47.56154" lon="6.94134">
        <ele>349.8</ele>
        <time>2025-09-13T10:13:38Z</time>
      </trkpt>
      <trkpt lat="47.56148" lon="6.94133">
        <ele>350.1</ele>
        <time>2025-09-13T10:13:39Z</time>
      </trkpt>
      <trkpt lat="47.56146" lon="6.94131">
        <ele>350.3</ele>
        <time>2025-09-13T10:13:40Z</time>
      </trkpt>
      <trkpt lat="47.56139" lon="6.94124">
        <ele>350.7</ele>
        <time>2025-09-13T10:13:41Z</time>
      </trkpt>
      <trkpt lat="47.56135" lon="6.94123">
        <ele>350.8</ele>
        <time>2025-09-13T10:13:42Z</time>
      </trkpt>
      <trkpt lat="47.56133" lon="6.94122">
        <ele>350.9</ele>
        <time>2025-09-13T10:13:43Z</time>
      </trkpt>
      <trkpt lat="47.56129" lon="6.9412">
        <ele>351.1</ele>
        <time>2025-09-13T10:13:44Z</time>
      </trkpt>
      <trkpt lat="47.56127" lon="6.94119">
        <ele>351.2</ele>
        <time>2025-09-13T10:13:45Z</time>
      </trkpt>
      <trkpt lat="47.56123" lon="6.94118">
        <ele>351.3</ele>
        <time>2025-09-13T10:13:46Z</time>
      </trkpt>
      <trkpt lat="47.5612" lon="6.94116">
        <ele>351.4</ele>
        <time>2025-09-13T10:13:47Z</time>
      </trkpt>
      <trkpt lat="47.56114" lon="6.94115">
        <ele>351.6</ele>
        <time>2025-09-13T10:13:48Z</time>
      </trkpt>
      <trkpt lat="47.56112" lon="6.94112">
        <ele>351.7</ele>
        <time>2025-09-13T10:13:49Z</time>
      </trkpt>
      <trkpt lat="47.5611" lon="6.9411">
        <ele>351.7</ele>
        <time>2025-09-13T10:13:50Z</time>
      </trkpt>
      <trkpt lat="47.56109" lon="6.94106">
        <ele>351.8</ele>
        <time>2025-09-13T10:13:51Z</time>
      </trkpt>
      <trkpt lat="47.56107" lon="6.94104">
        <ele>351.9</ele>
        <time>2025-09-13T10:13:52Z</time>
      </trkpt>
      <trkpt lat="47.56102" lon="6.94107">
        <ele>352</ele>
        <time>2025-09-13T10:13:53Z</time>
      </trkpt>
      <trkpt lat="47.56098" lon="6.94106">
        <ele>352.1</ele>
        <time>2025-09-13T10:13:54Z</time>
      </trkpt>
      <trkpt lat="47.56096" lon="6.94106">
        <ele>352.1</ele>
        <time>2025-09-13T10:13:55Z</time>
      </trkpt>
      <trkpt lat="47.56093" lon="6.94101">
        <ele>352.2</ele>
        <time>2025-09-13T10:13:56Z</time>
      </trkpt>
      <trkpt lat="47.56092" lon="6.94097">
        <ele>352.2</ele>
        <time>2025-09-13T10:13:57Z</time>
      </trkpt>
      <trkpt lat="47.56004" lon="6.9411">
        <ele>349.2</ele>
        <time>2025-09-13T10:13:58Z</time>
      </trkpt>
      <trkpt lat="47.55998" lon="6.9411">
        <ele>348.8</ele>
        <time>2025-09-13T10:13:59Z</time>
      </trkpt>
      <trkpt lat="47.55992" lon="6.94111">
        <ele>348.5</ele>
        <time>2025-09-13T10:14:00Z</time>
      </trkpt>
      <trkpt lat="47.55983" lon="6.9411">
        <ele>348</ele>
        <time>2025-09-13T10:14:01Z</time>
      </trkpt>
      <trkpt lat="47.55974" lon="6.9411">
        <ele>347.5</ele>
        <time>2025-09-13T10:14:02Z</time>
      </trkpt>
      <trkpt lat="47.55965" lon="6.94111">
        <ele>347</ele>
        <time>2025-09-13T10:14:03Z</time>
      </trkpt>
      <trkpt lat="47.55955" lon="6.9411">
        <ele>346.5</ele>
        <time>2025-09-13T10:14:04Z</time>
      </trkpt>
      <trkpt lat="47.55944" lon="6.9411">
        <ele>346</ele>
        <time>2025-09-13T10:14:05Z</time>
      </trkpt>
      <trkpt lat="47.55934" lon="6.9411">
        <ele>345.7</ele>
        <time>2025-09-13T10:14:06Z</time>
      </trkpt>
      <trkpt lat="47.55925" lon="6.9411">
        <ele>345.3</ele>
        <time>2025-09-13T10:14:07Z</time>
      </trkpt>
      <trkpt lat="47.55915" lon="6.9411">
        <ele>344.9</ele>
        <time>2025-09-13T10:14:08Z</time>
      </trkpt>
      <trkpt lat="47.55905" lon="6.9411">
        <ele>344.5</ele>
        <time>2025-09-13T10:14:09Z</time>
      </trkpt>
      <trkpt lat="47.55895" lon="6.9411">
        <ele>344.1</ele>
        <time>2025-09-13T10:14:10Z</time>
      </trkpt>
      <trkpt lat="47.55885" lon="6.9411">
        <ele>343.8</ele>
        <time>2025-09-13T10:14:11Z</time>
      </trkpt>
      <trkpt lat="47.55875" lon="6.9411">
        <ele>343.5</ele>
        <time>2025-09-13T10:14:12Z</time>
      </trkpt>
      <trkpt lat="47.55866" lon="6.9411">
        <ele>343.2</ele>
        <time>2025-09-13T10:14:13Z</time>
      </trkpt>
      <trkpt lat="47.55855" lon="6.94107">
        <ele>343.1</ele>
        <time>2025-09-13T10:14:14Z</time>
      </trkpt>
      <trkpt lat="47.55847" lon="6.94103">
        <ele>343</ele>
        <time>2025-09-13T10:14:15Z</time>
      </trkpt>
      <trkpt lat="47.55838" lon="6.94096">
        <ele>342.9</ele>
        <time>2025-09-13T10:14:16Z</time>
      </trkpt>
      <trkpt lat="47.55834" lon="6.94094">
        <ele>342.9</ele>
        <time>2025-09-13T10:14:17Z</time>
      </trkpt>
      <trkpt lat="47.55826" lon="6.94085">
        <ele>343</ele>
        <time>2025-09-13T10:14:18Z</time>
      </trkpt>
      <trkpt lat="47.55819" lon="6.94076">
        <ele>343</ele>
        <time>2025-09-13T10:14:19Z</time>
      </trkpt>
      <trkpt lat="47.55812" lon="6.94067">
        <ele>343</ele>
        <time>2025-09-13T10:14:20Z</time>
      </trkpt>
      <trkpt lat="47.55806" lon="6.94056">
        <ele>343.1</ele>
        <time>2025-09-13T10:14:21Z</time>
      </trkpt>
      <trkpt lat="47.55799" lon="6.94049">
        <ele>343.1</ele>
        <time>2025-09-13T10:14:22Z</time>
      </trkpt>
      <trkpt lat="47.55796" lon="6.9404">
        <ele>343.1</ele>
        <time>2025-09-13T10:14:23Z</time>
      </trkpt>
      <trkpt lat="47.5579" lon="6.94032">
        <ele>343.1</ele>
        <time>2025-09-13T10:14:24Z</time>
      </trkpt>
      <trkpt lat="47.55783" lon="6.94024">
        <ele>343.2</ele>
        <time>2025-09-13T10:14:26Z</time>
      </trkpt>
      <trkpt lat="47.55775" lon="6.94016">
        <ele>343.3</ele>
        <time>2025-09-13T10:14:27Z</time>
      </trkpt>
      <trkpt lat="47.55767" lon="6.94008">
        <ele>343.5</ele>
        <time>2025-09-13T10:14:28Z</time>
      </trkpt>
      <trkpt lat="47.55762" lon="6.94">
        <ele>343.6</ele>
        <time>2025-09-13T10:14:29Z</time>
      </trkpt>
      <trkpt lat="47.55756" lon="6.93993">
        <ele>343.8</ele>
        <time>2025-09-13T10:14:30Z</time>
      </trkpt>
      <trkpt lat="47.5575" lon="6.93988">
        <ele>344</ele>
        <time>2025-09-13T10:14:31Z</time>
      </trkpt>
      <trkpt lat="47.55742" lon="6.93983">
        <ele>344.3</ele>
        <time>2025-09-13T10:14:32Z</time>
      </trkpt>
      <trkpt lat="47.55734" lon="6.93981">
        <ele>344.5</ele>
        <time>2025-09-13T10:14:33Z</time>
      </trkpt>
      <trkpt lat="47.55727" lon="6.93978">
        <ele>344.7</ele>
        <time>2025-09-13T10:14:34Z</time>
      </trkpt>
      <trkpt lat="47.5572" lon="6.93976">
        <ele>345</ele>
        <time>2025-09-13T10:14:35Z</time>
      </trkpt>
      <trkpt lat="47.55713" lon="6.93973">
        <ele>345.2</ele>
        <time>2025-09-13T10:14:36Z</time>
      </trkpt>
      <trkpt lat="47.55707" lon="6.93969">
        <ele>345.4</ele>
        <time>2025-09-13T10:14:37Z</time>
      </trkpt>
      <trkpt lat="47.55702" lon="6.93965">
        <ele>345.7</ele>
        <time>2025-09-13T10:14:38Z</time>
      </trkpt>
      <trkpt lat="47.55695" lon="6.93963">
        <ele>345.9</ele>
        <time>2025-09-13T10:14:39Z</time>
      </trkpt>
      <trkpt lat="47.55688" lon="6.93961">
        <ele>346.1</ele>
        <time>2025-09-13T10:14:40Z</time>
      </trkpt>
      <trkpt lat="47.55681" lon="6.9396">
        <ele>346.3</ele>
        <time>2025-09-13T10:14:41Z</time>
      </trkpt>
      <trkpt lat="47.55676" lon="6.93957">
        <ele>346.5</ele>
        <time>2025-09-13T10:14:42Z</time>
      </trkpt>
      <trkpt lat="47.5567" lon="6.93952">
        <ele>346.5</ele>
        <time>2025-09-13T10:14:43Z</time>
      </trkpt>
      <trkpt lat="47.55663" lon="6.93949">
        <ele>346.6</ele>
        <time>2025-09-13T10:14:44Z</time>
      </trkpt>
      <trkpt lat="47.55657" lon="6.93946">
        <ele>346.7</ele>
        <time>2025-09-13T10:14:45Z</time>
      </trkpt>
      <trkpt lat="47.5565" lon="6.93942">
        <ele>346.8</ele>
        <time>2025-09-13T10:14:46Z</time>
      </trkpt>
      <trkpt lat="47.55645" lon="6.93939">
        <ele>346.8</ele>
        <time>2025-09-13T10:14:47Z</time>
      </trkpt>
      <trkpt lat="47.55638" lon="6.93936">
        <ele>346.9</ele>
        <time>2025-09-13T10:14:48Z</time>
      </trkpt>
      <trkpt lat="47.55633" lon="6.93933">
        <ele>347</ele>
        <time>2025-09-13T10:14:49Z</time>
      </trkpt>
      <trkpt lat="47.55626" lon="6.9393">
        <ele>347.2</ele>
        <time>2025-09-13T10:14:50Z</time>
      </trkpt>
      <trkpt lat="47.5562" lon="6.93928">
        <ele>347.3</ele>
        <time>2025-09-13T10:14:51Z</time>
      </trkpt>
      <trkpt lat="47.55614" lon="6.93925">
        <ele>347.4</ele>
        <time>2025-09-13T10:14:52Z</time>
      </trkpt>
      <trkpt lat="47.55608" lon="6.93922">
        <ele>347.6</ele>
        <time>2025-09-13T10:14:53Z</time>
      </trkpt>
      <trkpt lat="47.55596" lon="6.93917">
        <ele>347.9</ele>
        <time>2025-09-13T10:14:54Z</time>
      </trkpt>
      <trkpt lat="47.5559" lon="6.93914">
        <ele>348.1</ele>
        <time>2025-09-13T10:14:55Z</time>
      </trkpt>
      <trkpt lat="47.55585" lon="6.93912">
        <ele>348.3</ele>
        <time>2025-09-13T10:14:56Z</time>
      </trkpt>
      <trkpt lat="47.55579" lon="6.93909">
        <ele>348.5</ele>
        <time>2025-09-13T10:14:57Z</time>
      </trkpt>
      <trkpt lat="47.55574" lon="6.93907">
        <ele>348.7</ele>
        <time>2025-09-13T10:14:58Z</time>
      </trkpt>
      <trkpt lat="47.55567" lon="6.93903">
        <ele>348.9</ele>
        <time>2025-09-13T10:14:59Z</time>
      </trkpt>
      <trkpt lat="47.55561" lon="6.93901">
        <ele>349.1</ele>
        <time>2025-09-13T10:15:00Z</time>
      </trkpt>
      <trkpt lat="47.55555" lon="6.93897">
        <ele>349.3</ele>
        <time>2025-09-13T10:15:01Z</time>
      </trkpt>
      <trkpt lat="47.5555" lon="6.93895">
        <ele>349.4</ele>
        <time>2025-09-13T10:15:02Z</time>
      </trkpt>
      <trkpt lat="47.55544" lon="6.93893">
        <ele>349.6</ele>
        <time>2025-09-13T10:15:03Z</time>
      </trkpt>
      <trkpt lat="47.55539" lon="6.9389">
        <ele>349.8</ele>
        <time>2025-09-13T10:15:04Z</time>
      </trkpt>
      <trkpt lat="47.55533" lon="6.93887">
        <ele>349.9</ele>
        <time>2025-09-13T10:15:05Z</time>
      </trkpt>
      <trkpt lat="47.55528" lon="6.93883">
        <ele>350.1</ele>
        <time>2025-09-13T10:15:06Z</time>
      </trkpt>
      <trkpt lat="47.55523" lon="6.93878">
        <ele>350.3</ele>
        <time>2025-09-13T10:15:07Z</time>
      </trkpt>
      <trkpt lat="47.55518" lon="6.93874">
        <ele>350.5</ele>
        <time>2025-09-13T10:15:08Z</time>
      </trkpt>
      <trkpt lat="47.55513" lon="6.93869">
        <ele>350.7</ele>
        <time>2025-09-13T10:15:09Z</time>
      </trkpt>
      <trkpt lat="47.55509" lon="6.93864">
        <ele>350.9</ele>
        <time>2025-09-13T10:15:10Z</time>
      </trkpt>
      <trkpt lat="47.55504" lon="6.9386">
        <ele>351</ele>
        <time>2025-09-13T10:15:11Z</time>
      </trkpt>
      <trkpt lat="47.55499" lon="6.93854">
        <ele>351.2</ele>
        <time>2025-09-13T10:15:12Z</time>
      </trkpt>
      <trkpt lat="47.55495" lon="6.93847">
        <ele>351.4</ele>
        <time>2025-09-13T10:15:13Z</time>
      </trkpt>
      <trkpt lat="47.55491" lon="6.93839">
        <ele>351.6</ele>
        <time>2025-09-13T10:15:14Z</time>
      </trkpt>
      <trkpt lat="47.55491" lon="6.9383">
        <ele>351.7</ele>
        <time>2025-09-13T10:15:15Z</time>
      </trkpt>
      <trkpt lat="47.55491" lon="6.93822">
        <ele>351.8</ele>
        <time>2025-09-13T10:15:16Z</time>
      </trkpt>
      <trkpt lat="47.55491" lon="6.93811">
        <ele>352</ele>
        <time>2025-09-13T10:15:17Z</time>
      </trkpt>
      <trkpt lat="47.55489" lon="6.93802">
        <ele>352.1</ele>
        <time>2025-09-13T10:15:18Z</time>
      </trkpt>
      <trkpt lat="47.55484" lon="6.93797">
        <ele>352.3</ele>
        <time>2025-09-13T10:15:19Z</time>
      </trkpt>
      <trkpt lat="47.55477" lon="6.93796">
        <ele>352.5</ele>
        <time>2025-09-13T10:15:20Z</time>
      </trkpt>
      <trkpt lat="47.5547" lon="6.93797">
        <ele>352.7</ele>
        <time>2025-09-13T10:15:21Z</time>
      </trkpt>
      <trkpt lat="47.55463" lon="6.93801">
        <ele>352.8</ele>
        <time>2025-09-13T10:15:22Z</time>
      </trkpt>
      <trkpt lat="47.55458" lon="6.93807">
        <ele>352.9</ele>
        <time>2025-09-13T10:15:23Z</time>
      </trkpt>
      <trkpt lat="47.55453" lon="6.93814">
        <ele>353</ele>
        <time>2025-09-13T10:15:24Z</time>
      </trkpt>
      <trkpt lat="47.55448" lon="6.93819">
        <ele>353</ele>
        <time>2025-09-13T10:15:25Z</time>
      </trkpt>
      <trkpt lat="47.55441" lon="6.93822">
        <ele>353.1</ele>
        <time>2025-09-13T10:15:26Z</time>
      </trkpt>
      <trkpt lat="47.55435" lon="6.93822">
        <ele>353.1</ele>
        <time>2025-09-13T10:15:27Z</time>
      </trkpt>
      <trkpt lat="47.55427" lon="6.93817">
        <ele>353.3</ele>
        <time>2025-09-13T10:15:28Z</time>
      </trkpt>
      <trkpt lat="47.55421" lon="6.93809">
        <ele>353.5</ele>
        <time>2025-09-13T10:15:29Z</time>
      </trkpt>
      <trkpt lat="47.55417" lon="6.938">
        <ele>353.7</ele>
        <time>2025-09-13T10:15:30Z</time>
      </trkpt>
      <trkpt lat="47.55412" lon="6.93792">
        <ele>354</ele>
        <time>2025-09-13T10:15:31Z</time>
      </trkpt>
      <trkpt lat="47.55409" lon="6.93784">
        <ele>354.3</ele>
        <time>2025-09-13T10:15:32Z</time>
      </trkpt>
      <trkpt lat="47.55405" lon="6.93777">
        <ele>354.6</ele>
        <time>2025-09-13T10:15:33Z</time>
      </trkpt>
      <trkpt lat="47.554" lon="6.9377">
        <ele>355</ele>
        <time>2025-09-13T10:15:34Z</time>
      </trkpt>
      <trkpt lat="47.55397" lon="6.93764">
        <ele>355.3</ele>
        <time>2025-09-13T10:15:35Z</time>
      </trkpt>
      <trkpt lat="47.55392" lon="6.93758">
        <ele>355.6</ele>
        <time>2025-09-13T10:15:36Z</time>
      </trkpt>
      <trkpt lat="47.55388" lon="6.93752">
        <ele>356</ele>
        <time>2025-09-13T10:15:37Z</time>
      </trkpt>
      <trkpt lat="47.55383" lon="6.93746">
        <ele>356.3</ele>
        <time>2025-09-13T10:15:38Z</time>
      </trkpt>
      <trkpt lat="47.55378" lon="6.9374">
        <ele>356.7</ele>
        <time>2025-09-13T10:15:39Z</time>
      </trkpt>
      <trkpt lat="47.55374" lon="6.93735">
        <ele>357</ele>
        <time>2025-09-13T10:15:40Z</time>
      </trkpt>
      <trkpt lat="47.55369" lon="6.9373">
        <ele>357.4</ele>
        <time>2025-09-13T10:15:41Z</time>
      </trkpt>
      <trkpt lat="47.55364" lon="6.93726">
        <ele>357.7</ele>
        <time>2025-09-13T10:15:42Z</time>
      </trkpt>
      <trkpt lat="47.55359" lon="6.93722">
        <ele>358</ele>
        <time>2025-09-13T10:15:43Z</time>
      </trkpt>
      <trkpt lat="47.55354" lon="6.93719">
        <ele>358.3</ele>
        <time>2025-09-13T10:15:44Z</time>
      </trkpt>
      <trkpt lat="47.55348" lon="6.93716">
        <ele>358.6</ele>
        <time>2025-09-13T10:15:45Z</time>
      </trkpt>
      <trkpt lat="47.55343" lon="6.93714">
        <ele>358.9</ele>
        <time>2025-09-13T10:15:46Z</time>
      </trkpt>
      <trkpt lat="47.55338" lon="6.93713">
        <ele>359.2</ele>
        <time>2025-09-13T10:15:47Z</time>
      </trkpt>
      <trkpt lat="47.55332" lon="6.93711">
        <ele>359.5</ele>
        <time>2025-09-13T10:15:48Z</time>
      </trkpt>
      <trkpt lat="47.55326" lon="6.93709">
        <ele>359.7</ele>
        <time>2025-09-13T10:15:49Z</time>
      </trkpt>
      <trkpt lat="47.55322" lon="6.93706">
        <ele>360</ele>
        <time>2025-09-13T10:15:50Z</time>
      </trkpt>
      <trkpt lat="47.55316" lon="6.93705">
        <ele>360.3</ele>
        <time>2025-09-13T10:15:51Z</time>
      </trkpt>
      <trkpt lat="47.55309" lon="6.93707">
        <ele>360.6</ele>
        <time>2025-09-13T10:15:52Z</time>
      </trkpt>
      <trkpt lat="47.55303" lon="6.93703">
        <ele>360.8</ele>
        <time>2025-09-13T10:15:53Z</time>
      </trkpt>
      <trkpt lat="47.55298" lon="6.93701">
        <ele>361</ele>
        <time>2025-09-13T10:15:54Z</time>
      </trkpt>
      <trkpt lat="47.55292" lon="6.93699">
        <ele>361.2</ele>
        <time>2025-09-13T10:15:55Z</time>
      </trkpt>
      <trkpt lat="47.55286" lon="6.93698">
        <ele>361.3</ele>
        <time>2025-09-13T10:15:56Z</time>
      </trkpt>
      <trkpt lat="47.55281" lon="6.93696">
        <ele>361.3</ele>
        <time>2025-09-13T10:15:57Z</time>
      </trkpt>
      <trkpt lat="47.55275" lon="6.93694">
        <ele>361.3</ele>
        <time>2025-09-13T10:15:58Z</time>
      </trkpt>
      <trkpt lat="47.55269" lon="6.93691">
        <ele>361.3</ele>
        <time>2025-09-13T10:15:59Z</time>
      </trkpt>
      <trkpt lat="47.55264" lon="6.93685">
        <ele>361.2</ele>
        <time>2025-09-13T10:16:00Z</time>
      </trkpt>
      <trkpt lat="47.55256" lon="6.93682">
        <ele>361</ele>
        <time>2025-09-13T10:16:01Z</time>
      </trkpt>
      <trkpt lat="47.55249" lon="6.93679">
        <ele>360.7</ele>
        <time>2025-09-13T10:16:02Z</time>
      </trkpt>
      <trkpt lat="47.55242" lon="6.93676">
        <ele>360.5</ele>
        <time>2025-09-13T10:16:03Z</time>
      </trkpt>
      <trkpt lat="47.55235" lon="6.93673">
        <ele>360.2</ele>
        <time>2025-09-13T10:16:04Z</time>
      </trkpt>
      <trkpt lat="47.55228" lon="6.93669">
        <ele>359.9</ele>
        <time>2025-09-13T10:16:05Z</time>
      </trkpt>
      <trkpt lat="47.55221" lon="6.93665">
        <ele>359.6</ele>
        <time>2025-09-13T10:16:06Z</time>
      </trkpt>
      <trkpt lat="47.55214" lon="6.93662">
        <ele>359.1</ele>
        <time>2025-09-13T10:16:07Z</time>
      </trkpt>
      <trkpt lat="47.55205" lon="6.93659">
        <ele>358.6</ele>
        <time>2025-09-13T10:16:08Z</time>
      </trkpt>
      <trkpt lat="47.55198" lon="6.93655">
        <ele>358.2</ele>
        <time>2025-09-13T10:16:09Z</time>
      </trkpt>
      <trkpt lat="47.55189" lon="6.9365">
        <ele>357.7</ele>
        <time>2025-09-13T10:16:10Z</time>
      </trkpt>
      <trkpt lat="47.55182" lon="6.93645">
        <ele>357.3</ele>
        <time>2025-09-13T10:16:11Z</time>
      </trkpt>
      <trkpt lat="47.55173" lon="6.93641">
        <ele>356.8</ele>
        <time>2025-09-13T10:16:12Z</time>
      </trkpt>
      <trkpt lat="47.55164" lon="6.93637">
        <ele>356.5</ele>
        <time>2025-09-13T10:16:13Z</time>
      </trkpt>
      <trkpt lat="47.55157" lon="6.93632">
        <ele>356.2</ele>
        <time>2025-09-13T10:16:14Z</time>
      </trkpt>
      <trkpt lat="47.55148" lon="6.93634">
        <ele>355.9</ele>
        <time>2025-09-13T10:16:15Z</time>
      </trkpt>
      <trkpt lat="47.55139" lon="6.93643">
        <ele>355.5</ele>
        <time>2025-09-13T10:16:16Z</time>
      </trkpt>
      <trkpt lat="47.55132" lon="6.93657">
        <ele>355.1</ele>
        <time>2025-09-13T10:16:17Z</time>
      </trkpt>
      <trkpt lat="47.55126" lon="6.93669">
        <ele>354.7</ele>
        <time>2025-09-13T10:16:18Z</time>
      </trkpt>
      <trkpt lat="47.55118" lon="6.93679">
        <ele>354.3</ele>
        <time>2025-09-13T10:16:19Z</time>
      </trkpt>
      <trkpt lat="47.55109" lon="6.93683">
        <ele>353.8</ele>
        <time>2025-09-13T10:16:20Z</time>
      </trkpt>
      <trkpt lat="47.55102" lon="6.93682">
        <ele>353.1</ele>
        <time>2025-09-13T10:16:21Z</time>
      </trkpt>
      <trkpt lat="47.55082" lon="6.93661">
        <ele>350.2</ele>
        <time>2025-09-13T10:16:22Z</time>
      </trkpt>
      <trkpt lat="47.55077" lon="6.93656">
        <ele>349.5</ele>
        <time>2025-09-13T10:16:23Z</time>
      </trkpt>
      <trkpt lat="47.55066" lon="6.93645">
        <ele>348.1</ele>
        <time>2025-09-13T10:16:24Z</time>
      </trkpt>
      <trkpt lat="47.55055" lon="6.93636">
        <ele>346.5</ele>
        <time>2025-09-13T10:16:25Z</time>
      </trkpt>
      <trkpt lat="47.55044" lon="6.93625">
        <ele>345</ele>
        <time>2025-09-13T10:16:26Z</time>
      </trkpt>
      <trkpt lat="47.55033" lon="6.93616">
        <ele>343.5</ele>
        <time>2025-09-13T10:16:27Z</time>
      </trkpt>
      <trkpt lat="47.5502" lon="6.93607">
        <ele>342.1</ele>
        <time>2025-09-13T10:16:28Z</time>
      </trkpt>
      <trkpt lat="47.55008" lon="6.93596">
        <ele>340.8</ele>
        <time>2025-09-13T10:16:29Z</time>
      </trkpt>
      <trkpt lat="47.55" lon="6.9358">
        <ele>339.9</ele>
        <time>2025-09-13T10:16:30Z</time>
      </trkpt>
      <trkpt lat="47.54998" lon="6.93559">
        <ele>339</ele>
        <time>2025-09-13T10:16:31Z</time>
      </trkpt>
      <trkpt lat="47.55001" lon="6.93537">
        <ele>338.4</ele>
        <time>2025-09-13T10:16:32Z</time>
      </trkpt>
      <trkpt lat="47.55006" lon="6.93518">
        <ele>337.9</ele>
        <time>2025-09-13T10:16:33Z</time>
      </trkpt>
      <trkpt lat="47.55008" lon="6.93501">
        <ele>337.7</ele>
        <time>2025-09-13T10:16:35Z</time>
      </trkpt>
      <trkpt lat="47.55008" lon="6.93484">
        <ele>337.5</ele>
        <time>2025-09-13T10:16:36Z</time>
      </trkpt>
      <trkpt lat="47.55008" lon="6.93468">
        <ele>337.4</ele>
        <time>2025-09-13T10:16:37Z</time>
      </trkpt>
      <trkpt lat="47.55009" lon="6.93452">
        <ele>337.4</ele>
        <time>2025-09-13T10:16:38Z</time>
      </trkpt>
      <trkpt lat="47.55009" lon="6.93437">
        <ele>337.5</ele>
        <time>2025-09-13T10:16:39Z</time>
      </trkpt>
      <trkpt lat="47.5501" lon="6.93424">
        <ele>337.6</ele>
        <time>2025-09-13T10:16:40Z</time>
      </trkpt>
      <trkpt lat="47.55009" lon="6.93412">
        <ele>337.8</ele>
        <time>2025-09-13T10:16:41Z</time>
      </trkpt>
      <trkpt lat="47.55006" lon="6.93402">
        <ele>337.9</ele>
        <time>2025-09-13T10:16:42Z</time>
      </trkpt>
      <trkpt lat="47.55003" lon="6.93395">
        <ele>338</ele>
        <time>2025-09-13T10:16:43Z</time>
      </trkpt>
      <trkpt lat="47.55001" lon="6.93391">
        <ele>338.1</ele>
        <time>2025-09-13T10:16:44Z</time>
      </trkpt>
      <trkpt lat="47.54998" lon="6.93387">
        <ele>338.2</ele>
        <time>2025-09-13T10:16:45Z</time>
      </trkpt>
      <trkpt lat="47.54996" lon="6.93382">
        <ele>338.2</ele>
        <time>2025-09-13T10:16:46Z</time>
      </trkpt>
      <trkpt lat="47.54995" lon="6.9338">
        <ele>338.2</ele>
        <time>2025-09-13T10:16:47Z</time>
      </trkpt>
      <trkpt lat="47.54992" lon="6.93376">
        <ele>338.2</ele>
        <time>2025-09-13T10:16:48Z</time>
      </trkpt>
      <trkpt lat="47.54988" lon="6.93375">
        <ele>338.2</ele>
        <time>2025-09-13T10:16:49Z</time>
      </trkpt>
      <trkpt lat="47.54984" lon="6.93377">
        <ele>338.2</ele>
        <time>2025-09-13T10:16:50Z</time>
      </trkpt>
      <trkpt lat="47.54978" lon="6.93381">
        <ele>338.3</ele>
        <time>2025-09-13T10:16:51Z</time>
      </trkpt>
      <trkpt lat="47.54973" lon="6.93386">
        <ele>338.3</ele>
        <time>2025-09-13T10:16:52Z</time>
      </trkpt>
      <trkpt lat="47.54968" lon="6.93392">
        <ele>338.3</ele>
        <time>2025-09-13T10:16:53Z</time>
      </trkpt>
      <trkpt lat="47.54965" lon="6.93398">
        <ele>338.3</ele>
        <time>2025-09-13T10:16:54Z</time>
      </trkpt>
      <trkpt lat="47.5496" lon="6.93404">
        <ele>338.3</ele>
        <time>2025-09-13T10:16:55Z</time>
      </trkpt>
      <trkpt lat="47.54956" lon="6.93411">
        <ele>338.2</ele>
        <time>2025-09-13T10:16:56Z</time>
      </trkpt>
      <trkpt lat="47.54951" lon="6.93419">
        <ele>338.2</ele>
        <time>2025-09-13T10:16:57Z</time>
      </trkpt>
      <trkpt lat="47.54947" lon="6.93428">
        <ele>338.2</ele>
        <time>2025-09-13T10:16:58Z</time>
      </trkpt>
      <trkpt lat="47.54945" lon="6.93437">
        <ele>338.2</ele>
        <time>2025-09-13T10:16:59Z</time>
      </trkpt>
      <trkpt lat="47.54941" lon="6.93447">
        <ele>338.1</ele>
        <time>2025-09-13T10:17:00Z</time>
      </trkpt>
      <trkpt lat="47.54938" lon="6.93457">
        <ele>338.1</ele>
        <time>2025-09-13T10:17:01Z</time>
      </trkpt>
      <trkpt lat="47.54934" lon="6.93467">
        <ele>338</ele>
        <time>2025-09-13T10:17:02Z</time>
      </trkpt>
      <trkpt lat="47.54931" lon="6.93478">
        <ele>337.9</ele>
        <time>2025-09-13T10:17:03Z</time>
      </trkpt>
      <trkpt lat="47.54928" lon="6.93488">
        <ele>337.9</ele>
        <time>2025-09-13T10:17:04Z</time>
      </trkpt>
      <trkpt lat="47.54925" lon="6.93499">
        <ele>337.8</ele>
        <time>2025-09-13T10:17:05Z</time>
      </trkpt>
      <trkpt lat="47.54922" lon="6.93509">
        <ele>337.8</ele>
        <time>2025-09-13T10:17:06Z</time>
      </trkpt>
      <trkpt lat="47.54913" lon="6.93513">
        <ele>337.7</ele>
        <time>2025-09-13T10:17:07Z</time>
      </trkpt>
      <trkpt lat="47.54904" lon="6.93509">
        <ele>337.6</ele>
        <time>2025-09-13T10:17:08Z</time>
      </trkpt>
      <trkpt lat="47.54896" lon="6.93499">
        <ele>337.6</ele>
        <time>2025-09-13T10:17:09Z</time>
      </trkpt>
      <trkpt lat="47.54889" lon="6.93491">
        <ele>337.5</ele>
        <time>2025-09-13T10:17:10Z</time>
      </trkpt>
      <trkpt lat="47.54883" lon="6.93484">
        <ele>337.6</ele>
        <time>2025-09-13T10:17:11Z</time>
      </trkpt>
      <trkpt lat="47.54877" lon="6.93479">
        <ele>337.6</ele>
        <time>2025-09-13T10:17:12Z</time>
      </trkpt>
      <trkpt lat="47.54863" lon="6.93469">
        <ele>337.6</ele>
        <time>2025-09-13T10:17:13Z</time>
      </trkpt>
      <trkpt lat="47.54857" lon="6.93465">
        <ele>337.7</ele>
        <time>2025-09-13T10:17:14Z</time>
      </trkpt>
      <trkpt lat="47.5485" lon="6.93462">
        <ele>337.8</ele>
        <time>2025-09-13T10:17:15Z</time>
      </trkpt>
      <trkpt lat="47.54843" lon="6.93459">
        <ele>337.9</ele>
        <time>2025-09-13T10:17:16Z</time>
      </trkpt>
      <trkpt lat="47.54836" lon="6.93454">
        <ele>337.9</ele>
        <time>2025-09-13T10:17:17Z</time>
      </trkpt>
      <trkpt lat="47.5483" lon="6.93451">
        <ele>338</ele>
        <time>2025-09-13T10:17:18Z</time>
      </trkpt>
      <trkpt lat="47.54822" lon="6.93448">
        <ele>338.1</ele>
        <time>2025-09-13T10:17:19Z</time>
      </trkpt>
      <trkpt lat="47.54816" lon="6.93445">
        <ele>338</ele>
        <time>2025-09-13T10:17:20Z</time>
      </trkpt>
      <trkpt lat="47.54809" lon="6.93442">
        <ele>338</ele>
        <time>2025-09-13T10:17:21Z</time>
      </trkpt>
      <trkpt lat="47.54802" lon="6.93438">
        <ele>338</ele>
        <time>2025-09-13T10:17:22Z</time>
      </trkpt>
      <trkpt lat="47.54797" lon="6.93434">
        <ele>337.9</ele>
        <time>2025-09-13T10:17:23Z</time>
      </trkpt>
      <trkpt lat="47.5479" lon="6.93432">
        <ele>337.8</ele>
        <time>2025-09-13T10:17:24Z</time>
      </trkpt>
      <trkpt lat="47.54783" lon="6.93428">
        <ele>337.7</ele>
        <time>2025-09-13T10:17:25Z</time>
      </trkpt>
      <trkpt lat="47.54776" lon="6.93425">
        <ele>337.6</ele>
        <time>2025-09-13T10:17:26Z</time>
      </trkpt>
      <trkpt lat="47.54769" lon="6.93422">
        <ele>337.5</ele>
        <time>2025-09-13T10:17:27Z</time>
      </trkpt>
      <trkpt lat="47.54762" lon="6.93416">
        <ele>337.4</ele>
        <time>2025-09-13T10:17:28Z</time>
      </trkpt>
      <trkpt lat="47.54756" lon="6.93411">
        <ele>337.3</ele>
        <time>2025-09-13T10:17:29Z</time>
      </trkpt>
      <trkpt lat="47.54747" lon="6.93408">
        <ele>337.2</ele>
        <time>2025-09-13T10:17:30Z</time>
      </trkpt>
      <trkpt lat="47.54742" lon="6.93406">
        <ele>337.1</ele>
        <time>2025-09-13T10:17:31Z</time>
      </trkpt>
      <trkpt lat="47.54732" lon="6.93403">
        <ele>337</ele>
        <time>2025-09-13T10:17:32Z</time>
      </trkpt>
      <trkpt lat="47.54725" lon="6.93401">
        <ele>336.9</ele>
        <time>2025-09-13T10:17:33Z</time>
      </trkpt>
      <trkpt lat="47.54719" lon="6.934">
        <ele>336.9</ele>
        <time>2025-09-13T10:17:34Z</time>
      </trkpt>
      <trkpt lat="47.54711" lon="6.93395">
        <ele>336.9</ele>
        <time>2025-09-13T10:17:35Z</time>
      </trkpt>
      <trkpt lat="47.54705" lon="6.9339">
        <ele>336.9</ele>
        <time>2025-09-13T10:17:36Z</time>
      </trkpt>
      <trkpt lat="47.54699" lon="6.93387">
        <ele>336.9</ele>
        <time>2025-09-13T10:17:37Z</time>
      </trkpt>
      <trkpt lat="47.54691" lon="6.9338">
        <ele>337</ele>
        <time>2025-09-13T10:17:38Z</time>
      </trkpt>
      <trkpt lat="47.54683" lon="6.93375">
        <ele>337.1</ele>
        <time>2025-09-13T10:17:39Z</time>
      </trkpt>
      <trkpt lat="47.54677" lon="6.93368">
        <ele>337.1</ele>
        <time>2025-09-13T10:17:40Z</time>
      </trkpt>
      <trkpt lat="47.5467" lon="6.93361">
        <ele>337.3</ele>
        <time>2025-09-13T10:17:41Z</time>
      </trkpt>
      <trkpt lat="47.54662" lon="6.93357">
        <ele>337.5</ele>
        <time>2025-09-13T10:17:42Z</time>
      </trkpt>
      <trkpt lat="47.54656" lon="6.93352">
        <ele>337.7</ele>
        <time>2025-09-13T10:17:43Z</time>
      </trkpt>
      <trkpt lat="47.54649" lon="6.93346">
        <ele>337.9</ele>
        <time>2025-09-13T10:17:44Z</time>
      </trkpt>
      <trkpt lat="47.54643" lon="6.93341">
        <ele>338.1</ele>
        <time>2025-09-13T10:17:45Z</time>
      </trkpt>
      <trkpt lat="47.54637" lon="6.93336">
        <ele>338.3</ele>
        <time>2025-09-13T10:17:46Z</time>
      </trkpt>
      <trkpt lat="47.54632" lon="6.93331">
        <ele>338.5</ele>
        <time>2025-09-13T10:17:47Z</time>
      </trkpt>
      <trkpt lat="47.54626" lon="6.93325">
        <ele>338.6</ele>
        <time>2025-09-13T10:17:48Z</time>
      </trkpt>
      <trkpt lat="47.54625" lon="6.93318">
        <ele>338.7</ele>
        <time>2025-09-13T10:17:49Z</time>
      </trkpt>
      <trkpt lat="47.54619" lon="6.93313">
        <ele>338.9</ele>
        <time>2025-09-13T10:17:50Z</time>
      </trkpt>
      <trkpt lat="47.54613" lon="6.93308">
        <ele>339.1</ele>
        <time>2025-09-13T10:17:51Z</time>
      </trkpt>
      <trkpt lat="47.54608" lon="6.93304">
        <ele>339.4</ele>
        <time>2025-09-13T10:17:52Z</time>
      </trkpt>
      <trkpt lat="47.54602" lon="6.933">
        <ele>339.6</ele>
        <time>2025-09-13T10:17:53Z</time>
      </trkpt>
      <trkpt lat="47.54598" lon="6.93296">
        <ele>339.9</ele>
        <time>2025-09-13T10:17:54Z</time>
      </trkpt>
      <trkpt lat="47.54592" lon="6.93292">
        <ele>340.1</ele>
        <time>2025-09-13T10:17:55Z</time>
      </trkpt>
      <trkpt lat="47.54587" lon="6.93288">
        <ele>340.4</ele>
        <time>2025-09-13T10:17:56Z</time>
      </trkpt>
      <trkpt lat="47.54582" lon="6.93285">
        <ele>340.6</ele>
        <time>2025-09-13T10:17:57Z</time>
      </trkpt>
      <trkpt lat="47.54578" lon="6.93281">
        <ele>340.9</ele>
        <time>2025-09-13T10:17:58Z</time>
      </trkpt>
      <trkpt lat="47.54574" lon="6.93276">
        <ele>341.2</ele>
        <time>2025-09-13T10:17:59Z</time>
      </trkpt>
      <trkpt lat="47.5457" lon="6.93271">
        <ele>341.4</ele>
        <time>2025-09-13T10:18:00Z</time>
      </trkpt>
      <trkpt lat="47.54566" lon="6.93267">
        <ele>341.7</ele>
        <time>2025-09-13T10:18:01Z</time>
      </trkpt>
      <trkpt lat="47.54562" lon="6.93262">
        <ele>342</ele>
        <time>2025-09-13T10:18:02Z</time>
      </trkpt>
      <trkpt lat="47.54559" lon="6.93257">
        <ele>342.3</ele>
        <time>2025-09-13T10:18:03Z</time>
      </trkpt>
      <trkpt lat="47.54555" lon="6.93252">
        <ele>342.6</ele>
        <time>2025-09-13T10:18:04Z</time>
      </trkpt>
      <trkpt lat="47.54552" lon="6.93246">
        <ele>342.9</ele>
        <time>2025-09-13T10:18:05Z</time>
      </trkpt>
      <trkpt lat="47.54548" lon="6.93242">
        <ele>343.1</ele>
        <time>2025-09-13T10:18:06Z</time>
      </trkpt>
      <trkpt lat="47.54547" lon="6.9324">
        <ele>343.3</ele>
        <time>2025-09-13T10:18:07Z</time>
      </trkpt>
      <trkpt lat="47.54545" lon="6.93237">
        <ele>343.4</ele>
        <time>2025-09-13T10:18:08Z</time>
      </trkpt>
      <trkpt lat="47.54542" lon="6.93232">
        <ele>343.7</ele>
        <time>2025-09-13T10:18:09Z</time>
      </trkpt>
      <trkpt lat="47.5454" lon="6.93228">
        <ele>343.9</ele>
        <time>2025-09-13T10:18:10Z</time>
      </trkpt>
      <trkpt lat="47.54536" lon="6.9322">
        <ele>344.3</ele>
        <time>2025-09-13T10:18:11Z</time>
      </trkpt>
      <trkpt lat="47.54534" lon="6.93217">
        <ele>344.4</ele>
        <time>2025-09-13T10:18:12Z</time>
      </trkpt>
      <trkpt lat="47.54532" lon="6.93214">
        <ele>344.6</ele>
        <time>2025-09-13T10:18:13Z</time>
      </trkpt>
      <trkpt lat="47.54528" lon="6.93211">
        <ele>344.9</ele>
        <time>2025-09-13T10:18:14Z</time>
      </trkpt>
      <trkpt lat="47.54525" lon="6.93208">
        <ele>345</ele>
        <time>2025-09-13T10:18:15Z</time>
      </trkpt>
      <trkpt lat="47.5452" lon="6.93202">
        <ele>345.3</ele>
        <time>2025-09-13T10:18:16Z</time>
      </trkpt>
      <trkpt lat="47.54515" lon="6.93198">
        <ele>345.6</ele>
        <time>2025-09-13T10:18:17Z</time>
      </trkpt>
      <trkpt lat="47.54511" lon="6.93194">
        <ele>345.8</ele>
        <time>2025-09-13T10:18:18Z</time>
      </trkpt>
      <trkpt lat="47.54507" lon="6.93191">
        <ele>346.1</ele>
        <time>2025-09-13T10:18:19Z</time>
      </trkpt>
      <trkpt lat="47.54502" lon="6.93189">
        <ele>346.3</ele>
        <time>2025-09-13T10:18:20Z</time>
      </trkpt>
      <trkpt lat="47.54497" lon="6.93186">
        <ele>346.6</ele>
        <time>2025-09-13T10:18:21Z</time>
      </trkpt>
      <trkpt lat="47.54492" lon="6.93183">
        <ele>346.8</ele>
        <time>2025-09-13T10:18:22Z</time>
      </trkpt>
      <trkpt lat="47.54487" lon="6.9318">
        <ele>347</ele>
        <time>2025-09-13T10:18:23Z</time>
      </trkpt>
      <trkpt lat="47.54483" lon="6.93177">
        <ele>347.2</ele>
        <time>2025-09-13T10:18:24Z</time>
      </trkpt>
      <trkpt lat="47.54478" lon="6.93175">
        <ele>347.3</ele>
        <time>2025-09-13T10:18:25Z</time>
      </trkpt>
      <trkpt lat="47.54473" lon="6.93172">
        <ele>347.5</ele>
        <time>2025-09-13T10:18:26Z</time>
      </trkpt>
      <trkpt lat="47.54468" lon="6.93169">
        <ele>347.8</ele>
        <time>2025-09-13T10:18:27Z</time>
      </trkpt>
      <trkpt lat="47.54464" lon="6.93165">
        <ele>348.1</ele>
        <time>2025-09-13T10:18:28Z</time>
      </trkpt>
      <trkpt lat="47.54459" lon="6.93161">
        <ele>348.3</ele>
        <time>2025-09-13T10:18:29Z</time>
      </trkpt>
      <trkpt lat="47.54455" lon="6.93158">
        <ele>348.6</ele>
        <time>2025-09-13T10:18:30Z</time>
      </trkpt>
      <trkpt lat="47.54451" lon="6.93155">
        <ele>348.9</ele>
        <time>2025-09-13T10:18:31Z</time>
      </trkpt>
      <trkpt lat="47.54446" lon="6.93153">
        <ele>349.2</ele>
        <time>2025-09-13T10:18:32Z</time>
      </trkpt>
      <trkpt lat="47.54442" lon="6.9315">
        <ele>349.6</ele>
        <time>2025-09-13T10:18:33Z</time>
      </trkpt>
      <trkpt lat="47.54437" lon="6.93147">
        <ele>349.9</ele>
        <time>2025-09-13T10:18:34Z</time>
      </trkpt>
      <trkpt lat="47.54433" lon="6.93145">
        <ele>350.3</ele>
        <time>2025-09-13T10:18:35Z</time>
      </trkpt>
      <trkpt lat="47.54428" lon="6.93141">
        <ele>350.7</ele>
        <time>2025-09-13T10:18:36Z</time>
      </trkpt>
      <trkpt lat="47.54424" lon="6.93139">
        <ele>351</ele>
        <time>2025-09-13T10:18:37Z</time>
      </trkpt>
      <trkpt lat="47.5442" lon="6.93137">
        <ele>351.4</ele>
        <time>2025-09-13T10:18:38Z</time>
      </trkpt>
      <trkpt lat="47.54415" lon="6.93134">
        <ele>351.7</ele>
        <time>2025-09-13T10:18:39Z</time>
      </trkpt>
      <trkpt lat="47.54411" lon="6.9313">
        <ele>352.1</ele>
        <time>2025-09-13T10:18:40Z</time>
      </trkpt>
      <trkpt lat="47.54406" lon="6.93127">
        <ele>352.5</ele>
        <time>2025-09-13T10:18:41Z</time>
      </trkpt>
      <trkpt lat="47.54402" lon="6.93123">
        <ele>352.9</ele>
        <time>2025-09-13T10:18:42Z</time>
      </trkpt>
      <trkpt lat="47.54397" lon="6.9312">
        <ele>353.2</ele>
        <time>2025-09-13T10:18:43Z</time>
      </trkpt>
      <trkpt lat="47.54393" lon="6.93117">
        <ele>353.6</ele>
        <time>2025-09-13T10:18:44Z</time>
      </trkpt>
      <trkpt lat="47.54388" lon="6.93114">
        <ele>354</ele>
        <time>2025-09-13T10:18:45Z</time>
      </trkpt>
      <trkpt lat="47.54379" lon="6.93108">
        <ele>354.7</ele>
        <time>2025-09-13T10:18:47Z</time>
      </trkpt>
      <trkpt lat="47.54374" lon="6.93105">
        <ele>355</ele>
        <time>2025-09-13T10:18:48Z</time>
      </trkpt>
      <trkpt lat="47.5437" lon="6.93102">
        <ele>355.3</ele>
        <time>2025-09-13T10:18:49Z</time>
      </trkpt>
      <trkpt lat="47.54365" lon="6.93098">
        <ele>355.6</ele>
        <time>2025-09-13T10:18:50Z</time>
      </trkpt>
      <trkpt lat="47.54361" lon="6.93094">
        <ele>355.9</ele>
        <time>2025-09-13T10:18:51Z</time>
      </trkpt>
      <trkpt lat="47.54356" lon="6.93092">
        <ele>356.1</ele>
        <time>2025-09-13T10:18:52Z</time>
      </trkpt>
      <trkpt lat="47.54352" lon="6.93088">
        <ele>356.4</ele>
        <time>2025-09-13T10:18:53Z</time>
      </trkpt>
      <trkpt lat="47.54347" lon="6.93085">
        <ele>356.6</ele>
        <time>2025-09-13T10:18:54Z</time>
      </trkpt>
      <trkpt lat="47.54342" lon="6.93081">
        <ele>356.8</ele>
        <time>2025-09-13T10:18:55Z</time>
      </trkpt>
      <trkpt lat="47.54337" lon="6.93078">
        <ele>357</ele>
        <time>2025-09-13T10:18:56Z</time>
      </trkpt>
      <trkpt lat="47.54332" lon="6.93074">
        <ele>357.2</ele>
        <time>2025-09-13T10:18:57Z</time>
      </trkpt>
      <trkpt lat="47.54327" lon="6.93071">
        <ele>357.4</ele>
        <time>2025-09-13T10:18:58Z</time>
      </trkpt>
      <trkpt lat="47.54322" lon="6.93067">
        <ele>357.6</ele>
        <time>2025-09-13T10:18:59Z</time>
      </trkpt>
      <trkpt lat="47.54317" lon="6.93065">
        <ele>357.7</ele>
        <time>2025-09-13T10:19:00Z</time>
      </trkpt>
      <trkpt lat="47.54312" lon="6.93062">
        <ele>357.8</ele>
        <time>2025-09-13T10:19:01Z</time>
      </trkpt>
      <trkpt lat="47.54307" lon="6.93058">
        <ele>357.9</ele>
        <time>2025-09-13T10:19:02Z</time>
      </trkpt>
      <trkpt lat="47.54302" lon="6.93053">
        <ele>358</ele>
        <time>2025-09-13T10:19:03Z</time>
      </trkpt>
      <trkpt lat="47.54296" lon="6.93051">
        <ele>358.1</ele>
        <time>2025-09-13T10:19:04Z</time>
      </trkpt>
      <trkpt lat="47.5429" lon="6.93051">
        <ele>358.2</ele>
        <time>2025-09-13T10:19:05Z</time>
      </trkpt>
      <trkpt lat="47.54284" lon="6.93049">
        <ele>358.3</ele>
        <time>2025-09-13T10:19:06Z</time>
      </trkpt>
      <trkpt lat="47.54278" lon="6.93046">
        <ele>358.4</ele>
        <time>2025-09-13T10:19:07Z</time>
      </trkpt>
      <trkpt lat="47.54272" lon="6.93043">
        <ele>358.5</ele>
        <time>2025-09-13T10:19:08Z</time>
      </trkpt>
      <trkpt lat="47.54266" lon="6.93041">
        <ele>358.6</ele>
        <time>2025-09-13T10:19:09Z</time>
      </trkpt>
      <trkpt lat="47.54259" lon="6.9304">
        <ele>358.7</ele>
        <time>2025-09-13T10:19:10Z</time>
      </trkpt>
      <trkpt lat="47.54253" lon="6.93038">
        <ele>358.8</ele>
        <time>2025-09-13T10:19:11Z</time>
      </trkpt>
      <trkpt lat="47.54246" lon="6.93037">
        <ele>359</ele>
        <time>2025-09-13T10:19:12Z</time>
      </trkpt>
      <trkpt lat="47.5424" lon="6.93035">
        <ele>359.1</ele>
        <time>2025-09-13T10:19:13Z</time>
      </trkpt>
      <trkpt lat="47.54233" lon="6.93035">
        <ele>359.2</ele>
        <time>2025-09-13T10:19:14Z</time>
      </trkpt>
      <trkpt lat="47.54226" lon="6.93033">
        <ele>359.3</ele>
        <time>2025-09-13T10:19:15Z</time>
      </trkpt>
      <trkpt lat="47.5422" lon="6.93032">
        <ele>359.5</ele>
        <time>2025-09-13T10:19:16Z</time>
      </trkpt>
      <trkpt lat="47.54214" lon="6.93031">
        <ele>359.6</ele>
        <time>2025-09-13T10:19:17Z</time>
      </trkpt>
      <trkpt lat="47.54208" lon="6.9303">
        <ele>359.7</ele>
        <time>2025-09-13T10:19:18Z</time>
      </trkpt>
      <trkpt lat="47.54201" lon="6.93029">
        <ele>359.9</ele>
        <time>2025-09-13T10:19:19Z</time>
      </trkpt>
      <trkpt lat="47.54195" lon="6.93027">
        <ele>360</ele>
        <time>2025-09-13T10:19:20Z</time>
      </trkpt>
      <trkpt lat="47.5419" lon="6.93025">
        <ele>360.1</ele>
        <time>2025-09-13T10:19:21Z</time>
      </trkpt>
      <trkpt lat="47.54184" lon="6.93023">
        <ele>360.2</ele>
        <time>2025-09-13T10:19:22Z</time>
      </trkpt>
      <trkpt lat="47.54179" lon="6.9302">
        <ele>360.3</ele>
        <time>2025-09-13T10:19:23Z</time>
      </trkpt>
      <trkpt lat="47.54175" lon="6.93017">
        <ele>360.5</ele>
        <time>2025-09-13T10:19:24Z</time>
      </trkpt>
      <trkpt lat="47.54169" lon="6.93015">
        <ele>360.6</ele>
        <time>2025-09-13T10:19:25Z</time>
      </trkpt>
      <trkpt lat="47.54164" lon="6.93013">
        <ele>360.8</ele>
        <time>2025-09-13T10:19:26Z</time>
      </trkpt>
      <trkpt lat="47.54159" lon="6.93011">
        <ele>360.9</ele>
        <time>2025-09-13T10:19:27Z</time>
      </trkpt>
      <trkpt lat="47.54154" lon="6.93009">
        <ele>361</ele>
        <time>2025-09-13T10:19:28Z</time>
      </trkpt>
      <trkpt lat="47.54149" lon="6.93006">
        <ele>361.1</ele>
        <time>2025-09-13T10:19:29Z</time>
      </trkpt>
      <trkpt lat="47.54143" lon="6.93002">
        <ele>361.2</ele>
        <time>2025-09-13T10:19:30Z</time>
      </trkpt>
      <trkpt lat="47.54138" lon="6.93">
        <ele>361.3</ele>
        <time>2025-09-13T10:19:31Z</time>
      </trkpt>
      <trkpt lat="47.54132" lon="6.92997">
        <ele>361.4</ele>
        <time>2025-09-13T10:19:32Z</time>
      </trkpt>
      <trkpt lat="47.54126" lon="6.92995">
        <ele>361.5</ele>
        <time>2025-09-13T10:19:33Z</time>
      </trkpt>
      <trkpt lat="47.5412" lon="6.92992">
        <ele>361.5</ele>
        <time>2025-09-13T10:19:34Z</time>
      </trkpt>
      <trkpt lat="47.54115" lon="6.9299">
        <ele>361.6</ele>
        <time>2025-09-13T10:19:35Z</time>
      </trkpt>
      <trkpt lat="47.54109" lon="6.92988">
        <ele>361.6</ele>
        <time>2025-09-13T10:19:36Z</time>
      </trkpt>
      <trkpt lat="47.54104" lon="6.92986">
        <ele>361.7</ele>
        <time>2025-09-13T10:19:37Z</time>
      </trkpt>
      <trkpt lat="47.54098" lon="6.92982">
        <ele>361.7</ele>
        <time>2025-09-13T10:19:38Z</time>
      </trkpt>
      <trkpt lat="47.54093" lon="6.92979">
        <ele>361.8</ele>
        <time>2025-09-13T10:19:39Z</time>
      </trkpt>
      <trkpt lat="47.54087" lon="6.92976">
        <ele>361.8</ele>
        <time>2025-09-13T10:19:40Z</time>
      </trkpt>
      <trkpt lat="47.5408" lon="6.92974">
        <ele>361.9</ele>
        <time>2025-09-13T10:19:41Z</time>
      </trkpt>
      <trkpt lat="47.54074" lon="6.92971">
        <ele>361.9</ele>
        <time>2025-09-13T10:19:42Z</time>
      </trkpt>
      <trkpt lat="47.54068" lon="6.92968">
        <ele>362</ele>
        <time>2025-09-13T10:19:43Z</time>
      </trkpt>
      <trkpt lat="47.54062" lon="6.92964">
        <ele>362.1</ele>
        <time>2025-09-13T10:19:44Z</time>
      </trkpt>
      <trkpt lat="47.54056" lon="6.92962">
        <ele>362.2</ele>
        <time>2025-09-13T10:19:45Z</time>
      </trkpt>
      <trkpt lat="47.5405" lon="6.92958">
        <ele>362.2</ele>
        <time>2025-09-13T10:19:46Z</time>
      </trkpt>
      <trkpt lat="47.54044" lon="6.92954">
        <ele>362.3</ele>
        <time>2025-09-13T10:19:47Z</time>
      </trkpt>
      <trkpt lat="47.54037" lon="6.92951">
        <ele>362.4</ele>
        <time>2025-09-13T10:19:48Z</time>
      </trkpt>
      <trkpt lat="47.54031" lon="6.92947">
        <ele>362.4</ele>
        <time>2025-09-13T10:19:49Z</time>
      </trkpt>
      <trkpt lat="47.54025" lon="6.92944">
        <ele>362.5</ele>
        <time>2025-09-13T10:19:50Z</time>
      </trkpt>
      <trkpt lat="47.54018" lon="6.9294">
        <ele>362.5</ele>
        <time>2025-09-13T10:19:51Z</time>
      </trkpt>
      <trkpt lat="47.54012" lon="6.92936">
        <ele>362.5</ele>
        <time>2025-09-13T10:19:52Z</time>
      </trkpt>
      <trkpt lat="47.54006" lon="6.92931">
        <ele>362.5</ele>
        <time>2025-09-13T10:19:53Z</time>
      </trkpt>
      <trkpt lat="47.54" lon="6.92927">
        <ele>362.5</ele>
        <time>2025-09-13T10:19:54Z</time>
      </trkpt>
      <trkpt lat="47.53993" lon="6.92922">
        <ele>362.4</ele>
        <time>2025-09-13T10:19:55Z</time>
      </trkpt>
      <trkpt lat="47.53987" lon="6.92917">
        <ele>362.4</ele>
        <time>2025-09-13T10:19:56Z</time>
      </trkpt>
      <trkpt lat="47.53984" lon="6.92909">
        <ele>362.3</ele>
        <time>2025-09-13T10:19:57Z</time>
      </trkpt>
      <trkpt lat="47.53978" lon="6.92903">
        <ele>362.2</ele>
        <time>2025-09-13T10:19:58Z</time>
      </trkpt>
      <trkpt lat="47.53972" lon="6.92897">
        <ele>362.1</ele>
        <time>2025-09-13T10:19:59Z</time>
      </trkpt>
      <trkpt lat="47.53965" lon="6.92891">
        <ele>362</ele>
        <time>2025-09-13T10:20:00Z</time>
      </trkpt>
      <trkpt lat="47.53959" lon="6.92884">
        <ele>361.8</ele>
        <time>2025-09-13T10:20:01Z</time>
      </trkpt>
      <trkpt lat="47.53954" lon="6.92876">
        <ele>361.6</ele>
        <time>2025-09-13T10:20:02Z</time>
      </trkpt>
      <trkpt lat="47.53947" lon="6.92868">
        <ele>361.3</ele>
        <time>2025-09-13T10:20:03Z</time>
      </trkpt>
      <trkpt lat="47.53941" lon="6.92861">
        <ele>361.1</ele>
        <time>2025-09-13T10:20:04Z</time>
      </trkpt>
      <trkpt lat="47.53936" lon="6.92853">
        <ele>360.8</ele>
        <time>2025-09-13T10:20:05Z</time>
      </trkpt>
      <trkpt lat="47.5393" lon="6.92845">
        <ele>360.5</ele>
        <time>2025-09-13T10:20:06Z</time>
      </trkpt>
      <trkpt lat="47.53924" lon="6.92836">
        <ele>360.2</ele>
        <time>2025-09-13T10:20:07Z</time>
      </trkpt>
      <trkpt lat="47.53918" lon="6.92826">
        <ele>359.7</ele>
        <time>2025-09-13T10:20:08Z</time>
      </trkpt>
      <trkpt lat="47.53912" lon="6.92817">
        <ele>359.3</ele>
        <time>2025-09-13T10:20:09Z</time>
      </trkpt>
      <trkpt lat="47.53905" lon="6.92806">
        <ele>358.7</ele>
        <time>2025-09-13T10:20:10Z</time>
      </trkpt>
      <trkpt lat="47.53899" lon="6.92795">
        <ele>358.2</ele>
        <time>2025-09-13T10:20:11Z</time>
      </trkpt>
      <trkpt lat="47.53894" lon="6.92783">
        <ele>357.6</ele>
        <time>2025-09-13T10:20:12Z</time>
      </trkpt>
      <trkpt lat="47.53888" lon="6.92771">
        <ele>357</ele>
        <time>2025-09-13T10:20:13Z</time>
      </trkpt>
      <trkpt lat="47.53883" lon="6.92759">
        <ele>356.4</ele>
        <time>2025-09-13T10:20:14Z</time>
      </trkpt>
      <trkpt lat="47.53878" lon="6.92747">
        <ele>355.9</ele>
        <time>2025-09-13T10:20:15Z</time>
      </trkpt>
      <trkpt lat="47.53873" lon="6.92734">
        <ele>355.4</ele>
        <time>2025-09-13T10:20:16Z</time>
      </trkpt>
      <trkpt lat="47.53867" lon="6.9272">
        <ele>354.8</ele>
        <time>2025-09-13T10:20:17Z</time>
      </trkpt>
      <trkpt lat="47.53862" lon="6.92705">
        <ele>354.2</ele>
        <time>2025-09-13T10:20:18Z</time>
      </trkpt>
      <trkpt lat="47.53857" lon="6.92692">
        <ele>353.7</ele>
        <time>2025-09-13T10:20:19Z</time>
      </trkpt>
      <trkpt lat="47.53852" lon="6.92678">
        <ele>353.2</ele>
        <time>2025-09-13T10:20:20Z</time>
      </trkpt>
      <trkpt lat="47.53847" lon="6.92664">
        <ele>352.8</ele>
        <time>2025-09-13T10:20:21Z</time>
      </trkpt>
      <trkpt lat="47.53842" lon="6.9265">
        <ele>352.4</ele>
        <time>2025-09-13T10:20:22Z</time>
      </trkpt>
      <trkpt lat="47.53837" lon="6.92636">
        <ele>352</ele>
        <time>2025-09-13T10:20:23Z</time>
      </trkpt>
      <trkpt lat="47.53832" lon="6.92623">
        <ele>351.6</ele>
        <time>2025-09-13T10:20:24Z</time>
      </trkpt>
      <trkpt lat="47.53827" lon="6.92609">
        <ele>351.2</ele>
        <time>2025-09-13T10:20:25Z</time>
      </trkpt>
      <trkpt lat="47.53822" lon="6.92595">
        <ele>350.9</ele>
        <time>2025-09-13T10:20:26Z</time>
      </trkpt>
      <trkpt lat="47.53817" lon="6.92582">
        <ele>350.6</ele>
        <time>2025-09-13T10:20:27Z</time>
      </trkpt>
      <trkpt lat="47.53813" lon="6.92569">
        <ele>350.2</ele>
        <time>2025-09-13T10:20:28Z</time>
      </trkpt>
      <trkpt lat="47.53808" lon="6.92555">
        <ele>349.9</ele>
        <time>2025-09-13T10:20:29Z</time>
      </trkpt>
      <trkpt lat="47.53804" lon="6.92541">
        <ele>349.7</ele>
        <time>2025-09-13T10:20:30Z</time>
      </trkpt>
      <trkpt lat="47.53799" lon="6.92528">
        <ele>349.4</ele>
        <time>2025-09-13T10:20:31Z</time>
      </trkpt>
      <trkpt lat="47.53795" lon="6.92513">
        <ele>349.2</ele>
        <time>2025-09-13T10:20:32Z</time>
      </trkpt>
      <trkpt lat="47.5379" lon="6.925">
        <ele>348.9</ele>
        <time>2025-09-13T10:20:33Z</time>
      </trkpt>
      <trkpt lat="47.53785" lon="6.92486">
        <ele>348.7</ele>
        <time>2025-09-13T10:20:34Z</time>
      </trkpt>
      <trkpt lat="47.5378" lon="6.92473">
        <ele>348.5</ele>
        <time>2025-09-13T10:20:35Z</time>
      </trkpt>
      <trkpt lat="47.53775" lon="6.9246">
        <ele>348.3</ele>
        <time>2025-09-13T10:20:36Z</time>
      </trkpt>
      <trkpt lat="47.5377" lon="6.92446">
        <ele>348.1</ele>
        <time>2025-09-13T10:20:37Z</time>
      </trkpt>
      <trkpt lat="47.53766" lon="6.92433">
        <ele>347.9</ele>
        <time>2025-09-13T10:20:38Z</time>
      </trkpt>
      <trkpt lat="47.53761" lon="6.9242">
        <ele>347.7</ele>
        <time>2025-09-13T10:20:39Z</time>
      </trkpt>
      <trkpt lat="47.53756" lon="6.92407">
        <ele>347.4</ele>
        <time>2025-09-13T10:20:40Z</time>
      </trkpt>
      <trkpt lat="47.53751" lon="6.92394">
        <ele>347.2</ele>
        <time>2025-09-13T10:20:41Z</time>
      </trkpt>
      <trkpt lat="47.53747" lon="6.92381">
        <ele>346.9</ele>
        <time>2025-09-13T10:20:42Z</time>
      </trkpt>
      <trkpt lat="47.53742" lon="6.92368">
        <ele>346.5</ele>
        <time>2025-09-13T10:20:43Z</time>
      </trkpt>
      <trkpt lat="47.53737" lon="6.92355">
        <ele>346.2</ele>
        <time>2025-09-13T10:20:44Z</time>
      </trkpt>
      <trkpt lat="47.53732" lon="6.92342">
        <ele>345.8</ele>
        <time>2025-09-13T10:20:45Z</time>
      </trkpt>
      <trkpt lat="47.53727" lon="6.92329">
        <ele>345.3</ele>
        <time>2025-09-13T10:20:46Z</time>
      </trkpt>
      <trkpt lat="47.53722" lon="6.92316">
        <ele>344.9</ele>
        <time>2025-09-13T10:20:47Z</time>
      </trkpt>
      <trkpt lat="47.53717" lon="6.92303">
        <ele>344.5</ele>
        <time>2025-09-13T10:20:48Z</time>
      </trkpt>
      <trkpt lat="47.53712" lon="6.9229">
        <ele>344.1</ele>
        <time>2025-09-13T10:20:49Z</time>
      </trkpt>
      <trkpt lat="47.53705" lon="6.92278">
        <ele>343.8</ele>
        <time>2025-09-13T10:20:50Z</time>
      </trkpt>
      <trkpt lat="47.53697" lon="6.92268">
        <ele>343.6</ele>
        <time>2025-09-13T10:20:51Z</time>
      </trkpt>
      <trkpt lat="47.53688" lon="6.9226">
        <ele>343.5</ele>
        <time>2025-09-13T10:20:52Z</time>
      </trkpt>
      <trkpt lat="47.53678" lon="6.92255">
        <ele>343.4</ele>
        <time>2025-09-13T10:20:53Z</time>
      </trkpt>
      <trkpt lat="47.53669" lon="6.9225">
        <ele>343.4</ele>
        <time>2025-09-13T10:20:54Z</time>
      </trkpt>
      <trkpt lat="47.53659" lon="6.92248">
        <ele>343.3</ele>
        <time>2025-09-13T10:20:55Z</time>
      </trkpt>
      <trkpt lat="47.53649" lon="6.92247">
        <ele>343.3</ele>
        <time>2025-09-13T10:20:56Z</time>
      </trkpt>
      <trkpt lat="47.53639" lon="6.92246">
        <ele>343.3</ele>
        <time>2025-09-13T10:20:57Z</time>
      </trkpt>
      <trkpt lat="47.53629" lon="6.92244">
        <ele>343.3</ele>
        <time>2025-09-13T10:20:58Z</time>
      </trkpt>
      <trkpt lat="47.5362" lon="6.92243">
        <ele>343.3</ele>
        <time>2025-09-13T10:20:59Z</time>
      </trkpt>
      <trkpt lat="47.53611" lon="6.9224">
        <ele>343.2</ele>
        <time>2025-09-13T10:21:00Z</time>
      </trkpt>
      <trkpt lat="47.53601" lon="6.92239">
        <ele>343.1</ele>
        <time>2025-09-13T10:21:01Z</time>
      </trkpt>
      <trkpt lat="47.53592" lon="6.92238">
        <ele>343.1</ele>
        <time>2025-09-13T10:21:02Z</time>
      </trkpt>
      <trkpt lat="47.53582" lon="6.92236">
        <ele>343</ele>
        <time>2025-09-13T10:21:03Z</time>
      </trkpt>
      <trkpt lat="47.53573" lon="6.92234">
        <ele>343</ele>
        <time>2025-09-13T10:21:04Z</time>
      </trkpt>
      <trkpt lat="47.53564" lon="6.92233">
        <ele>343</ele>
        <time>2025-09-13T10:21:05Z</time>
      </trkpt>
      <trkpt lat="47.53554" lon="6.92231">
        <ele>342.9</ele>
        <time>2025-09-13T10:21:06Z</time>
      </trkpt>
      <trkpt lat="47.53545" lon="6.92229">
        <ele>342.9</ele>
        <time>2025-09-13T10:21:07Z</time>
      </trkpt>
      <trkpt lat="47.53536" lon="6.92227">
        <ele>342.9</ele>
        <time>2025-09-13T10:21:08Z</time>
      </trkpt>
      <trkpt lat="47.53527" lon="6.92225">
        <ele>342.9</ele>
        <time>2025-09-13T10:21:09Z</time>
      </trkpt>
      <trkpt lat="47.53518" lon="6.92223">
        <ele>342.8</ele>
        <time>2025-09-13T10:21:10Z</time>
      </trkpt>
      <trkpt lat="47.53509" lon="6.92219">
        <ele>342.8</ele>
        <time>2025-09-13T10:21:11Z</time>
      </trkpt>
      <trkpt lat="47.535" lon="6.92217">
        <ele>342.7</ele>
        <time>2025-09-13T10:21:12Z</time>
      </trkpt>
      <trkpt lat="47.53491" lon="6.92214">
        <ele>342.7</ele>
        <time>2025-09-13T10:21:13Z</time>
      </trkpt>
      <trkpt lat="47.53482" lon="6.92211">
        <ele>342.6</ele>
        <time>2025-09-13T10:21:14Z</time>
      </trkpt>
      <trkpt lat="47.53473" lon="6.92209">
        <ele>342.6</ele>
        <time>2025-09-13T10:21:15Z</time>
      </trkpt>
      <trkpt lat="47.53465" lon="6.92205">
        <ele>342.5</ele>
        <time>2025-09-13T10:21:16Z</time>
      </trkpt>
      <trkpt lat="47.53456" lon="6.92201">
        <ele>342.4</ele>
        <time>2025-09-13T10:21:17Z</time>
      </trkpt>
      <trkpt lat="47.53447" lon="6.92197">
        <ele>342.3</ele>
        <time>2025-09-13T10:21:18Z</time>
      </trkpt>
      <trkpt lat="47.53439" lon="6.92192">
        <ele>342.1</ele>
        <time>2025-09-13T10:21:19Z</time>
      </trkpt>
      <trkpt lat="47.53432" lon="6.92188">
        <ele>342</ele>
        <time>2025-09-13T10:21:20Z</time>
      </trkpt>
      <trkpt lat="47.53423" lon="6.92184">
        <ele>341.8</ele>
        <time>2025-09-13T10:21:21Z</time>
      </trkpt>
      <trkpt lat="47.53415" lon="6.9218">
        <ele>341.6</ele>
        <time>2025-09-13T10:21:22Z</time>
      </trkpt>
      <trkpt lat="47.53406" lon="6.92175">
        <ele>341.4</ele>
        <time>2025-09-13T10:21:23Z</time>
      </trkpt>
      <trkpt lat="47.53398" lon="6.9217">
        <ele>341.1</ele>
        <time>2025-09-13T10:21:24Z</time>
      </trkpt>
      <trkpt lat="47.5339" lon="6.92165">
        <ele>340.8</ele>
        <time>2025-09-13T10:21:25Z</time>
      </trkpt>
      <trkpt lat="47.53381" lon="6.9216">
        <ele>340.5</ele>
        <time>2025-09-13T10:21:26Z</time>
      </trkpt>
      <trkpt lat="47.53372" lon="6.92156">
        <ele>340.2</ele>
        <time>2025-09-13T10:21:27Z</time>
      </trkpt>
      <trkpt lat="47.53363" lon="6.92151">
        <ele>339.8</ele>
        <time>2025-09-13T10:21:28Z</time>
      </trkpt>
      <trkpt lat="47.53354" lon="6.92145">
        <ele>339.4</ele>
        <time>2025-09-13T10:21:29Z</time>
      </trkpt>
      <trkpt lat="47.53345" lon="6.92139">
        <ele>339.1</ele>
        <time>2025-09-13T10:21:30Z</time>
      </trkpt>
      <trkpt lat="47.53337" lon="6.92133">
        <ele>338.7</ele>
        <time>2025-09-13T10:21:31Z</time>
      </trkpt>
      <trkpt lat="47.53328" lon="6.92127">
        <ele>338.4</ele>
        <time>2025-09-13T10:21:32Z</time>
      </trkpt>
      <trkpt lat="47.53318" lon="6.92121">
        <ele>338</ele>
        <time>2025-09-13T10:21:33Z</time>
      </trkpt>
      <trkpt lat="47.53309" lon="6.92116">
        <ele>337.8</ele>
        <time>2025-09-13T10:21:34Z</time>
      </trkpt>
      <trkpt lat="47.53301" lon="6.92109">
        <ele>337.5</ele>
        <time>2025-09-13T10:21:35Z</time>
      </trkpt>
      <trkpt lat="47.53292" lon="6.92103">
        <ele>337.3</ele>
        <time>2025-09-13T10:21:36Z</time>
      </trkpt>
      <trkpt lat="47.53282" lon="6.92098">
        <ele>337.2</ele>
        <time>2025-09-13T10:21:37Z</time>
      </trkpt>
      <trkpt lat="47.53274" lon="6.92093">
        <ele>337.1</ele>
        <time>2025-09-13T10:21:38Z</time>
      </trkpt>
      <trkpt lat="47.53265" lon="6.92088">
        <ele>337.1</ele>
        <time>2025-09-13T10:21:39Z</time>
      </trkpt>
      <trkpt lat="47.53257" lon="6.92083">
        <ele>337.1</ele>
        <time>2025-09-13T10:21:40Z</time>
      </trkpt>
      <trkpt lat="47.53249" lon="6.92077">
        <ele>337.1</ele>
        <time>2025-09-13T10:21:41Z</time>
      </trkpt>
      <trkpt lat="47.5324" lon="6.92071">
        <ele>337.1</ele>
        <time>2025-09-13T10:21:42Z</time>
      </trkpt>
      <trkpt lat="47.53232" lon="6.92066">
        <ele>337.2</ele>
        <time>2025-09-13T10:21:43Z</time>
      </trkpt>
      <trkpt lat="47.53224" lon="6.92062">
        <ele>337.3</ele>
        <time>2025-09-13T10:21:44Z</time>
      </trkpt>
      <trkpt lat="47.53217" lon="6.92059">
        <ele>337.4</ele>
        <time>2025-09-13T10:21:45Z</time>
      </trkpt>
      <trkpt lat="47.5321" lon="6.92055">
        <ele>337.6</ele>
        <time>2025-09-13T10:21:46Z</time>
      </trkpt>
      <trkpt lat="47.53202" lon="6.9205">
        <ele>337.7</ele>
        <time>2025-09-13T10:21:47Z</time>
      </trkpt>
      <trkpt lat="47.53196" lon="6.92046">
        <ele>337.9</ele>
        <time>2025-09-13T10:21:48Z</time>
      </trkpt>
      <trkpt lat="47.5319" lon="6.92042">
        <ele>338</ele>
        <time>2025-09-13T10:21:49Z</time>
      </trkpt>
      <trkpt lat="47.53184" lon="6.92043">
        <ele>338.1</ele>
        <time>2025-09-13T10:21:50Z</time>
      </trkpt>
      <trkpt lat="47.53179" lon="6.92039">
        <ele>338.2</ele>
        <time>2025-09-13T10:21:51Z</time>
      </trkpt>
      <trkpt lat="47.53172" lon="6.92037">
        <ele>338.4</ele>
        <time>2025-09-13T10:21:52Z</time>
      </trkpt>
      <trkpt lat="47.53164" lon="6.92029">
        <ele>338.6</ele>
        <time>2025-09-13T10:21:53Z</time>
      </trkpt>
      <trkpt lat="47.53159" lon="6.92025">
        <ele>338.7</ele>
        <time>2025-09-13T10:21:54Z</time>
      </trkpt>
      <trkpt lat="47.53154" lon="6.92021">
        <ele>338.8</ele>
        <time>2025-09-13T10:21:55Z</time>
      </trkpt>
      <trkpt lat="47.5315" lon="6.92015">
        <ele>339</ele>
        <time>2025-09-13T10:21:56Z</time>
      </trkpt>
      <trkpt lat="47.53146" lon="6.9201">
        <ele>339</ele>
        <time>2025-09-13T10:21:57Z</time>
      </trkpt>
      <trkpt lat="47.53142" lon="6.92003">
        <ele>339.1</ele>
        <time>2025-09-13T10:21:58Z</time>
      </trkpt>
      <trkpt lat="47.53138" lon="6.91998">
        <ele>339.1</ele>
        <time>2025-09-13T10:21:59Z</time>
      </trkpt>
      <trkpt lat="47.53134" lon="6.91996">
        <ele>339.2</ele>
        <time>2025-09-13T10:22:00Z</time>
      </trkpt>
      <trkpt lat="47.53127" lon="6.91999">
        <ele>340.2</ele>
        <time>2025-09-13T10:22:01Z</time>
      </trkpt>
      <trkpt lat="47.53122" lon="6.92005">
        <ele>340.5</ele>
        <time>2025-09-13T10:22:02Z</time>
      </trkpt>
      <trkpt lat="47.53118" lon="6.92006">
        <ele>340.6</ele>
        <time>2025-09-13T10:22:03Z</time>
      </trkpt>
      <trkpt lat="47.53111" lon="6.92006">
        <ele>340.7</ele>
        <time>2025-09-13T10:22:04Z</time>
      </trkpt>
      <trkpt lat="47.53105" lon="6.92004">
        <ele>340.9</ele>
        <time>2025-09-13T10:22:05Z</time>
      </trkpt>
      <trkpt lat="47.53099" lon="6.92002">
        <ele>341.1</ele>
        <time>2025-09-13T10:22:06Z</time>
      </trkpt>
      <trkpt lat="47.53094" lon="6.91999">
        <ele>341.1</ele>
        <time>2025-09-13T10:22:07Z</time>
      </trkpt>
      <trkpt lat="47.53089" lon="6.91995">
        <ele>341.2</ele>
        <time>2025-09-13T10:22:08Z</time>
      </trkpt>
      <trkpt lat="47.53083" lon="6.91993">
        <ele>341.2</ele>
        <time>2025-09-13T10:22:09Z</time>
      </trkpt>
      <trkpt lat="47.53078" lon="6.91991">
        <ele>341.3</ele>
        <time>2025-09-13T10:22:10Z</time>
      </trkpt>
      <trkpt lat="47.53073" lon="6.91989">
        <ele>341.4</ele>
        <time>2025-09-13T10:22:11Z</time>
      </trkpt>
      <trkpt lat="47.53067" lon="6.91986">
        <ele>341.4</ele>
        <time>2025-09-13T10:22:12Z</time>
      </trkpt>
      <trkpt lat="47.53062" lon="6.91982">
        <ele>341.4</ele>
        <time>2025-09-13T10:22:13Z</time>
      </trkpt>
      <trkpt lat="47.53057" lon="6.91979">
        <ele>341.4</ele>
        <time>2025-09-13T10:22:14Z</time>
      </trkpt>
      <trkpt lat="47.53051" lon="6.91976">
        <ele>341.4</ele>
        <time>2025-09-13T10:22:15Z</time>
      </trkpt>
      <trkpt lat="47.53045" lon="6.91974">
        <ele>341.3</ele>
        <time>2025-09-13T10:22:16Z</time>
      </trkpt>
      <trkpt lat="47.53039" lon="6.91971">
        <ele>341.2</ele>
        <time>2025-09-13T10:22:17Z</time>
      </trkpt>
      <trkpt lat="47.53031" lon="6.91967">
        <ele>341.1</ele>
        <time>2025-09-13T10:22:18Z</time>
      </trkpt>
      <trkpt lat="47.53026" lon="6.91963">
        <ele>341.1</ele>
        <time>2025-09-13T10:22:19Z</time>
      </trkpt>
      <trkpt lat="47.53019" lon="6.9196">
        <ele>341</ele>
        <time>2025-09-13T10:22:20Z</time>
      </trkpt>
      <trkpt lat="47.53012" lon="6.91957">
        <ele>340.9</ele>
        <time>2025-09-13T10:22:21Z</time>
      </trkpt>
      <trkpt lat="47.53007" lon="6.91955">
        <ele>340.8</ele>
        <time>2025-09-13T10:22:22Z</time>
      </trkpt>
      <trkpt lat="47.53" lon="6.9195">
        <ele>340.8</ele>
        <time>2025-09-13T10:22:23Z</time>
      </trkpt>
      <trkpt lat="47.52993" lon="6.91948">
        <ele>340.7</ele>
        <time>2025-09-13T10:22:24Z</time>
      </trkpt>
      <trkpt lat="47.52986" lon="6.91944">
        <ele>340.6</ele>
        <time>2025-09-13T10:22:25Z</time>
      </trkpt>
      <trkpt lat="47.5298" lon="6.9194">
        <ele>340.6</ele>
        <time>2025-09-13T10:22:26Z</time>
      </trkpt>
      <trkpt lat="47.52971" lon="6.91936">
        <ele>340.5</ele>
        <time>2025-09-13T10:22:27Z</time>
      </trkpt>
      <trkpt lat="47.52965" lon="6.91933">
        <ele>340.5</ele>
        <time>2025-09-13T10:22:28Z</time>
      </trkpt>
      <trkpt lat="47.52957" lon="6.91929">
        <ele>340.6</ele>
        <time>2025-09-13T10:22:29Z</time>
      </trkpt>
      <trkpt lat="47.52951" lon="6.91926">
        <ele>340.7</ele>
        <time>2025-09-13T10:22:30Z</time>
      </trkpt>
      <trkpt lat="47.52945" lon="6.91921">
        <ele>340.9</ele>
        <time>2025-09-13T10:22:31Z</time>
      </trkpt>
      <trkpt lat="47.52938" lon="6.91917">
        <ele>341.1</ele>
        <time>2025-09-13T10:22:32Z</time>
      </trkpt>
      <trkpt lat="47.5293" lon="6.91914">
        <ele>341.3</ele>
        <time>2025-09-13T10:22:33Z</time>
      </trkpt>
      <trkpt lat="47.52923" lon="6.91911">
        <ele>341.6</ele>
        <time>2025-09-13T10:22:34Z</time>
      </trkpt>
      <trkpt lat="47.52919" lon="6.91908">
        <ele>341.8</ele>
        <time>2025-09-13T10:22:35Z</time>
      </trkpt>
      <trkpt lat="47.52913" lon="6.91903">
        <ele>342.1</ele>
        <time>2025-09-13T10:22:36Z</time>
      </trkpt>
      <trkpt lat="47.52907" lon="6.91899">
        <ele>342.5</ele>
        <time>2025-09-13T10:22:37Z</time>
      </trkpt>
      <trkpt lat="47.52902" lon="6.91896">
        <ele>342.8</ele>
        <time>2025-09-13T10:22:38Z</time>
      </trkpt>
      <trkpt lat="47.52897" lon="6.91893">
        <ele>343.1</ele>
        <time>2025-09-13T10:22:39Z</time>
      </trkpt>
      <trkpt lat="47.52892" lon="6.91889">
        <ele>343.4</ele>
        <time>2025-09-13T10:22:40Z</time>
      </trkpt>
      <trkpt lat="47.52886" lon="6.91886">
        <ele>343.7</ele>
        <time>2025-09-13T10:22:41Z</time>
      </trkpt>
      <trkpt lat="47.52881" lon="6.91884">
        <ele>343.9</ele>
        <time>2025-09-13T10:22:42Z</time>
      </trkpt>
      <trkpt lat="47.52877" lon="6.91881">
        <ele>344.1</ele>
        <time>2025-09-13T10:22:43Z</time>
      </trkpt>
      <trkpt lat="47.52871" lon="6.91878">
        <ele>344.4</ele>
        <time>2025-09-13T10:22:44Z</time>
      </trkpt>
      <trkpt lat="47.52866" lon="6.91874">
        <ele>344.6</ele>
        <time>2025-09-13T10:22:45Z</time>
      </trkpt>
      <trkpt lat="47.52862" lon="6.9187">
        <ele>344.8</ele>
        <time>2025-09-13T10:22:46Z</time>
      </trkpt>
      <trkpt lat="47.52857" lon="6.91866">
        <ele>345.1</ele>
        <time>2025-09-13T10:22:47Z</time>
      </trkpt>
      <trkpt lat="47.52852" lon="6.91864">
        <ele>345.3</ele>
        <time>2025-09-13T10:22:48Z</time>
      </trkpt>
      <trkpt lat="47.52848" lon="6.91862">
        <ele>345.5</ele>
        <time>2025-09-13T10:22:49Z</time>
      </trkpt>
      <trkpt lat="47.52843" lon="6.91859">
        <ele>345.7</ele>
        <time>2025-09-13T10:22:50Z</time>
      </trkpt>
      <trkpt lat="47.52839" lon="6.91856">
        <ele>345.9</ele>
        <time>2025-09-13T10:22:51Z</time>
      </trkpt>
      <trkpt lat="47.52835" lon="6.91853">
        <ele>346.1</ele>
        <time>2025-09-13T10:22:52Z</time>
      </trkpt>
      <trkpt lat="47.52831" lon="6.91849">
        <ele>346.3</ele>
        <time>2025-09-13T10:22:53Z</time>
      </trkpt>
      <trkpt lat="47.52826" lon="6.91846">
        <ele>346.6</ele>
        <time>2025-09-13T10:22:54Z</time>
      </trkpt>
      <trkpt lat="47.52821" lon="6.91844">
        <ele>346.8</ele>
        <time>2025-09-13T10:22:55Z</time>
      </trkpt>
      <trkpt lat="47.52816" lon="6.91842">
        <ele>347</ele>
        <time>2025-09-13T10:22:56Z</time>
      </trkpt>
      <trkpt lat="47.52812" lon="6.9184">
        <ele>347.2</ele>
        <time>2025-09-13T10:22:57Z</time>
      </trkpt>
      <trkpt lat="47.52806" lon="6.91838">
        <ele>347.4</ele>
        <time>2025-09-13T10:22:58Z</time>
      </trkpt>
      <trkpt lat="47.52802" lon="6.91834">
        <ele>347.6</ele>
        <time>2025-09-13T10:22:59Z</time>
      </trkpt>
      <trkpt lat="47.52805" lon="6.91835">
        <ele>347.8</ele>
        <time>2025-09-13T10:23:00Z</time>
      </trkpt>
      <trkpt lat="47.52803" lon="6.91833">
        <ele>347.9</ele>
        <time>2025-09-13T10:23:01Z</time>
      </trkpt>
      <trkpt lat="47.528" lon="6.91828">
        <ele>348</ele>
        <time>2025-09-13T10:23:02Z</time>
      </trkpt>
      <trkpt lat="47.52797" lon="6.91828">
        <ele>348.1</ele>
        <time>2025-09-13T10:23:03Z</time>
      </trkpt>
      <trkpt lat="47.52793" lon="6.91825">
        <ele>348.2</ele>
        <time>2025-09-13T10:23:04Z</time>
      </trkpt>
      <trkpt lat="47.52791" lon="6.91823">
        <ele>348.3</ele>
        <time>2025-09-13T10:23:05Z</time>
      </trkpt>
      <trkpt lat="47.52783" lon="6.9182">
        <ele>348.6</ele>
        <time>2025-09-13T10:23:06Z</time>
      </trkpt>
      <trkpt lat="47.52775" lon="6.91815">
        <ele>348.9</ele>
        <time>2025-09-13T10:23:07Z</time>
      </trkpt>
      <trkpt lat="47.5277" lon="6.91812">
        <ele>349.1</ele>
        <time>2025-09-13T10:23:08Z</time>
      </trkpt>
      <trkpt lat="47.52764" lon="6.91809">
        <ele>349.4</ele>
        <time>2025-09-13T10:23:09Z</time>
      </trkpt>
      <trkpt lat="47.52759" lon="6.91805">
        <ele>349.6</ele>
        <time>2025-09-13T10:23:10Z</time>
      </trkpt>
      <trkpt lat="47.52754" lon="6.91801">
        <ele>349.9</ele>
        <time>2025-09-13T10:23:11Z</time>
      </trkpt>
      <trkpt lat="47.52748" lon="6.91799">
        <ele>350.2</ele>
        <time>2025-09-13T10:23:12Z</time>
      </trkpt>
      <trkpt lat="47.5275" lon="6.91801">
        <ele>350.3</ele>
        <time>2025-09-13T10:23:13Z</time>
      </trkpt>
      <trkpt lat="47.52746" lon="6.91799">
        <ele>350.4</ele>
        <time>2025-09-13T10:23:14Z</time>
      </trkpt>
      <trkpt lat="47.52745" lon="6.91797">
        <ele>350.5</ele>
        <time>2025-09-13T10:23:15Z</time>
      </trkpt>
      <trkpt lat="47.52743" lon="6.91792">
        <ele>350.7</ele>
        <time>2025-09-13T10:23:16Z</time>
      </trkpt>
      <trkpt lat="47.52739" lon="6.91792">
        <ele>350.9</ele>
        <time>2025-09-13T10:23:17Z</time>
      </trkpt>
      <trkpt lat="47.52737" lon="6.91791">
        <ele>351</ele>
        <time>2025-09-13T10:23:18Z</time>
      </trkpt>
      <trkpt lat="47.52735" lon="6.91791">
        <ele>351.1</ele>
        <time>2025-09-13T10:23:19Z</time>
      </trkpt>
      <trkpt lat="47.52733" lon="6.91791">
        <ele>351.2</ele>
        <time>2025-09-13T10:23:20Z</time>
      </trkpt>
      <trkpt lat="47.52731" lon="6.91788">
        <ele>351.3</ele>
        <time>2025-09-13T10:23:21Z</time>
      </trkpt>
      <trkpt lat="47.5273" lon="6.91787">
        <ele>351.4</ele>
        <time>2025-09-13T10:23:22Z</time>
      </trkpt>
      <trkpt lat="47.52725" lon="6.91785">
        <ele>351.7</ele>
        <time>2025-09-13T10:23:23Z</time>
      </trkpt>
      <trkpt lat="47.52718" lon="6.91781">
        <ele>352.1</ele>
        <time>2025-09-13T10:23:24Z</time>
      </trkpt>
      <trkpt lat="47.52711" lon="6.91776">
        <ele>352.5</ele>
        <time>2025-09-13T10:23:25Z</time>
      </trkpt>
      <trkpt lat="47.52704" lon="6.91775">
        <ele>352.9</ele>
        <time>2025-09-13T10:23:26Z</time>
      </trkpt>
      <trkpt lat="47.52697" lon="6.91771">
        <ele>353.2</ele>
        <time>2025-09-13T10:23:27Z</time>
      </trkpt>
      <trkpt lat="47.52692" lon="6.91768">
        <ele>353.4</ele>
        <time>2025-09-13T10:23:28Z</time>
      </trkpt>
      <trkpt lat="47.52687" lon="6.91767">
        <ele>353.6</ele>
        <time>2025-09-13T10:23:29Z</time>
      </trkpt>
      <trkpt lat="47.52682" lon="6.91765">
        <ele>353.8</ele>
        <time>2025-09-13T10:23:30Z</time>
      </trkpt>
      <trkpt lat="47.52676" lon="6.91761">
        <ele>354.1</ele>
        <time>2025-09-13T10:23:31Z</time>
      </trkpt>
      <trkpt lat="47.5267" lon="6.91756">
        <ele>354.3</ele>
        <time>2025-09-13T10:23:32Z</time>
      </trkpt>
      <trkpt lat="47.52663" lon="6.91754">
        <ele>354.6</ele>
        <time>2025-09-13T10:23:33Z</time>
      </trkpt>
      <trkpt lat="47.52656" lon="6.9175">
        <ele>354.8</ele>
        <time>2025-09-13T10:23:34Z</time>
      </trkpt>
      <trkpt lat="47.5265" lon="6.91748">
        <ele>355</ele>
        <time>2025-09-13T10:23:35Z</time>
      </trkpt>
      <trkpt lat="47.52645" lon="6.91745">
        <ele>355.2</ele>
        <time>2025-09-13T10:23:36Z</time>
      </trkpt>
      <trkpt lat="47.52639" lon="6.91743">
        <ele>355.3</ele>
        <time>2025-09-13T10:23:37Z</time>
      </trkpt>
      <trkpt lat="47.52633" lon="6.91741">
        <ele>355.4</ele>
        <time>2025-09-13T10:23:38Z</time>
      </trkpt>
      <trkpt lat="47.52626" lon="6.91736">
        <ele>355.5</ele>
        <time>2025-09-13T10:23:39Z</time>
      </trkpt>
      <trkpt lat="47.52618" lon="6.91732">
        <ele>355.5</ele>
        <time>2025-09-13T10:23:40Z</time>
      </trkpt>
      <trkpt lat="47.52611" lon="6.91727">
        <ele>355.4</ele>
        <time>2025-09-13T10:23:41Z</time>
      </trkpt>
      <trkpt lat="47.52601" lon="6.91721">
        <ele>355.1</ele>
        <time>2025-09-13T10:23:42Z</time>
      </trkpt>
      <trkpt lat="47.52592" lon="6.91717">
        <ele>354.8</ele>
        <time>2025-09-13T10:23:43Z</time>
      </trkpt>
      <trkpt lat="47.52583" lon="6.91714">
        <ele>354.3</ele>
        <time>2025-09-13T10:23:44Z</time>
      </trkpt>
      <trkpt lat="47.52572" lon="6.91714">
        <ele>353.8</ele>
        <time>2025-09-13T10:23:45Z</time>
      </trkpt>
      <trkpt lat="47.52563" lon="6.91716">
        <ele>353.5</ele>
        <time>2025-09-13T10:23:46Z</time>
      </trkpt>
      <trkpt lat="47.52556" lon="6.91721">
        <ele>353.2</ele>
        <time>2025-09-13T10:23:47Z</time>
      </trkpt>
      <trkpt lat="47.52547" lon="6.91729">
        <ele>352.8</ele>
        <time>2025-09-13T10:23:48Z</time>
      </trkpt>
      <trkpt lat="47.52538" lon="6.91738">
        <ele>352.5</ele>
        <time>2025-09-13T10:23:49Z</time>
      </trkpt>
      <trkpt lat="47.52528" lon="6.91745">
        <ele>352.2</ele>
        <time>2025-09-13T10:23:50Z</time>
      </trkpt>
      <trkpt lat="47.52519" lon="6.91751">
        <ele>352.1</ele>
        <time>2025-09-13T10:23:51Z</time>
      </trkpt>
      <trkpt lat="47.52509" lon="6.91756">
        <ele>352</ele>
        <time>2025-09-13T10:23:52Z</time>
      </trkpt>
      <trkpt lat="47.52498" lon="6.91753">
        <ele>351.8</ele>
        <time>2025-09-13T10:23:53Z</time>
      </trkpt>
      <trkpt lat="47.52486" lon="6.91747">
        <ele>351.8</ele>
        <time>2025-09-13T10:23:54Z</time>
      </trkpt>
      <trkpt lat="47.52477" lon="6.91742">
        <ele>352</ele>
        <time>2025-09-13T10:23:55Z</time>
      </trkpt>
      <trkpt lat="47.5247" lon="6.91737">
        <ele>352.1</ele>
        <time>2025-09-13T10:23:56Z</time>
      </trkpt>
      <trkpt lat="47.52463" lon="6.91731">
        <ele>352.4</ele>
        <time>2025-09-13T10:23:57Z</time>
      </trkpt>
      <trkpt lat="47.52455" lon="6.91727">
        <ele>352.7</ele>
        <time>2025-09-13T10:23:58Z</time>
      </trkpt>
      <trkpt lat="47.52447" lon="6.91723">
        <ele>353</ele>
        <time>2025-09-13T10:23:59Z</time>
      </trkpt>
      <trkpt lat="47.52441" lon="6.9172">
        <ele>353.3</ele>
        <time>2025-09-13T10:24:00Z</time>
      </trkpt>
      <trkpt lat="47.52434" lon="6.91717">
        <ele>353.6</ele>
        <time>2025-09-13T10:24:01Z</time>
      </trkpt>
      <trkpt lat="47.52428" lon="6.91712">
        <ele>353.8</ele>
        <time>2025-09-13T10:24:02Z</time>
      </trkpt>
      <trkpt lat="47.52421" lon="6.9171">
        <ele>354</ele>
        <time>2025-09-13T10:24:03Z</time>
      </trkpt>
      <trkpt lat="47.52417" lon="6.91707">
        <ele>354.1</ele>
        <time>2025-09-13T10:24:04Z</time>
      </trkpt>
      <trkpt lat="47.52411" lon="6.91703">
        <ele>354.2</ele>
        <time>2025-09-13T10:24:05Z</time>
      </trkpt>
      <trkpt lat="47.52405" lon="6.91698">
        <ele>354.3</ele>
        <time>2025-09-13T10:24:06Z</time>
      </trkpt>
      <trkpt lat="47.524" lon="6.91692">
        <ele>354.3</ele>
        <time>2025-09-13T10:24:07Z</time>
      </trkpt>
      <trkpt lat="47.52397" lon="6.91684">
        <ele>354.3</ele>
        <time>2025-09-13T10:24:08Z</time>
      </trkpt>
      <trkpt lat="47.52393" lon="6.91676">
        <ele>354.3</ele>
        <time>2025-09-13T10:24:09Z</time>
      </trkpt>
      <trkpt lat="47.52389" lon="6.91669">
        <ele>354.2</ele>
        <time>2025-09-13T10:24:10Z</time>
      </trkpt>
      <trkpt lat="47.52385" lon="6.91661">
        <ele>354.2</ele>
        <time>2025-09-13T10:24:11Z</time>
      </trkpt>
      <trkpt lat="47.5238" lon="6.91651">
        <ele>354.1</ele>
        <time>2025-09-13T10:24:12Z</time>
      </trkpt>
      <trkpt lat="47.52375" lon="6.91643">
        <ele>353.9</ele>
        <time>2025-09-13T10:24:13Z</time>
      </trkpt>
      <trkpt lat="47.52369" lon="6.91636">
        <ele>353.8</ele>
        <time>2025-09-13T10:24:14Z</time>
      </trkpt>
      <trkpt lat="47.52362" lon="6.91631">
        <ele>353.7</ele>
        <time>2025-09-13T10:24:15Z</time>
      </trkpt>
      <trkpt lat="47.52354" lon="6.91627">
        <ele>353.5</ele>
        <time>2025-09-13T10:24:16Z</time>
      </trkpt>
      <trkpt lat="47.52345" lon="6.91624">
        <ele>353.3</ele>
        <time>2025-09-13T10:24:17Z</time>
      </trkpt>
      <trkpt lat="47.52336" lon="6.91622">
        <ele>352.9</ele>
        <time>2025-09-13T10:24:18Z</time>
      </trkpt>
      <trkpt lat="47.52328" lon="6.91618">
        <ele>352.7</ele>
        <time>2025-09-13T10:24:19Z</time>
      </trkpt>
      <trkpt lat="47.5232" lon="6.91613">
        <ele>352.3</ele>
        <time>2025-09-13T10:24:20Z</time>
      </trkpt>
      <trkpt lat="47.52312" lon="6.91609">
        <ele>352</ele>
        <time>2025-09-13T10:24:21Z</time>
      </trkpt>
      <trkpt lat="47.52304" lon="6.91604">
        <ele>351.8</ele>
        <time>2025-09-13T10:24:22Z</time>
      </trkpt>
      <trkpt lat="47.52295" lon="6.91601">
        <ele>351.5</ele>
        <time>2025-09-13T10:24:23Z</time>
      </trkpt>
      <trkpt lat="47.52286" lon="6.91596">
        <ele>351.2</ele>
        <time>2025-09-13T10:24:24Z</time>
      </trkpt>
      <trkpt lat="47.52278" lon="6.91592">
        <ele>350.9</ele>
        <time>2025-09-13T10:24:25Z</time>
      </trkpt>
      <trkpt lat="47.52269" lon="6.91589">
        <ele>350.7</ele>
        <time>2025-09-13T10:24:26Z</time>
      </trkpt>
      <trkpt lat="47.5226" lon="6.91585">
        <ele>350.4</ele>
        <time>2025-09-13T10:24:27Z</time>
      </trkpt>
      <trkpt lat="47.52253" lon="6.91584">
        <ele>350.2</ele>
        <time>2025-09-13T10:24:28Z</time>
      </trkpt>
      <trkpt lat="47.52246" lon="6.91578">
        <ele>350</ele>
        <time>2025-09-13T10:24:29Z</time>
      </trkpt>
      <trkpt lat="47.52237" lon="6.91574">
        <ele>349.8</ele>
        <time>2025-09-13T10:24:30Z</time>
      </trkpt>
      <trkpt lat="47.5223" lon="6.9157">
        <ele>349.6</ele>
        <time>2025-09-13T10:24:31Z</time>
      </trkpt>
      <trkpt lat="47.52222" lon="6.91566">
        <ele>349.4</ele>
        <time>2025-09-13T10:24:32Z</time>
      </trkpt>
      <trkpt lat="47.52214" lon="6.91562">
        <ele>349.2</ele>
        <time>2025-09-13T10:24:33Z</time>
      </trkpt>
      <trkpt lat="47.52206" lon="6.91558">
        <ele>349</ele>
        <time>2025-09-13T10:24:34Z</time>
      </trkpt>
      <trkpt lat="47.52198" lon="6.91554">
        <ele>348.7</ele>
        <time>2025-09-13T10:24:35Z</time>
      </trkpt>
      <trkpt lat="47.5219" lon="6.9155">
        <ele>348.4</ele>
        <time>2025-09-13T10:24:36Z</time>
      </trkpt>
      <trkpt lat="47.52181" lon="6.91545">
        <ele>348</ele>
        <time>2025-09-13T10:24:37Z</time>
      </trkpt>
      <trkpt lat="47.52173" lon="6.91541">
        <ele>347.6</ele>
        <time>2025-09-13T10:24:38Z</time>
      </trkpt>
      <trkpt lat="47.52164" lon="6.91536">
        <ele>347.3</ele>
        <time>2025-09-13T10:24:39Z</time>
      </trkpt>
      <trkpt lat="47.52156" lon="6.91533">
        <ele>346.8</ele>
        <time>2025-09-13T10:24:40Z</time>
      </trkpt>
      <trkpt lat="47.5215" lon="6.91529">
        <ele>346.4</ele>
        <time>2025-09-13T10:24:41Z</time>
      </trkpt>
      <trkpt lat="47.52141" lon="6.91526">
        <ele>345.8</ele>
        <time>2025-09-13T10:24:42Z</time>
      </trkpt>
      <trkpt lat="47.52133" lon="6.91523">
        <ele>345.3</ele>
        <time>2025-09-13T10:24:43Z</time>
      </trkpt>
      <trkpt lat="47.52125" lon="6.91519">
        <ele>344.8</ele>
        <time>2025-09-13T10:24:44Z</time>
      </trkpt>
      <trkpt lat="47.52117" lon="6.91517">
        <ele>344.2</ele>
        <time>2025-09-13T10:24:45Z</time>
      </trkpt>
      <trkpt lat="47.52109" lon="6.91514">
        <ele>343.6</ele>
        <time>2025-09-13T10:24:46Z</time>
      </trkpt>
      <trkpt lat="47.52103" lon="6.91512">
        <ele>343.2</ele>
        <time>2025-09-13T10:24:47Z</time>
      </trkpt>
      <trkpt lat="47.52098" lon="6.9151">
        <ele>342.9</ele>
        <time>2025-09-13T10:24:48Z</time>
      </trkpt>
      <trkpt lat="47.52094" lon="6.91508">
        <ele>342.6</ele>
        <time>2025-09-13T10:24:49Z</time>
      </trkpt>
      <trkpt lat="47.52093" lon="6.91507">
        <ele>342.5</ele>
        <time>2025-09-13T10:24:50Z</time>
      </trkpt>
      <trkpt lat="47.5209" lon="6.91505">
        <ele>342.3</ele>
        <time>2025-09-13T10:24:51Z</time>
      </trkpt>
      <trkpt lat="47.52088" lon="6.91503">
        <ele>342.1</ele>
        <time>2025-09-13T10:24:52Z</time>
      </trkpt>
      <trkpt lat="47.52087" lon="6.91502">
        <ele>342.1</ele>
        <time>2025-09-13T10:24:53Z</time>
      </trkpt>
      <trkpt lat="47.52085" lon="6.91502">
        <ele>341.9</ele>
        <time>2025-09-13T10:24:55Z</time>
      </trkpt>
      <trkpt lat="47.52083" lon="6.91501">
        <ele>341.8</ele>
        <time>2025-09-13T10:24:56Z</time>
      </trkpt>
      <trkpt lat="47.52081" lon="6.915">
        <ele>341.6</ele>
        <time>2025-09-13T10:24:57Z</time>
      </trkpt>
      <trkpt lat="47.52077" lon="6.915">
        <ele>341.3</ele>
        <time>2025-09-13T10:24:58Z</time>
      </trkpt>
      <trkpt lat="47.52073" lon="6.91503">
        <ele>341.3</ele>
        <time>2025-09-13T10:24:59Z</time>
      </trkpt>
      <trkpt lat="47.52068" lon="6.91508">
        <ele>341.3</ele>
        <time>2025-09-13T10:25:00Z</time>
      </trkpt>
      <trkpt lat="47.52063" lon="6.91514">
        <ele>341.3</ele>
        <time>2025-09-13T10:25:01Z</time>
      </trkpt>
      <trkpt lat="47.52059" lon="6.91523">
        <ele>341.2</ele>
        <time>2025-09-13T10:25:02Z</time>
      </trkpt>
      <trkpt lat="47.52053" lon="6.91532">
        <ele>341.2</ele>
        <time>2025-09-13T10:25:03Z</time>
      </trkpt>
      <trkpt lat="47.52049" lon="6.91541">
        <ele>341.1</ele>
        <time>2025-09-13T10:25:04Z</time>
      </trkpt>
      <trkpt lat="47.52045" lon="6.9155">
        <ele>341.1</ele>
        <time>2025-09-13T10:25:05Z</time>
      </trkpt>
      <trkpt lat="47.5204" lon="6.91559">
        <ele>341</ele>
        <time>2025-09-13T10:25:06Z</time>
      </trkpt>
      <trkpt lat="47.52035" lon="6.91568">
        <ele>340.9</ele>
        <time>2025-09-13T10:25:07Z</time>
      </trkpt>
      <trkpt lat="47.5203" lon="6.91577">
        <ele>340.8</ele>
        <time>2025-09-13T10:25:08Z</time>
      </trkpt>
      <trkpt lat="47.52025" lon="6.91587">
        <ele>340.7</ele>
        <time>2025-09-13T10:25:09Z</time>
      </trkpt>
      <trkpt lat="47.5202" lon="6.91596">
        <ele>340.6</ele>
        <time>2025-09-13T10:25:10Z</time>
      </trkpt>
      <trkpt lat="47.52014" lon="6.91604">
        <ele>340.5</ele>
        <time>2025-09-13T10:25:11Z</time>
      </trkpt>
      <trkpt lat="47.52009" lon="6.91615">
        <ele>340.3</ele>
        <time>2025-09-13T10:25:12Z</time>
      </trkpt>
      <trkpt lat="47.52004" lon="6.91625">
        <ele>340.2</ele>
        <time>2025-09-13T10:25:13Z</time>
      </trkpt>
      <trkpt lat="47.51999" lon="6.91635">
        <ele>340.1</ele>
        <time>2025-09-13T10:25:14Z</time>
      </trkpt>
      <trkpt lat="47.51993" lon="6.91644">
        <ele>340</ele>
        <time>2025-09-13T10:25:15Z</time>
      </trkpt>
      <trkpt lat="47.51987" lon="6.91653">
        <ele>340</ele>
        <time>2025-09-13T10:25:16Z</time>
      </trkpt>
      <trkpt lat="47.51982" lon="6.91663">
        <ele>339.9</ele>
        <time>2025-09-13T10:25:17Z</time>
      </trkpt>
      <trkpt lat="47.51977" lon="6.91673">
        <ele>339.9</ele>
        <time>2025-09-13T10:25:18Z</time>
      </trkpt>
      <trkpt lat="47.51971" lon="6.91681">
        <ele>340</ele>
        <time>2025-09-13T10:25:19Z</time>
      </trkpt>
      <trkpt lat="47.51965" lon="6.9169">
        <ele>340</ele>
        <time>2025-09-13T10:25:20Z</time>
      </trkpt>
      <trkpt lat="47.51959" lon="6.91699">
        <ele>340</ele>
        <time>2025-09-13T10:25:21Z</time>
      </trkpt>
      <trkpt lat="47.51954" lon="6.91707">
        <ele>340.1</ele>
        <time>2025-09-13T10:25:22Z</time>
      </trkpt>
      <trkpt lat="47.51949" lon="6.91714">
        <ele>340.1</ele>
        <time>2025-09-13T10:25:23Z</time>
      </trkpt>
      <trkpt lat="47.51943" lon="6.91724">
        <ele>340.2</ele>
        <time>2025-09-13T10:25:24Z</time>
      </trkpt>
      <trkpt lat="47.51937" lon="6.91732">
        <ele>340.2</ele>
        <time>2025-09-13T10:25:25Z</time>
      </trkpt>
      <trkpt lat="47.51932" lon="6.9174">
        <ele>340.3</ele>
        <time>2025-09-13T10:25:26Z</time>
      </trkpt>
      <trkpt lat="47.51926" lon="6.91749">
        <ele>340.3</ele>
        <time>2025-09-13T10:25:27Z</time>
      </trkpt>
      <trkpt lat="47.51921" lon="6.91757">
        <ele>340.3</ele>
        <time>2025-09-13T10:25:28Z</time>
      </trkpt>
      <trkpt lat="47.51916" lon="6.91765">
        <ele>340.3</ele>
        <time>2025-09-13T10:25:29Z</time>
      </trkpt>
      <trkpt lat="47.5191" lon="6.91772">
        <ele>340.3</ele>
        <time>2025-09-13T10:25:30Z</time>
      </trkpt>
      <trkpt lat="47.51905" lon="6.91783">
        <ele>340.3</ele>
        <time>2025-09-13T10:25:31Z</time>
      </trkpt>
      <trkpt lat="47.519" lon="6.9179">
        <ele>340.3</ele>
        <time>2025-09-13T10:25:32Z</time>
      </trkpt>
      <trkpt lat="47.51894" lon="6.91798">
        <ele>340.3</ele>
        <time>2025-09-13T10:25:33Z</time>
      </trkpt>
      <trkpt lat="47.51888" lon="6.91806">
        <ele>340.3</ele>
        <time>2025-09-13T10:25:34Z</time>
      </trkpt>
      <trkpt lat="47.51881" lon="6.91812">
        <ele>340.3</ele>
        <time>2025-09-13T10:25:35Z</time>
      </trkpt>
      <trkpt lat="47.51874" lon="6.91818">
        <ele>340.3</ele>
        <time>2025-09-13T10:25:36Z</time>
      </trkpt>
      <trkpt lat="47.51866" lon="6.91823">
        <ele>340.3</ele>
        <time>2025-09-13T10:25:37Z</time>
      </trkpt>
      <trkpt lat="47.51859" lon="6.91829">
        <ele>340.3</ele>
        <time>2025-09-13T10:25:38Z</time>
      </trkpt>
      <trkpt lat="47.51853" lon="6.91834">
        <ele>340.3</ele>
        <time>2025-09-13T10:25:39Z</time>
      </trkpt>
      <trkpt lat="47.51846" lon="6.91839">
        <ele>340.3</ele>
        <time>2025-09-13T10:25:40Z</time>
      </trkpt>
      <trkpt lat="47.5184" lon="6.91843">
        <ele>340.3</ele>
        <time>2025-09-13T10:25:41Z</time>
      </trkpt>
      <trkpt lat="47.51832" lon="6.91849">
        <ele>340.3</ele>
        <time>2025-09-13T10:25:42Z</time>
      </trkpt>
      <trkpt lat="47.51825" lon="6.91854">
        <ele>340.4</ele>
        <time>2025-09-13T10:25:43Z</time>
      </trkpt>
      <trkpt lat="47.51818" lon="6.91858">
        <ele>340.4</ele>
        <time>2025-09-13T10:25:44Z</time>
      </trkpt>
      <trkpt lat="47.5181" lon="6.91862">
        <ele>340.4</ele>
        <time>2025-09-13T10:25:45Z</time>
      </trkpt>
      <trkpt lat="47.51803" lon="6.91867">
        <ele>340.4</ele>
        <time>2025-09-13T10:25:46Z</time>
      </trkpt>
      <trkpt lat="47.51796" lon="6.9187">
        <ele>340.5</ele>
        <time>2025-09-13T10:25:47Z</time>
      </trkpt>
      <trkpt lat="47.51788" lon="6.91875">
        <ele>340.5</ele>
        <time>2025-09-13T10:25:48Z</time>
      </trkpt>
      <trkpt lat="47.51782" lon="6.9188">
        <ele>340.5</ele>
        <time>2025-09-13T10:25:49Z</time>
      </trkpt>
      <trkpt lat="47.51776" lon="6.91885">
        <ele>340.5</ele>
        <time>2025-09-13T10:25:50Z</time>
      </trkpt>
      <trkpt lat="47.51768" lon="6.91888">
        <ele>340.6</ele>
        <time>2025-09-13T10:25:51Z</time>
      </trkpt>
      <trkpt lat="47.51761" lon="6.91892">
        <ele>340.6</ele>
        <time>2025-09-13T10:25:52Z</time>
      </trkpt>
      <trkpt lat="47.51754" lon="6.91897">
        <ele>340.6</ele>
        <time>2025-09-13T10:25:53Z</time>
      </trkpt>
      <trkpt lat="47.51747" lon="6.91901">
        <ele>340.7</ele>
        <time>2025-09-13T10:25:54Z</time>
      </trkpt>
      <trkpt lat="47.5174" lon="6.91905">
        <ele>340.7</ele>
        <time>2025-09-13T10:25:55Z</time>
      </trkpt>
      <trkpt lat="47.51734" lon="6.91909">
        <ele>340.7</ele>
        <time>2025-09-13T10:25:56Z</time>
      </trkpt>
      <trkpt lat="47.51726" lon="6.91913">
        <ele>340.7</ele>
        <time>2025-09-13T10:25:57Z</time>
      </trkpt>
      <trkpt lat="47.5172" lon="6.91918">
        <ele>340.7</ele>
        <time>2025-09-13T10:25:58Z</time>
      </trkpt>
      <trkpt lat="47.51713" lon="6.91923">
        <ele>340.7</ele>
        <time>2025-09-13T10:25:59Z</time>
      </trkpt>
      <trkpt lat="47.51705" lon="6.91927">
        <ele>340.8</ele>
        <time>2025-09-13T10:26:00Z</time>
      </trkpt>
      <trkpt lat="47.51698" lon="6.91931">
        <ele>340.8</ele>
        <time>2025-09-13T10:26:01Z</time>
      </trkpt>
      <trkpt lat="47.51685" lon="6.91939">
        <ele>340.9</ele>
        <time>2025-09-13T10:26:02Z</time>
      </trkpt>
      <trkpt lat="47.51679" lon="6.91944">
        <ele>341</ele>
        <time>2025-09-13T10:26:03Z</time>
      </trkpt>
      <trkpt lat="47.51672" lon="6.9195">
        <ele>341</ele>
        <time>2025-09-13T10:26:04Z</time>
      </trkpt>
      <trkpt lat="47.51665" lon="6.91956">
        <ele>341.1</ele>
        <time>2025-09-13T10:26:05Z</time>
      </trkpt>
      <trkpt lat="47.51658" lon="6.91962">
        <ele>341.1</ele>
        <time>2025-09-13T10:26:06Z</time>
      </trkpt>
      <trkpt lat="47.51653" lon="6.91968">
        <ele>341.2</ele>
        <time>2025-09-13T10:26:07Z</time>
      </trkpt>
      <trkpt lat="47.51647" lon="6.91975">
        <ele>341.3</ele>
        <time>2025-09-13T10:26:08Z</time>
      </trkpt>
      <trkpt lat="47.51642" lon="6.91982">
        <ele>341.3</ele>
        <time>2025-09-13T10:26:09Z</time>
      </trkpt>
      <trkpt lat="47.51636" lon="6.91988">
        <ele>341.4</ele>
        <time>2025-09-13T10:26:10Z</time>
      </trkpt>
      <trkpt lat="47.5163" lon="6.91996">
        <ele>341.5</ele>
        <time>2025-09-13T10:26:11Z</time>
      </trkpt>
      <trkpt lat="47.51626" lon="6.92004">
        <ele>341.5</ele>
        <time>2025-09-13T10:26:12Z</time>
      </trkpt>
      <trkpt lat="47.51621" lon="6.92011">
        <ele>341.6</ele>
        <time>2025-09-13T10:26:13Z</time>
      </trkpt>
      <trkpt lat="47.51616" lon="6.92019">
        <ele>341.6</ele>
        <time>2025-09-13T10:26:14Z</time>
      </trkpt>
      <trkpt lat="47.51611" lon="6.92028">
        <ele>341.6</ele>
        <time>2025-09-13T10:26:15Z</time>
      </trkpt>
      <trkpt lat="47.51606" lon="6.92037">
        <ele>341.6</ele>
        <time>2025-09-13T10:26:16Z</time>
      </trkpt>
      <trkpt lat="47.51601" lon="6.92045">
        <ele>341.7</ele>
        <time>2025-09-13T10:26:17Z</time>
      </trkpt>
      <trkpt lat="47.51597" lon="6.92054">
        <ele>341.7</ele>
        <time>2025-09-13T10:26:18Z</time>
      </trkpt>
      <trkpt lat="47.51593" lon="6.92063">
        <ele>341.7</ele>
        <time>2025-09-13T10:26:19Z</time>
      </trkpt>
      <trkpt lat="47.51589" lon="6.92072">
        <ele>341.7</ele>
        <time>2025-09-13T10:26:20Z</time>
      </trkpt>
      <trkpt lat="47.51585" lon="6.92081">
        <ele>341.8</ele>
        <time>2025-09-13T10:26:21Z</time>
      </trkpt>
      <trkpt lat="47.51582" lon="6.92091">
        <ele>341.8</ele>
        <time>2025-09-13T10:26:22Z</time>
      </trkpt>
      <trkpt lat="47.51579" lon="6.92101">
        <ele>341.8</ele>
        <time>2025-09-13T10:26:23Z</time>
      </trkpt>
      <trkpt lat="47.51576" lon="6.92111">
        <ele>341.9</ele>
        <time>2025-09-13T10:26:24Z</time>
      </trkpt>
      <trkpt lat="47.51573" lon="6.92121">
        <ele>341.9</ele>
        <time>2025-09-13T10:26:25Z</time>
      </trkpt>
      <trkpt lat="47.51571" lon="6.92131">
        <ele>341.9</ele>
        <time>2025-09-13T10:26:26Z</time>
      </trkpt>
      <trkpt lat="47.51568" lon="6.92142">
        <ele>342</ele>
        <time>2025-09-13T10:26:27Z</time>
      </trkpt>
      <trkpt lat="47.51565" lon="6.92152">
        <ele>342.1</ele>
        <time>2025-09-13T10:26:28Z</time>
      </trkpt>
      <trkpt lat="47.51562" lon="6.92162">
        <ele>342.2</ele>
        <time>2025-09-13T10:26:29Z</time>
      </trkpt>
      <trkpt lat="47.51559" lon="6.92172">
        <ele>342.3</ele>
        <time>2025-09-13T10:26:30Z</time>
      </trkpt>
      <trkpt lat="47.51557" lon="6.9218">
        <ele>342.4</ele>
        <time>2025-09-13T10:26:31Z</time>
      </trkpt>
      <trkpt lat="47.51554" lon="6.92191">
        <ele>342.5</ele>
        <time>2025-09-13T10:26:32Z</time>
      </trkpt>
      <trkpt lat="47.51552" lon="6.922">
        <ele>342.6</ele>
        <time>2025-09-13T10:26:33Z</time>
      </trkpt>
      <trkpt lat="47.51549" lon="6.92212">
        <ele>342.8</ele>
        <time>2025-09-13T10:26:34Z</time>
      </trkpt>
      <trkpt lat="47.51546" lon="6.92221">
        <ele>342.9</ele>
        <time>2025-09-13T10:26:35Z</time>
      </trkpt>
      <trkpt lat="47.51544" lon="6.9223">
        <ele>343</ele>
        <time>2025-09-13T10:26:36Z</time>
      </trkpt>
      <trkpt lat="47.51541" lon="6.9224">
        <ele>343.2</ele>
        <time>2025-09-13T10:26:37Z</time>
      </trkpt>
      <trkpt lat="47.51539" lon="6.92248">
        <ele>343.4</ele>
        <time>2025-09-13T10:26:38Z</time>
      </trkpt>
      <trkpt lat="47.51536" lon="6.92258">
        <ele>343.5</ele>
        <time>2025-09-13T10:26:39Z</time>
      </trkpt>
      <trkpt lat="47.51533" lon="6.92266">
        <ele>343.6</ele>
        <time>2025-09-13T10:26:40Z</time>
      </trkpt>
      <trkpt lat="47.5153" lon="6.92275">
        <ele>343.8</ele>
        <time>2025-09-13T10:26:41Z</time>
      </trkpt>
      <trkpt lat="47.51527" lon="6.92284">
        <ele>343.9</ele>
        <time>2025-09-13T10:26:42Z</time>
      </trkpt>
      <trkpt lat="47.51524" lon="6.92292">
        <ele>344</ele>
        <time>2025-09-13T10:26:43Z</time>
      </trkpt>
      <trkpt lat="47.51521" lon="6.92301">
        <ele>344.2</ele>
        <time>2025-09-13T10:26:44Z</time>
      </trkpt>
      <trkpt lat="47.51517" lon="6.9231">
        <ele>344.4</ele>
        <time>2025-09-13T10:26:45Z</time>
      </trkpt>
      <trkpt lat="47.51515" lon="6.92316">
        <ele>344.5</ele>
        <time>2025-09-13T10:26:46Z</time>
      </trkpt>
      <trkpt lat="47.51511" lon="6.92323">
        <ele>344.7</ele>
        <time>2025-09-13T10:26:47Z</time>
      </trkpt>
      <trkpt lat="47.51508" lon="6.92332">
        <ele>345</ele>
        <time>2025-09-13T10:26:48Z</time>
      </trkpt>
      <trkpt lat="47.51505" lon="6.9234">
        <ele>345.2</ele>
        <time>2025-09-13T10:26:49Z</time>
      </trkpt>
      <trkpt lat="47.51502" lon="6.92347">
        <ele>345.5</ele>
        <time>2025-09-13T10:26:50Z</time>
      </trkpt>
      <trkpt lat="47.51498" lon="6.92355">
        <ele>345.7</ele>
        <time>2025-09-13T10:26:51Z</time>
      </trkpt>
      <trkpt lat="47.51495" lon="6.92363">
        <ele>346</ele>
        <time>2025-09-13T10:26:52Z</time>
      </trkpt>
      <trkpt lat="47.51491" lon="6.9237">
        <ele>346.3</ele>
        <time>2025-09-13T10:26:53Z</time>
      </trkpt>
      <trkpt lat="47.51488" lon="6.92376">
        <ele>346.5</ele>
        <time>2025-09-13T10:26:54Z</time>
      </trkpt>
      <trkpt lat="47.51484" lon="6.92383">
        <ele>346.8</ele>
        <time>2025-09-13T10:26:55Z</time>
      </trkpt>
      <trkpt lat="47.51481" lon="6.9239">
        <ele>347</ele>
        <time>2025-09-13T10:26:56Z</time>
      </trkpt>
      <trkpt lat="47.51478" lon="6.92398">
        <ele>347.3</ele>
        <time>2025-09-13T10:26:57Z</time>
      </trkpt>
      <trkpt lat="47.51475" lon="6.92405">
        <ele>347.4</ele>
        <time>2025-09-13T10:26:58Z</time>
      </trkpt>
      <trkpt lat="47.51472" lon="6.9241">
        <ele>347.6</ele>
        <time>2025-09-13T10:26:59Z</time>
      </trkpt>
      <trkpt lat="47.51469" lon="6.92417">
        <ele>347.8</ele>
        <time>2025-09-13T10:27:01Z</time>
      </trkpt>
      <trkpt lat="47.51466" lon="6.92425">
        <ele>348</ele>
        <time>2025-09-13T10:27:02Z</time>
      </trkpt>
      <trkpt lat="47.51463" lon="6.92434">
        <ele>348.2</ele>
        <time>2025-09-13T10:27:03Z</time>
      </trkpt>
      <trkpt lat="47.51461" lon="6.92443">
        <ele>348.4</ele>
        <time>2025-09-13T10:27:04Z</time>
      </trkpt>
      <trkpt lat="47.51458" lon="6.92449">
        <ele>348.5</ele>
        <time>2025-09-13T10:27:05Z</time>
      </trkpt>
      <trkpt lat="47.51456" lon="6.92457">
        <ele>348.6</ele>
        <time>2025-09-13T10:27:06Z</time>
      </trkpt>
      <trkpt lat="47.51453" lon="6.92465">
        <ele>348.6</ele>
        <time>2025-09-13T10:27:07Z</time>
      </trkpt>
      <trkpt lat="47.51451" lon="6.92472">
        <ele>348.7</ele>
        <time>2025-09-13T10:27:08Z</time>
      </trkpt>
      <trkpt lat="47.51448" lon="6.9248">
        <ele>348.7</ele>
        <time>2025-09-13T10:27:09Z</time>
      </trkpt>
      <trkpt lat="47.51445" lon="6.9249">
        <ele>348.7</ele>
        <time>2025-09-13T10:27:10Z</time>
      </trkpt>
      <trkpt lat="47.51443" lon="6.92497">
        <ele>348.7</ele>
        <time>2025-09-13T10:27:11Z</time>
      </trkpt>
      <trkpt lat="47.5144" lon="6.92507">
        <ele>348.6</ele>
        <time>2025-09-13T10:27:12Z</time>
      </trkpt>
      <trkpt lat="47.51438" lon="6.92515">
        <ele>348.6</ele>
        <time>2025-09-13T10:27:13Z</time>
      </trkpt>
      <trkpt lat="47.51435" lon="6.92525">
        <ele>348.5</ele>
        <time>2025-09-13T10:27:14Z</time>
      </trkpt>
      <trkpt lat="47.51433" lon="6.92534">
        <ele>348.4</ele>
        <time>2025-09-13T10:27:15Z</time>
      </trkpt>
      <trkpt lat="47.5143" lon="6.92543">
        <ele>348.3</ele>
        <time>2025-09-13T10:27:16Z</time>
      </trkpt>
      <trkpt lat="47.51427" lon="6.92554">
        <ele>348.3</ele>
        <time>2025-09-13T10:27:17Z</time>
      </trkpt>
      <trkpt lat="47.51425" lon="6.92562">
        <ele>348.2</ele>
        <time>2025-09-13T10:27:18Z</time>
      </trkpt>
      <trkpt lat="47.51422" lon="6.92571">
        <ele>348.1</ele>
        <time>2025-09-13T10:27:19Z</time>
      </trkpt>
      <trkpt lat="47.51419" lon="6.92581">
        <ele>348</ele>
        <time>2025-09-13T10:27:20Z</time>
      </trkpt>
      <trkpt lat="47.51416" lon="6.92592">
        <ele>347.8</ele>
        <time>2025-09-13T10:27:21Z</time>
      </trkpt>
      <trkpt lat="47.51413" lon="6.92603">
        <ele>347.7</ele>
        <time>2025-09-13T10:27:22Z</time>
      </trkpt>
      <trkpt lat="47.5141" lon="6.92613">
        <ele>347.6</ele>
        <time>2025-09-13T10:27:23Z</time>
      </trkpt>
      <trkpt lat="47.51408" lon="6.92625">
        <ele>347.5</ele>
        <time>2025-09-13T10:27:24Z</time>
      </trkpt>
      <trkpt lat="47.51405" lon="6.92636">
        <ele>347.4</ele>
        <time>2025-09-13T10:27:25Z</time>
      </trkpt>
      <trkpt lat="47.51402" lon="6.92648">
        <ele>347.4</ele>
        <time>2025-09-13T10:27:26Z</time>
      </trkpt>
      <trkpt lat="47.514" lon="6.92659">
        <ele>347.3</ele>
        <time>2025-09-13T10:27:27Z</time>
      </trkpt>
      <trkpt lat="47.51396" lon="6.92669">
        <ele>347.2</ele>
        <time>2025-09-13T10:27:28Z</time>
      </trkpt>
      <trkpt lat="47.51393" lon="6.92681">
        <ele>347.1</ele>
        <time>2025-09-13T10:27:29Z</time>
      </trkpt>
      <trkpt lat="47.51389" lon="6.92692">
        <ele>347.1</ele>
        <time>2025-09-13T10:27:30Z</time>
      </trkpt>
      <trkpt lat="47.51387" lon="6.92702">
        <ele>347.2</ele>
        <time>2025-09-13T10:27:31Z</time>
      </trkpt>
      <trkpt lat="47.51384" lon="6.92712">
        <ele>347.2</ele>
        <time>2025-09-13T10:27:32Z</time>
      </trkpt>
      <trkpt lat="47.51381" lon="6.92725">
        <ele>347.4</ele>
        <time>2025-09-13T10:27:33Z</time>
      </trkpt>
      <trkpt lat="47.51379" lon="6.92735">
        <ele>347.5</ele>
        <time>2025-09-13T10:27:34Z</time>
      </trkpt>
      <trkpt lat="47.51376" lon="6.92745">
        <ele>347.7</ele>
        <time>2025-09-13T10:27:35Z</time>
      </trkpt>
      <trkpt lat="47.51374" lon="6.92754">
        <ele>347.9</ele>
        <time>2025-09-13T10:27:36Z</time>
      </trkpt>
      <trkpt lat="47.51369" lon="6.92776">
        <ele>348.6</ele>
        <time>2025-09-13T10:27:37Z</time>
      </trkpt>
      <trkpt lat="47.51366" lon="6.92786">
        <ele>349</ele>
        <time>2025-09-13T10:27:38Z</time>
      </trkpt>
      <trkpt lat="47.51364" lon="6.92794">
        <ele>349.5</ele>
        <time>2025-09-13T10:27:39Z</time>
      </trkpt>
      <trkpt lat="47.51361" lon="6.92803">
        <ele>349.9</ele>
        <time>2025-09-13T10:27:40Z</time>
      </trkpt>
      <trkpt lat="47.5136" lon="6.92811">
        <ele>350.3</ele>
        <time>2025-09-13T10:27:41Z</time>
      </trkpt>
      <trkpt lat="47.51357" lon="6.92819">
        <ele>350.7</ele>
        <time>2025-09-13T10:27:42Z</time>
      </trkpt>
      <trkpt lat="47.51355" lon="6.92829">
        <ele>351.1</ele>
        <time>2025-09-13T10:27:43Z</time>
      </trkpt>
      <trkpt lat="47.51353" lon="6.92837">
        <ele>351.4</ele>
        <time>2025-09-13T10:27:44Z</time>
      </trkpt>
      <trkpt lat="47.51351" lon="6.92846">
        <ele>351.6</ele>
        <time>2025-09-13T10:27:45Z</time>
      </trkpt>
      <trkpt lat="47.51349" lon="6.92853">
        <ele>351.8</ele>
        <time>2025-09-13T10:27:46Z</time>
      </trkpt>
      <trkpt lat="47.51347" lon="6.92862">
        <ele>352</ele>
        <time>2025-09-13T10:27:47Z</time>
      </trkpt>
      <trkpt lat="47.51344" lon="6.92872">
        <ele>352.2</ele>
        <time>2025-09-13T10:27:48Z</time>
      </trkpt>
      <trkpt lat="47.51342" lon="6.9288">
        <ele>352.4</ele>
        <time>2025-09-13T10:27:49Z</time>
      </trkpt>
      <trkpt lat="47.5134" lon="6.9289">
        <ele>352.5</ele>
        <time>2025-09-13T10:27:50Z</time>
      </trkpt>
      <trkpt lat="47.51338" lon="6.92898">
        <ele>352.7</ele>
        <time>2025-09-13T10:27:51Z</time>
      </trkpt>
      <trkpt lat="47.51336" lon="6.92907">
        <ele>352.7</ele>
        <time>2025-09-13T10:27:52Z</time>
      </trkpt>
      <trkpt lat="47.51334" lon="6.92914">
        <ele>352.8</ele>
        <time>2025-09-13T10:27:53Z</time>
      </trkpt>
      <trkpt lat="47.51331" lon="6.92922">
        <ele>352.8</ele>
        <time>2025-09-13T10:27:54Z</time>
      </trkpt>
      <trkpt lat="47.51328" lon="6.92929">
        <ele>352.9</ele>
        <time>2025-09-13T10:27:55Z</time>
      </trkpt>
      <trkpt lat="47.51324" lon="6.92936">
        <ele>353</ele>
        <time>2025-09-13T10:27:56Z</time>
      </trkpt>
      <trkpt lat="47.51321" lon="6.92944">
        <ele>353</ele>
        <time>2025-09-13T10:27:57Z</time>
      </trkpt>
      <trkpt lat="47.51317" lon="6.92953">
        <ele>353.1</ele>
        <time>2025-09-13T10:27:58Z</time>
      </trkpt>
      <trkpt lat="47.51315" lon="6.92962">
        <ele>353.1</ele>
        <time>2025-09-13T10:27:59Z</time>
      </trkpt>
      <trkpt lat="47.51312" lon="6.9297">
        <ele>353.2</ele>
        <time>2025-09-13T10:28:00Z</time>
      </trkpt>
      <trkpt lat="47.51309" lon="6.92978">
        <ele>353.2</ele>
        <time>2025-09-13T10:28:01Z</time>
      </trkpt>
      <trkpt lat="47.51305" lon="6.92988">
        <ele>353.2</ele>
        <time>2025-09-13T10:28:02Z</time>
      </trkpt>
      <trkpt lat="47.51303" lon="6.92999">
        <ele>353.2</ele>
        <time>2025-09-13T10:28:03Z</time>
      </trkpt>
      <trkpt lat="47.513" lon="6.93007">
        <ele>353.2</ele>
        <time>2025-09-13T10:28:04Z</time>
      </trkpt>
      <trkpt lat="47.51296" lon="6.93016">
        <ele>353.1</ele>
        <time>2025-09-13T10:28:05Z</time>
      </trkpt>
      <trkpt lat="47.51294" lon="6.93026">
        <ele>353.1</ele>
        <time>2025-09-13T10:28:06Z</time>
      </trkpt>
      <trkpt lat="47.5129" lon="6.93037">
        <ele>353.1</ele>
        <time>2025-09-13T10:28:07Z</time>
      </trkpt>
      <trkpt lat="47.51287" lon="6.93046">
        <ele>353</ele>
        <time>2025-09-13T10:28:08Z</time>
      </trkpt>
      <trkpt lat="47.51283" lon="6.93056">
        <ele>353</ele>
        <time>2025-09-13T10:28:09Z</time>
      </trkpt>
      <trkpt lat="47.5128" lon="6.93066">
        <ele>352.9</ele>
        <time>2025-09-13T10:28:10Z</time>
      </trkpt>
      <trkpt lat="47.51278" lon="6.93078">
        <ele>352.8</ele>
        <time>2025-09-13T10:28:11Z</time>
      </trkpt>
      <trkpt lat="47.51276" lon="6.93089">
        <ele>352.8</ele>
        <time>2025-09-13T10:28:12Z</time>
      </trkpt>
      <trkpt lat="47.51273" lon="6.93098">
        <ele>352.7</ele>
        <time>2025-09-13T10:28:13Z</time>
      </trkpt>
      <trkpt lat="47.51269" lon="6.93108">
        <ele>352.6</ele>
        <time>2025-09-13T10:28:14Z</time>
      </trkpt>
      <trkpt lat="47.51264" lon="6.93118">
        <ele>352.5</ele>
        <time>2025-09-13T10:28:15Z</time>
      </trkpt>
      <trkpt lat="47.5126" lon="6.9313">
        <ele>352.3</ele>
        <time>2025-09-13T10:28:16Z</time>
      </trkpt>
      <trkpt lat="47.51256" lon="6.93139">
        <ele>352.2</ele>
        <time>2025-09-13T10:28:17Z</time>
      </trkpt>
      <trkpt lat="47.51251" lon="6.9315">
        <ele>352.1</ele>
        <time>2025-09-13T10:28:18Z</time>
      </trkpt>
      <trkpt lat="47.51247" lon="6.93159">
        <ele>352</ele>
        <time>2025-09-13T10:28:19Z</time>
      </trkpt>
      <trkpt lat="47.51242" lon="6.9317">
        <ele>351.8</ele>
        <time>2025-09-13T10:28:20Z</time>
      </trkpt>
      <trkpt lat="47.51236" lon="6.9318">
        <ele>351.6</ele>
        <time>2025-09-13T10:28:21Z</time>
      </trkpt>
      <trkpt lat="47.51231" lon="6.93191">
        <ele>351.5</ele>
        <time>2025-09-13T10:28:22Z</time>
      </trkpt>
      <trkpt lat="47.51225" lon="6.93201">
        <ele>351.4</ele>
        <time>2025-09-13T10:28:23Z</time>
      </trkpt>
      <trkpt lat="47.51219" lon="6.93211">
        <ele>351.3</ele>
        <time>2025-09-13T10:28:24Z</time>
      </trkpt>
      <trkpt lat="47.51214" lon="6.93221">
        <ele>351.3</ele>
        <time>2025-09-13T10:28:25Z</time>
      </trkpt>
      <trkpt lat="47.51208" lon="6.93231">
        <ele>351.3</ele>
        <time>2025-09-13T10:28:26Z</time>
      </trkpt>
      <trkpt lat="47.512" lon="6.9324">
        <ele>351.3</ele>
        <time>2025-09-13T10:28:27Z</time>
      </trkpt>
      <trkpt lat="47.51194" lon="6.93249">
        <ele>351.3</ele>
        <time>2025-09-13T10:28:28Z</time>
      </trkpt>
      <trkpt lat="47.51187" lon="6.93258">
        <ele>351.3</ele>
        <time>2025-09-13T10:28:29Z</time>
      </trkpt>
      <trkpt lat="47.5118" lon="6.93266">
        <ele>351.3</ele>
        <time>2025-09-13T10:28:30Z</time>
      </trkpt>
      <trkpt lat="47.51173" lon="6.93274">
        <ele>351.2</ele>
        <time>2025-09-13T10:28:31Z</time>
      </trkpt>
      <trkpt lat="47.51167" lon="6.93282">
        <ele>351.2</ele>
        <time>2025-09-13T10:28:32Z</time>
      </trkpt>
      <trkpt lat="47.51162" lon="6.93289">
        <ele>351.2</ele>
        <time>2025-09-13T10:28:33Z</time>
      </trkpt>
      <trkpt lat="47.51155" lon="6.93297">
        <ele>351.1</ele>
        <time>2025-09-13T10:28:34Z</time>
      </trkpt>
      <trkpt lat="47.51146" lon="6.93302">
        <ele>351.1</ele>
        <time>2025-09-13T10:28:35Z</time>
      </trkpt>
      <trkpt lat="47.51139" lon="6.93308">
        <ele>351.1</ele>
        <time>2025-09-13T10:28:36Z</time>
      </trkpt>
      <trkpt lat="47.51132" lon="6.93315">
        <ele>351.1</ele>
        <time>2025-09-13T10:28:37Z</time>
      </trkpt>
      <trkpt lat="47.51126" lon="6.93324">
        <ele>351.1</ele>
        <time>2025-09-13T10:28:38Z</time>
      </trkpt>
      <trkpt lat="47.51119" lon="6.93329">
        <ele>351.1</ele>
        <time>2025-09-13T10:28:39Z</time>
      </trkpt>
      <trkpt lat="47.51114" lon="6.93336">
        <ele>351.2</ele>
        <time>2025-09-13T10:28:40Z</time>
      </trkpt>
      <trkpt lat="47.51107" lon="6.93345">
        <ele>351.2</ele>
        <time>2025-09-13T10:28:41Z</time>
      </trkpt>
      <trkpt lat="47.51096" lon="6.93352">
        <ele>351.3</ele>
        <time>2025-09-13T10:28:42Z</time>
      </trkpt>
      <trkpt lat="47.51091" lon="6.93359">
        <ele>351.4</ele>
        <time>2025-09-13T10:28:43Z</time>
      </trkpt>
      <trkpt lat="47.51087" lon="6.93367">
        <ele>351.5</ele>
        <time>2025-09-13T10:28:44Z</time>
      </trkpt>
      <trkpt lat="47.51082" lon="6.93376">
        <ele>351.6</ele>
        <time>2025-09-13T10:28:45Z</time>
      </trkpt>
      <trkpt lat="47.51076" lon="6.93382">
        <ele>351.6</ele>
        <time>2025-09-13T10:28:46Z</time>
      </trkpt>
      <trkpt lat="47.51072" lon="6.93391">
        <ele>351.7</ele>
        <time>2025-09-13T10:28:47Z</time>
      </trkpt>
      <trkpt lat="47.51067" lon="6.93398">
        <ele>351.7</ele>
        <time>2025-09-13T10:28:48Z</time>
      </trkpt>
      <trkpt lat="47.51062" lon="6.93406">
        <ele>351.7</ele>
        <time>2025-09-13T10:28:49Z</time>
      </trkpt>
      <trkpt lat="47.51057" lon="6.93415">
        <ele>351.7</ele>
        <time>2025-09-13T10:28:50Z</time>
      </trkpt>
      <trkpt lat="47.51053" lon="6.93422">
        <ele>351.7</ele>
        <time>2025-09-13T10:28:51Z</time>
      </trkpt>
      <trkpt lat="47.51048" lon="6.9343">
        <ele>351.7</ele>
        <time>2025-09-13T10:28:52Z</time>
      </trkpt>
      <trkpt lat="47.51042" lon="6.93437">
        <ele>351.7</ele>
        <time>2025-09-13T10:28:53Z</time>
      </trkpt>
      <trkpt lat="47.51039" lon="6.93447">
        <ele>351.6</ele>
        <time>2025-09-13T10:28:54Z</time>
      </trkpt>
      <trkpt lat="47.51035" lon="6.93457">
        <ele>351.6</ele>
        <time>2025-09-13T10:28:55Z</time>
      </trkpt>
      <trkpt lat="47.51028" lon="6.93464">
        <ele>351.6</ele>
        <time>2025-09-13T10:28:56Z</time>
      </trkpt>
      <trkpt lat="47.51025" lon="6.93474">
        <ele>351.6</ele>
        <time>2025-09-13T10:28:57Z</time>
      </trkpt>
      <trkpt lat="47.51019" lon="6.93481">
        <ele>351.6</ele>
        <time>2025-09-13T10:28:58Z</time>
      </trkpt>
      <trkpt lat="47.51014" lon="6.93488">
        <ele>351.6</ele>
        <time>2025-09-13T10:28:59Z</time>
      </trkpt>
      <trkpt lat="47.51008" lon="6.93496">
        <ele>351.6</ele>
        <time>2025-09-13T10:29:00Z</time>
      </trkpt>
      <trkpt lat="47.51002" lon="6.93503">
        <ele>351.6</ele>
        <time>2025-09-13T10:29:01Z</time>
      </trkpt>
      <trkpt lat="47.50997" lon="6.93515">
        <ele>351.5</ele>
        <time>2025-09-13T10:29:02Z</time>
      </trkpt>
      <trkpt lat="47.50992" lon="6.93521">
        <ele>351.5</ele>
        <time>2025-09-13T10:29:03Z</time>
      </trkpt>
      <trkpt lat="47.50987" lon="6.93532">
        <ele>351.4</ele>
        <time>2025-09-13T10:29:04Z</time>
      </trkpt>
      <trkpt lat="47.50982" lon="6.93537">
        <ele>351.4</ele>
        <time>2025-09-13T10:29:05Z</time>
      </trkpt>
      <trkpt lat="47.50975" lon="6.93544">
        <ele>351.3</ele>
        <time>2025-09-13T10:29:07Z</time>
      </trkpt>
      <trkpt lat="47.5097" lon="6.93552">
        <ele>351.3</ele>
        <time>2025-09-13T10:29:08Z</time>
      </trkpt>
      <trkpt lat="47.50964" lon="6.9356">
        <ele>351.2</ele>
        <time>2025-09-13T10:29:09Z</time>
      </trkpt>
      <trkpt lat="47.50959" lon="6.93568">
        <ele>351.2</ele>
        <time>2025-09-13T10:29:10Z</time>
      </trkpt>
      <trkpt lat="47.50952" lon="6.93576">
        <ele>351.1</ele>
        <time>2025-09-13T10:29:11Z</time>
      </trkpt>
      <trkpt lat="47.50947" lon="6.93583">
        <ele>351.1</ele>
        <time>2025-09-13T10:29:12Z</time>
      </trkpt>
      <trkpt lat="47.50942" lon="6.93592">
        <ele>351.1</ele>
        <time>2025-09-13T10:29:13Z</time>
      </trkpt>
      <trkpt lat="47.50937" lon="6.93601">
        <ele>351.2</ele>
        <time>2025-09-13T10:29:14Z</time>
      </trkpt>
      <trkpt lat="47.50928" lon="6.93607">
        <ele>351.3</ele>
        <time>2025-09-13T10:29:15Z</time>
      </trkpt>
      <trkpt lat="47.50922" lon="6.93613">
        <ele>351.4</ele>
        <time>2025-09-13T10:29:16Z</time>
      </trkpt>
      <trkpt lat="47.50916" lon="6.93619">
        <ele>351.5</ele>
        <time>2025-09-13T10:29:17Z</time>
      </trkpt>
      <trkpt lat="47.50911" lon="6.93628">
        <ele>351.6</ele>
        <time>2025-09-13T10:29:18Z</time>
      </trkpt>
      <trkpt lat="47.50907" lon="6.93638">
        <ele>351.8</ele>
        <time>2025-09-13T10:29:19Z</time>
      </trkpt>
      <trkpt lat="47.50901" lon="6.93645">
        <ele>352</ele>
        <time>2025-09-13T10:29:20Z</time>
      </trkpt>
      <trkpt lat="47.50896" lon="6.93652">
        <ele>352.1</ele>
        <time>2025-09-13T10:29:21Z</time>
      </trkpt>
      <trkpt lat="47.50891" lon="6.93657">
        <ele>352.3</ele>
        <time>2025-09-13T10:29:22Z</time>
      </trkpt>
      <trkpt lat="47.50886" lon="6.93665">
        <ele>352.5</ele>
        <time>2025-09-13T10:29:23Z</time>
      </trkpt>
      <trkpt lat="47.50881" lon="6.93672">
        <ele>352.6</ele>
        <time>2025-09-13T10:29:24Z</time>
      </trkpt>
      <trkpt lat="47.50878" lon="6.93682">
        <ele>352.8</ele>
        <time>2025-09-13T10:29:25Z</time>
      </trkpt>
      <trkpt lat="47.50875" lon="6.93692">
        <ele>353</ele>
        <time>2025-09-13T10:29:26Z</time>
      </trkpt>
      <trkpt lat="47.5087" lon="6.93702">
        <ele>353.2</ele>
        <time>2025-09-13T10:29:27Z</time>
      </trkpt>
      <trkpt lat="47.50867" lon="6.9371">
        <ele>353.4</ele>
        <time>2025-09-13T10:29:28Z</time>
      </trkpt>
      <trkpt lat="47.50862" lon="6.93717">
        <ele>353.6</ele>
        <time>2025-09-13T10:29:29Z</time>
      </trkpt>
      <trkpt lat="47.50859" lon="6.93726">
        <ele>353.8</ele>
        <time>2025-09-13T10:29:30Z</time>
      </trkpt>
      <trkpt lat="47.50854" lon="6.93732">
        <ele>354</ele>
        <time>2025-09-13T10:29:31Z</time>
      </trkpt>
      <trkpt lat="47.50851" lon="6.93738">
        <ele>354.1</ele>
        <time>2025-09-13T10:29:32Z</time>
      </trkpt>
      <trkpt lat="47.50847" lon="6.93747">
        <ele>354.4</ele>
        <time>2025-09-13T10:29:33Z</time>
      </trkpt>
      <trkpt lat="47.50843" lon="6.93754">
        <ele>354.6</ele>
        <time>2025-09-13T10:29:34Z</time>
      </trkpt>
      <trkpt lat="47.50841" lon="6.93764">
        <ele>354.7</ele>
        <time>2025-09-13T10:29:35Z</time>
      </trkpt>
      <trkpt lat="47.50835" lon="6.93769">
        <ele>354.8</ele>
        <time>2025-09-13T10:29:36Z</time>
      </trkpt>
      <trkpt lat="47.50832" lon="6.93777">
        <ele>354.9</ele>
        <time>2025-09-13T10:29:37Z</time>
      </trkpt>
      <trkpt lat="47.50829" lon="6.93784">
        <ele>355</ele>
        <time>2025-09-13T10:29:38Z</time>
      </trkpt>
      <trkpt lat="47.50825" lon="6.93792">
        <ele>355</ele>
        <time>2025-09-13T10:29:39Z</time>
      </trkpt>
      <trkpt lat="47.50822" lon="6.93801">
        <ele>355</ele>
        <time>2025-09-13T10:29:40Z</time>
      </trkpt>
      <trkpt lat="47.5082" lon="6.93811">
        <ele>354.9</ele>
        <time>2025-09-13T10:29:41Z</time>
      </trkpt>
      <trkpt lat="47.50818" lon="6.9382">
        <ele>354.8</ele>
        <time>2025-09-13T10:29:42Z</time>
      </trkpt>
      <trkpt lat="47.50816" lon="6.9383">
        <ele>354.6</ele>
        <time>2025-09-13T10:29:43Z</time>
      </trkpt>
      <trkpt lat="47.50815" lon="6.93842">
        <ele>354.4</ele>
        <time>2025-09-13T10:29:44Z</time>
      </trkpt>
      <trkpt lat="47.50813" lon="6.93852">
        <ele>354.1</ele>
        <time>2025-09-13T10:29:45Z</time>
      </trkpt>
      <trkpt lat="47.50811" lon="6.93863">
        <ele>353.9</ele>
        <time>2025-09-13T10:29:46Z</time>
      </trkpt>
      <trkpt lat="47.50808" lon="6.93875">
        <ele>353.7</ele>
        <time>2025-09-13T10:29:47Z</time>
      </trkpt>
      <trkpt lat="47.50806" lon="6.93887">
        <ele>353.6</ele>
        <time>2025-09-13T10:29:48Z</time>
      </trkpt>
      <trkpt lat="47.50802" lon="6.93899">
        <ele>353.5</ele>
        <time>2025-09-13T10:29:49Z</time>
      </trkpt>
      <trkpt lat="47.50798" lon="6.9391">
        <ele>353.5</ele>
        <time>2025-09-13T10:29:50Z</time>
      </trkpt>
      <trkpt lat="47.50795" lon="6.93922">
        <ele>353.4</ele>
        <time>2025-09-13T10:29:51Z</time>
      </trkpt>
      <trkpt lat="47.5079" lon="6.93931">
        <ele>353.4</ele>
        <time>2025-09-13T10:29:52Z</time>
      </trkpt>
      <trkpt lat="47.50784" lon="6.9394">
        <ele>353.4</ele>
        <time>2025-09-13T10:29:53Z</time>
      </trkpt>
      <trkpt lat="47.5078" lon="6.93951">
        <ele>353.4</ele>
        <time>2025-09-13T10:29:54Z</time>
      </trkpt>
      <trkpt lat="47.50775" lon="6.93961">
        <ele>353.4</ele>
        <time>2025-09-13T10:29:55Z</time>
      </trkpt>
      <trkpt lat="47.5077" lon="6.9397">
        <ele>353.5</ele>
        <time>2025-09-13T10:29:56Z</time>
      </trkpt>
      <trkpt lat="47.50766" lon="6.9398">
        <ele>353.5</ele>
        <time>2025-09-13T10:29:57Z</time>
      </trkpt>
      <trkpt lat="47.50761" lon="6.9399">
        <ele>353.6</ele>
        <time>2025-09-13T10:29:58Z</time>
      </trkpt>
      <trkpt lat="47.50756" lon="6.93999">
        <ele>353.6</ele>
        <time>2025-09-13T10:29:59Z</time>
      </trkpt>
      <trkpt lat="47.50751" lon="6.94008">
        <ele>353.7</ele>
        <time>2025-09-13T10:30:00Z</time>
      </trkpt>
      <trkpt lat="47.50746" lon="6.94017">
        <ele>353.7</ele>
        <time>2025-09-13T10:30:01Z</time>
      </trkpt>
      <trkpt lat="47.50741" lon="6.94027">
        <ele>353.8</ele>
        <time>2025-09-13T10:30:02Z</time>
      </trkpt>
      <trkpt lat="47.50736" lon="6.94034">
        <ele>353.8</ele>
        <time>2025-09-13T10:30:03Z</time>
      </trkpt>
      <trkpt lat="47.5073" lon="6.94043">
        <ele>353.9</ele>
        <time>2025-09-13T10:30:04Z</time>
      </trkpt>
      <trkpt lat="47.50724" lon="6.9405">
        <ele>353.9</ele>
        <time>2025-09-13T10:30:05Z</time>
      </trkpt>
      <trkpt lat="47.50718" lon="6.94057">
        <ele>354</ele>
        <time>2025-09-13T10:30:06Z</time>
      </trkpt>
      <trkpt lat="47.50712" lon="6.94065">
        <ele>354.1</ele>
        <time>2025-09-13T10:30:07Z</time>
      </trkpt>
      <trkpt lat="47.50705" lon="6.94073">
        <ele>354.2</ele>
        <time>2025-09-13T10:30:08Z</time>
      </trkpt>
      <trkpt lat="47.50698" lon="6.94081">
        <ele>354.3</ele>
        <time>2025-09-13T10:30:09Z</time>
      </trkpt>
      <trkpt lat="47.50693" lon="6.94087">
        <ele>354.4</ele>
        <time>2025-09-13T10:30:10Z</time>
      </trkpt>
      <trkpt lat="47.50686" lon="6.94092">
        <ele>354.4</ele>
        <time>2025-09-13T10:30:11Z</time>
      </trkpt>
      <trkpt lat="47.5068" lon="6.941">
        <ele>354.4</ele>
        <time>2025-09-13T10:30:12Z</time>
      </trkpt>
      <trkpt lat="47.50674" lon="6.94106">
        <ele>354.5</ele>
        <time>2025-09-13T10:30:13Z</time>
      </trkpt>
      <trkpt lat="47.50669" lon="6.94111">
        <ele>354.5</ele>
        <time>2025-09-13T10:30:14Z</time>
      </trkpt>
      <trkpt lat="47.50663" lon="6.94116">
        <ele>354.5</ele>
        <time>2025-09-13T10:30:15Z</time>
      </trkpt>
      <trkpt lat="47.50657" lon="6.94123">
        <ele>354.5</ele>
        <time>2025-09-13T10:30:16Z</time>
      </trkpt>
      <trkpt lat="47.50651" lon="6.94129">
        <ele>354.4</ele>
        <time>2025-09-13T10:30:17Z</time>
      </trkpt>
      <trkpt lat="47.50645" lon="6.94134">
        <ele>354.4</ele>
        <time>2025-09-13T10:30:18Z</time>
      </trkpt>
      <trkpt lat="47.50639" lon="6.94141">
        <ele>354.4</ele>
        <time>2025-09-13T10:30:19Z</time>
      </trkpt>
      <trkpt lat="47.50634" lon="6.94147">
        <ele>354.3</ele>
        <time>2025-09-13T10:30:20Z</time>
      </trkpt>
      <trkpt lat="47.50627" lon="6.94152">
        <ele>354.3</ele>
        <time>2025-09-13T10:30:21Z</time>
      </trkpt>
      <trkpt lat="47.50621" lon="6.94158">
        <ele>354.2</ele>
        <time>2025-09-13T10:30:22Z</time>
      </trkpt>
      <trkpt lat="47.50616" lon="6.94164">
        <ele>354.1</ele>
        <time>2025-09-13T10:30:23Z</time>
      </trkpt>
      <trkpt lat="47.50609" lon="6.9417">
        <ele>354</ele>
        <time>2025-09-13T10:30:24Z</time>
      </trkpt>
      <trkpt lat="47.50603" lon="6.94175">
        <ele>353.9</ele>
        <time>2025-09-13T10:30:25Z</time>
      </trkpt>
      <trkpt lat="47.50597" lon="6.94181">
        <ele>353.8</ele>
        <time>2025-09-13T10:30:26Z</time>
      </trkpt>
      <trkpt lat="47.5059" lon="6.94189">
        <ele>353.7</ele>
        <time>2025-09-13T10:30:27Z</time>
      </trkpt>
      <trkpt lat="47.50584" lon="6.94196">
        <ele>353.6</ele>
        <time>2025-09-13T10:30:28Z</time>
      </trkpt>
      <trkpt lat="47.50577" lon="6.94204">
        <ele>353.5</ele>
        <time>2025-09-13T10:30:29Z</time>
      </trkpt>
      <trkpt lat="47.50571" lon="6.94211">
        <ele>353.4</ele>
        <time>2025-09-13T10:30:30Z</time>
      </trkpt>
      <trkpt lat="47.50565" lon="6.94219">
        <ele>353.3</ele>
        <time>2025-09-13T10:30:31Z</time>
      </trkpt>
      <trkpt lat="47.50559" lon="6.94226">
        <ele>353.2</ele>
        <time>2025-09-13T10:30:32Z</time>
      </trkpt>
      <trkpt lat="47.50552" lon="6.94233">
        <ele>353.1</ele>
        <time>2025-09-13T10:30:33Z</time>
      </trkpt>
      <trkpt lat="47.50546" lon="6.9424">
        <ele>353.1</ele>
        <time>2025-09-13T10:30:34Z</time>
      </trkpt>
      <trkpt lat="47.50535" lon="6.94254">
        <ele>353</ele>
        <time>2025-09-13T10:30:35Z</time>
      </trkpt>
      <trkpt lat="47.50528" lon="6.94261">
        <ele>352.9</ele>
        <time>2025-09-13T10:30:36Z</time>
      </trkpt>
      <trkpt lat="47.50523" lon="6.94267">
        <ele>352.8</ele>
        <time>2025-09-13T10:30:37Z</time>
      </trkpt>
      <trkpt lat="47.50517" lon="6.94273">
        <ele>352.8</ele>
        <time>2025-09-13T10:30:38Z</time>
      </trkpt>
      <trkpt lat="47.50511" lon="6.9428">
        <ele>352.7</ele>
        <time>2025-09-13T10:30:39Z</time>
      </trkpt>
      <trkpt lat="47.50505" lon="6.94289">
        <ele>352.7</ele>
        <time>2025-09-13T10:30:40Z</time>
      </trkpt>
      <trkpt lat="47.50499" lon="6.94294">
        <ele>352.7</ele>
        <time>2025-09-13T10:30:41Z</time>
      </trkpt>
      <trkpt lat="47.50493" lon="6.94301">
        <ele>352.6</ele>
        <time>2025-09-13T10:30:42Z</time>
      </trkpt>
      <trkpt lat="47.50487" lon="6.94307">
        <ele>352.6</ele>
        <time>2025-09-13T10:30:43Z</time>
      </trkpt>
      <trkpt lat="47.50481" lon="6.94313">
        <ele>352.6</ele>
        <time>2025-09-13T10:30:44Z</time>
      </trkpt>
      <trkpt lat="47.50476" lon="6.94319">
        <ele>352.6</ele>
        <time>2025-09-13T10:30:45Z</time>
      </trkpt>
      <trkpt lat="47.5047" lon="6.94325">
        <ele>352.6</ele>
        <time>2025-09-13T10:30:46Z</time>
      </trkpt>
      <trkpt lat="47.50464" lon="6.94331">
        <ele>352.6</ele>
        <time>2025-09-13T10:30:47Z</time>
      </trkpt>
      <trkpt lat="47.50459" lon="6.94337">
        <ele>352.6</ele>
        <time>2025-09-13T10:30:48Z</time>
      </trkpt>
      <trkpt lat="47.50453" lon="6.94344">
        <ele>352.7</ele>
        <time>2025-09-13T10:30:49Z</time>
      </trkpt>
      <trkpt lat="47.50447" lon="6.9435">
        <ele>352.7</ele>
        <time>2025-09-13T10:30:50Z</time>
      </trkpt>
      <trkpt lat="47.50441" lon="6.94356">
        <ele>352.8</ele>
        <time>2025-09-13T10:30:51Z</time>
      </trkpt>
      <trkpt lat="47.50435" lon="6.94362">
        <ele>352.9</ele>
        <time>2025-09-13T10:30:52Z</time>
      </trkpt>
      <trkpt lat="47.5043" lon="6.94368">
        <ele>353.1</ele>
        <time>2025-09-13T10:30:53Z</time>
      </trkpt>
      <trkpt lat="47.50425" lon="6.94374">
        <ele>353.2</ele>
        <time>2025-09-13T10:30:54Z</time>
      </trkpt>
      <trkpt lat="47.50419" lon="6.94378">
        <ele>353.4</ele>
        <time>2025-09-13T10:30:55Z</time>
      </trkpt>
      <trkpt lat="47.50414" lon="6.94378">
        <ele>353.5</ele>
        <time>2025-09-13T10:30:56Z</time>
      </trkpt>
      <trkpt lat="47.50408" lon="6.94374">
        <ele>353.5</ele>
        <time>2025-09-13T10:30:57Z</time>
      </trkpt>
      <trkpt lat="47.50405" lon="6.94367">
        <ele>353.4</ele>
        <time>2025-09-13T10:30:58Z</time>
      </trkpt>
      <trkpt lat="47.50404" lon="6.94357">
        <ele>353.4</ele>
        <time>2025-09-13T10:30:59Z</time>
      </trkpt>
      <trkpt lat="47.50404" lon="6.94348">
        <ele>353.3</ele>
        <time>2025-09-13T10:31:00Z</time>
      </trkpt>
      <trkpt lat="47.50405" lon="6.94339">
        <ele>353.3</ele>
        <time>2025-09-13T10:31:01Z</time>
      </trkpt>
      <trkpt lat="47.50404" lon="6.94328">
        <ele>353.2</ele>
        <time>2025-09-13T10:31:02Z</time>
      </trkpt>
      <trkpt lat="47.50403" lon="6.94318">
        <ele>353.2</ele>
        <time>2025-09-13T10:31:03Z</time>
      </trkpt>
      <trkpt lat="47.50403" lon="6.94309">
        <ele>353.1</ele>
        <time>2025-09-13T10:31:04Z</time>
      </trkpt>
      <trkpt lat="47.50402" lon="6.94298">
        <ele>353.1</ele>
        <time>2025-09-13T10:31:05Z</time>
      </trkpt>
      <trkpt lat="47.50401" lon="6.94287">
        <ele>353</ele>
        <time>2025-09-13T10:31:06Z</time>
      </trkpt>
      <trkpt lat="47.50399" lon="6.94275">
        <ele>353</ele>
        <time>2025-09-13T10:31:07Z</time>
      </trkpt>
      <trkpt lat="47.50398" lon="6.94264">
        <ele>352.9</ele>
        <time>2025-09-13T10:31:08Z</time>
      </trkpt>
      <trkpt lat="47.50397" lon="6.94253">
        <ele>352.9</ele>
        <time>2025-09-13T10:31:09Z</time>
      </trkpt>
      <trkpt lat="47.50396" lon="6.94241">
        <ele>352.8</ele>
        <time>2025-09-13T10:31:10Z</time>
      </trkpt>
      <trkpt lat="47.50395" lon="6.9423">
        <ele>352.8</ele>
        <time>2025-09-13T10:31:11Z</time>
      </trkpt>
      <trkpt lat="47.50394" lon="6.94219">
        <ele>352.8</ele>
        <time>2025-09-13T10:31:13Z</time>
      </trkpt>
      <trkpt lat="47.50393" lon="6.94208">
        <ele>352.7</ele>
        <time>2025-09-13T10:31:14Z</time>
      </trkpt>
      <trkpt lat="47.50391" lon="6.94196">
        <ele>352.7</ele>
        <time>2025-09-13T10:31:15Z</time>
      </trkpt>
      <trkpt lat="47.50391" lon="6.94186">
        <ele>352.7</ele>
        <time>2025-09-13T10:31:16Z</time>
      </trkpt>
      <trkpt lat="47.50391" lon="6.94173">
        <ele>352.6</ele>
        <time>2025-09-13T10:31:17Z</time>
      </trkpt>
      <trkpt lat="47.5039" lon="6.94162">
        <ele>352.6</ele>
        <time>2025-09-13T10:31:18Z</time>
      </trkpt>
      <trkpt lat="47.5039" lon="6.94151">
        <ele>352.5</ele>
        <time>2025-09-13T10:31:19Z</time>
      </trkpt>
      <trkpt lat="47.50389" lon="6.94139">
        <ele>352.5</ele>
        <time>2025-09-13T10:31:20Z</time>
      </trkpt>
      <trkpt lat="47.50387" lon="6.94128">
        <ele>352.4</ele>
        <time>2025-09-13T10:31:21Z</time>
      </trkpt>
      <trkpt lat="47.50387" lon="6.94117">
        <ele>352.3</ele>
        <time>2025-09-13T10:31:22Z</time>
      </trkpt>
      <trkpt lat="47.50387" lon="6.94105">
        <ele>352.3</ele>
        <time>2025-09-13T10:31:23Z</time>
      </trkpt>
      <trkpt lat="47.50386" lon="6.94093">
        <ele>352.2</ele>
        <time>2025-09-13T10:31:24Z</time>
      </trkpt>
      <trkpt lat="47.50386" lon="6.94082">
        <ele>352.2</ele>
        <time>2025-09-13T10:31:25Z</time>
      </trkpt>
      <trkpt lat="47.50384" lon="6.94072">
        <ele>352.2</ele>
        <time>2025-09-13T10:31:26Z</time>
      </trkpt>
      <trkpt lat="47.50383" lon="6.94059">
        <ele>352.2</ele>
        <time>2025-09-13T10:31:27Z</time>
      </trkpt>
      <trkpt lat="47.50381" lon="6.94048">
        <ele>352.3</ele>
        <time>2025-09-13T10:31:28Z</time>
      </trkpt>
      <trkpt lat="47.50377" lon="6.94037">
        <ele>352.3</ele>
        <time>2025-09-13T10:31:29Z</time>
      </trkpt>
      <trkpt lat="47.50373" lon="6.94027">
        <ele>352.3</ele>
        <time>2025-09-13T10:31:30Z</time>
      </trkpt>
      <trkpt lat="47.50369" lon="6.94018">
        <ele>352.3</ele>
        <time>2025-09-13T10:31:31Z</time>
      </trkpt>
      <trkpt lat="47.50364" lon="6.94009">
        <ele>352.3</ele>
        <time>2025-09-13T10:31:32Z</time>
      </trkpt>
      <trkpt lat="47.5036" lon="6.94001">
        <ele>352.4</ele>
        <time>2025-09-13T10:31:33Z</time>
      </trkpt>
      <trkpt lat="47.50355" lon="6.93991">
        <ele>352.4</ele>
        <time>2025-09-13T10:31:34Z</time>
      </trkpt>
      <trkpt lat="47.50351" lon="6.93981">
        <ele>352.5</ele>
        <time>2025-09-13T10:31:35Z</time>
      </trkpt>
      <trkpt lat="47.50349" lon="6.93972">
        <ele>352.5</ele>
        <time>2025-09-13T10:31:36Z</time>
      </trkpt>
      <trkpt lat="47.50347" lon="6.93961">
        <ele>352.6</ele>
        <time>2025-09-13T10:31:37Z</time>
      </trkpt>
      <trkpt lat="47.50346" lon="6.93951">
        <ele>352.6</ele>
        <time>2025-09-13T10:31:38Z</time>
      </trkpt>
      <trkpt lat="47.50346" lon="6.93939">
        <ele>352.7</ele>
        <time>2025-09-13T10:31:39Z</time>
      </trkpt>
      <trkpt lat="47.50348" lon="6.93929">
        <ele>352.8</ele>
        <time>2025-09-13T10:31:40Z</time>
      </trkpt>
      <trkpt lat="47.50351" lon="6.93918">
        <ele>352.9</ele>
        <time>2025-09-13T10:31:41Z</time>
      </trkpt>
      <trkpt lat="47.50354" lon="6.93908">
        <ele>353.1</ele>
        <time>2025-09-13T10:31:42Z</time>
      </trkpt>
      <trkpt lat="47.50357" lon="6.93898">
        <ele>353.3</ele>
        <time>2025-09-13T10:31:43Z</time>
      </trkpt>
      <trkpt lat="47.5036" lon="6.93888">
        <ele>353.6</ele>
        <time>2025-09-13T10:31:44Z</time>
      </trkpt>
      <trkpt lat="47.50361" lon="6.93878">
        <ele>353.8</ele>
        <time>2025-09-13T10:31:45Z</time>
      </trkpt>
      <trkpt lat="47.50363" lon="6.93869">
        <ele>354.1</ele>
        <time>2025-09-13T10:31:46Z</time>
      </trkpt>
      <trkpt lat="47.50364" lon="6.9386">
        <ele>354.4</ele>
        <time>2025-09-13T10:31:47Z</time>
      </trkpt>
      <trkpt lat="47.50365" lon="6.93852">
        <ele>354.7</ele>
        <time>2025-09-13T10:31:48Z</time>
      </trkpt>
      <trkpt lat="47.50366" lon="6.93843">
        <ele>355</ele>
        <time>2025-09-13T10:31:49Z</time>
      </trkpt>
      <trkpt lat="47.50367" lon="6.93835">
        <ele>355.3</ele>
        <time>2025-09-13T10:31:50Z</time>
      </trkpt>
      <trkpt lat="47.50368" lon="6.93826">
        <ele>355.7</ele>
        <time>2025-09-13T10:31:51Z</time>
      </trkpt>
      <trkpt lat="47.50369" lon="6.93818">
        <ele>356</ele>
        <time>2025-09-13T10:31:52Z</time>
      </trkpt>
      <trkpt lat="47.5037" lon="6.9381">
        <ele>356.4</ele>
        <time>2025-09-13T10:31:53Z</time>
      </trkpt>
      <trkpt lat="47.5037" lon="6.93803">
        <ele>356.7</ele>
        <time>2025-09-13T10:31:54Z</time>
      </trkpt>
      <trkpt lat="47.50371" lon="6.93794">
        <ele>357.1</ele>
        <time>2025-09-13T10:31:55Z</time>
      </trkpt>
      <trkpt lat="47.50373" lon="6.93787">
        <ele>357.4</ele>
        <time>2025-09-13T10:31:56Z</time>
      </trkpt>
      <trkpt lat="47.50374" lon="6.9378">
        <ele>357.7</ele>
        <time>2025-09-13T10:31:57Z</time>
      </trkpt>
      <trkpt lat="47.50377" lon="6.93775">
        <ele>358</ele>
        <time>2025-09-13T10:31:58Z</time>
      </trkpt>
      <trkpt lat="47.50382" lon="6.93771">
        <ele>358.2</ele>
        <time>2025-09-13T10:31:59Z</time>
      </trkpt>
      <trkpt lat="47.50387" lon="6.9377">
        <ele>358.3</ele>
        <time>2025-09-13T10:32:00Z</time>
      </trkpt>
      <trkpt lat="47.50392" lon="6.93769">
        <ele>358.4</ele>
        <time>2025-09-13T10:32:01Z</time>
      </trkpt>
      <trkpt lat="47.50398" lon="6.93769">
        <ele>358.4</ele>
        <time>2025-09-13T10:32:02Z</time>
      </trkpt>
      <trkpt lat="47.50405" lon="6.9377">
        <ele>358.4</ele>
        <time>2025-09-13T10:32:03Z</time>
      </trkpt>
      <trkpt lat="47.50411" lon="6.93771">
        <ele>358.4</ele>
        <time>2025-09-13T10:32:04Z</time>
      </trkpt>
      <trkpt lat="47.50417" lon="6.9377">
        <ele>358.5</ele>
        <time>2025-09-13T10:32:05Z</time>
      </trkpt>
      <trkpt lat="47.50423" lon="6.9377">
        <ele>358.5</ele>
        <time>2025-09-13T10:32:06Z</time>
      </trkpt>
      <trkpt lat="47.50428" lon="6.93771">
        <ele>358.5</ele>
        <time>2025-09-13T10:32:07Z</time>
      </trkpt>
      <trkpt lat="47.50435" lon="6.93772">
        <ele>358.5</ele>
        <time>2025-09-13T10:32:08Z</time>
      </trkpt>
      <trkpt lat="47.50441" lon="6.93772">
        <ele>358.6</ele>
        <time>2025-09-13T10:32:09Z</time>
      </trkpt>
      <trkpt lat="47.50447" lon="6.93772">
        <ele>358.7</ele>
        <time>2025-09-13T10:32:10Z</time>
      </trkpt>
      <trkpt lat="47.5046" lon="6.93771">
        <ele>358.8</ele>
        <time>2025-09-13T10:32:11Z</time>
      </trkpt>
      <trkpt lat="47.50467" lon="6.9377">
        <ele>358.9</ele>
        <time>2025-09-13T10:32:12Z</time>
      </trkpt>
      <trkpt lat="47.50473" lon="6.9377">
        <ele>359</ele>
        <time>2025-09-13T10:32:13Z</time>
      </trkpt>
      <trkpt lat="47.50479" lon="6.9377">
        <ele>359.2</ele>
        <time>2025-09-13T10:32:14Z</time>
      </trkpt>
      <trkpt lat="47.50485" lon="6.93769">
        <ele>359.4</ele>
        <time>2025-09-13T10:32:15Z</time>
      </trkpt>
      <trkpt lat="47.5049" lon="6.93768">
        <ele>359.5</ele>
        <time>2025-09-13T10:32:16Z</time>
      </trkpt>
      <trkpt lat="47.50495" lon="6.93766">
        <ele>359.7</ele>
        <time>2025-09-13T10:32:17Z</time>
      </trkpt>
      <trkpt lat="47.50501" lon="6.93764">
        <ele>360</ele>
        <time>2025-09-13T10:32:18Z</time>
      </trkpt>
      <trkpt lat="47.50506" lon="6.93761">
        <ele>360.2</ele>
        <time>2025-09-13T10:32:19Z</time>
      </trkpt>
      <trkpt lat="47.50511" lon="6.93757">
        <ele>360.4</ele>
        <time>2025-09-13T10:32:20Z</time>
      </trkpt>
      <trkpt lat="47.50515" lon="6.93754">
        <ele>360.5</ele>
        <time>2025-09-13T10:32:21Z</time>
      </trkpt>
      <trkpt lat="47.50519" lon="6.9375">
        <ele>360.7</ele>
        <time>2025-09-13T10:32:22Z</time>
      </trkpt>
      <trkpt lat="47.50522" lon="6.93745">
        <ele>360.9</ele>
        <time>2025-09-13T10:32:23Z</time>
      </trkpt>
      <trkpt lat="47.50526" lon="6.93739">
        <ele>361.1</ele>
        <time>2025-09-13T10:32:24Z</time>
      </trkpt>
      <trkpt lat="47.5053" lon="6.93734">
        <ele>361.3</ele>
        <time>2025-09-13T10:32:25Z</time>
      </trkpt>
      <trkpt lat="47.50534" lon="6.9373">
        <ele>361.5</ele>
        <time>2025-09-13T10:32:26Z</time>
      </trkpt>
      <trkpt lat="47.50537" lon="6.93724">
        <ele>361.8</ele>
        <time>2025-09-13T10:32:27Z</time>
      </trkpt>
      <trkpt lat="47.50539" lon="6.93718">
        <ele>362</ele>
        <time>2025-09-13T10:32:28Z</time>
      </trkpt>
      <trkpt lat="47.50544" lon="6.93712">
        <ele>362.3</ele>
        <time>2025-09-13T10:32:29Z</time>
      </trkpt>
      <trkpt lat="47.50547" lon="6.93707">
        <ele>362.6</ele>
        <time>2025-09-13T10:32:30Z</time>
      </trkpt>
      <trkpt lat="47.5055" lon="6.93702">
        <ele>362.6</ele>
        <time>2025-09-13T10:32:31Z</time>
      </trkpt>
      <trkpt lat="47.50554" lon="6.93696">
        <ele>362.7</ele>
        <time>2025-09-13T10:32:32Z</time>
      </trkpt>
      <trkpt lat="47.50557" lon="6.93691">
        <ele>362.7</ele>
        <time>2025-09-13T10:32:33Z</time>
      </trkpt>
      <trkpt lat="47.50561" lon="6.93685">
        <ele>362.8</ele>
        <time>2025-09-13T10:32:34Z</time>
      </trkpt>
      <trkpt lat="47.50565" lon="6.9368">
        <ele>362.9</ele>
        <time>2025-09-13T10:32:35Z</time>
      </trkpt>
      <trkpt lat="47.50569" lon="6.93675">
        <ele>363</ele>
        <time>2025-09-13T10:32:36Z</time>
      </trkpt>
      <trkpt lat="47.50572" lon="6.9367">
        <ele>363.2</ele>
        <time>2025-09-13T10:32:37Z</time>
      </trkpt>
      <trkpt lat="47.50576" lon="6.93665">
        <ele>363.3</ele>
        <time>2025-09-13T10:32:38Z</time>
      </trkpt>
      <trkpt lat="47.50581" lon="6.93659">
        <ele>363.5</ele>
        <time>2025-09-13T10:32:39Z</time>
      </trkpt>
      <trkpt lat="47.50585" lon="6.93655">
        <ele>363.6</ele>
        <time>2025-09-13T10:32:40Z</time>
      </trkpt>
      <trkpt lat="47.5059" lon="6.9365">
        <ele>363.8</ele>
        <time>2025-09-13T10:32:41Z</time>
      </trkpt>
      <trkpt lat="47.50595" lon="6.93645">
        <ele>364</ele>
        <time>2025-09-13T10:32:42Z</time>
      </trkpt>
      <trkpt lat="47.50599" lon="6.93641">
        <ele>364.1</ele>
        <time>2025-09-13T10:32:43Z</time>
      </trkpt>
      <trkpt lat="47.50603" lon="6.93636">
        <ele>364.3</ele>
        <time>2025-09-13T10:32:44Z</time>
      </trkpt>
      <trkpt lat="47.50608" lon="6.93632">
        <ele>364.4</ele>
        <time>2025-09-13T10:32:45Z</time>
      </trkpt>
      <trkpt lat="47.50612" lon="6.93628">
        <ele>364.6</ele>
        <time>2025-09-13T10:32:46Z</time>
      </trkpt>
      <trkpt lat="47.50617" lon="6.93623">
        <ele>364.8</ele>
        <time>2025-09-13T10:32:47Z</time>
      </trkpt>
      <trkpt lat="47.50621" lon="6.93619">
        <ele>365</ele>
        <time>2025-09-13T10:32:48Z</time>
      </trkpt>
      <trkpt lat="47.50626" lon="6.93614">
        <ele>365.2</ele>
        <time>2025-09-13T10:32:49Z</time>
      </trkpt>
      <trkpt lat="47.5063" lon="6.93611">
        <ele>365.3</ele>
        <time>2025-09-13T10:32:50Z</time>
      </trkpt>
      <trkpt lat="47.50635" lon="6.93607">
        <ele>365.5</ele>
        <time>2025-09-13T10:32:51Z</time>
      </trkpt>
      <trkpt lat="47.50639" lon="6.93602">
        <ele>365.8</ele>
        <time>2025-09-13T10:32:52Z</time>
      </trkpt>
      <trkpt lat="47.50643" lon="6.93598">
        <ele>366</ele>
        <time>2025-09-13T10:32:53Z</time>
      </trkpt>
      <trkpt lat="47.50648" lon="6.93595">
        <ele>366.2</ele>
        <time>2025-09-13T10:32:54Z</time>
      </trkpt>
      <trkpt lat="47.50652" lon="6.93591">
        <ele>366.4</ele>
        <time>2025-09-13T10:32:55Z</time>
      </trkpt>
      <trkpt lat="47.50656" lon="6.93586">
        <ele>366.7</ele>
        <time>2025-09-13T10:32:56Z</time>
      </trkpt>
      <trkpt lat="47.5066" lon="6.93582">
        <ele>366.9</ele>
        <time>2025-09-13T10:32:57Z</time>
      </trkpt>
      <trkpt lat="47.50664" lon="6.93578">
        <ele>367.2</ele>
        <time>2025-09-13T10:32:58Z</time>
      </trkpt>
      <trkpt lat="47.50668" lon="6.93574">
        <ele>367.4</ele>
        <time>2025-09-13T10:32:59Z</time>
      </trkpt>
      <trkpt lat="47.50673" lon="6.9357">
        <ele>367.7</ele>
        <time>2025-09-13T10:33:00Z</time>
      </trkpt>
      <trkpt lat="47.50677" lon="6.93565">
        <ele>368</ele>
        <time>2025-09-13T10:33:01Z</time>
      </trkpt>
      <trkpt lat="47.50682" lon="6.93561">
        <ele>368.2</ele>
        <time>2025-09-13T10:33:02Z</time>
      </trkpt>
      <trkpt lat="47.50686" lon="6.93557">
        <ele>368.5</ele>
        <time>2025-09-13T10:33:03Z</time>
      </trkpt>
      <trkpt lat="47.50689" lon="6.93553">
        <ele>368.7</ele>
        <time>2025-09-13T10:33:04Z</time>
      </trkpt>
      <trkpt lat="47.50692" lon="6.93549">
        <ele>368.9</ele>
        <time>2025-09-13T10:33:05Z</time>
      </trkpt>
      <trkpt lat="47.50695" lon="6.93545">
        <ele>369.1</ele>
        <time>2025-09-13T10:33:06Z</time>
      </trkpt>
      <trkpt lat="47.50698" lon="6.93541">
        <ele>369.3</ele>
        <time>2025-09-13T10:33:07Z</time>
      </trkpt>
      <trkpt lat="47.50703" lon="6.93539">
        <ele>369.6</ele>
        <time>2025-09-13T10:33:08Z</time>
      </trkpt>
      <trkpt lat="47.50706" lon="6.93536">
        <ele>369.8</ele>
        <time>2025-09-13T10:33:09Z</time>
      </trkpt>
      <trkpt lat="47.5071" lon="6.93532">
        <ele>370.1</ele>
        <time>2025-09-13T10:33:10Z</time>
      </trkpt>
      <trkpt lat="47.50713" lon="6.93527">
        <ele>370.4</ele>
        <time>2025-09-13T10:33:11Z</time>
      </trkpt>
      <trkpt lat="47.50718" lon="6.93525">
        <ele>370.6</ele>
        <time>2025-09-13T10:33:12Z</time>
      </trkpt>
      <trkpt lat="47.50721" lon="6.9352">
        <ele>370.9</ele>
        <time>2025-09-13T10:33:13Z</time>
      </trkpt>
      <trkpt lat="47.50725" lon="6.93516">
        <ele>371.2</ele>
        <time>2025-09-13T10:33:14Z</time>
      </trkpt>
      <trkpt lat="47.50727" lon="6.93511">
        <ele>371.4</ele>
        <time>2025-09-13T10:33:15Z</time>
      </trkpt>
      <trkpt lat="47.50731" lon="6.93507">
        <ele>371.6</ele>
        <time>2025-09-13T10:33:16Z</time>
      </trkpt>
      <trkpt lat="47.50734" lon="6.93504">
        <ele>371.9</ele>
        <time>2025-09-13T10:33:17Z</time>
      </trkpt>
      <trkpt lat="47.50736" lon="6.93499">
        <ele>372.1</ele>
        <time>2025-09-13T10:33:19Z</time>
      </trkpt>
      <trkpt lat="47.50739" lon="6.93495">
        <ele>372.3</ele>
        <time>2025-09-13T10:33:20Z</time>
      </trkpt>
      <trkpt lat="47.50744" lon="6.93491">
        <ele>372.6</ele>
        <time>2025-09-13T10:33:21Z</time>
      </trkpt>
      <trkpt lat="47.50747" lon="6.93487">
        <ele>372.8</ele>
        <time>2025-09-13T10:33:22Z</time>
      </trkpt>
      <trkpt lat="47.50751" lon="6.93483">
        <ele>373.1</ele>
        <time>2025-09-13T10:33:23Z</time>
      </trkpt>
      <trkpt lat="47.50755" lon="6.93479">
        <ele>373.4</ele>
        <time>2025-09-13T10:33:24Z</time>
      </trkpt>
      <trkpt lat="47.50757" lon="6.93476">
        <ele>373.5</ele>
        <time>2025-09-13T10:33:25Z</time>
      </trkpt>
      <trkpt lat="47.5076" lon="6.93471">
        <ele>373.7</ele>
        <time>2025-09-13T10:33:26Z</time>
      </trkpt>
      <trkpt lat="47.50762" lon="6.93466">
        <ele>374</ele>
        <time>2025-09-13T10:33:27Z</time>
      </trkpt>
      <trkpt lat="47.50765" lon="6.93461">
        <ele>374.2</ele>
        <time>2025-09-13T10:33:28Z</time>
      </trkpt>
      <trkpt lat="47.50768" lon="6.93457">
        <ele>374.4</ele>
        <time>2025-09-13T10:33:29Z</time>
      </trkpt>
      <trkpt lat="47.5077" lon="6.93453">
        <ele>374.6</ele>
        <time>2025-09-13T10:33:30Z</time>
      </trkpt>
      <trkpt lat="47.50773" lon="6.93448">
        <ele>374.8</ele>
        <time>2025-09-13T10:33:31Z</time>
      </trkpt>
      <trkpt lat="47.50776" lon="6.93443">
        <ele>375</ele>
        <time>2025-09-13T10:33:32Z</time>
      </trkpt>
      <trkpt lat="47.50778" lon="6.93439">
        <ele>375.2</ele>
        <time>2025-09-13T10:33:33Z</time>
      </trkpt>
      <trkpt lat="47.5078" lon="6.93434">
        <ele>375.4</ele>
        <time>2025-09-13T10:33:34Z</time>
      </trkpt>
      <trkpt lat="47.50782" lon="6.93429">
        <ele>375.6</ele>
        <time>2025-09-13T10:33:35Z</time>
      </trkpt>
      <trkpt lat="47.50784" lon="6.93423">
        <ele>375.7</ele>
        <time>2025-09-13T10:33:36Z</time>
      </trkpt>
      <trkpt lat="47.50787" lon="6.93418">
        <ele>375.9</ele>
        <time>2025-09-13T10:33:37Z</time>
      </trkpt>
      <trkpt lat="47.50789" lon="6.93412">
        <ele>376</ele>
        <time>2025-09-13T10:33:38Z</time>
      </trkpt>
      <trkpt lat="47.50791" lon="6.93406">
        <ele>376.1</ele>
        <time>2025-09-13T10:33:39Z</time>
      </trkpt>
      <trkpt lat="47.50794" lon="6.934">
        <ele>376.2</ele>
        <time>2025-09-13T10:33:40Z</time>
      </trkpt>
      <trkpt lat="47.50795" lon="6.93393">
        <ele>376.3</ele>
        <time>2025-09-13T10:33:41Z</time>
      </trkpt>
      <trkpt lat="47.50797" lon="6.93387">
        <ele>376.4</ele>
        <time>2025-09-13T10:33:42Z</time>
      </trkpt>
      <trkpt lat="47.50799" lon="6.9338">
        <ele>376.5</ele>
        <time>2025-09-13T10:33:43Z</time>
      </trkpt>
      <trkpt lat="47.508" lon="6.93372">
        <ele>376.6</ele>
        <time>2025-09-13T10:33:44Z</time>
      </trkpt>
      <trkpt lat="47.50803" lon="6.93357">
        <ele>376.8</ele>
        <time>2025-09-13T10:33:45Z</time>
      </trkpt>
      <trkpt lat="47.50804" lon="6.9335">
        <ele>376.9</ele>
        <time>2025-09-13T10:33:46Z</time>
      </trkpt>
      <trkpt lat="47.50805" lon="6.93342">
        <ele>376.9</ele>
        <time>2025-09-13T10:33:47Z</time>
      </trkpt>
      <trkpt lat="47.50806" lon="6.93333">
        <ele>377</ele>
        <time>2025-09-13T10:33:48Z</time>
      </trkpt>
      <trkpt lat="47.50807" lon="6.93325">
        <ele>377</ele>
        <time>2025-09-13T10:33:49Z</time>
      </trkpt>
      <trkpt lat="47.50807" lon="6.93317">
        <ele>377.1</ele>
        <time>2025-09-13T10:33:50Z</time>
      </trkpt>
      <trkpt lat="47.50807" lon="6.93309">
        <ele>377.1</ele>
        <time>2025-09-13T10:33:51Z</time>
      </trkpt>
      <trkpt lat="47.50807" lon="6.93301">
        <ele>377.2</ele>
        <time>2025-09-13T10:33:52Z</time>
      </trkpt>
      <trkpt lat="47.50807" lon="6.93292">
        <ele>377.2</ele>
        <time>2025-09-13T10:33:53Z</time>
      </trkpt>
      <trkpt lat="47.50807" lon="6.93284">
        <ele>377.3</ele>
        <time>2025-09-13T10:33:54Z</time>
      </trkpt>
      <trkpt lat="47.50806" lon="6.93275">
        <ele>377.3</ele>
        <time>2025-09-13T10:33:55Z</time>
      </trkpt>
      <trkpt lat="47.50806" lon="6.93267">
        <ele>377.4</ele>
        <time>2025-09-13T10:33:56Z</time>
      </trkpt>
      <trkpt lat="47.50805" lon="6.93258">
        <ele>377.4</ele>
        <time>2025-09-13T10:33:57Z</time>
      </trkpt>
      <trkpt lat="47.50804" lon="6.9325">
        <ele>377.5</ele>
        <time>2025-09-13T10:33:58Z</time>
      </trkpt>
      <trkpt lat="47.50802" lon="6.93242">
        <ele>377.5</ele>
        <time>2025-09-13T10:33:59Z</time>
      </trkpt>
      <trkpt lat="47.50801" lon="6.93233">
        <ele>377.6</ele>
        <time>2025-09-13T10:34:00Z</time>
      </trkpt>
      <trkpt lat="47.508" lon="6.93225">
        <ele>377.7</ele>
        <time>2025-09-13T10:34:01Z</time>
      </trkpt>
      <trkpt lat="47.50797" lon="6.93217">
        <ele>377.7</ele>
        <time>2025-09-13T10:34:02Z</time>
      </trkpt>
      <trkpt lat="47.50795" lon="6.93208">
        <ele>377.8</ele>
        <time>2025-09-13T10:34:03Z</time>
      </trkpt>
      <trkpt lat="47.50793" lon="6.932">
        <ele>377.9</ele>
        <time>2025-09-13T10:34:04Z</time>
      </trkpt>
      <trkpt lat="47.5079" lon="6.93192">
        <ele>378</ele>
        <time>2025-09-13T10:34:05Z</time>
      </trkpt>
      <trkpt lat="47.50787" lon="6.93184">
        <ele>378.1</ele>
        <time>2025-09-13T10:34:06Z</time>
      </trkpt>
      <trkpt lat="47.50784" lon="6.93176">
        <ele>378.2</ele>
        <time>2025-09-13T10:34:07Z</time>
      </trkpt>
      <trkpt lat="47.50781" lon="6.93169">
        <ele>378.3</ele>
        <time>2025-09-13T10:34:08Z</time>
      </trkpt>
      <trkpt lat="47.50778" lon="6.9316">
        <ele>378.4</ele>
        <time>2025-09-13T10:34:09Z</time>
      </trkpt>
      <trkpt lat="47.50775" lon="6.93154">
        <ele>378.5</ele>
        <time>2025-09-13T10:34:10Z</time>
      </trkpt>
      <trkpt lat="47.50771" lon="6.93147">
        <ele>378.7</ele>
        <time>2025-09-13T10:34:11Z</time>
      </trkpt>
      <trkpt lat="47.50767" lon="6.9314">
        <ele>378.9</ele>
        <time>2025-09-13T10:34:12Z</time>
      </trkpt>
      <trkpt lat="47.50763" lon="6.93134">
        <ele>379</ele>
        <time>2025-09-13T10:34:13Z</time>
      </trkpt>
      <trkpt lat="47.50759" lon="6.93129">
        <ele>379.2</ele>
        <time>2025-09-13T10:34:14Z</time>
      </trkpt>
      <trkpt lat="47.50755" lon="6.93122">
        <ele>379.4</ele>
        <time>2025-09-13T10:34:15Z</time>
      </trkpt>
      <trkpt lat="47.50751" lon="6.93117">
        <ele>379.6</ele>
        <time>2025-09-13T10:34:16Z</time>
      </trkpt>
      <trkpt lat="47.50746" lon="6.93112">
        <ele>379.8</ele>
        <time>2025-09-13T10:34:17Z</time>
      </trkpt>
      <trkpt lat="47.50742" lon="6.93106">
        <ele>380.1</ele>
        <time>2025-09-13T10:34:18Z</time>
      </trkpt>
      <trkpt lat="47.50739" lon="6.93102">
        <ele>380.3</ele>
        <time>2025-09-13T10:34:19Z</time>
      </trkpt>
      <trkpt lat="47.50741" lon="6.93104">
        <ele>380.4</ele>
        <time>2025-09-13T10:34:20Z</time>
      </trkpt>
      <trkpt lat="47.50738" lon="6.931">
        <ele>380.6</ele>
        <time>2025-09-13T10:34:21Z</time>
      </trkpt>
      <trkpt lat="47.50736" lon="6.93095">
        <ele>380.8</ele>
        <time>2025-09-13T10:34:22Z</time>
      </trkpt>
      <trkpt lat="47.50735" lon="6.93092">
        <ele>380.9</ele>
        <time>2025-09-13T10:34:23Z</time>
      </trkpt>
      <trkpt lat="47.50732" lon="6.9309">
        <ele>381.1</ele>
        <time>2025-09-13T10:34:24Z</time>
      </trkpt>
      <trkpt lat="47.50729" lon="6.93087">
        <ele>381.3</ele>
        <time>2025-09-13T10:34:25Z</time>
      </trkpt>
      <trkpt lat="47.50723" lon="6.93085">
        <ele>381.7</ele>
        <time>2025-09-13T10:34:26Z</time>
      </trkpt>
      <trkpt lat="47.50714" lon="6.93078">
        <ele>382.3</ele>
        <time>2025-09-13T10:34:27Z</time>
      </trkpt>
      <trkpt lat="47.50711" lon="6.93075">
        <ele>382.5</ele>
        <time>2025-09-13T10:34:28Z</time>
      </trkpt>
      <trkpt lat="47.50704" lon="6.93071">
        <ele>383</ele>
        <time>2025-09-13T10:34:29Z</time>
      </trkpt>
      <trkpt lat="47.50702" lon="6.93069">
        <ele>383.2</ele>
        <time>2025-09-13T10:34:30Z</time>
      </trkpt>
      <trkpt lat="47.507" lon="6.93067">
        <ele>383.3</ele>
        <time>2025-09-13T10:34:31Z</time>
      </trkpt>
      <trkpt lat="47.50695" lon="6.93065">
        <ele>383.6</ele>
        <time>2025-09-13T10:34:32Z</time>
      </trkpt>
      <trkpt lat="47.50693" lon="6.9306">
        <ele>383.9</ele>
        <time>2025-09-13T10:34:33Z</time>
      </trkpt>
      <trkpt lat="47.50691" lon="6.93058">
        <ele>384.1</ele>
        <time>2025-09-13T10:34:34Z</time>
      </trkpt>
      <trkpt lat="47.50687" lon="6.93056">
        <ele>384.3</ele>
        <time>2025-09-13T10:34:35Z</time>
      </trkpt>
      <trkpt lat="47.50685" lon="6.93054">
        <ele>384.5</ele>
        <time>2025-09-13T10:34:36Z</time>
      </trkpt>
      <trkpt lat="47.50679" lon="6.93051">
        <ele>384.9</ele>
        <time>2025-09-13T10:34:37Z</time>
      </trkpt>
      <trkpt lat="47.50676" lon="6.93049">
        <ele>385.1</ele>
        <time>2025-09-13T10:34:38Z</time>
      </trkpt>
      <trkpt lat="47.50669" lon="6.93046">
        <ele>385.6</ele>
        <time>2025-09-13T10:34:39Z</time>
      </trkpt>
      <trkpt lat="47.50663" lon="6.93042">
        <ele>385.9</ele>
        <time>2025-09-13T10:34:40Z</time>
      </trkpt>
      <trkpt lat="47.50657" lon="6.93039">
        <ele>386.4</ele>
        <time>2025-09-13T10:34:41Z</time>
      </trkpt>
      <trkpt lat="47.50651" lon="6.93037">
        <ele>386.7</ele>
        <time>2025-09-13T10:34:42Z</time>
      </trkpt>
      <trkpt lat="47.50648" lon="6.93035">
        <ele>386.9</ele>
        <time>2025-09-13T10:34:43Z</time>
      </trkpt>
      <trkpt lat="47.50645" lon="6.93033">
        <ele>387.1</ele>
        <time>2025-09-13T10:34:44Z</time>
      </trkpt>
      <trkpt lat="47.5064" lon="6.93031">
        <ele>387.5</ele>
        <time>2025-09-13T10:34:45Z</time>
      </trkpt>
      <trkpt lat="47.50634" lon="6.9303">
        <ele>387.9</ele>
        <time>2025-09-13T10:34:46Z</time>
      </trkpt>
      <trkpt lat="47.50626" lon="6.9303">
        <ele>388.4</ele>
        <time>2025-09-13T10:34:47Z</time>
      </trkpt>
      <trkpt lat="47.50619" lon="6.93029">
        <ele>388.8</ele>
        <time>2025-09-13T10:34:48Z</time>
      </trkpt>
      <trkpt lat="47.50613" lon="6.93028">
        <ele>389.2</ele>
        <time>2025-09-13T10:34:49Z</time>
      </trkpt>
      <trkpt lat="47.50609" lon="6.93026">
        <ele>389.5</ele>
        <time>2025-09-13T10:34:50Z</time>
      </trkpt>
      <trkpt lat="47.50604" lon="6.93023">
        <ele>389.8</ele>
        <time>2025-09-13T10:34:51Z</time>
      </trkpt>
      <trkpt lat="47.506" lon="6.93021">
        <ele>390.2</ele>
        <time>2025-09-13T10:34:52Z</time>
      </trkpt>
      <trkpt lat="47.50596" lon="6.93018">
        <ele>390.5</ele>
        <time>2025-09-13T10:34:53Z</time>
      </trkpt>
      <trkpt lat="47.50591" lon="6.93016">
        <ele>390.8</ele>
        <time>2025-09-13T10:34:54Z</time>
      </trkpt>
      <trkpt lat="47.50587" lon="6.93014">
        <ele>391.1</ele>
        <time>2025-09-13T10:34:55Z</time>
      </trkpt>
      <trkpt lat="47.50583" lon="6.93013">
        <ele>391.4</ele>
        <time>2025-09-13T10:34:56Z</time>
      </trkpt>
      <trkpt lat="47.50578" lon="6.9301">
        <ele>391.7</ele>
        <time>2025-09-13T10:34:57Z</time>
      </trkpt>
      <trkpt lat="47.50576" lon="6.93008">
        <ele>391.9</ele>
        <time>2025-09-13T10:34:58Z</time>
      </trkpt>
      <trkpt lat="47.50571" lon="6.93005">
        <ele>392.3</ele>
        <time>2025-09-13T10:34:59Z</time>
      </trkpt>
      <trkpt lat="47.50567" lon="6.93003">
        <ele>392.6</ele>
        <time>2025-09-13T10:35:00Z</time>
      </trkpt>
      <trkpt lat="47.50563" lon="6.93001">
        <ele>392.9</ele>
        <time>2025-09-13T10:35:01Z</time>
      </trkpt>
      <trkpt lat="47.50559" lon="6.92999">
        <ele>393.1</ele>
        <time>2025-09-13T10:35:02Z</time>
      </trkpt>
      <trkpt lat="47.50555" lon="6.92996">
        <ele>393.4</ele>
        <time>2025-09-13T10:35:03Z</time>
      </trkpt>
      <trkpt lat="47.50551" lon="6.92994">
        <ele>393.6</ele>
        <time>2025-09-13T10:35:04Z</time>
      </trkpt>
      <trkpt lat="47.50547" lon="6.92991">
        <ele>393.9</ele>
        <time>2025-09-13T10:35:05Z</time>
      </trkpt>
      <trkpt lat="47.50542" lon="6.92989">
        <ele>394.1</ele>
        <time>2025-09-13T10:35:06Z</time>
      </trkpt>
      <trkpt lat="47.50538" lon="6.92987">
        <ele>394.4</ele>
        <time>2025-09-13T10:35:07Z</time>
      </trkpt>
      <trkpt lat="47.50533" lon="6.92984">
        <ele>394.7</ele>
        <time>2025-09-13T10:35:08Z</time>
      </trkpt>
      <trkpt lat="47.5053" lon="6.92981">
        <ele>394.9</ele>
        <time>2025-09-13T10:35:09Z</time>
      </trkpt>
      <trkpt lat="47.50526" lon="6.92978">
        <ele>395.1</ele>
        <time>2025-09-13T10:35:10Z</time>
      </trkpt>
      <trkpt lat="47.50521" lon="6.92975">
        <ele>395.3</ele>
        <time>2025-09-13T10:35:11Z</time>
      </trkpt>
      <trkpt lat="47.50516" lon="6.92972">
        <ele>395.5</ele>
        <time>2025-09-13T10:35:12Z</time>
      </trkpt>
      <trkpt lat="47.50512" lon="6.92969">
        <ele>395.8</ele>
        <time>2025-09-13T10:35:13Z</time>
      </trkpt>
      <trkpt lat="47.50508" lon="6.92965">
        <ele>396</ele>
        <time>2025-09-13T10:35:14Z</time>
      </trkpt>
      <trkpt lat="47.50503" lon="6.92961">
        <ele>396.2</ele>
        <time>2025-09-13T10:35:15Z</time>
      </trkpt>
      <trkpt lat="47.50499" lon="6.92957">
        <ele>396.4</ele>
        <time>2025-09-13T10:35:16Z</time>
      </trkpt>
      <trkpt lat="47.50495" lon="6.92953">
        <ele>396.6</ele>
        <time>2025-09-13T10:35:17Z</time>
      </trkpt>
      <trkpt lat="47.50491" lon="6.92949">
        <ele>396.7</ele>
        <time>2025-09-13T10:35:18Z</time>
      </trkpt>
      <trkpt lat="47.50487" lon="6.92944">
        <ele>396.9</ele>
        <time>2025-09-13T10:35:19Z</time>
      </trkpt>
      <trkpt lat="47.50483" lon="6.92939">
        <ele>397</ele>
        <time>2025-09-13T10:35:20Z</time>
      </trkpt>
      <trkpt lat="47.50479" lon="6.92934">
        <ele>397.2</ele>
        <time>2025-09-13T10:35:21Z</time>
      </trkpt>
      <trkpt lat="47.50475" lon="6.92929">
        <ele>397.3</ele>
        <time>2025-09-13T10:35:22Z</time>
      </trkpt>
      <trkpt lat="47.5047" lon="6.92924">
        <ele>397.4</ele>
        <time>2025-09-13T10:35:23Z</time>
      </trkpt>
      <trkpt lat="47.50466" lon="6.92919">
        <ele>397.5</ele>
        <time>2025-09-13T10:35:25Z</time>
      </trkpt>
      <trkpt lat="47.50463" lon="6.92913">
        <ele>397.6</ele>
        <time>2025-09-13T10:35:26Z</time>
      </trkpt>
      <trkpt lat="47.50458" lon="6.92906">
        <ele>397.7</ele>
        <time>2025-09-13T10:35:27Z</time>
      </trkpt>
      <trkpt lat="47.50455" lon="6.929">
        <ele>397.8</ele>
        <time>2025-09-13T10:35:28Z</time>
      </trkpt>
      <trkpt lat="47.50451" lon="6.92894">
        <ele>397.9</ele>
        <time>2025-09-13T10:35:29Z</time>
      </trkpt>
      <trkpt lat="47.50447" lon="6.92887">
        <ele>397.9</ele>
        <time>2025-09-13T10:35:30Z</time>
      </trkpt>
      <trkpt lat="47.50444" lon="6.9288">
        <ele>398</ele>
        <time>2025-09-13T10:35:31Z</time>
      </trkpt>
      <trkpt lat="47.5044" lon="6.92873">
        <ele>398</ele>
        <time>2025-09-13T10:35:32Z</time>
      </trkpt>
      <trkpt lat="47.50436" lon="6.92865">
        <ele>398</ele>
        <time>2025-09-13T10:35:33Z</time>
      </trkpt>
      <trkpt lat="47.50433" lon="6.92858">
        <ele>398</ele>
        <time>2025-09-13T10:35:34Z</time>
      </trkpt>
      <trkpt lat="47.5043" lon="6.9285">
        <ele>398</ele>
        <time>2025-09-13T10:35:35Z</time>
      </trkpt>
      <trkpt lat="47.50426" lon="6.92842">
        <ele>398</ele>
        <time>2025-09-13T10:35:36Z</time>
      </trkpt>
      <trkpt lat="47.50423" lon="6.92833">
        <ele>397.9</ele>
        <time>2025-09-13T10:35:37Z</time>
      </trkpt>
      <trkpt lat="47.5042" lon="6.92824">
        <ele>397.9</ele>
        <time>2025-09-13T10:35:38Z</time>
      </trkpt>
      <trkpt lat="47.50418" lon="6.92815">
        <ele>397.8</ele>
        <time>2025-09-13T10:35:39Z</time>
      </trkpt>
      <trkpt lat="47.50415" lon="6.92806">
        <ele>397.8</ele>
        <time>2025-09-13T10:35:40Z</time>
      </trkpt>
      <trkpt lat="47.50413" lon="6.92798">
        <ele>397.7</ele>
        <time>2025-09-13T10:35:41Z</time>
      </trkpt>
      <trkpt lat="47.50411" lon="6.92789">
        <ele>397.5</ele>
        <time>2025-09-13T10:35:42Z</time>
      </trkpt>
      <trkpt lat="47.50409" lon="6.92778">
        <ele>397.4</ele>
        <time>2025-09-13T10:35:43Z</time>
      </trkpt>
      <trkpt lat="47.50406" lon="6.92768">
        <ele>397.2</ele>
        <time>2025-09-13T10:35:44Z</time>
      </trkpt>
      <trkpt lat="47.50402" lon="6.92748">
        <ele>396.8</ele>
        <time>2025-09-13T10:35:45Z</time>
      </trkpt>
      <trkpt lat="47.504" lon="6.92737">
        <ele>396.6</ele>
        <time>2025-09-13T10:35:46Z</time>
      </trkpt>
      <trkpt lat="47.50399" lon="6.92725">
        <ele>396.4</ele>
        <time>2025-09-13T10:35:47Z</time>
      </trkpt>
      <trkpt lat="47.50397" lon="6.92714">
        <ele>396.2</ele>
        <time>2025-09-13T10:35:48Z</time>
      </trkpt>
      <trkpt lat="47.50396" lon="6.92703">
        <ele>396</ele>
        <time>2025-09-13T10:35:49Z</time>
      </trkpt>
      <trkpt lat="47.50394" lon="6.92692">
        <ele>395.8</ele>
        <time>2025-09-13T10:35:50Z</time>
      </trkpt>
      <trkpt lat="47.50394" lon="6.92681">
        <ele>395.6</ele>
        <time>2025-09-13T10:35:51Z</time>
      </trkpt>
      <trkpt lat="47.50393" lon="6.92669">
        <ele>395.4</ele>
        <time>2025-09-13T10:35:52Z</time>
      </trkpt>
      <trkpt lat="47.50393" lon="6.92657">
        <ele>395.2</ele>
        <time>2025-09-13T10:35:53Z</time>
      </trkpt>
      <trkpt lat="47.50392" lon="6.92646">
        <ele>395</ele>
        <time>2025-09-13T10:35:54Z</time>
      </trkpt>
      <trkpt lat="47.50393" lon="6.92633">
        <ele>394.8</ele>
        <time>2025-09-13T10:35:55Z</time>
      </trkpt>
      <trkpt lat="47.50392" lon="6.92622">
        <ele>394.6</ele>
        <time>2025-09-13T10:35:56Z</time>
      </trkpt>
      <trkpt lat="47.50391" lon="6.9261">
        <ele>394.4</ele>
        <time>2025-09-13T10:35:57Z</time>
      </trkpt>
      <trkpt lat="47.5039" lon="6.92598">
        <ele>394.2</ele>
        <time>2025-09-13T10:35:58Z</time>
      </trkpt>
      <trkpt lat="47.5039" lon="6.92587">
        <ele>394</ele>
        <time>2025-09-13T10:35:59Z</time>
      </trkpt>
      <trkpt lat="47.5039" lon="6.92574">
        <ele>393.8</ele>
        <time>2025-09-13T10:36:00Z</time>
      </trkpt>
      <trkpt lat="47.50389" lon="6.92562">
        <ele>393.6</ele>
        <time>2025-09-13T10:36:01Z</time>
      </trkpt>
      <trkpt lat="47.50389" lon="6.9255">
        <ele>393.4</ele>
        <time>2025-09-13T10:36:02Z</time>
      </trkpt>
      <trkpt lat="47.50389" lon="6.92539">
        <ele>393.2</ele>
        <time>2025-09-13T10:36:03Z</time>
      </trkpt>
      <trkpt lat="47.50388" lon="6.92527">
        <ele>393</ele>
        <time>2025-09-13T10:36:04Z</time>
      </trkpt>
      <trkpt lat="47.50388" lon="6.92515">
        <ele>392.8</ele>
        <time>2025-09-13T10:36:05Z</time>
      </trkpt>
      <trkpt lat="47.50387" lon="6.92503">
        <ele>392.7</ele>
        <time>2025-09-13T10:36:06Z</time>
      </trkpt>
      <trkpt lat="47.50387" lon="6.92491">
        <ele>392.5</ele>
        <time>2025-09-13T10:36:07Z</time>
      </trkpt>
      <trkpt lat="47.50387" lon="6.92479">
        <ele>392.3</ele>
        <time>2025-09-13T10:36:08Z</time>
      </trkpt>
      <trkpt lat="47.50387" lon="6.92467">
        <ele>392.2</ele>
        <time>2025-09-13T10:36:09Z</time>
      </trkpt>
      <trkpt lat="47.50387" lon="6.92455">
        <ele>392</ele>
        <time>2025-09-13T10:36:10Z</time>
      </trkpt>
      <trkpt lat="47.50386" lon="6.92443">
        <ele>391.8</ele>
        <time>2025-09-13T10:36:11Z</time>
      </trkpt>
      <trkpt lat="47.50386" lon="6.92431">
        <ele>391.6</ele>
        <time>2025-09-13T10:36:12Z</time>
      </trkpt>
      <trkpt lat="47.50386" lon="6.9242">
        <ele>391.5</ele>
        <time>2025-09-13T10:36:13Z</time>
      </trkpt>
      <trkpt lat="47.50386" lon="6.92407">
        <ele>391.3</ele>
        <time>2025-09-13T10:36:14Z</time>
      </trkpt>
      <trkpt lat="47.50386" lon="6.92395">
        <ele>391.1</ele>
        <time>2025-09-13T10:36:15Z</time>
      </trkpt>
      <trkpt lat="47.50386" lon="6.92382">
        <ele>391</ele>
        <time>2025-09-13T10:36:16Z</time>
      </trkpt>
      <trkpt lat="47.50386" lon="6.92369">
        <ele>390.9</ele>
        <time>2025-09-13T10:36:17Z</time>
      </trkpt>
      <trkpt lat="47.50387" lon="6.92356">
        <ele>390.8</ele>
        <time>2025-09-13T10:36:18Z</time>
      </trkpt>
      <trkpt lat="47.50388" lon="6.92345">
        <ele>390.9</ele>
        <time>2025-09-13T10:36:19Z</time>
      </trkpt>
      <trkpt lat="47.5039" lon="6.92333">
        <ele>390.9</ele>
        <time>2025-09-13T10:36:20Z</time>
      </trkpt>
      <trkpt lat="47.50393" lon="6.92321">
        <ele>391</ele>
        <time>2025-09-13T10:36:21Z</time>
      </trkpt>
      <trkpt lat="47.50395" lon="6.9231">
        <ele>391.1</ele>
        <time>2025-09-13T10:36:22Z</time>
      </trkpt>
      <trkpt lat="47.50398" lon="6.92298">
        <ele>391.3</ele>
        <time>2025-09-13T10:36:23Z</time>
      </trkpt>
      <trkpt lat="47.50401" lon="6.92287">
        <ele>391.3</ele>
        <time>2025-09-13T10:36:24Z</time>
      </trkpt>
      <trkpt lat="47.50403" lon="6.92279">
        <ele>391.4</ele>
        <time>2025-09-13T10:36:25Z</time>
      </trkpt>
      <trkpt lat="47.50407" lon="6.92269">
        <ele>391.4</ele>
        <time>2025-09-13T10:36:26Z</time>
      </trkpt>
      <trkpt lat="47.5041" lon="6.9226">
        <ele>391.5</ele>
        <time>2025-09-13T10:36:27Z</time>
      </trkpt>
      <trkpt lat="47.50415" lon="6.9225">
        <ele>391.5</ele>
        <time>2025-09-13T10:36:28Z</time>
      </trkpt>
      <trkpt lat="47.50418" lon="6.92242">
        <ele>391.6</ele>
        <time>2025-09-13T10:36:29Z</time>
      </trkpt>
      <trkpt lat="47.50422" lon="6.92233">
        <ele>391.6</ele>
        <time>2025-09-13T10:36:30Z</time>
      </trkpt>
      <trkpt lat="47.50426" lon="6.92224">
        <ele>391.7</ele>
        <time>2025-09-13T10:36:31Z</time>
      </trkpt>
      <trkpt lat="47.50429" lon="6.92215">
        <ele>391.7</ele>
        <time>2025-09-13T10:36:32Z</time>
      </trkpt>
      <trkpt lat="47.50431" lon="6.92207">
        <ele>391.8</ele>
        <time>2025-09-13T10:36:33Z</time>
      </trkpt>
      <trkpt lat="47.50434" lon="6.92197">
        <ele>391.8</ele>
        <time>2025-09-13T10:36:34Z</time>
      </trkpt>
      <trkpt lat="47.50437" lon="6.92188">
        <ele>391.8</ele>
        <time>2025-09-13T10:36:35Z</time>
      </trkpt>
      <trkpt lat="47.50441" lon="6.92178">
        <ele>391.9</ele>
        <time>2025-09-13T10:36:36Z</time>
      </trkpt>
      <trkpt lat="47.50444" lon="6.92168">
        <ele>391.9</ele>
        <time>2025-09-13T10:36:37Z</time>
      </trkpt>
      <trkpt lat="47.50446" lon="6.9216">
        <ele>392</ele>
        <time>2025-09-13T10:36:38Z</time>
      </trkpt>
      <trkpt lat="47.50448" lon="6.92151">
        <ele>392.1</ele>
        <time>2025-09-13T10:36:39Z</time>
      </trkpt>
      <trkpt lat="47.50452" lon="6.92142">
        <ele>392.2</ele>
        <time>2025-09-13T10:36:40Z</time>
      </trkpt>
      <trkpt lat="47.50455" lon="6.92133">
        <ele>392.3</ele>
        <time>2025-09-13T10:36:41Z</time>
      </trkpt>
      <trkpt lat="47.50457" lon="6.92124">
        <ele>392.4</ele>
        <time>2025-09-13T10:36:42Z</time>
      </trkpt>
      <trkpt lat="47.5046" lon="6.92114">
        <ele>392.6</ele>
        <time>2025-09-13T10:36:43Z</time>
      </trkpt>
      <trkpt lat="47.50462" lon="6.92105">
        <ele>392.7</ele>
        <time>2025-09-13T10:36:44Z</time>
      </trkpt>
      <trkpt lat="47.50465" lon="6.92096">
        <ele>392.9</ele>
        <time>2025-09-13T10:36:45Z</time>
      </trkpt>
      <trkpt lat="47.50468" lon="6.92087">
        <ele>393.1</ele>
        <time>2025-09-13T10:36:46Z</time>
      </trkpt>
      <trkpt lat="47.5047" lon="6.92079">
        <ele>393.2</ele>
        <time>2025-09-13T10:36:47Z</time>
      </trkpt>
      <trkpt lat="47.50472" lon="6.9207">
        <ele>393.4</ele>
        <time>2025-09-13T10:36:48Z</time>
      </trkpt>
      <trkpt lat="47.50474" lon="6.92062">
        <ele>393.6</ele>
        <time>2025-09-13T10:36:49Z</time>
      </trkpt>
      <trkpt lat="47.50476" lon="6.92053">
        <ele>393.8</ele>
        <time>2025-09-13T10:36:50Z</time>
      </trkpt>
      <trkpt lat="47.50479" lon="6.92045">
        <ele>393.9</ele>
        <time>2025-09-13T10:36:51Z</time>
      </trkpt>
      <trkpt lat="47.50481" lon="6.92037">
        <ele>394</ele>
        <time>2025-09-13T10:36:52Z</time>
      </trkpt>
      <trkpt lat="47.50484" lon="6.92028">
        <ele>394.1</ele>
        <time>2025-09-13T10:36:53Z</time>
      </trkpt>
      <trkpt lat="47.50486" lon="6.92022">
        <ele>394.2</ele>
        <time>2025-09-13T10:36:54Z</time>
      </trkpt>
      <trkpt lat="47.50489" lon="6.92014">
        <ele>394.2</ele>
        <time>2025-09-13T10:36:55Z</time>
      </trkpt>
      <trkpt lat="47.50492" lon="6.92005">
        <ele>394.2</ele>
        <time>2025-09-13T10:36:56Z</time>
      </trkpt>
      <trkpt lat="47.50495" lon="6.91996">
        <ele>394.1</ele>
        <time>2025-09-13T10:36:57Z</time>
      </trkpt>
      <trkpt lat="47.50498" lon="6.91987">
        <ele>394</ele>
        <time>2025-09-13T10:36:58Z</time>
      </trkpt>
      <trkpt lat="47.50501" lon="6.91977">
        <ele>393.9</ele>
        <time>2025-09-13T10:36:59Z</time>
      </trkpt>
      <trkpt lat="47.50504" lon="6.91969">
        <ele>393.7</ele>
        <time>2025-09-13T10:37:00Z</time>
      </trkpt>
      <trkpt lat="47.50508" lon="6.9196">
        <ele>393.4</ele>
        <time>2025-09-13T10:37:01Z</time>
      </trkpt>
      <trkpt lat="47.50512" lon="6.91951">
        <ele>393.1</ele>
        <time>2025-09-13T10:37:02Z</time>
      </trkpt>
      <trkpt lat="47.50514" lon="6.91943">
        <ele>392.8</ele>
        <time>2025-09-13T10:37:03Z</time>
      </trkpt>
      <trkpt lat="47.50518" lon="6.91933">
        <ele>392.3</ele>
        <time>2025-09-13T10:37:04Z</time>
      </trkpt>
      <trkpt lat="47.50521" lon="6.91923">
        <ele>391.8</ele>
        <time>2025-09-13T10:37:05Z</time>
      </trkpt>
      <trkpt lat="47.50525" lon="6.91912">
        <ele>391.3</ele>
        <time>2025-09-13T10:37:06Z</time>
      </trkpt>
      <trkpt lat="47.50529" lon="6.91899">
        <ele>390.6</ele>
        <time>2025-09-13T10:37:07Z</time>
      </trkpt>
      <trkpt lat="47.50532" lon="6.91888">
        <ele>390</ele>
        <time>2025-09-13T10:37:08Z</time>
      </trkpt>
      <trkpt lat="47.50535" lon="6.91874">
        <ele>389.4</ele>
        <time>2025-09-13T10:37:09Z</time>
      </trkpt>
      <trkpt lat="47.50538" lon="6.91861">
        <ele>388.8</ele>
        <time>2025-09-13T10:37:10Z</time>
      </trkpt>
      <trkpt lat="47.50541" lon="6.91846">
        <ele>388.1</ele>
        <time>2025-09-13T10:37:11Z</time>
      </trkpt>
      <trkpt lat="47.50544" lon="6.9183">
        <ele>387.8</ele>
        <time>2025-09-13T10:37:12Z</time>
      </trkpt>
      <trkpt lat="47.50547" lon="6.91815">
        <ele>387.4</ele>
        <time>2025-09-13T10:37:13Z</time>
      </trkpt>
      <trkpt lat="47.5055" lon="6.918">
        <ele>386.9</ele>
        <time>2025-09-13T10:37:14Z</time>
      </trkpt>
      <trkpt lat="47.50553" lon="6.91784">
        <ele>386.3</ele>
        <time>2025-09-13T10:37:15Z</time>
      </trkpt>
      <trkpt lat="47.50556" lon="6.91768">
        <ele>385.6</ele>
        <time>2025-09-13T10:37:16Z</time>
      </trkpt>
      <trkpt lat="47.50558" lon="6.91751">
        <ele>384.8</ele>
        <time>2025-09-13T10:37:17Z</time>
      </trkpt>
      <trkpt lat="47.50559" lon="6.91734">
        <ele>384.2</ele>
        <time>2025-09-13T10:37:18Z</time>
      </trkpt>
      <trkpt lat="47.5056" lon="6.91717">
        <ele>383.5</ele>
        <time>2025-09-13T10:37:19Z</time>
      </trkpt>
      <trkpt lat="47.50562" lon="6.91702">
        <ele>382.9</ele>
        <time>2025-09-13T10:37:20Z</time>
      </trkpt>
      <trkpt lat="47.50564" lon="6.91684">
        <ele>382.1</ele>
        <time>2025-09-13T10:37:21Z</time>
      </trkpt>
      <trkpt lat="47.50565" lon="6.91669">
        <ele>381.4</ele>
        <time>2025-09-13T10:37:22Z</time>
      </trkpt>
      <trkpt lat="47.50567" lon="6.91651">
        <ele>380.5</ele>
        <time>2025-09-13T10:37:23Z</time>
      </trkpt>
      <trkpt lat="47.50568" lon="6.91635">
        <ele>379.6</ele>
        <time>2025-09-13T10:37:24Z</time>
      </trkpt>
      <trkpt lat="47.5057" lon="6.91618">
        <ele>378.7</ele>
        <time>2025-09-13T10:37:25Z</time>
      </trkpt>
      <trkpt lat="47.50571" lon="6.916">
        <ele>377.7</ele>
        <time>2025-09-13T10:37:26Z</time>
      </trkpt>
      <trkpt lat="47.50572" lon="6.91582">
        <ele>376.7</ele>
        <time>2025-09-13T10:37:27Z</time>
      </trkpt>
      <trkpt lat="47.50574" lon="6.91564">
        <ele>375.6</ele>
        <time>2025-09-13T10:37:28Z</time>
      </trkpt>
      <trkpt lat="47.50574" lon="6.91547">
        <ele>374.6</ele>
        <time>2025-09-13T10:37:29Z</time>
      </trkpt>
      <trkpt lat="47.50576" lon="6.91528">
        <ele>373.5</ele>
        <time>2025-09-13T10:37:30Z</time>
      </trkpt>
      <trkpt lat="47.50577" lon="6.91509">
        <ele>372.2</ele>
        <time>2025-09-13T10:37:31Z</time>
      </trkpt>
      <trkpt lat="47.50578" lon="6.91491">
        <ele>371</ele>
        <time>2025-09-13T10:37:32Z</time>
      </trkpt>
      <trkpt lat="47.50579" lon="6.91472">
        <ele>369.7</ele>
        <time>2025-09-13T10:37:33Z</time>
      </trkpt>
      <trkpt lat="47.5058" lon="6.91454">
        <ele>368.5</ele>
        <time>2025-09-13T10:37:34Z</time>
      </trkpt>
      <trkpt lat="47.50582" lon="6.91438">
        <ele>367.3</ele>
        <time>2025-09-13T10:37:35Z</time>
      </trkpt>
      <trkpt lat="47.50586" lon="6.91425">
        <ele>366.3</ele>
        <time>2025-09-13T10:37:36Z</time>
      </trkpt>
      <trkpt lat="47.5059" lon="6.91413">
        <ele>366</ele>
        <time>2025-09-13T10:37:37Z</time>
      </trkpt>
      <trkpt lat="47.50595" lon="6.91402">
        <ele>365.6</ele>
        <time>2025-09-13T10:37:38Z</time>
      </trkpt>
      <trkpt lat="47.50598" lon="6.91393">
        <ele>365</ele>
        <time>2025-09-13T10:37:39Z</time>
      </trkpt>
      <trkpt lat="47.50602" lon="6.91384">
        <ele>364.4</ele>
        <time>2025-09-13T10:37:41Z</time>
      </trkpt>
      <trkpt lat="47.50605" lon="6.91375">
        <ele>363.8</ele>
        <time>2025-09-13T10:37:42Z</time>
      </trkpt>
      <trkpt lat="47.50608" lon="6.91368">
        <ele>363.4</ele>
        <time>2025-09-13T10:37:43Z</time>
      </trkpt>
      <trkpt lat="47.50611" lon="6.91359">
        <ele>362.9</ele>
        <time>2025-09-13T10:37:44Z</time>
      </trkpt>
      <trkpt lat="47.50614" lon="6.91347">
        <ele>362.5</ele>
        <time>2025-09-13T10:37:45Z</time>
      </trkpt>
      <trkpt lat="47.50616" lon="6.91337">
        <ele>362.3</ele>
        <time>2025-09-13T10:37:46Z</time>
      </trkpt>
      <trkpt lat="47.50619" lon="6.91315">
        <ele>362</ele>
        <time>2025-09-13T10:37:47Z</time>
      </trkpt>
      <trkpt lat="47.50619" lon="6.91307">
        <ele>361.9</ele>
        <time>2025-09-13T10:37:48Z</time>
      </trkpt>
      <trkpt lat="47.50621" lon="6.91299">
        <ele>361.8</ele>
        <time>2025-09-13T10:37:49Z</time>
      </trkpt>
      <trkpt lat="47.50621" lon="6.91292">
        <ele>361.8</ele>
        <time>2025-09-13T10:37:50Z</time>
      </trkpt>
      <trkpt lat="47.50621" lon="6.91286">
        <ele>361.8</ele>
        <time>2025-09-13T10:37:51Z</time>
      </trkpt>
      <trkpt lat="47.50621" lon="6.9128">
        <ele>361.8</ele>
        <time>2025-09-13T10:37:52Z</time>
      </trkpt>
      <trkpt lat="47.50621" lon="6.91274">
        <ele>361.8</ele>
        <time>2025-09-13T10:37:53Z</time>
      </trkpt>
      <trkpt lat="47.50624" lon="6.9127">
        <ele>361.7</ele>
        <time>2025-09-13T10:37:54Z</time>
      </trkpt>
      <trkpt lat="47.5063" lon="6.91269">
        <ele>361.7</ele>
        <time>2025-09-13T10:37:55Z</time>
      </trkpt>
      <trkpt lat="47.50635" lon="6.9127">
        <ele>361.6</ele>
        <time>2025-09-13T10:37:56Z</time>
      </trkpt>
      <trkpt lat="47.50641" lon="6.9127">
        <ele>361.5</ele>
        <time>2025-09-13T10:37:57Z</time>
      </trkpt>
      <trkpt lat="47.50646" lon="6.91271">
        <ele>361.5</ele>
        <time>2025-09-13T10:37:58Z</time>
      </trkpt>
      <trkpt lat="47.50652" lon="6.91273">
        <ele>361.4</ele>
        <time>2025-09-13T10:37:59Z</time>
      </trkpt>
      <trkpt lat="47.5066" lon="6.91276">
        <ele>361.3</ele>
        <time>2025-09-13T10:38:00Z</time>
      </trkpt>
      <trkpt lat="47.50667" lon="6.91278">
        <ele>361.2</ele>
        <time>2025-09-13T10:38:01Z</time>
      </trkpt>
      <trkpt lat="47.50674" lon="6.91281">
        <ele>361.1</ele>
        <time>2025-09-13T10:38:02Z</time>
      </trkpt>
      <trkpt lat="47.50681" lon="6.91285">
        <ele>361</ele>
        <time>2025-09-13T10:38:03Z</time>
      </trkpt>
      <trkpt lat="47.50689" lon="6.91289">
        <ele>360.9</ele>
        <time>2025-09-13T10:38:04Z</time>
      </trkpt>
      <trkpt lat="47.50698" lon="6.91292">
        <ele>360.9</ele>
        <time>2025-09-13T10:38:05Z</time>
      </trkpt>
      <trkpt lat="47.50705" lon="6.91295">
        <ele>360.8</ele>
        <time>2025-09-13T10:38:06Z</time>
      </trkpt>
      <trkpt lat="47.50714" lon="6.91298">
        <ele>360.7</ele>
        <time>2025-09-13T10:38:07Z</time>
      </trkpt>
      <trkpt lat="47.50722" lon="6.91301">
        <ele>360.6</ele>
        <time>2025-09-13T10:38:08Z</time>
      </trkpt>
      <trkpt lat="47.50732" lon="6.91305">
        <ele>360.5</ele>
        <time>2025-09-13T10:38:09Z</time>
      </trkpt>
      <trkpt lat="47.50739" lon="6.91305">
        <ele>360.4</ele>
        <time>2025-09-13T10:38:10Z</time>
      </trkpt>
      <trkpt lat="47.50748" lon="6.91305">
        <ele>360.3</ele>
        <time>2025-09-13T10:38:11Z</time>
      </trkpt>
      <trkpt lat="47.50757" lon="6.91305">
        <ele>360.3</ele>
        <time>2025-09-13T10:38:12Z</time>
      </trkpt>
      <trkpt lat="47.50765" lon="6.91305">
        <ele>360.3</ele>
        <time>2025-09-13T10:38:13Z</time>
      </trkpt>
      <trkpt lat="47.50774" lon="6.91304">
        <ele>360.2</ele>
        <time>2025-09-13T10:38:14Z</time>
      </trkpt>
      <trkpt lat="47.50782" lon="6.91303">
        <ele>360.2</ele>
        <time>2025-09-13T10:38:15Z</time>
      </trkpt>
      <trkpt lat="47.5079" lon="6.91302">
        <ele>360.3</ele>
        <time>2025-09-13T10:38:16Z</time>
      </trkpt>
      <trkpt lat="47.50798" lon="6.913">
        <ele>360.3</ele>
        <time>2025-09-13T10:38:17Z</time>
      </trkpt>
      <trkpt lat="47.50807" lon="6.91299">
        <ele>360.3</ele>
        <time>2025-09-13T10:38:18Z</time>
      </trkpt>
      <trkpt lat="47.50815" lon="6.91296">
        <ele>360.4</ele>
        <time>2025-09-13T10:38:19Z</time>
      </trkpt>
      <trkpt lat="47.50823" lon="6.91294">
        <ele>360.4</ele>
        <time>2025-09-13T10:38:20Z</time>
      </trkpt>
      <trkpt lat="47.5083" lon="6.91292">
        <ele>360.5</ele>
        <time>2025-09-13T10:38:21Z</time>
      </trkpt>
      <trkpt lat="47.50839" lon="6.91291">
        <ele>360.6</ele>
        <time>2025-09-13T10:38:22Z</time>
      </trkpt>
      <trkpt lat="47.50846" lon="6.9129">
        <ele>360.6</ele>
        <time>2025-09-13T10:38:23Z</time>
      </trkpt>
      <trkpt lat="47.50854" lon="6.91288">
        <ele>360.6</ele>
        <time>2025-09-13T10:38:24Z</time>
      </trkpt>
      <trkpt lat="47.50861" lon="6.91286">
        <ele>360.6</ele>
        <time>2025-09-13T10:38:25Z</time>
      </trkpt>
      <trkpt lat="47.50869" lon="6.91284">
        <ele>360.6</ele>
        <time>2025-09-13T10:38:26Z</time>
      </trkpt>
      <trkpt lat="47.50875" lon="6.91282">
        <ele>360.6</ele>
        <time>2025-09-13T10:38:27Z</time>
      </trkpt>
      <trkpt lat="47.50881" lon="6.91282">
        <ele>360.7</ele>
        <time>2025-09-13T10:38:28Z</time>
      </trkpt>
      <trkpt lat="47.50888" lon="6.9128">
        <ele>360.7</ele>
        <time>2025-09-13T10:38:29Z</time>
      </trkpt>
      <trkpt lat="47.50894" lon="6.91277">
        <ele>360.7</ele>
        <time>2025-09-13T10:38:30Z</time>
      </trkpt>
      <trkpt lat="47.509" lon="6.91275">
        <ele>360.6</ele>
        <time>2025-09-13T10:38:31Z</time>
      </trkpt>
      <trkpt lat="47.50905" lon="6.91274">
        <ele>360.6</ele>
        <time>2025-09-13T10:38:32Z</time>
      </trkpt>
      <trkpt lat="47.50909" lon="6.91278">
        <ele>360.5</ele>
        <time>2025-09-13T10:38:33Z</time>
      </trkpt>
      <trkpt lat="47.50913" lon="6.91283">
        <ele>360.4</ele>
        <time>2025-09-13T10:38:34Z</time>
      </trkpt>
      <trkpt lat="47.50916" lon="6.91287">
        <ele>360.3</ele>
        <time>2025-09-13T10:38:35Z</time>
      </trkpt>
      <trkpt lat="47.5092" lon="6.91287">
        <ele>360.3</ele>
        <time>2025-09-13T10:38:36Z</time>
      </trkpt>
      <trkpt lat="47.50921" lon="6.91282">
        <ele>360.4</ele>
        <time>2025-09-13T10:38:37Z</time>
      </trkpt>
      <trkpt lat="47.50919" lon="6.91276">
        <ele>360.5</ele>
        <time>2025-09-13T10:38:38Z</time>
      </trkpt>
      <trkpt lat="47.50916" lon="6.91275">
        <ele>360.6</ele>
        <time>2025-09-13T10:38:39Z</time>
      </trkpt>
      <trkpt lat="47.50913" lon="6.91272">
        <ele>360.7</ele>
        <time>2025-09-13T10:38:40Z</time>
      </trkpt>
      <trkpt lat="47.50911" lon="6.91267">
        <ele>360.9</ele>
        <time>2025-09-13T10:38:41Z</time>
      </trkpt>
      <trkpt lat="47.50911" lon="6.91266">
        <ele>361</ele>
        <time>2025-09-13T10:38:42Z</time>
      </trkpt>
      <trkpt lat="47.5091" lon="6.91263">
        <ele>361.1</ele>
        <time>2025-09-13T10:38:43Z</time>
      </trkpt>
      <trkpt lat="47.50909" lon="6.91259">
        <ele>361.2</ele>
        <time>2025-09-13T10:38:44Z</time>
      </trkpt>
      <trkpt lat="47.50908" lon="6.91258">
        <ele>361.3</ele>
        <time>2025-09-13T10:38:45Z</time>
      </trkpt>
      <trkpt lat="47.50907" lon="6.91252">
        <ele>361.5</ele>
        <time>2025-09-13T10:38:46Z</time>
      </trkpt>
      <trkpt lat="47.50906" lon="6.91249">
        <ele>361.6</ele>
        <time>2025-09-13T10:38:47Z</time>
      </trkpt>
      <trkpt lat="47.50905" lon="6.91246">
        <ele>361.8</ele>
        <time>2025-09-13T10:38:48Z</time>
      </trkpt>
      <trkpt lat="47.50905" lon="6.91243">
        <ele>361.9</ele>
        <time>2025-09-13T10:38:49Z</time>
      </trkpt>
      <trkpt lat="47.50903" lon="6.91238">
        <ele>362.1</ele>
        <time>2025-09-13T10:38:50Z</time>
      </trkpt>
      <trkpt lat="47.50902" lon="6.91236">
        <ele>362.2</ele>
        <time>2025-09-13T10:38:51Z</time>
      </trkpt>
      <trkpt lat="47.50897" lon="6.91234">
        <ele>362.6</ele>
        <time>2025-09-13T10:38:52Z</time>
      </trkpt>
      <trkpt lat="47.50895" lon="6.91229">
        <ele>362.8</ele>
        <time>2025-09-13T10:38:53Z</time>
      </trkpt>
      <trkpt lat="47.50892" lon="6.91221">
        <ele>363.2</ele>
        <time>2025-09-13T10:38:54Z</time>
      </trkpt>
      <trkpt lat="47.50893" lon="6.91213">
        <ele>363.5</ele>
        <time>2025-09-13T10:38:55Z</time>
      </trkpt>
      <trkpt lat="47.50891" lon="6.91204">
        <ele>363.9</ele>
        <time>2025-09-13T10:38:56Z</time>
      </trkpt>
      <trkpt lat="47.50891" lon="6.91196">
        <ele>364.3</ele>
        <time>2025-09-13T10:38:57Z</time>
      </trkpt>
      <trkpt lat="47.50892" lon="6.91188">
        <ele>364.7</ele>
        <time>2025-09-13T10:38:58Z</time>
      </trkpt>
      <trkpt lat="47.50893" lon="6.91179">
        <ele>365.1</ele>
        <time>2025-09-13T10:38:59Z</time>
      </trkpt>
      <trkpt lat="47.50893" lon="6.91173">
        <ele>365.2</ele>
        <time>2025-09-13T10:39:00Z</time>
      </trkpt>
      <trkpt lat="47.50894" lon="6.91165">
        <ele>365.5</ele>
        <time>2025-09-13T10:39:01Z</time>
      </trkpt>
      <trkpt lat="47.50894" lon="6.91158">
        <ele>365.8</ele>
        <time>2025-09-13T10:39:02Z</time>
      </trkpt>
      <trkpt lat="47.50892" lon="6.91155">
        <ele>366</ele>
        <time>2025-09-13T10:39:03Z</time>
      </trkpt>
      <trkpt lat="47.50892" lon="6.91152">
        <ele>366.1</ele>
        <time>2025-09-13T10:39:04Z</time>
      </trkpt>
      <trkpt lat="47.5089" lon="6.91144">
        <ele>366.5</ele>
        <time>2025-09-13T10:39:05Z</time>
      </trkpt>
      <trkpt lat="47.50889" lon="6.91139">
        <ele>366.9</ele>
        <time>2025-09-13T10:39:06Z</time>
      </trkpt>
      <trkpt lat="47.50888" lon="6.91132">
        <ele>367.3</ele>
        <time>2025-09-13T10:39:07Z</time>
      </trkpt>
      <trkpt lat="47.50885" lon="6.91124">
        <ele>367.8</ele>
        <time>2025-09-13T10:39:08Z</time>
      </trkpt>
      <trkpt lat="47.50885" lon="6.91116">
        <ele>368.2</ele>
        <time>2025-09-13T10:39:09Z</time>
      </trkpt>
      <trkpt lat="47.50885" lon="6.91112">
        <ele>368.4</ele>
        <time>2025-09-13T10:39:10Z</time>
      </trkpt>
      <trkpt lat="47.50885" lon="6.9111">
        <ele>368.5</ele>
        <time>2025-09-13T10:39:11Z</time>
      </trkpt>
      <trkpt lat="47.50884" lon="6.91104">
        <ele>368.9</ele>
        <time>2025-09-13T10:39:12Z</time>
      </trkpt>
      <trkpt lat="47.50883" lon="6.91102">
        <ele>369</ele>
        <time>2025-09-13T10:39:13Z</time>
      </trkpt>
      <trkpt lat="47.50882" lon="6.91097">
        <ele>369.3</ele>
        <time>2025-09-13T10:39:14Z</time>
      </trkpt>
      <trkpt lat="47.50883" lon="6.91093">
        <ele>369.5</ele>
        <time>2025-09-13T10:39:15Z</time>
      </trkpt>
      <trkpt lat="47.50881" lon="6.9109">
        <ele>369.7</ele>
        <time>2025-09-13T10:39:16Z</time>
      </trkpt>
      <trkpt lat="47.50881" lon="6.91085">
        <ele>370</ele>
        <time>2025-09-13T10:39:17Z</time>
      </trkpt>
      <trkpt lat="47.50881" lon="6.91083">
        <ele>370.1</ele>
        <time>2025-09-13T10:39:18Z</time>
      </trkpt>
      <trkpt lat="47.5088" lon="6.91079">
        <ele>370.3</ele>
        <time>2025-09-13T10:39:19Z</time>
      </trkpt>
      <trkpt lat="47.50879" lon="6.91074">
        <ele>370.6</ele>
        <time>2025-09-13T10:39:20Z</time>
      </trkpt>
      <trkpt lat="47.50878" lon="6.91072">
        <ele>370.7</ele>
        <time>2025-09-13T10:39:21Z</time>
      </trkpt>
      <trkpt lat="47.50878" lon="6.91067">
        <ele>371</ele>
        <time>2025-09-13T10:39:22Z</time>
      </trkpt>
      <trkpt lat="47.50877" lon="6.91062">
        <ele>371.3</ele>
        <time>2025-09-13T10:39:23Z</time>
      </trkpt>
      <trkpt lat="47.50876" lon="6.91057">
        <ele>371.5</ele>
        <time>2025-09-13T10:39:24Z</time>
      </trkpt>
      <trkpt lat="47.50875" lon="6.91052">
        <ele>371.8</ele>
        <time>2025-09-13T10:39:25Z</time>
      </trkpt>
      <trkpt lat="47.50873" lon="6.91046">
        <ele>372.1</ele>
        <time>2025-09-13T10:39:26Z</time>
      </trkpt>
      <trkpt lat="47.50873" lon="6.91039">
        <ele>372.4</ele>
        <time>2025-09-13T10:39:27Z</time>
      </trkpt>
      <trkpt lat="47.50872" lon="6.91033">
        <ele>372.7</ele>
        <time>2025-09-13T10:39:28Z</time>
      </trkpt>
      <trkpt lat="47.50872" lon="6.91026">
        <ele>373</ele>
        <time>2025-09-13T10:39:29Z</time>
      </trkpt>
      <trkpt lat="47.50871" lon="6.9102">
        <ele>373.3</ele>
        <time>2025-09-13T10:39:30Z</time>
      </trkpt>
      <trkpt lat="47.50869" lon="6.91015">
        <ele>373.6</ele>
        <time>2025-09-13T10:39:31Z</time>
      </trkpt>
      <trkpt lat="47.50869" lon="6.91009">
        <ele>373.8</ele>
        <time>2025-09-13T10:39:32Z</time>
      </trkpt>
      <trkpt lat="47.50868" lon="6.91003">
        <ele>374.1</ele>
        <time>2025-09-13T10:39:33Z</time>
      </trkpt>
      <trkpt lat="47.50867" lon="6.90996">
        <ele>374.4</ele>
        <time>2025-09-13T10:39:34Z</time>
      </trkpt>
      <trkpt lat="47.50867" lon="6.9099">
        <ele>374.7</ele>
        <time>2025-09-13T10:39:35Z</time>
      </trkpt>
      <trkpt lat="47.50868" lon="6.90984">
        <ele>375</ele>
        <time>2025-09-13T10:39:37Z</time>
      </trkpt>
      <trkpt lat="47.50868" lon="6.90976">
        <ele>375.3</ele>
        <time>2025-09-13T10:39:38Z</time>
      </trkpt>
      <trkpt lat="47.50863" lon="6.90973">
        <ele>375.7</ele>
        <time>2025-09-13T10:39:39Z</time>
      </trkpt>
      <trkpt lat="47.50863" lon="6.90967">
        <ele>375.9</ele>
        <time>2025-09-13T10:39:40Z</time>
      </trkpt>
      <trkpt lat="47.50862" lon="6.90962">
        <ele>376.2</ele>
        <time>2025-09-13T10:39:41Z</time>
      </trkpt>
      <trkpt lat="47.50862" lon="6.90955">
        <ele>376.5</ele>
        <time>2025-09-13T10:39:42Z</time>
      </trkpt>
      <trkpt lat="47.50859" lon="6.90947">
        <ele>376.8</ele>
        <time>2025-09-13T10:39:43Z</time>
      </trkpt>
      <trkpt lat="47.50859" lon="6.9094">
        <ele>377.1</ele>
        <time>2025-09-13T10:39:44Z</time>
      </trkpt>
      <trkpt lat="47.50861" lon="6.90934">
        <ele>377.4</ele>
        <time>2025-09-13T10:39:45Z</time>
      </trkpt>
      <trkpt lat="47.50861" lon="6.90929">
        <ele>377.6</ele>
        <time>2025-09-13T10:39:46Z</time>
      </trkpt>
      <trkpt lat="47.5086" lon="6.90923">
        <ele>377.9</ele>
        <time>2025-09-13T10:39:47Z</time>
      </trkpt>
      <trkpt lat="47.5086" lon="6.90917">
        <ele>378.2</ele>
        <time>2025-09-13T10:39:48Z</time>
      </trkpt>
      <trkpt lat="47.5086" lon="6.90911">
        <ele>378.5</ele>
        <time>2025-09-13T10:39:49Z</time>
      </trkpt>
      <trkpt lat="47.5086" lon="6.90905">
        <ele>378.7</ele>
        <time>2025-09-13T10:39:50Z</time>
      </trkpt>
      <trkpt lat="47.5086" lon="6.90903">
        <ele>378.9</ele>
        <time>2025-09-13T10:39:51Z</time>
      </trkpt>
      <trkpt lat="47.50859" lon="6.90897">
        <ele>379.1</ele>
        <time>2025-09-13T10:39:52Z</time>
      </trkpt>
      <trkpt lat="47.50858" lon="6.90892">
        <ele>379.4</ele>
        <time>2025-09-13T10:39:53Z</time>
      </trkpt>
      <trkpt lat="47.50857" lon="6.90888">
        <ele>379.6</ele>
        <time>2025-09-13T10:39:54Z</time>
      </trkpt>
      <trkpt lat="47.50856" lon="6.90881">
        <ele>379.9</ele>
        <time>2025-09-13T10:39:55Z</time>
      </trkpt>
      <trkpt lat="47.50855" lon="6.9088">
        <ele>380.1</ele>
        <time>2025-09-13T10:39:56Z</time>
      </trkpt>
      <trkpt lat="47.50854" lon="6.90877">
        <ele>380.2</ele>
        <time>2025-09-13T10:39:57Z</time>
      </trkpt>
      <trkpt lat="47.50856" lon="6.90869">
        <ele>380.9</ele>
        <time>2025-09-13T10:39:58Z</time>
      </trkpt>
      <trkpt lat="47.50857" lon="6.9086">
        <ele>381.4</ele>
        <time>2025-09-13T10:39:59Z</time>
      </trkpt>
      <trkpt lat="47.50857" lon="6.90856">
        <ele>381.8</ele>
        <time>2025-09-13T10:40:00Z</time>
      </trkpt>
      <trkpt lat="47.50858" lon="6.90851">
        <ele>382.1</ele>
        <time>2025-09-13T10:40:01Z</time>
      </trkpt>
      <trkpt lat="47.50858" lon="6.90849">
        <ele>382.2</ele>
        <time>2025-09-13T10:40:02Z</time>
      </trkpt>
      <trkpt lat="47.50857" lon="6.90844">
        <ele>382.6</ele>
        <time>2025-09-13T10:40:03Z</time>
      </trkpt>
      <trkpt lat="47.50856" lon="6.90841">
        <ele>382.9</ele>
        <time>2025-09-13T10:40:04Z</time>
      </trkpt>
      <trkpt lat="47.50857" lon="6.90836">
        <ele>383.3</ele>
        <time>2025-09-13T10:40:05Z</time>
      </trkpt>
      <trkpt lat="47.50857" lon="6.90834">
        <ele>383.4</ele>
        <time>2025-09-13T10:40:06Z</time>
      </trkpt>
      <trkpt lat="47.50854" lon="6.9083">
        <ele>383.9</ele>
        <time>2025-09-13T10:40:07Z</time>
      </trkpt>
      <trkpt lat="47.50858" lon="6.90825">
        <ele>384.5</ele>
        <time>2025-09-13T10:40:08Z</time>
      </trkpt>
      <trkpt lat="47.50859" lon="6.90818">
        <ele>385.1</ele>
        <time>2025-09-13T10:40:09Z</time>
      </trkpt>
      <trkpt lat="47.50858" lon="6.90812">
        <ele>385.6</ele>
        <time>2025-09-13T10:40:10Z</time>
      </trkpt>
      <trkpt lat="47.50857" lon="6.90807">
        <ele>385.9</ele>
        <time>2025-09-13T10:40:11Z</time>
      </trkpt>
      <trkpt lat="47.50858" lon="6.90799">
        <ele>386.4</ele>
        <time>2025-09-13T10:40:12Z</time>
      </trkpt>
      <trkpt lat="47.5086" lon="6.90789">
        <ele>387</ele>
        <time>2025-09-13T10:40:13Z</time>
      </trkpt>
      <trkpt lat="47.50862" lon="6.90784">
        <ele>387.3</ele>
        <time>2025-09-13T10:40:14Z</time>
      </trkpt>
      <trkpt lat="47.50863" lon="6.90779">
        <ele>387.6</ele>
        <time>2025-09-13T10:40:15Z</time>
      </trkpt>
      <trkpt lat="47.50864" lon="6.90774">
        <ele>387.9</ele>
        <time>2025-09-13T10:40:16Z</time>
      </trkpt>
      <trkpt lat="47.50864" lon="6.9077">
        <ele>388.2</ele>
        <time>2025-09-13T10:40:17Z</time>
      </trkpt>
      <trkpt lat="47.50865" lon="6.90765">
        <ele>388.4</ele>
        <time>2025-09-13T10:40:18Z</time>
      </trkpt>
      <trkpt lat="47.50867" lon="6.9076">
        <ele>388.7</ele>
        <time>2025-09-13T10:40:19Z</time>
      </trkpt>
      <trkpt lat="47.50869" lon="6.90754">
        <ele>389.1</ele>
        <time>2025-09-13T10:40:20Z</time>
      </trkpt>
      <trkpt lat="47.50871" lon="6.90748">
        <ele>389.4</ele>
        <time>2025-09-13T10:40:21Z</time>
      </trkpt>
      <trkpt lat="47.50873" lon="6.90743">
        <ele>389.6</ele>
        <time>2025-09-13T10:40:22Z</time>
      </trkpt>
      <trkpt lat="47.50875" lon="6.90737">
        <ele>389.9</ele>
        <time>2025-09-13T10:40:23Z</time>
      </trkpt>
      <trkpt lat="47.50876" lon="6.90731">
        <ele>390.2</ele>
        <time>2025-09-13T10:40:24Z</time>
      </trkpt>
      <trkpt lat="47.50876" lon="6.90725">
        <ele>390.4</ele>
        <time>2025-09-13T10:40:25Z</time>
      </trkpt>
      <trkpt lat="47.50876" lon="6.90722">
        <ele>390.5</ele>
        <time>2025-09-13T10:40:26Z</time>
      </trkpt>
      <trkpt lat="47.50876" lon="6.90716">
        <ele>390.7</ele>
        <time>2025-09-13T10:40:27Z</time>
      </trkpt>
      <trkpt lat="47.50875" lon="6.90712">
        <ele>390.1</ele>
        <time>2025-09-13T10:40:28Z</time>
      </trkpt>
      <trkpt lat="47.50875" lon="6.90706">
        <ele>389.4</ele>
        <time>2025-09-13T10:40:29Z</time>
      </trkpt>
      <trkpt lat="47.50876" lon="6.90701">
        <ele>389.6</ele>
        <time>2025-09-13T10:40:30Z</time>
      </trkpt>
      <trkpt lat="47.50877" lon="6.90695">
        <ele>390</ele>
        <time>2025-09-13T10:40:31Z</time>
      </trkpt>
      <trkpt lat="47.5088" lon="6.9069">
        <ele>390.3</ele>
        <time>2025-09-13T10:40:32Z</time>
      </trkpt>
      <trkpt lat="47.50881" lon="6.90684">
        <ele>390.6</ele>
        <time>2025-09-13T10:40:33Z</time>
      </trkpt>
      <trkpt lat="47.50884" lon="6.90676">
        <ele>391</ele>
        <time>2025-09-13T10:40:34Z</time>
      </trkpt>
      <trkpt lat="47.50884" lon="6.90668">
        <ele>391.4</ele>
        <time>2025-09-13T10:40:35Z</time>
      </trkpt>
      <trkpt lat="47.50885" lon="6.90662">
        <ele>391.7</ele>
        <time>2025-09-13T10:40:36Z</time>
      </trkpt>
      <trkpt lat="47.50887" lon="6.90654">
        <ele>392.1</ele>
        <time>2025-09-13T10:40:37Z</time>
      </trkpt>
      <trkpt lat="47.50888" lon="6.90649">
        <ele>392.4</ele>
        <time>2025-09-13T10:40:38Z</time>
      </trkpt>
      <trkpt lat="47.50891" lon="6.90642">
        <ele>392.5</ele>
        <time>2025-09-13T10:40:39Z</time>
      </trkpt>
      <trkpt lat="47.50891" lon="6.90634">
        <ele>392.7</ele>
        <time>2025-09-13T10:40:40Z</time>
      </trkpt>
      <trkpt lat="47.50891" lon="6.90627">
        <ele>392.8</ele>
        <time>2025-09-13T10:40:41Z</time>
      </trkpt>
      <trkpt lat="47.50891" lon="6.90622">
        <ele>392.9</ele>
        <time>2025-09-13T10:40:42Z</time>
      </trkpt>
      <trkpt lat="47.50895" lon="6.90616">
        <ele>393</ele>
        <time>2025-09-13T10:40:43Z</time>
      </trkpt>
      <trkpt lat="47.50895" lon="6.90607">
        <ele>393.1</ele>
        <time>2025-09-13T10:40:44Z</time>
      </trkpt>
      <trkpt lat="47.50897" lon="6.906">
        <ele>393.2</ele>
        <time>2025-09-13T10:40:45Z</time>
      </trkpt>
      <trkpt lat="47.50899" lon="6.90592">
        <ele>393.3</ele>
        <time>2025-09-13T10:40:46Z</time>
      </trkpt>
      <trkpt lat="47.50901" lon="6.90586">
        <ele>393.3</ele>
        <time>2025-09-13T10:40:47Z</time>
      </trkpt>
      <trkpt lat="47.50901" lon="6.90576">
        <ele>393.4</ele>
        <time>2025-09-13T10:40:48Z</time>
      </trkpt>
      <trkpt lat="47.509" lon="6.90567">
        <ele>393.4</ele>
        <time>2025-09-13T10:40:49Z</time>
      </trkpt>
      <trkpt lat="47.509" lon="6.90559">
        <ele>393.4</ele>
        <time>2025-09-13T10:40:50Z</time>
      </trkpt>
      <trkpt lat="47.509" lon="6.9055">
        <ele>393.5</ele>
        <time>2025-09-13T10:40:51Z</time>
      </trkpt>
      <trkpt lat="47.509" lon="6.9054">
        <ele>393.5</ele>
        <time>2025-09-13T10:40:52Z</time>
      </trkpt>
      <trkpt lat="47.50899" lon="6.90533">
        <ele>393.5</ele>
        <time>2025-09-13T10:40:53Z</time>
      </trkpt>
      <trkpt lat="47.50899" lon="6.90524">
        <ele>393.6</ele>
        <time>2025-09-13T10:40:54Z</time>
      </trkpt>
      <trkpt lat="47.50898" lon="6.90515">
        <ele>393.6</ele>
        <time>2025-09-13T10:40:55Z</time>
      </trkpt>
      <trkpt lat="47.50898" lon="6.90507">
        <ele>393.6</ele>
        <time>2025-09-13T10:40:56Z</time>
      </trkpt>
      <trkpt lat="47.50896" lon="6.90499">
        <ele>393.5</ele>
        <time>2025-09-13T10:40:57Z</time>
      </trkpt>
      <trkpt lat="47.50896" lon="6.90489">
        <ele>393.5</ele>
        <time>2025-09-13T10:40:58Z</time>
      </trkpt>
      <trkpt lat="47.50896" lon="6.90482">
        <ele>393.5</ele>
        <time>2025-09-13T10:40:59Z</time>
      </trkpt>
      <trkpt lat="47.50898" lon="6.90468">
        <ele>393.5</ele>
        <time>2025-09-13T10:41:00Z</time>
      </trkpt>
      <trkpt lat="47.50897" lon="6.90459">
        <ele>393.5</ele>
        <time>2025-09-13T10:41:01Z</time>
      </trkpt>
      <trkpt lat="47.50896" lon="6.90449">
        <ele>393.5</ele>
        <time>2025-09-13T10:41:02Z</time>
      </trkpt>
      <trkpt lat="47.50895" lon="6.90441">
        <ele>393.5</ele>
        <time>2025-09-13T10:41:03Z</time>
      </trkpt>
      <trkpt lat="47.50894" lon="6.90433">
        <ele>393.5</ele>
        <time>2025-09-13T10:41:04Z</time>
      </trkpt>
      <trkpt lat="47.50892" lon="6.90423">
        <ele>393.5</ele>
        <time>2025-09-13T10:41:05Z</time>
      </trkpt>
      <trkpt lat="47.50891" lon="6.90413">
        <ele>393.5</ele>
        <time>2025-09-13T10:41:06Z</time>
      </trkpt>
      <trkpt lat="47.50891" lon="6.90404">
        <ele>393.5</ele>
        <time>2025-09-13T10:41:07Z</time>
      </trkpt>
      <trkpt lat="47.50891" lon="6.90395">
        <ele>393.6</ele>
        <time>2025-09-13T10:41:08Z</time>
      </trkpt>
      <trkpt lat="47.5089" lon="6.90387">
        <ele>393.6</ele>
        <time>2025-09-13T10:41:09Z</time>
      </trkpt>
      <trkpt lat="47.5089" lon="6.9038">
        <ele>393.6</ele>
        <time>2025-09-13T10:41:10Z</time>
      </trkpt>
      <trkpt lat="47.50888" lon="6.90367">
        <ele>393.6</ele>
        <time>2025-09-13T10:41:11Z</time>
      </trkpt>
      <trkpt lat="47.5089" lon="6.90355">
        <ele>393.7</ele>
        <time>2025-09-13T10:41:12Z</time>
      </trkpt>
      <trkpt lat="47.50888" lon="6.90344">
        <ele>393.7</ele>
        <time>2025-09-13T10:41:13Z</time>
      </trkpt>
      <trkpt lat="47.50888" lon="6.90334">
        <ele>393.8</ele>
        <time>2025-09-13T10:41:14Z</time>
      </trkpt>
      <trkpt lat="47.5089" lon="6.90323">
        <ele>393.9</ele>
        <time>2025-09-13T10:41:15Z</time>
      </trkpt>
      <trkpt lat="47.5089" lon="6.90313">
        <ele>394</ele>
        <time>2025-09-13T10:41:16Z</time>
      </trkpt>
      <trkpt lat="47.50889" lon="6.90302">
        <ele>394.2</ele>
        <time>2025-09-13T10:41:17Z</time>
      </trkpt>
      <trkpt lat="47.5089" lon="6.90292">
        <ele>394.3</ele>
        <time>2025-09-13T10:41:18Z</time>
      </trkpt>
      <trkpt lat="47.50887" lon="6.90282">
        <ele>394.6</ele>
        <time>2025-09-13T10:41:19Z</time>
      </trkpt>
      <trkpt lat="47.50885" lon="6.90274">
        <ele>394.8</ele>
        <time>2025-09-13T10:41:20Z</time>
      </trkpt>
      <trkpt lat="47.50884" lon="6.90265">
        <ele>395</ele>
        <time>2025-09-13T10:41:21Z</time>
      </trkpt>
      <trkpt lat="47.50885" lon="6.90256">
        <ele>395.3</ele>
        <time>2025-09-13T10:41:22Z</time>
      </trkpt>
      <trkpt lat="47.50885" lon="6.90247">
        <ele>395.6</ele>
        <time>2025-09-13T10:41:23Z</time>
      </trkpt>
      <trkpt lat="47.50885" lon="6.90237">
        <ele>395.9</ele>
        <time>2025-09-13T10:41:24Z</time>
      </trkpt>
      <trkpt lat="47.50885" lon="6.9023">
        <ele>396.1</ele>
        <time>2025-09-13T10:41:25Z</time>
      </trkpt>
      <trkpt lat="47.50886" lon="6.90222">
        <ele>396.4</ele>
        <time>2025-09-13T10:41:26Z</time>
      </trkpt>
      <trkpt lat="47.50885" lon="6.90216">
        <ele>396.6</ele>
        <time>2025-09-13T10:41:27Z</time>
      </trkpt>
      <trkpt lat="47.50884" lon="6.90208">
        <ele>396.8</ele>
        <time>2025-09-13T10:41:28Z</time>
      </trkpt>
      <trkpt lat="47.50885" lon="6.90198">
        <ele>397.1</ele>
        <time>2025-09-13T10:41:29Z</time>
      </trkpt>
      <trkpt lat="47.50884" lon="6.90189">
        <ele>397.4</ele>
        <time>2025-09-13T10:41:30Z</time>
      </trkpt>
      <trkpt lat="47.50879" lon="6.90196">
        <ele>397.7</ele>
        <time>2025-09-13T10:41:31Z</time>
      </trkpt>
      <trkpt lat="47.50878" lon="6.90189">
        <ele>397.8</ele>
        <time>2025-09-13T10:41:32Z</time>
      </trkpt>
      <trkpt lat="47.50879" lon="6.90183">
        <ele>398</ele>
        <time>2025-09-13T10:41:33Z</time>
      </trkpt>
      <trkpt lat="47.50879" lon="6.9018">
        <ele>398.1</ele>
        <time>2025-09-13T10:41:34Z</time>
      </trkpt>
      <trkpt lat="47.50877" lon="6.90168">
        <ele>398.4</ele>
        <time>2025-09-13T10:41:35Z</time>
      </trkpt>
      <trkpt lat="47.50876" lon="6.90165">
        <ele>398.5</ele>
        <time>2025-09-13T10:41:36Z</time>
      </trkpt>
      <trkpt lat="47.50875" lon="6.90161">
        <ele>398.6</ele>
        <time>2025-09-13T10:41:37Z</time>
      </trkpt>
      <trkpt lat="47.50875" lon="6.90157">
        <ele>398.7</ele>
        <time>2025-09-13T10:41:38Z</time>
      </trkpt>
      <trkpt lat="47.50875" lon="6.90155">
        <ele>398.7</ele>
        <time>2025-09-13T10:41:39Z</time>
      </trkpt>
      <trkpt lat="47.50874" lon="6.90146">
        <ele>399</ele>
        <time>2025-09-13T10:41:40Z</time>
      </trkpt>
      <trkpt lat="47.50872" lon="6.90147">
        <ele>399</ele>
        <time>2025-09-13T10:41:41Z</time>
      </trkpt>
      <trkpt lat="47.5087" lon="6.90146">
        <ele>399.1</ele>
        <time>2025-09-13T10:41:42Z</time>
      </trkpt>
      <trkpt lat="47.50864" lon="6.90139">
        <ele>399.3</ele>
        <time>2025-09-13T10:41:43Z</time>
      </trkpt>
      <trkpt lat="47.50867" lon="6.90137">
        <ele>399.4</ele>
        <time>2025-09-13T10:41:44Z</time>
      </trkpt>
      <trkpt lat="47.50863" lon="6.90131">
        <ele>399.6</ele>
        <time>2025-09-13T10:41:45Z</time>
      </trkpt>
      <trkpt lat="47.50862" lon="6.90128">
        <ele>399.7</ele>
        <time>2025-09-13T10:41:46Z</time>
      </trkpt>
      <trkpt lat="47.50862" lon="6.90125">
        <ele>399.8</ele>
        <time>2025-09-13T10:41:47Z</time>
      </trkpt>
      <trkpt lat="47.5086" lon="6.90115">
        <ele>400</ele>
        <time>2025-09-13T10:41:48Z</time>
      </trkpt>
      <trkpt lat="47.50857" lon="6.90117">
        <ele>400.1</ele>
        <time>2025-09-13T10:41:49Z</time>
      </trkpt>
      <trkpt lat="47.50856" lon="6.90112">
        <ele>400.2</ele>
        <time>2025-09-13T10:41:50Z</time>
      </trkpt>
      <trkpt lat="47.50858" lon="6.90108">
        <ele>400.3</ele>
        <time>2025-09-13T10:41:51Z</time>
      </trkpt>
      <trkpt lat="47.50859" lon="6.90105">
        <ele>400.3</ele>
        <time>2025-09-13T10:41:52Z</time>
      </trkpt>
      <trkpt lat="47.50857" lon="6.90096">
        <ele>400.5</ele>
        <time>2025-09-13T10:41:53Z</time>
      </trkpt>
      <trkpt lat="47.50858" lon="6.90092">
        <ele>400.6</ele>
        <time>2025-09-13T10:41:54Z</time>
      </trkpt>
      <trkpt lat="47.50859" lon="6.90089">
        <ele>400.6</ele>
        <time>2025-09-13T10:41:55Z</time>
      </trkpt>
      <trkpt lat="47.50857" lon="6.90084">
        <ele>400.7</ele>
        <time>2025-09-13T10:41:56Z</time>
      </trkpt>
      <trkpt lat="47.50856" lon="6.90081">
        <ele>400.8</ele>
        <time>2025-09-13T10:41:57Z</time>
      </trkpt>
      <trkpt lat="47.50855" lon="6.90079">
        <ele>400.8</ele>
        <time>2025-09-13T10:41:58Z</time>
      </trkpt>
      <trkpt lat="47.50872" lon="6.89931">
        <ele>401.6</ele>
        <time>2025-09-13T10:41:59Z</time>
      </trkpt>
      <trkpt lat="47.5087" lon="6.89915">
        <ele>401.5</ele>
        <time>2025-09-13T10:42:00Z</time>
      </trkpt>
      <trkpt lat="47.50869" lon="6.89909">
        <ele>401.5</ele>
        <time>2025-09-13T10:42:01Z</time>
      </trkpt>
      <trkpt lat="47.50868" lon="6.89903">
        <ele>401.5</ele>
        <time>2025-09-13T10:42:02Z</time>
      </trkpt>
      <trkpt lat="47.50868" lon="6.89893">
        <ele>401.5</ele>
        <time>2025-09-13T10:42:03Z</time>
      </trkpt>
      <trkpt lat="47.50868" lon="6.89882">
        <ele>401.4</ele>
        <time>2025-09-13T10:42:04Z</time>
      </trkpt>
      <trkpt lat="47.50867" lon="6.89872">
        <ele>401.4</ele>
        <time>2025-09-13T10:42:05Z</time>
      </trkpt>
      <trkpt lat="47.50867" lon="6.89862">
        <ele>401.3</ele>
        <time>2025-09-13T10:42:06Z</time>
      </trkpt>
      <trkpt lat="47.50866" lon="6.89852">
        <ele>401.3</ele>
        <time>2025-09-13T10:42:07Z</time>
      </trkpt>
      <trkpt lat="47.50866" lon="6.89841">
        <ele>401.2</ele>
        <time>2025-09-13T10:42:08Z</time>
      </trkpt>
      <trkpt lat="47.50866" lon="6.8983">
        <ele>401.2</ele>
        <time>2025-09-13T10:42:09Z</time>
      </trkpt>
      <trkpt lat="47.50864" lon="6.8982">
        <ele>401.1</ele>
        <time>2025-09-13T10:42:10Z</time>
      </trkpt>
      <trkpt lat="47.50864" lon="6.89809">
        <ele>401.1</ele>
        <time>2025-09-13T10:42:11Z</time>
      </trkpt>
      <trkpt lat="47.50865" lon="6.89799">
        <ele>401</ele>
        <time>2025-09-13T10:42:12Z</time>
      </trkpt>
      <trkpt lat="47.50853" lon="6.89805">
        <ele>401</ele>
        <time>2025-09-13T10:42:13Z</time>
      </trkpt>
      <trkpt lat="47.50857" lon="6.8979">
        <ele>400.9</ele>
        <time>2025-09-13T10:42:14Z</time>
      </trkpt>
      <trkpt lat="47.50857" lon="6.89775">
        <ele>400.9</ele>
        <time>2025-09-13T10:42:15Z</time>
      </trkpt>
      <trkpt lat="47.50856" lon="6.89764">
        <ele>400.8</ele>
        <time>2025-09-13T10:42:16Z</time>
      </trkpt>
      <trkpt lat="47.50856" lon="6.89751">
        <ele>400.8</ele>
        <time>2025-09-13T10:42:17Z</time>
      </trkpt>
      <trkpt lat="47.50855" lon="6.89739">
        <ele>400.7</ele>
        <time>2025-09-13T10:42:18Z</time>
      </trkpt>
      <trkpt lat="47.50854" lon="6.89727">
        <ele>400.6</ele>
        <time>2025-09-13T10:42:19Z</time>
      </trkpt>
      <trkpt lat="47.50854" lon="6.89716">
        <ele>400.5</ele>
        <time>2025-09-13T10:42:20Z</time>
      </trkpt>
      <trkpt lat="47.50853" lon="6.89705">
        <ele>400.4</ele>
        <time>2025-09-13T10:42:21Z</time>
      </trkpt>
      <trkpt lat="47.50855" lon="6.89701">
        <ele>400.3</ele>
        <time>2025-09-13T10:42:22Z</time>
      </trkpt>
      <trkpt lat="47.50856" lon="6.89685">
        <ele>400.1</ele>
        <time>2025-09-13T10:42:23Z</time>
      </trkpt>
      <trkpt lat="47.50855" lon="6.8967">
        <ele>399.9</ele>
        <time>2025-09-13T10:42:24Z</time>
      </trkpt>
      <trkpt lat="47.50853" lon="6.89657">
        <ele>399.6</ele>
        <time>2025-09-13T10:42:25Z</time>
      </trkpt>
      <trkpt lat="47.50852" lon="6.89645">
        <ele>399.3</ele>
        <time>2025-09-13T10:42:26Z</time>
      </trkpt>
      <trkpt lat="47.5085" lon="6.89633">
        <ele>399</ele>
        <time>2025-09-13T10:42:27Z</time>
      </trkpt>
      <trkpt lat="47.50849" lon="6.8962">
        <ele>398.8</ele>
        <time>2025-09-13T10:42:28Z</time>
      </trkpt>
      <trkpt lat="47.50848" lon="6.89609">
        <ele>398.5</ele>
        <time>2025-09-13T10:42:29Z</time>
      </trkpt>
      <trkpt lat="47.50848" lon="6.89596">
        <ele>398.3</ele>
        <time>2025-09-13T10:42:30Z</time>
      </trkpt>
      <trkpt lat="47.50847" lon="6.89583">
        <ele>398</ele>
        <time>2025-09-13T10:42:31Z</time>
      </trkpt>
      <trkpt lat="47.50845" lon="6.89569">
        <ele>397.8</ele>
        <time>2025-09-13T10:42:32Z</time>
      </trkpt>
      <trkpt lat="47.50845" lon="6.89559">
        <ele>397.6</ele>
        <time>2025-09-13T10:42:33Z</time>
      </trkpt>
      <trkpt lat="47.50846" lon="6.89547">
        <ele>397.3</ele>
        <time>2025-09-13T10:42:34Z</time>
      </trkpt>
      <trkpt lat="47.50847" lon="6.89533">
        <ele>397.1</ele>
        <time>2025-09-13T10:42:35Z</time>
      </trkpt>
      <trkpt lat="47.50846" lon="6.89519">
        <ele>396.8</ele>
        <time>2025-09-13T10:42:36Z</time>
      </trkpt>
      <trkpt lat="47.50847" lon="6.89507">
        <ele>396.6</ele>
        <time>2025-09-13T10:42:37Z</time>
      </trkpt>
      <trkpt lat="47.50847" lon="6.89493">
        <ele>396.3</ele>
        <time>2025-09-13T10:42:38Z</time>
      </trkpt>
      <trkpt lat="47.50844" lon="6.89481">
        <ele>396</ele>
        <time>2025-09-13T10:42:39Z</time>
      </trkpt>
      <trkpt lat="47.50843" lon="6.89468">
        <ele>395.7</ele>
        <time>2025-09-13T10:42:40Z</time>
      </trkpt>
      <trkpt lat="47.50844" lon="6.89455">
        <ele>395.4</ele>
        <time>2025-09-13T10:42:41Z</time>
      </trkpt>
      <trkpt lat="47.50843" lon="6.89443">
        <ele>395.1</ele>
        <time>2025-09-13T10:42:42Z</time>
      </trkpt>
      <trkpt lat="47.50842" lon="6.8943">
        <ele>394.8</ele>
        <time>2025-09-13T10:42:43Z</time>
      </trkpt>
      <trkpt lat="47.50841" lon="6.89416">
        <ele>394.4</ele>
        <time>2025-09-13T10:42:44Z</time>
      </trkpt>
      <trkpt lat="47.50843" lon="6.89401">
        <ele>394</ele>
        <time>2025-09-13T10:42:45Z</time>
      </trkpt>
      <trkpt lat="47.50843" lon="6.89387">
        <ele>393.7</ele>
        <time>2025-09-13T10:42:46Z</time>
      </trkpt>
      <trkpt lat="47.5084" lon="6.89373">
        <ele>393.4</ele>
        <time>2025-09-13T10:42:47Z</time>
      </trkpt>
      <trkpt lat="47.50838" lon="6.89359">
        <ele>393.1</ele>
        <time>2025-09-13T10:42:48Z</time>
      </trkpt>
      <trkpt lat="47.50838" lon="6.89345">
        <ele>392.8</ele>
        <time>2025-09-13T10:42:49Z</time>
      </trkpt>
      <trkpt lat="47.50835" lon="6.89333">
        <ele>392.6</ele>
        <time>2025-09-13T10:42:50Z</time>
      </trkpt>
      <trkpt lat="47.50835" lon="6.89318">
        <ele>392.3</ele>
        <time>2025-09-13T10:42:51Z</time>
      </trkpt>
      <trkpt lat="47.50834" lon="6.89303">
        <ele>392</ele>
        <time>2025-09-13T10:42:52Z</time>
      </trkpt>
      <trkpt lat="47.50833" lon="6.89289">
        <ele>391.6</ele>
        <time>2025-09-13T10:42:53Z</time>
      </trkpt>
      <trkpt lat="47.50833" lon="6.89274">
        <ele>391.3</ele>
        <time>2025-09-13T10:42:54Z</time>
      </trkpt>
      <trkpt lat="47.50832" lon="6.8926">
        <ele>391</ele>
        <time>2025-09-13T10:42:55Z</time>
      </trkpt>
      <trkpt lat="47.50831" lon="6.89244">
        <ele>390.6</ele>
        <time>2025-09-13T10:42:56Z</time>
      </trkpt>
      <trkpt lat="47.50831" lon="6.89228">
        <ele>390.3</ele>
        <time>2025-09-13T10:42:57Z</time>
      </trkpt>
      <trkpt lat="47.5083" lon="6.89213">
        <ele>390</ele>
        <time>2025-09-13T10:42:58Z</time>
      </trkpt>
      <trkpt lat="47.50831" lon="6.89196">
        <ele>389.6</ele>
        <time>2025-09-13T10:42:59Z</time>
      </trkpt>
      <trkpt lat="47.50829" lon="6.89181">
        <ele>389.3</ele>
        <time>2025-09-13T10:43:00Z</time>
      </trkpt>
      <trkpt lat="47.5083" lon="6.89167">
        <ele>389</ele>
        <time>2025-09-13T10:43:01Z</time>
      </trkpt>
      <trkpt lat="47.50827" lon="6.89152">
        <ele>388.7</ele>
        <time>2025-09-13T10:43:02Z</time>
      </trkpt>
      <trkpt lat="47.50826" lon="6.8914">
        <ele>388.4</ele>
        <time>2025-09-13T10:43:03Z</time>
      </trkpt>
      <trkpt lat="47.50823" lon="6.89128">
        <ele>388.1</ele>
        <time>2025-09-13T10:43:04Z</time>
      </trkpt>
      <trkpt lat="47.50823" lon="6.89113">
        <ele>387.8</ele>
        <time>2025-09-13T10:43:05Z</time>
      </trkpt>
      <trkpt lat="47.50823" lon="6.89098">
        <ele>387.4</ele>
        <time>2025-09-13T10:43:06Z</time>
      </trkpt>
      <trkpt lat="47.50824" lon="6.89083">
        <ele>387.1</ele>
        <time>2025-09-13T10:43:07Z</time>
      </trkpt>
      <trkpt lat="47.50827" lon="6.89068">
        <ele>386.7</ele>
        <time>2025-09-13T10:43:08Z</time>
      </trkpt>
      <trkpt lat="47.50827" lon="6.89052">
        <ele>386.3</ele>
        <time>2025-09-13T10:43:09Z</time>
      </trkpt>
      <trkpt lat="47.50827" lon="6.89037">
        <ele>385.9</ele>
        <time>2025-09-13T10:43:10Z</time>
      </trkpt>
      <trkpt lat="47.50829" lon="6.89023">
        <ele>385.5</ele>
        <time>2025-09-13T10:43:11Z</time>
      </trkpt>
      <trkpt lat="47.5083" lon="6.89007">
        <ele>385.1</ele>
        <time>2025-09-13T10:43:12Z</time>
      </trkpt>
      <trkpt lat="47.50832" lon="6.88992">
        <ele>384.8</ele>
        <time>2025-09-13T10:43:13Z</time>
      </trkpt>
      <trkpt lat="47.50838" lon="6.88976">
        <ele>384.3</ele>
        <time>2025-09-13T10:43:14Z</time>
      </trkpt>
      <trkpt lat="47.50841" lon="6.88961">
        <ele>383.9</ele>
        <time>2025-09-13T10:43:15Z</time>
      </trkpt>
      <trkpt lat="47.50845" lon="6.88945">
        <ele>383.6</ele>
        <time>2025-09-13T10:43:16Z</time>
      </trkpt>
      <trkpt lat="47.50848" lon="6.8893">
        <ele>383.3</ele>
        <time>2025-09-13T10:43:17Z</time>
      </trkpt>
      <trkpt lat="47.50851" lon="6.88916">
        <ele>383</ele>
        <time>2025-09-13T10:43:18Z</time>
      </trkpt>
      <trkpt lat="47.50854" lon="6.88901">
        <ele>382.7</ele>
        <time>2025-09-13T10:43:19Z</time>
      </trkpt>
      <trkpt lat="47.50857" lon="6.88887">
        <ele>382.4</ele>
        <time>2025-09-13T10:43:20Z</time>
      </trkpt>
      <trkpt lat="47.50861" lon="6.88872">
        <ele>382.2</ele>
        <time>2025-09-13T10:43:21Z</time>
      </trkpt>
      <trkpt lat="47.50864" lon="6.88859">
        <ele>382</ele>
        <time>2025-09-13T10:43:22Z</time>
      </trkpt>
      <trkpt lat="47.50866" lon="6.88846">
        <ele>381.7</ele>
        <time>2025-09-13T10:43:23Z</time>
      </trkpt>
      <trkpt lat="47.50869" lon="6.88831">
        <ele>381.4</ele>
        <time>2025-09-13T10:43:24Z</time>
      </trkpt>
      <trkpt lat="47.50871" lon="6.88817">
        <ele>381.1</ele>
        <time>2025-09-13T10:43:25Z</time>
      </trkpt>
      <trkpt lat="47.50876" lon="6.88802">
        <ele>380.8</ele>
        <time>2025-09-13T10:43:26Z</time>
      </trkpt>
      <trkpt lat="47.50879" lon="6.88788">
        <ele>380.6</ele>
        <time>2025-09-13T10:43:27Z</time>
      </trkpt>
      <trkpt lat="47.50882" lon="6.88773">
        <ele>380.3</ele>
        <time>2025-09-13T10:43:28Z</time>
      </trkpt>
      <trkpt lat="47.50886" lon="6.8876">
        <ele>380.1</ele>
        <time>2025-09-13T10:43:29Z</time>
      </trkpt>
      <trkpt lat="47.50891" lon="6.88746">
        <ele>379.9</ele>
        <time>2025-09-13T10:43:30Z</time>
      </trkpt>
      <trkpt lat="47.50892" lon="6.88731">
        <ele>379.6</ele>
        <time>2025-09-13T10:43:31Z</time>
      </trkpt>
      <trkpt lat="47.50896" lon="6.88717">
        <ele>379.4</ele>
        <time>2025-09-13T10:43:32Z</time>
      </trkpt>
      <trkpt lat="47.50898" lon="6.88703">
        <ele>379.2</ele>
        <time>2025-09-13T10:43:33Z</time>
      </trkpt>
      <trkpt lat="47.509" lon="6.8869">
        <ele>379</ele>
        <time>2025-09-13T10:43:34Z</time>
      </trkpt>
      <trkpt lat="47.50903" lon="6.88675">
        <ele>378.8</ele>
        <time>2025-09-13T10:43:35Z</time>
      </trkpt>
      <trkpt lat="47.50906" lon="6.88662">
        <ele>378.7</ele>
        <time>2025-09-13T10:43:36Z</time>
      </trkpt>
      <trkpt lat="47.50909" lon="6.88649">
        <ele>378.4</ele>
        <time>2025-09-13T10:43:37Z</time>
      </trkpt>
      <trkpt lat="47.50912" lon="6.88635">
        <ele>378.2</ele>
        <time>2025-09-13T10:43:38Z</time>
      </trkpt>
      <trkpt lat="47.50915" lon="6.88621">
        <ele>378</ele>
        <time>2025-09-13T10:43:39Z</time>
      </trkpt>
      <trkpt lat="47.50917" lon="6.88607">
        <ele>377.8</ele>
        <time>2025-09-13T10:43:40Z</time>
      </trkpt>
      <trkpt lat="47.50922" lon="6.88594">
        <ele>377.5</ele>
        <time>2025-09-13T10:43:41Z</time>
      </trkpt>
      <trkpt lat="47.50924" lon="6.88581">
        <ele>377.4</ele>
        <time>2025-09-13T10:43:42Z</time>
      </trkpt>
      <trkpt lat="47.50928" lon="6.88568">
        <ele>377.2</ele>
        <time>2025-09-13T10:43:43Z</time>
      </trkpt>
      <trkpt lat="47.50931" lon="6.88555">
        <ele>377</ele>
        <time>2025-09-13T10:43:44Z</time>
      </trkpt>
      <trkpt lat="47.50934" lon="6.88541">
        <ele>376.9</ele>
        <time>2025-09-13T10:43:45Z</time>
      </trkpt>
      <trkpt lat="47.50937" lon="6.88528">
        <ele>376.7</ele>
        <time>2025-09-13T10:43:46Z</time>
      </trkpt>
      <trkpt lat="47.50937" lon="6.88515">
        <ele>376.6</ele>
        <time>2025-09-13T10:43:47Z</time>
      </trkpt>
      <trkpt lat="47.50942" lon="6.88503">
        <ele>376.5</ele>
        <time>2025-09-13T10:43:48Z</time>
      </trkpt>
      <trkpt lat="47.50945" lon="6.88489">
        <ele>376.4</ele>
        <time>2025-09-13T10:43:49Z</time>
      </trkpt>
      <trkpt lat="47.50948" lon="6.88475">
        <ele>376.2</ele>
        <time>2025-09-13T10:43:50Z</time>
      </trkpt>
      <trkpt lat="47.50949" lon="6.88462">
        <ele>376</ele>
        <time>2025-09-13T10:43:51Z</time>
      </trkpt>
      <trkpt lat="47.50952" lon="6.8845">
        <ele>375.9</ele>
        <time>2025-09-13T10:43:52Z</time>
      </trkpt>
      <trkpt lat="47.50955" lon="6.88438">
        <ele>375.7</ele>
        <time>2025-09-13T10:43:53Z</time>
      </trkpt>
      <trkpt lat="47.50959" lon="6.88425">
        <ele>375.5</ele>
        <time>2025-09-13T10:43:54Z</time>
      </trkpt>
      <trkpt lat="47.50964" lon="6.88412">
        <ele>375.3</ele>
        <time>2025-09-13T10:43:55Z</time>
      </trkpt>
      <trkpt lat="47.50967" lon="6.88398">
        <ele>375</ele>
        <time>2025-09-13T10:43:56Z</time>
      </trkpt>
      <trkpt lat="47.5097" lon="6.88386">
        <ele>374.8</ele>
        <time>2025-09-13T10:43:57Z</time>
      </trkpt>
      <trkpt lat="47.50972" lon="6.88372">
        <ele>374.6</ele>
        <time>2025-09-13T10:43:58Z</time>
      </trkpt>
      <trkpt lat="47.50975" lon="6.88359">
        <ele>374.3</ele>
        <time>2025-09-13T10:43:59Z</time>
      </trkpt>
      <trkpt lat="47.50978" lon="6.88345">
        <ele>374.1</ele>
        <time>2025-09-13T10:44:00Z</time>
      </trkpt>
      <trkpt lat="47.50981" lon="6.88332">
        <ele>373.9</ele>
        <time>2025-09-13T10:44:01Z</time>
      </trkpt>
      <trkpt lat="47.50984" lon="6.88319">
        <ele>373.7</ele>
        <time>2025-09-13T10:44:02Z</time>
      </trkpt>
      <trkpt lat="47.50986" lon="6.88304">
        <ele>373.5</ele>
        <time>2025-09-13T10:44:03Z</time>
      </trkpt>
      <trkpt lat="47.50989" lon="6.88291">
        <ele>373.3</ele>
        <time>2025-09-13T10:44:04Z</time>
      </trkpt>
      <trkpt lat="47.50991" lon="6.88277">
        <ele>373.1</ele>
        <time>2025-09-13T10:44:05Z</time>
      </trkpt>
      <trkpt lat="47.50995" lon="6.88264">
        <ele>372.9</ele>
        <time>2025-09-13T10:44:06Z</time>
      </trkpt>
      <trkpt lat="47.50997" lon="6.88252">
        <ele>372.7</ele>
        <time>2025-09-13T10:44:07Z</time>
      </trkpt>
      <trkpt lat="47.51" lon="6.8824">
        <ele>372.5</ele>
        <time>2025-09-13T10:44:08Z</time>
      </trkpt>
      <trkpt lat="47.51002" lon="6.88225">
        <ele>372.3</ele>
        <time>2025-09-13T10:44:09Z</time>
      </trkpt>
      <trkpt lat="47.51007" lon="6.88214">
        <ele>372.2</ele>
        <time>2025-09-13T10:44:10Z</time>
      </trkpt>
      <trkpt lat="47.51009" lon="6.882">
        <ele>372</ele>
        <time>2025-09-13T10:44:11Z</time>
      </trkpt>
      <trkpt lat="47.51012" lon="6.88187">
        <ele>371.9</ele>
        <time>2025-09-13T10:44:12Z</time>
      </trkpt>
      <trkpt lat="47.51014" lon="6.88173">
        <ele>371.8</ele>
        <time>2025-09-13T10:44:13Z</time>
      </trkpt>
      <trkpt lat="47.51018" lon="6.88161">
        <ele>371.6</ele>
        <time>2025-09-13T10:44:14Z</time>
      </trkpt>
      <trkpt lat="47.51019" lon="6.88148">
        <ele>371.5</ele>
        <time>2025-09-13T10:44:15Z</time>
      </trkpt>
      <trkpt lat="47.51021" lon="6.88133">
        <ele>371.3</ele>
        <time>2025-09-13T10:44:16Z</time>
      </trkpt>
      <trkpt lat="47.51022" lon="6.88121">
        <ele>371.1</ele>
        <time>2025-09-13T10:44:17Z</time>
      </trkpt>
      <trkpt lat="47.51022" lon="6.88107">
        <ele>371</ele>
        <time>2025-09-13T10:44:18Z</time>
      </trkpt>
      <trkpt lat="47.51023" lon="6.88094">
        <ele>370.8</ele>
        <time>2025-09-13T10:44:19Z</time>
      </trkpt>
      <trkpt lat="47.51023" lon="6.88081">
        <ele>370.5</ele>
        <time>2025-09-13T10:44:20Z</time>
      </trkpt>
      <trkpt lat="47.51024" lon="6.88068">
        <ele>370.2</ele>
        <time>2025-09-13T10:44:21Z</time>
      </trkpt>
      <trkpt lat="47.51024" lon="6.88051">
        <ele>369.8</ele>
        <time>2025-09-13T10:44:22Z</time>
      </trkpt>
      <trkpt lat="47.51025" lon="6.88039">
        <ele>369.6</ele>
        <time>2025-09-13T10:44:23Z</time>
      </trkpt>
      <trkpt lat="47.51024" lon="6.88025">
        <ele>369.3</ele>
        <time>2025-09-13T10:44:24Z</time>
      </trkpt>
      <trkpt lat="47.51024" lon="6.88011">
        <ele>368.9</ele>
        <time>2025-09-13T10:44:25Z</time>
      </trkpt>
      <trkpt lat="47.51024" lon="6.87995">
        <ele>368.5</ele>
        <time>2025-09-13T10:44:26Z</time>
      </trkpt>
      <trkpt lat="47.51025" lon="6.87981">
        <ele>368.2</ele>
        <time>2025-09-13T10:44:27Z</time>
      </trkpt>
      <trkpt lat="47.51024" lon="6.87966">
        <ele>367.8</ele>
        <time>2025-09-13T10:44:28Z</time>
      </trkpt>
      <trkpt lat="47.51022" lon="6.8795">
        <ele>367.4</ele>
        <time>2025-09-13T10:44:29Z</time>
      </trkpt>
      <trkpt lat="47.51022" lon="6.87936">
        <ele>367.1</ele>
        <time>2025-09-13T10:44:30Z</time>
      </trkpt>
      <trkpt lat="47.51019" lon="6.87922">
        <ele>366.7</ele>
        <time>2025-09-13T10:44:31Z</time>
      </trkpt>
      <trkpt lat="47.51017" lon="6.87908">
        <ele>366.3</ele>
        <time>2025-09-13T10:44:32Z</time>
      </trkpt>
      <trkpt lat="47.51013" lon="6.87893">
        <ele>366</ele>
        <time>2025-09-13T10:44:33Z</time>
      </trkpt>
      <trkpt lat="47.51008" lon="6.8788">
        <ele>365.6</ele>
        <time>2025-09-13T10:44:34Z</time>
      </trkpt>
      <trkpt lat="47.51004" lon="6.87867">
        <ele>365.2</ele>
        <time>2025-09-13T10:44:35Z</time>
      </trkpt>
      <trkpt lat="47.51" lon="6.87852">
        <ele>364.8</ele>
        <time>2025-09-13T10:44:36Z</time>
      </trkpt>
      <trkpt lat="47.50997" lon="6.87838">
        <ele>364.5</ele>
        <time>2025-09-13T10:44:37Z</time>
      </trkpt>
      <trkpt lat="47.50993" lon="6.87824">
        <ele>364.2</ele>
        <time>2025-09-13T10:44:38Z</time>
      </trkpt>
      <trkpt lat="47.5099" lon="6.8781">
        <ele>363.9</ele>
        <time>2025-09-13T10:44:39Z</time>
      </trkpt>
      <trkpt lat="47.50985" lon="6.87796">
        <ele>363.6</ele>
        <time>2025-09-13T10:44:40Z</time>
      </trkpt>
      <trkpt lat="47.50982" lon="6.87781">
        <ele>363.3</ele>
        <time>2025-09-13T10:44:41Z</time>
      </trkpt>
      <trkpt lat="47.50977" lon="6.87768">
        <ele>363</ele>
        <time>2025-09-13T10:44:42Z</time>
      </trkpt>
      <trkpt lat="47.50975" lon="6.87755">
        <ele>362.6</ele>
        <time>2025-09-13T10:44:43Z</time>
      </trkpt>
      <trkpt lat="47.5097" lon="6.87741">
        <ele>362.2</ele>
        <time>2025-09-13T10:44:44Z</time>
      </trkpt>
      <trkpt lat="47.50966" lon="6.87727">
        <ele>361.9</ele>
        <time>2025-09-13T10:44:45Z</time>
      </trkpt>
      <trkpt lat="47.50963" lon="6.87714">
        <ele>361.6</ele>
        <time>2025-09-13T10:44:46Z</time>
      </trkpt>
      <trkpt lat="47.50959" lon="6.87701">
        <ele>361.3</ele>
        <time>2025-09-13T10:44:47Z</time>
      </trkpt>
      <trkpt lat="47.50956" lon="6.87687">
        <ele>361</ele>
        <time>2025-09-13T10:44:48Z</time>
      </trkpt>
      <trkpt lat="47.50951" lon="6.87673">
        <ele>360.6</ele>
        <time>2025-09-13T10:44:49Z</time>
      </trkpt>
      <trkpt lat="47.50947" lon="6.8766">
        <ele>360.3</ele>
        <time>2025-09-13T10:44:50Z</time>
      </trkpt>
      <trkpt lat="47.50943" lon="6.87646">
        <ele>360</ele>
        <time>2025-09-13T10:44:51Z</time>
      </trkpt>
      <trkpt lat="47.50938" lon="6.87633">
        <ele>359.7</ele>
        <time>2025-09-13T10:44:52Z</time>
      </trkpt>
      <trkpt lat="47.50934" lon="6.8762">
        <ele>359.3</ele>
        <time>2025-09-13T10:44:53Z</time>
      </trkpt>
      <trkpt lat="47.5093" lon="6.87607">
        <ele>359</ele>
        <time>2025-09-13T10:44:54Z</time>
      </trkpt>
      <trkpt lat="47.50925" lon="6.87593">
        <ele>358.7</ele>
        <time>2025-09-13T10:44:55Z</time>
      </trkpt>
      <trkpt lat="47.50921" lon="6.87579">
        <ele>358.4</ele>
        <time>2025-09-13T10:44:56Z</time>
      </trkpt>
      <trkpt lat="47.50916" lon="6.87566">
        <ele>358.1</ele>
        <time>2025-09-13T10:44:57Z</time>
      </trkpt>
      <trkpt lat="47.50911" lon="6.87553">
        <ele>357.8</ele>
        <time>2025-09-13T10:44:58Z</time>
      </trkpt>
      <trkpt lat="47.50907" lon="6.8754">
        <ele>357.5</ele>
        <time>2025-09-13T10:44:59Z</time>
      </trkpt>
      <trkpt lat="47.50902" lon="6.87527">
        <ele>357.1</ele>
        <time>2025-09-13T10:45:00Z</time>
      </trkpt>
      <trkpt lat="47.50897" lon="6.87514">
        <ele>356.8</ele>
        <time>2025-09-13T10:45:01Z</time>
      </trkpt>
      <trkpt lat="47.50892" lon="6.87501">
        <ele>356.5</ele>
        <time>2025-09-13T10:45:02Z</time>
      </trkpt>
      <trkpt lat="47.50887" lon="6.87487">
        <ele>356.2</ele>
        <time>2025-09-13T10:45:03Z</time>
      </trkpt>
      <trkpt lat="47.50882" lon="6.87474">
        <ele>355.9</ele>
        <time>2025-09-13T10:45:04Z</time>
      </trkpt>
      <trkpt lat="47.50877" lon="6.87461">
        <ele>355.6</ele>
        <time>2025-09-13T10:45:05Z</time>
      </trkpt>
      <trkpt lat="47.50872" lon="6.87447">
        <ele>355.2</ele>
        <time>2025-09-13T10:45:06Z</time>
      </trkpt>
      <trkpt lat="47.50869" lon="6.87434">
        <ele>354.9</ele>
        <time>2025-09-13T10:45:07Z</time>
      </trkpt>
      <trkpt lat="47.50863" lon="6.87422">
        <ele>354.5</ele>
        <time>2025-09-13T10:45:08Z</time>
      </trkpt>
      <trkpt lat="47.50856" lon="6.87409">
        <ele>354.2</ele>
        <time>2025-09-13T10:45:09Z</time>
      </trkpt>
      <trkpt lat="47.50851" lon="6.87398">
        <ele>353.9</ele>
        <time>2025-09-13T10:45:10Z</time>
      </trkpt>
      <trkpt lat="47.50844" lon="6.87386">
        <ele>353.6</ele>
        <time>2025-09-13T10:45:11Z</time>
      </trkpt>
      <trkpt lat="47.50839" lon="6.87372">
        <ele>353.2</ele>
        <time>2025-09-13T10:45:12Z</time>
      </trkpt>
      <trkpt lat="47.50834" lon="6.87361">
        <ele>352.9</ele>
        <time>2025-09-13T10:45:13Z</time>
      </trkpt>
      <trkpt lat="47.5083" lon="6.87348">
        <ele>352.6</ele>
        <time>2025-09-13T10:45:14Z</time>
      </trkpt>
      <trkpt lat="47.50824" lon="6.87335">
        <ele>352.3</ele>
        <time>2025-09-13T10:45:15Z</time>
      </trkpt>
      <trkpt lat="47.50817" lon="6.87323">
        <ele>351.9</ele>
        <time>2025-09-13T10:45:16Z</time>
      </trkpt>
      <trkpt lat="47.50811" lon="6.87312">
        <ele>351.6</ele>
        <time>2025-09-13T10:45:17Z</time>
      </trkpt>
      <trkpt lat="47.50805" lon="6.87299">
        <ele>351.3</ele>
        <time>2025-09-13T10:45:18Z</time>
      </trkpt>
      <trkpt lat="47.50799" lon="6.87287">
        <ele>351</ele>
        <time>2025-09-13T10:45:19Z</time>
      </trkpt>
      <trkpt lat="47.50793" lon="6.87275">
        <ele>350.7</ele>
        <time>2025-09-13T10:45:20Z</time>
      </trkpt>
      <trkpt lat="47.50788" lon="6.87262">
        <ele>350.4</ele>
        <time>2025-09-13T10:45:21Z</time>
      </trkpt>
      <trkpt lat="47.50782" lon="6.8725">
        <ele>350.3</ele>
        <time>2025-09-13T10:45:22Z</time>
      </trkpt>
      <trkpt lat="47.50776" lon="6.87239">
        <ele>350.1</ele>
        <time>2025-09-13T10:45:23Z</time>
      </trkpt>
      <trkpt lat="47.5077" lon="6.8723">
        <ele>350</ele>
        <time>2025-09-13T10:45:24Z</time>
      </trkpt>
      <trkpt lat="47.50765" lon="6.87219">
        <ele>349.6</ele>
        <time>2025-09-13T10:45:25Z</time>
      </trkpt>
      <trkpt lat="47.50762" lon="6.87206">
        <ele>349.1</ele>
        <time>2025-09-13T10:45:26Z</time>
      </trkpt>
      <trkpt lat="47.50759" lon="6.87193">
        <ele>348.7</ele>
        <time>2025-09-13T10:45:27Z</time>
      </trkpt>
      <trkpt lat="47.50756" lon="6.87177">
        <ele>348.3</ele>
        <time>2025-09-13T10:45:28Z</time>
      </trkpt>
      <trkpt lat="47.50753" lon="6.87163">
        <ele>347.9</ele>
        <time>2025-09-13T10:45:29Z</time>
      </trkpt>
      <trkpt lat="47.50749" lon="6.8715">
        <ele>347.7</ele>
        <time>2025-09-13T10:45:30Z</time>
      </trkpt>
      <trkpt lat="47.50746" lon="6.87135">
        <ele>347.3</ele>
        <time>2025-09-13T10:45:31Z</time>
      </trkpt>
      <trkpt lat="47.50744" lon="6.87121">
        <ele>347.1</ele>
        <time>2025-09-13T10:45:32Z</time>
      </trkpt>
      <trkpt lat="47.50739" lon="6.8711">
        <ele>346.8</ele>
        <time>2025-09-13T10:45:33Z</time>
      </trkpt>
      <trkpt lat="47.50735" lon="6.87096">
        <ele>346.5</ele>
        <time>2025-09-13T10:45:34Z</time>
      </trkpt>
      <trkpt lat="47.50731" lon="6.87083">
        <ele>346.1</ele>
        <time>2025-09-13T10:45:35Z</time>
      </trkpt>
      <trkpt lat="47.50729" lon="6.87069">
        <ele>345.9</ele>
        <time>2025-09-13T10:45:36Z</time>
      </trkpt>
      <trkpt lat="47.50726" lon="6.87055">
        <ele>345.7</ele>
        <time>2025-09-13T10:45:37Z</time>
      </trkpt>
      <trkpt lat="47.50722" lon="6.87041">
        <ele>345.5</ele>
        <time>2025-09-13T10:45:38Z</time>
      </trkpt>
      <trkpt lat="47.5072" lon="6.87026">
        <ele>345.3</ele>
        <time>2025-09-13T10:45:39Z</time>
      </trkpt>
      <trkpt lat="47.50717" lon="6.87012">
        <ele>345.1</ele>
        <time>2025-09-13T10:45:40Z</time>
      </trkpt>
      <trkpt lat="47.50714" lon="6.86998">
        <ele>345</ele>
        <time>2025-09-13T10:45:41Z</time>
      </trkpt>
      <trkpt lat="47.50711" lon="6.86984">
        <ele>344.8</ele>
        <time>2025-09-13T10:45:42Z</time>
      </trkpt>
      <trkpt lat="47.50708" lon="6.86971">
        <ele>344.7</ele>
        <time>2025-09-13T10:45:43Z</time>
      </trkpt>
      <trkpt lat="47.50706" lon="6.86957">
        <ele>344.6</ele>
        <time>2025-09-13T10:45:44Z</time>
      </trkpt>
      <trkpt lat="47.50705" lon="6.86942">
        <ele>344.4</ele>
        <time>2025-09-13T10:45:45Z</time>
      </trkpt>
      <trkpt lat="47.50705" lon="6.8693">
        <ele>344.3</ele>
        <time>2025-09-13T10:45:46Z</time>
      </trkpt>
      <trkpt lat="47.50705" lon="6.86915">
        <ele>344.1</ele>
        <time>2025-09-13T10:45:47Z</time>
      </trkpt>
      <trkpt lat="47.50706" lon="6.86902">
        <ele>343.9</ele>
        <time>2025-09-13T10:45:48Z</time>
      </trkpt>
      <trkpt lat="47.50705" lon="6.86887">
        <ele>343.7</ele>
        <time>2025-09-13T10:45:49Z</time>
      </trkpt>
      <trkpt lat="47.50706" lon="6.86874">
        <ele>343.6</ele>
        <time>2025-09-13T10:45:50Z</time>
      </trkpt>
      <trkpt lat="47.50705" lon="6.8686">
        <ele>343.5</ele>
        <time>2025-09-13T10:45:51Z</time>
      </trkpt>
      <trkpt lat="47.50705" lon="6.86847">
        <ele>343.4</ele>
        <time>2025-09-13T10:45:52Z</time>
      </trkpt>
      <trkpt lat="47.50705" lon="6.86834">
        <ele>343.2</ele>
        <time>2025-09-13T10:45:53Z</time>
      </trkpt>
      <trkpt lat="47.50706" lon="6.86821">
        <ele>343.1</ele>
        <time>2025-09-13T10:45:54Z</time>
      </trkpt>
      <trkpt lat="47.50706" lon="6.86808">
        <ele>343</ele>
        <time>2025-09-13T10:45:55Z</time>
      </trkpt>
      <trkpt lat="47.50706" lon="6.86796">
        <ele>342.9</ele>
        <time>2025-09-13T10:45:56Z</time>
      </trkpt>
      <trkpt lat="47.50705" lon="6.86783">
        <ele>342.7</ele>
        <time>2025-09-13T10:45:57Z</time>
      </trkpt>
      <trkpt lat="47.50704" lon="6.86769">
        <ele>342.6</ele>
        <time>2025-09-13T10:45:58Z</time>
      </trkpt>
      <trkpt lat="47.50703" lon="6.86756">
        <ele>342.5</ele>
        <time>2025-09-13T10:45:59Z</time>
      </trkpt>
      <trkpt lat="47.50704" lon="6.86743">
        <ele>342.5</ele>
        <time>2025-09-13T10:46:00Z</time>
      </trkpt>
      <trkpt lat="47.50704" lon="6.86731">
        <ele>342.4</ele>
        <time>2025-09-13T10:46:01Z</time>
      </trkpt>
      <trkpt lat="47.50703" lon="6.86718">
        <ele>342.3</ele>
        <time>2025-09-13T10:46:02Z</time>
      </trkpt>
      <trkpt lat="47.50703" lon="6.86706">
        <ele>342.3</ele>
        <time>2025-09-13T10:46:03Z</time>
      </trkpt>
      <trkpt lat="47.50703" lon="6.86695">
        <ele>342.2</ele>
        <time>2025-09-13T10:46:04Z</time>
      </trkpt>
      <trkpt lat="47.50703" lon="6.86684">
        <ele>342.2</ele>
        <time>2025-09-13T10:46:05Z</time>
      </trkpt>
      <trkpt lat="47.50701" lon="6.86671">
        <ele>342.1</ele>
        <time>2025-09-13T10:46:06Z</time>
      </trkpt>
      <trkpt lat="47.507" lon="6.86659">
        <ele>342.1</ele>
        <time>2025-09-13T10:46:07Z</time>
      </trkpt>
      <trkpt lat="47.50699" lon="6.86648">
        <ele>342</ele>
        <time>2025-09-13T10:46:08Z</time>
      </trkpt>
      <trkpt lat="47.50698" lon="6.86637">
        <ele>341.9</ele>
        <time>2025-09-13T10:46:09Z</time>
      </trkpt>
      <trkpt lat="47.50698" lon="6.86625">
        <ele>341.9</ele>
        <time>2025-09-13T10:46:10Z</time>
      </trkpt>
      <trkpt lat="47.50697" lon="6.86613">
        <ele>341.7</ele>
        <time>2025-09-13T10:46:11Z</time>
      </trkpt>
      <trkpt lat="47.50696" lon="6.86601">
        <ele>341.6</ele>
        <time>2025-09-13T10:46:12Z</time>
      </trkpt>
      <trkpt lat="47.50695" lon="6.86589">
        <ele>341.5</ele>
        <time>2025-09-13T10:46:13Z</time>
      </trkpt>
      <trkpt lat="47.50694" lon="6.86576">
        <ele>341.3</ele>
        <time>2025-09-13T10:46:14Z</time>
      </trkpt>
      <trkpt lat="47.50693" lon="6.86565">
        <ele>341.2</ele>
        <time>2025-09-13T10:46:15Z</time>
      </trkpt>
      <trkpt lat="47.50692" lon="6.86552">
        <ele>341.1</ele>
        <time>2025-09-13T10:46:16Z</time>
      </trkpt>
      <trkpt lat="47.50693" lon="6.86541">
        <ele>340.9</ele>
        <time>2025-09-13T10:46:17Z</time>
      </trkpt>
      <trkpt lat="47.50691" lon="6.86528">
        <ele>340.7</ele>
        <time>2025-09-13T10:46:18Z</time>
      </trkpt>
      <trkpt lat="47.5069" lon="6.86517">
        <ele>340.5</ele>
        <time>2025-09-13T10:46:19Z</time>
      </trkpt>
      <trkpt lat="47.50688" lon="6.86506">
        <ele>340.3</ele>
        <time>2025-09-13T10:46:20Z</time>
      </trkpt>
      <trkpt lat="47.50686" lon="6.86494">
        <ele>340.1</ele>
        <time>2025-09-13T10:46:21Z</time>
      </trkpt>
      <trkpt lat="47.50685" lon="6.86482">
        <ele>339.9</ele>
        <time>2025-09-13T10:46:22Z</time>
      </trkpt>
      <trkpt lat="47.50684" lon="6.8647">
        <ele>339.7</ele>
        <time>2025-09-13T10:46:23Z</time>
      </trkpt>
      <trkpt lat="47.50682" lon="6.86458">
        <ele>339.4</ele>
        <time>2025-09-13T10:46:24Z</time>
      </trkpt>
      <trkpt lat="47.5068" lon="6.86445">
        <ele>339.2</ele>
        <time>2025-09-13T10:46:25Z</time>
      </trkpt>
      <trkpt lat="47.50679" lon="6.86433">
        <ele>338.9</ele>
        <time>2025-09-13T10:46:26Z</time>
      </trkpt>
      <trkpt lat="47.50679" lon="6.8642">
        <ele>338.6</ele>
        <time>2025-09-13T10:46:27Z</time>
      </trkpt>
      <trkpt lat="47.50678" lon="6.86407">
        <ele>338.4</ele>
        <time>2025-09-13T10:46:28Z</time>
      </trkpt>
      <trkpt lat="47.50676" lon="6.86394">
        <ele>338.1</ele>
        <time>2025-09-13T10:46:29Z</time>
      </trkpt>
      <trkpt lat="47.50674" lon="6.86381">
        <ele>337.8</ele>
        <time>2025-09-13T10:46:30Z</time>
      </trkpt>
      <trkpt lat="47.50671" lon="6.86371">
        <ele>337.5</ele>
        <time>2025-09-13T10:46:31Z</time>
      </trkpt>
      <trkpt lat="47.5067" lon="6.86357">
        <ele>337.1</ele>
        <time>2025-09-13T10:46:32Z</time>
      </trkpt>
      <trkpt lat="47.50666" lon="6.86344">
        <ele>336.8</ele>
        <time>2025-09-13T10:46:33Z</time>
      </trkpt>
      <trkpt lat="47.50665" lon="6.86331">
        <ele>336.5</ele>
        <time>2025-09-13T10:46:34Z</time>
      </trkpt>
      <trkpt lat="47.50666" lon="6.86318">
        <ele>336.1</ele>
        <time>2025-09-13T10:46:35Z</time>
      </trkpt>
      <trkpt lat="47.50667" lon="6.86304">
        <ele>335.7</ele>
        <time>2025-09-13T10:46:36Z</time>
      </trkpt>
      <trkpt lat="47.50667" lon="6.86291">
        <ele>335.4</ele>
        <time>2025-09-13T10:46:37Z</time>
      </trkpt>
      <trkpt lat="47.50667" lon="6.8628">
        <ele>335</ele>
        <time>2025-09-13T10:46:38Z</time>
      </trkpt>
      <trkpt lat="47.50667" lon="6.86265">
        <ele>334.5</ele>
        <time>2025-09-13T10:46:39Z</time>
      </trkpt>
      <trkpt lat="47.50668" lon="6.86251">
        <ele>333.9</ele>
        <time>2025-09-13T10:46:40Z</time>
      </trkpt>
      <trkpt lat="47.50669" lon="6.86236">
        <ele>333.4</ele>
        <time>2025-09-13T10:46:41Z</time>
      </trkpt>
      <trkpt lat="47.50671" lon="6.86222">
        <ele>332.9</ele>
        <time>2025-09-13T10:46:42Z</time>
      </trkpt>
      <trkpt lat="47.50671" lon="6.86206">
        <ele>332.4</ele>
        <time>2025-09-13T10:46:43Z</time>
      </trkpt>
      <trkpt lat="47.50671" lon="6.86195">
        <ele>332.1</ele>
        <time>2025-09-13T10:46:44Z</time>
      </trkpt>
      <trkpt lat="47.50674" lon="6.86181">
        <ele>331.8</ele>
        <time>2025-09-13T10:46:45Z</time>
      </trkpt>
      <trkpt lat="47.50677" lon="6.86168">
        <ele>331.5</ele>
        <time>2025-09-13T10:46:46Z</time>
      </trkpt>
      <trkpt lat="47.50683" lon="6.86153">
        <ele>331.8</ele>
        <time>2025-09-13T10:46:47Z</time>
      </trkpt>
      <trkpt lat="47.50689" lon="6.86142">
        <ele>331.1</ele>
        <time>2025-09-13T10:46:48Z</time>
      </trkpt>
      <trkpt lat="47.50696" lon="6.86128">
        <ele>330.3</ele>
        <time>2025-09-13T10:46:49Z</time>
      </trkpt>
      <trkpt lat="47.507" lon="6.86116">
        <ele>329.9</ele>
        <time>2025-09-13T10:46:50Z</time>
      </trkpt>
      <trkpt lat="47.50705" lon="6.86107">
        <ele>329.5</ele>
        <time>2025-09-13T10:46:51Z</time>
      </trkpt>
      <trkpt lat="47.50713" lon="6.86097">
        <ele>329.1</ele>
        <time>2025-09-13T10:46:52Z</time>
      </trkpt>
      <trkpt lat="47.50722" lon="6.86087">
        <ele>328.6</ele>
        <time>2025-09-13T10:46:53Z</time>
      </trkpt>
      <trkpt lat="47.50726" lon="6.8607">
        <ele>328.3</ele>
        <time>2025-09-13T10:46:54Z</time>
      </trkpt>
      <trkpt lat="47.50731" lon="6.86059">
        <ele>328.2</ele>
        <time>2025-09-13T10:46:55Z</time>
      </trkpt>
      <trkpt lat="47.50734" lon="6.86046">
        <ele>328</ele>
        <time>2025-09-13T10:46:56Z</time>
      </trkpt>
      <trkpt lat="47.50741" lon="6.86034">
        <ele>327.8</ele>
        <time>2025-09-13T10:46:57Z</time>
      </trkpt>
      <trkpt lat="47.50749" lon="6.86026">
        <ele>327.6</ele>
        <time>2025-09-13T10:46:58Z</time>
      </trkpt>
      <trkpt lat="47.50759" lon="6.86018">
        <ele>327.4</ele>
        <time>2025-09-13T10:46:59Z</time>
      </trkpt>
      <trkpt lat="47.50767" lon="6.86011">
        <ele>327.3</ele>
        <time>2025-09-13T10:47:00Z</time>
      </trkpt>
      <trkpt lat="47.50777" lon="6.86005">
        <ele>327.3</ele>
        <time>2025-09-13T10:47:01Z</time>
      </trkpt>
      <trkpt lat="47.50786" lon="6.86">
        <ele>327.1</ele>
        <time>2025-09-13T10:47:02Z</time>
      </trkpt>
      <trkpt lat="47.50795" lon="6.85995">
        <ele>326.9</ele>
        <time>2025-09-13T10:47:03Z</time>
      </trkpt>
      <trkpt lat="47.50804" lon="6.85993">
        <ele>326.8</ele>
        <time>2025-09-13T10:47:04Z</time>
      </trkpt>
      <trkpt lat="47.50812" lon="6.85993">
        <ele>326.7</ele>
        <time>2025-09-13T10:47:05Z</time>
      </trkpt>
      <trkpt lat="47.50822" lon="6.85991">
        <ele>326.5</ele>
        <time>2025-09-13T10:47:06Z</time>
      </trkpt>
      <trkpt lat="47.50831" lon="6.85989">
        <ele>326.4</ele>
        <time>2025-09-13T10:47:07Z</time>
      </trkpt>
      <trkpt lat="47.5084" lon="6.85987">
        <ele>326.3</ele>
        <time>2025-09-13T10:47:08Z</time>
      </trkpt>
      <trkpt lat="47.50849" lon="6.85986">
        <ele>326.2</ele>
        <time>2025-09-13T10:47:09Z</time>
      </trkpt>
      <trkpt lat="47.50858" lon="6.85986">
        <ele>326.1</ele>
        <time>2025-09-13T10:47:10Z</time>
      </trkpt>
      <trkpt lat="47.50868" lon="6.85987">
        <ele>326</ele>
        <time>2025-09-13T10:47:11Z</time>
      </trkpt>
      <trkpt lat="47.50878" lon="6.85989">
        <ele>325.9</ele>
        <time>2025-09-13T10:47:12Z</time>
      </trkpt>
      <trkpt lat="47.50889" lon="6.85991">
        <ele>325.9</ele>
        <time>2025-09-13T10:47:13Z</time>
      </trkpt>
      <trkpt lat="47.50898" lon="6.85995">
        <ele>325.9</ele>
        <time>2025-09-13T10:47:14Z</time>
      </trkpt>
      <trkpt lat="47.50907" lon="6.85997">
        <ele>325.8</ele>
        <time>2025-09-13T10:47:15Z</time>
      </trkpt>
      <trkpt lat="47.50916" lon="6.85998">
        <ele>325.6</ele>
        <time>2025-09-13T10:47:16Z</time>
      </trkpt>
      <trkpt lat="47.50926" lon="6.85997">
        <ele>325.5</ele>
        <time>2025-09-13T10:47:17Z</time>
      </trkpt>
      <trkpt lat="47.50935" lon="6.85997">
        <ele>325.4</ele>
        <time>2025-09-13T10:47:18Z</time>
      </trkpt>
      <trkpt lat="47.50945" lon="6.85995">
        <ele>325.2</ele>
        <time>2025-09-13T10:47:19Z</time>
      </trkpt>
      <trkpt lat="47.50953" lon="6.85993">
        <ele>325.1</ele>
        <time>2025-09-13T10:47:20Z</time>
      </trkpt>
      <trkpt lat="47.50962" lon="6.85993">
        <ele>324.9</ele>
        <time>2025-09-13T10:47:21Z</time>
      </trkpt>
      <trkpt lat="47.50972" lon="6.85992">
        <ele>324.8</ele>
        <time>2025-09-13T10:47:22Z</time>
      </trkpt>
      <trkpt lat="47.50981" lon="6.85992">
        <ele>324.6</ele>
        <time>2025-09-13T10:47:23Z</time>
      </trkpt>
      <trkpt lat="47.5099" lon="6.85989">
        <ele>324.5</ele>
        <time>2025-09-13T10:47:24Z</time>
      </trkpt>
      <trkpt lat="47.51" lon="6.85987">
        <ele>324.3</ele>
        <time>2025-09-13T10:47:25Z</time>
      </trkpt>
      <trkpt lat="47.51009" lon="6.85986">
        <ele>324.2</ele>
        <time>2025-09-13T10:47:26Z</time>
      </trkpt>
      <trkpt lat="47.51018" lon="6.85984">
        <ele>324</ele>
        <time>2025-09-13T10:47:27Z</time>
      </trkpt>
      <trkpt lat="47.51027" lon="6.85982">
        <ele>323.9</ele>
        <time>2025-09-13T10:47:28Z</time>
      </trkpt>
      <trkpt lat="47.51037" lon="6.85979">
        <ele>323.8</ele>
        <time>2025-09-13T10:47:29Z</time>
      </trkpt>
      <trkpt lat="47.51046" lon="6.85978">
        <ele>323.6</ele>
        <time>2025-09-13T10:47:30Z</time>
      </trkpt>
      <trkpt lat="47.51055" lon="6.85976">
        <ele>323.6</ele>
        <time>2025-09-13T10:47:31Z</time>
      </trkpt>
      <trkpt lat="47.51063" lon="6.85973">
        <ele>323.5</ele>
        <time>2025-09-13T10:47:32Z</time>
      </trkpt>
      <trkpt lat="47.51071" lon="6.85971">
        <ele>323.5</ele>
        <time>2025-09-13T10:47:33Z</time>
      </trkpt>
      <trkpt lat="47.51078" lon="6.85975">
        <ele>323.4</ele>
        <time>2025-09-13T10:47:34Z</time>
      </trkpt>
      <trkpt lat="47.51085" lon="6.85977">
        <ele>323.3</ele>
        <time>2025-09-13T10:47:35Z</time>
      </trkpt>
      <trkpt lat="47.51092" lon="6.85966">
        <ele>323.1</ele>
        <time>2025-09-13T10:47:36Z</time>
      </trkpt>
      <trkpt lat="47.51093" lon="6.85953">
        <ele>323</ele>
        <time>2025-09-13T10:47:37Z</time>
      </trkpt>
      <trkpt lat="47.51089" lon="6.85943">
        <ele>323</ele>
        <time>2025-09-13T10:47:38Z</time>
      </trkpt>
      <trkpt lat="47.51083" lon="6.85937">
        <ele>323</ele>
        <time>2025-09-13T10:47:39Z</time>
      </trkpt>
      <trkpt lat="47.51078" lon="6.85931">
        <ele>323</ele>
        <time>2025-09-13T10:47:40Z</time>
      </trkpt>
      <trkpt lat="47.51076" lon="6.85921">
        <ele>322.9</ele>
        <time>2025-09-13T10:47:41Z</time>
      </trkpt>
      <trkpt lat="47.51073" lon="6.8591">
        <ele>322.9</ele>
        <time>2025-09-13T10:47:42Z</time>
      </trkpt>
      <trkpt lat="47.5107" lon="6.85898">
        <ele>322.8</ele>
        <time>2025-09-13T10:47:43Z</time>
      </trkpt>
      <trkpt lat="47.51067" lon="6.85888">
        <ele>322.7</ele>
        <time>2025-09-13T10:47:44Z</time>
      </trkpt>
      <trkpt lat="47.51064" lon="6.85878">
        <ele>322.6</ele>
        <time>2025-09-13T10:47:45Z</time>
      </trkpt>
      <trkpt lat="47.51062" lon="6.85865">
        <ele>322.6</ele>
        <time>2025-09-13T10:47:46Z</time>
      </trkpt>
      <trkpt lat="47.5106" lon="6.85855">
        <ele>322.6</ele>
        <time>2025-09-13T10:47:47Z</time>
      </trkpt>
      <trkpt lat="47.51059" lon="6.85844">
        <ele>322.6</ele>
        <time>2025-09-13T10:47:48Z</time>
      </trkpt>
      <trkpt lat="47.51058" lon="6.85833">
        <ele>322.5</ele>
        <time>2025-09-13T10:47:49Z</time>
      </trkpt>
      <trkpt lat="47.51056" lon="6.85822">
        <ele>322.5</ele>
        <time>2025-09-13T10:47:50Z</time>
      </trkpt>
      <trkpt lat="47.51055" lon="6.85811">
        <ele>322.4</ele>
        <time>2025-09-13T10:47:51Z</time>
      </trkpt>
      <trkpt lat="47.51055" lon="6.858">
        <ele>322.4</ele>
        <time>2025-09-13T10:47:52Z</time>
      </trkpt>
      <trkpt lat="47.51054" lon="6.85788">
        <ele>322.4</ele>
        <time>2025-09-13T10:47:53Z</time>
      </trkpt>
      <trkpt lat="47.51053" lon="6.85777">
        <ele>322.3</ele>
        <time>2025-09-13T10:47:54Z</time>
      </trkpt>
      <trkpt lat="47.51052" lon="6.85765">
        <ele>322.3</ele>
        <time>2025-09-13T10:47:55Z</time>
      </trkpt>
      <trkpt lat="47.5105" lon="6.85754">
        <ele>322.3</ele>
        <time>2025-09-13T10:47:56Z</time>
      </trkpt>
      <trkpt lat="47.5105" lon="6.85742">
        <ele>322.2</ele>
        <time>2025-09-13T10:47:57Z</time>
      </trkpt>
      <trkpt lat="47.51049" lon="6.8573">
        <ele>322.2</ele>
        <time>2025-09-13T10:47:58Z</time>
      </trkpt>
      <trkpt lat="47.51048" lon="6.85719">
        <ele>322.1</ele>
        <time>2025-09-13T10:47:59Z</time>
      </trkpt>
      <trkpt lat="47.51046" lon="6.85707">
        <ele>322.1</ele>
        <time>2025-09-13T10:48:01Z</time>
      </trkpt>
      <trkpt lat="47.51045" lon="6.85696">
        <ele>322.1</ele>
        <time>2025-09-13T10:48:02Z</time>
      </trkpt>
      <trkpt lat="47.51044" lon="6.85685">
        <ele>322.1</ele>
        <time>2025-09-13T10:48:03Z</time>
      </trkpt>
      <trkpt lat="47.51043" lon="6.85673">
        <ele>322.1</ele>
        <time>2025-09-13T10:48:04Z</time>
      </trkpt>
      <trkpt lat="47.51044" lon="6.85661">
        <ele>322</ele>
        <time>2025-09-13T10:48:05Z</time>
      </trkpt>
      <trkpt lat="47.51043" lon="6.8565">
        <ele>322</ele>
        <time>2025-09-13T10:48:06Z</time>
      </trkpt>
      <trkpt lat="47.51043" lon="6.85636">
        <ele>322</ele>
        <time>2025-09-13T10:48:07Z</time>
      </trkpt>
      <trkpt lat="47.51041" lon="6.85626">
        <ele>322</ele>
        <time>2025-09-13T10:48:08Z</time>
      </trkpt>
      <trkpt lat="47.51039" lon="6.85616">
        <ele>321.9</ele>
        <time>2025-09-13T10:48:09Z</time>
      </trkpt>
      <trkpt lat="47.51038" lon="6.85605">
        <ele>321.9</ele>
        <time>2025-09-13T10:48:10Z</time>
      </trkpt>
      <trkpt lat="47.51038" lon="6.85594">
        <ele>321.9</ele>
        <time>2025-09-13T10:48:11Z</time>
      </trkpt>
      <trkpt lat="47.51037" lon="6.85581">
        <ele>321.8</ele>
        <time>2025-09-13T10:48:12Z</time>
      </trkpt>
      <trkpt lat="47.51035" lon="6.85569">
        <ele>321.8</ele>
        <time>2025-09-13T10:48:13Z</time>
      </trkpt>
      <trkpt lat="47.51033" lon="6.85556">
        <ele>321.8</ele>
        <time>2025-09-13T10:48:14Z</time>
      </trkpt>
      <trkpt lat="47.51032" lon="6.85544">
        <ele>321.7</ele>
        <time>2025-09-13T10:48:15Z</time>
      </trkpt>
      <trkpt lat="47.51031" lon="6.85534">
        <ele>321.7</ele>
        <time>2025-09-13T10:48:16Z</time>
      </trkpt>
      <trkpt lat="47.5103" lon="6.85522">
        <ele>321.6</ele>
        <time>2025-09-13T10:48:17Z</time>
      </trkpt>
      <trkpt lat="47.51028" lon="6.85511">
        <ele>321.6</ele>
        <time>2025-09-13T10:48:18Z</time>
      </trkpt>
      <trkpt lat="47.51027" lon="6.855">
        <ele>321.5</ele>
        <time>2025-09-13T10:48:19Z</time>
      </trkpt>
      <trkpt lat="47.51026" lon="6.85488">
        <ele>321.5</ele>
        <time>2025-09-13T10:48:20Z</time>
      </trkpt>
      <trkpt lat="47.51025" lon="6.85477">
        <ele>321.5</ele>
        <time>2025-09-13T10:48:21Z</time>
      </trkpt>
      <trkpt lat="47.51023" lon="6.85465">
        <ele>321.5</ele>
        <time>2025-09-13T10:48:22Z</time>
      </trkpt>
      <trkpt lat="47.51023" lon="6.85454">
        <ele>321.5</ele>
        <time>2025-09-13T10:48:23Z</time>
      </trkpt>
      <trkpt lat="47.51022" lon="6.85443">
        <ele>321.4</ele>
        <time>2025-09-13T10:48:24Z</time>
      </trkpt>
      <trkpt lat="47.51021" lon="6.8543">
        <ele>321.4</ele>
        <time>2025-09-13T10:48:25Z</time>
      </trkpt>
      <trkpt lat="47.5102" lon="6.85417">
        <ele>321.4</ele>
        <time>2025-09-13T10:48:26Z</time>
      </trkpt>
      <trkpt lat="47.5102" lon="6.85406">
        <ele>321.4</ele>
        <time>2025-09-13T10:48:27Z</time>
      </trkpt>
      <trkpt lat="47.51019" lon="6.85394">
        <ele>321.3</ele>
        <time>2025-09-13T10:48:28Z</time>
      </trkpt>
      <trkpt lat="47.51018" lon="6.85383">
        <ele>321.3</ele>
        <time>2025-09-13T10:48:29Z</time>
      </trkpt>
      <trkpt lat="47.51016" lon="6.85373">
        <ele>321.3</ele>
        <time>2025-09-13T10:48:30Z</time>
      </trkpt>
      <trkpt lat="47.51016" lon="6.85361">
        <ele>321.2</ele>
        <time>2025-09-13T10:48:31Z</time>
      </trkpt>
      <trkpt lat="47.51014" lon="6.85338">
        <ele>321.1</ele>
        <time>2025-09-13T10:48:32Z</time>
      </trkpt>
      <trkpt lat="47.51013" lon="6.85327">
        <ele>321.1</ele>
        <time>2025-09-13T10:48:33Z</time>
      </trkpt>
      <trkpt lat="47.51012" lon="6.85316">
        <ele>321.1</ele>
        <time>2025-09-13T10:48:34Z</time>
      </trkpt>
      <trkpt lat="47.51011" lon="6.85305">
        <ele>321</ele>
        <time>2025-09-13T10:48:35Z</time>
      </trkpt>
      <trkpt lat="47.5101" lon="6.85294">
        <ele>321</ele>
        <time>2025-09-13T10:48:36Z</time>
      </trkpt>
      <trkpt lat="47.51009" lon="6.85282">
        <ele>321</ele>
        <time>2025-09-13T10:48:37Z</time>
      </trkpt>
      <trkpt lat="47.51007" lon="6.8527">
        <ele>320.9</ele>
        <time>2025-09-13T10:48:38Z</time>
      </trkpt>
      <trkpt lat="47.51006" lon="6.85259">
        <ele>320.9</ele>
        <time>2025-09-13T10:48:39Z</time>
      </trkpt>
      <trkpt lat="47.51005" lon="6.85248">
        <ele>320.9</ele>
        <time>2025-09-13T10:48:40Z</time>
      </trkpt>
      <trkpt lat="47.51004" lon="6.85236">
        <ele>320.8</ele>
        <time>2025-09-13T10:48:41Z</time>
      </trkpt>
      <trkpt lat="47.51002" lon="6.85225">
        <ele>320.8</ele>
        <time>2025-09-13T10:48:42Z</time>
      </trkpt>
      <trkpt lat="47.51001" lon="6.85215">
        <ele>320.8</ele>
        <time>2025-09-13T10:48:43Z</time>
      </trkpt>
      <trkpt lat="47.50999" lon="6.85203">
        <ele>320.8</ele>
        <time>2025-09-13T10:48:44Z</time>
      </trkpt>
      <trkpt lat="47.50998" lon="6.85192">
        <ele>320.8</ele>
        <time>2025-09-13T10:48:45Z</time>
      </trkpt>
      <trkpt lat="47.50996" lon="6.8518">
        <ele>320.8</ele>
        <time>2025-09-13T10:48:46Z</time>
      </trkpt>
      <trkpt lat="47.50995" lon="6.85169">
        <ele>320.7</ele>
        <time>2025-09-13T10:48:47Z</time>
      </trkpt>
      <trkpt lat="47.50993" lon="6.85157">
        <ele>320.7</ele>
        <time>2025-09-13T10:48:48Z</time>
      </trkpt>
      <trkpt lat="47.50991" lon="6.85146">
        <ele>320.7</ele>
        <time>2025-09-13T10:48:49Z</time>
      </trkpt>
      <trkpt lat="47.50988" lon="6.85135">
        <ele>320.7</ele>
        <time>2025-09-13T10:48:50Z</time>
      </trkpt>
      <trkpt lat="47.50986" lon="6.85125">
        <ele>320.7</ele>
        <time>2025-09-13T10:48:51Z</time>
      </trkpt>
      <trkpt lat="47.50984" lon="6.85113">
        <ele>320.6</ele>
        <time>2025-09-13T10:48:52Z</time>
      </trkpt>
      <trkpt lat="47.50982" lon="6.85103">
        <ele>320.6</ele>
        <time>2025-09-13T10:48:53Z</time>
      </trkpt>
      <trkpt lat="47.5098" lon="6.85092">
        <ele>320.6</ele>
        <time>2025-09-13T10:48:54Z</time>
      </trkpt>
      <trkpt lat="47.50977" lon="6.85081">
        <ele>320.5</ele>
        <time>2025-09-13T10:48:55Z</time>
      </trkpt>
      <trkpt lat="47.50975" lon="6.85071">
        <ele>320.5</ele>
        <time>2025-09-13T10:48:56Z</time>
      </trkpt>
      <trkpt lat="47.50972" lon="6.8506">
        <ele>320.5</ele>
        <time>2025-09-13T10:48:57Z</time>
      </trkpt>
      <trkpt lat="47.5097" lon="6.8505">
        <ele>320.4</ele>
        <time>2025-09-13T10:48:58Z</time>
      </trkpt>
      <trkpt lat="47.50968" lon="6.85039">
        <ele>320.5</ele>
        <time>2025-09-13T10:48:59Z</time>
      </trkpt>
      <trkpt lat="47.50966" lon="6.85028">
        <ele>320.5</ele>
        <time>2025-09-13T10:49:00Z</time>
      </trkpt>
      <trkpt lat="47.50964" lon="6.85018">
        <ele>320.5</ele>
        <time>2025-09-13T10:49:01Z</time>
      </trkpt>
      <trkpt lat="47.50962" lon="6.85007">
        <ele>320.5</ele>
        <time>2025-09-13T10:49:02Z</time>
      </trkpt>
      <trkpt lat="47.5096" lon="6.84996">
        <ele>320.5</ele>
        <time>2025-09-13T10:49:03Z</time>
      </trkpt>
      <trkpt lat="47.50959" lon="6.84986">
        <ele>320.5</ele>
        <time>2025-09-13T10:49:04Z</time>
      </trkpt>
      <trkpt lat="47.50956" lon="6.84975">
        <ele>320.5</ele>
        <time>2025-09-13T10:49:05Z</time>
      </trkpt>
      <trkpt lat="47.50955" lon="6.84965">
        <ele>320.6</ele>
        <time>2025-09-13T10:49:06Z</time>
      </trkpt>
      <trkpt lat="47.50954" lon="6.84955">
        <ele>320.6</ele>
        <time>2025-09-13T10:49:07Z</time>
      </trkpt>
      <trkpt lat="47.50951" lon="6.84945">
        <ele>320.6</ele>
        <time>2025-09-13T10:49:08Z</time>
      </trkpt>
      <trkpt lat="47.5095" lon="6.84934">
        <ele>320.6</ele>
        <time>2025-09-13T10:49:09Z</time>
      </trkpt>
      <trkpt lat="47.50948" lon="6.84924">
        <ele>320.6</ele>
        <time>2025-09-13T10:49:10Z</time>
      </trkpt>
      <trkpt lat="47.50946" lon="6.84914">
        <ele>320.7</ele>
        <time>2025-09-13T10:49:11Z</time>
      </trkpt>
      <trkpt lat="47.50943" lon="6.84903">
        <ele>320.7</ele>
        <time>2025-09-13T10:49:12Z</time>
      </trkpt>
      <trkpt lat="47.50941" lon="6.84893">
        <ele>320.8</ele>
        <time>2025-09-13T10:49:13Z</time>
      </trkpt>
      <trkpt lat="47.50939" lon="6.84884">
        <ele>320.8</ele>
        <time>2025-09-13T10:49:14Z</time>
      </trkpt>
      <trkpt lat="47.50937" lon="6.84875">
        <ele>320.8</ele>
        <time>2025-09-13T10:49:15Z</time>
      </trkpt>
      <trkpt lat="47.50935" lon="6.84865">
        <ele>320.9</ele>
        <time>2025-09-13T10:49:16Z</time>
      </trkpt>
      <trkpt lat="47.50932" lon="6.84854">
        <ele>320.9</ele>
        <time>2025-09-13T10:49:17Z</time>
      </trkpt>
      <trkpt lat="47.5093" lon="6.84844">
        <ele>321</ele>
        <time>2025-09-13T10:49:18Z</time>
      </trkpt>
      <trkpt lat="47.50928" lon="6.84834">
        <ele>321.1</ele>
        <time>2025-09-13T10:49:19Z</time>
      </trkpt>
      <trkpt lat="47.50926" lon="6.84824">
        <ele>321.1</ele>
        <time>2025-09-13T10:49:20Z</time>
      </trkpt>
      <trkpt lat="47.50923" lon="6.84814">
        <ele>321.2</ele>
        <time>2025-09-13T10:49:21Z</time>
      </trkpt>
      <trkpt lat="47.50921" lon="6.84804">
        <ele>321.2</ele>
        <time>2025-09-13T10:49:22Z</time>
      </trkpt>
      <trkpt lat="47.50919" lon="6.84794">
        <ele>321.3</ele>
        <time>2025-09-13T10:49:23Z</time>
      </trkpt>
      <trkpt lat="47.50917" lon="6.84785">
        <ele>321.4</ele>
        <time>2025-09-13T10:49:24Z</time>
      </trkpt>
      <trkpt lat="47.50915" lon="6.84775">
        <ele>321.5</ele>
        <time>2025-09-13T10:49:25Z</time>
      </trkpt>
      <trkpt lat="47.50914" lon="6.84766">
        <ele>321.6</ele>
        <time>2025-09-13T10:49:26Z</time>
      </trkpt>
      <trkpt lat="47.50911" lon="6.84756">
        <ele>321.7</ele>
        <time>2025-09-13T10:49:27Z</time>
      </trkpt>
      <trkpt lat="47.50909" lon="6.84746">
        <ele>321.9</ele>
        <time>2025-09-13T10:49:28Z</time>
      </trkpt>
      <trkpt lat="47.50907" lon="6.84736">
        <ele>322</ele>
        <time>2025-09-13T10:49:29Z</time>
      </trkpt>
      <trkpt lat="47.50906" lon="6.84726">
        <ele>322.1</ele>
        <time>2025-09-13T10:49:30Z</time>
      </trkpt>
      <trkpt lat="47.50903" lon="6.84717">
        <ele>322.3</ele>
        <time>2025-09-13T10:49:31Z</time>
      </trkpt>
      <trkpt lat="47.50902" lon="6.84708">
        <ele>322.4</ele>
        <time>2025-09-13T10:49:32Z</time>
      </trkpt>
      <trkpt lat="47.50899" lon="6.847">
        <ele>322.5</ele>
        <time>2025-09-13T10:49:33Z</time>
      </trkpt>
      <trkpt lat="47.50896" lon="6.84691">
        <ele>322.7</ele>
        <time>2025-09-13T10:49:34Z</time>
      </trkpt>
      <trkpt lat="47.50892" lon="6.84682">
        <ele>322.8</ele>
        <time>2025-09-13T10:49:35Z</time>
      </trkpt>
      <trkpt lat="47.50888" lon="6.84674">
        <ele>322.9</ele>
        <time>2025-09-13T10:49:36Z</time>
      </trkpt>
      <trkpt lat="47.50885" lon="6.84666">
        <ele>323.1</ele>
        <time>2025-09-13T10:49:37Z</time>
      </trkpt>
      <trkpt lat="47.50881" lon="6.84658">
        <ele>323.2</ele>
        <time>2025-09-13T10:49:38Z</time>
      </trkpt>
      <trkpt lat="47.50877" lon="6.8465">
        <ele>323.3</ele>
        <time>2025-09-13T10:49:39Z</time>
      </trkpt>
      <trkpt lat="47.50873" lon="6.84642">
        <ele>323.4</ele>
        <time>2025-09-13T10:49:40Z</time>
      </trkpt>
      <trkpt lat="47.5087" lon="6.84634">
        <ele>323.5</ele>
        <time>2025-09-13T10:49:41Z</time>
      </trkpt>
      <trkpt lat="47.50866" lon="6.84626">
        <ele>323.6</ele>
        <time>2025-09-13T10:49:42Z</time>
      </trkpt>
      <trkpt lat="47.50862" lon="6.84619">
        <ele>323.7</ele>
        <time>2025-09-13T10:49:43Z</time>
      </trkpt>
      <trkpt lat="47.50858" lon="6.84612">
        <ele>323.9</ele>
        <time>2025-09-13T10:49:44Z</time>
      </trkpt>
      <trkpt lat="47.50853" lon="6.84607">
        <ele>324</ele>
        <time>2025-09-13T10:49:45Z</time>
      </trkpt>
      <trkpt lat="47.50848" lon="6.84601">
        <ele>324.1</ele>
        <time>2025-09-13T10:49:46Z</time>
      </trkpt>
      <trkpt lat="47.50843" lon="6.84597">
        <ele>324.2</ele>
        <time>2025-09-13T10:49:47Z</time>
      </trkpt>
      <trkpt lat="47.50837" lon="6.84591">
        <ele>324.3</ele>
        <time>2025-09-13T10:49:48Z</time>
      </trkpt>
      <trkpt lat="47.5083" lon="6.84586">
        <ele>324.4</ele>
        <time>2025-09-13T10:49:49Z</time>
      </trkpt>
      <trkpt lat="47.50824" lon="6.8458">
        <ele>324.6</ele>
        <time>2025-09-13T10:49:50Z</time>
      </trkpt>
      <trkpt lat="47.50817" lon="6.84576">
        <ele>324.7</ele>
        <time>2025-09-13T10:49:51Z</time>
      </trkpt>
      <trkpt lat="47.50812" lon="6.8457">
        <ele>324.8</ele>
        <time>2025-09-13T10:49:52Z</time>
      </trkpt>
      <trkpt lat="47.50806" lon="6.84565">
        <ele>324.9</ele>
        <time>2025-09-13T10:49:53Z</time>
      </trkpt>
      <trkpt lat="47.50801" lon="6.8456">
        <ele>325</ele>
        <time>2025-09-13T10:49:54Z</time>
      </trkpt>
      <trkpt lat="47.50797" lon="6.84557">
        <ele>325.1</ele>
        <time>2025-09-13T10:49:55Z</time>
      </trkpt>
      <trkpt lat="47.5079" lon="6.84553">
        <ele>325.2</ele>
        <time>2025-09-13T10:49:56Z</time>
      </trkpt>
      <trkpt lat="47.50785" lon="6.84547">
        <ele>325.3</ele>
        <time>2025-09-13T10:49:57Z</time>
      </trkpt>
      <trkpt lat="47.50779" lon="6.84543">
        <ele>325.4</ele>
        <time>2025-09-13T10:49:58Z</time>
      </trkpt>
      <trkpt lat="47.50773" lon="6.84538">
        <ele>325.5</ele>
        <time>2025-09-13T10:49:59Z</time>
      </trkpt>
      <trkpt lat="47.50766" lon="6.84532">
        <ele>325.6</ele>
        <time>2025-09-13T10:50:00Z</time>
      </trkpt>
      <trkpt lat="47.5076" lon="6.84526">
        <ele>325.7</ele>
        <time>2025-09-13T10:50:01Z</time>
      </trkpt>
      <trkpt lat="47.50754" lon="6.8452">
        <ele>325.8</ele>
        <time>2025-09-13T10:50:02Z</time>
      </trkpt>
      <trkpt lat="47.50748" lon="6.84516">
        <ele>325.8</ele>
        <time>2025-09-13T10:50:03Z</time>
      </trkpt>
      <trkpt lat="47.50743" lon="6.84508">
        <ele>325.9</ele>
        <time>2025-09-13T10:50:04Z</time>
      </trkpt>
      <trkpt lat="47.50737" lon="6.84502">
        <ele>325.9</ele>
        <time>2025-09-13T10:50:05Z</time>
      </trkpt>
      <trkpt lat="47.50729" lon="6.84496">
        <ele>326</ele>
        <time>2025-09-13T10:50:07Z</time>
      </trkpt>
      <trkpt lat="47.50723" lon="6.8449">
        <ele>326</ele>
        <time>2025-09-13T10:50:08Z</time>
      </trkpt>
      <trkpt lat="47.50718" lon="6.84485">
        <ele>326.1</ele>
        <time>2025-09-13T10:50:09Z</time>
      </trkpt>
      <trkpt lat="47.50711" lon="6.8448">
        <ele>326.2</ele>
        <time>2025-09-13T10:50:10Z</time>
      </trkpt>
      <trkpt lat="47.50705" lon="6.84473">
        <ele>326.3</ele>
        <time>2025-09-13T10:50:11Z</time>
      </trkpt>
      <trkpt lat="47.50699" lon="6.84467">
        <ele>326.3</ele>
        <time>2025-09-13T10:50:12Z</time>
      </trkpt>
      <trkpt lat="47.50694" lon="6.84462">
        <ele>326.4</ele>
        <time>2025-09-13T10:50:13Z</time>
      </trkpt>
      <trkpt lat="47.50688" lon="6.84459">
        <ele>326.4</ele>
        <time>2025-09-13T10:50:14Z</time>
      </trkpt>
      <trkpt lat="47.50682" lon="6.84455">
        <ele>326.5</ele>
        <time>2025-09-13T10:50:15Z</time>
      </trkpt>
      <trkpt lat="47.50677" lon="6.84451">
        <ele>326.5</ele>
        <time>2025-09-13T10:50:16Z</time>
      </trkpt>
      <trkpt lat="47.50669" lon="6.84446">
        <ele>326.6</ele>
        <time>2025-09-13T10:50:17Z</time>
      </trkpt>
      <trkpt lat="47.50664" lon="6.84443">
        <ele>326.7</ele>
        <time>2025-09-13T10:50:18Z</time>
      </trkpt>
      <trkpt lat="47.50658" lon="6.84436">
        <ele>326.7</ele>
        <time>2025-09-13T10:50:19Z</time>
      </trkpt>
      <trkpt lat="47.50652" lon="6.8443">
        <ele>326.8</ele>
        <time>2025-09-13T10:50:20Z</time>
      </trkpt>
      <trkpt lat="47.50647" lon="6.84425">
        <ele>326.9</ele>
        <time>2025-09-13T10:50:21Z</time>
      </trkpt>
      <trkpt lat="47.50642" lon="6.84419">
        <ele>327</ele>
        <time>2025-09-13T10:50:22Z</time>
      </trkpt>
      <trkpt lat="47.50638" lon="6.84412">
        <ele>327</ele>
        <time>2025-09-13T10:50:23Z</time>
      </trkpt>
      <trkpt lat="47.50634" lon="6.84406">
        <ele>327.1</ele>
        <time>2025-09-13T10:50:24Z</time>
      </trkpt>
      <trkpt lat="47.5063" lon="6.84398">
        <ele>327.1</ele>
        <time>2025-09-13T10:50:25Z</time>
      </trkpt>
      <trkpt lat="47.50625" lon="6.84393">
        <ele>327.2</ele>
        <time>2025-09-13T10:50:26Z</time>
      </trkpt>
      <trkpt lat="47.5062" lon="6.84385">
        <ele>327.3</ele>
        <time>2025-09-13T10:50:27Z</time>
      </trkpt>
      <trkpt lat="47.50616" lon="6.84378">
        <ele>327.4</ele>
        <time>2025-09-13T10:50:28Z</time>
      </trkpt>
      <trkpt lat="47.50611" lon="6.8437">
        <ele>327.5</ele>
        <time>2025-09-13T10:50:29Z</time>
      </trkpt>
      <trkpt lat="47.50608" lon="6.84363">
        <ele>327.5</ele>
        <time>2025-09-13T10:50:30Z</time>
      </trkpt>
      <trkpt lat="47.50606" lon="6.84354">
        <ele>327.6</ele>
        <time>2025-09-13T10:50:31Z</time>
      </trkpt>
      <trkpt lat="47.50599" lon="6.84339">
        <ele>327.7</ele>
        <time>2025-09-13T10:50:32Z</time>
      </trkpt>
      <trkpt lat="47.50594" lon="6.84331">
        <ele>328</ele>
        <time>2025-09-13T10:50:33Z</time>
      </trkpt>
      <trkpt lat="47.50588" lon="6.84328">
        <ele>328.1</ele>
        <time>2025-09-13T10:50:34Z</time>
      </trkpt>
      <trkpt lat="47.50583" lon="6.84334">
        <ele>328.1</ele>
        <time>2025-09-13T10:50:35Z</time>
      </trkpt>
      <trkpt lat="47.50578" lon="6.84349">
        <ele>328</ele>
        <time>2025-09-13T10:50:36Z</time>
      </trkpt>
      <trkpt lat="47.50575" lon="6.84359">
        <ele>327.9</ele>
        <time>2025-09-13T10:50:37Z</time>
      </trkpt>
      <trkpt lat="47.5058" lon="6.84372">
        <ele>327.6</ele>
        <time>2025-09-13T10:50:38Z</time>
      </trkpt>
      <trkpt lat="47.50578" lon="6.84384">
        <ele>327.4</ele>
        <time>2025-09-13T10:50:39Z</time>
      </trkpt>
      <trkpt lat="47.50574" lon="6.84394">
        <ele>327.3</ele>
        <time>2025-09-13T10:50:40Z</time>
      </trkpt>
      <trkpt lat="47.5057" lon="6.84404">
        <ele>327.2</ele>
        <time>2025-09-13T10:50:41Z</time>
      </trkpt>
      <trkpt lat="47.50563" lon="6.84407">
        <ele>327.2</ele>
        <time>2025-09-13T10:50:42Z</time>
      </trkpt>
      <trkpt lat="47.50557" lon="6.84405">
        <ele>327.2</ele>
        <time>2025-09-13T10:50:43Z</time>
      </trkpt>
      <trkpt lat="47.50546" lon="6.84401">
        <ele>327.6</ele>
        <time>2025-09-13T10:50:44Z</time>
      </trkpt>
      <trkpt lat="47.5054" lon="6.84393">
        <ele>328.1</ele>
        <time>2025-09-13T10:50:45Z</time>
      </trkpt>
      <trkpt lat="47.50534" lon="6.84387">
        <ele>328.5</ele>
        <time>2025-09-13T10:50:46Z</time>
      </trkpt>
      <trkpt lat="47.50526" lon="6.84384">
        <ele>329</ele>
        <time>2025-09-13T10:50:47Z</time>
      </trkpt>
      <trkpt lat="47.50518" lon="6.84382">
        <ele>329.6</ele>
        <time>2025-09-13T10:50:48Z</time>
      </trkpt>
      <trkpt lat="47.5051" lon="6.84384">
        <ele>330.1</ele>
        <time>2025-09-13T10:50:49Z</time>
      </trkpt>
      <trkpt lat="47.50503" lon="6.84387">
        <ele>330.6</ele>
        <time>2025-09-13T10:50:50Z</time>
      </trkpt>
      <trkpt lat="47.50497" lon="6.84392">
        <ele>331</ele>
        <time>2025-09-13T10:50:51Z</time>
      </trkpt>
      <trkpt lat="47.50492" lon="6.84397">
        <ele>331.4</ele>
        <time>2025-09-13T10:50:52Z</time>
      </trkpt>
      <trkpt lat="47.50486" lon="6.84402">
        <ele>331.7</ele>
        <time>2025-09-13T10:50:53Z</time>
      </trkpt>
      <trkpt lat="47.50481" lon="6.84405">
        <ele>332.2</ele>
        <time>2025-09-13T10:50:54Z</time>
      </trkpt>
      <trkpt lat="47.50474" lon="6.84405">
        <ele>332.8</ele>
        <time>2025-09-13T10:50:55Z</time>
      </trkpt>
      <trkpt lat="47.50467" lon="6.84403">
        <ele>333.3</ele>
        <time>2025-09-13T10:50:56Z</time>
      </trkpt>
      <trkpt lat="47.50461" lon="6.84398">
        <ele>333.2</ele>
        <time>2025-09-13T10:50:57Z</time>
      </trkpt>
      <trkpt lat="47.50456" lon="6.84393">
        <ele>333.2</ele>
        <time>2025-09-13T10:50:58Z</time>
      </trkpt>
      <trkpt lat="47.5045" lon="6.84389">
        <ele>333.2</ele>
        <time>2025-09-13T10:50:59Z</time>
      </trkpt>
      <trkpt lat="47.50444" lon="6.84383">
        <ele>333.3</ele>
        <time>2025-09-13T10:51:00Z</time>
      </trkpt>
      <trkpt lat="47.5044" lon="6.84377">
        <ele>333.3</ele>
        <time>2025-09-13T10:51:01Z</time>
      </trkpt>
      <trkpt lat="47.50435" lon="6.8437">
        <ele>333.3</ele>
        <time>2025-09-13T10:51:02Z</time>
      </trkpt>
      <trkpt lat="47.50431" lon="6.84362">
        <ele>333.4</ele>
        <time>2025-09-13T10:51:03Z</time>
      </trkpt>
      <trkpt lat="47.50427" lon="6.84354">
        <ele>333.4</ele>
        <time>2025-09-13T10:51:04Z</time>
      </trkpt>
      <trkpt lat="47.50424" lon="6.84346">
        <ele>333.5</ele>
        <time>2025-09-13T10:51:05Z</time>
      </trkpt>
      <trkpt lat="47.5042" lon="6.84337">
        <ele>333.5</ele>
        <time>2025-09-13T10:51:06Z</time>
      </trkpt>
      <trkpt lat="47.50416" lon="6.8433">
        <ele>333.6</ele>
        <time>2025-09-13T10:51:07Z</time>
      </trkpt>
      <trkpt lat="47.50412" lon="6.84322">
        <ele>333.6</ele>
        <time>2025-09-13T10:51:08Z</time>
      </trkpt>
      <trkpt lat="47.50408" lon="6.84314">
        <ele>333.7</ele>
        <time>2025-09-13T10:51:09Z</time>
      </trkpt>
      <trkpt lat="47.50404" lon="6.84304">
        <ele>333.8</ele>
        <time>2025-09-13T10:51:10Z</time>
      </trkpt>
      <trkpt lat="47.504" lon="6.84296">
        <ele>333.9</ele>
        <time>2025-09-13T10:51:11Z</time>
      </trkpt>
      <trkpt lat="47.50396" lon="6.84287">
        <ele>334</ele>
        <time>2025-09-13T10:51:12Z</time>
      </trkpt>
      <trkpt lat="47.50392" lon="6.84277">
        <ele>334.1</ele>
        <time>2025-09-13T10:51:13Z</time>
      </trkpt>
      <trkpt lat="47.50388" lon="6.84269">
        <ele>334.2</ele>
        <time>2025-09-13T10:51:14Z</time>
      </trkpt>
      <trkpt lat="47.50383" lon="6.8426">
        <ele>334.3</ele>
        <time>2025-09-13T10:51:15Z</time>
      </trkpt>
      <trkpt lat="47.50377" lon="6.84253">
        <ele>334.4</ele>
        <time>2025-09-13T10:51:16Z</time>
      </trkpt>
      <trkpt lat="47.50372" lon="6.84246">
        <ele>334.4</ele>
        <time>2025-09-13T10:51:17Z</time>
      </trkpt>
      <trkpt lat="47.50367" lon="6.8424">
        <ele>334.5</ele>
        <time>2025-09-13T10:51:18Z</time>
      </trkpt>
      <trkpt lat="47.50361" lon="6.84233">
        <ele>334.7</ele>
        <time>2025-09-13T10:51:19Z</time>
      </trkpt>
      <trkpt lat="47.50355" lon="6.84227">
        <ele>334.8</ele>
        <time>2025-09-13T10:51:20Z</time>
      </trkpt>
      <trkpt lat="47.50348" lon="6.84221">
        <ele>335</ele>
        <time>2025-09-13T10:51:21Z</time>
      </trkpt>
      <trkpt lat="47.50342" lon="6.84216">
        <ele>335.2</ele>
        <time>2025-09-13T10:51:22Z</time>
      </trkpt>
      <trkpt lat="47.50335" lon="6.84211">
        <ele>335.4</ele>
        <time>2025-09-13T10:51:23Z</time>
      </trkpt>
      <trkpt lat="47.50328" lon="6.84206">
        <ele>335.6</ele>
        <time>2025-09-13T10:51:24Z</time>
      </trkpt>
      <trkpt lat="47.50321" lon="6.84201">
        <ele>335.8</ele>
        <time>2025-09-13T10:51:25Z</time>
      </trkpt>
      <trkpt lat="47.50315" lon="6.84195">
        <ele>336</ele>
        <time>2025-09-13T10:51:26Z</time>
      </trkpt>
      <trkpt lat="47.50309" lon="6.8419">
        <ele>336</ele>
        <time>2025-09-13T10:51:27Z</time>
      </trkpt>
      <trkpt lat="47.50303" lon="6.84183">
        <ele>336.1</ele>
        <time>2025-09-13T10:51:28Z</time>
      </trkpt>
      <trkpt lat="47.503" lon="6.84179">
        <ele>336.2</ele>
        <time>2025-09-13T10:51:29Z</time>
      </trkpt>
      <trkpt lat="47.50294" lon="6.84176">
        <ele>336.4</ele>
        <time>2025-09-13T10:51:30Z</time>
      </trkpt>
      <trkpt lat="47.50289" lon="6.84178">
        <ele>336.5</ele>
        <time>2025-09-13T10:51:31Z</time>
      </trkpt>
      <trkpt lat="47.50284" lon="6.84184">
        <ele>336.7</ele>
        <time>2025-09-13T10:51:32Z</time>
      </trkpt>
      <trkpt lat="47.50278" lon="6.84194">
        <ele>336.8</ele>
        <time>2025-09-13T10:51:33Z</time>
      </trkpt>
      <trkpt lat="47.50276" lon="6.84201">
        <ele>336.9</ele>
        <time>2025-09-13T10:51:34Z</time>
      </trkpt>
      <trkpt lat="47.50277" lon="6.8421">
        <ele>337</ele>
        <time>2025-09-13T10:51:35Z</time>
      </trkpt>
      <trkpt lat="47.50278" lon="6.8422">
        <ele>337.2</ele>
        <time>2025-09-13T10:51:36Z</time>
      </trkpt>
      <trkpt lat="47.50277" lon="6.84231">
        <ele>337.6</ele>
        <time>2025-09-13T10:51:37Z</time>
      </trkpt>
      <trkpt lat="47.50275" lon="6.84243">
        <ele>338</ele>
        <time>2025-09-13T10:51:38Z</time>
      </trkpt>
      <trkpt lat="47.50271" lon="6.84252">
        <ele>338.4</ele>
        <time>2025-09-13T10:51:39Z</time>
      </trkpt>
      <trkpt lat="47.50267" lon="6.84261">
        <ele>338.9</ele>
        <time>2025-09-13T10:51:40Z</time>
      </trkpt>
      <trkpt lat="47.50261" lon="6.84266">
        <ele>339.3</ele>
        <time>2025-09-13T10:51:41Z</time>
      </trkpt>
      <trkpt lat="47.50254" lon="6.84268">
        <ele>339.8</ele>
        <time>2025-09-13T10:51:42Z</time>
      </trkpt>
      <trkpt lat="47.50248" lon="6.84272">
        <ele>340.1</ele>
        <time>2025-09-13T10:51:43Z</time>
      </trkpt>
      <trkpt lat="47.5024" lon="6.84273">
        <ele>339.7</ele>
        <time>2025-09-13T10:51:44Z</time>
      </trkpt>
      <trkpt lat="47.50232" lon="6.84274">
        <ele>339.3</ele>
        <time>2025-09-13T10:51:45Z</time>
      </trkpt>
      <trkpt lat="47.50224" lon="6.8427">
        <ele>338.9</ele>
        <time>2025-09-13T10:51:46Z</time>
      </trkpt>
      <trkpt lat="47.50218" lon="6.84267">
        <ele>338.6</ele>
        <time>2025-09-13T10:51:47Z</time>
      </trkpt>
      <trkpt lat="47.50212" lon="6.84265">
        <ele>338.4</ele>
        <time>2025-09-13T10:51:48Z</time>
      </trkpt>
      <trkpt lat="47.50205" lon="6.84262">
        <ele>338.1</ele>
        <time>2025-09-13T10:51:49Z</time>
      </trkpt>
      <trkpt lat="47.502" lon="6.8426">
        <ele>337.9</ele>
        <time>2025-09-13T10:51:50Z</time>
      </trkpt>
      <trkpt lat="47.50194" lon="6.84258">
        <ele>337.9</ele>
        <time>2025-09-13T10:51:51Z</time>
      </trkpt>
      <trkpt lat="47.50187" lon="6.84256">
        <ele>338.1</ele>
        <time>2025-09-13T10:51:52Z</time>
      </trkpt>
      <trkpt lat="47.50181" lon="6.84254">
        <ele>338.2</ele>
        <time>2025-09-13T10:51:53Z</time>
      </trkpt>
      <trkpt lat="47.50174" lon="6.84251">
        <ele>338.4</ele>
        <time>2025-09-13T10:51:54Z</time>
      </trkpt>
      <trkpt lat="47.50168" lon="6.84248">
        <ele>338.5</ele>
        <time>2025-09-13T10:51:55Z</time>
      </trkpt>
      <trkpt lat="47.50162" lon="6.84245">
        <ele>338.6</ele>
        <time>2025-09-13T10:51:56Z</time>
      </trkpt>
      <trkpt lat="47.50155" lon="6.84242">
        <ele>338.8</ele>
        <time>2025-09-13T10:51:57Z</time>
      </trkpt>
      <trkpt lat="47.5015" lon="6.84239">
        <ele>339</ele>
        <time>2025-09-13T10:51:58Z</time>
      </trkpt>
      <trkpt lat="47.50142" lon="6.84237">
        <ele>339.1</ele>
        <time>2025-09-13T10:51:59Z</time>
      </trkpt>
      <trkpt lat="47.50136" lon="6.84234">
        <ele>339.2</ele>
        <time>2025-09-13T10:52:00Z</time>
      </trkpt>
      <trkpt lat="47.50129" lon="6.84232">
        <ele>339.3</ele>
        <time>2025-09-13T10:52:01Z</time>
      </trkpt>
      <trkpt lat="47.50122" lon="6.8423">
        <ele>339.4</ele>
        <time>2025-09-13T10:52:02Z</time>
      </trkpt>
      <trkpt lat="47.50116" lon="6.84229">
        <ele>339.5</ele>
        <time>2025-09-13T10:52:03Z</time>
      </trkpt>
      <trkpt lat="47.50108" lon="6.84227">
        <ele>339.5</ele>
        <time>2025-09-13T10:52:04Z</time>
      </trkpt>
      <trkpt lat="47.501" lon="6.84222">
        <ele>339.5</ele>
        <time>2025-09-13T10:52:05Z</time>
      </trkpt>
      <trkpt lat="47.50093" lon="6.84217">
        <ele>339.5</ele>
        <time>2025-09-13T10:52:06Z</time>
      </trkpt>
      <trkpt lat="47.50085" lon="6.84213">
        <ele>339.5</ele>
        <time>2025-09-13T10:52:07Z</time>
      </trkpt>
      <trkpt lat="47.50079" lon="6.84209">
        <ele>339.5</ele>
        <time>2025-09-13T10:52:08Z</time>
      </trkpt>
      <trkpt lat="47.50072" lon="6.84203">
        <ele>339.5</ele>
        <time>2025-09-13T10:52:09Z</time>
      </trkpt>
      <trkpt lat="47.50066" lon="6.84198">
        <ele>339.5</ele>
        <time>2025-09-13T10:52:10Z</time>
      </trkpt>
      <trkpt lat="47.50058" lon="6.8419">
        <ele>339.6</ele>
        <time>2025-09-13T10:52:11Z</time>
      </trkpt>
      <trkpt lat="47.50052" lon="6.84184">
        <ele>339.6</ele>
        <time>2025-09-13T10:52:12Z</time>
      </trkpt>
      <trkpt lat="47.50045" lon="6.84179">
        <ele>339.5</ele>
        <time>2025-09-13T10:52:13Z</time>
      </trkpt>
      <trkpt lat="47.50039" lon="6.84173">
        <ele>339.5</ele>
        <time>2025-09-13T10:52:14Z</time>
      </trkpt>
      <trkpt lat="47.5003" lon="6.84169">
        <ele>339.4</ele>
        <time>2025-09-13T10:52:15Z</time>
      </trkpt>
      <trkpt lat="47.50023" lon="6.84164">
        <ele>339.3</ele>
        <time>2025-09-13T10:52:16Z</time>
      </trkpt>
      <trkpt lat="47.50015" lon="6.8416">
        <ele>339.3</ele>
        <time>2025-09-13T10:52:17Z</time>
      </trkpt>
      <trkpt lat="47.50008" lon="6.84157">
        <ele>339.2</ele>
        <time>2025-09-13T10:52:18Z</time>
      </trkpt>
      <trkpt lat="47.50001" lon="6.84153">
        <ele>339.2</ele>
        <time>2025-09-13T10:52:19Z</time>
      </trkpt>
      <trkpt lat="47.49994" lon="6.8415">
        <ele>339.2</ele>
        <time>2025-09-13T10:52:20Z</time>
      </trkpt>
      <trkpt lat="47.49985" lon="6.84147">
        <ele>339.2</ele>
        <time>2025-09-13T10:52:21Z</time>
      </trkpt>
      <trkpt lat="47.49975" lon="6.84146">
        <ele>339.2</ele>
        <time>2025-09-13T10:52:22Z</time>
      </trkpt>
      <trkpt lat="47.49968" lon="6.84144">
        <ele>339.2</ele>
        <time>2025-09-13T10:52:23Z</time>
      </trkpt>
      <trkpt lat="47.4996" lon="6.84144">
        <ele>339.2</ele>
        <time>2025-09-13T10:52:24Z</time>
      </trkpt>
      <trkpt lat="47.49952" lon="6.84143">
        <ele>339.2</ele>
        <time>2025-09-13T10:52:25Z</time>
      </trkpt>
      <trkpt lat="47.49943" lon="6.84141">
        <ele>339.2</ele>
        <time>2025-09-13T10:52:26Z</time>
      </trkpt>
      <trkpt lat="47.49934" lon="6.8414">
        <ele>339.1</ele>
        <time>2025-09-13T10:52:27Z</time>
      </trkpt>
      <trkpt lat="47.49927" lon="6.84138">
        <ele>339</ele>
        <time>2025-09-13T10:52:28Z</time>
      </trkpt>
      <trkpt lat="47.49918" lon="6.84134">
        <ele>338.9</ele>
        <time>2025-09-13T10:52:29Z</time>
      </trkpt>
      <trkpt lat="47.49908" lon="6.8413">
        <ele>338.7</ele>
        <time>2025-09-13T10:52:30Z</time>
      </trkpt>
      <trkpt lat="47.499" lon="6.84125">
        <ele>338.4</ele>
        <time>2025-09-13T10:52:31Z</time>
      </trkpt>
      <trkpt lat="47.49892" lon="6.84121">
        <ele>338.1</ele>
        <time>2025-09-13T10:52:32Z</time>
      </trkpt>
      <trkpt lat="47.49885" lon="6.84114">
        <ele>337.9</ele>
        <time>2025-09-13T10:52:33Z</time>
      </trkpt>
      <trkpt lat="47.49878" lon="6.84105">
        <ele>337.6</ele>
        <time>2025-09-13T10:52:34Z</time>
      </trkpt>
      <trkpt lat="47.4987" lon="6.84096">
        <ele>337.4</ele>
        <time>2025-09-13T10:52:35Z</time>
      </trkpt>
      <trkpt lat="47.49862" lon="6.84087">
        <ele>337</ele>
        <time>2025-09-13T10:52:36Z</time>
      </trkpt>
      <trkpt lat="47.49854" lon="6.8408">
        <ele>336.5</ele>
        <time>2025-09-13T10:52:37Z</time>
      </trkpt>
      <trkpt lat="47.49844" lon="6.84073">
        <ele>335.9</ele>
        <time>2025-09-13T10:52:38Z</time>
      </trkpt>
      <trkpt lat="47.49835" lon="6.84066">
        <ele>335.4</ele>
        <time>2025-09-13T10:52:39Z</time>
      </trkpt>
      <trkpt lat="47.49826" lon="6.84058">
        <ele>334.7</ele>
        <time>2025-09-13T10:52:40Z</time>
      </trkpt>
      <trkpt lat="47.49816" lon="6.84052">
        <ele>334.1</ele>
        <time>2025-09-13T10:52:41Z</time>
      </trkpt>
      <trkpt lat="47.49807" lon="6.84047">
        <ele>333.4</ele>
        <time>2025-09-13T10:52:42Z</time>
      </trkpt>
      <trkpt lat="47.49796" lon="6.84041">
        <ele>332.7</ele>
        <time>2025-09-13T10:52:43Z</time>
      </trkpt>
      <trkpt lat="47.49785" lon="6.84035">
        <ele>332.1</ele>
        <time>2025-09-13T10:52:44Z</time>
      </trkpt>
      <trkpt lat="47.49773" lon="6.84031">
        <ele>331.3</ele>
        <time>2025-09-13T10:52:45Z</time>
      </trkpt>
      <trkpt lat="47.49762" lon="6.84027">
        <ele>330.6</ele>
        <time>2025-09-13T10:52:46Z</time>
      </trkpt>
      <trkpt lat="47.4975" lon="6.84024">
        <ele>329.9</ele>
        <time>2025-09-13T10:52:47Z</time>
      </trkpt>
      <trkpt lat="47.49739" lon="6.84022">
        <ele>329.4</ele>
        <time>2025-09-13T10:52:48Z</time>
      </trkpt>
      <trkpt lat="47.49724" lon="6.84022">
        <ele>329.1</ele>
        <time>2025-09-13T10:52:49Z</time>
      </trkpt>
      <trkpt lat="47.49713" lon="6.84021">
        <ele>328.9</ele>
        <time>2025-09-13T10:52:50Z</time>
      </trkpt>
      <trkpt lat="47.49701" lon="6.84019">
        <ele>327.9</ele>
        <time>2025-09-13T10:52:51Z</time>
      </trkpt>
      <trkpt lat="47.49689" lon="6.84019">
        <ele>326.4</ele>
        <time>2025-09-13T10:52:52Z</time>
      </trkpt>
      <trkpt lat="47.49677" lon="6.84018">
        <ele>325</ele>
        <time>2025-09-13T10:52:53Z</time>
      </trkpt>
      <trkpt lat="47.49665" lon="6.84016">
        <ele>323.6</ele>
        <time>2025-09-13T10:52:54Z</time>
      </trkpt>
      <trkpt lat="47.49653" lon="6.84015">
        <ele>323.1</ele>
        <time>2025-09-13T10:52:55Z</time>
      </trkpt>
      <trkpt lat="47.49639" lon="6.84013">
        <ele>322.7</ele>
        <time>2025-09-13T10:52:56Z</time>
      </trkpt>
      <trkpt lat="47.49627" lon="6.8401">
        <ele>322.4</ele>
        <time>2025-09-13T10:52:57Z</time>
      </trkpt>
      <trkpt lat="47.49615" lon="6.84008">
        <ele>322</ele>
        <time>2025-09-13T10:52:58Z</time>
      </trkpt>
      <trkpt lat="47.49604" lon="6.84007">
        <ele>321.8</ele>
        <time>2025-09-13T10:52:59Z</time>
      </trkpt>
      <trkpt lat="47.49593" lon="6.84006">
        <ele>321.7</ele>
        <time>2025-09-13T10:53:00Z</time>
      </trkpt>
      <trkpt lat="47.49581" lon="6.84004">
        <ele>321.6</ele>
        <time>2025-09-13T10:53:01Z</time>
      </trkpt>
      <trkpt lat="47.49569" lon="6.84003">
        <ele>321.5</ele>
        <time>2025-09-13T10:53:02Z</time>
      </trkpt>
      <trkpt lat="47.49559" lon="6.84003">
        <ele>321.4</ele>
        <time>2025-09-13T10:53:03Z</time>
      </trkpt>
      <trkpt lat="47.49548" lon="6.84002">
        <ele>321.3</ele>
        <time>2025-09-13T10:53:04Z</time>
      </trkpt>
      <trkpt lat="47.49538" lon="6.84001">
        <ele>321.3</ele>
        <time>2025-09-13T10:53:05Z</time>
      </trkpt>
      <trkpt lat="47.49528" lon="6.84">
        <ele>321.3</ele>
        <time>2025-09-13T10:53:06Z</time>
      </trkpt>
      <trkpt lat="47.49518" lon="6.83998">
        <ele>321.4</ele>
        <time>2025-09-13T10:53:07Z</time>
      </trkpt>
      <trkpt lat="47.49511" lon="6.83997">
        <ele>321.4</ele>
        <time>2025-09-13T10:53:08Z</time>
      </trkpt>
      <trkpt lat="47.49502" lon="6.83995">
        <ele>321.5</ele>
        <time>2025-09-13T10:53:09Z</time>
      </trkpt>
      <trkpt lat="47.49493" lon="6.83991">
        <ele>321.7</ele>
        <time>2025-09-13T10:53:10Z</time>
      </trkpt>
      <trkpt lat="47.49484" lon="6.83987">
        <ele>321.9</ele>
        <time>2025-09-13T10:53:11Z</time>
      </trkpt>
      <trkpt lat="47.49474" lon="6.8398">
        <ele>322</ele>
        <time>2025-09-13T10:53:12Z</time>
      </trkpt>
      <trkpt lat="47.49468" lon="6.83973">
        <ele>322.1</ele>
        <time>2025-09-13T10:53:13Z</time>
      </trkpt>
      <trkpt lat="47.4946" lon="6.83963">
        <ele>322.1</ele>
        <time>2025-09-13T10:53:14Z</time>
      </trkpt>
      <trkpt lat="47.49455" lon="6.83951">
        <ele>322</ele>
        <time>2025-09-13T10:53:15Z</time>
      </trkpt>
      <trkpt lat="47.49451" lon="6.8394">
        <ele>322</ele>
        <time>2025-09-13T10:53:16Z</time>
      </trkpt>
      <trkpt lat="47.49447" lon="6.83927">
        <ele>321.8</ele>
        <time>2025-09-13T10:53:17Z</time>
      </trkpt>
      <trkpt lat="47.49442" lon="6.83915">
        <ele>321.4</ele>
        <time>2025-09-13T10:53:18Z</time>
      </trkpt>
      <trkpt lat="47.49432" lon="6.83909">
        <ele>320.9</ele>
        <time>2025-09-13T10:53:19Z</time>
      </trkpt>
      <trkpt lat="47.49421" lon="6.83907">
        <ele>320.7</ele>
        <time>2025-09-13T10:53:20Z</time>
      </trkpt>
      <trkpt lat="47.49412" lon="6.83906">
        <ele>320.5</ele>
        <time>2025-09-13T10:53:21Z</time>
      </trkpt>
      <trkpt lat="47.49402" lon="6.83904">
        <ele>320.3</ele>
        <time>2025-09-13T10:53:22Z</time>
      </trkpt>
      <trkpt lat="47.49392" lon="6.83901">
        <ele>320</ele>
        <time>2025-09-13T10:53:23Z</time>
      </trkpt>
      <trkpt lat="47.49381" lon="6.83896">
        <ele>319.8</ele>
        <time>2025-09-13T10:53:24Z</time>
      </trkpt>
      <trkpt lat="47.49372" lon="6.8389">
        <ele>319.7</ele>
        <time>2025-09-13T10:53:25Z</time>
      </trkpt>
      <trkpt lat="47.49363" lon="6.83886">
        <ele>319.6</ele>
        <time>2025-09-13T10:53:26Z</time>
      </trkpt>
      <trkpt lat="47.49353" lon="6.83882">
        <ele>319.6</ele>
        <time>2025-09-13T10:53:27Z</time>
      </trkpt>
      <trkpt lat="47.49345" lon="6.8388">
        <ele>319.5</ele>
        <time>2025-09-13T10:53:28Z</time>
      </trkpt>
      <trkpt lat="47.49336" lon="6.83877">
        <ele>319.5</ele>
        <time>2025-09-13T10:53:29Z</time>
      </trkpt>
      <trkpt lat="47.49325" lon="6.83879">
        <ele>319.6</ele>
        <time>2025-09-13T10:53:30Z</time>
      </trkpt>
      <trkpt lat="47.49315" lon="6.83879">
        <ele>319.6</ele>
        <time>2025-09-13T10:53:31Z</time>
      </trkpt>
      <trkpt lat="47.49307" lon="6.83878">
        <ele>319.6</ele>
        <time>2025-09-13T10:53:32Z</time>
      </trkpt>
      <trkpt lat="47.49298" lon="6.83878">
        <ele>319.6</ele>
        <time>2025-09-13T10:53:33Z</time>
      </trkpt>
      <trkpt lat="47.49288" lon="6.8388">
        <ele>319.6</ele>
        <time>2025-09-13T10:53:34Z</time>
      </trkpt>
      <trkpt lat="47.4928" lon="6.83885">
        <ele>319.7</ele>
        <time>2025-09-13T10:53:35Z</time>
      </trkpt>
      <trkpt lat="47.49271" lon="6.83888">
        <ele>319.7</ele>
        <time>2025-09-13T10:53:36Z</time>
      </trkpt>
      <trkpt lat="47.49262" lon="6.83892">
        <ele>319.8</ele>
        <time>2025-09-13T10:53:37Z</time>
      </trkpt>
      <trkpt lat="47.49255" lon="6.83896">
        <ele>319.8</ele>
        <time>2025-09-13T10:53:38Z</time>
      </trkpt>
      <trkpt lat="47.49246" lon="6.83902">
        <ele>319.7</ele>
        <time>2025-09-13T10:53:39Z</time>
      </trkpt>
      <trkpt lat="47.49238" lon="6.83906">
        <ele>319.7</ele>
        <time>2025-09-13T10:53:40Z</time>
      </trkpt>
      <trkpt lat="47.49231" lon="6.83911">
        <ele>319.7</ele>
        <time>2025-09-13T10:53:41Z</time>
      </trkpt>
      <trkpt lat="47.49223" lon="6.83917">
        <ele>319.7</ele>
        <time>2025-09-13T10:53:42Z</time>
      </trkpt>
      <trkpt lat="47.49214" lon="6.83923">
        <ele>319.7</ele>
        <time>2025-09-13T10:53:43Z</time>
      </trkpt>
      <trkpt lat="47.49208" lon="6.83927">
        <ele>319.7</ele>
        <time>2025-09-13T10:53:44Z</time>
      </trkpt>
      <trkpt lat="47.49203" lon="6.8393">
        <ele>319.7</ele>
        <time>2025-09-13T10:53:45Z</time>
      </trkpt>
      <trkpt lat="47.49196" lon="6.83935">
        <ele>319.7</ele>
        <time>2025-09-13T10:53:46Z</time>
      </trkpt>
      <trkpt lat="47.49188" lon="6.83939">
        <ele>319.7</ele>
        <time>2025-09-13T10:53:47Z</time>
      </trkpt>
      <trkpt lat="47.4918" lon="6.83944">
        <ele>319.7</ele>
        <time>2025-09-13T10:53:48Z</time>
      </trkpt>
      <trkpt lat="47.49172" lon="6.83948">
        <ele>319.7</ele>
        <time>2025-09-13T10:53:49Z</time>
      </trkpt>
      <trkpt lat="47.49163" lon="6.83952">
        <ele>319.8</ele>
        <time>2025-09-13T10:53:50Z</time>
      </trkpt>
      <trkpt lat="47.49156" lon="6.83956">
        <ele>319.8</ele>
        <time>2025-09-13T10:53:51Z</time>
      </trkpt>
      <trkpt lat="47.49148" lon="6.83961">
        <ele>319.7</ele>
        <time>2025-09-13T10:53:52Z</time>
      </trkpt>
      <trkpt lat="47.4914" lon="6.83966">
        <ele>319.7</ele>
        <time>2025-09-13T10:53:53Z</time>
      </trkpt>
      <trkpt lat="47.49132" lon="6.8397">
        <ele>319.7</ele>
        <time>2025-09-13T10:53:54Z</time>
      </trkpt>
      <trkpt lat="47.49125" lon="6.83975">
        <ele>319.7</ele>
        <time>2025-09-13T10:53:55Z</time>
      </trkpt>
      <trkpt lat="47.49117" lon="6.83979">
        <ele>319.8</ele>
        <time>2025-09-13T10:53:56Z</time>
      </trkpt>
      <trkpt lat="47.49109" lon="6.83983">
        <ele>319.8</ele>
        <time>2025-09-13T10:53:57Z</time>
      </trkpt>
      <trkpt lat="47.49101" lon="6.83987">
        <ele>319.9</ele>
        <time>2025-09-13T10:53:58Z</time>
      </trkpt>
      <trkpt lat="47.49093" lon="6.83992">
        <ele>319.9</ele>
        <time>2025-09-13T10:53:59Z</time>
      </trkpt>
      <trkpt lat="47.49085" lon="6.83996">
        <ele>319.9</ele>
        <time>2025-09-13T10:54:00Z</time>
      </trkpt>
      <trkpt lat="47.49077" lon="6.84">
        <ele>319.9</ele>
        <time>2025-09-13T10:54:01Z</time>
      </trkpt>
      <trkpt lat="47.4907" lon="6.84004">
        <ele>319.9</ele>
        <time>2025-09-13T10:54:02Z</time>
      </trkpt>
      <trkpt lat="47.49061" lon="6.8401">
        <ele>319.9</ele>
        <time>2025-09-13T10:54:03Z</time>
      </trkpt>
      <trkpt lat="47.49054" lon="6.84014">
        <ele>319.9</ele>
        <time>2025-09-13T10:54:04Z</time>
      </trkpt>
      <trkpt lat="47.49046" lon="6.84018">
        <ele>320</ele>
        <time>2025-09-13T10:54:05Z</time>
      </trkpt>
      <trkpt lat="47.49038" lon="6.84023">
        <ele>320</ele>
        <time>2025-09-13T10:54:06Z</time>
      </trkpt>
      <trkpt lat="47.4903" lon="6.84026">
        <ele>320</ele>
        <time>2025-09-13T10:54:07Z</time>
      </trkpt>
      <trkpt lat="47.49022" lon="6.84032">
        <ele>320</ele>
        <time>2025-09-13T10:54:08Z</time>
      </trkpt>
      <trkpt lat="47.49014" lon="6.84037">
        <ele>319.9</ele>
        <time>2025-09-13T10:54:09Z</time>
      </trkpt>
      <trkpt lat="47.49006" lon="6.84041">
        <ele>319.9</ele>
        <time>2025-09-13T10:54:10Z</time>
      </trkpt>
      <trkpt lat="47.48997" lon="6.84045">
        <ele>319.9</ele>
        <time>2025-09-13T10:54:11Z</time>
      </trkpt>
      <trkpt lat="47.48989" lon="6.84049">
        <ele>319.9</ele>
        <time>2025-09-13T10:54:12Z</time>
      </trkpt>
      <trkpt lat="47.48981" lon="6.84054">
        <ele>319.9</ele>
        <time>2025-09-13T10:54:13Z</time>
      </trkpt>
      <trkpt lat="47.48973" lon="6.84058">
        <ele>319.8</ele>
        <time>2025-09-13T10:54:14Z</time>
      </trkpt>
      <trkpt lat="47.48965" lon="6.84061">
        <ele>319.8</ele>
        <time>2025-09-13T10:54:15Z</time>
      </trkpt>
      <trkpt lat="47.48956" lon="6.84065">
        <ele>319.7</ele>
        <time>2025-09-13T10:54:16Z</time>
      </trkpt>
      <trkpt lat="47.48947" lon="6.84067">
        <ele>319.7</ele>
        <time>2025-09-13T10:54:17Z</time>
      </trkpt>
      <trkpt lat="47.48939" lon="6.84069">
        <ele>319.7</ele>
        <time>2025-09-13T10:54:18Z</time>
      </trkpt>
      <trkpt lat="47.4893" lon="6.84072">
        <ele>319.7</ele>
        <time>2025-09-13T10:54:19Z</time>
      </trkpt>
      <trkpt lat="47.48921" lon="6.84073">
        <ele>319.6</ele>
        <time>2025-09-13T10:54:20Z</time>
      </trkpt>
      <trkpt lat="47.48913" lon="6.84075">
        <ele>319.6</ele>
        <time>2025-09-13T10:54:21Z</time>
      </trkpt>
      <trkpt lat="47.48905" lon="6.84077">
        <ele>319.6</ele>
        <time>2025-09-13T10:54:22Z</time>
      </trkpt>
      <trkpt lat="47.48896" lon="6.8408">
        <ele>319.6</ele>
        <time>2025-09-13T10:54:23Z</time>
      </trkpt>
      <trkpt lat="47.48887" lon="6.84082">
        <ele>319.6</ele>
        <time>2025-09-13T10:54:24Z</time>
      </trkpt>
      <trkpt lat="47.48879" lon="6.84084">
        <ele>319.6</ele>
        <time>2025-09-13T10:54:25Z</time>
      </trkpt>
      <trkpt lat="47.48872" lon="6.84086">
        <ele>319.6</ele>
        <time>2025-09-13T10:54:26Z</time>
      </trkpt>
      <trkpt lat="47.48863" lon="6.84088">
        <ele>319.6</ele>
        <time>2025-09-13T10:54:27Z</time>
      </trkpt>
      <trkpt lat="47.48855" lon="6.84089">
        <ele>319.6</ele>
        <time>2025-09-13T10:54:28Z</time>
      </trkpt>
      <trkpt lat="47.48847" lon="6.84092">
        <ele>319.7</ele>
        <time>2025-09-13T10:54:29Z</time>
      </trkpt>
      <trkpt lat="47.48838" lon="6.84096">
        <ele>319.7</ele>
        <time>2025-09-13T10:54:30Z</time>
      </trkpt>
      <trkpt lat="47.4883" lon="6.84099">
        <ele>319.8</ele>
        <time>2025-09-13T10:54:31Z</time>
      </trkpt>
      <trkpt lat="47.48822" lon="6.84103">
        <ele>319.9</ele>
        <time>2025-09-13T10:54:32Z</time>
      </trkpt>
      <trkpt lat="47.48814" lon="6.84105">
        <ele>319.9</ele>
        <time>2025-09-13T10:54:33Z</time>
      </trkpt>
      <trkpt lat="47.48806" lon="6.84111">
        <ele>320</ele>
        <time>2025-09-13T10:54:34Z</time>
      </trkpt>
      <trkpt lat="47.48801" lon="6.84118">
        <ele>320.1</ele>
        <time>2025-09-13T10:54:35Z</time>
      </trkpt>
      <trkpt lat="47.48794" lon="6.84124">
        <ele>320.2</ele>
        <time>2025-09-13T10:54:36Z</time>
      </trkpt>
      <trkpt lat="47.48788" lon="6.84128">
        <ele>320.3</ele>
        <time>2025-09-13T10:54:37Z</time>
      </trkpt>
      <trkpt lat="47.48781" lon="6.84134">
        <ele>320.5</ele>
        <time>2025-09-13T10:54:38Z</time>
      </trkpt>
      <trkpt lat="47.48776" lon="6.84138">
        <ele>320.6</ele>
        <time>2025-09-13T10:54:39Z</time>
      </trkpt>
      <trkpt lat="47.48769" lon="6.84142">
        <ele>320.9</ele>
        <time>2025-09-13T10:54:40Z</time>
      </trkpt>
      <trkpt lat="47.48762" lon="6.84144">
        <ele>321.1</ele>
        <time>2025-09-13T10:54:41Z</time>
      </trkpt>
      <trkpt lat="47.48755" lon="6.84142">
        <ele>321.1</ele>
        <time>2025-09-13T10:54:42Z</time>
      </trkpt>
      <trkpt lat="47.48747" lon="6.8414">
        <ele>321.1</ele>
        <time>2025-09-13T10:54:43Z</time>
      </trkpt>
      <trkpt lat="47.48738" lon="6.84139">
        <ele>321.1</ele>
        <time>2025-09-13T10:54:44Z</time>
      </trkpt>
      <trkpt lat="47.48731" lon="6.84141">
        <ele>321.1</ele>
        <time>2025-09-13T10:54:45Z</time>
      </trkpt>
      <trkpt lat="47.48724" lon="6.84148">
        <ele>321.2</ele>
        <time>2025-09-13T10:54:46Z</time>
      </trkpt>
      <trkpt lat="47.48718" lon="6.84157">
        <ele>321.2</ele>
        <time>2025-09-13T10:54:47Z</time>
      </trkpt>
      <trkpt lat="47.48714" lon="6.84166">
        <ele>321.3</ele>
        <time>2025-09-13T10:54:48Z</time>
      </trkpt>
      <trkpt lat="47.48709" lon="6.84173">
        <ele>321.3</ele>
        <time>2025-09-13T10:54:49Z</time>
      </trkpt>
      <trkpt lat="47.48702" lon="6.84178">
        <ele>321.4</ele>
        <time>2025-09-13T10:54:50Z</time>
      </trkpt>
      <trkpt lat="47.48695" lon="6.8418">
        <ele>321.5</ele>
        <time>2025-09-13T10:54:51Z</time>
      </trkpt>
      <trkpt lat="47.48686" lon="6.84179">
        <ele>321.6</ele>
        <time>2025-09-13T10:54:52Z</time>
      </trkpt>
      <trkpt lat="47.48679" lon="6.84178">
        <ele>321.7</ele>
        <time>2025-09-13T10:54:53Z</time>
      </trkpt>
      <trkpt lat="47.48671" lon="6.84177">
        <ele>321.7</ele>
        <time>2025-09-13T10:54:54Z</time>
      </trkpt>
      <trkpt lat="47.48664" lon="6.84174">
        <ele>321.7</ele>
        <time>2025-09-13T10:54:55Z</time>
      </trkpt>
      <trkpt lat="47.48657" lon="6.84172">
        <ele>321.7</ele>
        <time>2025-09-13T10:54:56Z</time>
      </trkpt>
      <trkpt lat="47.48651" lon="6.8417">
        <ele>321.8</ele>
        <time>2025-09-13T10:54:57Z</time>
      </trkpt>
      <trkpt lat="47.48643" lon="6.84167">
        <ele>321.8</ele>
        <time>2025-09-13T10:54:58Z</time>
      </trkpt>
      <trkpt lat="47.48638" lon="6.84164">
        <ele>321.9</ele>
        <time>2025-09-13T10:54:59Z</time>
      </trkpt>
      <trkpt lat="47.4863" lon="6.84161">
        <ele>321.9</ele>
        <time>2025-09-13T10:55:00Z</time>
      </trkpt>
      <trkpt lat="47.48622" lon="6.84158">
        <ele>322</ele>
        <time>2025-09-13T10:55:01Z</time>
      </trkpt>
      <trkpt lat="47.48615" lon="6.84156">
        <ele>322.1</ele>
        <time>2025-09-13T10:55:02Z</time>
      </trkpt>
      <trkpt lat="47.48607" lon="6.84153">
        <ele>322.3</ele>
        <time>2025-09-13T10:55:03Z</time>
      </trkpt>
      <trkpt lat="47.48599" lon="6.84151">
        <ele>322.5</ele>
        <time>2025-09-13T10:55:04Z</time>
      </trkpt>
      <trkpt lat="47.48592" lon="6.84148">
        <ele>322.4</ele>
        <time>2025-09-13T10:55:05Z</time>
      </trkpt>
      <trkpt lat="47.48585" lon="6.84146">
        <ele>322.3</ele>
        <time>2025-09-13T10:55:06Z</time>
      </trkpt>
      <trkpt lat="47.48578" lon="6.84144">
        <ele>322.1</ele>
        <time>2025-09-13T10:55:07Z</time>
      </trkpt>
      <trkpt lat="47.4857" lon="6.84141">
        <ele>322</ele>
        <time>2025-09-13T10:55:08Z</time>
      </trkpt>
      <trkpt lat="47.48562" lon="6.84138">
        <ele>321.8</ele>
        <time>2025-09-13T10:55:09Z</time>
      </trkpt>
      <trkpt lat="47.48555" lon="6.84135">
        <ele>321.7</ele>
        <time>2025-09-13T10:55:10Z</time>
      </trkpt>
      <trkpt lat="47.48548" lon="6.84132">
        <ele>321.6</ele>
        <time>2025-09-13T10:55:11Z</time>
      </trkpt>
      <trkpt lat="47.48541" lon="6.84129">
        <ele>321.5</ele>
        <time>2025-09-13T10:55:12Z</time>
      </trkpt>
      <trkpt lat="47.48534" lon="6.84127">
        <ele>321.4</ele>
        <time>2025-09-13T10:55:13Z</time>
      </trkpt>
      <trkpt lat="47.48527" lon="6.84125">
        <ele>321.4</ele>
        <time>2025-09-13T10:55:14Z</time>
      </trkpt>
      <trkpt lat="47.48521" lon="6.84122">
        <ele>321.3</ele>
        <time>2025-09-13T10:55:15Z</time>
      </trkpt>
      <trkpt lat="47.48515" lon="6.8412">
        <ele>321.3</ele>
        <time>2025-09-13T10:55:16Z</time>
      </trkpt>
      <trkpt lat="47.48508" lon="6.84118">
        <ele>321.3</ele>
        <time>2025-09-13T10:55:17Z</time>
      </trkpt>
      <trkpt lat="47.48501" lon="6.84115">
        <ele>321.3</ele>
        <time>2025-09-13T10:55:18Z</time>
      </trkpt>
      <trkpt lat="47.48494" lon="6.84112">
        <ele>321.3</ele>
        <time>2025-09-13T10:55:19Z</time>
      </trkpt>
      <trkpt lat="47.48487" lon="6.84109">
        <ele>321.2</ele>
        <time>2025-09-13T10:55:20Z</time>
      </trkpt>
      <trkpt lat="47.48481" lon="6.84107">
        <ele>321.2</ele>
        <time>2025-09-13T10:55:21Z</time>
      </trkpt>
      <trkpt lat="47.48475" lon="6.84104">
        <ele>321.2</ele>
        <time>2025-09-13T10:55:22Z</time>
      </trkpt>
      <trkpt lat="47.48469" lon="6.84102">
        <ele>321.1</ele>
        <time>2025-09-13T10:55:23Z</time>
      </trkpt>
      <trkpt lat="47.48462" lon="6.841">
        <ele>321.1</ele>
        <time>2025-09-13T10:55:24Z</time>
      </trkpt>
      <trkpt lat="47.48456" lon="6.84098">
        <ele>321.1</ele>
        <time>2025-09-13T10:55:25Z</time>
      </trkpt>
      <trkpt lat="47.4845" lon="6.84097">
        <ele>321.1</ele>
        <time>2025-09-13T10:55:26Z</time>
      </trkpt>
      <trkpt lat="47.48443" lon="6.84094">
        <ele>321</ele>
        <time>2025-09-13T10:55:27Z</time>
      </trkpt>
      <trkpt lat="47.48437" lon="6.8409">
        <ele>321</ele>
        <time>2025-09-13T10:55:28Z</time>
      </trkpt>
      <trkpt lat="47.4843" lon="6.8409">
        <ele>321</ele>
        <time>2025-09-13T10:55:29Z</time>
      </trkpt>
      <trkpt lat="47.48424" lon="6.84086">
        <ele>321</ele>
        <time>2025-09-13T10:55:30Z</time>
      </trkpt>
      <trkpt lat="47.48417" lon="6.84084">
        <ele>321</ele>
        <time>2025-09-13T10:55:31Z</time>
      </trkpt>
      <trkpt lat="47.48409" lon="6.84082">
        <ele>321</ele>
        <time>2025-09-13T10:55:32Z</time>
      </trkpt>
      <trkpt lat="47.48402" lon="6.84079">
        <ele>321</ele>
        <time>2025-09-13T10:55:33Z</time>
      </trkpt>
      <trkpt lat="47.48396" lon="6.84077">
        <ele>321</ele>
        <time>2025-09-13T10:55:34Z</time>
      </trkpt>
      <trkpt lat="47.4839" lon="6.84075">
        <ele>321</ele>
        <time>2025-09-13T10:55:35Z</time>
      </trkpt>
      <trkpt lat="47.48384" lon="6.84072">
        <ele>320.9</ele>
        <time>2025-09-13T10:55:36Z</time>
      </trkpt>
      <trkpt lat="47.48378" lon="6.8407">
        <ele>320.9</ele>
        <time>2025-09-13T10:55:37Z</time>
      </trkpt>
      <trkpt lat="47.48368" lon="6.84068">
        <ele>320.9</ele>
        <time>2025-09-13T10:55:38Z</time>
      </trkpt>
      <trkpt lat="47.48361" lon="6.84066">
        <ele>320.9</ele>
        <time>2025-09-13T10:55:39Z</time>
      </trkpt>
      <trkpt lat="47.48355" lon="6.84063">
        <ele>320.9</ele>
        <time>2025-09-13T10:55:40Z</time>
      </trkpt>
      <trkpt lat="47.48347" lon="6.84061">
        <ele>321</ele>
        <time>2025-09-13T10:55:41Z</time>
      </trkpt>
      <trkpt lat="47.48339" lon="6.84059">
        <ele>321</ele>
        <time>2025-09-13T10:55:42Z</time>
      </trkpt>
      <trkpt lat="47.48332" lon="6.84056">
        <ele>321</ele>
        <time>2025-09-13T10:55:43Z</time>
      </trkpt>
      <trkpt lat="47.48325" lon="6.84052">
        <ele>321</ele>
        <time>2025-09-13T10:55:44Z</time>
      </trkpt>
      <trkpt lat="47.48319" lon="6.8405">
        <ele>321</ele>
        <time>2025-09-13T10:55:45Z</time>
      </trkpt>
      <trkpt lat="47.48312" lon="6.84047">
        <ele>321</ele>
        <time>2025-09-13T10:55:46Z</time>
      </trkpt>
      <trkpt lat="47.48306" lon="6.84045">
        <ele>321.1</ele>
        <time>2025-09-13T10:55:47Z</time>
      </trkpt>
      <trkpt lat="47.48301" lon="6.84041">
        <ele>321.1</ele>
        <time>2025-09-13T10:55:48Z</time>
      </trkpt>
      <trkpt lat="47.48296" lon="6.84033">
        <ele>321.2</ele>
        <time>2025-09-13T10:55:49Z</time>
      </trkpt>
      <trkpt lat="47.48293" lon="6.84023">
        <ele>321.2</ele>
        <time>2025-09-13T10:55:50Z</time>
      </trkpt>
      <trkpt lat="47.48293" lon="6.84016">
        <ele>321.2</ele>
        <time>2025-09-13T10:55:51Z</time>
      </trkpt>
      <trkpt lat="47.48295" lon="6.84006">
        <ele>321.1</ele>
        <time>2025-09-13T10:55:52Z</time>
      </trkpt>
      <trkpt lat="47.483" lon="6.83994">
        <ele>321</ele>
        <time>2025-09-13T10:55:53Z</time>
      </trkpt>
      <trkpt lat="47.48304" lon="6.83984">
        <ele>320.9</ele>
        <time>2025-09-13T10:55:54Z</time>
      </trkpt>
      <trkpt lat="47.48307" lon="6.83974">
        <ele>320.9</ele>
        <time>2025-09-13T10:55:55Z</time>
      </trkpt>
      <trkpt lat="47.4831" lon="6.83966">
        <ele>320.9</ele>
        <time>2025-09-13T10:55:56Z</time>
      </trkpt>
      <trkpt lat="47.48313" lon="6.83958">
        <ele>320.9</ele>
        <time>2025-09-13T10:55:57Z</time>
      </trkpt>
      <trkpt lat="47.48316" lon="6.83949">
        <ele>320.9</ele>
        <time>2025-09-13T10:55:58Z</time>
      </trkpt>
      <trkpt lat="47.4832" lon="6.83939">
        <ele>320.9</ele>
        <time>2025-09-13T10:55:59Z</time>
      </trkpt>
      <trkpt lat="47.48323" lon="6.83928">
        <ele>320.9</ele>
        <time>2025-09-13T10:56:00Z</time>
      </trkpt>
      <trkpt lat="47.48327" lon="6.83918">
        <ele>320.9</ele>
        <time>2025-09-13T10:56:01Z</time>
      </trkpt>
      <trkpt lat="47.48331" lon="6.8391">
        <ele>321</ele>
        <time>2025-09-13T10:56:02Z</time>
      </trkpt>
      <trkpt lat="47.48336" lon="6.83903">
        <ele>321</ele>
        <time>2025-09-13T10:56:03Z</time>
      </trkpt>
      <trkpt lat="47.48342" lon="6.83897">
        <ele>321</ele>
        <time>2025-09-13T10:56:04Z</time>
      </trkpt>
      <trkpt lat="47.48346" lon="6.83889">
        <ele>320.9</ele>
        <time>2025-09-13T10:56:05Z</time>
      </trkpt>
      <trkpt lat="47.4835" lon="6.83883">
        <ele>320.9</ele>
        <time>2025-09-13T10:56:06Z</time>
      </trkpt>
      <trkpt lat="47.48355" lon="6.83876">
        <ele>320.8</ele>
        <time>2025-09-13T10:56:07Z</time>
      </trkpt>
      <trkpt lat="47.4836" lon="6.8387">
        <ele>320.8</ele>
        <time>2025-09-13T10:56:08Z</time>
      </trkpt>
      <trkpt lat="47.48365" lon="6.83863">
        <ele>320.8</ele>
        <time>2025-09-13T10:56:09Z</time>
      </trkpt>
      <trkpt lat="47.48369" lon="6.83857">
        <ele>320.7</ele>
        <time>2025-09-13T10:56:10Z</time>
      </trkpt>
      <trkpt lat="47.48374" lon="6.8385">
        <ele>320.7</ele>
        <time>2025-09-13T10:56:11Z</time>
      </trkpt>
      <trkpt lat="47.48379" lon="6.83843">
        <ele>320.6</ele>
        <time>2025-09-13T10:56:12Z</time>
      </trkpt>
      <trkpt lat="47.48384" lon="6.83835">
        <ele>320.6</ele>
        <time>2025-09-13T10:56:13Z</time>
      </trkpt>
      <trkpt lat="47.48388" lon="6.83827">
        <ele>320.6</ele>
        <time>2025-09-13T10:56:14Z</time>
      </trkpt>
      <trkpt lat="47.48392" lon="6.83819">
        <ele>320.6</ele>
        <time>2025-09-13T10:56:15Z</time>
      </trkpt>
      <trkpt lat="47.48397" lon="6.83811">
        <ele>320.5</ele>
        <time>2025-09-13T10:56:16Z</time>
      </trkpt>
      <trkpt lat="47.484" lon="6.83803">
        <ele>320.5</ele>
        <time>2025-09-13T10:56:17Z</time>
      </trkpt>
      <trkpt lat="47.48403" lon="6.83794">
        <ele>320.5</ele>
        <time>2025-09-13T10:56:18Z</time>
      </trkpt>
      <trkpt lat="47.48406" lon="6.83786">
        <ele>320.5</ele>
        <time>2025-09-13T10:56:19Z</time>
      </trkpt>
      <trkpt lat="47.48408" lon="6.83776">
        <ele>320.5</ele>
        <time>2025-09-13T10:56:20Z</time>
      </trkpt>
      <trkpt lat="47.48411" lon="6.83767">
        <ele>320.5</ele>
        <time>2025-09-13T10:56:21Z</time>
      </trkpt>
      <trkpt lat="47.48414" lon="6.83758">
        <ele>320.5</ele>
        <time>2025-09-13T10:56:22Z</time>
      </trkpt>
      <trkpt lat="47.48416" lon="6.83749">
        <ele>320.5</ele>
        <time>2025-09-13T10:56:23Z</time>
      </trkpt>
      <trkpt lat="47.48418" lon="6.8374">
        <ele>320.4</ele>
        <time>2025-09-13T10:56:24Z</time>
      </trkpt>
      <trkpt lat="47.4842" lon="6.83731">
        <ele>320.4</ele>
        <time>2025-09-13T10:56:25Z</time>
      </trkpt>
      <trkpt lat="47.48422" lon="6.83722">
        <ele>320.4</ele>
        <time>2025-09-13T10:56:26Z</time>
      </trkpt>
      <trkpt lat="47.48424" lon="6.83712">
        <ele>320.4</ele>
        <time>2025-09-13T10:56:27Z</time>
      </trkpt>
      <trkpt lat="47.48426" lon="6.83702">
        <ele>320.4</ele>
        <time>2025-09-13T10:56:28Z</time>
      </trkpt>
      <trkpt lat="47.48429" lon="6.83693">
        <ele>320.4</ele>
        <time>2025-09-13T10:56:29Z</time>
      </trkpt>
      <trkpt lat="47.48431" lon="6.83684">
        <ele>320.4</ele>
        <time>2025-09-13T10:56:30Z</time>
      </trkpt>
      <trkpt lat="47.48433" lon="6.83676">
        <ele>320.3</ele>
        <time>2025-09-13T10:56:31Z</time>
      </trkpt>
      <trkpt lat="47.48437" lon="6.83666">
        <ele>320.3</ele>
        <time>2025-09-13T10:56:32Z</time>
      </trkpt>
      <trkpt lat="47.4844" lon="6.83658">
        <ele>320.3</ele>
        <time>2025-09-13T10:56:33Z</time>
      </trkpt>
      <trkpt lat="47.48443" lon="6.8365">
        <ele>320.3</ele>
        <time>2025-09-13T10:56:34Z</time>
      </trkpt>
      <trkpt lat="47.48447" lon="6.83641">
        <ele>320.3</ele>
        <time>2025-09-13T10:56:35Z</time>
      </trkpt>
      <trkpt lat="47.48451" lon="6.83635">
        <ele>320.3</ele>
        <time>2025-09-13T10:56:36Z</time>
      </trkpt>
      <trkpt lat="47.48457" lon="6.83629">
        <ele>320.3</ele>
        <time>2025-09-13T10:56:37Z</time>
      </trkpt>
      <trkpt lat="47.48462" lon="6.83622">
        <ele>320.3</ele>
        <time>2025-09-13T10:56:38Z</time>
      </trkpt>
      <trkpt lat="47.48467" lon="6.83616">
        <ele>320.3</ele>
        <time>2025-09-13T10:56:39Z</time>
      </trkpt>
      <trkpt lat="47.48472" lon="6.8361">
        <ele>320.3</ele>
        <time>2025-09-13T10:56:40Z</time>
      </trkpt>
      <trkpt lat="47.48477" lon="6.83605">
        <ele>320.3</ele>
        <time>2025-09-13T10:56:41Z</time>
      </trkpt>
      <trkpt lat="47.48482" lon="6.836">
        <ele>320.3</ele>
        <time>2025-09-13T10:56:42Z</time>
      </trkpt>
      <trkpt lat="47.48486" lon="6.83595">
        <ele>320.3</ele>
        <time>2025-09-13T10:56:43Z</time>
      </trkpt>
      <trkpt lat="47.48491" lon="6.83592">
        <ele>320.3</ele>
        <time>2025-09-13T10:56:44Z</time>
      </trkpt>
      <trkpt lat="47.48495" lon="6.8359">
        <ele>320.3</ele>
        <time>2025-09-13T10:56:45Z</time>
      </trkpt>
      <trkpt lat="47.485" lon="6.83587">
        <ele>320.3</ele>
        <time>2025-09-13T10:56:46Z</time>
      </trkpt>
      <trkpt lat="47.48504" lon="6.83581">
        <ele>320.3</ele>
        <time>2025-09-13T10:56:47Z</time>
      </trkpt>
      <trkpt lat="47.48507" lon="6.83575">
        <ele>320.3</ele>
        <time>2025-09-13T10:56:48Z</time>
      </trkpt>
      <trkpt lat="47.4851" lon="6.83569">
        <ele>320.2</ele>
        <time>2025-09-13T10:56:49Z</time>
      </trkpt>
      <trkpt lat="47.48515" lon="6.8356">
        <ele>320.2</ele>
        <time>2025-09-13T10:56:50Z</time>
      </trkpt>
      <trkpt lat="47.48519" lon="6.83553">
        <ele>320.1</ele>
        <time>2025-09-13T10:56:51Z</time>
      </trkpt>
      <trkpt lat="47.48523" lon="6.83547">
        <ele>320.1</ele>
        <time>2025-09-13T10:56:52Z</time>
      </trkpt>
      <trkpt lat="47.48528" lon="6.8354">
        <ele>320.1</ele>
        <time>2025-09-13T10:56:53Z</time>
      </trkpt>
      <trkpt lat="47.48533" lon="6.83534">
        <ele>320.1</ele>
        <time>2025-09-13T10:56:54Z</time>
      </trkpt>
      <trkpt lat="47.48537" lon="6.83529">
        <ele>320.2</ele>
        <time>2025-09-13T10:56:55Z</time>
      </trkpt>
      <trkpt lat="47.48542" lon="6.83521">
        <ele>320.2</ele>
        <time>2025-09-13T10:56:56Z</time>
      </trkpt>
      <trkpt lat="47.48546" lon="6.83514">
        <ele>320.2</ele>
        <time>2025-09-13T10:56:57Z</time>
      </trkpt>
      <trkpt lat="47.4855" lon="6.83507">
        <ele>320.3</ele>
        <time>2025-09-13T10:56:58Z</time>
      </trkpt>
      <trkpt lat="47.48555" lon="6.83499">
        <ele>320.3</ele>
        <time>2025-09-13T10:56:59Z</time>
      </trkpt>
      <trkpt lat="47.48559" lon="6.83492">
        <ele>320.3</ele>
        <time>2025-09-13T10:57:00Z</time>
      </trkpt>
      <trkpt lat="47.48563" lon="6.83485">
        <ele>320.3</ele>
        <time>2025-09-13T10:57:01Z</time>
      </trkpt>
      <trkpt lat="47.48567" lon="6.83476">
        <ele>320.3</ele>
        <time>2025-09-13T10:57:02Z</time>
      </trkpt>
      <trkpt lat="47.48572" lon="6.83468">
        <ele>320.3</ele>
        <time>2025-09-13T10:57:03Z</time>
      </trkpt>
      <trkpt lat="47.48575" lon="6.83461">
        <ele>320.3</ele>
        <time>2025-09-13T10:57:04Z</time>
      </trkpt>
      <trkpt lat="47.48579" lon="6.83454">
        <ele>320.3</ele>
        <time>2025-09-13T10:57:05Z</time>
      </trkpt>
      <trkpt lat="47.48581" lon="6.83445">
        <ele>320.3</ele>
        <time>2025-09-13T10:57:06Z</time>
      </trkpt>
      <trkpt lat="47.48584" lon="6.83438">
        <ele>320.3</ele>
        <time>2025-09-13T10:57:07Z</time>
      </trkpt>
      <trkpt lat="47.48587" lon="6.83429">
        <ele>320.3</ele>
        <time>2025-09-13T10:57:08Z</time>
      </trkpt>
      <trkpt lat="47.4859" lon="6.83421">
        <ele>320.3</ele>
        <time>2025-09-13T10:57:09Z</time>
      </trkpt>
      <trkpt lat="47.48593" lon="6.83413">
        <ele>320.3</ele>
        <time>2025-09-13T10:57:10Z</time>
      </trkpt>
      <trkpt lat="47.48597" lon="6.83404">
        <ele>320.2</ele>
        <time>2025-09-13T10:57:11Z</time>
      </trkpt>
      <trkpt lat="47.486" lon="6.83395">
        <ele>320.2</ele>
        <time>2025-09-13T10:57:12Z</time>
      </trkpt>
      <trkpt lat="47.48603" lon="6.83386">
        <ele>320.2</ele>
        <time>2025-09-13T10:57:13Z</time>
      </trkpt>
      <trkpt lat="47.48606" lon="6.83376">
        <ele>320.2</ele>
        <time>2025-09-13T10:57:14Z</time>
      </trkpt>
      <trkpt lat="47.48609" lon="6.83366">
        <ele>320.3</ele>
        <time>2025-09-13T10:57:15Z</time>
      </trkpt>
      <trkpt lat="47.48611" lon="6.83356">
        <ele>320.3</ele>
        <time>2025-09-13T10:57:16Z</time>
      </trkpt>
      <trkpt lat="47.48613" lon="6.83346">
        <ele>320.3</ele>
        <time>2025-09-13T10:57:17Z</time>
      </trkpt>
      <trkpt lat="47.48615" lon="6.83337">
        <ele>320.4</ele>
        <time>2025-09-13T10:57:18Z</time>
      </trkpt>
      <trkpt lat="47.48616" lon="6.83328">
        <ele>320.4</ele>
        <time>2025-09-13T10:57:19Z</time>
      </trkpt>
      <trkpt lat="47.48617" lon="6.83318">
        <ele>320.5</ele>
        <time>2025-09-13T10:57:20Z</time>
      </trkpt>
      <trkpt lat="47.48617" lon="6.83308">
        <ele>320.6</ele>
        <time>2025-09-13T10:57:21Z</time>
      </trkpt>
      <trkpt lat="47.48617" lon="6.83298">
        <ele>320.6</ele>
        <time>2025-09-13T10:57:22Z</time>
      </trkpt>
      <trkpt lat="47.48617" lon="6.83287">
        <ele>320.7</ele>
        <time>2025-09-13T10:57:23Z</time>
      </trkpt>
      <trkpt lat="47.48617" lon="6.83278">
        <ele>320.7</ele>
        <time>2025-09-13T10:57:24Z</time>
      </trkpt>
      <trkpt lat="47.48618" lon="6.83268">
        <ele>320.8</ele>
        <time>2025-09-13T10:57:25Z</time>
      </trkpt>
      <trkpt lat="47.48618" lon="6.83257">
        <ele>320.8</ele>
        <time>2025-09-13T10:57:26Z</time>
      </trkpt>
      <trkpt lat="47.48619" lon="6.83246">
        <ele>320.8</ele>
        <time>2025-09-13T10:57:27Z</time>
      </trkpt>
      <trkpt lat="47.48619" lon="6.83237">
        <ele>320.8</ele>
        <time>2025-09-13T10:57:28Z</time>
      </trkpt>
      <trkpt lat="47.48621" lon="6.83228">
        <ele>320.8</ele>
        <time>2025-09-13T10:57:29Z</time>
      </trkpt>
      <trkpt lat="47.48626" lon="6.83219">
        <ele>320.8</ele>
        <time>2025-09-13T10:57:30Z</time>
      </trkpt>
      <trkpt lat="47.48632" lon="6.83211">
        <ele>320.8</ele>
        <time>2025-09-13T10:57:31Z</time>
      </trkpt>
      <trkpt lat="47.48637" lon="6.83204">
        <ele>320.8</ele>
        <time>2025-09-13T10:57:32Z</time>
      </trkpt>
      <trkpt lat="47.48642" lon="6.83195">
        <ele>320.8</ele>
        <time>2025-09-13T10:57:33Z</time>
      </trkpt>
      <trkpt lat="47.48648" lon="6.83189">
        <ele>320.8</ele>
        <time>2025-09-13T10:57:34Z</time>
      </trkpt>
      <trkpt lat="47.48653" lon="6.83182">
        <ele>320.8</ele>
        <time>2025-09-13T10:57:35Z</time>
      </trkpt>
      <trkpt lat="47.48658" lon="6.83175">
        <ele>320.7</ele>
        <time>2025-09-13T10:57:36Z</time>
      </trkpt>
      <trkpt lat="47.48664" lon="6.83168">
        <ele>320.7</ele>
        <time>2025-09-13T10:57:37Z</time>
      </trkpt>
      <trkpt lat="47.48669" lon="6.83161">
        <ele>320.7</ele>
        <time>2025-09-13T10:57:38Z</time>
      </trkpt>
      <trkpt lat="47.48674" lon="6.83154">
        <ele>320.7</ele>
        <time>2025-09-13T10:57:39Z</time>
      </trkpt>
      <trkpt lat="47.4868" lon="6.83147">
        <ele>320.7</ele>
        <time>2025-09-13T10:57:40Z</time>
      </trkpt>
      <trkpt lat="47.48686" lon="6.83141">
        <ele>320.7</ele>
        <time>2025-09-13T10:57:41Z</time>
      </trkpt>
      <trkpt lat="47.48691" lon="6.83132">
        <ele>320.7</ele>
        <time>2025-09-13T10:57:42Z</time>
      </trkpt>
      <trkpt lat="47.48697" lon="6.83124">
        <ele>320.7</ele>
        <time>2025-09-13T10:57:43Z</time>
      </trkpt>
      <trkpt lat="47.48702" lon="6.83116">
        <ele>320.7</ele>
        <time>2025-09-13T10:57:44Z</time>
      </trkpt>
      <trkpt lat="47.48708" lon="6.83109">
        <ele>320.7</ele>
        <time>2025-09-13T10:57:45Z</time>
      </trkpt>
      <trkpt lat="47.48714" lon="6.83101">
        <ele>320.7</ele>
        <time>2025-09-13T10:57:46Z</time>
      </trkpt>
      <trkpt lat="47.4872" lon="6.83094">
        <ele>320.7</ele>
        <time>2025-09-13T10:57:47Z</time>
      </trkpt>
      <trkpt lat="47.48726" lon="6.83087">
        <ele>320.8</ele>
        <time>2025-09-13T10:57:48Z</time>
      </trkpt>
      <trkpt lat="47.48732" lon="6.8308">
        <ele>320.8</ele>
        <time>2025-09-13T10:57:49Z</time>
      </trkpt>
      <trkpt lat="47.48738" lon="6.83072">
        <ele>320.8</ele>
        <time>2025-09-13T10:57:50Z</time>
      </trkpt>
      <trkpt lat="47.48743" lon="6.83065">
        <ele>320.8</ele>
        <time>2025-09-13T10:57:51Z</time>
      </trkpt>
      <trkpt lat="47.48749" lon="6.83058">
        <ele>320.8</ele>
        <time>2025-09-13T10:57:52Z</time>
      </trkpt>
      <trkpt lat="47.48755" lon="6.8305">
        <ele>320.8</ele>
        <time>2025-09-13T10:57:53Z</time>
      </trkpt>
      <trkpt lat="47.4876" lon="6.83041">
        <ele>320.8</ele>
        <time>2025-09-13T10:57:54Z</time>
      </trkpt>
      <trkpt lat="47.48766" lon="6.83033">
        <ele>320.7</ele>
        <time>2025-09-13T10:57:55Z</time>
      </trkpt>
      <trkpt lat="47.48771" lon="6.83026">
        <ele>320.7</ele>
        <time>2025-09-13T10:57:56Z</time>
      </trkpt>
      <trkpt lat="47.48777" lon="6.83019">
        <ele>320.7</ele>
        <time>2025-09-13T10:57:57Z</time>
      </trkpt>
      <trkpt lat="47.48782" lon="6.83011">
        <ele>320.7</ele>
        <time>2025-09-13T10:57:58Z</time>
      </trkpt>
      <trkpt lat="47.48789" lon="6.83003">
        <ele>320.7</ele>
        <time>2025-09-13T10:57:59Z</time>
      </trkpt>
      <trkpt lat="47.48793" lon="6.82995">
        <ele>320.7</ele>
        <time>2025-09-13T10:58:00Z</time>
      </trkpt>
      <trkpt lat="47.48798" lon="6.82987">
        <ele>320.7</ele>
        <time>2025-09-13T10:58:01Z</time>
      </trkpt>
      <trkpt lat="47.48803" lon="6.82978">
        <ele>320.8</ele>
        <time>2025-09-13T10:58:02Z</time>
      </trkpt>
      <trkpt lat="47.48808" lon="6.8297">
        <ele>320.8</ele>
        <time>2025-09-13T10:58:03Z</time>
      </trkpt>
      <trkpt lat="47.48813" lon="6.82961">
        <ele>320.8</ele>
        <time>2025-09-13T10:58:04Z</time>
      </trkpt>
      <trkpt lat="47.48817" lon="6.82952">
        <ele>320.8</ele>
        <time>2025-09-13T10:58:05Z</time>
      </trkpt>
      <trkpt lat="47.48821" lon="6.82943">
        <ele>320.7</ele>
        <time>2025-09-13T10:58:06Z</time>
      </trkpt>
      <trkpt lat="47.48825" lon="6.82933">
        <ele>320.7</ele>
        <time>2025-09-13T10:58:07Z</time>
      </trkpt>
      <trkpt lat="47.4883" lon="6.82923">
        <ele>320.6</ele>
        <time>2025-09-13T10:58:08Z</time>
      </trkpt>
      <trkpt lat="47.48834" lon="6.82913">
        <ele>320.5</ele>
        <time>2025-09-13T10:58:09Z</time>
      </trkpt>
      <trkpt lat="47.48838" lon="6.82904">
        <ele>320.5</ele>
        <time>2025-09-13T10:58:10Z</time>
      </trkpt>
      <trkpt lat="47.48842" lon="6.82894">
        <ele>320.5</ele>
        <time>2025-09-13T10:58:11Z</time>
      </trkpt>
      <trkpt lat="47.48847" lon="6.82884">
        <ele>320.5</ele>
        <time>2025-09-13T10:58:12Z</time>
      </trkpt>
      <trkpt lat="47.48851" lon="6.82875">
        <ele>320.5</ele>
        <time>2025-09-13T10:58:13Z</time>
      </trkpt>
      <trkpt lat="47.48855" lon="6.82866">
        <ele>320.5</ele>
        <time>2025-09-13T10:58:14Z</time>
      </trkpt>
      <trkpt lat="47.48859" lon="6.82856">
        <ele>320.6</ele>
        <time>2025-09-13T10:58:15Z</time>
      </trkpt>
      <trkpt lat="47.48862" lon="6.82844">
        <ele>320.6</ele>
        <time>2025-09-13T10:58:16Z</time>
      </trkpt>
      <trkpt lat="47.48864" lon="6.82834">
        <ele>320.6</ele>
        <time>2025-09-13T10:58:17Z</time>
      </trkpt>
      <trkpt lat="47.48867" lon="6.82824">
        <ele>320.5</ele>
        <time>2025-09-13T10:58:18Z</time>
      </trkpt>
      <trkpt lat="47.4887" lon="6.82812">
        <ele>320.5</ele>
        <time>2025-09-13T10:58:19Z</time>
      </trkpt>
      <trkpt lat="47.48872" lon="6.82801">
        <ele>320.4</ele>
        <time>2025-09-13T10:58:20Z</time>
      </trkpt>
      <trkpt lat="47.48875" lon="6.82791">
        <ele>320.4</ele>
        <time>2025-09-13T10:58:21Z</time>
      </trkpt>
      <trkpt lat="47.48878" lon="6.8278">
        <ele>320.4</ele>
        <time>2025-09-13T10:58:22Z</time>
      </trkpt>
      <trkpt lat="47.48881" lon="6.8277">
        <ele>320.3</ele>
        <time>2025-09-13T10:58:23Z</time>
      </trkpt>
      <trkpt lat="47.48884" lon="6.82759">
        <ele>320.3</ele>
        <time>2025-09-13T10:58:24Z</time>
      </trkpt>
      <trkpt lat="47.48887" lon="6.82748">
        <ele>320.2</ele>
        <time>2025-09-13T10:58:25Z</time>
      </trkpt>
      <trkpt lat="47.48889" lon="6.82736">
        <ele>320.2</ele>
        <time>2025-09-13T10:58:26Z</time>
      </trkpt>
      <trkpt lat="47.48892" lon="6.82725">
        <ele>320.2</ele>
        <time>2025-09-13T10:58:27Z</time>
      </trkpt>
      <trkpt lat="47.48894" lon="6.82713">
        <ele>320.2</ele>
        <time>2025-09-13T10:58:28Z</time>
      </trkpt>
      <trkpt lat="47.48897" lon="6.82703">
        <ele>320.2</ele>
        <time>2025-09-13T10:58:30Z</time>
      </trkpt>
      <trkpt lat="47.48898" lon="6.82692">
        <ele>320.1</ele>
        <time>2025-09-13T10:58:31Z</time>
      </trkpt>
      <trkpt lat="47.489" lon="6.82682">
        <ele>320.1</ele>
        <time>2025-09-13T10:58:32Z</time>
      </trkpt>
      <trkpt lat="47.48901" lon="6.82671">
        <ele>320.1</ele>
        <time>2025-09-13T10:58:33Z</time>
      </trkpt>
      <trkpt lat="47.48903" lon="6.8266">
        <ele>320.1</ele>
        <time>2025-09-13T10:58:34Z</time>
      </trkpt>
      <trkpt lat="47.48904" lon="6.82648">
        <ele>320.1</ele>
        <time>2025-09-13T10:58:35Z</time>
      </trkpt>
      <trkpt lat="47.48904" lon="6.82639">
        <ele>320.1</ele>
        <time>2025-09-13T10:58:36Z</time>
      </trkpt>
      <trkpt lat="47.48905" lon="6.82627">
        <ele>320.2</ele>
        <time>2025-09-13T10:58:37Z</time>
      </trkpt>
      <trkpt lat="47.48905" lon="6.82616">
        <ele>320.2</ele>
        <time>2025-09-13T10:58:38Z</time>
      </trkpt>
      <trkpt lat="47.48904" lon="6.82606">
        <ele>320.3</ele>
        <time>2025-09-13T10:58:39Z</time>
      </trkpt>
      <trkpt lat="47.48902" lon="6.82595">
        <ele>320.3</ele>
        <time>2025-09-13T10:58:40Z</time>
      </trkpt>
      <trkpt lat="47.48902" lon="6.82585">
        <ele>320.4</ele>
        <time>2025-09-13T10:58:41Z</time>
      </trkpt>
      <trkpt lat="47.48901" lon="6.82576">
        <ele>320.4</ele>
        <time>2025-09-13T10:58:42Z</time>
      </trkpt>
      <trkpt lat="47.48899" lon="6.82566">
        <ele>320.4</ele>
        <time>2025-09-13T10:58:43Z</time>
      </trkpt>
      <trkpt lat="47.48901" lon="6.82558">
        <ele>319.8</ele>
        <time>2025-09-13T10:58:44Z</time>
      </trkpt>
      <trkpt lat="47.48906" lon="6.82553">
        <ele>318.9</ele>
        <time>2025-09-13T10:58:45Z</time>
      </trkpt>
      <trkpt lat="47.48913" lon="6.8255">
        <ele>317.9</ele>
        <time>2025-09-13T10:58:46Z</time>
      </trkpt>
      <trkpt lat="47.48919" lon="6.82549">
        <ele>318</ele>
        <time>2025-09-13T10:58:47Z</time>
      </trkpt>
      <trkpt lat="47.48924" lon="6.82545">
        <ele>318.5</ele>
        <time>2025-09-13T10:58:48Z</time>
      </trkpt>
      <trkpt lat="47.48929" lon="6.82543">
        <ele>318.9</ele>
        <time>2025-09-13T10:58:49Z</time>
      </trkpt>
      <trkpt lat="47.48935" lon="6.8254">
        <ele>319.5</ele>
        <time>2025-09-13T10:58:50Z</time>
      </trkpt>
      <trkpt lat="47.48939" lon="6.82538">
        <ele>319.8</ele>
        <time>2025-09-13T10:58:51Z</time>
      </trkpt>
      <trkpt lat="47.48943" lon="6.82539">
        <ele>320.1</ele>
        <time>2025-09-13T10:58:52Z</time>
      </trkpt>
      <trkpt lat="47.48945" lon="6.82544">
        <ele>320.1</ele>
        <time>2025-09-13T10:58:53Z</time>
      </trkpt>
      <trkpt lat="47.48947" lon="6.8255">
        <ele>320.1</ele>
        <time>2025-09-13T10:58:54Z</time>
      </trkpt>
      <trkpt lat="47.48949" lon="6.8256">
        <ele>320</ele>
        <time>2025-09-13T10:58:55Z</time>
      </trkpt>
      <trkpt lat="47.48952" lon="6.82569">
        <ele>320</ele>
        <time>2025-09-13T10:58:56Z</time>
      </trkpt>
      <trkpt lat="47.48955" lon="6.82577">
        <ele>320</ele>
        <time>2025-09-13T10:58:57Z</time>
      </trkpt>
      <trkpt lat="47.48958" lon="6.82585">
        <ele>320</ele>
        <time>2025-09-13T10:58:58Z</time>
      </trkpt>
      <trkpt lat="47.48961" lon="6.82594">
        <ele>320</ele>
        <time>2025-09-13T10:58:59Z</time>
      </trkpt>
      <trkpt lat="47.48964" lon="6.82602">
        <ele>320</ele>
        <time>2025-09-13T10:59:00Z</time>
      </trkpt>
      <trkpt lat="47.48968" lon="6.82611">
        <ele>320</ele>
        <time>2025-09-13T10:59:01Z</time>
      </trkpt>
      <trkpt lat="47.48971" lon="6.8262">
        <ele>320</ele>
        <time>2025-09-13T10:59:02Z</time>
      </trkpt>
      <trkpt lat="47.48974" lon="6.82629">
        <ele>320</ele>
        <time>2025-09-13T10:59:03Z</time>
      </trkpt>
      <trkpt lat="47.48977" lon="6.82638">
        <ele>320</ele>
        <time>2025-09-13T10:59:04Z</time>
      </trkpt>
      <trkpt lat="47.4898" lon="6.82647">
        <ele>320</ele>
        <time>2025-09-13T10:59:05Z</time>
      </trkpt>
      <trkpt lat="47.48984" lon="6.82655">
        <ele>319.9</ele>
        <time>2025-09-13T10:59:06Z</time>
      </trkpt>
      <trkpt lat="47.48988" lon="6.82665">
        <ele>319.9</ele>
        <time>2025-09-13T10:59:07Z</time>
      </trkpt>
      <trkpt lat="47.48991" lon="6.82674">
        <ele>319.9</ele>
        <time>2025-09-13T10:59:08Z</time>
      </trkpt>
      <trkpt lat="47.48994" lon="6.82684">
        <ele>320</ele>
        <time>2025-09-13T10:59:09Z</time>
      </trkpt>
      <trkpt lat="47.48998" lon="6.82692">
        <ele>320</ele>
        <time>2025-09-13T10:59:10Z</time>
      </trkpt>
      <trkpt lat="47.49001" lon="6.827">
        <ele>320</ele>
        <time>2025-09-13T10:59:11Z</time>
      </trkpt>
      <trkpt lat="47.49004" lon="6.8271">
        <ele>320.1</ele>
        <time>2025-09-13T10:59:12Z</time>
      </trkpt>
      <trkpt lat="47.49007" lon="6.82718">
        <ele>320.1</ele>
        <time>2025-09-13T10:59:13Z</time>
      </trkpt>
      <trkpt lat="47.4901" lon="6.82727">
        <ele>320.1</ele>
        <time>2025-09-13T10:59:14Z</time>
      </trkpt>
      <trkpt lat="47.49014" lon="6.82736">
        <ele>320.1</ele>
        <time>2025-09-13T10:59:15Z</time>
      </trkpt>
      <trkpt lat="47.49017" lon="6.82745">
        <ele>320.1</ele>
        <time>2025-09-13T10:59:16Z</time>
      </trkpt>
      <trkpt lat="47.4902" lon="6.82754">
        <ele>320.1</ele>
        <time>2025-09-13T10:59:17Z</time>
      </trkpt>
      <trkpt lat="47.49024" lon="6.82763">
        <ele>320.1</ele>
        <time>2025-09-13T10:59:18Z</time>
      </trkpt>
      <trkpt lat="47.49027" lon="6.82774">
        <ele>320.2</ele>
        <time>2025-09-13T10:59:19Z</time>
      </trkpt>
      <trkpt lat="47.4903" lon="6.82777">
        <ele>320.2</ele>
        <time>2025-09-13T10:59:20Z</time>
      </trkpt>
      <trkpt lat="47.49033" lon="6.82786">
        <ele>320.2</ele>
        <time>2025-09-13T10:59:21Z</time>
      </trkpt>
      <trkpt lat="47.49034" lon="6.82794">
        <ele>320.2</ele>
        <time>2025-09-13T10:59:22Z</time>
      </trkpt>
      <trkpt lat="47.49038" lon="6.82806">
        <ele>320.3</ele>
        <time>2025-09-13T10:59:23Z</time>
      </trkpt>
      <trkpt lat="47.49042" lon="6.82818">
        <ele>320.3</ele>
        <time>2025-09-13T10:59:24Z</time>
      </trkpt>
      <trkpt lat="47.49044" lon="6.82826">
        <ele>320.4</ele>
        <time>2025-09-13T10:59:25Z</time>
      </trkpt>
      <trkpt lat="47.49047" lon="6.82837">
        <ele>320.4</ele>
        <time>2025-09-13T10:59:26Z</time>
      </trkpt>
      <trkpt lat="47.4905" lon="6.82847">
        <ele>320.5</ele>
        <time>2025-09-13T10:59:27Z</time>
      </trkpt>
      <trkpt lat="47.49051" lon="6.82857">
        <ele>320.6</ele>
        <time>2025-09-13T10:59:28Z</time>
      </trkpt>
      <trkpt lat="47.49053" lon="6.82867">
        <ele>320.7</ele>
        <time>2025-09-13T10:59:29Z</time>
      </trkpt>
      <trkpt lat="47.49058" lon="6.82887">
        <ele>320.9</ele>
        <time>2025-09-13T10:59:30Z</time>
      </trkpt>
      <trkpt lat="47.4906" lon="6.82896">
        <ele>321</ele>
        <time>2025-09-13T10:59:31Z</time>
      </trkpt>
      <trkpt lat="47.49063" lon="6.82905">
        <ele>321.1</ele>
        <time>2025-09-13T10:59:32Z</time>
      </trkpt>
      <trkpt lat="47.49067" lon="6.82914">
        <ele>321.3</ele>
        <time>2025-09-13T10:59:33Z</time>
      </trkpt>
      <trkpt lat="47.49071" lon="6.82923">
        <ele>321.1</ele>
        <time>2025-09-13T10:59:34Z</time>
      </trkpt>
      <trkpt lat="47.49075" lon="6.82931">
        <ele>321</ele>
        <time>2025-09-13T10:59:35Z</time>
      </trkpt>
      <trkpt lat="47.49079" lon="6.8294">
        <ele>320.9</ele>
        <time>2025-09-13T10:59:36Z</time>
      </trkpt>
      <trkpt lat="47.49083" lon="6.82949">
        <ele>320.8</ele>
        <time>2025-09-13T10:59:37Z</time>
      </trkpt>
      <trkpt lat="47.49086" lon="6.82958">
        <ele>320.8</ele>
        <time>2025-09-13T10:59:38Z</time>
      </trkpt>
      <trkpt lat="47.4909" lon="6.82969">
        <ele>320.7</ele>
        <time>2025-09-13T10:59:39Z</time>
      </trkpt>
      <trkpt lat="47.49094" lon="6.82979">
        <ele>320.7</ele>
        <time>2025-09-13T10:59:40Z</time>
      </trkpt>
      <trkpt lat="47.49098" lon="6.8299">
        <ele>320.7</ele>
        <time>2025-09-13T10:59:41Z</time>
      </trkpt>
      <trkpt lat="47.49101" lon="6.83">
        <ele>320.6</ele>
        <time>2025-09-13T10:59:42Z</time>
      </trkpt>
      <trkpt lat="47.49105" lon="6.83011">
        <ele>320.6</ele>
        <time>2025-09-13T10:59:43Z</time>
      </trkpt>
      <trkpt lat="47.49108" lon="6.8302">
        <ele>320.6</ele>
        <time>2025-09-13T10:59:44Z</time>
      </trkpt>
      <trkpt lat="47.49111" lon="6.83031">
        <ele>320.6</ele>
        <time>2025-09-13T10:59:45Z</time>
      </trkpt>
      <trkpt lat="47.49114" lon="6.83041">
        <ele>320.6</ele>
        <time>2025-09-13T10:59:46Z</time>
      </trkpt>
      <trkpt lat="47.49117" lon="6.8305">
        <ele>320.6</ele>
        <time>2025-09-13T10:59:47Z</time>
      </trkpt>
      <trkpt lat="47.49121" lon="6.8306">
        <ele>320.6</ele>
        <time>2025-09-13T10:59:48Z</time>
      </trkpt>
      <trkpt lat="47.49124" lon="6.8307">
        <ele>320.6</ele>
        <time>2025-09-13T10:59:49Z</time>
      </trkpt>
      <trkpt lat="47.49127" lon="6.83081">
        <ele>320.6</ele>
        <time>2025-09-13T10:59:50Z</time>
      </trkpt>
      <trkpt lat="47.4913" lon="6.83091">
        <ele>320.6</ele>
        <time>2025-09-13T10:59:51Z</time>
      </trkpt>
      <trkpt lat="47.49132" lon="6.83101">
        <ele>320.6</ele>
        <time>2025-09-13T10:59:52Z</time>
      </trkpt>
      <trkpt lat="47.49136" lon="6.83112">
        <ele>320.6</ele>
        <time>2025-09-13T10:59:53Z</time>
      </trkpt>
      <trkpt lat="47.49139" lon="6.83123">
        <ele>320.6</ele>
        <time>2025-09-13T10:59:54Z</time>
      </trkpt>
      <trkpt lat="47.49142" lon="6.83133">
        <ele>320.6</ele>
        <time>2025-09-13T10:59:55Z</time>
      </trkpt>
      <trkpt lat="47.49145" lon="6.83143">
        <ele>320.6</ele>
        <time>2025-09-13T10:59:56Z</time>
      </trkpt>
      <trkpt lat="47.49149" lon="6.83153">
        <ele>320.6</ele>
        <time>2025-09-13T10:59:57Z</time>
      </trkpt>
      <trkpt lat="47.49152" lon="6.83163">
        <ele>320.6</ele>
        <time>2025-09-13T10:59:58Z</time>
      </trkpt>
      <trkpt lat="47.49155" lon="6.83174">
        <ele>320.6</ele>
        <time>2025-09-13T10:59:59Z</time>
      </trkpt>
      <trkpt lat="47.49158" lon="6.83183">
        <ele>320.6</ele>
        <time>2025-09-13T11:00:00Z</time>
      </trkpt>
      <trkpt lat="47.49162" lon="6.83193">
        <ele>320.6</ele>
        <time>2025-09-13T11:00:01Z</time>
      </trkpt>
      <trkpt lat="47.49166" lon="6.83202">
        <ele>320.6</ele>
        <time>2025-09-13T11:00:02Z</time>
      </trkpt>
      <trkpt lat="47.49171" lon="6.83211">
        <ele>320.6</ele>
        <time>2025-09-13T11:00:03Z</time>
      </trkpt>
      <trkpt lat="47.49176" lon="6.83219">
        <ele>320.6</ele>
        <time>2025-09-13T11:00:04Z</time>
      </trkpt>
      <trkpt lat="47.49182" lon="6.83227">
        <ele>320.7</ele>
        <time>2025-09-13T11:00:05Z</time>
      </trkpt>
      <trkpt lat="47.49188" lon="6.83234">
        <ele>320.7</ele>
        <time>2025-09-13T11:00:06Z</time>
      </trkpt>
      <trkpt lat="47.49194" lon="6.83242">
        <ele>320.7</ele>
        <time>2025-09-13T11:00:07Z</time>
      </trkpt>
      <trkpt lat="47.492" lon="6.83248">
        <ele>320.7</ele>
        <time>2025-09-13T11:00:08Z</time>
      </trkpt>
      <trkpt lat="47.49206" lon="6.83254">
        <ele>320.8</ele>
        <time>2025-09-13T11:00:09Z</time>
      </trkpt>
      <trkpt lat="47.49212" lon="6.83261">
        <ele>320.8</ele>
        <time>2025-09-13T11:00:10Z</time>
      </trkpt>
      <trkpt lat="47.49218" lon="6.83267">
        <ele>320.9</ele>
        <time>2025-09-13T11:00:11Z</time>
      </trkpt>
      <trkpt lat="47.49224" lon="6.83274">
        <ele>320.9</ele>
        <time>2025-09-13T11:00:12Z</time>
      </trkpt>
      <trkpt lat="47.4923" lon="6.83281">
        <ele>320.9</ele>
        <time>2025-09-13T11:00:13Z</time>
      </trkpt>
      <trkpt lat="47.49235" lon="6.83288">
        <ele>321</ele>
        <time>2025-09-13T11:00:14Z</time>
      </trkpt>
      <trkpt lat="47.49242" lon="6.83295">
        <ele>321</ele>
        <time>2025-09-13T11:00:15Z</time>
      </trkpt>
      <trkpt lat="47.49246" lon="6.833">
        <ele>321</ele>
        <time>2025-09-13T11:00:16Z</time>
      </trkpt>
      <trkpt lat="47.49248" lon="6.83303">
        <ele>321</ele>
        <time>2025-09-13T11:00:17Z</time>
      </trkpt>
      <trkpt lat="47.49252" lon="6.83309">
        <ele>321</ele>
        <time>2025-09-13T11:00:18Z</time>
      </trkpt>
      <trkpt lat="47.49258" lon="6.83314">
        <ele>321</ele>
        <time>2025-09-13T11:00:19Z</time>
      </trkpt>
      <trkpt lat="47.49262" lon="6.83319">
        <ele>321</ele>
        <time>2025-09-13T11:00:20Z</time>
      </trkpt>
      <trkpt lat="47.4927" lon="6.83322">
        <ele>321</ele>
        <time>2025-09-13T11:00:21Z</time>
      </trkpt>
      <trkpt lat="47.49276" lon="6.8332">
        <ele>320.9</ele>
        <time>2025-09-13T11:00:22Z</time>
      </trkpt>
      <trkpt lat="47.49281" lon="6.83315">
        <ele>320.7</ele>
        <time>2025-09-13T11:00:23Z</time>
      </trkpt>
      <trkpt lat="47.49286" lon="6.83309">
        <ele>320.6</ele>
        <time>2025-09-13T11:00:24Z</time>
      </trkpt>
      <trkpt lat="47.49293" lon="6.83304">
        <ele>320.5</ele>
        <time>2025-09-13T11:00:25Z</time>
      </trkpt>
      <trkpt lat="47.493" lon="6.83299">
        <ele>320.4</ele>
        <time>2025-09-13T11:00:26Z</time>
      </trkpt>
      <trkpt lat="47.49306" lon="6.83295">
        <ele>320.3</ele>
        <time>2025-09-13T11:00:27Z</time>
      </trkpt>
      <trkpt lat="47.49312" lon="6.83291">
        <ele>320.2</ele>
        <time>2025-09-13T11:00:28Z</time>
      </trkpt>
      <trkpt lat="47.49319" lon="6.83287">
        <ele>320.1</ele>
        <time>2025-09-13T11:00:29Z</time>
      </trkpt>
      <trkpt lat="47.49326" lon="6.83283">
        <ele>320</ele>
        <time>2025-09-13T11:00:30Z</time>
      </trkpt>
      <trkpt lat="47.49333" lon="6.8328">
        <ele>320</ele>
        <time>2025-09-13T11:00:31Z</time>
      </trkpt>
      <trkpt lat="47.49339" lon="6.83276">
        <ele>319.9</ele>
        <time>2025-09-13T11:00:32Z</time>
      </trkpt>
      <trkpt lat="47.49345" lon="6.83272">
        <ele>319.8</ele>
        <time>2025-09-13T11:00:33Z</time>
      </trkpt>
      <trkpt lat="47.49351" lon="6.83268">
        <ele>319.8</ele>
        <time>2025-09-13T11:00:34Z</time>
      </trkpt>
      <trkpt lat="47.49357" lon="6.83263">
        <ele>319.8</ele>
        <time>2025-09-13T11:00:35Z</time>
      </trkpt>
      <trkpt lat="47.49364" lon="6.83255">
        <ele>319.9</ele>
        <time>2025-09-13T11:00:36Z</time>
      </trkpt>
      <trkpt lat="47.4937" lon="6.8325">
        <ele>320</ele>
        <time>2025-09-13T11:00:37Z</time>
      </trkpt>
      <trkpt lat="47.49374" lon="6.83247">
        <ele>320</ele>
        <time>2025-09-13T11:00:38Z</time>
      </trkpt>
      <trkpt lat="47.49379" lon="6.83248">
        <ele>320.1</ele>
        <time>2025-09-13T11:00:39Z</time>
      </trkpt>
      <trkpt lat="47.49382" lon="6.83252">
        <ele>320.1</ele>
        <time>2025-09-13T11:00:40Z</time>
      </trkpt>
      <trkpt lat="47.49385" lon="6.83257">
        <ele>320.2</ele>
        <time>2025-09-13T11:00:41Z</time>
      </trkpt>
      <trkpt lat="47.49388" lon="6.83262">
        <ele>320.3</ele>
        <time>2025-09-13T11:00:42Z</time>
      </trkpt>
      <trkpt lat="47.49391" lon="6.83268">
        <ele>320.5</ele>
        <time>2025-09-13T11:00:43Z</time>
      </trkpt>
      <trkpt lat="47.49394" lon="6.83274">
        <ele>320.5</ele>
        <time>2025-09-13T11:00:44Z</time>
      </trkpt>
      <trkpt lat="47.49399" lon="6.83278">
        <ele>320.6</ele>
        <time>2025-09-13T11:00:45Z</time>
      </trkpt>
      <trkpt lat="47.49404" lon="6.83279">
        <ele>320.6</ele>
        <time>2025-09-13T11:00:46Z</time>
      </trkpt>
      <trkpt lat="47.4941" lon="6.83279">
        <ele>320.7</ele>
        <time>2025-09-13T11:00:47Z</time>
      </trkpt>
      <trkpt lat="47.49416" lon="6.83279">
        <ele>320.7</ele>
        <time>2025-09-13T11:00:48Z</time>
      </trkpt>
      <trkpt lat="47.49422" lon="6.8328">
        <ele>320.7</ele>
        <time>2025-09-13T11:00:49Z</time>
      </trkpt>
      <trkpt lat="47.49429" lon="6.83283">
        <ele>320.7</ele>
        <time>2025-09-13T11:00:50Z</time>
      </trkpt>
      <trkpt lat="47.49435" lon="6.83287">
        <ele>320.8</ele>
        <time>2025-09-13T11:00:51Z</time>
      </trkpt>
      <trkpt lat="47.49442" lon="6.83291">
        <ele>320.8</ele>
        <time>2025-09-13T11:00:52Z</time>
      </trkpt>
      <trkpt lat="47.49449" lon="6.83294">
        <ele>320.8</ele>
        <time>2025-09-13T11:00:53Z</time>
      </trkpt>
      <trkpt lat="47.49455" lon="6.83298">
        <ele>320.8</ele>
        <time>2025-09-13T11:00:54Z</time>
      </trkpt>
      <trkpt lat="47.49462" lon="6.83301">
        <ele>320.8</ele>
        <time>2025-09-13T11:00:55Z</time>
      </trkpt>
      <trkpt lat="47.49467" lon="6.83303">
        <ele>320.8</ele>
        <time>2025-09-13T11:00:56Z</time>
      </trkpt>
      <trkpt lat="47.49472" lon="6.83307">
        <ele>320.8</ele>
        <time>2025-09-13T11:00:57Z</time>
      </trkpt>
      <trkpt lat="47.49478" lon="6.8331">
        <ele>320.8</ele>
        <time>2025-09-13T11:00:58Z</time>
      </trkpt>
      <trkpt lat="47.49483" lon="6.83313">
        <ele>320.8</ele>
        <time>2025-09-13T11:00:59Z</time>
      </trkpt>
      <trkpt lat="47.49489" lon="6.83316">
        <ele>320.8</ele>
        <time>2025-09-13T11:01:00Z</time>
      </trkpt>
      <trkpt lat="47.49494" lon="6.83319">
        <ele>320.8</ele>
        <time>2025-09-13T11:01:01Z</time>
      </trkpt>
      <trkpt lat="47.49498" lon="6.83323">
        <ele>320.8</ele>
        <time>2025-09-13T11:01:02Z</time>
      </trkpt>
      <trkpt lat="47.49504" lon="6.83326">
        <ele>320.8</ele>
        <time>2025-09-13T11:01:03Z</time>
      </trkpt>
      <trkpt lat="47.49506" lon="6.83327">
        <ele>320.8</ele>
        <time>2025-09-13T11:01:04Z</time>
      </trkpt>
      <trkpt lat="47.49505" lon="6.83329">
        <ele>320.8</ele>
        <time>2025-09-13T11:01:05Z</time>
      </trkpt>
      <trkpt lat="47.49506" lon="6.8333">
        <ele>320.8</ele>
        <time>2025-09-13T11:01:06Z</time>
      </trkpt>
      <trkpt lat="47.49506" lon="6.83331">
        <ele>320.8</ele>
        <time>2025-09-13T11:01:07Z</time>
      </trkpt>
      <trkpt lat="47.49507" lon="6.83331">
        <ele>320.8</ele>
        <time>2025-09-13T11:01:08Z</time>
      </trkpt>
      <trkpt lat="47.49507" lon="6.8333">
        <ele>320.8</ele>
        <time>2025-09-13T11:01:09Z</time>
      </trkpt>
      <trkpt lat="47.49507" lon="6.8333">
        <ele>320.8</ele>
        <time>2025-09-13T11:01:10Z</time>
      </trkpt>
      <trkpt lat="47.49507" lon="6.8333">
        <ele>320.8</ele>
        <time>2025-09-13T11:01:11Z</time>
      </trkpt>
      <trkpt lat="47.49508" lon="6.8333">
        <ele>320.8</ele>
        <time>2025-09-13T11:01:12Z</time>
      </trkpt>
      <trkpt lat="47.49508" lon="6.83329">
        <ele>320.8</ele>
        <time>2025-09-13T11:01:13Z</time>
      </trkpt>
      <trkpt lat="47.49508" lon="6.83329">
        <ele>320.8</ele>
        <time>2025-09-13T11:01:14Z</time>
      </trkpt>
      <trkpt lat="47.49509" lon="6.83329">
        <ele>320.8</ele>
        <time>2025-09-13T11:01:15Z</time>
      </trkpt>
      <trkpt lat="47.49509" lon="6.83329">
        <ele>320.8</ele>
        <time>2025-09-13T11:01:16Z</time>
      </trkpt>
      <trkpt lat="47.49509" lon="6.83329">
        <ele>320.8</ele>
        <time>2025-09-13T11:01:17Z</time>
      </trkpt>
      <trkpt lat="47.4951" lon="6.83326">
        <ele>320.8</ele>
        <time>2025-09-13T11:01:18Z</time>
      </trkpt>
      <trkpt lat="47.4951" lon="6.83324">
        <ele>320.8</ele>
        <time>2025-09-13T11:01:19Z</time>
      </trkpt>
      <trkpt lat="47.49508" lon="6.83325">
        <ele>320.8</ele>
        <time>2025-09-13T11:01:20Z</time>
      </trkpt>
      <trkpt lat="47.49507" lon="6.83326">
        <ele>320.8</ele>
        <time>2025-09-13T11:01:21Z</time>
      </trkpt>
      <trkpt lat="47.49507" lon="6.83327">
        <ele>320.8</ele>
        <time>2025-09-13T11:01:22Z</time>
      </trkpt>
      <trkpt lat="47.49505" lon="6.83328">
        <ele>320.8</ele>
        <time>2025-09-13T11:01:23Z</time>
      </trkpt>
      <trkpt lat="47.49504" lon="6.83329">
        <ele>320.8</ele>
        <time>2025-09-13T11:01:24Z</time>
      </trkpt>
      <trkpt lat="47.49503" lon="6.8333">
        <ele>320.8</ele>
        <time>2025-09-13T11:01:25Z</time>
      </trkpt>
      <trkpt lat="47.49502" lon="6.8333">
        <ele>320.8</ele>
        <time>2025-09-13T11:01:26Z</time>
      </trkpt>
      <trkpt lat="47.49501" lon="6.83331">
        <ele>320.8</ele>
        <time>2025-09-13T11:01:27Z</time>
      </trkpt>
      <trkpt lat="47.49502" lon="6.83331">
        <ele>320.8</ele>
        <time>2025-09-13T11:01:28Z</time>
      </trkpt>
      <trkpt lat="47.49502" lon="6.83332">
        <ele>320.8</ele>
        <time>2025-09-13T11:01:29Z</time>
      </trkpt>
      <trkpt lat="47.49502" lon="6.83332">
        <ele>320.8</ele>
        <time>2025-09-13T11:01:30Z</time>
      </trkpt>
      <trkpt lat="47.49502" lon="6.83332">
        <ele>320.8</ele>
        <time>2025-09-13T11:01:31Z</time>
      </trkpt>
      <trkpt lat="47.49502" lon="6.83332">
        <ele>320.8</ele>
        <time>2025-09-13T11:01:32Z</time>
      </trkpt>
      <trkpt lat="47.49501" lon="6.83332">
        <ele>320.8</ele>
        <time>2025-09-13T11:01:33Z</time>
      </trkpt>
      <trkpt lat="47.49502" lon="6.83332">
        <ele>320.8</ele>
        <time>2025-09-13T11:01:34Z</time>
      </trkpt>
      <trkpt lat="47.49502" lon="6.83332">
        <ele>320.8</ele>
        <time>2025-09-13T11:01:35Z</time>
      </trkpt>
      <trkpt lat="47.49502" lon="6.83333">
        <ele>320.8</ele>
        <time>2025-09-13T11:01:36Z</time>
      </trkpt>
      <trkpt lat="47.49502" lon="6.83333">
        <ele>320.8</ele>
        <time>2025-09-13T11:01:37Z</time>
      </trkpt>
      <trkpt lat="47.49502" lon="6.83333">
        <ele>320.8</ele>
        <time>2025-09-13T11:01:38Z</time>
      </trkpt>
      <trkpt lat="47.49502" lon="6.83332">
        <ele>320.8</ele>
        <time>2025-09-13T11:01:39Z</time>
      </trkpt>
      <trkpt lat="47.49502" lon="6.83332">
        <ele>320.8</ele>
        <time>2025-09-13T11:01:40Z</time>
      </trkpt>
      <trkpt lat="47.49502" lon="6.83333">
        <ele>320.8</ele>
        <time>2025-09-13T11:01:41Z</time>
      </trkpt>
      <trkpt lat="47.49501" lon="6.83333">
        <ele>320.8</ele>
        <time>2025-09-13T11:01:42Z</time>
      </trkpt>
      <trkpt lat="47.495" lon="6.83333">
        <ele>320.8</ele>
        <time>2025-09-13T11:01:43Z</time>
      </trkpt>
      <trkpt lat="47.495" lon="6.83333">
        <ele>320.8</ele>
        <time>2025-09-13T11:01:44Z</time>
      </trkpt>
      <trkpt lat="47.495" lon="6.83333">
        <ele>320.8</ele>
        <time>2025-09-13T11:01:45Z</time>
      </trkpt>
      <trkpt lat="47.49499" lon="6.83333">
        <ele>320.8</ele>
        <time>2025-09-13T11:01:46Z</time>
      </trkpt>
      <trkpt lat="47.495" lon="6.83333">
        <ele>320.8</ele>
        <time>2025-09-13T11:01:47Z</time>
      </trkpt>
      <trkpt lat="47.495" lon="6.83333">
        <ele>320.8</ele>
        <time>2025-09-13T11:01:48Z</time>
      </trkpt>
      <trkpt lat="47.495" lon="6.83333">
        <ele>320.8</ele>
        <time>2025-09-13T11:01:49Z</time>
      </trkpt>
      <trkpt lat="47.495" lon="6.83333">
        <ele>320.8</ele>
        <time>2025-09-13T11:01:50Z</time>
      </trkpt>
      <trkpt lat="47.495" lon="6.83333">
        <ele>320.8</ele>
        <time>2025-09-13T11:01:51Z</time>
      </trkpt>
      <trkpt lat="47.495" lon="6.83333">
        <ele>320.8</ele>
        <time>2025-09-13T11:01:52Z</time>
      </trkpt>
      <trkpt lat="47.495" lon="6.83332">
        <ele>320.8</ele>
        <time>2025-09-13T11:01:53Z</time>
      </trkpt>
      <trkpt lat="47.495" lon="6.83332">
        <ele>320.8</ele>
        <time>2025-09-13T11:01:54Z</time>
      </trkpt>
      <trkpt lat="47.495" lon="6.83332">
        <ele>320.8</ele>
        <time>2025-09-13T11:01:55Z</time>
      </trkpt>
      <trkpt lat="47.49501" lon="6.83331">
        <ele>320.8</ele>
        <time>2025-09-13T11:01:56Z</time>
      </trkpt>
      <trkpt lat="47.49501" lon="6.83331">
        <ele>320.8</ele>
        <time>2025-09-13T11:01:57Z</time>
      </trkpt>
      <trkpt lat="47.49501" lon="6.83331">
        <ele>320.8</ele>
        <time>2025-09-13T11:01:58Z</time>
      </trkpt>
      <trkpt lat="47.49501" lon="6.83331">
        <ele>320.8</ele>
        <time>2025-09-13T11:01:59Z</time>
      </trkpt>
      <trkpt lat="47.495" lon="6.8333">
        <ele>320.8</ele>
        <time>2025-09-13T11:02:00Z</time>
      </trkpt>
      <trkpt lat="47.495" lon="6.8333">
        <ele>320.8</ele>
        <time>2025-09-13T11:02:01Z</time>
      </trkpt>
      <trkpt lat="47.495" lon="6.8333">
        <ele>320.8</ele>
        <time>2025-09-13T11:02:02Z</time>
      </trkpt>
      <trkpt lat="47.495" lon="6.8333">
        <ele>320.8</ele>
        <time>2025-09-13T11:02:03Z</time>
      </trkpt>
      <trkpt lat="47.495" lon="6.8333">
        <ele>320.8</ele>
        <time>2025-09-13T11:02:04Z</time>
      </trkpt>
      <trkpt lat="47.495" lon="6.8333">
        <ele>320.8</ele>
        <time>2025-09-13T11:02:05Z</time>
      </trkpt>
      <trkpt lat="47.495" lon="6.8333">
        <ele>320.8</ele>
        <time>2025-09-13T11:02:06Z</time>
      </trkpt>
      <trkpt lat="47.495" lon="6.8333">
        <ele>320.8</ele>
        <time>2025-09-13T11:02:07Z</time>
      </trkpt>
      <trkpt lat="47.495" lon="6.8333">
        <ele>320.8</ele>
        <time>2025-09-13T11:02:08Z</time>
      </trkpt>
      <trkpt lat="47.495" lon="6.8333">
        <ele>320.8</ele>
        <time>2025-09-13T11:02:09Z</time>
      </trkpt>
      <trkpt lat="47.495" lon="6.8333">
        <ele>320.8</ele>
        <time>2025-09-13T11:02:10Z</time>
      </trkpt>
      <trkpt lat="47.495" lon="6.8333">
        <ele>320.8</ele>
        <time>2025-09-13T11:02:11Z</time>
      </trkpt>
      <trkpt lat="47.49502" lon="6.83331">
        <ele>320.8</ele>
        <time>2025-09-13T11:02:12Z</time>
      </trkpt>
      <trkpt lat="47.49501" lon="6.8333">
        <ele>320.8</ele>
        <time>2025-09-13T11:02:13Z</time>
      </trkpt>
      <trkpt lat="47.49501" lon="6.8333">
        <ele>320.8</ele>
        <time>2025-09-13T11:02:14Z</time>
      </trkpt>
      <trkpt lat="47.495" lon="6.83331">
        <ele>320.8</ele>
        <time>2025-09-13T11:02:15Z</time>
      </trkpt>
      <trkpt lat="47.49501" lon="6.8333">
        <ele>320.8</ele>
        <time>2025-09-13T11:02:16Z</time>
      </trkpt>
      <trkpt lat="47.49503" lon="6.8333">
        <ele>320.8</ele>
        <time>2025-09-13T11:02:17Z</time>
      </trkpt>
      <trkpt lat="47.49502" lon="6.8333">
        <ele>320.8</ele>
        <time>2025-09-13T11:02:18Z</time>
      </trkpt>
      <trkpt lat="47.49502" lon="6.8333">
        <ele>320.8</ele>
        <time>2025-09-13T11:02:19Z</time>
      </trkpt>
      <trkpt lat="47.49502" lon="6.83329">
        <ele>320.8</ele>
        <time>2025-09-13T11:02:20Z</time>
      </trkpt>
      <trkpt lat="47.49502" lon="6.83329">
        <ele>320.8</ele>
        <time>2025-09-13T11:02:21Z</time>
      </trkpt>
      <trkpt lat="47.49502" lon="6.83329">
        <ele>320.8</ele>
        <time>2025-09-13T11:02:22Z</time>
      </trkpt>
      <trkpt lat="47.49502" lon="6.83329">
        <ele>320.8</ele>
        <time>2025-09-13T11:02:23Z</time>
      </trkpt>
      <trkpt lat="47.49502" lon="6.83329">
        <ele>320.8</ele>
        <time>2025-09-13T11:02:24Z</time>
      </trkpt>
      <trkpt lat="47.49501" lon="6.83329">
        <ele>320.8</ele>
        <time>2025-09-13T11:02:25Z</time>
      </trkpt>
      <trkpt lat="47.49501" lon="6.83328">
        <ele>320.8</ele>
        <time>2025-09-13T11:02:26Z</time>
      </trkpt>
      <trkpt lat="47.49501" lon="6.83328">
        <ele>320.8</ele>
        <time>2025-09-13T11:02:27Z</time>
      </trkpt>
      <trkpt lat="47.49501" lon="6.83328">
        <ele>320.8</ele>
        <time>2025-09-13T11:02:28Z</time>
      </trkpt>
      <trkpt lat="47.49501" lon="6.83328">
        <ele>320.8</ele>
        <time>2025-09-13T11:02:29Z</time>
      </trkpt>
      <trkpt lat="47.49501" lon="6.83328">
        <ele>320.8</ele>
        <time>2025-09-13T11:02:30Z</time>
      </trkpt>
      <trkpt lat="47.49501" lon="6.83328">
        <ele>320.8</ele>
        <time>2025-09-13T11:02:31Z</time>
      </trkpt>
      <trkpt lat="47.49501" lon="6.83327">
        <ele>320.8</ele>
        <time>2025-09-13T11:02:32Z</time>
      </trkpt>
      <trkpt lat="47.49501" lon="6.83327">
        <ele>320.8</ele>
        <time>2025-09-13T11:02:33Z</time>
      </trkpt>
      <trkpt lat="47.49501" lon="6.83327">
        <ele>320.8</ele>
        <time>2025-09-13T11:02:34Z</time>
      </trkpt>
      <trkpt lat="47.49501" lon="6.83327">
        <ele>320.8</ele>
        <time>2025-09-13T11:02:35Z</time>
      </trkpt>
      <trkpt lat="47.49501" lon="6.83327">
        <ele>320.8</ele>
        <time>2025-09-13T11:02:36Z</time>
      </trkpt>
      <trkpt lat="47.49501" lon="6.83327">
        <ele>320.9</ele>
        <time>2025-09-13T11:02:37Z</time>
      </trkpt>
      <trkpt lat="47.49501" lon="6.83326">
        <ele>320.9</ele>
        <time>2025-09-13T11:02:38Z</time>
      </trkpt>
      <trkpt lat="47.49501" lon="6.83326">
        <ele>320.9</ele>
        <time>2025-09-13T11:02:39Z</time>
      </trkpt>
      <trkpt lat="47.49501" lon="6.83326">
        <ele>320.9</ele>
        <time>2025-09-13T11:02:40Z</time>
      </trkpt>
      <trkpt lat="47.49501" lon="6.83326">
        <ele>320.9</ele>
        <time>2025-09-13T11:02:42Z</time>
      </trkpt>
      <trkpt lat="47.49501" lon="6.83326">
        <ele>320.9</ele>
        <time>2025-09-13T11:02:43Z</time>
      </trkpt>
      <trkpt lat="47.49501" lon="6.83326">
        <ele>320.9</ele>
        <time>2025-09-13T11:02:44Z</time>
      </trkpt>
      <trkpt lat="47.49501" lon="6.83325">
        <ele>320.9</ele>
        <time>2025-09-13T11:02:45Z</time>
      </trkpt>
      <trkpt lat="47.49501" lon="6.83325">
        <ele>320.9</ele>
        <time>2025-09-13T11:02:46Z</time>
      </trkpt>
      <trkpt lat="47.49501" lon="6.83325">
        <ele>320.9</ele>
        <time>2025-09-13T11:02:47Z</time>
      </trkpt>
      <trkpt lat="47.49501" lon="6.83325">
        <ele>320.9</ele>
        <time>2025-09-13T11:02:48Z</time>
      </trkpt>
      <trkpt lat="47.49501" lon="6.83325">
        <ele>320.9</ele>
        <time>2025-09-13T11:02:49Z</time>
      </trkpt>
      <trkpt lat="47.49501" lon="6.83325">
        <ele>320.9</ele>
        <time>2025-09-13T11:02:50Z</time>
      </trkpt>
      <trkpt lat="47.49501" lon="6.83324">
        <ele>320.9</ele>
        <time>2025-09-13T11:02:51Z</time>
      </trkpt>
      <trkpt lat="47.49501" lon="6.83324">
        <ele>320.9</ele>
        <time>2025-09-13T11:02:52Z</time>
      </trkpt>
      <trkpt lat="47.49501" lon="6.83324">
        <ele>320.9</ele>
        <time>2025-09-13T11:02:53Z</time>
      </trkpt>
      <trkpt lat="47.49501" lon="6.83324">
        <ele>320.9</ele>
        <time>2025-09-13T11:02:54Z</time>
      </trkpt>
      <trkpt lat="47.49501" lon="6.83324">
        <ele>320.9</ele>
        <time>2025-09-13T11:02:55Z</time>
      </trkpt>
      <trkpt lat="47.49501" lon="6.83324">
        <ele>320.9</ele>
        <time>2025-09-13T11:02:56Z</time>
      </trkpt>
      <trkpt lat="47.49501" lon="6.83323">
        <ele>320.9</ele>
        <time>2025-09-13T11:02:57Z</time>
      </trkpt>
      <trkpt lat="47.49501" lon="6.83323">
        <ele>320.9</ele>
        <time>2025-09-13T11:02:58Z</time>
      </trkpt>
      <trkpt lat="47.49501" lon="6.83323">
        <ele>320.9</ele>
        <time>2025-09-13T11:02:59Z</time>
      </trkpt>
      <trkpt lat="47.49501" lon="6.83323">
        <ele>320.9</ele>
        <time>2025-09-13T11:03:00Z</time>
      </trkpt>
      <trkpt lat="47.49501" lon="6.83323">
        <ele>320.9</ele>
        <time>2025-09-13T11:03:01Z</time>
      </trkpt>
      <trkpt lat="47.49501" lon="6.83323">
        <ele>320.9</ele>
        <time>2025-09-13T11:03:02Z</time>
      </trkpt>
      <trkpt lat="47.49501" lon="6.83322">
        <ele>320.9</ele>
        <time>2025-09-13T11:03:03Z</time>
      </trkpt>
      <trkpt lat="47.49501" lon="6.83322">
        <ele>320.9</ele>
        <time>2025-09-13T11:03:04Z</time>
      </trkpt>
      <trkpt lat="47.49501" lon="6.83322">
        <ele>320.9</ele>
        <time>2025-09-13T11:03:05Z</time>
      </trkpt>
      <trkpt lat="47.49501" lon="6.83321">
        <ele>320.9</ele>
        <time>2025-09-13T11:03:06Z</time>
      </trkpt>
      <trkpt lat="47.49501" lon="6.83321">
        <ele>320.9</ele>
        <time>2025-09-13T11:03:07Z</time>
      </trkpt>
      <trkpt lat="47.49501" lon="6.83321">
        <ele>320.9</ele>
        <time>2025-09-13T11:03:08Z</time>
      </trkpt>
      <trkpt lat="47.49501" lon="6.83321">
        <ele>320.9</ele>
        <time>2025-09-13T11:03:09Z</time>
      </trkpt>
      <trkpt lat="47.49501" lon="6.83321">
        <ele>320.9</ele>
        <time>2025-09-13T11:03:10Z</time>
      </trkpt>
      <trkpt lat="47.49501" lon="6.83321">
        <ele>320.9</ele>
        <time>2025-09-13T11:03:11Z</time>
      </trkpt>
      <trkpt lat="47.49501" lon="6.83321">
        <ele>320.9</ele>
        <time>2025-09-13T11:03:12Z</time>
      </trkpt>
      <trkpt lat="47.49501" lon="6.83321">
        <ele>320.9</ele>
        <time>2025-09-13T11:03:13Z</time>
      </trkpt>
      <trkpt lat="47.49501" lon="6.83321">
        <ele>320.9</ele>
        <time>2025-09-13T11:03:14Z</time>
      </trkpt>
      <trkpt lat="47.49501" lon="6.83321">
        <ele>320.9</ele>
        <time>2025-09-13T11:03:15Z</time>
      </trkpt>
      <trkpt lat="47.49501" lon="6.83321">
        <ele>320.9</ele>
        <time>2025-09-13T11:03:16Z</time>
      </trkpt>
      <trkpt lat="47.49501" lon="6.83321">
        <ele>320.9</ele>
        <time>2025-09-13T11:03:17Z</time>
      </trkpt>
      <trkpt lat="47.49501" lon="6.83321">
        <ele>320.9</ele>
        <time>2025-09-13T11:03:18Z</time>
      </trkpt>
      <trkpt lat="47.49501" lon="6.83321">
        <ele>320.9</ele>
        <time>2025-09-13T11:03:19Z</time>
      </trkpt>
      <trkpt lat="47.49501" lon="6.83321">
        <ele>320.9</ele>
        <time>2025-09-13T11:03:20Z</time>
      </trkpt>
      <trkpt lat="47.49501" lon="6.83321">
        <ele>320.9</ele>
        <time>2025-09-13T11:03:21Z</time>
      </trkpt>
      <trkpt lat="47.49501" lon="6.83321">
        <ele>320.9</ele>
        <time>2025-09-13T11:03:22Z</time>
      </trkpt>
      <trkpt lat="47.49501" lon="6.83321">
        <ele>320.9</ele>
        <time>2025-09-13T11:03:23Z</time>
      </trkpt>
      <trkpt lat="47.49501" lon="6.83321">
        <ele>320.9</ele>
        <time>2025-09-13T11:03:24Z</time>
      </trkpt>
      <trkpt lat="47.49501" lon="6.83321">
        <ele>320.9</ele>
        <time>2025-09-13T11:03:25Z</time>
      </trkpt>
      <trkpt lat="47.49501" lon="6.83321">
        <ele>320.9</ele>
        <time>2025-09-13T11:03:26Z</time>
      </trkpt>
      <trkpt lat="47.49501" lon="6.83321">
        <ele>320.9</ele>
        <time>2025-09-13T11:03:27Z</time>
      </trkpt>
      <trkpt lat="47.49501" lon="6.83321">
        <ele>320.9</ele>
        <time>2025-09-13T11:03:28Z</time>
      </trkpt>
      <trkpt lat="47.49501" lon="6.83321">
        <ele>320.9</ele>
        <time>2025-09-13T11:03:29Z</time>
      </trkpt>
      <trkpt lat="47.49501" lon="6.83321">
        <ele>320.9</ele>
        <time>2025-09-13T11:03:30Z</time>
      </trkpt>
      <trkpt lat="47.49501" lon="6.83321">
        <ele>320.9</ele>
        <time>2025-09-13T11:03:31Z</time>
      </trkpt>
      <trkpt lat="47.49501" lon="6.83321">
        <ele>320.9</ele>
        <time>2025-09-13T11:03:32Z</time>
      </trkpt>
      <trkpt lat="47.49501" lon="6.83321">
        <ele>320.9</ele>
        <time>2025-09-13T11:03:33Z</time>
      </trkpt>
      <trkpt lat="47.49501" lon="6.83321">
        <ele>320.9</ele>
        <time>2025-09-13T11:03:34Z</time>
      </trkpt>
      <trkpt lat="47.49501" lon="6.83321">
        <ele>320.9</ele>
        <time>2025-09-13T11:03:35Z</time>
      </trkpt>
      <trkpt lat="47.49501" lon="6.83321">
        <ele>320.9</ele>
        <time>2025-09-13T11:03:36Z</time>
      </trkpt>
      <trkpt lat="47.49501" lon="6.83321">
        <ele>320.9</ele>
        <time>2025-09-13T11:03:37Z</time>
      </trkpt>
      <trkpt lat="47.49501" lon="6.83321">
        <ele>320.9</ele>
        <time>2025-09-13T11:03:38Z</time>
      </trkpt>
      <trkpt lat="47.49501" lon="6.83321">
        <ele>320.9</ele>
        <time>2025-09-13T11:03:39Z</time>
      </trkpt>
      <trkpt lat="47.49501" lon="6.83321">
        <ele>320.9</ele>
        <time>2025-09-13T11:03:40Z</time>
      </trkpt>
      <trkpt lat="47.49501" lon="6.83321">
        <ele>320.9</ele>
        <time>2025-09-13T11:03:41Z</time>
      </trkpt>
      <trkpt lat="47.49501" lon="6.83321">
        <ele>320.9</ele>
        <time>2025-09-13T11:03:42Z</time>
      </trkpt>
      <trkpt lat="47.49501" lon="6.83321">
        <ele>320.9</ele>
        <time>2025-09-13T11:03:43Z</time>
      </trkpt>
      <trkpt lat="47.49501" lon="6.83321">
        <ele>320.9</ele>
        <time>2025-09-13T11:03:44Z</time>
      </trkpt>
      <trkpt lat="47.49501" lon="6.83321">
        <ele>320.9</ele>
        <time>2025-09-13T11:03:45Z</time>
      </trkpt>
      <trkpt lat="47.49501" lon="6.83321">
        <ele>320.9</ele>
        <time>2025-09-13T11:03:46Z</time>
      </trkpt>
      <trkpt lat="47.49501" lon="6.83321">
        <ele>320.9</ele>
        <time>2025-09-13T11:03:47Z</time>
      </trkpt>
      <trkpt lat="47.49501" lon="6.83321">
        <ele>320.9</ele>
        <time>2025-09-13T11:03:48Z</time>
      </trkpt>
      <trkpt lat="47.49501" lon="6.83321">
        <ele>320.9</ele>
        <time>2025-09-13T11:03:49Z</time>
      </trkpt>
      <trkpt lat="47.49501" lon="6.83321">
        <ele>320.9</ele>
        <time>2025-09-13T11:03:50Z</time>
      </trkpt>
      <trkpt lat="47.49501" lon="6.83321">
        <ele>320.9</ele>
        <time>2025-09-13T11:03:51Z</time>
      </trkpt>
      <trkpt lat="47.49501" lon="6.83321">
        <ele>320.9</ele>
        <time>2025-09-13T11:03:52Z</time>
      </trkpt>
      <trkpt lat="47.49501" lon="6.83321">
        <ele>320.9</ele>
        <time>2025-09-13T11:03:53Z</time>
      </trkpt>
      <trkpt lat="47.49501" lon="6.83321">
        <ele>320.9</ele>
        <time>2025-09-13T11:03:54Z</time>
      </trkpt>
      <trkpt lat="47.49501" lon="6.83321">
        <ele>320.9</ele>
        <time>2025-09-13T11:03:55Z</time>
      </trkpt>
      <trkpt lat="47.49501" lon="6.83321">
        <ele>320.9</ele>
        <time>2025-09-13T11:03:56Z</time>
      </trkpt>
      <trkpt lat="47.49501" lon="6.83321">
        <ele>320.9</ele>
        <time>2025-09-13T11:03:57Z</time>
      </trkpt>
      <trkpt lat="47.49501" lon="6.83321">
        <ele>320.9</ele>
        <time>2025-09-13T11:03:58Z</time>
      </trkpt>
      <trkpt lat="47.49501" lon="6.83321">
        <ele>320.9</ele>
        <time>2025-09-13T11:03:59Z</time>
      </trkpt>
      <trkpt lat="47.49501" lon="6.83321">
        <ele>320.9</ele>
        <time>2025-09-13T11:04:00Z</time>
      </trkpt>
      <trkpt lat="47.49501" lon="6.83321">
        <ele>320.9</ele>
        <time>2025-09-13T11:04:01Z</time>
      </trkpt>
      <trkpt lat="47.49501" lon="6.83321">
        <ele>320.9</ele>
        <time>2025-09-13T11:04:02Z</time>
      </trkpt>
      <trkpt lat="47.49501" lon="6.83321">
        <ele>320.9</ele>
        <time>2025-09-13T11:04:03Z</time>
      </trkpt>
      <trkpt lat="47.49501" lon="6.83321">
        <ele>320.9</ele>
        <time>2025-09-13T11:04:04Z</time>
      </trkpt>
      <trkpt lat="47.49501" lon="6.83321">
        <ele>320.9</ele>
        <time>2025-09-13T11:04:05Z</time>
      </trkpt>
      <trkpt lat="47.49501" lon="6.83327">
        <ele>320.9</ele>
        <time>2025-09-13T11:04:06Z</time>
      </trkpt>
      <trkpt lat="47.49501" lon="6.83327">
        <ele>320.9</ele>
        <time>2025-09-13T11:04:07Z</time>
      </trkpt>
      <trkpt lat="47.49501" lon="6.83327">
        <ele>320.9</ele>
        <time>2025-09-13T11:04:08Z</time>
      </trkpt>
      <trkpt lat="47.49501" lon="6.83327">
        <ele>320.9</ele>
        <time>2025-09-13T11:04:09Z</time>
      </trkpt>
      <trkpt lat="47.49501" lon="6.83327">
        <ele>320.9</ele>
        <time>2025-09-13T11:04:10Z</time>
      </trkpt>
      <trkpt lat="47.49501" lon="6.83327">
        <ele>320.9</ele>
        <time>2025-09-13T11:04:11Z</time>
      </trkpt>
      <trkpt lat="47.49501" lon="6.83327">
        <ele>320.9</ele>
        <time>2025-09-13T11:04:12Z</time>
      </trkpt>
      <trkpt lat="47.49501" lon="6.83327">
        <ele>320.9</ele>
        <time>2025-09-13T11:04:13Z</time>
      </trkpt>
      <trkpt lat="47.49501" lon="6.83327">
        <ele>320.9</ele>
        <time>2025-09-13T11:04:14Z</time>
      </trkpt>
      <trkpt lat="47.49501" lon="6.83327">
        <ele>320.9</ele>
        <time>2025-09-13T11:04:15Z</time>
      </trkpt>
      <trkpt lat="47.49501" lon="6.83327">
        <ele>320.9</ele>
        <time>2025-09-13T11:04:16Z</time>
      </trkpt>
      <trkpt lat="47.49501" lon="6.83327">
        <ele>320.9</ele>
        <time>2025-09-13T11:04:17Z</time>
      </trkpt>
      <trkpt lat="47.49501" lon="6.83327">
        <ele>320.9</ele>
        <time>2025-09-13T11:04:18Z</time>
      </trkpt>
      <trkpt lat="47.49501" lon="6.83327">
        <ele>320.9</ele>
        <time>2025-09-13T11:04:19Z</time>
      </trkpt>
      <trkpt lat="47.49501" lon="6.83327">
        <ele>320.9</ele>
        <time>2025-09-13T11:04:20Z</time>
      </trkpt>
      <trkpt lat="47.49501" lon="6.83327">
        <ele>320.9</ele>
        <time>2025-09-13T11:04:21Z</time>
      </trkpt>
      <trkpt lat="47.49501" lon="6.83327">
        <ele>320.9</ele>
        <time>2025-09-13T11:04:22Z</time>
      </trkpt>
      <trkpt lat="47.49501" lon="6.83327">
        <ele>320.9</ele>
        <time>2025-09-13T11:04:23Z</time>
      </trkpt>
      <trkpt lat="47.49501" lon="6.83327">
        <ele>320.9</ele>
        <time>2025-09-13T11:04:24Z</time>
      </trkpt>
      <trkpt lat="47.49501" lon="6.83327">
        <ele>320.9</ele>
        <time>2025-09-13T11:04:25Z</time>
      </trkpt>
      <trkpt lat="47.49501" lon="6.83327">
        <ele>320.9</ele>
        <time>2025-09-13T11:04:26Z</time>
      </trkpt>
      <trkpt lat="47.49501" lon="6.83327">
        <ele>320.9</ele>
        <time>2025-09-13T11:04:27Z</time>
      </trkpt>
      <trkpt lat="47.49501" lon="6.83327">
        <ele>320.9</ele>
        <time>2025-09-13T11:04:28Z</time>
      </trkpt>
      <trkpt lat="47.49501" lon="6.83327">
        <ele>320.9</ele>
        <time>2025-09-13T11:04:29Z</time>
      </trkpt>
      <trkpt lat="47.49501" lon="6.83327">
        <ele>320.9</ele>
        <time>2025-09-13T11:04:30Z</time>
      </trkpt>
      <trkpt lat="47.49501" lon="6.83327">
        <ele>320.9</ele>
        <time>2025-09-13T11:04:31Z</time>
      </trkpt>
      <trkpt lat="47.49501" lon="6.83327">
        <ele>320.9</ele>
        <time>2025-09-13T11:04:32Z</time>
      </trkpt>
      <trkpt lat="47.49501" lon="6.83327">
        <ele>320.9</ele>
        <time>2025-09-13T11:04:33Z</time>
      </trkpt>
      <trkpt lat="47.49501" lon="6.83327">
        <ele>320.9</ele>
        <time>2025-09-13T11:04:34Z</time>
      </trkpt>
      <trkpt lat="47.49501" lon="6.83327">
        <ele>320.9</ele>
        <time>2025-09-13T11:04:35Z</time>
      </trkpt>
      <trkpt lat="47.49501" lon="6.83327">
        <ele>320.9</ele>
        <time>2025-09-13T11:04:36Z</time>
      </trkpt>
      <trkpt lat="47.49501" lon="6.83327">
        <ele>320.9</ele>
        <time>2025-09-13T11:04:37Z</time>
      </trkpt>
      <trkpt lat="47.49501" lon="6.83327">
        <ele>320.9</ele>
        <time>2025-09-13T11:04:38Z</time>
      </trkpt>
      <trkpt lat="47.49501" lon="6.83327">
        <ele>320.9</ele>
        <time>2025-09-13T11:04:39Z</time>
      </trkpt>
      <trkpt lat="47.49501" lon="6.83327">
        <ele>320.9</ele>
        <time>2025-09-13T11:04:40Z</time>
      </trkpt>
      <trkpt lat="47.49501" lon="6.83327">
        <ele>320.9</ele>
        <time>2025-09-13T11:04:41Z</time>
      </trkpt>
      <trkpt lat="47.49501" lon="6.83327">
        <ele>320.9</ele>
        <time>2025-09-13T11:04:42Z</time>
      </trkpt>
      <trkpt lat="47.49501" lon="6.83327">
        <ele>320.9</ele>
        <time>2025-09-13T11:04:43Z</time>
      </trkpt>
      <trkpt lat="47.49501" lon="6.83327">
        <ele>320.9</ele>
        <time>2025-09-13T11:04:44Z</time>
      </trkpt>
      <trkpt lat="47.49501" lon="6.83327">
        <ele>320.9</ele>
        <time>2025-09-13T11:04:45Z</time>
      </trkpt>
      <trkpt lat="47.49501" lon="6.83327">
        <ele>320.9</ele>
        <time>2025-09-13T11:04:46Z</time>
      </trkpt>
      <trkpt lat="47.49501" lon="6.83327">
        <ele>320.9</ele>
        <time>2025-09-13T11:04:48Z</time>
      </trkpt>
      <trkpt lat="47.49501" lon="6.83327">
        <ele>320.9</ele>
        <time>2025-09-13T11:04:49Z</time>
      </trkpt>
      <trkpt lat="47.49502" lon="6.83325">
        <ele>320.9</ele>
        <time>2025-09-13T11:04:50Z</time>
      </trkpt>
      <trkpt lat="47.49501" lon="6.83325">
        <ele>320.9</ele>
        <time>2025-09-13T11:04:51Z</time>
      </trkpt>
      <trkpt lat="47.49501" lon="6.83325">
        <ele>320.9</ele>
        <time>2025-09-13T11:04:52Z</time>
      </trkpt>
      <trkpt lat="47.49501" lon="6.83325">
        <ele>320.9</ele>
        <time>2025-09-13T11:04:53Z</time>
      </trkpt>
      <trkpt lat="47.495" lon="6.83325">
        <ele>320.9</ele>
        <time>2025-09-13T11:04:54Z</time>
      </trkpt>
      <trkpt lat="47.495" lon="6.83325">
        <ele>320.9</ele>
        <time>2025-09-13T11:04:55Z</time>
      </trkpt>
      <trkpt lat="47.495" lon="6.83326">
        <ele>320.9</ele>
        <time>2025-09-13T11:04:56Z</time>
      </trkpt>
      <trkpt lat="47.49501" lon="6.83326">
        <ele>320.9</ele>
        <time>2025-09-13T11:04:57Z</time>
      </trkpt>
      <trkpt lat="47.49501" lon="6.83326">
        <ele>320.9</ele>
        <time>2025-09-13T11:04:58Z</time>
      </trkpt>
      <trkpt lat="47.49499" lon="6.83326">
        <ele>320.9</ele>
        <time>2025-09-13T11:04:59Z</time>
      </trkpt>
      <trkpt lat="47.49499" lon="6.83326">
        <ele>320.9</ele>
        <time>2025-09-13T11:05:00Z</time>
      </trkpt>
      <trkpt lat="47.49498" lon="6.83326">
        <ele>320.9</ele>
        <time>2025-09-13T11:05:01Z</time>
      </trkpt>
      <trkpt lat="47.49498" lon="6.83327">
        <ele>320.9</ele>
        <time>2025-09-13T11:05:02Z</time>
      </trkpt>
      <trkpt lat="47.49498" lon="6.83328">
        <ele>320.9</ele>
        <time>2025-09-13T11:05:03Z</time>
      </trkpt>
      <trkpt lat="47.495" lon="6.83327">
        <ele>320.9</ele>
        <time>2025-09-13T11:05:04Z</time>
      </trkpt>
      <trkpt lat="47.49501" lon="6.83327">
        <ele>320.9</ele>
        <time>2025-09-13T11:05:05Z</time>
      </trkpt>
      <trkpt lat="47.49502" lon="6.83326">
        <ele>320.9</ele>
        <time>2025-09-13T11:05:06Z</time>
      </trkpt>
      <trkpt lat="47.49503" lon="6.83326">
        <ele>320.9</ele>
        <time>2025-09-13T11:05:07Z</time>
      </trkpt>
      <trkpt lat="47.49504" lon="6.83325">
        <ele>320.9</ele>
        <time>2025-09-13T11:05:08Z</time>
      </trkpt>
      <trkpt lat="47.49509" lon="6.83323">
        <ele>320.9</ele>
        <time>2025-09-13T11:05:09Z</time>
      </trkpt>
      <trkpt lat="47.4951" lon="6.83323">
        <ele>320.9</ele>
        <time>2025-09-13T11:05:10Z</time>
      </trkpt>
      <trkpt lat="47.49514" lon="6.83327">
        <ele>320.9</ele>
        <time>2025-09-13T11:05:11Z</time>
      </trkpt>
      <trkpt lat="47.49518" lon="6.83331">
        <ele>320.9</ele>
        <time>2025-09-13T11:05:12Z</time>
      </trkpt>
      <trkpt lat="47.49521" lon="6.83334">
        <ele>320.9</ele>
        <time>2025-09-13T11:05:13Z</time>
      </trkpt>
      <trkpt lat="47.49526" lon="6.83337">
        <ele>320.9</ele>
        <time>2025-09-13T11:05:14Z</time>
      </trkpt>
      <trkpt lat="47.4953" lon="6.83335">
        <ele>320.9</ele>
        <time>2025-09-13T11:05:15Z</time>
      </trkpt>
      <trkpt lat="47.49534" lon="6.83332">
        <ele>320.9</ele>
        <time>2025-09-13T11:05:16Z</time>
      </trkpt>
      <trkpt lat="47.49537" lon="6.83327">
        <ele>320.9</ele>
        <time>2025-09-13T11:05:17Z</time>
      </trkpt>
      <trkpt lat="47.4954" lon="6.83323">
        <ele>320.9</ele>
        <time>2025-09-13T11:05:18Z</time>
      </trkpt>
      <trkpt lat="47.49545" lon="6.8332">
        <ele>320.8</ele>
        <time>2025-09-13T11:05:19Z</time>
      </trkpt>
      <trkpt lat="47.4955" lon="6.83317">
        <ele>320.7</ele>
        <time>2025-09-13T11:05:20Z</time>
      </trkpt>
      <trkpt lat="47.49555" lon="6.83314">
        <ele>320.7</ele>
        <time>2025-09-13T11:05:21Z</time>
      </trkpt>
      <trkpt lat="47.4956" lon="6.83312">
        <ele>320.6</ele>
        <time>2025-09-13T11:05:22Z</time>
      </trkpt>
      <trkpt lat="47.49565" lon="6.83309">
        <ele>320.6</ele>
        <time>2025-09-13T11:05:23Z</time>
      </trkpt>
      <trkpt lat="47.4957" lon="6.83307">
        <ele>320.6</ele>
        <time>2025-09-13T11:05:24Z</time>
      </trkpt>
      <trkpt lat="47.49575" lon="6.83304">
        <ele>320.6</ele>
        <time>2025-09-13T11:05:25Z</time>
      </trkpt>
      <trkpt lat="47.49579" lon="6.83301">
        <ele>320.6</ele>
        <time>2025-09-13T11:05:26Z</time>
      </trkpt>
      <trkpt lat="47.49584" lon="6.83298">
        <ele>320.6</ele>
        <time>2025-09-13T11:05:27Z</time>
      </trkpt>
      <trkpt lat="47.49589" lon="6.83293">
        <ele>320.6</ele>
        <time>2025-09-13T11:05:28Z</time>
      </trkpt>
      <trkpt lat="47.49593" lon="6.8329">
        <ele>320.6</ele>
        <time>2025-09-13T11:05:29Z</time>
      </trkpt>
      <trkpt lat="47.49599" lon="6.83288">
        <ele>320.7</ele>
        <time>2025-09-13T11:05:30Z</time>
      </trkpt>
      <trkpt lat="47.49604" lon="6.83284">
        <ele>320.7</ele>
        <time>2025-09-13T11:05:31Z</time>
      </trkpt>
      <trkpt lat="47.49609" lon="6.83282">
        <ele>320.8</ele>
        <time>2025-09-13T11:05:32Z</time>
      </trkpt>
      <trkpt lat="47.49614" lon="6.83279">
        <ele>320.9</ele>
        <time>2025-09-13T11:05:33Z</time>
      </trkpt>
      <trkpt lat="47.49619" lon="6.83275">
        <ele>321</ele>
        <time>2025-09-13T11:05:34Z</time>
      </trkpt>
      <trkpt lat="47.49624" lon="6.83272">
        <ele>321</ele>
        <time>2025-09-13T11:05:35Z</time>
      </trkpt>
      <trkpt lat="47.49628" lon="6.83275">
        <ele>321.1</ele>
        <time>2025-09-13T11:05:36Z</time>
      </trkpt>
      <trkpt lat="47.49634" lon="6.83266">
        <ele>321.2</ele>
        <time>2025-09-13T11:05:37Z</time>
      </trkpt>
      <trkpt lat="47.4964" lon="6.83262">
        <ele>321.3</ele>
        <time>2025-09-13T11:05:38Z</time>
      </trkpt>
      <trkpt lat="47.49644" lon="6.83258">
        <ele>321.4</ele>
        <time>2025-09-13T11:05:39Z</time>
      </trkpt>
      <trkpt lat="47.49646" lon="6.83249">
        <ele>321.5</ele>
        <time>2025-09-13T11:05:40Z</time>
      </trkpt>
      <trkpt lat="47.4965" lon="6.83246">
        <ele>321.5</ele>
        <time>2025-09-13T11:05:41Z</time>
      </trkpt>
      <trkpt lat="47.4966" lon="6.83242">
        <ele>321.7</ele>
        <time>2025-09-13T11:05:42Z</time>
      </trkpt>
      <trkpt lat="47.49664" lon="6.8324">
        <ele>321.7</ele>
        <time>2025-09-13T11:05:43Z</time>
      </trkpt>
      <trkpt lat="47.49671" lon="6.83236">
        <ele>321.8</ele>
        <time>2025-09-13T11:05:44Z</time>
      </trkpt>
      <trkpt lat="47.49671" lon="6.83236">
        <ele>321.8</ele>
        <time>2025-09-13T11:05:45Z</time>
      </trkpt>
      <trkpt lat="47.49674" lon="6.83234">
        <ele>321.8</ele>
        <time>2025-09-13T11:05:46Z</time>
      </trkpt>
      <trkpt lat="47.49677" lon="6.83233">
        <ele>321.8</ele>
        <time>2025-09-13T11:05:47Z</time>
      </trkpt>
      <trkpt lat="47.49683" lon="6.83226">
        <ele>321.9</ele>
        <time>2025-09-13T11:05:48Z</time>
      </trkpt>
      <trkpt lat="47.49689" lon="6.83223">
        <ele>321.9</ele>
        <time>2025-09-13T11:05:49Z</time>
      </trkpt>
      <trkpt lat="47.49695" lon="6.83221">
        <ele>322</ele>
        <time>2025-09-13T11:05:50Z</time>
      </trkpt>
      <trkpt lat="47.49702" lon="6.83222">
        <ele>322.1</ele>
        <time>2025-09-13T11:05:51Z</time>
      </trkpt>
      <trkpt lat="47.49708" lon="6.83223">
        <ele>322.1</ele>
        <time>2025-09-13T11:05:52Z</time>
      </trkpt>
      <trkpt lat="47.49714" lon="6.83222">
        <ele>322.2</ele>
        <time>2025-09-13T11:05:53Z</time>
      </trkpt>
      <trkpt lat="47.4972" lon="6.83222">
        <ele>322.2</ele>
        <time>2025-09-13T11:05:55Z</time>
      </trkpt>
      <trkpt lat="47.49733" lon="6.83221">
        <ele>322.4</ele>
        <time>2025-09-13T11:05:56Z</time>
      </trkpt>
      <trkpt lat="47.49731" lon="6.83228">
        <ele>322.6</ele>
        <time>2025-09-13T11:05:57Z</time>
      </trkpt>
      <trkpt lat="47.49739" lon="6.83233">
        <ele>322.8</ele>
        <time>2025-09-13T11:05:58Z</time>
      </trkpt>
      <trkpt lat="47.49742" lon="6.83236">
        <ele>322.9</ele>
        <time>2025-09-13T11:05:59Z</time>
      </trkpt>
      <trkpt lat="47.49746" lon="6.83238">
        <ele>323.1</ele>
        <time>2025-09-13T11:06:00Z</time>
      </trkpt>
      <trkpt lat="47.49749" lon="6.83242">
        <ele>323.2</ele>
        <time>2025-09-13T11:06:01Z</time>
      </trkpt>
      <trkpt lat="47.49752" lon="6.83245">
        <ele>323.4</ele>
        <time>2025-09-13T11:06:02Z</time>
      </trkpt>
      <trkpt lat="47.49757" lon="6.83247">
        <ele>323.6</ele>
        <time>2025-09-13T11:06:03Z</time>
      </trkpt>
      <trkpt lat="47.49761" lon="6.83249">
        <ele>323.8</ele>
        <time>2025-09-13T11:06:04Z</time>
      </trkpt>
      <trkpt lat="47.49766" lon="6.83251">
        <ele>324</ele>
        <time>2025-09-13T11:06:05Z</time>
      </trkpt>
      <trkpt lat="47.4977" lon="6.83255">
        <ele>324.2</ele>
        <time>2025-09-13T11:06:06Z</time>
      </trkpt>
      <trkpt lat="47.49774" lon="6.83259">
        <ele>324.4</ele>
        <time>2025-09-13T11:06:07Z</time>
      </trkpt>
      <trkpt lat="47.49778" lon="6.83264">
        <ele>324.6</ele>
        <time>2025-09-13T11:06:08Z</time>
      </trkpt>
      <trkpt lat="47.49782" lon="6.83268">
        <ele>324.8</ele>
        <time>2025-09-13T11:06:09Z</time>
      </trkpt>
      <trkpt lat="47.49786" lon="6.83271">
        <ele>325</ele>
        <time>2025-09-13T11:06:10Z</time>
      </trkpt>
      <trkpt lat="47.49789" lon="6.83274">
        <ele>325.2</ele>
        <time>2025-09-13T11:06:11Z</time>
      </trkpt>
      <trkpt lat="47.49793" lon="6.83276">
        <ele>325.3</ele>
        <time>2025-09-13T11:06:12Z</time>
      </trkpt>
      <trkpt lat="47.49796" lon="6.8328">
        <ele>325.4</ele>
        <time>2025-09-13T11:06:13Z</time>
      </trkpt>
      <trkpt lat="47.498" lon="6.83283">
        <ele>325.6</ele>
        <time>2025-09-13T11:06:14Z</time>
      </trkpt>
      <trkpt lat="47.49803" lon="6.83286">
        <ele>325.7</ele>
        <time>2025-09-13T11:06:15Z</time>
      </trkpt>
      <trkpt lat="47.49807" lon="6.83288">
        <ele>325.8</ele>
        <time>2025-09-13T11:06:16Z</time>
      </trkpt>
      <trkpt lat="47.4981" lon="6.83291">
        <ele>325.9</ele>
        <time>2025-09-13T11:06:17Z</time>
      </trkpt>
      <trkpt lat="47.49813" lon="6.83294">
        <ele>326</ele>
        <time>2025-09-13T11:06:18Z</time>
      </trkpt>
      <trkpt lat="47.49817" lon="6.83298">
        <ele>326.1</ele>
        <time>2025-09-13T11:06:19Z</time>
      </trkpt>
      <trkpt lat="47.49821" lon="6.83301">
        <ele>326.2</ele>
        <time>2025-09-13T11:06:20Z</time>
      </trkpt>
      <trkpt lat="47.49825" lon="6.83305">
        <ele>326.2</ele>
        <time>2025-09-13T11:06:21Z</time>
      </trkpt>
      <trkpt lat="47.49828" lon="6.83309">
        <ele>326.3</ele>
        <time>2025-09-13T11:06:22Z</time>
      </trkpt>
      <trkpt lat="47.49832" lon="6.83313">
        <ele>326.3</ele>
        <time>2025-09-13T11:06:23Z</time>
      </trkpt>
      <trkpt lat="47.49836" lon="6.83316">
        <ele>326.3</ele>
        <time>2025-09-13T11:06:24Z</time>
      </trkpt>
      <trkpt lat="47.4984" lon="6.83319">
        <ele>326.4</ele>
        <time>2025-09-13T11:06:25Z</time>
      </trkpt>
      <trkpt lat="47.49844" lon="6.83323">
        <ele>326.4</ele>
        <time>2025-09-13T11:06:26Z</time>
      </trkpt>
      <trkpt lat="47.49847" lon="6.83326">
        <ele>326.4</ele>
        <time>2025-09-13T11:06:27Z</time>
      </trkpt>
      <trkpt lat="47.49851" lon="6.83329">
        <ele>326.4</ele>
        <time>2025-09-13T11:06:28Z</time>
      </trkpt>
      <trkpt lat="47.49854" lon="6.83332">
        <ele>326.4</ele>
        <time>2025-09-13T11:06:29Z</time>
      </trkpt>
      <trkpt lat="47.49858" lon="6.83335">
        <ele>326.5</ele>
        <time>2025-09-13T11:06:31Z</time>
      </trkpt>
      <trkpt lat="47.49861" lon="6.83338">
        <ele>326.5</ele>
        <time>2025-09-13T11:06:32Z</time>
      </trkpt>
      <trkpt lat="47.49864" lon="6.83341">
        <ele>326.5</ele>
        <time>2025-09-13T11:06:33Z</time>
      </trkpt>
      <trkpt lat="47.49868" lon="6.83344">
        <ele>326.5</ele>
        <time>2025-09-13T11:06:34Z</time>
      </trkpt>
      <trkpt lat="47.49874" lon="6.8335">
        <ele>326.5</ele>
        <time>2025-09-13T11:06:35Z</time>
      </trkpt>
      <trkpt lat="47.49878" lon="6.83347">
        <ele>326.5</ele>
        <time>2025-09-13T11:06:36Z</time>
      </trkpt>
      <trkpt lat="47.49887" lon="6.8335">
        <ele>326.5</ele>
        <time>2025-09-13T11:06:37Z</time>
      </trkpt>
      <trkpt lat="47.4989" lon="6.83353">
        <ele>326.5</ele>
        <time>2025-09-13T11:06:38Z</time>
      </trkpt>
      <trkpt lat="47.49896" lon="6.83352">
        <ele>326.4</ele>
        <time>2025-09-13T11:06:39Z</time>
      </trkpt>
      <trkpt lat="47.49899" lon="6.83353">
        <ele>326.4</ele>
        <time>2025-09-13T11:06:40Z</time>
      </trkpt>
      <trkpt lat="47.49904" lon="6.83355">
        <ele>326.4</ele>
        <time>2025-09-13T11:06:41Z</time>
      </trkpt>
      <trkpt lat="47.49908" lon="6.83355">
        <ele>326.3</ele>
        <time>2025-09-13T11:06:42Z</time>
      </trkpt>
      <trkpt lat="47.49914" lon="6.83356">
        <ele>326.3</ele>
        <time>2025-09-13T11:06:43Z</time>
      </trkpt>
      <trkpt lat="47.49918" lon="6.83356">
        <ele>326.2</ele>
        <time>2025-09-13T11:06:44Z</time>
      </trkpt>
      <trkpt lat="47.49923" lon="6.83356">
        <ele>326.2</ele>
        <time>2025-09-13T11:06:45Z</time>
      </trkpt>
      <trkpt lat="47.49929" lon="6.83358">
        <ele>326.1</ele>
        <time>2025-09-13T11:06:46Z</time>
      </trkpt>
      <trkpt lat="47.49934" lon="6.83359">
        <ele>326</ele>
        <time>2025-09-13T11:06:47Z</time>
      </trkpt>
      <trkpt lat="47.4994" lon="6.8336">
        <ele>325.9</ele>
        <time>2025-09-13T11:06:48Z</time>
      </trkpt>
      <trkpt lat="47.49944" lon="6.83362">
        <ele>325.8</ele>
        <time>2025-09-13T11:06:49Z</time>
      </trkpt>
      <trkpt lat="47.49949" lon="6.83363">
        <ele>325.7</ele>
        <time>2025-09-13T11:06:50Z</time>
      </trkpt>
      <trkpt lat="47.49956" lon="6.83361">
        <ele>325.6</ele>
        <time>2025-09-13T11:06:51Z</time>
      </trkpt>
      <trkpt lat="47.49962" lon="6.83362">
        <ele>325.5</ele>
        <time>2025-09-13T11:06:52Z</time>
      </trkpt>
      <trkpt lat="47.49967" lon="6.83362">
        <ele>325.4</ele>
        <time>2025-09-13T11:06:54Z</time>
      </trkpt>
      <trkpt lat="47.49973" lon="6.83363">
        <ele>325.4</ele>
        <time>2025-09-13T11:06:55Z</time>
      </trkpt>
      <trkpt lat="47.49979" lon="6.83364">
        <ele>325.3</ele>
        <time>2025-09-13T11:06:56Z</time>
      </trkpt>
      <trkpt lat="47.49985" lon="6.83365">
        <ele>325.1</ele>
        <time>2025-09-13T11:06:57Z</time>
      </trkpt>
      <trkpt lat="47.49991" lon="6.83366">
        <ele>325</ele>
        <time>2025-09-13T11:06:58Z</time>
      </trkpt>
      <trkpt lat="47.49997" lon="6.83367">
        <ele>324.9</ele>
        <time>2025-09-13T11:06:59Z</time>
      </trkpt>
      <trkpt lat="47.50003" lon="6.83368">
        <ele>324.8</ele>
        <time>2025-09-13T11:07:00Z</time>
      </trkpt>
      <trkpt lat="47.50009" lon="6.83368">
        <ele>324.7</ele>
        <time>2025-09-13T11:07:01Z</time>
      </trkpt>
      <trkpt lat="47.50015" lon="6.83369">
        <ele>324.6</ele>
        <time>2025-09-13T11:07:02Z</time>
      </trkpt>
      <trkpt lat="47.50021" lon="6.83369">
        <ele>324.5</ele>
        <time>2025-09-13T11:07:03Z</time>
      </trkpt>
      <trkpt lat="47.50027" lon="6.83371">
        <ele>324.4</ele>
        <time>2025-09-13T11:07:04Z</time>
      </trkpt>
      <trkpt lat="47.50033" lon="6.83371">
        <ele>324.3</ele>
        <time>2025-09-13T11:07:05Z</time>
      </trkpt>
      <trkpt lat="47.50039" lon="6.83372">
        <ele>324.2</ele>
        <time>2025-09-13T11:07:06Z</time>
      </trkpt>
      <trkpt lat="47.50045" lon="6.83373">
        <ele>324.1</ele>
        <time>2025-09-13T11:07:07Z</time>
      </trkpt>
      <trkpt lat="47.50051" lon="6.83374">
        <ele>324</ele>
        <time>2025-09-13T11:07:08Z</time>
      </trkpt>
      <trkpt lat="47.50057" lon="6.83374">
        <ele>323.9</ele>
        <time>2025-09-13T11:07:09Z</time>
      </trkpt>
      <trkpt lat="47.50063" lon="6.83374">
        <ele>323.8</ele>
        <time>2025-09-13T11:07:10Z</time>
      </trkpt>
      <trkpt lat="47.50069" lon="6.83374">
        <ele>323.7</ele>
        <time>2025-09-13T11:07:11Z</time>
      </trkpt>
      <trkpt lat="47.50074" lon="6.83375">
        <ele>323.6</ele>
        <time>2025-09-13T11:07:12Z</time>
      </trkpt>
      <trkpt lat="47.50081" lon="6.83375">
        <ele>323.5</ele>
        <time>2025-09-13T11:07:13Z</time>
      </trkpt>
      <trkpt lat="47.50087" lon="6.83376">
        <ele>323.4</ele>
        <time>2025-09-13T11:07:14Z</time>
      </trkpt>
      <trkpt lat="47.50099" lon="6.83379">
        <ele>323.2</ele>
        <time>2025-09-13T11:07:15Z</time>
      </trkpt>
      <trkpt lat="47.50105" lon="6.83379">
        <ele>323</ele>
        <time>2025-09-13T11:07:16Z</time>
      </trkpt>
      <trkpt lat="47.50111" lon="6.83379">
        <ele>322.8</ele>
        <time>2025-09-13T11:07:17Z</time>
      </trkpt>
      <trkpt lat="47.50118" lon="6.83381">
        <ele>322.6</ele>
        <time>2025-09-13T11:07:18Z</time>
      </trkpt>
      <trkpt lat="47.50124" lon="6.83382">
        <ele>322.4</ele>
        <time>2025-09-13T11:07:19Z</time>
      </trkpt>
      <trkpt lat="47.5013" lon="6.83382">
        <ele>322.2</ele>
        <time>2025-09-13T11:07:20Z</time>
      </trkpt>
      <trkpt lat="47.50136" lon="6.83383">
        <ele>321.8</ele>
        <time>2025-09-13T11:07:21Z</time>
      </trkpt>
      <trkpt lat="47.50143" lon="6.83384">
        <ele>321.5</ele>
        <time>2025-09-13T11:07:22Z</time>
      </trkpt>
      <trkpt lat="47.5015" lon="6.83385">
        <ele>321.2</ele>
        <time>2025-09-13T11:07:23Z</time>
      </trkpt>
      <trkpt lat="47.50157" lon="6.83386">
        <ele>320.9</ele>
        <time>2025-09-13T11:07:24Z</time>
      </trkpt>
      <trkpt lat="47.50164" lon="6.83387">
        <ele>320.6</ele>
        <time>2025-09-13T11:07:25Z</time>
      </trkpt>
      <trkpt lat="47.50172" lon="6.83388">
        <ele>320.4</ele>
        <time>2025-09-13T11:07:26Z</time>
      </trkpt>
      <trkpt lat="47.50179" lon="6.8339">
        <ele>320.1</ele>
        <time>2025-09-13T11:07:27Z</time>
      </trkpt>
      <trkpt lat="47.50187" lon="6.83391">
        <ele>320</ele>
        <time>2025-09-13T11:07:28Z</time>
      </trkpt>
      <trkpt lat="47.50195" lon="6.83392">
        <ele>319.9</ele>
        <time>2025-09-13T11:07:29Z</time>
      </trkpt>
      <trkpt lat="47.50203" lon="6.83393">
        <ele>320</ele>
        <time>2025-09-13T11:07:30Z</time>
      </trkpt>
      <trkpt lat="47.5021" lon="6.83403">
        <ele>320.1</ele>
        <time>2025-09-13T11:07:31Z</time>
      </trkpt>
      <trkpt lat="47.50218" lon="6.83405">
        <ele>320.3</ele>
        <time>2025-09-13T11:07:32Z</time>
      </trkpt>
      <trkpt lat="47.50225" lon="6.83408">
        <ele>320.4</ele>
        <time>2025-09-13T11:07:33Z</time>
      </trkpt>
      <trkpt lat="47.50231" lon="6.83405">
        <ele>320.6</ele>
        <time>2025-09-13T11:07:34Z</time>
      </trkpt>
      <trkpt lat="47.50237" lon="6.83405">
        <ele>320.7</ele>
        <time>2025-09-13T11:07:35Z</time>
      </trkpt>
      <trkpt lat="47.50242" lon="6.83404">
        <ele>320.8</ele>
        <time>2025-09-13T11:07:36Z</time>
      </trkpt>
      <trkpt lat="47.50247" lon="6.83401">
        <ele>320.8</ele>
        <time>2025-09-13T11:07:37Z</time>
      </trkpt>
      <trkpt lat="47.50251" lon="6.83399">
        <ele>320.8</ele>
        <time>2025-09-13T11:07:38Z</time>
      </trkpt>
      <trkpt lat="47.50256" lon="6.83398">
        <ele>320.8</ele>
        <time>2025-09-13T11:07:39Z</time>
      </trkpt>
      <trkpt lat="47.50262" lon="6.83396">
        <ele>320.8</ele>
        <time>2025-09-13T11:07:40Z</time>
      </trkpt>
      <trkpt lat="47.50267" lon="6.83394">
        <ele>320.8</ele>
        <time>2025-09-13T11:07:41Z</time>
      </trkpt>
      <trkpt lat="47.50273" lon="6.83391">
        <ele>320.8</ele>
        <time>2025-09-13T11:07:42Z</time>
      </trkpt>
      <trkpt lat="47.50278" lon="6.83389">
        <ele>320.8</ele>
        <time>2025-09-13T11:07:43Z</time>
      </trkpt>
      <trkpt lat="47.50285" lon="6.83388">
        <ele>320.8</ele>
        <time>2025-09-13T11:07:44Z</time>
      </trkpt>
      <trkpt lat="47.5029" lon="6.83386">
        <ele>320.7</ele>
        <time>2025-09-13T11:07:45Z</time>
      </trkpt>
      <trkpt lat="47.50296" lon="6.83384">
        <ele>320.7</ele>
        <time>2025-09-13T11:07:46Z</time>
      </trkpt>
      <trkpt lat="47.50301" lon="6.83382">
        <ele>320.7</ele>
        <time>2025-09-13T11:07:47Z</time>
      </trkpt>
      <trkpt lat="47.50306" lon="6.83381">
        <ele>320.8</ele>
        <time>2025-09-13T11:07:48Z</time>
      </trkpt>
      <trkpt lat="47.50312" lon="6.83381">
        <ele>320.8</ele>
        <time>2025-09-13T11:07:49Z</time>
      </trkpt>
      <trkpt lat="47.50317" lon="6.83379">
        <ele>320.8</ele>
        <time>2025-09-13T11:07:50Z</time>
      </trkpt>
      <trkpt lat="47.50322" lon="6.83378">
        <ele>320.8</ele>
        <time>2025-09-13T11:07:51Z</time>
      </trkpt>
      <trkpt lat="47.50328" lon="6.83376">
        <ele>320.7</ele>
        <time>2025-09-13T11:07:52Z</time>
      </trkpt>
      <trkpt lat="47.50333" lon="6.83375">
        <ele>320.7</ele>
        <time>2025-09-13T11:07:53Z</time>
      </trkpt>
      <trkpt lat="47.50339" lon="6.83374">
        <ele>320.7</ele>
        <time>2025-09-13T11:07:54Z</time>
      </trkpt>
      <trkpt lat="47.50343" lon="6.83372">
        <ele>320.7</ele>
        <time>2025-09-13T11:07:55Z</time>
      </trkpt>
      <trkpt lat="47.50349" lon="6.83372">
        <ele>320.6</ele>
        <time>2025-09-13T11:07:56Z</time>
      </trkpt>
      <trkpt lat="47.50353" lon="6.8337">
        <ele>320.6</ele>
        <time>2025-09-13T11:07:57Z</time>
      </trkpt>
      <trkpt lat="47.50359" lon="6.83369">
        <ele>320.5</ele>
        <time>2025-09-13T11:07:58Z</time>
      </trkpt>
      <trkpt lat="47.50364" lon="6.83367">
        <ele>320.4</ele>
        <time>2025-09-13T11:07:59Z</time>
      </trkpt>
      <trkpt lat="47.5037" lon="6.83367">
        <ele>320.3</ele>
        <time>2025-09-13T11:08:00Z</time>
      </trkpt>
      <trkpt lat="47.50375" lon="6.83366">
        <ele>320.2</ele>
        <time>2025-09-13T11:08:01Z</time>
      </trkpt>
      <trkpt lat="47.50381" lon="6.83364">
        <ele>320</ele>
        <time>2025-09-13T11:08:02Z</time>
      </trkpt>
      <trkpt lat="47.50387" lon="6.83363">
        <ele>319.9</ele>
        <time>2025-09-13T11:08:03Z</time>
      </trkpt>
      <trkpt lat="47.50394" lon="6.83361">
        <ele>319.8</ele>
        <time>2025-09-13T11:08:04Z</time>
      </trkpt>
      <trkpt lat="47.50401" lon="6.8336">
        <ele>319.7</ele>
        <time>2025-09-13T11:08:05Z</time>
      </trkpt>
      <trkpt lat="47.50406" lon="6.83357">
        <ele>319.7</ele>
        <time>2025-09-13T11:08:06Z</time>
      </trkpt>
      <trkpt lat="47.50412" lon="6.83356">
        <ele>319.7</ele>
        <time>2025-09-13T11:08:07Z</time>
      </trkpt>
      <trkpt lat="47.50417" lon="6.83354">
        <ele>319.7</ele>
        <time>2025-09-13T11:08:08Z</time>
      </trkpt>
      <trkpt lat="47.50422" lon="6.83351">
        <ele>319.7</ele>
        <time>2025-09-13T11:08:09Z</time>
      </trkpt>
      <trkpt lat="47.50428" lon="6.83348">
        <ele>319.7</ele>
        <time>2025-09-13T11:08:10Z</time>
      </trkpt>
      <trkpt lat="47.50433" lon="6.83346">
        <ele>319.7</ele>
        <time>2025-09-13T11:08:11Z</time>
      </trkpt>
      <trkpt lat="47.50438" lon="6.83343">
        <ele>319.8</ele>
        <time>2025-09-13T11:08:12Z</time>
      </trkpt>
      <trkpt lat="47.5044" lon="6.83339">
        <ele>319.7</ele>
        <time>2025-09-13T11:08:13Z</time>
      </trkpt>
      <trkpt lat="47.50442" lon="6.83333">
        <ele>319.6</ele>
        <time>2025-09-13T11:08:14Z</time>
      </trkpt>
      <trkpt lat="47.50445" lon="6.83327">
        <ele>319.5</ele>
        <time>2025-09-13T11:08:15Z</time>
      </trkpt>
      <trkpt lat="47.50444" lon="6.83316">
        <ele>319.4</ele>
        <time>2025-09-13T11:08:16Z</time>
      </trkpt>
      <trkpt lat="47.50445" lon="6.83307">
        <ele>319.3</ele>
        <time>2025-09-13T11:08:17Z</time>
      </trkpt>
      <trkpt lat="47.50444" lon="6.83298">
        <ele>319.2</ele>
        <time>2025-09-13T11:08:18Z</time>
      </trkpt>
      <trkpt lat="47.50442" lon="6.83289">
        <ele>319.2</ele>
        <time>2025-09-13T11:08:19Z</time>
      </trkpt>
      <trkpt lat="47.5044" lon="6.83281">
        <ele>319.2</ele>
        <time>2025-09-13T11:08:20Z</time>
      </trkpt>
      <trkpt lat="47.50438" lon="6.83274">
        <ele>319.2</ele>
        <time>2025-09-13T11:08:21Z</time>
      </trkpt>
      <trkpt lat="47.50436" lon="6.83269">
        <ele>319.2</ele>
        <time>2025-09-13T11:08:22Z</time>
      </trkpt>
      <trkpt lat="47.50435" lon="6.83264">
        <ele>319.2</ele>
        <time>2025-09-13T11:08:23Z</time>
      </trkpt>
      <trkpt lat="47.50434" lon="6.83255">
        <ele>319.2</ele>
        <time>2025-09-13T11:08:24Z</time>
      </trkpt>
      <trkpt lat="47.50433" lon="6.83245">
        <ele>319.2</ele>
        <time>2025-09-13T11:08:25Z</time>
      </trkpt>
      <trkpt lat="47.50431" lon="6.83238">
        <ele>319.2</ele>
        <time>2025-09-13T11:08:26Z</time>
      </trkpt>
      <trkpt lat="47.50428" lon="6.83231">
        <ele>319.2</ele>
        <time>2025-09-13T11:08:27Z</time>
      </trkpt>
      <trkpt lat="47.50426" lon="6.83222">
        <ele>319.3</ele>
        <time>2025-09-13T11:08:28Z</time>
      </trkpt>
      <trkpt lat="47.50424" lon="6.83215">
        <ele>319.3</ele>
        <time>2025-09-13T11:08:29Z</time>
      </trkpt>
      <trkpt lat="47.50423" lon="6.83206">
        <ele>319.2</ele>
        <time>2025-09-13T11:08:30Z</time>
      </trkpt>
      <trkpt lat="47.5042" lon="6.83199">
        <ele>319.2</ele>
        <time>2025-09-13T11:08:31Z</time>
      </trkpt>
      <trkpt lat="47.50418" lon="6.8319">
        <ele>319.2</ele>
        <time>2025-09-13T11:08:32Z</time>
      </trkpt>
      <trkpt lat="47.50416" lon="6.83182">
        <ele>319.2</ele>
        <time>2025-09-13T11:08:33Z</time>
      </trkpt>
      <trkpt lat="47.50414" lon="6.83174">
        <ele>319.2</ele>
        <time>2025-09-13T11:08:34Z</time>
      </trkpt>
      <trkpt lat="47.50412" lon="6.83166">
        <ele>319.2</ele>
        <time>2025-09-13T11:08:35Z</time>
      </trkpt>
      <trkpt lat="47.50413" lon="6.83156">
        <ele>319.2</ele>
        <time>2025-09-13T11:08:36Z</time>
      </trkpt>
      <trkpt lat="47.5041" lon="6.83147">
        <ele>319.2</ele>
        <time>2025-09-13T11:08:37Z</time>
      </trkpt>
      <trkpt lat="47.50409" lon="6.83137">
        <ele>319.2</ele>
        <time>2025-09-13T11:08:38Z</time>
      </trkpt>
      <trkpt lat="47.50407" lon="6.83128">
        <ele>319.2</ele>
        <time>2025-09-13T11:08:39Z</time>
      </trkpt>
      <trkpt lat="47.50407" lon="6.83119">
        <ele>319.2</ele>
        <time>2025-09-13T11:08:40Z</time>
      </trkpt>
      <trkpt lat="47.50406" lon="6.83111">
        <ele>319.2</ele>
        <time>2025-09-13T11:08:41Z</time>
      </trkpt>
      <trkpt lat="47.50405" lon="6.83103">
        <ele>319.2</ele>
        <time>2025-09-13T11:08:42Z</time>
      </trkpt>
      <trkpt lat="47.50405" lon="6.83093">
        <ele>319.2</ele>
        <time>2025-09-13T11:08:43Z</time>
      </trkpt>
      <trkpt lat="47.50404" lon="6.83084">
        <ele>319.2</ele>
        <time>2025-09-13T11:08:44Z</time>
      </trkpt>
      <trkpt lat="47.50403" lon="6.83075">
        <ele>319.2</ele>
        <time>2025-09-13T11:08:45Z</time>
      </trkpt>
      <trkpt lat="47.50402" lon="6.83067">
        <ele>319.2</ele>
        <time>2025-09-13T11:08:46Z</time>
      </trkpt>
      <trkpt lat="47.504" lon="6.83057">
        <ele>319.2</ele>
        <time>2025-09-13T11:08:47Z</time>
      </trkpt>
      <trkpt lat="47.50398" lon="6.83052">
        <ele>319.2</ele>
        <time>2025-09-13T11:08:48Z</time>
      </trkpt>
      <trkpt lat="47.50396" lon="6.83043">
        <ele>319.2</ele>
        <time>2025-09-13T11:08:49Z</time>
      </trkpt>
      <trkpt lat="47.50395" lon="6.83036">
        <ele>319.2</ele>
        <time>2025-09-13T11:08:50Z</time>
      </trkpt>
      <trkpt lat="47.50393" lon="6.83027">
        <ele>319.2</ele>
        <time>2025-09-13T11:08:51Z</time>
      </trkpt>
      <trkpt lat="47.50392" lon="6.83018">
        <ele>319.2</ele>
        <time>2025-09-13T11:08:52Z</time>
      </trkpt>
      <trkpt lat="47.50392" lon="6.83009">
        <ele>319.2</ele>
        <time>2025-09-13T11:08:53Z</time>
      </trkpt>
      <trkpt lat="47.5039" lon="6.83002">
        <ele>319.2</ele>
        <time>2025-09-13T11:08:54Z</time>
      </trkpt>
      <trkpt lat="47.50387" lon="6.82995">
        <ele>319.2</ele>
        <time>2025-09-13T11:08:55Z</time>
      </trkpt>
      <trkpt lat="47.50385" lon="6.82987">
        <ele>319.2</ele>
        <time>2025-09-13T11:08:56Z</time>
      </trkpt>
      <trkpt lat="47.50382" lon="6.82979">
        <ele>319.2</ele>
        <time>2025-09-13T11:08:57Z</time>
      </trkpt>
      <trkpt lat="47.50381" lon="6.82969">
        <ele>319.2</ele>
        <time>2025-09-13T11:08:58Z</time>
      </trkpt>
      <trkpt lat="47.50381" lon="6.82959">
        <ele>319.2</ele>
        <time>2025-09-13T11:08:59Z</time>
      </trkpt>
      <trkpt lat="47.50379" lon="6.82952">
        <ele>319.3</ele>
        <time>2025-09-13T11:09:00Z</time>
      </trkpt>
      <trkpt lat="47.50381" lon="6.82943">
        <ele>319.3</ele>
        <time>2025-09-13T11:09:01Z</time>
      </trkpt>
      <trkpt lat="47.50381" lon="6.82934">
        <ele>319.2</ele>
        <time>2025-09-13T11:09:02Z</time>
      </trkpt>
      <trkpt lat="47.5038" lon="6.82926">
        <ele>319.2</ele>
        <time>2025-09-13T11:09:03Z</time>
      </trkpt>
      <trkpt lat="47.5038" lon="6.82917">
        <ele>319.2</ele>
        <time>2025-09-13T11:09:04Z</time>
      </trkpt>
      <trkpt lat="47.50379" lon="6.82908">
        <ele>319.1</ele>
        <time>2025-09-13T11:09:05Z</time>
      </trkpt>
      <trkpt lat="47.50378" lon="6.82899">
        <ele>319.1</ele>
        <time>2025-09-13T11:09:06Z</time>
      </trkpt>
      <trkpt lat="47.50378" lon="6.82891">
        <ele>319</ele>
        <time>2025-09-13T11:09:07Z</time>
      </trkpt>
      <trkpt lat="47.50377" lon="6.82883">
        <ele>319</ele>
        <time>2025-09-13T11:09:08Z</time>
      </trkpt>
      <trkpt lat="47.50376" lon="6.82874">
        <ele>319</ele>
        <time>2025-09-13T11:09:09Z</time>
      </trkpt>
      <trkpt lat="47.50375" lon="6.82866">
        <ele>319</ele>
        <time>2025-09-13T11:09:10Z</time>
      </trkpt>
      <trkpt lat="47.50374" lon="6.82858">
        <ele>318.9</ele>
        <time>2025-09-13T11:09:11Z</time>
      </trkpt>
      <trkpt lat="47.50371" lon="6.8285">
        <ele>318.9</ele>
        <time>2025-09-13T11:09:12Z</time>
      </trkpt>
      <trkpt lat="47.5037" lon="6.82843">
        <ele>318.9</ele>
        <time>2025-09-13T11:09:13Z</time>
      </trkpt>
      <trkpt lat="47.50368" lon="6.82833">
        <ele>318.9</ele>
        <time>2025-09-13T11:09:14Z</time>
      </trkpt>
      <trkpt lat="47.50366" lon="6.82826">
        <ele>318.9</ele>
        <time>2025-09-13T11:09:15Z</time>
      </trkpt>
      <trkpt lat="47.50363" lon="6.82818">
        <ele>318.9</ele>
        <time>2025-09-13T11:09:16Z</time>
      </trkpt>
      <trkpt lat="47.50361" lon="6.82811">
        <ele>318.9</ele>
        <time>2025-09-13T11:09:17Z</time>
      </trkpt>
      <trkpt lat="47.50359" lon="6.82804">
        <ele>318.9</ele>
        <time>2025-09-13T11:09:18Z</time>
      </trkpt>
      <trkpt lat="47.50358" lon="6.82795">
        <ele>318.9</ele>
        <time>2025-09-13T11:09:19Z</time>
      </trkpt>
      <trkpt lat="47.50356" lon="6.82786">
        <ele>318.9</ele>
        <time>2025-09-13T11:09:20Z</time>
      </trkpt>
      <trkpt lat="47.50353" lon="6.82779">
        <ele>318.9</ele>
        <time>2025-09-13T11:09:21Z</time>
      </trkpt>
      <trkpt lat="47.50354" lon="6.82767">
        <ele>318.9</ele>
        <time>2025-09-13T11:09:22Z</time>
      </trkpt>
      <trkpt lat="47.50353" lon="6.82759">
        <ele>318.9</ele>
        <time>2025-09-13T11:09:23Z</time>
      </trkpt>
      <trkpt lat="47.50353" lon="6.82751">
        <ele>318.9</ele>
        <time>2025-09-13T11:09:24Z</time>
      </trkpt>
      <trkpt lat="47.50353" lon="6.82743">
        <ele>318.9</ele>
        <time>2025-09-13T11:09:25Z</time>
      </trkpt>
      <trkpt lat="47.50351" lon="6.82734">
        <ele>318.9</ele>
        <time>2025-09-13T11:09:26Z</time>
      </trkpt>
      <trkpt lat="47.50351" lon="6.82725">
        <ele>318.8</ele>
        <time>2025-09-13T11:09:27Z</time>
      </trkpt>
      <trkpt lat="47.50351" lon="6.82715">
        <ele>318.8</ele>
        <time>2025-09-13T11:09:28Z</time>
      </trkpt>
      <trkpt lat="47.5035" lon="6.82707">
        <ele>318.8</ele>
        <time>2025-09-13T11:09:29Z</time>
      </trkpt>
      <trkpt lat="47.5035" lon="6.827">
        <ele>318.7</ele>
        <time>2025-09-13T11:09:30Z</time>
      </trkpt>
      <trkpt lat="47.50352" lon="6.82694">
        <ele>318.7</ele>
        <time>2025-09-13T11:09:31Z</time>
      </trkpt>
      <trkpt lat="47.50352" lon="6.82687">
        <ele>318.6</ele>
        <time>2025-09-13T11:09:32Z</time>
      </trkpt>
      <trkpt lat="47.5035" lon="6.82677">
        <ele>318.6</ele>
        <time>2025-09-13T11:09:33Z</time>
      </trkpt>
      <trkpt lat="47.5035" lon="6.82667">
        <ele>318.5</ele>
        <time>2025-09-13T11:09:34Z</time>
      </trkpt>
      <trkpt lat="47.5035" lon="6.82661">
        <ele>318.5</ele>
        <time>2025-09-13T11:09:35Z</time>
      </trkpt>
      <trkpt lat="47.50349" lon="6.82652">
        <ele>318.5</ele>
        <time>2025-09-13T11:09:36Z</time>
      </trkpt>
      <trkpt lat="47.5035" lon="6.82642">
        <ele>318.5</ele>
        <time>2025-09-13T11:09:37Z</time>
      </trkpt>
      <trkpt lat="47.5035" lon="6.82634">
        <ele>318.6</ele>
        <time>2025-09-13T11:09:38Z</time>
      </trkpt>
      <trkpt lat="47.5035" lon="6.82626">
        <ele>318.6</ele>
        <time>2025-09-13T11:09:39Z</time>
      </trkpt>
      <trkpt lat="47.50349" lon="6.82619">
        <ele>318.6</ele>
        <time>2025-09-13T11:09:40Z</time>
      </trkpt>
      <trkpt lat="47.50349" lon="6.82611">
        <ele>318.6</ele>
        <time>2025-09-13T11:09:41Z</time>
      </trkpt>
      <trkpt lat="47.50348" lon="6.82603">
        <ele>318.7</ele>
        <time>2025-09-13T11:09:42Z</time>
      </trkpt>
      <trkpt lat="47.50349" lon="6.82595">
        <ele>318.8</ele>
        <time>2025-09-13T11:09:43Z</time>
      </trkpt>
      <trkpt lat="47.50347" lon="6.82587">
        <ele>318.8</ele>
        <time>2025-09-13T11:09:44Z</time>
      </trkpt>
      <trkpt lat="47.50348" lon="6.8258">
        <ele>318.9</ele>
        <time>2025-09-13T11:09:45Z</time>
      </trkpt>
      <trkpt lat="47.50347" lon="6.82571">
        <ele>319</ele>
        <time>2025-09-13T11:09:46Z</time>
      </trkpt>
      <trkpt lat="47.50349" lon="6.82566">
        <ele>319</ele>
        <time>2025-09-13T11:09:47Z</time>
      </trkpt>
      <trkpt lat="47.50351" lon="6.82559">
        <ele>319</ele>
        <time>2025-09-13T11:09:48Z</time>
      </trkpt>
      <trkpt lat="47.50354" lon="6.82555">
        <ele>319</ele>
        <time>2025-09-13T11:09:49Z</time>
      </trkpt>
      <trkpt lat="47.50357" lon="6.82551">
        <ele>319</ele>
        <time>2025-09-13T11:09:50Z</time>
      </trkpt>
      <trkpt lat="47.5036" lon="6.82547">
        <ele>319</ele>
        <time>2025-09-13T11:09:51Z</time>
      </trkpt>
      <trkpt lat="47.50363" lon="6.82542">
        <ele>319</ele>
        <time>2025-09-13T11:09:52Z</time>
      </trkpt>
      <trkpt lat="47.50367" lon="6.8254">
        <ele>319</ele>
        <time>2025-09-13T11:09:53Z</time>
      </trkpt>
      <trkpt lat="47.50368" lon="6.82541">
        <ele>318.9</ele>
        <time>2025-09-13T11:09:54Z</time>
      </trkpt>
      <trkpt lat="47.50371" lon="6.82538">
        <ele>318.9</ele>
        <time>2025-09-13T11:09:55Z</time>
      </trkpt>
      <trkpt lat="47.50372" lon="6.82537">
        <ele>318.9</ele>
        <time>2025-09-13T11:09:56Z</time>
      </trkpt>
      <trkpt lat="47.50373" lon="6.82533">
        <ele>318.9</ele>
        <time>2025-09-13T11:09:57Z</time>
      </trkpt>
      <trkpt lat="47.50374" lon="6.82532">
        <ele>318.9</ele>
        <time>2025-09-13T11:09:58Z</time>
      </trkpt>
      <trkpt lat="47.50375" lon="6.82528">
        <ele>318.9</ele>
        <time>2025-09-13T11:09:59Z</time>
      </trkpt>
      <trkpt lat="47.50376" lon="6.82524">
        <ele>318.9</ele>
        <time>2025-09-13T11:10:00Z</time>
      </trkpt>
      <trkpt lat="47.50378" lon="6.8252">
        <ele>319</ele>
        <time>2025-09-13T11:10:01Z</time>
      </trkpt>
      <trkpt lat="47.5038" lon="6.82516">
        <ele>319</ele>
        <time>2025-09-13T11:10:02Z</time>
      </trkpt>
      <trkpt lat="47.50382" lon="6.82513">
        <ele>319</ele>
        <time>2025-09-13T11:10:03Z</time>
      </trkpt>
      <trkpt lat="47.50383" lon="6.82509">
        <ele>319</ele>
        <time>2025-09-13T11:10:04Z</time>
      </trkpt>
      <trkpt lat="47.50383" lon="6.82493">
        <ele>318.9</ele>
        <time>2025-09-13T11:10:05Z</time>
      </trkpt>
      <trkpt lat="47.50381" lon="6.82479">
        <ele>318.9</ele>
        <time>2025-09-13T11:10:06Z</time>
      </trkpt>
      <trkpt lat="47.5038" lon="6.82466">
        <ele>318.8</ele>
        <time>2025-09-13T11:10:07Z</time>
      </trkpt>
      <trkpt lat="47.5038" lon="6.82446">
        <ele>318.8</ele>
        <time>2025-09-13T11:10:08Z</time>
      </trkpt>
      <trkpt lat="47.50364" lon="6.82455">
        <ele>318.8</ele>
        <time>2025-09-13T11:10:09Z</time>
      </trkpt>
      <trkpt lat="47.5036" lon="6.8245">
        <ele>318.7</ele>
        <time>2025-09-13T11:10:10Z</time>
      </trkpt>
      <trkpt lat="47.50358" lon="6.82447">
        <ele>318.7</ele>
        <time>2025-09-13T11:10:11Z</time>
      </trkpt>
      <trkpt lat="47.50362" lon="6.82438">
        <ele>318.7</ele>
        <time>2025-09-13T11:10:12Z</time>
      </trkpt>
      <trkpt lat="47.50362" lon="6.82432">
        <ele>318.7</ele>
        <time>2025-09-13T11:10:13Z</time>
      </trkpt>
      <trkpt lat="47.5036" lon="6.82426">
        <ele>318.7</ele>
        <time>2025-09-13T11:10:14Z</time>
      </trkpt>
      <trkpt lat="47.50359" lon="6.8242">
        <ele>318.7</ele>
        <time>2025-09-13T11:10:15Z</time>
      </trkpt>
      <trkpt lat="47.50356" lon="6.82415">
        <ele>318.6</ele>
        <time>2025-09-13T11:10:16Z</time>
      </trkpt>
      <trkpt lat="47.50354" lon="6.82409">
        <ele>318.6</ele>
        <time>2025-09-13T11:10:17Z</time>
      </trkpt>
      <trkpt lat="47.50351" lon="6.82404">
        <ele>318.6</ele>
        <time>2025-09-13T11:10:18Z</time>
      </trkpt>
      <trkpt lat="47.50348" lon="6.82397">
        <ele>318.6</ele>
        <time>2025-09-13T11:10:19Z</time>
      </trkpt>
      <trkpt lat="47.50347" lon="6.82389">
        <ele>318.6</ele>
        <time>2025-09-13T11:10:20Z</time>
      </trkpt>
      <trkpt lat="47.50346" lon="6.82381">
        <ele>318.5</ele>
        <time>2025-09-13T11:10:21Z</time>
      </trkpt>
      <trkpt lat="47.50346" lon="6.82372">
        <ele>318.5</ele>
        <time>2025-09-13T11:10:22Z</time>
      </trkpt>
      <trkpt lat="47.50346" lon="6.82364">
        <ele>318.5</ele>
        <time>2025-09-13T11:10:23Z</time>
      </trkpt>
      <trkpt lat="47.50346" lon="6.82355">
        <ele>318.5</ele>
        <time>2025-09-13T11:10:24Z</time>
      </trkpt>
      <trkpt lat="47.50346" lon="6.82347">
        <ele>318.5</ele>
        <time>2025-09-13T11:10:25Z</time>
      </trkpt>
      <trkpt lat="47.50346" lon="6.82339">
        <ele>318.5</ele>
        <time>2025-09-13T11:10:26Z</time>
      </trkpt>
      <trkpt lat="47.50346" lon="6.8233">
        <ele>318.5</ele>
        <time>2025-09-13T11:10:27Z</time>
      </trkpt>
      <trkpt lat="47.50347" lon="6.82321">
        <ele>318.5</ele>
        <time>2025-09-13T11:10:28Z</time>
      </trkpt>
      <trkpt lat="47.50348" lon="6.82313">
        <ele>318.5</ele>
        <time>2025-09-13T11:10:29Z</time>
      </trkpt>
      <trkpt lat="47.50348" lon="6.82303">
        <ele>318.5</ele>
        <time>2025-09-13T11:10:30Z</time>
      </trkpt>
      <trkpt lat="47.50348" lon="6.82294">
        <ele>318.5</ele>
        <time>2025-09-13T11:10:31Z</time>
      </trkpt>
      <trkpt lat="47.50348" lon="6.82286">
        <ele>318.5</ele>
        <time>2025-09-13T11:10:32Z</time>
      </trkpt>
      <trkpt lat="47.50348" lon="6.82278">
        <ele>318.6</ele>
        <time>2025-09-13T11:10:33Z</time>
      </trkpt>
      <trkpt lat="47.50349" lon="6.82271">
        <ele>318.6</ele>
        <time>2025-09-13T11:10:34Z</time>
      </trkpt>
      <trkpt lat="47.50349" lon="6.82263">
        <ele>318.6</ele>
        <time>2025-09-13T11:10:35Z</time>
      </trkpt>
      <trkpt lat="47.5035" lon="6.82254">
        <ele>318.7</ele>
        <time>2025-09-13T11:10:36Z</time>
      </trkpt>
      <trkpt lat="47.5035" lon="6.82247">
        <ele>318.7</ele>
        <time>2025-09-13T11:10:37Z</time>
      </trkpt>
      <trkpt lat="47.50352" lon="6.82238">
        <ele>318.7</ele>
        <time>2025-09-13T11:10:38Z</time>
      </trkpt>
      <trkpt lat="47.50352" lon="6.82229">
        <ele>318.7</ele>
        <time>2025-09-13T11:10:39Z</time>
      </trkpt>
      <trkpt lat="47.50353" lon="6.82221">
        <ele>318.7</ele>
        <time>2025-09-13T11:10:40Z</time>
      </trkpt>
      <trkpt lat="47.50354" lon="6.82213">
        <ele>318.7</ele>
        <time>2025-09-13T11:10:41Z</time>
      </trkpt>
      <trkpt lat="47.50356" lon="6.82205">
        <ele>318.6</ele>
        <time>2025-09-13T11:10:42Z</time>
      </trkpt>
      <trkpt lat="47.50356" lon="6.82197">
        <ele>318.6</ele>
        <time>2025-09-13T11:10:43Z</time>
      </trkpt>
      <trkpt lat="47.50356" lon="6.82188">
        <ele>318.6</ele>
        <time>2025-09-13T11:10:44Z</time>
      </trkpt>
      <trkpt lat="47.50356" lon="6.82179">
        <ele>318.6</ele>
        <time>2025-09-13T11:10:45Z</time>
      </trkpt>
      <trkpt lat="47.50357" lon="6.82172">
        <ele>318.6</ele>
        <time>2025-09-13T11:10:46Z</time>
      </trkpt>
      <trkpt lat="47.50356" lon="6.82163">
        <ele>318.6</ele>
        <time>2025-09-13T11:10:47Z</time>
      </trkpt>
      <trkpt lat="47.50357" lon="6.82154">
        <ele>318.7</ele>
        <time>2025-09-13T11:10:48Z</time>
      </trkpt>
      <trkpt lat="47.50358" lon="6.82146">
        <ele>318.7</ele>
        <time>2025-09-13T11:10:49Z</time>
      </trkpt>
      <trkpt lat="47.50359" lon="6.82137">
        <ele>318.7</ele>
        <time>2025-09-13T11:10:50Z</time>
      </trkpt>
      <trkpt lat="47.5036" lon="6.82129">
        <ele>318.7</ele>
        <time>2025-09-13T11:10:51Z</time>
      </trkpt>
      <trkpt lat="47.50361" lon="6.8212">
        <ele>318.6</ele>
        <time>2025-09-13T11:10:52Z</time>
      </trkpt>
      <trkpt lat="47.50361" lon="6.82111">
        <ele>318.6</ele>
        <time>2025-09-13T11:10:53Z</time>
      </trkpt>
      <trkpt lat="47.50362" lon="6.82103">
        <ele>318.6</ele>
        <time>2025-09-13T11:10:54Z</time>
      </trkpt>
      <trkpt lat="47.50363" lon="6.82094">
        <ele>318.6</ele>
        <time>2025-09-13T11:10:55Z</time>
      </trkpt>
      <trkpt lat="47.50363" lon="6.82086">
        <ele>318.5</ele>
        <time>2025-09-13T11:10:56Z</time>
      </trkpt>
      <trkpt lat="47.50364" lon="6.82077">
        <ele>318.5</ele>
        <time>2025-09-13T11:10:57Z</time>
      </trkpt>
      <trkpt lat="47.50365" lon="6.82067">
        <ele>318.5</ele>
        <time>2025-09-13T11:10:58Z</time>
      </trkpt>
      <trkpt lat="47.50365" lon="6.82059">
        <ele>318.5</ele>
        <time>2025-09-13T11:10:59Z</time>
      </trkpt>
      <trkpt lat="47.50366" lon="6.82049">
        <ele>318.5</ele>
        <time>2025-09-13T11:11:00Z</time>
      </trkpt>
      <trkpt lat="47.50367" lon="6.82041">
        <ele>318.5</ele>
        <time>2025-09-13T11:11:01Z</time>
      </trkpt>
      <trkpt lat="47.50368" lon="6.82033">
        <ele>318.5</ele>
        <time>2025-09-13T11:11:02Z</time>
      </trkpt>
      <trkpt lat="47.50369" lon="6.82024">
        <ele>318.5</ele>
        <time>2025-09-13T11:11:03Z</time>
      </trkpt>
      <trkpt lat="47.5037" lon="6.82015">
        <ele>318.5</ele>
        <time>2025-09-13T11:11:04Z</time>
      </trkpt>
      <trkpt lat="47.5037" lon="6.82006">
        <ele>318.4</ele>
        <time>2025-09-13T11:11:05Z</time>
      </trkpt>
      <trkpt lat="47.50371" lon="6.81997">
        <ele>318.4</ele>
        <time>2025-09-13T11:11:06Z</time>
      </trkpt>
      <trkpt lat="47.50371" lon="6.81989">
        <ele>318.4</ele>
        <time>2025-09-13T11:11:07Z</time>
      </trkpt>
      <trkpt lat="47.50371" lon="6.8198">
        <ele>318.4</ele>
        <time>2025-09-13T11:11:08Z</time>
      </trkpt>
      <trkpt lat="47.50372" lon="6.81972">
        <ele>318.4</ele>
        <time>2025-09-13T11:11:09Z</time>
      </trkpt>
      <trkpt lat="47.50373" lon="6.81963">
        <ele>318.4</ele>
        <time>2025-09-13T11:11:10Z</time>
      </trkpt>
      <trkpt lat="47.50374" lon="6.81955">
        <ele>318.4</ele>
        <time>2025-09-13T11:11:11Z</time>
      </trkpt>
      <trkpt lat="47.50375" lon="6.81946">
        <ele>318.4</ele>
        <time>2025-09-13T11:11:12Z</time>
      </trkpt>
      <trkpt lat="47.50377" lon="6.81937">
        <ele>318.4</ele>
        <time>2025-09-13T11:11:13Z</time>
      </trkpt>
      <trkpt lat="47.50377" lon="6.81928">
        <ele>318.4</ele>
        <time>2025-09-13T11:11:14Z</time>
      </trkpt>
      <trkpt lat="47.50377" lon="6.81919">
        <ele>318.4</ele>
        <time>2025-09-13T11:11:15Z</time>
      </trkpt>
      <trkpt lat="47.50378" lon="6.8191">
        <ele>318.4</ele>
        <time>2025-09-13T11:11:16Z</time>
      </trkpt>
      <trkpt lat="47.50378" lon="6.81902">
        <ele>318.3</ele>
        <time>2025-09-13T11:11:17Z</time>
      </trkpt>
      <trkpt lat="47.50379" lon="6.81892">
        <ele>318.3</ele>
        <time>2025-09-13T11:11:18Z</time>
      </trkpt>
      <trkpt lat="47.5038" lon="6.81884">
        <ele>318.4</ele>
        <time>2025-09-13T11:11:19Z</time>
      </trkpt>
      <trkpt lat="47.5038" lon="6.81875">
        <ele>318.4</ele>
        <time>2025-09-13T11:11:20Z</time>
      </trkpt>
      <trkpt lat="47.50381" lon="6.81866">
        <ele>318.4</ele>
        <time>2025-09-13T11:11:21Z</time>
      </trkpt>
      <trkpt lat="47.50382" lon="6.81858">
        <ele>318.4</ele>
        <time>2025-09-13T11:11:22Z</time>
      </trkpt>
      <trkpt lat="47.50383" lon="6.81849">
        <ele>318.4</ele>
        <time>2025-09-13T11:11:23Z</time>
      </trkpt>
      <trkpt lat="47.50384" lon="6.8184">
        <ele>318.5</ele>
        <time>2025-09-13T11:11:24Z</time>
      </trkpt>
      <trkpt lat="47.50384" lon="6.81832">
        <ele>318.5</ele>
        <time>2025-09-13T11:11:25Z</time>
      </trkpt>
      <trkpt lat="47.50384" lon="6.81824">
        <ele>318.5</ele>
        <time>2025-09-13T11:11:26Z</time>
      </trkpt>
      <trkpt lat="47.50384" lon="6.81815">
        <ele>318.5</ele>
        <time>2025-09-13T11:11:27Z</time>
      </trkpt>
      <trkpt lat="47.50385" lon="6.81807">
        <ele>318.5</ele>
        <time>2025-09-13T11:11:28Z</time>
      </trkpt>
      <trkpt lat="47.50385" lon="6.81797">
        <ele>318.5</ele>
        <time>2025-09-13T11:11:29Z</time>
      </trkpt>
      <trkpt lat="47.50385" lon="6.81788">
        <ele>318.5</ele>
        <time>2025-09-13T11:11:30Z</time>
      </trkpt>
      <trkpt lat="47.50387" lon="6.81781">
        <ele>318.5</ele>
        <time>2025-09-13T11:11:31Z</time>
      </trkpt>
      <trkpt lat="47.5039" lon="6.81774">
        <ele>318.5</ele>
        <time>2025-09-13T11:11:32Z</time>
      </trkpt>
      <trkpt lat="47.50391" lon="6.81764">
        <ele>318.5</ele>
        <time>2025-09-13T11:11:33Z</time>
      </trkpt>
      <trkpt lat="47.50393" lon="6.81755">
        <ele>318.5</ele>
        <time>2025-09-13T11:11:34Z</time>
      </trkpt>
      <trkpt lat="47.50393" lon="6.81748">
        <ele>318.5</ele>
        <time>2025-09-13T11:11:35Z</time>
      </trkpt>
      <trkpt lat="47.50393" lon="6.81737">
        <ele>318.5</ele>
        <time>2025-09-13T11:11:36Z</time>
      </trkpt>
      <trkpt lat="47.50397" lon="6.81732">
        <ele>318.5</ele>
        <time>2025-09-13T11:11:37Z</time>
      </trkpt>
      <trkpt lat="47.50398" lon="6.81721">
        <ele>318.5</ele>
        <time>2025-09-13T11:11:38Z</time>
      </trkpt>
      <trkpt lat="47.50398" lon="6.81713">
        <ele>318.5</ele>
        <time>2025-09-13T11:11:39Z</time>
      </trkpt>
      <trkpt lat="47.50399" lon="6.81703">
        <ele>318.5</ele>
        <time>2025-09-13T11:11:40Z</time>
      </trkpt>
      <trkpt lat="47.504" lon="6.81697">
        <ele>318.5</ele>
        <time>2025-09-13T11:11:41Z</time>
      </trkpt>
      <trkpt lat="47.50401" lon="6.81691">
        <ele>318.5</ele>
        <time>2025-09-13T11:11:42Z</time>
      </trkpt>
      <trkpt lat="47.504" lon="6.81677">
        <ele>318.5</ele>
        <time>2025-09-13T11:11:43Z</time>
      </trkpt>
      <trkpt lat="47.50401" lon="6.81667">
        <ele>318.5</ele>
        <time>2025-09-13T11:11:44Z</time>
      </trkpt>
      <trkpt lat="47.50403" lon="6.81662">
        <ele>318.5</ele>
        <time>2025-09-13T11:11:45Z</time>
      </trkpt>
      <trkpt lat="47.50403" lon="6.81653">
        <ele>318.5</ele>
        <time>2025-09-13T11:11:46Z</time>
      </trkpt>
      <trkpt lat="47.50403" lon="6.81645">
        <ele>318.4</ele>
        <time>2025-09-13T11:11:47Z</time>
      </trkpt>
      <trkpt lat="47.50401" lon="6.81636">
        <ele>318.4</ele>
        <time>2025-09-13T11:11:48Z</time>
      </trkpt>
      <trkpt lat="47.50402" lon="6.81625">
        <ele>318.4</ele>
        <time>2025-09-13T11:11:49Z</time>
      </trkpt>
      <trkpt lat="47.50402" lon="6.81616">
        <ele>318.4</ele>
        <time>2025-09-13T11:11:50Z</time>
      </trkpt>
      <trkpt lat="47.50402" lon="6.81606">
        <ele>318.4</ele>
        <time>2025-09-13T11:11:51Z</time>
      </trkpt>
      <trkpt lat="47.50402" lon="6.81597">
        <ele>318.4</ele>
        <time>2025-09-13T11:11:52Z</time>
      </trkpt>
      <trkpt lat="47.50402" lon="6.81586">
        <ele>318.4</ele>
        <time>2025-09-13T11:11:53Z</time>
      </trkpt>
      <trkpt lat="47.50402" lon="6.81577">
        <ele>318.3</ele>
        <time>2025-09-13T11:11:54Z</time>
      </trkpt>
      <trkpt lat="47.50403" lon="6.8157">
        <ele>318.3</ele>
        <time>2025-09-13T11:11:55Z</time>
      </trkpt>
      <trkpt lat="47.50404" lon="6.81558">
        <ele>318.3</ele>
        <time>2025-09-13T11:11:56Z</time>
      </trkpt>
      <trkpt lat="47.50404" lon="6.81551">
        <ele>318.3</ele>
        <time>2025-09-13T11:11:57Z</time>
      </trkpt>
      <trkpt lat="47.50404" lon="6.81545">
        <ele>318.3</ele>
        <time>2025-09-13T11:11:58Z</time>
      </trkpt>
      <trkpt lat="47.50404" lon="6.81537">
        <ele>318.3</ele>
        <time>2025-09-13T11:11:59Z</time>
      </trkpt>
      <trkpt lat="47.50405" lon="6.81528">
        <ele>318.4</ele>
        <time>2025-09-13T11:12:00Z</time>
      </trkpt>
      <trkpt lat="47.50405" lon="6.81518">
        <ele>318.4</ele>
        <time>2025-09-13T11:12:01Z</time>
      </trkpt>
      <trkpt lat="47.50405" lon="6.8151">
        <ele>318.4</ele>
        <time>2025-09-13T11:12:02Z</time>
      </trkpt>
      <trkpt lat="47.50404" lon="6.81503">
        <ele>318.4</ele>
        <time>2025-09-13T11:12:03Z</time>
      </trkpt>
      <trkpt lat="47.50405" lon="6.81495">
        <ele>318.4</ele>
        <time>2025-09-13T11:12:04Z</time>
      </trkpt>
      <trkpt lat="47.50406" lon="6.81484">
        <ele>318.5</ele>
        <time>2025-09-13T11:12:05Z</time>
      </trkpt>
      <trkpt lat="47.50405" lon="6.81476">
        <ele>318.5</ele>
        <time>2025-09-13T11:12:06Z</time>
      </trkpt>
      <trkpt lat="47.50405" lon="6.81466">
        <ele>318.5</ele>
        <time>2025-09-13T11:12:07Z</time>
      </trkpt>
      <trkpt lat="47.50407" lon="6.8146">
        <ele>318.5</ele>
        <time>2025-09-13T11:12:08Z</time>
      </trkpt>
      <trkpt lat="47.50407" lon="6.81451">
        <ele>318.4</ele>
        <time>2025-09-13T11:12:09Z</time>
      </trkpt>
      <trkpt lat="47.50408" lon="6.81443">
        <ele>318.4</ele>
        <time>2025-09-13T11:12:10Z</time>
      </trkpt>
      <trkpt lat="47.50408" lon="6.81435">
        <ele>318.4</ele>
        <time>2025-09-13T11:12:11Z</time>
      </trkpt>
      <trkpt lat="47.50409" lon="6.81426">
        <ele>318.3</ele>
        <time>2025-09-13T11:12:12Z</time>
      </trkpt>
      <trkpt lat="47.50409" lon="6.81419">
        <ele>318.3</ele>
        <time>2025-09-13T11:12:13Z</time>
      </trkpt>
      <trkpt lat="47.50408" lon="6.81409">
        <ele>318.3</ele>
        <time>2025-09-13T11:12:14Z</time>
      </trkpt>
      <trkpt lat="47.50408" lon="6.814">
        <ele>318.4</ele>
        <time>2025-09-13T11:12:15Z</time>
      </trkpt>
      <trkpt lat="47.50409" lon="6.81391">
        <ele>318.4</ele>
        <time>2025-09-13T11:12:16Z</time>
      </trkpt>
      <trkpt lat="47.5041" lon="6.81382">
        <ele>318.4</ele>
        <time>2025-09-13T11:12:17Z</time>
      </trkpt>
      <trkpt lat="47.5041" lon="6.81373">
        <ele>318.4</ele>
        <time>2025-09-13T11:12:18Z</time>
      </trkpt>
      <trkpt lat="47.50411" lon="6.81364">
        <ele>318.5</ele>
        <time>2025-09-13T11:12:19Z</time>
      </trkpt>
      <trkpt lat="47.50411" lon="6.81356">
        <ele>318.5</ele>
        <time>2025-09-13T11:12:20Z</time>
      </trkpt>
      <trkpt lat="47.50411" lon="6.81347">
        <ele>318.5</ele>
        <time>2025-09-13T11:12:21Z</time>
      </trkpt>
      <trkpt lat="47.50412" lon="6.81337">
        <ele>318.5</ele>
        <time>2025-09-13T11:12:22Z</time>
      </trkpt>
      <trkpt lat="47.50413" lon="6.81328">
        <ele>318.5</ele>
        <time>2025-09-13T11:12:23Z</time>
      </trkpt>
      <trkpt lat="47.50413" lon="6.8132">
        <ele>318.5</ele>
        <time>2025-09-13T11:12:24Z</time>
      </trkpt>
      <trkpt lat="47.50414" lon="6.81311">
        <ele>318.5</ele>
        <time>2025-09-13T11:12:25Z</time>
      </trkpt>
      <trkpt lat="47.50415" lon="6.81302">
        <ele>318.5</ele>
        <time>2025-09-13T11:12:26Z</time>
      </trkpt>
      <trkpt lat="47.50415" lon="6.81294">
        <ele>318.5</ele>
        <time>2025-09-13T11:12:27Z</time>
      </trkpt>
      <trkpt lat="47.50416" lon="6.81285">
        <ele>318.6</ele>
        <time>2025-09-13T11:12:28Z</time>
      </trkpt>
      <trkpt lat="47.50416" lon="6.81276">
        <ele>318.6</ele>
        <time>2025-09-13T11:12:29Z</time>
      </trkpt>
      <trkpt lat="47.50417" lon="6.81268">
        <ele>318.7</ele>
        <time>2025-09-13T11:12:30Z</time>
      </trkpt>
      <trkpt lat="47.50419" lon="6.81262">
        <ele>318.7</ele>
        <time>2025-09-13T11:12:31Z</time>
      </trkpt>
      <trkpt lat="47.5042" lon="6.81254">
        <ele>318.7</ele>
        <time>2025-09-13T11:12:32Z</time>
      </trkpt>
      <trkpt lat="47.50422" lon="6.81245">
        <ele>318.8</ele>
        <time>2025-09-13T11:12:33Z</time>
      </trkpt>
      <trkpt lat="47.50423" lon="6.81237">
        <ele>318.8</ele>
        <time>2025-09-13T11:12:34Z</time>
      </trkpt>
      <trkpt lat="47.50426" lon="6.81228">
        <ele>318.7</ele>
        <time>2025-09-13T11:12:35Z</time>
      </trkpt>
      <trkpt lat="47.50429" lon="6.81222">
        <ele>318.7</ele>
        <time>2025-09-13T11:12:36Z</time>
      </trkpt>
      <trkpt lat="47.50431" lon="6.81214">
        <ele>318.6</ele>
        <time>2025-09-13T11:12:37Z</time>
      </trkpt>
      <trkpt lat="47.50432" lon="6.81206">
        <ele>318.5</ele>
        <time>2025-09-13T11:12:38Z</time>
      </trkpt>
      <trkpt lat="47.50433" lon="6.81198">
        <ele>318.4</ele>
        <time>2025-09-13T11:12:39Z</time>
      </trkpt>
      <trkpt lat="47.50434" lon="6.8119">
        <ele>318.3</ele>
        <time>2025-09-13T11:12:40Z</time>
      </trkpt>
      <trkpt lat="47.50435" lon="6.81181">
        <ele>318.2</ele>
        <time>2025-09-13T11:12:41Z</time>
      </trkpt>
      <trkpt lat="47.50436" lon="6.81172">
        <ele>318.2</ele>
        <time>2025-09-13T11:12:42Z</time>
      </trkpt>
      <trkpt lat="47.50437" lon="6.81163">
        <ele>318.1</ele>
        <time>2025-09-13T11:12:43Z</time>
      </trkpt>
      <trkpt lat="47.50437" lon="6.81154">
        <ele>318.1</ele>
        <time>2025-09-13T11:12:44Z</time>
      </trkpt>
      <trkpt lat="47.50438" lon="6.81145">
        <ele>318</ele>
        <time>2025-09-13T11:12:45Z</time>
      </trkpt>
      <trkpt lat="47.50438" lon="6.81136">
        <ele>318</ele>
        <time>2025-09-13T11:12:46Z</time>
      </trkpt>
      <trkpt lat="47.50438" lon="6.81125">
        <ele>317.9</ele>
        <time>2025-09-13T11:12:47Z</time>
      </trkpt>
      <trkpt lat="47.50438" lon="6.81116">
        <ele>317.9</ele>
        <time>2025-09-13T11:12:48Z</time>
      </trkpt>
      <trkpt lat="47.50439" lon="6.81106">
        <ele>317.9</ele>
        <time>2025-09-13T11:12:49Z</time>
      </trkpt>
      <trkpt lat="47.50439" lon="6.81097">
        <ele>317.8</ele>
        <time>2025-09-13T11:12:50Z</time>
      </trkpt>
      <trkpt lat="47.50439" lon="6.81088">
        <ele>317.8</ele>
        <time>2025-09-13T11:12:51Z</time>
      </trkpt>
      <trkpt lat="47.5044" lon="6.81079">
        <ele>317.7</ele>
        <time>2025-09-13T11:12:52Z</time>
      </trkpt>
      <trkpt lat="47.50441" lon="6.81071">
        <ele>317.7</ele>
        <time>2025-09-13T11:12:53Z</time>
      </trkpt>
      <trkpt lat="47.5044" lon="6.81062">
        <ele>317.7</ele>
        <time>2025-09-13T11:12:54Z</time>
      </trkpt>
      <trkpt lat="47.5044" lon="6.81053">
        <ele>317.7</ele>
        <time>2025-09-13T11:12:55Z</time>
      </trkpt>
      <trkpt lat="47.50441" lon="6.81045">
        <ele>317.7</ele>
        <time>2025-09-13T11:12:56Z</time>
      </trkpt>
      <trkpt lat="47.50442" lon="6.81035">
        <ele>317.7</ele>
        <time>2025-09-13T11:12:57Z</time>
      </trkpt>
      <trkpt lat="47.50442" lon="6.81027">
        <ele>317.7</ele>
        <time>2025-09-13T11:12:58Z</time>
      </trkpt>
      <trkpt lat="47.50443" lon="6.81018">
        <ele>317.7</ele>
        <time>2025-09-13T11:12:59Z</time>
      </trkpt>
      <trkpt lat="47.50444" lon="6.81009">
        <ele>317.7</ele>
        <time>2025-09-13T11:13:00Z</time>
      </trkpt>
      <trkpt lat="47.50444" lon="6.81">
        <ele>317.7</ele>
        <time>2025-09-13T11:13:01Z</time>
      </trkpt>
      <trkpt lat="47.50444" lon="6.80991">
        <ele>317.7</ele>
        <time>2025-09-13T11:13:02Z</time>
      </trkpt>
      <trkpt lat="47.50444" lon="6.80983">
        <ele>317.7</ele>
        <time>2025-09-13T11:13:03Z</time>
      </trkpt>
      <trkpt lat="47.50444" lon="6.80974">
        <ele>317.7</ele>
        <time>2025-09-13T11:13:04Z</time>
      </trkpt>
      <trkpt lat="47.50445" lon="6.80966">
        <ele>317.8</ele>
        <time>2025-09-13T11:13:05Z</time>
      </trkpt>
      <trkpt lat="47.50445" lon="6.80957">
        <ele>317.8</ele>
        <time>2025-09-13T11:13:06Z</time>
      </trkpt>
      <trkpt lat="47.50446" lon="6.80948">
        <ele>317.8</ele>
        <time>2025-09-13T11:13:07Z</time>
      </trkpt>
      <trkpt lat="47.50446" lon="6.80941">
        <ele>317.8</ele>
        <time>2025-09-13T11:13:08Z</time>
      </trkpt>
      <trkpt lat="47.50446" lon="6.80932">
        <ele>317.8</ele>
        <time>2025-09-13T11:13:09Z</time>
      </trkpt>
      <trkpt lat="47.50446" lon="6.80924">
        <ele>317.8</ele>
        <time>2025-09-13T11:13:10Z</time>
      </trkpt>
      <trkpt lat="47.50447" lon="6.80915">
        <ele>317.8</ele>
        <time>2025-09-13T11:13:11Z</time>
      </trkpt>
      <trkpt lat="47.50447" lon="6.80906">
        <ele>317.8</ele>
        <time>2025-09-13T11:13:12Z</time>
      </trkpt>
      <trkpt lat="47.50448" lon="6.80898">
        <ele>317.8</ele>
        <time>2025-09-13T11:13:13Z</time>
      </trkpt>
      <trkpt lat="47.50448" lon="6.8089">
        <ele>317.8</ele>
        <time>2025-09-13T11:13:14Z</time>
      </trkpt>
      <trkpt lat="47.50449" lon="6.80882">
        <ele>317.8</ele>
        <time>2025-09-13T11:13:15Z</time>
      </trkpt>
      <trkpt lat="47.50449" lon="6.80874">
        <ele>317.9</ele>
        <time>2025-09-13T11:13:16Z</time>
      </trkpt>
      <trkpt lat="47.50449" lon="6.80866">
        <ele>317.9</ele>
        <time>2025-09-13T11:13:17Z</time>
      </trkpt>
      <trkpt lat="47.50449" lon="6.80856">
        <ele>318</ele>
        <time>2025-09-13T11:13:18Z</time>
      </trkpt>
      <trkpt lat="47.50449" lon="6.80848">
        <ele>318.1</ele>
        <time>2025-09-13T11:13:19Z</time>
      </trkpt>
      <trkpt lat="47.50448" lon="6.80841">
        <ele>318.1</ele>
        <time>2025-09-13T11:13:20Z</time>
      </trkpt>
      <trkpt lat="47.50447" lon="6.80833">
        <ele>318.2</ele>
        <time>2025-09-13T11:13:21Z</time>
      </trkpt>
      <trkpt lat="47.50447" lon="6.80826">
        <ele>318.3</ele>
        <time>2025-09-13T11:13:22Z</time>
      </trkpt>
      <trkpt lat="47.50446" lon="6.8082">
        <ele>318.4</ele>
        <time>2025-09-13T11:13:23Z</time>
      </trkpt>
      <trkpt lat="47.50446" lon="6.80812">
        <ele>318.4</ele>
        <time>2025-09-13T11:13:24Z</time>
      </trkpt>
      <trkpt lat="47.50447" lon="6.80805">
        <ele>318.3</ele>
        <time>2025-09-13T11:13:25Z</time>
      </trkpt>
      <trkpt lat="47.50448" lon="6.80796">
        <ele>318.2</ele>
        <time>2025-09-13T11:13:26Z</time>
      </trkpt>
      <trkpt lat="47.5045" lon="6.80789">
        <ele>318</ele>
        <time>2025-09-13T11:13:27Z</time>
      </trkpt>
      <trkpt lat="47.50451" lon="6.80779">
        <ele>317.8</ele>
        <time>2025-09-13T11:13:28Z</time>
      </trkpt>
      <trkpt lat="47.50452" lon="6.8077">
        <ele>317.7</ele>
        <time>2025-09-13T11:13:29Z</time>
      </trkpt>
      <trkpt lat="47.50454" lon="6.80759">
        <ele>317.5</ele>
        <time>2025-09-13T11:13:30Z</time>
      </trkpt>
      <trkpt lat="47.50454" lon="6.8075">
        <ele>317.4</ele>
        <time>2025-09-13T11:13:31Z</time>
      </trkpt>
      <trkpt lat="47.50455" lon="6.80741">
        <ele>317.4</ele>
        <time>2025-09-13T11:13:32Z</time>
      </trkpt>
      <trkpt lat="47.50456" lon="6.80732">
        <ele>317.3</ele>
        <time>2025-09-13T11:13:33Z</time>
      </trkpt>
      <trkpt lat="47.50455" lon="6.80725">
        <ele>317.3</ele>
        <time>2025-09-13T11:13:34Z</time>
      </trkpt>
      <trkpt lat="47.50456" lon="6.80716">
        <ele>317.3</ele>
        <time>2025-09-13T11:13:35Z</time>
      </trkpt>
      <trkpt lat="47.50456" lon="6.80708">
        <ele>317.2</ele>
        <time>2025-09-13T11:13:36Z</time>
      </trkpt>
      <trkpt lat="47.50456" lon="6.807">
        <ele>317.2</ele>
        <time>2025-09-13T11:13:37Z</time>
      </trkpt>
      <trkpt lat="47.50457" lon="6.80691">
        <ele>317.2</ele>
        <time>2025-09-13T11:13:38Z</time>
      </trkpt>
      <trkpt lat="47.50458" lon="6.80683">
        <ele>317.2</ele>
        <time>2025-09-13T11:13:39Z</time>
      </trkpt>
      <trkpt lat="47.50459" lon="6.80676">
        <ele>317.3</ele>
        <time>2025-09-13T11:13:40Z</time>
      </trkpt>
      <trkpt lat="47.50459" lon="6.80666">
        <ele>317.3</ele>
        <time>2025-09-13T11:13:41Z</time>
      </trkpt>
      <trkpt lat="47.5046" lon="6.80658">
        <ele>317.3</ele>
        <time>2025-09-13T11:13:42Z</time>
      </trkpt>
      <trkpt lat="47.5046" lon="6.8065">
        <ele>317.2</ele>
        <time>2025-09-13T11:13:43Z</time>
      </trkpt>
      <trkpt lat="47.5046" lon="6.80642">
        <ele>317.2</ele>
        <time>2025-09-13T11:13:44Z</time>
      </trkpt>
      <trkpt lat="47.50461" lon="6.80633">
        <ele>317.2</ele>
        <time>2025-09-13T11:13:45Z</time>
      </trkpt>
      <trkpt lat="47.50461" lon="6.80625">
        <ele>317.2</ele>
        <time>2025-09-13T11:13:46Z</time>
      </trkpt>
      <trkpt lat="47.50461" lon="6.80616">
        <ele>317.2</ele>
        <time>2025-09-13T11:13:47Z</time>
      </trkpt>
      <trkpt lat="47.50461" lon="6.80607">
        <ele>317.2</ele>
        <time>2025-09-13T11:13:48Z</time>
      </trkpt>
      <trkpt lat="47.50462" lon="6.806">
        <ele>317.2</ele>
        <time>2025-09-13T11:13:49Z</time>
      </trkpt>
      <trkpt lat="47.50463" lon="6.80592">
        <ele>317.2</ele>
        <time>2025-09-13T11:13:50Z</time>
      </trkpt>
      <trkpt lat="47.50464" lon="6.80584">
        <ele>317.2</ele>
        <time>2025-09-13T11:13:51Z</time>
      </trkpt>
      <trkpt lat="47.50464" lon="6.80575">
        <ele>317.2</ele>
        <time>2025-09-13T11:13:52Z</time>
      </trkpt>
      <trkpt lat="47.50465" lon="6.80567">
        <ele>317.2</ele>
        <time>2025-09-13T11:13:53Z</time>
      </trkpt>
      <trkpt lat="47.50465" lon="6.80559">
        <ele>317.2</ele>
        <time>2025-09-13T11:13:54Z</time>
      </trkpt>
      <trkpt lat="47.50466" lon="6.8055">
        <ele>317.2</ele>
        <time>2025-09-13T11:13:55Z</time>
      </trkpt>
      <trkpt lat="47.50467" lon="6.80542">
        <ele>317.3</ele>
        <time>2025-09-13T11:13:56Z</time>
      </trkpt>
      <trkpt lat="47.50468" lon="6.80534">
        <ele>317.3</ele>
        <time>2025-09-13T11:13:57Z</time>
      </trkpt>
      <trkpt lat="47.50469" lon="6.80526">
        <ele>317.3</ele>
        <time>2025-09-13T11:13:58Z</time>
      </trkpt>
      <trkpt lat="47.50471" lon="6.8052">
        <ele>317.3</ele>
        <time>2025-09-13T11:13:59Z</time>
      </trkpt>
      <trkpt lat="47.50471" lon="6.80511">
        <ele>317.4</ele>
        <time>2025-09-13T11:14:00Z</time>
      </trkpt>
      <trkpt lat="47.50471" lon="6.80501">
        <ele>317.4</ele>
        <time>2025-09-13T11:14:01Z</time>
      </trkpt>
      <trkpt lat="47.50472" lon="6.80493">
        <ele>317.5</ele>
        <time>2025-09-13T11:14:02Z</time>
      </trkpt>
      <trkpt lat="47.50473" lon="6.80484">
        <ele>317.6</ele>
        <time>2025-09-13T11:14:03Z</time>
      </trkpt>
      <trkpt lat="47.50473" lon="6.80476">
        <ele>317.7</ele>
        <time>2025-09-13T11:14:04Z</time>
      </trkpt>
      <trkpt lat="47.50473" lon="6.80468">
        <ele>317.8</ele>
        <time>2025-09-13T11:14:05Z</time>
      </trkpt>
      <trkpt lat="47.50472" lon="6.80461">
        <ele>318</ele>
        <time>2025-09-13T11:14:06Z</time>
      </trkpt>
      <trkpt lat="47.50468" lon="6.80456">
        <ele>318.1</ele>
        <time>2025-09-13T11:14:07Z</time>
      </trkpt>
      <trkpt lat="47.50467" lon="6.8045">
        <ele>318.2</ele>
        <time>2025-09-13T11:14:08Z</time>
      </trkpt>
      <trkpt lat="47.50464" lon="6.80443">
        <ele>318.3</ele>
        <time>2025-09-13T11:14:09Z</time>
      </trkpt>
      <trkpt lat="47.50463" lon="6.80436">
        <ele>318.5</ele>
        <time>2025-09-13T11:14:10Z</time>
      </trkpt>
      <trkpt lat="47.50462" lon="6.80431">
        <ele>318.7</ele>
        <time>2025-09-13T11:14:11Z</time>
      </trkpt>
      <trkpt lat="47.5046" lon="6.80426">
        <ele>318.9</ele>
        <time>2025-09-13T11:14:12Z</time>
      </trkpt>
      <trkpt lat="47.50456" lon="6.80422">
        <ele>319.1</ele>
        <time>2025-09-13T11:14:13Z</time>
      </trkpt>
      <trkpt lat="47.50452" lon="6.8042">
        <ele>319.4</ele>
        <time>2025-09-13T11:14:14Z</time>
      </trkpt>
      <trkpt lat="47.50447" lon="6.80421">
        <ele>319.6</ele>
        <time>2025-09-13T11:14:15Z</time>
      </trkpt>
      <trkpt lat="47.50443" lon="6.80423">
        <ele>319.9</ele>
        <time>2025-09-13T11:14:16Z</time>
      </trkpt>
      <trkpt lat="47.50439" lon="6.80427">
        <ele>320.1</ele>
        <time>2025-09-13T11:14:17Z</time>
      </trkpt>
      <trkpt lat="47.50436" lon="6.80432">
        <ele>320.3</ele>
        <time>2025-09-13T11:14:18Z</time>
      </trkpt>
      <trkpt lat="47.50435" lon="6.80437">
        <ele>320.5</ele>
        <time>2025-09-13T11:14:19Z</time>
      </trkpt>
      <trkpt lat="47.50435" lon="6.80443">
        <ele>320.7</ele>
        <time>2025-09-13T11:14:20Z</time>
      </trkpt>
      <trkpt lat="47.50435" lon="6.80447">
        <ele>320.9</ele>
        <time>2025-09-13T11:14:21Z</time>
      </trkpt>
      <trkpt lat="47.50436" lon="6.80452">
        <ele>321</ele>
        <time>2025-09-13T11:14:22Z</time>
      </trkpt>
      <trkpt lat="47.50439" lon="6.80453">
        <ele>321.1</ele>
        <time>2025-09-13T11:14:23Z</time>
      </trkpt>
      <trkpt lat="47.50445" lon="6.80457">
        <ele>321.3</ele>
        <time>2025-09-13T11:14:24Z</time>
      </trkpt>
      <trkpt lat="47.5045" lon="6.80457">
        <ele>321.5</ele>
        <time>2025-09-13T11:14:25Z</time>
      </trkpt>
      <trkpt lat="47.50453" lon="6.80459">
        <ele>321.5</ele>
        <time>2025-09-13T11:14:26Z</time>
      </trkpt>
      <trkpt lat="47.50457" lon="6.80461">
        <ele>321.5</ele>
        <time>2025-09-13T11:14:27Z</time>
      </trkpt>
      <trkpt lat="47.50462" lon="6.80461">
        <ele>321.5</ele>
        <time>2025-09-13T11:14:28Z</time>
      </trkpt>
      <trkpt lat="47.50467" lon="6.80459">
        <ele>321.5</ele>
        <time>2025-09-13T11:14:29Z</time>
      </trkpt>
      <trkpt lat="47.50471" lon="6.80457">
        <ele>321.5</ele>
        <time>2025-09-13T11:14:30Z</time>
      </trkpt>
      <trkpt lat="47.50474" lon="6.80457">
        <ele>321.5</ele>
        <time>2025-09-13T11:14:31Z</time>
      </trkpt>
      <trkpt lat="47.50479" lon="6.80459">
        <ele>321.5</ele>
        <time>2025-09-13T11:14:32Z</time>
      </trkpt>
      <trkpt lat="47.50484" lon="6.80457">
        <ele>321.4</ele>
        <time>2025-09-13T11:14:33Z</time>
      </trkpt>
      <trkpt lat="47.50489" lon="6.80457">
        <ele>321.4</ele>
        <time>2025-09-13T11:14:34Z</time>
      </trkpt>
      <trkpt lat="47.50494" lon="6.80455">
        <ele>321.3</ele>
        <time>2025-09-13T11:14:35Z</time>
      </trkpt>
      <trkpt lat="47.50498" lon="6.80454">
        <ele>321.3</ele>
        <time>2025-09-13T11:14:36Z</time>
      </trkpt>
      <trkpt lat="47.50501" lon="6.80453">
        <ele>321.2</ele>
        <time>2025-09-13T11:14:37Z</time>
      </trkpt>
      <trkpt lat="47.50506" lon="6.80454">
        <ele>321.1</ele>
        <time>2025-09-13T11:14:38Z</time>
      </trkpt>
      <trkpt lat="47.50512" lon="6.80455">
        <ele>321.1</ele>
        <time>2025-09-13T11:14:39Z</time>
      </trkpt>
      <trkpt lat="47.50517" lon="6.80456">
        <ele>321</ele>
        <time>2025-09-13T11:14:40Z</time>
      </trkpt>
      <trkpt lat="47.50522" lon="6.80456">
        <ele>320.9</ele>
        <time>2025-09-13T11:14:41Z</time>
      </trkpt>
      <trkpt lat="47.50527" lon="6.80457">
        <ele>320.9</ele>
        <time>2025-09-13T11:14:42Z</time>
      </trkpt>
      <trkpt lat="47.50531" lon="6.80458">
        <ele>320.9</ele>
        <time>2025-09-13T11:14:43Z</time>
      </trkpt>
      <trkpt lat="47.50534" lon="6.80458">
        <ele>320.9</ele>
        <time>2025-09-13T11:14:44Z</time>
      </trkpt>
      <trkpt lat="47.50536" lon="6.80455">
        <ele>320.9</ele>
        <time>2025-09-13T11:14:45Z</time>
      </trkpt>
      <trkpt lat="47.50538" lon="6.80451">
        <ele>320.8</ele>
        <time>2025-09-13T11:14:46Z</time>
      </trkpt>
      <trkpt lat="47.50539" lon="6.80446">
        <ele>320.7</ele>
        <time>2025-09-13T11:14:47Z</time>
      </trkpt>
      <trkpt lat="47.50539" lon="6.80439">
        <ele>320.5</ele>
        <time>2025-09-13T11:14:48Z</time>
      </trkpt>
      <trkpt lat="47.50539" lon="6.80433">
        <ele>320.4</ele>
        <time>2025-09-13T11:14:49Z</time>
      </trkpt>
      <trkpt lat="47.5054" lon="6.80425">
        <ele>320.2</ele>
        <time>2025-09-13T11:14:50Z</time>
      </trkpt>
      <trkpt lat="47.5054" lon="6.80418">
        <ele>320.1</ele>
        <time>2025-09-13T11:14:51Z</time>
      </trkpt>
      <trkpt lat="47.50539" lon="6.80411">
        <ele>320</ele>
        <time>2025-09-13T11:14:52Z</time>
      </trkpt>
      <trkpt lat="47.50535" lon="6.80407">
        <ele>319.8</ele>
        <time>2025-09-13T11:14:53Z</time>
      </trkpt>
      <trkpt lat="47.50531" lon="6.80405">
        <ele>319.6</ele>
        <time>2025-09-13T11:14:54Z</time>
      </trkpt>
      <trkpt lat="47.50528" lon="6.80407">
        <ele>319.5</ele>
        <time>2025-09-13T11:14:55Z</time>
      </trkpt>
      <trkpt lat="47.50529" lon="6.80422">
        <ele>319.1</ele>
        <time>2025-09-13T11:14:56Z</time>
      </trkpt>
      <trkpt lat="47.50531" lon="6.80428">
        <ele>318.8</ele>
        <time>2025-09-13T11:14:57Z</time>
      </trkpt>
      <trkpt lat="47.50532" lon="6.80436">
        <ele>318.6</ele>
        <time>2025-09-13T11:14:58Z</time>
      </trkpt>
      <trkpt lat="47.5053" lon="6.80442">
        <ele>318.4</ele>
        <time>2025-09-13T11:14:59Z</time>
      </trkpt>
      <trkpt lat="47.50527" lon="6.80446">
        <ele>318.2</ele>
        <time>2025-09-13T11:15:00Z</time>
      </trkpt>
      <trkpt lat="47.50523" lon="6.80441">
        <ele>317.9</ele>
        <time>2025-09-13T11:15:01Z</time>
      </trkpt>
      <trkpt lat="47.50518" lon="6.80435">
        <ele>317.7</ele>
        <time>2025-09-13T11:15:02Z</time>
      </trkpt>
      <trkpt lat="47.50515" lon="6.80427">
        <ele>317.5</ele>
        <time>2025-09-13T11:15:03Z</time>
      </trkpt>
      <trkpt lat="47.50511" lon="6.80422">
        <ele>317.3</ele>
        <time>2025-09-13T11:15:04Z</time>
      </trkpt>
      <trkpt lat="47.50508" lon="6.80417">
        <ele>317.1</ele>
        <time>2025-09-13T11:15:05Z</time>
      </trkpt>
      <trkpt lat="47.50504" lon="6.80413">
        <ele>317</ele>
        <time>2025-09-13T11:15:06Z</time>
      </trkpt>
      <trkpt lat="47.50503" lon="6.80407">
        <ele>317</ele>
        <time>2025-09-13T11:15:07Z</time>
      </trkpt>
      <trkpt lat="47.50504" lon="6.80399">
        <ele>316.9</ele>
        <time>2025-09-13T11:15:08Z</time>
      </trkpt>
      <trkpt lat="47.50504" lon="6.80391">
        <ele>316.9</ele>
        <time>2025-09-13T11:15:09Z</time>
      </trkpt>
      <trkpt lat="47.50505" lon="6.80384">
        <ele>316.9</ele>
        <time>2025-09-13T11:15:10Z</time>
      </trkpt>
      <trkpt lat="47.50504" lon="6.80376">
        <ele>316.9</ele>
        <time>2025-09-13T11:15:11Z</time>
      </trkpt>
      <trkpt lat="47.50504" lon="6.80368">
        <ele>316.9</ele>
        <time>2025-09-13T11:15:12Z</time>
      </trkpt>
      <trkpt lat="47.50504" lon="6.8036">
        <ele>316.9</ele>
        <time>2025-09-13T11:15:13Z</time>
      </trkpt>
      <trkpt lat="47.50504" lon="6.80352">
        <ele>317</ele>
        <time>2025-09-13T11:15:14Z</time>
      </trkpt>
      <trkpt lat="47.50504" lon="6.80345">
        <ele>317</ele>
        <time>2025-09-13T11:15:15Z</time>
      </trkpt>
      <trkpt lat="47.50503" lon="6.80338">
        <ele>317</ele>
        <time>2025-09-13T11:15:16Z</time>
      </trkpt>
      <trkpt lat="47.50502" lon="6.80331">
        <ele>316.9</ele>
        <time>2025-09-13T11:15:17Z</time>
      </trkpt>
      <trkpt lat="47.50499" lon="6.80322">
        <ele>317</ele>
        <time>2025-09-13T11:15:18Z</time>
      </trkpt>
      <trkpt lat="47.505" lon="6.80313">
        <ele>317</ele>
        <time>2025-09-13T11:15:19Z</time>
      </trkpt>
      <trkpt lat="47.50501" lon="6.80305">
        <ele>317</ele>
        <time>2025-09-13T11:15:20Z</time>
      </trkpt>
      <trkpt lat="47.50501" lon="6.80297">
        <ele>317</ele>
        <time>2025-09-13T11:15:21Z</time>
      </trkpt>
      <trkpt lat="47.50501" lon="6.80289">
        <ele>317.1</ele>
        <time>2025-09-13T11:15:22Z</time>
      </trkpt>
      <trkpt lat="47.50502" lon="6.80279">
        <ele>317.1</ele>
        <time>2025-09-13T11:15:23Z</time>
      </trkpt>
      <trkpt lat="47.50502" lon="6.80272">
        <ele>317.2</ele>
        <time>2025-09-13T11:15:24Z</time>
      </trkpt>
      <trkpt lat="47.50502" lon="6.80264">
        <ele>317.2</ele>
        <time>2025-09-13T11:15:25Z</time>
      </trkpt>
      <trkpt lat="47.50502" lon="6.80256">
        <ele>317.2</ele>
        <time>2025-09-13T11:15:26Z</time>
      </trkpt>
      <trkpt lat="47.50503" lon="6.80248">
        <ele>317.2</ele>
        <time>2025-09-13T11:15:27Z</time>
      </trkpt>
      <trkpt lat="47.50503" lon="6.80241">
        <ele>317.3</ele>
        <time>2025-09-13T11:15:28Z</time>
      </trkpt>
      <trkpt lat="47.50503" lon="6.80233">
        <ele>317.3</ele>
        <time>2025-09-13T11:15:29Z</time>
      </trkpt>
      <trkpt lat="47.50503" lon="6.80225">
        <ele>317.3</ele>
        <time>2025-09-13T11:15:30Z</time>
      </trkpt>
      <trkpt lat="47.50504" lon="6.80217">
        <ele>317.3</ele>
        <time>2025-09-13T11:15:31Z</time>
      </trkpt>
      <trkpt lat="47.50504" lon="6.80209">
        <ele>317.3</ele>
        <time>2025-09-13T11:15:32Z</time>
      </trkpt>
      <trkpt lat="47.50505" lon="6.802">
        <ele>317.3</ele>
        <time>2025-09-13T11:15:33Z</time>
      </trkpt>
      <trkpt lat="47.50505" lon="6.80191">
        <ele>317.3</ele>
        <time>2025-09-13T11:15:34Z</time>
      </trkpt>
      <trkpt lat="47.50506" lon="6.80184">
        <ele>317.3</ele>
        <time>2025-09-13T11:15:35Z</time>
      </trkpt>
      <trkpt lat="47.50506" lon="6.80175">
        <ele>317.3</ele>
        <time>2025-09-13T11:15:36Z</time>
      </trkpt>
      <trkpt lat="47.50506" lon="6.80167">
        <ele>317.3</ele>
        <time>2025-09-13T11:15:37Z</time>
      </trkpt>
      <trkpt lat="47.50506" lon="6.8016">
        <ele>317.3</ele>
        <time>2025-09-13T11:15:38Z</time>
      </trkpt>
      <trkpt lat="47.50507" lon="6.80152">
        <ele>317.3</ele>
        <time>2025-09-13T11:15:39Z</time>
      </trkpt>
      <trkpt lat="47.50507" lon="6.80143">
        <ele>317.3</ele>
        <time>2025-09-13T11:15:40Z</time>
      </trkpt>
      <trkpt lat="47.50508" lon="6.80136">
        <ele>317.3</ele>
        <time>2025-09-13T11:15:41Z</time>
      </trkpt>
      <trkpt lat="47.50509" lon="6.80128">
        <ele>317.3</ele>
        <time>2025-09-13T11:15:42Z</time>
      </trkpt>
      <trkpt lat="47.50509" lon="6.8012">
        <ele>317.3</ele>
        <time>2025-09-13T11:15:43Z</time>
      </trkpt>
      <trkpt lat="47.50509" lon="6.80111">
        <ele>317.3</ele>
        <time>2025-09-13T11:15:44Z</time>
      </trkpt>
      <trkpt lat="47.5051" lon="6.80102">
        <ele>317.3</ele>
        <time>2025-09-13T11:15:45Z</time>
      </trkpt>
      <trkpt lat="47.5051" lon="6.80094">
        <ele>317.3</ele>
        <time>2025-09-13T11:15:46Z</time>
      </trkpt>
      <trkpt lat="47.5051" lon="6.80086">
        <ele>317.3</ele>
        <time>2025-09-13T11:15:47Z</time>
      </trkpt>
      <trkpt lat="47.50511" lon="6.80077">
        <ele>317.3</ele>
        <time>2025-09-13T11:15:48Z</time>
      </trkpt>
      <trkpt lat="47.50511" lon="6.80069">
        <ele>317.2</ele>
        <time>2025-09-13T11:15:49Z</time>
      </trkpt>
      <trkpt lat="47.50511" lon="6.80062">
        <ele>317.2</ele>
        <time>2025-09-13T11:15:50Z</time>
      </trkpt>
      <trkpt lat="47.50511" lon="6.80054">
        <ele>317.2</ele>
        <time>2025-09-13T11:15:51Z</time>
      </trkpt>
      <trkpt lat="47.50512" lon="6.80046">
        <ele>317.2</ele>
        <time>2025-09-13T11:15:52Z</time>
      </trkpt>
      <trkpt lat="47.50512" lon="6.80039">
        <ele>317.2</ele>
        <time>2025-09-13T11:15:53Z</time>
      </trkpt>
      <trkpt lat="47.50513" lon="6.80031">
        <ele>317.2</ele>
        <time>2025-09-13T11:15:54Z</time>
      </trkpt>
      <trkpt lat="47.50513" lon="6.80023">
        <ele>317.2</ele>
        <time>2025-09-13T11:15:55Z</time>
      </trkpt>
      <trkpt lat="47.50513" lon="6.80015">
        <ele>317.2</ele>
        <time>2025-09-13T11:15:56Z</time>
      </trkpt>
      <trkpt lat="47.50513" lon="6.80008">
        <ele>317.1</ele>
        <time>2025-09-13T11:15:57Z</time>
      </trkpt>
      <trkpt lat="47.50514" lon="6.80001">
        <ele>317.1</ele>
        <time>2025-09-13T11:15:58Z</time>
      </trkpt>
      <trkpt lat="47.50514" lon="6.79993">
        <ele>317.1</ele>
        <time>2025-09-13T11:15:59Z</time>
      </trkpt>
      <trkpt lat="47.50515" lon="6.79985">
        <ele>317.1</ele>
        <time>2025-09-13T11:16:00Z</time>
      </trkpt>
      <trkpt lat="47.50515" lon="6.79976">
        <ele>317.1</ele>
        <time>2025-09-13T11:16:01Z</time>
      </trkpt>
      <trkpt lat="47.50516" lon="6.79968">
        <ele>317.1</ele>
        <time>2025-09-13T11:16:02Z</time>
      </trkpt>
      <trkpt lat="47.50516" lon="6.79959">
        <ele>317</ele>
        <time>2025-09-13T11:16:03Z</time>
      </trkpt>
      <trkpt lat="47.50516" lon="6.79952">
        <ele>317</ele>
        <time>2025-09-13T11:16:04Z</time>
      </trkpt>
      <trkpt lat="47.50516" lon="6.79944">
        <ele>317</ele>
        <time>2025-09-13T11:16:05Z</time>
      </trkpt>
      <trkpt lat="47.50517" lon="6.79937">
        <ele>317</ele>
        <time>2025-09-13T11:16:06Z</time>
      </trkpt>
      <trkpt lat="47.50517" lon="6.79929">
        <ele>317</ele>
        <time>2025-09-13T11:16:07Z</time>
      </trkpt>
      <trkpt lat="47.50517" lon="6.79921">
        <ele>317</ele>
        <time>2025-09-13T11:16:08Z</time>
      </trkpt>
      <trkpt lat="47.50518" lon="6.79914">
        <ele>317</ele>
        <time>2025-09-13T11:16:09Z</time>
      </trkpt>
      <trkpt lat="47.50518" lon="6.79906">
        <ele>317</ele>
        <time>2025-09-13T11:16:10Z</time>
      </trkpt>
      <trkpt lat="47.50519" lon="6.79899">
        <ele>317</ele>
        <time>2025-09-13T11:16:11Z</time>
      </trkpt>
      <trkpt lat="47.50518" lon="6.79891">
        <ele>317</ele>
        <time>2025-09-13T11:16:12Z</time>
      </trkpt>
      <trkpt lat="47.50519" lon="6.79883">
        <ele>317</ele>
        <time>2025-09-13T11:16:13Z</time>
      </trkpt>
      <trkpt lat="47.50519" lon="6.79875">
        <ele>317</ele>
        <time>2025-09-13T11:16:14Z</time>
      </trkpt>
      <trkpt lat="47.50519" lon="6.79868">
        <ele>317</ele>
        <time>2025-09-13T11:16:15Z</time>
      </trkpt>
      <trkpt lat="47.50518" lon="6.7986">
        <ele>316.9</ele>
        <time>2025-09-13T11:16:16Z</time>
      </trkpt>
      <trkpt lat="47.50519" lon="6.79851">
        <ele>316.9</ele>
        <time>2025-09-13T11:16:17Z</time>
      </trkpt>
      <trkpt lat="47.50519" lon="6.79843">
        <ele>316.8</ele>
        <time>2025-09-13T11:16:18Z</time>
      </trkpt>
      <trkpt lat="47.50519" lon="6.79835">
        <ele>316.8</ele>
        <time>2025-09-13T11:16:19Z</time>
      </trkpt>
      <trkpt lat="47.5052" lon="6.79827">
        <ele>316.7</ele>
        <time>2025-09-13T11:16:20Z</time>
      </trkpt>
      <trkpt lat="47.5052" lon="6.79819">
        <ele>316.6</ele>
        <time>2025-09-13T11:16:21Z</time>
      </trkpt>
      <trkpt lat="47.5052" lon="6.7981">
        <ele>316.5</ele>
        <time>2025-09-13T11:16:22Z</time>
      </trkpt>
      <trkpt lat="47.5052" lon="6.79801">
        <ele>316.5</ele>
        <time>2025-09-13T11:16:23Z</time>
      </trkpt>
      <trkpt lat="47.50519" lon="6.79792">
        <ele>316.4</ele>
        <time>2025-09-13T11:16:24Z</time>
      </trkpt>
      <trkpt lat="47.50518" lon="6.79783">
        <ele>316.3</ele>
        <time>2025-09-13T11:16:25Z</time>
      </trkpt>
      <trkpt lat="47.50517" lon="6.79775">
        <ele>316.2</ele>
        <time>2025-09-13T11:16:26Z</time>
      </trkpt>
      <trkpt lat="47.50517" lon="6.79765">
        <ele>316.2</ele>
        <time>2025-09-13T11:16:27Z</time>
      </trkpt>
      <trkpt lat="47.50516" lon="6.79757">
        <ele>316.1</ele>
        <time>2025-09-13T11:16:28Z</time>
      </trkpt>
      <trkpt lat="47.50515" lon="6.79748">
        <ele>316.1</ele>
        <time>2025-09-13T11:16:29Z</time>
      </trkpt>
      <trkpt lat="47.50514" lon="6.79738">
        <ele>316.1</ele>
        <time>2025-09-13T11:16:30Z</time>
      </trkpt>
      <trkpt lat="47.50513" lon="6.7973">
        <ele>316</ele>
        <time>2025-09-13T11:16:31Z</time>
      </trkpt>
      <trkpt lat="47.50513" lon="6.79721">
        <ele>316</ele>
        <time>2025-09-13T11:16:32Z</time>
      </trkpt>
      <trkpt lat="47.50511" lon="6.79712">
        <ele>316</ele>
        <time>2025-09-13T11:16:33Z</time>
      </trkpt>
      <trkpt lat="47.50511" lon="6.79703">
        <ele>316</ele>
        <time>2025-09-13T11:16:34Z</time>
      </trkpt>
      <trkpt lat="47.5051" lon="6.79694">
        <ele>316</ele>
        <time>2025-09-13T11:16:35Z</time>
      </trkpt>
      <trkpt lat="47.50508" lon="6.79686">
        <ele>316</ele>
        <time>2025-09-13T11:16:36Z</time>
      </trkpt>
      <trkpt lat="47.50507" lon="6.79677">
        <ele>316</ele>
        <time>2025-09-13T11:16:37Z</time>
      </trkpt>
      <trkpt lat="47.50506" lon="6.79669">
        <ele>316</ele>
        <time>2025-09-13T11:16:38Z</time>
      </trkpt>
      <trkpt lat="47.50505" lon="6.7966">
        <ele>316</ele>
        <time>2025-09-13T11:16:39Z</time>
      </trkpt>
      <trkpt lat="47.50504" lon="6.79651">
        <ele>316</ele>
        <time>2025-09-13T11:16:40Z</time>
      </trkpt>
      <trkpt lat="47.50503" lon="6.79643">
        <ele>316</ele>
        <time>2025-09-13T11:16:41Z</time>
      </trkpt>
      <trkpt lat="47.50502" lon="6.79636">
        <ele>316.1</ele>
        <time>2025-09-13T11:16:42Z</time>
      </trkpt>
      <trkpt lat="47.50501" lon="6.79629">
        <ele>316.1</ele>
        <time>2025-09-13T11:16:43Z</time>
      </trkpt>
      <trkpt lat="47.50501" lon="6.79621">
        <ele>316.1</ele>
        <time>2025-09-13T11:16:44Z</time>
      </trkpt>
      <trkpt lat="47.50499" lon="6.79612">
        <ele>316.1</ele>
        <time>2025-09-13T11:16:45Z</time>
      </trkpt>
      <trkpt lat="47.50498" lon="6.79603">
        <ele>316.1</ele>
        <time>2025-09-13T11:16:46Z</time>
      </trkpt>
      <trkpt lat="47.50497" lon="6.79595">
        <ele>316.1</ele>
        <time>2025-09-13T11:16:47Z</time>
      </trkpt>
      <trkpt lat="47.50496" lon="6.79587">
        <ele>316.1</ele>
        <time>2025-09-13T11:16:48Z</time>
      </trkpt>
      <trkpt lat="47.50494" lon="6.79579">
        <ele>316.1</ele>
        <time>2025-09-13T11:16:49Z</time>
      </trkpt>
      <trkpt lat="47.50493" lon="6.7957">
        <ele>316.1</ele>
        <time>2025-09-13T11:16:50Z</time>
      </trkpt>
      <trkpt lat="47.50492" lon="6.7956">
        <ele>316.1</ele>
        <time>2025-09-13T11:16:51Z</time>
      </trkpt>
      <trkpt lat="47.50491" lon="6.79553">
        <ele>316.1</ele>
        <time>2025-09-13T11:16:52Z</time>
      </trkpt>
      <trkpt lat="47.5049" lon="6.79545">
        <ele>316.1</ele>
        <time>2025-09-13T11:16:53Z</time>
      </trkpt>
      <trkpt lat="47.50488" lon="6.79536">
        <ele>316.1</ele>
        <time>2025-09-13T11:16:54Z</time>
      </trkpt>
      <trkpt lat="47.50487" lon="6.79528">
        <ele>316.2</ele>
        <time>2025-09-13T11:16:55Z</time>
      </trkpt>
      <trkpt lat="47.50486" lon="6.7952">
        <ele>316.2</ele>
        <time>2025-09-13T11:16:56Z</time>
      </trkpt>
      <trkpt lat="47.50486" lon="6.79513">
        <ele>316.2</ele>
        <time>2025-09-13T11:16:57Z</time>
      </trkpt>
      <trkpt lat="47.50485" lon="6.79506">
        <ele>316.2</ele>
        <time>2025-09-13T11:16:58Z</time>
      </trkpt>
      <trkpt lat="47.50484" lon="6.79498">
        <ele>316.1</ele>
        <time>2025-09-13T11:16:59Z</time>
      </trkpt>
      <trkpt lat="47.50484" lon="6.79491">
        <ele>316.1</ele>
        <time>2025-09-13T11:17:00Z</time>
      </trkpt>
      <trkpt lat="47.50483" lon="6.79483">
        <ele>316</ele>
        <time>2025-09-13T11:17:01Z</time>
      </trkpt>
      <trkpt lat="47.50482" lon="6.79474">
        <ele>316</ele>
        <time>2025-09-13T11:17:02Z</time>
      </trkpt>
      <trkpt lat="47.50483" lon="6.79465">
        <ele>316</ele>
        <time>2025-09-13T11:17:03Z</time>
      </trkpt>
      <trkpt lat="47.50482" lon="6.79457">
        <ele>316</ele>
        <time>2025-09-13T11:17:04Z</time>
      </trkpt>
      <trkpt lat="47.50483" lon="6.79448">
        <ele>316</ele>
        <time>2025-09-13T11:17:05Z</time>
      </trkpt>
      <trkpt lat="47.50484" lon="6.7944">
        <ele>316</ele>
        <time>2025-09-13T11:17:06Z</time>
      </trkpt>
      <trkpt lat="47.50485" lon="6.79432">
        <ele>316</ele>
        <time>2025-09-13T11:17:07Z</time>
      </trkpt>
      <trkpt lat="47.50486" lon="6.79424">
        <ele>316</ele>
        <time>2025-09-13T11:17:08Z</time>
      </trkpt>
      <trkpt lat="47.50487" lon="6.79415">
        <ele>316</ele>
        <time>2025-09-13T11:17:09Z</time>
      </trkpt>
      <trkpt lat="47.50487" lon="6.79407">
        <ele>316</ele>
        <time>2025-09-13T11:17:10Z</time>
      </trkpt>
      <trkpt lat="47.50486" lon="6.79398">
        <ele>316</ele>
        <time>2025-09-13T11:17:11Z</time>
      </trkpt>
      <trkpt lat="47.50484" lon="6.79391">
        <ele>316.1</ele>
        <time>2025-09-13T11:17:12Z</time>
      </trkpt>
      <trkpt lat="47.50482" lon="6.79383">
        <ele>316.1</ele>
        <time>2025-09-13T11:17:13Z</time>
      </trkpt>
      <trkpt lat="47.50481" lon="6.79376">
        <ele>316.1</ele>
        <time>2025-09-13T11:17:14Z</time>
      </trkpt>
      <trkpt lat="47.50479" lon="6.79369">
        <ele>316.1</ele>
        <time>2025-09-13T11:17:15Z</time>
      </trkpt>
      <trkpt lat="47.50478" lon="6.79363">
        <ele>316.1</ele>
        <time>2025-09-13T11:17:16Z</time>
      </trkpt>
      <trkpt lat="47.50476" lon="6.79356">
        <ele>316.1</ele>
        <time>2025-09-13T11:17:17Z</time>
      </trkpt>
      <trkpt lat="47.50475" lon="6.79348">
        <ele>316.1</ele>
        <time>2025-09-13T11:17:18Z</time>
      </trkpt>
      <trkpt lat="47.50474" lon="6.79342">
        <ele>316.1</ele>
        <time>2025-09-13T11:17:19Z</time>
      </trkpt>
      <trkpt lat="47.50472" lon="6.79335">
        <ele>316.1</ele>
        <time>2025-09-13T11:17:20Z</time>
      </trkpt>
      <trkpt lat="47.50471" lon="6.79328">
        <ele>316.1</ele>
        <time>2025-09-13T11:17:21Z</time>
      </trkpt>
      <trkpt lat="47.50471" lon="6.79319">
        <ele>316.1</ele>
        <time>2025-09-13T11:17:22Z</time>
      </trkpt>
      <trkpt lat="47.5047" lon="6.79311">
        <ele>316.1</ele>
        <time>2025-09-13T11:17:23Z</time>
      </trkpt>
      <trkpt lat="47.50469" lon="6.79304">
        <ele>316.1</ele>
        <time>2025-09-13T11:17:24Z</time>
      </trkpt>
      <trkpt lat="47.50468" lon="6.79298">
        <ele>316</ele>
        <time>2025-09-13T11:17:25Z</time>
      </trkpt>
      <trkpt lat="47.50467" lon="6.79289">
        <ele>316</ele>
        <time>2025-09-13T11:17:26Z</time>
      </trkpt>
      <trkpt lat="47.50465" lon="6.79282">
        <ele>316</ele>
        <time>2025-09-13T11:17:27Z</time>
      </trkpt>
      <trkpt lat="47.50464" lon="6.79275">
        <ele>316.1</ele>
        <time>2025-09-13T11:17:28Z</time>
      </trkpt>
      <trkpt lat="47.50462" lon="6.79267">
        <ele>316.1</ele>
        <time>2025-09-13T11:17:29Z</time>
      </trkpt>
      <trkpt lat="47.50461" lon="6.7926">
        <ele>316.1</ele>
        <time>2025-09-13T11:17:30Z</time>
      </trkpt>
      <trkpt lat="47.5046" lon="6.79252">
        <ele>316.1</ele>
        <time>2025-09-13T11:17:31Z</time>
      </trkpt>
      <trkpt lat="47.50458" lon="6.79245">
        <ele>316.1</ele>
        <time>2025-09-13T11:17:32Z</time>
      </trkpt>
      <trkpt lat="47.50457" lon="6.79237">
        <ele>316.1</ele>
        <time>2025-09-13T11:17:33Z</time>
      </trkpt>
      <trkpt lat="47.50456" lon="6.79229">
        <ele>316.1</ele>
        <time>2025-09-13T11:17:34Z</time>
      </trkpt>
      <trkpt lat="47.50455" lon="6.79221">
        <ele>316.1</ele>
        <time>2025-09-13T11:17:35Z</time>
      </trkpt>
      <trkpt lat="47.50453" lon="6.79212">
        <ele>316.1</ele>
        <time>2025-09-13T11:17:36Z</time>
      </trkpt>
      <trkpt lat="47.50452" lon="6.79204">
        <ele>316.1</ele>
        <time>2025-09-13T11:17:37Z</time>
      </trkpt>
      <trkpt lat="47.50451" lon="6.79196">
        <ele>316.1</ele>
        <time>2025-09-13T11:17:38Z</time>
      </trkpt>
      <trkpt lat="47.5045" lon="6.79188">
        <ele>316.1</ele>
        <time>2025-09-13T11:17:39Z</time>
      </trkpt>
      <trkpt lat="47.50449" lon="6.7918">
        <ele>316.1</ele>
        <time>2025-09-13T11:17:40Z</time>
      </trkpt>
      <trkpt lat="47.50448" lon="6.79172">
        <ele>316.1</ele>
        <time>2025-09-13T11:17:41Z</time>
      </trkpt>
      <trkpt lat="47.50446" lon="6.79164">
        <ele>316.1</ele>
        <time>2025-09-13T11:17:42Z</time>
      </trkpt>
      <trkpt lat="47.50444" lon="6.79156">
        <ele>316.1</ele>
        <time>2025-09-13T11:17:43Z</time>
      </trkpt>
      <trkpt lat="47.50441" lon="6.7915">
        <ele>316</ele>
        <time>2025-09-13T11:17:44Z</time>
      </trkpt>
      <trkpt lat="47.50437" lon="6.79144">
        <ele>316</ele>
        <time>2025-09-13T11:17:45Z</time>
      </trkpt>
      <trkpt lat="47.50433" lon="6.79138">
        <ele>316</ele>
        <time>2025-09-13T11:17:46Z</time>
      </trkpt>
      <trkpt lat="47.5043" lon="6.79131">
        <ele>316</ele>
        <time>2025-09-13T11:17:47Z</time>
      </trkpt>
      <trkpt lat="47.50426" lon="6.79125">
        <ele>315.9</ele>
        <time>2025-09-13T11:17:48Z</time>
      </trkpt>
      <trkpt lat="47.50422" lon="6.79117">
        <ele>315.9</ele>
        <time>2025-09-13T11:17:49Z</time>
      </trkpt>
      <trkpt lat="47.50419" lon="6.79109">
        <ele>315.9</ele>
        <time>2025-09-13T11:17:50Z</time>
      </trkpt>
      <trkpt lat="47.50417" lon="6.79101">
        <ele>315.9</ele>
        <time>2025-09-13T11:17:51Z</time>
      </trkpt>
      <trkpt lat="47.50416" lon="6.79091">
        <ele>315.8</ele>
        <time>2025-09-13T11:17:52Z</time>
      </trkpt>
      <trkpt lat="47.50415" lon="6.79083">
        <ele>315.8</ele>
        <time>2025-09-13T11:17:53Z</time>
      </trkpt>
      <trkpt lat="47.50415" lon="6.79073">
        <ele>315.8</ele>
        <time>2025-09-13T11:17:54Z</time>
      </trkpt>
      <trkpt lat="47.50414" lon="6.79064">
        <ele>315.7</ele>
        <time>2025-09-13T11:17:55Z</time>
      </trkpt>
      <trkpt lat="47.50413" lon="6.79055">
        <ele>315.7</ele>
        <time>2025-09-13T11:17:56Z</time>
      </trkpt>
      <trkpt lat="47.50411" lon="6.79046">
        <ele>315.7</ele>
        <time>2025-09-13T11:17:57Z</time>
      </trkpt>
      <trkpt lat="47.5041" lon="6.79038">
        <ele>315.7</ele>
        <time>2025-09-13T11:17:58Z</time>
      </trkpt>
      <trkpt lat="47.50408" lon="6.79029">
        <ele>315.7</ele>
        <time>2025-09-13T11:17:59Z</time>
      </trkpt>
      <trkpt lat="47.50407" lon="6.7902">
        <ele>315.7</ele>
        <time>2025-09-13T11:18:00Z</time>
      </trkpt>
      <trkpt lat="47.50406" lon="6.79011">
        <ele>315.7</ele>
        <time>2025-09-13T11:18:01Z</time>
      </trkpt>
      <trkpt lat="47.50405" lon="6.79002">
        <ele>315.6</ele>
        <time>2025-09-13T11:18:02Z</time>
      </trkpt>
      <trkpt lat="47.50404" lon="6.78992">
        <ele>315.6</ele>
        <time>2025-09-13T11:18:03Z</time>
      </trkpt>
      <trkpt lat="47.50404" lon="6.78983">
        <ele>315.6</ele>
        <time>2025-09-13T11:18:04Z</time>
      </trkpt>
      <trkpt lat="47.50403" lon="6.78974">
        <ele>315.6</ele>
        <time>2025-09-13T11:18:05Z</time>
      </trkpt>
      <trkpt lat="47.50403" lon="6.78963">
        <ele>315.6</ele>
        <time>2025-09-13T11:18:06Z</time>
      </trkpt>
      <trkpt lat="47.50403" lon="6.78955">
        <ele>315.6</ele>
        <time>2025-09-13T11:18:07Z</time>
      </trkpt>
      <trkpt lat="47.50403" lon="6.78946">
        <ele>315.6</ele>
        <time>2025-09-13T11:18:08Z</time>
      </trkpt>
      <trkpt lat="47.50402" lon="6.78936">
        <ele>315.6</ele>
        <time>2025-09-13T11:18:09Z</time>
      </trkpt>
      <trkpt lat="47.50402" lon="6.78927">
        <ele>315.6</ele>
        <time>2025-09-13T11:18:10Z</time>
      </trkpt>
      <trkpt lat="47.50402" lon="6.78918">
        <ele>315.6</ele>
        <time>2025-09-13T11:18:11Z</time>
      </trkpt>
      <trkpt lat="47.50401" lon="6.78909">
        <ele>315.6</ele>
        <time>2025-09-13T11:18:12Z</time>
      </trkpt>
      <trkpt lat="47.50401" lon="6.78899">
        <ele>315.6</ele>
        <time>2025-09-13T11:18:13Z</time>
      </trkpt>
      <trkpt lat="47.50402" lon="6.78889">
        <ele>315.7</ele>
        <time>2025-09-13T11:18:14Z</time>
      </trkpt>
      <trkpt lat="47.50402" lon="6.7888">
        <ele>315.7</ele>
        <time>2025-09-13T11:18:15Z</time>
      </trkpt>
      <trkpt lat="47.50403" lon="6.78871">
        <ele>315.7</ele>
        <time>2025-09-13T11:18:16Z</time>
      </trkpt>
      <trkpt lat="47.50403" lon="6.78862">
        <ele>315.7</ele>
        <time>2025-09-13T11:18:17Z</time>
      </trkpt>
      <trkpt lat="47.50404" lon="6.78853">
        <ele>315.7</ele>
        <time>2025-09-13T11:18:18Z</time>
      </trkpt>
      <trkpt lat="47.50404" lon="6.78844">
        <ele>315.7</ele>
        <time>2025-09-13T11:18:19Z</time>
      </trkpt>
      <trkpt lat="47.50405" lon="6.78834">
        <ele>315.7</ele>
        <time>2025-09-13T11:18:20Z</time>
      </trkpt>
      <trkpt lat="47.50405" lon="6.78824">
        <ele>315.6</ele>
        <time>2025-09-13T11:18:21Z</time>
      </trkpt>
      <trkpt lat="47.50406" lon="6.78815">
        <ele>315.6</ele>
        <time>2025-09-13T11:18:22Z</time>
      </trkpt>
      <trkpt lat="47.50407" lon="6.78806">
        <ele>315.6</ele>
        <time>2025-09-13T11:18:23Z</time>
      </trkpt>
      <trkpt lat="47.50408" lon="6.78796">
        <ele>315.5</ele>
        <time>2025-09-13T11:18:24Z</time>
      </trkpt>
      <trkpt lat="47.50409" lon="6.78787">
        <ele>315.5</ele>
        <time>2025-09-13T11:18:25Z</time>
      </trkpt>
      <trkpt lat="47.5041" lon="6.78777">
        <ele>315.5</ele>
        <time>2025-09-13T11:18:26Z</time>
      </trkpt>
      <trkpt lat="47.50411" lon="6.78768">
        <ele>315.5</ele>
        <time>2025-09-13T11:18:27Z</time>
      </trkpt>
      <trkpt lat="47.50412" lon="6.78759">
        <ele>315.5</ele>
        <time>2025-09-13T11:18:28Z</time>
      </trkpt>
      <trkpt lat="47.50413" lon="6.7875">
        <ele>315.5</ele>
        <time>2025-09-13T11:18:29Z</time>
      </trkpt>
      <trkpt lat="47.50415" lon="6.78741">
        <ele>315.5</ele>
        <time>2025-09-13T11:18:30Z</time>
      </trkpt>
      <trkpt lat="47.50417" lon="6.78732">
        <ele>315.5</ele>
        <time>2025-09-13T11:18:31Z</time>
      </trkpt>
      <trkpt lat="47.50418" lon="6.78724">
        <ele>315.4</ele>
        <time>2025-09-13T11:18:32Z</time>
      </trkpt>
      <trkpt lat="47.5042" lon="6.78714">
        <ele>315.4</ele>
        <time>2025-09-13T11:18:33Z</time>
      </trkpt>
      <trkpt lat="47.50422" lon="6.78704">
        <ele>315.4</ele>
        <time>2025-09-13T11:18:34Z</time>
      </trkpt>
      <trkpt lat="47.50423" lon="6.78695">
        <ele>315.4</ele>
        <time>2025-09-13T11:18:35Z</time>
      </trkpt>
      <trkpt lat="47.50425" lon="6.78685">
        <ele>315.4</ele>
        <time>2025-09-13T11:18:36Z</time>
      </trkpt>
      <trkpt lat="47.50427" lon="6.78676">
        <ele>315.4</ele>
        <time>2025-09-13T11:18:37Z</time>
      </trkpt>
      <trkpt lat="47.50428" lon="6.78668">
        <ele>315.4</ele>
        <time>2025-09-13T11:18:38Z</time>
      </trkpt>
      <trkpt lat="47.5043" lon="6.78658">
        <ele>315.5</ele>
        <time>2025-09-13T11:18:39Z</time>
      </trkpt>
      <trkpt lat="47.5043" lon="6.78649">
        <ele>315.5</ele>
        <time>2025-09-13T11:18:40Z</time>
      </trkpt>
      <trkpt lat="47.50431" lon="6.7864">
        <ele>315.5</ele>
        <time>2025-09-13T11:18:41Z</time>
      </trkpt>
      <trkpt lat="47.50434" lon="6.78631">
        <ele>315.6</ele>
        <time>2025-09-13T11:18:42Z</time>
      </trkpt>
      <trkpt lat="47.50435" lon="6.78622">
        <ele>315.6</ele>
        <time>2025-09-13T11:18:43Z</time>
      </trkpt>
      <trkpt lat="47.50437" lon="6.78613">
        <ele>315.6</ele>
        <time>2025-09-13T11:18:44Z</time>
      </trkpt>
      <trkpt lat="47.50439" lon="6.78605">
        <ele>315.7</ele>
        <time>2025-09-13T11:18:45Z</time>
      </trkpt>
      <trkpt lat="47.5044" lon="6.78594">
        <ele>315.7</ele>
        <time>2025-09-13T11:18:46Z</time>
      </trkpt>
      <trkpt lat="47.50442" lon="6.78586">
        <ele>315.7</ele>
        <time>2025-09-13T11:18:47Z</time>
      </trkpt>
      <trkpt lat="47.50445" lon="6.78578">
        <ele>315.7</ele>
        <time>2025-09-13T11:18:48Z</time>
      </trkpt>
      <trkpt lat="47.50448" lon="6.78568">
        <ele>315.7</ele>
        <time>2025-09-13T11:18:49Z</time>
      </trkpt>
      <trkpt lat="47.5045" lon="6.7856">
        <ele>315.7</ele>
        <time>2025-09-13T11:18:50Z</time>
      </trkpt>
      <trkpt lat="47.50452" lon="6.78551">
        <ele>315.7</ele>
        <time>2025-09-13T11:18:51Z</time>
      </trkpt>
      <trkpt lat="47.50455" lon="6.78541">
        <ele>315.8</ele>
        <time>2025-09-13T11:18:52Z</time>
      </trkpt>
      <trkpt lat="47.50456" lon="6.78532">
        <ele>315.8</ele>
        <time>2025-09-13T11:18:53Z</time>
      </trkpt>
      <trkpt lat="47.50458" lon="6.78523">
        <ele>315.8</ele>
        <time>2025-09-13T11:18:54Z</time>
      </trkpt>
      <trkpt lat="47.5046" lon="6.78514">
        <ele>315.8</ele>
        <time>2025-09-13T11:18:55Z</time>
      </trkpt>
      <trkpt lat="47.50462" lon="6.78505">
        <ele>315.7</ele>
        <time>2025-09-13T11:18:56Z</time>
      </trkpt>
      <trkpt lat="47.50465" lon="6.78496">
        <ele>315.7</ele>
        <time>2025-09-13T11:18:57Z</time>
      </trkpt>
      <trkpt lat="47.50466" lon="6.78487">
        <ele>315.7</ele>
        <time>2025-09-13T11:18:58Z</time>
      </trkpt>
      <trkpt lat="47.50469" lon="6.78477">
        <ele>315.6</ele>
        <time>2025-09-13T11:18:59Z</time>
      </trkpt>
      <trkpt lat="47.50471" lon="6.78469">
        <ele>315.6</ele>
        <time>2025-09-13T11:19:00Z</time>
      </trkpt>
      <trkpt lat="47.50473" lon="6.78459">
        <ele>315.4</ele>
        <time>2025-09-13T11:19:01Z</time>
      </trkpt>
      <trkpt lat="47.50475" lon="6.7845">
        <ele>315.3</ele>
        <time>2025-09-13T11:19:02Z</time>
      </trkpt>
      <trkpt lat="47.50477" lon="6.7844">
        <ele>315.2</ele>
        <time>2025-09-13T11:19:03Z</time>
      </trkpt>
      <trkpt lat="47.50479" lon="6.78431">
        <ele>315.1</ele>
        <time>2025-09-13T11:19:04Z</time>
      </trkpt>
      <trkpt lat="47.50481" lon="6.78421">
        <ele>314.9</ele>
        <time>2025-09-13T11:19:05Z</time>
      </trkpt>
      <trkpt lat="47.50483" lon="6.78412">
        <ele>314.8</ele>
        <time>2025-09-13T11:19:06Z</time>
      </trkpt>
      <trkpt lat="47.50485" lon="6.78402">
        <ele>314.8</ele>
        <time>2025-09-13T11:19:07Z</time>
      </trkpt>
      <trkpt lat="47.50487" lon="6.78392">
        <ele>314.7</ele>
        <time>2025-09-13T11:19:08Z</time>
      </trkpt>
      <trkpt lat="47.50489" lon="6.78382">
        <ele>314.7</ele>
        <time>2025-09-13T11:19:09Z</time>
      </trkpt>
      <trkpt lat="47.50491" lon="6.78373">
        <ele>314.6</ele>
        <time>2025-09-13T11:19:10Z</time>
      </trkpt>
      <trkpt lat="47.50493" lon="6.78363">
        <ele>314.6</ele>
        <time>2025-09-13T11:19:11Z</time>
      </trkpt>
      <trkpt lat="47.50495" lon="6.78353">
        <ele>314.5</ele>
        <time>2025-09-13T11:19:12Z</time>
      </trkpt>
      <trkpt lat="47.50497" lon="6.78343">
        <ele>314.5</ele>
        <time>2025-09-13T11:19:13Z</time>
      </trkpt>
      <trkpt lat="47.50499" lon="6.78333">
        <ele>314.5</ele>
        <time>2025-09-13T11:19:14Z</time>
      </trkpt>
      <trkpt lat="47.505" lon="6.78323">
        <ele>314.5</ele>
        <time>2025-09-13T11:19:15Z</time>
      </trkpt>
      <trkpt lat="47.50502" lon="6.78314">
        <ele>314.4</ele>
        <time>2025-09-13T11:19:16Z</time>
      </trkpt>
      <trkpt lat="47.50504" lon="6.78304">
        <ele>314.4</ele>
        <time>2025-09-13T11:19:17Z</time>
      </trkpt>
      <trkpt lat="47.50506" lon="6.78294">
        <ele>314.3</ele>
        <time>2025-09-13T11:19:18Z</time>
      </trkpt>
      <trkpt lat="47.50508" lon="6.78284">
        <ele>314.3</ele>
        <time>2025-09-13T11:19:19Z</time>
      </trkpt>
      <trkpt lat="47.50509" lon="6.78274">
        <ele>314.3</ele>
        <time>2025-09-13T11:19:20Z</time>
      </trkpt>
      <trkpt lat="47.50511" lon="6.78265">
        <ele>314.2</ele>
        <time>2025-09-13T11:19:21Z</time>
      </trkpt>
      <trkpt lat="47.50513" lon="6.78256">
        <ele>314.2</ele>
        <time>2025-09-13T11:19:22Z</time>
      </trkpt>
      <trkpt lat="47.50515" lon="6.78246">
        <ele>314.2</ele>
        <time>2025-09-13T11:19:23Z</time>
      </trkpt>
      <trkpt lat="47.50518" lon="6.78237">
        <ele>314.2</ele>
        <time>2025-09-13T11:19:24Z</time>
      </trkpt>
      <trkpt lat="47.50519" lon="6.78228">
        <ele>314.3</ele>
        <time>2025-09-13T11:19:25Z</time>
      </trkpt>
      <trkpt lat="47.50521" lon="6.78218">
        <ele>314.3</ele>
        <time>2025-09-13T11:19:26Z</time>
      </trkpt>
      <trkpt lat="47.50523" lon="6.78211">
        <ele>314.3</ele>
        <time>2025-09-13T11:19:27Z</time>
      </trkpt>
      <trkpt lat="47.50525" lon="6.78202">
        <ele>314.3</ele>
        <time>2025-09-13T11:19:29Z</time>
      </trkpt>
      <trkpt lat="47.50526" lon="6.78194">
        <ele>314.3</ele>
        <time>2025-09-13T11:19:30Z</time>
      </trkpt>
      <trkpt lat="47.50528" lon="6.78185">
        <ele>314.3</ele>
        <time>2025-09-13T11:19:31Z</time>
      </trkpt>
      <trkpt lat="47.50529" lon="6.78177">
        <ele>314.4</ele>
        <time>2025-09-13T11:19:32Z</time>
      </trkpt>
      <trkpt lat="47.50531" lon="6.78167">
        <ele>314.4</ele>
        <time>2025-09-13T11:19:33Z</time>
      </trkpt>
      <trkpt lat="47.50533" lon="6.78158">
        <ele>314.4</ele>
        <time>2025-09-13T11:19:34Z</time>
      </trkpt>
      <trkpt lat="47.50534" lon="6.78149">
        <ele>314.4</ele>
        <time>2025-09-13T11:19:35Z</time>
      </trkpt>
      <trkpt lat="47.50536" lon="6.78141">
        <ele>314.4</ele>
        <time>2025-09-13T11:19:36Z</time>
      </trkpt>
      <trkpt lat="47.50538" lon="6.78132">
        <ele>314.4</ele>
        <time>2025-09-13T11:19:37Z</time>
      </trkpt>
      <trkpt lat="47.5054" lon="6.78123">
        <ele>314.4</ele>
        <time>2025-09-13T11:19:38Z</time>
      </trkpt>
      <trkpt lat="47.50541" lon="6.78115">
        <ele>314.4</ele>
        <time>2025-09-13T11:19:39Z</time>
      </trkpt>
      <trkpt lat="47.50542" lon="6.78106">
        <ele>314.4</ele>
        <time>2025-09-13T11:19:40Z</time>
      </trkpt>
      <trkpt lat="47.50543" lon="6.78097">
        <ele>314.4</ele>
        <time>2025-09-13T11:19:41Z</time>
      </trkpt>
      <trkpt lat="47.50545" lon="6.78089">
        <ele>314.4</ele>
        <time>2025-09-13T11:19:42Z</time>
      </trkpt>
      <trkpt lat="47.50545" lon="6.7808">
        <ele>314.4</ele>
        <time>2025-09-13T11:19:43Z</time>
      </trkpt>
      <trkpt lat="47.50547" lon="6.78071">
        <ele>314.4</ele>
        <time>2025-09-13T11:19:44Z</time>
      </trkpt>
      <trkpt lat="47.50547" lon="6.78061">
        <ele>314.4</ele>
        <time>2025-09-13T11:19:45Z</time>
      </trkpt>
      <trkpt lat="47.50547" lon="6.78052">
        <ele>314.4</ele>
        <time>2025-09-13T11:19:46Z</time>
      </trkpt>
      <trkpt lat="47.50548" lon="6.78041">
        <ele>314.4</ele>
        <time>2025-09-13T11:19:47Z</time>
      </trkpt>
      <trkpt lat="47.50548" lon="6.78032">
        <ele>314.4</ele>
        <time>2025-09-13T11:19:48Z</time>
      </trkpt>
      <trkpt lat="47.50548" lon="6.78021">
        <ele>314.4</ele>
        <time>2025-09-13T11:19:49Z</time>
      </trkpt>
      <trkpt lat="47.50548" lon="6.78013">
        <ele>314.4</ele>
        <time>2025-09-13T11:19:50Z</time>
      </trkpt>
      <trkpt lat="47.50547" lon="6.78004">
        <ele>314.5</ele>
        <time>2025-09-13T11:19:51Z</time>
      </trkpt>
      <trkpt lat="47.50546" lon="6.77995">
        <ele>314.5</ele>
        <time>2025-09-13T11:19:52Z</time>
      </trkpt>
      <trkpt lat="47.50544" lon="6.77986">
        <ele>314.5</ele>
        <time>2025-09-13T11:19:53Z</time>
      </trkpt>
      <trkpt lat="47.50543" lon="6.77978">
        <ele>314.5</ele>
        <time>2025-09-13T11:19:54Z</time>
      </trkpt>
      <trkpt lat="47.50541" lon="6.77969">
        <ele>314.4</ele>
        <time>2025-09-13T11:19:55Z</time>
      </trkpt>
      <trkpt lat="47.5054" lon="6.7796">
        <ele>314.4</ele>
        <time>2025-09-13T11:19:56Z</time>
      </trkpt>
      <trkpt lat="47.50538" lon="6.77951">
        <ele>314.4</ele>
        <time>2025-09-13T11:19:57Z</time>
      </trkpt>
      <trkpt lat="47.50537" lon="6.77941">
        <ele>314.4</ele>
        <time>2025-09-13T11:19:58Z</time>
      </trkpt>
      <trkpt lat="47.50536" lon="6.77932">
        <ele>314.4</ele>
        <time>2025-09-13T11:19:59Z</time>
      </trkpt>
      <trkpt lat="47.50534" lon="6.77923">
        <ele>314.4</ele>
        <time>2025-09-13T11:20:00Z</time>
      </trkpt>
      <trkpt lat="47.50532" lon="6.77915">
        <ele>314.3</ele>
        <time>2025-09-13T11:20:01Z</time>
      </trkpt>
      <trkpt lat="47.50531" lon="6.77905">
        <ele>314.3</ele>
        <time>2025-09-13T11:20:02Z</time>
      </trkpt>
      <trkpt lat="47.50529" lon="6.77897">
        <ele>314.3</ele>
        <time>2025-09-13T11:20:03Z</time>
      </trkpt>
      <trkpt lat="47.50528" lon="6.77887">
        <ele>314.3</ele>
        <time>2025-09-13T11:20:04Z</time>
      </trkpt>
      <trkpt lat="47.50524" lon="6.77879">
        <ele>314.2</ele>
        <time>2025-09-13T11:20:05Z</time>
      </trkpt>
      <trkpt lat="47.50522" lon="6.7787">
        <ele>314.2</ele>
        <time>2025-09-13T11:20:06Z</time>
      </trkpt>
      <trkpt lat="47.5052" lon="6.7786">
        <ele>314.1</ele>
        <time>2025-09-13T11:20:07Z</time>
      </trkpt>
      <trkpt lat="47.50518" lon="6.77851">
        <ele>314.1</ele>
        <time>2025-09-13T11:20:08Z</time>
      </trkpt>
      <trkpt lat="47.50516" lon="6.77841">
        <ele>314.1</ele>
        <time>2025-09-13T11:20:09Z</time>
      </trkpt>
      <trkpt lat="47.50515" lon="6.77831">
        <ele>314</ele>
        <time>2025-09-13T11:20:10Z</time>
      </trkpt>
      <trkpt lat="47.50513" lon="6.7782">
        <ele>314</ele>
        <time>2025-09-13T11:20:11Z</time>
      </trkpt>
      <trkpt lat="47.50511" lon="6.77812">
        <ele>314</ele>
        <time>2025-09-13T11:20:12Z</time>
      </trkpt>
      <trkpt lat="47.50509" lon="6.77803">
        <ele>314</ele>
        <time>2025-09-13T11:20:13Z</time>
      </trkpt>
      <trkpt lat="47.50507" lon="6.77793">
        <ele>314</ele>
        <time>2025-09-13T11:20:14Z</time>
      </trkpt>
      <trkpt lat="47.50504" lon="6.77785">
        <ele>314</ele>
        <time>2025-09-13T11:20:15Z</time>
      </trkpt>
      <trkpt lat="47.50503" lon="6.77776">
        <ele>313.9</ele>
        <time>2025-09-13T11:20:16Z</time>
      </trkpt>
      <trkpt lat="47.505" lon="6.77767">
        <ele>313.9</ele>
        <time>2025-09-13T11:20:17Z</time>
      </trkpt>
      <trkpt lat="47.50496" lon="6.7776">
        <ele>313.9</ele>
        <time>2025-09-13T11:20:18Z</time>
      </trkpt>
      <trkpt lat="47.50493" lon="6.77752">
        <ele>313.9</ele>
        <time>2025-09-13T11:20:19Z</time>
      </trkpt>
      <trkpt lat="47.5049" lon="6.77743">
        <ele>313.9</ele>
        <time>2025-09-13T11:20:20Z</time>
      </trkpt>
      <trkpt lat="47.50487" lon="6.77734">
        <ele>313.8</ele>
        <time>2025-09-13T11:20:21Z</time>
      </trkpt>
      <trkpt lat="47.50484" lon="6.77726">
        <ele>313.8</ele>
        <time>2025-09-13T11:20:22Z</time>
      </trkpt>
      <trkpt lat="47.50481" lon="6.77718">
        <ele>313.8</ele>
        <time>2025-09-13T11:20:23Z</time>
      </trkpt>
      <trkpt lat="47.50477" lon="6.77709">
        <ele>313.8</ele>
        <time>2025-09-13T11:20:24Z</time>
      </trkpt>
      <trkpt lat="47.50473" lon="6.77701">
        <ele>313.8</ele>
        <time>2025-09-13T11:20:25Z</time>
      </trkpt>
      <trkpt lat="47.5047" lon="6.77693">
        <ele>313.8</ele>
        <time>2025-09-13T11:20:26Z</time>
      </trkpt>
      <trkpt lat="47.50467" lon="6.77685">
        <ele>313.7</ele>
        <time>2025-09-13T11:20:27Z</time>
      </trkpt>
      <trkpt lat="47.50463" lon="6.77677">
        <ele>313.7</ele>
        <time>2025-09-13T11:20:28Z</time>
      </trkpt>
      <trkpt lat="47.50459" lon="6.77668">
        <ele>313.7</ele>
        <time>2025-09-13T11:20:29Z</time>
      </trkpt>
      <trkpt lat="47.50455" lon="6.77659">
        <ele>313.7</ele>
        <time>2025-09-13T11:20:30Z</time>
      </trkpt>
      <trkpt lat="47.50451" lon="6.77652">
        <ele>313.8</ele>
        <time>2025-09-13T11:20:31Z</time>
      </trkpt>
      <trkpt lat="47.50447" lon="6.77644">
        <ele>313.8</ele>
        <time>2025-09-13T11:20:32Z</time>
      </trkpt>
      <trkpt lat="47.50443" lon="6.77638">
        <ele>313.8</ele>
        <time>2025-09-13T11:20:33Z</time>
      </trkpt>
      <trkpt lat="47.50439" lon="6.7763">
        <ele>313.8</ele>
        <time>2025-09-13T11:20:34Z</time>
      </trkpt>
      <trkpt lat="47.50435" lon="6.77625">
        <ele>313.8</ele>
        <time>2025-09-13T11:20:35Z</time>
      </trkpt>
      <trkpt lat="47.5043" lon="6.77617">
        <ele>313.8</ele>
        <time>2025-09-13T11:20:36Z</time>
      </trkpt>
      <trkpt lat="47.50425" lon="6.77609">
        <ele>313.8</ele>
        <time>2025-09-13T11:20:37Z</time>
      </trkpt>
      <trkpt lat="47.50421" lon="6.77603">
        <ele>313.9</ele>
        <time>2025-09-13T11:20:38Z</time>
      </trkpt>
      <trkpt lat="47.50417" lon="6.77597">
        <ele>313.8</ele>
        <time>2025-09-13T11:20:39Z</time>
      </trkpt>
      <trkpt lat="47.50412" lon="6.7759">
        <ele>313.8</ele>
        <time>2025-09-13T11:20:40Z</time>
      </trkpt>
      <trkpt lat="47.50407" lon="6.77583">
        <ele>313.8</ele>
        <time>2025-09-13T11:20:41Z</time>
      </trkpt>
      <trkpt lat="47.50401" lon="6.77577">
        <ele>313.8</ele>
        <time>2025-09-13T11:20:42Z</time>
      </trkpt>
      <trkpt lat="47.50396" lon="6.77572">
        <ele>313.8</ele>
        <time>2025-09-13T11:20:43Z</time>
      </trkpt>
      <trkpt lat="47.5039" lon="6.77565">
        <ele>313.8</ele>
        <time>2025-09-13T11:20:44Z</time>
      </trkpt>
      <trkpt lat="47.50385" lon="6.77559">
        <ele>313.8</ele>
        <time>2025-09-13T11:20:45Z</time>
      </trkpt>
      <trkpt lat="47.50378" lon="6.77555">
        <ele>313.8</ele>
        <time>2025-09-13T11:20:46Z</time>
      </trkpt>
      <trkpt lat="47.5037" lon="6.77556">
        <ele>313.8</ele>
        <time>2025-09-13T11:20:47Z</time>
      </trkpt>
      <trkpt lat="47.50365" lon="6.77553">
        <ele>313.7</ele>
        <time>2025-09-13T11:20:48Z</time>
      </trkpt>
      <trkpt lat="47.50359" lon="6.7755">
        <ele>313.7</ele>
        <time>2025-09-13T11:20:49Z</time>
      </trkpt>
      <trkpt lat="47.50353" lon="6.77546">
        <ele>313.6</ele>
        <time>2025-09-13T11:20:50Z</time>
      </trkpt>
      <trkpt lat="47.50346" lon="6.7754">
        <ele>313.5</ele>
        <time>2025-09-13T11:20:51Z</time>
      </trkpt>
      <trkpt lat="47.50339" lon="6.77535">
        <ele>313.3</ele>
        <time>2025-09-13T11:20:52Z</time>
      </trkpt>
      <trkpt lat="47.50333" lon="6.77531">
        <ele>313</ele>
        <time>2025-09-13T11:20:53Z</time>
      </trkpt>
      <trkpt lat="47.50327" lon="6.77526">
        <ele>312.7</ele>
        <time>2025-09-13T11:20:54Z</time>
      </trkpt>
      <trkpt lat="47.50321" lon="6.77518">
        <ele>312.4</ele>
        <time>2025-09-13T11:20:55Z</time>
      </trkpt>
      <trkpt lat="47.50314" lon="6.77512">
        <ele>312.2</ele>
        <time>2025-09-13T11:20:56Z</time>
      </trkpt>
      <trkpt lat="47.50307" lon="6.77506">
        <ele>312</ele>
        <time>2025-09-13T11:20:57Z</time>
      </trkpt>
      <trkpt lat="47.50301" lon="6.77502">
        <ele>312</ele>
        <time>2025-09-13T11:20:58Z</time>
      </trkpt>
      <trkpt lat="47.50294" lon="6.77495">
        <ele>311.9</ele>
        <time>2025-09-13T11:20:59Z</time>
      </trkpt>
      <trkpt lat="47.50288" lon="6.77489">
        <ele>311.9</ele>
        <time>2025-09-13T11:21:00Z</time>
      </trkpt>
      <trkpt lat="47.50282" lon="6.77483">
        <ele>311.9</ele>
        <time>2025-09-13T11:21:01Z</time>
      </trkpt>
      <trkpt lat="47.50276" lon="6.77478">
        <ele>311.9</ele>
        <time>2025-09-13T11:21:02Z</time>
      </trkpt>
      <trkpt lat="47.50271" lon="6.77472">
        <ele>311.9</ele>
        <time>2025-09-13T11:21:03Z</time>
      </trkpt>
      <trkpt lat="47.50265" lon="6.77466">
        <ele>311.9</ele>
        <time>2025-09-13T11:21:04Z</time>
      </trkpt>
      <trkpt lat="47.50259" lon="6.77461">
        <ele>311.9</ele>
        <time>2025-09-13T11:21:05Z</time>
      </trkpt>
      <trkpt lat="47.50254" lon="6.77456">
        <ele>311.9</ele>
        <time>2025-09-13T11:21:06Z</time>
      </trkpt>
      <trkpt lat="47.50248" lon="6.77451">
        <ele>311.9</ele>
        <time>2025-09-13T11:21:07Z</time>
      </trkpt>
      <trkpt lat="47.50242" lon="6.77444">
        <ele>311.9</ele>
        <time>2025-09-13T11:21:08Z</time>
      </trkpt>
      <trkpt lat="47.50237" lon="6.77437">
        <ele>311.9</ele>
        <time>2025-09-13T11:21:09Z</time>
      </trkpt>
      <trkpt lat="47.50234" lon="6.77427">
        <ele>311.9</ele>
        <time>2025-09-13T11:21:10Z</time>
      </trkpt>
      <trkpt lat="47.50229" lon="6.77421">
        <ele>311.9</ele>
        <time>2025-09-13T11:21:11Z</time>
      </trkpt>
      <trkpt lat="47.50222" lon="6.77415">
        <ele>311.9</ele>
        <time>2025-09-13T11:21:12Z</time>
      </trkpt>
      <trkpt lat="47.50216" lon="6.77411">
        <ele>312</ele>
        <time>2025-09-13T11:21:13Z</time>
      </trkpt>
      <trkpt lat="47.5021" lon="6.77407">
        <ele>312</ele>
        <time>2025-09-13T11:21:14Z</time>
      </trkpt>
      <trkpt lat="47.50205" lon="6.77405">
        <ele>312.1</ele>
        <time>2025-09-13T11:21:15Z</time>
      </trkpt>
      <trkpt lat="47.50198" lon="6.77402">
        <ele>312.1</ele>
        <time>2025-09-13T11:21:16Z</time>
      </trkpt>
      <trkpt lat="47.50192" lon="6.774">
        <ele>312.1</ele>
        <time>2025-09-13T11:21:17Z</time>
      </trkpt>
      <trkpt lat="47.50185" lon="6.77395">
        <ele>312.2</ele>
        <time>2025-09-13T11:21:18Z</time>
      </trkpt>
      <trkpt lat="47.5018" lon="6.77392">
        <ele>312.2</ele>
        <time>2025-09-13T11:21:19Z</time>
      </trkpt>
      <trkpt lat="47.50174" lon="6.77389">
        <ele>312.3</ele>
        <time>2025-09-13T11:21:20Z</time>
      </trkpt>
      <trkpt lat="47.50156" lon="6.77399">
        <ele>312.4</ele>
        <time>2025-09-13T11:21:21Z</time>
      </trkpt>
      <trkpt lat="47.50153" lon="6.77398">
        <ele>312.4</ele>
        <time>2025-09-13T11:21:22Z</time>
      </trkpt>
      <trkpt lat="47.50151" lon="6.77393">
        <ele>312.5</ele>
        <time>2025-09-13T11:21:23Z</time>
      </trkpt>
      <trkpt lat="47.50139" lon="6.77398">
        <ele>312.7</ele>
        <time>2025-09-13T11:21:24Z</time>
      </trkpt>
      <trkpt lat="47.50133" lon="6.77397">
        <ele>312.9</ele>
        <time>2025-09-13T11:21:25Z</time>
      </trkpt>
      <trkpt lat="47.50127" lon="6.77392">
        <ele>313.2</ele>
        <time>2025-09-13T11:21:26Z</time>
      </trkpt>
      <trkpt lat="47.50121" lon="6.77393">
        <ele>313.5</ele>
        <time>2025-09-13T11:21:27Z</time>
      </trkpt>
      <trkpt lat="47.50116" lon="6.77395">
        <ele>313.8</ele>
        <time>2025-09-13T11:21:28Z</time>
      </trkpt>
      <trkpt lat="47.50114" lon="6.77391">
        <ele>313.8</ele>
        <time>2025-09-13T11:21:29Z</time>
      </trkpt>
      <trkpt lat="47.50112" lon="6.77391">
        <ele>313.8</ele>
        <time>2025-09-13T11:21:30Z</time>
      </trkpt>
      <trkpt lat="47.50111" lon="6.7739">
        <ele>313.8</ele>
        <time>2025-09-13T11:21:31Z</time>
      </trkpt>
      <trkpt lat="47.50111" lon="6.77389">
        <ele>313.8</ele>
        <time>2025-09-13T11:21:32Z</time>
      </trkpt>
      <trkpt lat="47.50109" lon="6.77388">
        <ele>313.8</ele>
        <time>2025-09-13T11:21:33Z</time>
      </trkpt>
      <trkpt lat="47.50105" lon="6.77388">
        <ele>313.8</ele>
        <time>2025-09-13T11:21:35Z</time>
      </trkpt>
      <trkpt lat="47.501" lon="6.77387">
        <ele>313.8</ele>
        <time>2025-09-13T11:21:36Z</time>
      </trkpt>
      <trkpt lat="47.50097" lon="6.77385">
        <ele>313.7</ele>
        <time>2025-09-13T11:21:37Z</time>
      </trkpt>
      <trkpt lat="47.50094" lon="6.77382">
        <ele>313.7</ele>
        <time>2025-09-13T11:21:38Z</time>
      </trkpt>
      <trkpt lat="47.50096" lon="6.77381">
        <ele>313.7</ele>
        <time>2025-09-13T11:21:39Z</time>
      </trkpt>
      <trkpt lat="47.50092" lon="6.77381">
        <ele>313.8</ele>
        <time>2025-09-13T11:21:40Z</time>
      </trkpt>
      <trkpt lat="47.5009" lon="6.77382">
        <ele>313.8</ele>
        <time>2025-09-13T11:21:41Z</time>
      </trkpt>
      <trkpt lat="47.50087" lon="6.77383">
        <ele>313.8</ele>
        <time>2025-09-13T11:21:42Z</time>
      </trkpt>
      <trkpt lat="47.50085" lon="6.77384">
        <ele>313.8</ele>
        <time>2025-09-13T11:21:43Z</time>
      </trkpt>
      <trkpt lat="47.50081" lon="6.77381">
        <ele>313.9</ele>
        <time>2025-09-13T11:21:44Z</time>
      </trkpt>
      <trkpt lat="47.50073" lon="6.77372">
        <ele>314</ele>
        <time>2025-09-13T11:21:45Z</time>
      </trkpt>
      <trkpt lat="47.50066" lon="6.77369">
        <ele>314.2</ele>
        <time>2025-09-13T11:21:46Z</time>
      </trkpt>
      <trkpt lat="47.50061" lon="6.77365">
        <ele>314.3</ele>
        <time>2025-09-13T11:21:47Z</time>
      </trkpt>
      <trkpt lat="47.50057" lon="6.77362">
        <ele>314.3</ele>
        <time>2025-09-13T11:21:48Z</time>
      </trkpt>
      <trkpt lat="47.50055" lon="6.7736">
        <ele>314.4</ele>
        <time>2025-09-13T11:21:49Z</time>
      </trkpt>
      <trkpt lat="47.50052" lon="6.77353">
        <ele>314.5</ele>
        <time>2025-09-13T11:21:50Z</time>
      </trkpt>
      <trkpt lat="47.50049" lon="6.77348">
        <ele>314.6</ele>
        <time>2025-09-13T11:21:51Z</time>
      </trkpt>
      <trkpt lat="47.50044" lon="6.7734">
        <ele>314.7</ele>
        <time>2025-09-13T11:21:52Z</time>
      </trkpt>
      <trkpt lat="47.50041" lon="6.77332">
        <ele>314.8</ele>
        <time>2025-09-13T11:21:53Z</time>
      </trkpt>
      <trkpt lat="47.50038" lon="6.77326">
        <ele>314.9</ele>
        <time>2025-09-13T11:21:54Z</time>
      </trkpt>
      <trkpt lat="47.50036" lon="6.77318">
        <ele>315</ele>
        <time>2025-09-13T11:21:55Z</time>
      </trkpt>
      <trkpt lat="47.50034" lon="6.7731">
        <ele>315.1</ele>
        <time>2025-09-13T11:21:56Z</time>
      </trkpt>
      <trkpt lat="47.50032" lon="6.77302">
        <ele>315.2</ele>
        <time>2025-09-13T11:21:57Z</time>
      </trkpt>
      <trkpt lat="47.5003" lon="6.77294">
        <ele>315.3</ele>
        <time>2025-09-13T11:21:58Z</time>
      </trkpt>
      <trkpt lat="47.50028" lon="6.77286">
        <ele>315.3</ele>
        <time>2025-09-13T11:21:59Z</time>
      </trkpt>
      <trkpt lat="47.50026" lon="6.77278">
        <ele>315.4</ele>
        <time>2025-09-13T11:22:00Z</time>
      </trkpt>
      <trkpt lat="47.50024" lon="6.7727">
        <ele>315.4</ele>
        <time>2025-09-13T11:22:01Z</time>
      </trkpt>
      <trkpt lat="47.50022" lon="6.77262">
        <ele>315.5</ele>
        <time>2025-09-13T11:22:02Z</time>
      </trkpt>
      <trkpt lat="47.5002" lon="6.77254">
        <ele>315.5</ele>
        <time>2025-09-13T11:22:03Z</time>
      </trkpt>
      <trkpt lat="47.50019" lon="6.77246">
        <ele>315.5</ele>
        <time>2025-09-13T11:22:04Z</time>
      </trkpt>
      <trkpt lat="47.50017" lon="6.77238">
        <ele>315.5</ele>
        <time>2025-09-13T11:22:05Z</time>
      </trkpt>
      <trkpt lat="47.50015" lon="6.77235">
        <ele>315.5</ele>
        <time>2025-09-13T11:22:06Z</time>
      </trkpt>
      <trkpt lat="47.50011" lon="6.77231">
        <ele>315.3</ele>
        <time>2025-09-13T11:22:07Z</time>
      </trkpt>
      <trkpt lat="47.50006" lon="6.77232">
        <ele>315.2</ele>
        <time>2025-09-13T11:22:08Z</time>
      </trkpt>
      <trkpt lat="47.5" lon="6.77236">
        <ele>314.9</ele>
        <time>2025-09-13T11:22:09Z</time>
      </trkpt>
      <trkpt lat="47.49995" lon="6.77238">
        <ele>314.8</ele>
        <time>2025-09-13T11:22:10Z</time>
      </trkpt>
      <trkpt lat="47.49991" lon="6.77241">
        <ele>314.7</ele>
        <time>2025-09-13T11:22:11Z</time>
      </trkpt>
      <trkpt lat="47.49981" lon="6.77245">
        <ele>314.5</ele>
        <time>2025-09-13T11:22:12Z</time>
      </trkpt>
      <trkpt lat="47.49976" lon="6.77248">
        <ele>314.4</ele>
        <time>2025-09-13T11:22:13Z</time>
      </trkpt>
      <trkpt lat="47.4997" lon="6.77251">
        <ele>314.3</ele>
        <time>2025-09-13T11:22:14Z</time>
      </trkpt>
      <trkpt lat="47.49965" lon="6.77253">
        <ele>314.2</ele>
        <time>2025-09-13T11:22:15Z</time>
      </trkpt>
      <trkpt lat="47.49959" lon="6.77257">
        <ele>314.2</ele>
        <time>2025-09-13T11:22:16Z</time>
      </trkpt>
      <trkpt lat="47.49953" lon="6.7726">
        <ele>314.1</ele>
        <time>2025-09-13T11:22:17Z</time>
      </trkpt>
      <trkpt lat="47.49947" lon="6.77263">
        <ele>314</ele>
        <time>2025-09-13T11:22:18Z</time>
      </trkpt>
      <trkpt lat="47.49941" lon="6.77267">
        <ele>314</ele>
        <time>2025-09-13T11:22:19Z</time>
      </trkpt>
      <trkpt lat="47.49935" lon="6.7727">
        <ele>314</ele>
        <time>2025-09-13T11:22:20Z</time>
      </trkpt>
      <trkpt lat="47.49929" lon="6.77273">
        <ele>313.9</ele>
        <time>2025-09-13T11:22:21Z</time>
      </trkpt>
      <trkpt lat="47.49924" lon="6.77277">
        <ele>313.9</ele>
        <time>2025-09-13T11:22:22Z</time>
      </trkpt>
      <trkpt lat="47.49917" lon="6.7728">
        <ele>313.9</ele>
        <time>2025-09-13T11:22:23Z</time>
      </trkpt>
      <trkpt lat="47.49912" lon="6.77284">
        <ele>313.9</ele>
        <time>2025-09-13T11:22:24Z</time>
      </trkpt>
      <trkpt lat="47.49905" lon="6.77288">
        <ele>313.8</ele>
        <time>2025-09-13T11:22:25Z</time>
      </trkpt>
      <trkpt lat="47.499" lon="6.7729">
        <ele>313.8</ele>
        <time>2025-09-13T11:22:26Z</time>
      </trkpt>
      <trkpt lat="47.49893" lon="6.77292">
        <ele>313.8</ele>
        <time>2025-09-13T11:22:27Z</time>
      </trkpt>
      <trkpt lat="47.49886" lon="6.77295">
        <ele>313.7</ele>
        <time>2025-09-13T11:22:28Z</time>
      </trkpt>
      <trkpt lat="47.4988" lon="6.77297">
        <ele>313.7</ele>
        <time>2025-09-13T11:22:29Z</time>
      </trkpt>
      <trkpt lat="47.49874" lon="6.77298">
        <ele>313.6</ele>
        <time>2025-09-13T11:22:30Z</time>
      </trkpt>
      <trkpt lat="47.49867" lon="6.77299">
        <ele>313.6</ele>
        <time>2025-09-13T11:22:31Z</time>
      </trkpt>
      <trkpt lat="47.4986" lon="6.773">
        <ele>313.5</ele>
        <time>2025-09-13T11:22:32Z</time>
      </trkpt>
      <trkpt lat="47.49853" lon="6.773">
        <ele>313.4</ele>
        <time>2025-09-13T11:22:33Z</time>
      </trkpt>
      <trkpt lat="47.49846" lon="6.77301">
        <ele>313.4</ele>
        <time>2025-09-13T11:22:34Z</time>
      </trkpt>
      <trkpt lat="47.4984" lon="6.77302">
        <ele>313.3</ele>
        <time>2025-09-13T11:22:35Z</time>
      </trkpt>
      <trkpt lat="47.49833" lon="6.77303">
        <ele>313.3</ele>
        <time>2025-09-13T11:22:36Z</time>
      </trkpt>
      <trkpt lat="47.49826" lon="6.77304">
        <ele>313.3</ele>
        <time>2025-09-13T11:22:37Z</time>
      </trkpt>
      <trkpt lat="47.49819" lon="6.77305">
        <ele>313.3</ele>
        <time>2025-09-13T11:22:38Z</time>
      </trkpt>
      <trkpt lat="47.49813" lon="6.77306">
        <ele>313.2</ele>
        <time>2025-09-13T11:22:39Z</time>
      </trkpt>
      <trkpt lat="47.49807" lon="6.77308">
        <ele>313.2</ele>
        <time>2025-09-13T11:22:40Z</time>
      </trkpt>
      <trkpt lat="47.498" lon="6.77308">
        <ele>313.2</ele>
        <time>2025-09-13T11:22:41Z</time>
      </trkpt>
      <trkpt lat="47.49794" lon="6.77308">
        <ele>313.2</ele>
        <time>2025-09-13T11:22:42Z</time>
      </trkpt>
      <trkpt lat="47.49786" lon="6.77309">
        <ele>313.2</ele>
        <time>2025-09-13T11:22:43Z</time>
      </trkpt>
      <trkpt lat="47.4978" lon="6.7731">
        <ele>313.2</ele>
        <time>2025-09-13T11:22:44Z</time>
      </trkpt>
      <trkpt lat="47.49774" lon="6.7731">
        <ele>313.2</ele>
        <time>2025-09-13T11:22:45Z</time>
      </trkpt>
      <trkpt lat="47.49766" lon="6.77309">
        <ele>313.2</ele>
        <time>2025-09-13T11:22:46Z</time>
      </trkpt>
      <trkpt lat="47.49759" lon="6.77309">
        <ele>313.1</ele>
        <time>2025-09-13T11:22:47Z</time>
      </trkpt>
      <trkpt lat="47.49754" lon="6.7731">
        <ele>313.1</ele>
        <time>2025-09-13T11:22:48Z</time>
      </trkpt>
      <trkpt lat="47.49748" lon="6.77313">
        <ele>313</ele>
        <time>2025-09-13T11:22:49Z</time>
      </trkpt>
      <trkpt lat="47.4974" lon="6.77317">
        <ele>312.9</ele>
        <time>2025-09-13T11:22:50Z</time>
      </trkpt>
      <trkpt lat="47.49735" lon="6.77322">
        <ele>312.9</ele>
        <time>2025-09-13T11:22:51Z</time>
      </trkpt>
      <trkpt lat="47.49729" lon="6.77327">
        <ele>312.9</ele>
        <time>2025-09-13T11:22:52Z</time>
      </trkpt>
      <trkpt lat="47.49723" lon="6.77331">
        <ele>312.9</ele>
        <time>2025-09-13T11:22:53Z</time>
      </trkpt>
      <trkpt lat="47.49716" lon="6.77334">
        <ele>312.9</ele>
        <time>2025-09-13T11:22:54Z</time>
      </trkpt>
      <trkpt lat="47.49709" lon="6.77335">
        <ele>312.9</ele>
        <time>2025-09-13T11:22:55Z</time>
      </trkpt>
      <trkpt lat="47.49701" lon="6.77337">
        <ele>312.8</ele>
        <time>2025-09-13T11:22:56Z</time>
      </trkpt>
      <trkpt lat="47.49692" lon="6.77339">
        <ele>312.8</ele>
        <time>2025-09-13T11:22:57Z</time>
      </trkpt>
      <trkpt lat="47.49684" lon="6.77341">
        <ele>312.8</ele>
        <time>2025-09-13T11:22:58Z</time>
      </trkpt>
      <trkpt lat="47.49675" lon="6.77342">
        <ele>312.8</ele>
        <time>2025-09-13T11:22:59Z</time>
      </trkpt>
      <trkpt lat="47.49667" lon="6.77343">
        <ele>312.7</ele>
        <time>2025-09-13T11:23:00Z</time>
      </trkpt>
      <trkpt lat="47.49663" lon="6.77343">
        <ele>312.7</ele>
        <time>2025-09-13T11:23:01Z</time>
      </trkpt>
      <trkpt lat="47.49654" lon="6.77345">
        <ele>312.7</ele>
        <time>2025-09-13T11:23:02Z</time>
      </trkpt>
      <trkpt lat="47.49646" lon="6.77347">
        <ele>312.6</ele>
        <time>2025-09-13T11:23:03Z</time>
      </trkpt>
      <trkpt lat="47.49638" lon="6.77349">
        <ele>312.6</ele>
        <time>2025-09-13T11:23:04Z</time>
      </trkpt>
      <trkpt lat="47.49631" lon="6.7735">
        <ele>312.6</ele>
        <time>2025-09-13T11:23:05Z</time>
      </trkpt>
      <trkpt lat="47.49622" lon="6.77354">
        <ele>312.6</ele>
        <time>2025-09-13T11:23:06Z</time>
      </trkpt>
      <trkpt lat="47.49614" lon="6.77356">
        <ele>312.5</ele>
        <time>2025-09-13T11:23:07Z</time>
      </trkpt>
      <trkpt lat="47.49607" lon="6.77357">
        <ele>312.5</ele>
        <time>2025-09-13T11:23:08Z</time>
      </trkpt>
      <trkpt lat="47.49599" lon="6.77358">
        <ele>312.5</ele>
        <time>2025-09-13T11:23:09Z</time>
      </trkpt>
      <trkpt lat="47.49591" lon="6.77359">
        <ele>312.5</ele>
        <time>2025-09-13T11:23:10Z</time>
      </trkpt>
      <trkpt lat="47.49583" lon="6.7736">
        <ele>312.5</ele>
        <time>2025-09-13T11:23:11Z</time>
      </trkpt>
      <trkpt lat="47.49573" lon="6.77362">
        <ele>312.5</ele>
        <time>2025-09-13T11:23:12Z</time>
      </trkpt>
      <trkpt lat="47.49566" lon="6.77362">
        <ele>312.5</ele>
        <time>2025-09-13T11:23:13Z</time>
      </trkpt>
      <trkpt lat="47.49558" lon="6.77361">
        <ele>312.5</ele>
        <time>2025-09-13T11:23:14Z</time>
      </trkpt>
      <trkpt lat="47.49548" lon="6.7736">
        <ele>312.5</ele>
        <time>2025-09-13T11:23:15Z</time>
      </trkpt>
      <trkpt lat="47.49541" lon="6.77359">
        <ele>312.5</ele>
        <time>2025-09-13T11:23:16Z</time>
      </trkpt>
      <trkpt lat="47.49533" lon="6.77358">
        <ele>312.5</ele>
        <time>2025-09-13T11:23:17Z</time>
      </trkpt>
      <trkpt lat="47.49526" lon="6.77358">
        <ele>312.5</ele>
        <time>2025-09-13T11:23:18Z</time>
      </trkpt>
      <trkpt lat="47.49517" lon="6.77358">
        <ele>312.5</ele>
        <time>2025-09-13T11:23:19Z</time>
      </trkpt>
      <trkpt lat="47.49507" lon="6.77357">
        <ele>312.5</ele>
        <time>2025-09-13T11:23:20Z</time>
      </trkpt>
      <trkpt lat="47.495" lon="6.77356">
        <ele>312.5</ele>
        <time>2025-09-13T11:23:21Z</time>
      </trkpt>
      <trkpt lat="47.49492" lon="6.77356">
        <ele>312.5</ele>
        <time>2025-09-13T11:23:22Z</time>
      </trkpt>
      <trkpt lat="47.49484" lon="6.77356">
        <ele>312.5</ele>
        <time>2025-09-13T11:23:23Z</time>
      </trkpt>
      <trkpt lat="47.49476" lon="6.77355">
        <ele>312.6</ele>
        <time>2025-09-13T11:23:24Z</time>
      </trkpt>
      <trkpt lat="47.49468" lon="6.77354">
        <ele>312.6</ele>
        <time>2025-09-13T11:23:25Z</time>
      </trkpt>
      <trkpt lat="47.4946" lon="6.77353">
        <ele>312.6</ele>
        <time>2025-09-13T11:23:26Z</time>
      </trkpt>
      <trkpt lat="47.49452" lon="6.77353">
        <ele>312.6</ele>
        <time>2025-09-13T11:23:27Z</time>
      </trkpt>
      <trkpt lat="47.49444" lon="6.77352">
        <ele>312.5</ele>
        <time>2025-09-13T11:23:28Z</time>
      </trkpt>
      <trkpt lat="47.49436" lon="6.77351">
        <ele>312.5</ele>
        <time>2025-09-13T11:23:29Z</time>
      </trkpt>
      <trkpt lat="47.49428" lon="6.7735">
        <ele>312.5</ele>
        <time>2025-09-13T11:23:30Z</time>
      </trkpt>
      <trkpt lat="47.49421" lon="6.7735">
        <ele>312.5</ele>
        <time>2025-09-13T11:23:31Z</time>
      </trkpt>
      <trkpt lat="47.49413" lon="6.77349">
        <ele>312.5</ele>
        <time>2025-09-13T11:23:32Z</time>
      </trkpt>
      <trkpt lat="47.49404" lon="6.77349">
        <ele>312.5</ele>
        <time>2025-09-13T11:23:33Z</time>
      </trkpt>
      <trkpt lat="47.49396" lon="6.77349">
        <ele>312.5</ele>
        <time>2025-09-13T11:23:34Z</time>
      </trkpt>
      <trkpt lat="47.49388" lon="6.77348">
        <ele>312.5</ele>
        <time>2025-09-13T11:23:35Z</time>
      </trkpt>
      <trkpt lat="47.49382" lon="6.77347">
        <ele>312.5</ele>
        <time>2025-09-13T11:23:36Z</time>
      </trkpt>
      <trkpt lat="47.49374" lon="6.77347">
        <ele>312.4</ele>
        <time>2025-09-13T11:23:37Z</time>
      </trkpt>
      <trkpt lat="47.49366" lon="6.77347">
        <ele>312.4</ele>
        <time>2025-09-13T11:23:38Z</time>
      </trkpt>
      <trkpt lat="47.49358" lon="6.77346">
        <ele>312.4</ele>
        <time>2025-09-13T11:23:39Z</time>
      </trkpt>
      <trkpt lat="47.4935" lon="6.77345">
        <ele>312.4</ele>
        <time>2025-09-13T11:23:41Z</time>
      </trkpt>
      <trkpt lat="47.49342" lon="6.77345">
        <ele>312.3</ele>
        <time>2025-09-13T11:23:42Z</time>
      </trkpt>
      <trkpt lat="47.49335" lon="6.77343">
        <ele>312.3</ele>
        <time>2025-09-13T11:23:43Z</time>
      </trkpt>
      <trkpt lat="47.49328" lon="6.77338">
        <ele>312.1</ele>
        <time>2025-09-13T11:23:44Z</time>
      </trkpt>
      <trkpt lat="47.49322" lon="6.77331">
        <ele>312</ele>
        <time>2025-09-13T11:23:45Z</time>
      </trkpt>
      <trkpt lat="47.49315" lon="6.77327">
        <ele>311.8</ele>
        <time>2025-09-13T11:23:46Z</time>
      </trkpt>
      <trkpt lat="47.49306" lon="6.77326">
        <ele>311.7</ele>
        <time>2025-09-13T11:23:47Z</time>
      </trkpt>
      <trkpt lat="47.49298" lon="6.77326">
        <ele>311.7</ele>
        <time>2025-09-13T11:23:48Z</time>
      </trkpt>
      <trkpt lat="47.49288" lon="6.77327">
        <ele>311.7</ele>
        <time>2025-09-13T11:23:49Z</time>
      </trkpt>
      <trkpt lat="47.4928" lon="6.77326">
        <ele>311.8</ele>
        <time>2025-09-13T11:23:50Z</time>
      </trkpt>
      <trkpt lat="47.49272" lon="6.77325">
        <ele>311.9</ele>
        <time>2025-09-13T11:23:51Z</time>
      </trkpt>
      <trkpt lat="47.49265" lon="6.77325">
        <ele>311.9</ele>
        <time>2025-09-13T11:23:52Z</time>
      </trkpt>
      <trkpt lat="47.49258" lon="6.77328">
        <ele>312</ele>
        <time>2025-09-13T11:23:53Z</time>
      </trkpt>
      <trkpt lat="47.49251" lon="6.77332">
        <ele>312.1</ele>
        <time>2025-09-13T11:23:54Z</time>
      </trkpt>
      <trkpt lat="47.49244" lon="6.77336">
        <ele>312.2</ele>
        <time>2025-09-13T11:23:55Z</time>
      </trkpt>
      <trkpt lat="47.49238" lon="6.77338">
        <ele>312.3</ele>
        <time>2025-09-13T11:23:56Z</time>
      </trkpt>
      <trkpt lat="47.49232" lon="6.77339">
        <ele>312.3</ele>
        <time>2025-09-13T11:23:57Z</time>
      </trkpt>
      <trkpt lat="47.49225" lon="6.77337">
        <ele>312.4</ele>
        <time>2025-09-13T11:23:58Z</time>
      </trkpt>
      <trkpt lat="47.49219" lon="6.77337">
        <ele>312.4</ele>
        <time>2025-09-13T11:23:59Z</time>
      </trkpt>
      <trkpt lat="47.49211" lon="6.77336">
        <ele>312.5</ele>
        <time>2025-09-13T11:24:00Z</time>
      </trkpt>
      <trkpt lat="47.49205" lon="6.77335">
        <ele>312.5</ele>
        <time>2025-09-13T11:24:01Z</time>
      </trkpt>
      <trkpt lat="47.49199" lon="6.77334">
        <ele>312.6</ele>
        <time>2025-09-13T11:24:02Z</time>
      </trkpt>
      <trkpt lat="47.49194" lon="6.77331">
        <ele>312.6</ele>
        <time>2025-09-13T11:24:03Z</time>
      </trkpt>
      <trkpt lat="47.49188" lon="6.77328">
        <ele>312.6</ele>
        <time>2025-09-13T11:24:04Z</time>
      </trkpt>
      <trkpt lat="47.49184" lon="6.77326">
        <ele>312.6</ele>
        <time>2025-09-13T11:24:05Z</time>
      </trkpt>
      <trkpt lat="47.49181" lon="6.77322">
        <ele>312.6</ele>
        <time>2025-09-13T11:24:06Z</time>
      </trkpt>
      <trkpt lat="47.49181" lon="6.77313">
        <ele>312.4</ele>
        <time>2025-09-13T11:24:07Z</time>
      </trkpt>
      <trkpt lat="47.49183" lon="6.77304">
        <ele>312.3</ele>
        <time>2025-09-13T11:24:08Z</time>
      </trkpt>
      <trkpt lat="47.49184" lon="6.77295">
        <ele>312.2</ele>
        <time>2025-09-13T11:24:09Z</time>
      </trkpt>
      <trkpt lat="47.49184" lon="6.77287">
        <ele>312.2</ele>
        <time>2025-09-13T11:24:10Z</time>
      </trkpt>
      <trkpt lat="47.49184" lon="6.77279">
        <ele>312.2</ele>
        <time>2025-09-13T11:24:11Z</time>
      </trkpt>
      <trkpt lat="47.49185" lon="6.77271">
        <ele>312.3</ele>
        <time>2025-09-13T11:24:12Z</time>
      </trkpt>
      <trkpt lat="47.49185" lon="6.77264">
        <ele>312.4</ele>
        <time>2025-09-13T11:24:13Z</time>
      </trkpt>
      <trkpt lat="47.49186" lon="6.77256">
        <ele>312.5</ele>
        <time>2025-09-13T11:24:14Z</time>
      </trkpt>
      <trkpt lat="47.49187" lon="6.77249">
        <ele>312.6</ele>
        <time>2025-09-13T11:24:15Z</time>
      </trkpt>
      <trkpt lat="47.49188" lon="6.77243">
        <ele>312.7</ele>
        <time>2025-09-13T11:24:16Z</time>
      </trkpt>
      <trkpt lat="47.49188" lon="6.77238">
        <ele>312.8</ele>
        <time>2025-09-13T11:24:17Z</time>
      </trkpt>
      <trkpt lat="47.49189" lon="6.77232">
        <ele>312.8</ele>
        <time>2025-09-13T11:24:18Z</time>
      </trkpt>
      <trkpt lat="47.49189" lon="6.77227">
        <ele>312.8</ele>
        <time>2025-09-13T11:24:19Z</time>
      </trkpt>
      <trkpt lat="47.4919" lon="6.77222">
        <ele>312.9</ele>
        <time>2025-09-13T11:24:20Z</time>
      </trkpt>
      <trkpt lat="47.4919" lon="6.77216">
        <ele>312.9</ele>
        <time>2025-09-13T11:24:21Z</time>
      </trkpt>
      <trkpt lat="47.4919" lon="6.7721">
        <ele>312.9</ele>
        <time>2025-09-13T11:24:22Z</time>
      </trkpt>
      <trkpt lat="47.4919" lon="6.77203">
        <ele>313</ele>
        <time>2025-09-13T11:24:23Z</time>
      </trkpt>
      <trkpt lat="47.49191" lon="6.77195">
        <ele>313</ele>
        <time>2025-09-13T11:24:24Z</time>
      </trkpt>
      <trkpt lat="47.4919" lon="6.77188">
        <ele>313.1</ele>
        <time>2025-09-13T11:24:25Z</time>
      </trkpt>
      <trkpt lat="47.4919" lon="6.77179">
        <ele>313.1</ele>
        <time>2025-09-13T11:24:26Z</time>
      </trkpt>
      <trkpt lat="47.49189" lon="6.77172">
        <ele>313.1</ele>
        <time>2025-09-13T11:24:27Z</time>
      </trkpt>
      <trkpt lat="47.49189" lon="6.77164">
        <ele>313.1</ele>
        <time>2025-09-13T11:24:28Z</time>
      </trkpt>
      <trkpt lat="47.49188" lon="6.77158">
        <ele>313.2</ele>
        <time>2025-09-13T11:24:29Z</time>
      </trkpt>
      <trkpt lat="47.49188" lon="6.77151">
        <ele>313.2</ele>
        <time>2025-09-13T11:24:30Z</time>
      </trkpt>
      <trkpt lat="47.49185" lon="6.77149">
        <ele>313.2</ele>
        <time>2025-09-13T11:24:31Z</time>
      </trkpt>
      <trkpt lat="47.49185" lon="6.77149">
        <ele>313.2</ele>
        <time>2025-09-13T11:24:32Z</time>
      </trkpt>
      <trkpt lat="47.49185" lon="6.7715">
        <ele>313.2</ele>
        <time>2025-09-13T11:24:33Z</time>
      </trkpt>
      <trkpt lat="47.49186" lon="6.77151">
        <ele>313.2</ele>
        <time>2025-09-13T11:24:34Z</time>
      </trkpt>
      <trkpt lat="47.49186" lon="6.77151">
        <ele>313.2</ele>
        <time>2025-09-13T11:24:35Z</time>
      </trkpt>
      <trkpt lat="47.49186" lon="6.77151">
        <ele>313.2</ele>
        <time>2025-09-13T11:24:36Z</time>
      </trkpt>
      <trkpt lat="47.49187" lon="6.77152">
        <ele>313.2</ele>
        <time>2025-09-13T11:24:37Z</time>
      </trkpt>
      <trkpt lat="47.49187" lon="6.77152">
        <ele>313.2</ele>
        <time>2025-09-13T11:24:38Z</time>
      </trkpt>
      <trkpt lat="47.49187" lon="6.77152">
        <ele>313.2</ele>
        <time>2025-09-13T11:24:39Z</time>
      </trkpt>
      <trkpt lat="47.49187" lon="6.77152">
        <ele>313.2</ele>
        <time>2025-09-13T11:24:40Z</time>
      </trkpt>
      <trkpt lat="47.49187" lon="6.77152">
        <ele>313.2</ele>
        <time>2025-09-13T11:24:41Z</time>
      </trkpt>
      <trkpt lat="47.49187" lon="6.77151">
        <ele>313.2</ele>
        <time>2025-09-13T11:24:42Z</time>
      </trkpt>
      <trkpt lat="47.49186" lon="6.77148">
        <ele>313.2</ele>
        <time>2025-09-13T11:24:43Z</time>
      </trkpt>
      <trkpt lat="47.49185" lon="6.77143">
        <ele>313.2</ele>
        <time>2025-09-13T11:24:44Z</time>
      </trkpt>
      <trkpt lat="47.49184" lon="6.77138">
        <ele>313.2</ele>
        <time>2025-09-13T11:24:45Z</time>
      </trkpt>
      <trkpt lat="47.49183" lon="6.77132">
        <ele>313.3</ele>
        <time>2025-09-13T11:24:46Z</time>
      </trkpt>
      <trkpt lat="47.49182" lon="6.77125">
        <ele>313.2</ele>
        <time>2025-09-13T11:24:47Z</time>
      </trkpt>
      <trkpt lat="47.49181" lon="6.77118">
        <ele>313.2</ele>
        <time>2025-09-13T11:24:48Z</time>
      </trkpt>
      <trkpt lat="47.4918" lon="6.77112">
        <ele>313.2</ele>
        <time>2025-09-13T11:24:49Z</time>
      </trkpt>
      <trkpt lat="47.49178" lon="6.77106">
        <ele>313.1</ele>
        <time>2025-09-13T11:24:50Z</time>
      </trkpt>
      <trkpt lat="47.49177" lon="6.77099">
        <ele>313.1</ele>
        <time>2025-09-13T11:24:51Z</time>
      </trkpt>
      <trkpt lat="47.49175" lon="6.77092">
        <ele>313.1</ele>
        <time>2025-09-13T11:24:52Z</time>
      </trkpt>
      <trkpt lat="47.49174" lon="6.77085">
        <ele>313.1</ele>
        <time>2025-09-13T11:24:53Z</time>
      </trkpt>
      <trkpt lat="47.49172" lon="6.77079">
        <ele>313.1</ele>
        <time>2025-09-13T11:24:54Z</time>
      </trkpt>
      <trkpt lat="47.49171" lon="6.77072">
        <ele>313.1</ele>
        <time>2025-09-13T11:24:55Z</time>
      </trkpt>
      <trkpt lat="47.4917" lon="6.77065">
        <ele>313.1</ele>
        <time>2025-09-13T11:24:56Z</time>
      </trkpt>
      <trkpt lat="47.49169" lon="6.77056">
        <ele>313.1</ele>
        <time>2025-09-13T11:24:57Z</time>
      </trkpt>
      <trkpt lat="47.49168" lon="6.77048">
        <ele>313.1</ele>
        <time>2025-09-13T11:24:58Z</time>
      </trkpt>
      <trkpt lat="47.49168" lon="6.77039">
        <ele>313.2</ele>
        <time>2025-09-13T11:24:59Z</time>
      </trkpt>
      <trkpt lat="47.49166" lon="6.77032">
        <ele>313.2</ele>
        <time>2025-09-13T11:25:00Z</time>
      </trkpt>
      <trkpt lat="47.49163" lon="6.77018">
        <ele>313.3</ele>
        <time>2025-09-13T11:25:01Z</time>
      </trkpt>
      <trkpt lat="47.49161" lon="6.77012">
        <ele>313.4</ele>
        <time>2025-09-13T11:25:02Z</time>
      </trkpt>
      <trkpt lat="47.49159" lon="6.77005">
        <ele>313.4</ele>
        <time>2025-09-13T11:25:03Z</time>
      </trkpt>
      <trkpt lat="47.49155" lon="6.76999">
        <ele>313.4</ele>
        <time>2025-09-13T11:25:04Z</time>
      </trkpt>
      <trkpt lat="47.49152" lon="6.76994">
        <ele>313.4</ele>
        <time>2025-09-13T11:25:05Z</time>
      </trkpt>
      <trkpt lat="47.49149" lon="6.76989">
        <ele>313.5</ele>
        <time>2025-09-13T11:25:06Z</time>
      </trkpt>
      <trkpt lat="47.49147" lon="6.76982">
        <ele>313.5</ele>
        <time>2025-09-13T11:25:07Z</time>
      </trkpt>
      <trkpt lat="47.49147" lon="6.76974">
        <ele>313.5</ele>
        <time>2025-09-13T11:25:08Z</time>
      </trkpt>
      <trkpt lat="47.49148" lon="6.76966">
        <ele>313.6</ele>
        <time>2025-09-13T11:25:09Z</time>
      </trkpt>
      <trkpt lat="47.49148" lon="6.7696">
        <ele>313.6</ele>
        <time>2025-09-13T11:25:10Z</time>
      </trkpt>
      <trkpt lat="47.49148" lon="6.76954">
        <ele>313.6</ele>
        <time>2025-09-13T11:25:11Z</time>
      </trkpt>
      <trkpt lat="47.49148" lon="6.76949">
        <ele>313.6</ele>
        <time>2025-09-13T11:25:12Z</time>
      </trkpt>
      <trkpt lat="47.49149" lon="6.76943">
        <ele>313.6</ele>
        <time>2025-09-13T11:25:13Z</time>
      </trkpt>
      <trkpt lat="47.49147" lon="6.76937">
        <ele>313.6</ele>
        <time>2025-09-13T11:25:14Z</time>
      </trkpt>
      <trkpt lat="47.4915" lon="6.76925">
        <ele>313.7</ele>
        <time>2025-09-13T11:25:15Z</time>
      </trkpt>
      <trkpt lat="47.4915" lon="6.76917">
        <ele>313.7</ele>
        <time>2025-09-13T11:25:16Z</time>
      </trkpt>
      <trkpt lat="47.4915" lon="6.76911">
        <ele>313.7</ele>
        <time>2025-09-13T11:25:17Z</time>
      </trkpt>
      <trkpt lat="47.4915" lon="6.76903">
        <ele>313.7</ele>
        <time>2025-09-13T11:25:18Z</time>
      </trkpt>
      <trkpt lat="47.4915" lon="6.76896">
        <ele>313.7</ele>
        <time>2025-09-13T11:25:19Z</time>
      </trkpt>
      <trkpt lat="47.49149" lon="6.76888">
        <ele>313.7</ele>
        <time>2025-09-13T11:25:20Z</time>
      </trkpt>
      <trkpt lat="47.49151" lon="6.76881">
        <ele>313.7</ele>
        <time>2025-09-13T11:25:21Z</time>
      </trkpt>
      <trkpt lat="47.49151" lon="6.76873">
        <ele>313.7</ele>
        <time>2025-09-13T11:25:22Z</time>
      </trkpt>
      <trkpt lat="47.4915" lon="6.76867">
        <ele>313.8</ele>
        <time>2025-09-13T11:25:23Z</time>
      </trkpt>
      <trkpt lat="47.4915" lon="6.76859">
        <ele>313.8</ele>
        <time>2025-09-13T11:25:24Z</time>
      </trkpt>
      <trkpt lat="47.49151" lon="6.76851">
        <ele>313.8</ele>
        <time>2025-09-13T11:25:25Z</time>
      </trkpt>
      <trkpt lat="47.49152" lon="6.76842">
        <ele>313.8</ele>
        <time>2025-09-13T11:25:26Z</time>
      </trkpt>
      <trkpt lat="47.49152" lon="6.76835">
        <ele>313.9</ele>
        <time>2025-09-13T11:25:27Z</time>
      </trkpt>
      <trkpt lat="47.49152" lon="6.76827">
        <ele>313.9</ele>
        <time>2025-09-13T11:25:28Z</time>
      </trkpt>
      <trkpt lat="47.49152" lon="6.76819">
        <ele>314</ele>
        <time>2025-09-13T11:25:29Z</time>
      </trkpt>
      <trkpt lat="47.4915" lon="6.76812">
        <ele>314.1</ele>
        <time>2025-09-13T11:25:30Z</time>
      </trkpt>
      <trkpt lat="47.4915" lon="6.76805">
        <ele>314.1</ele>
        <time>2025-09-13T11:25:31Z</time>
      </trkpt>
      <trkpt lat="47.49149" lon="6.76798">
        <ele>314.1</ele>
        <time>2025-09-13T11:25:32Z</time>
      </trkpt>
      <trkpt lat="47.49149" lon="6.7679">
        <ele>314.2</ele>
        <time>2025-09-13T11:25:33Z</time>
      </trkpt>
      <trkpt lat="47.49147" lon="6.76783">
        <ele>314.2</ele>
        <time>2025-09-13T11:25:34Z</time>
      </trkpt>
      <trkpt lat="47.49147" lon="6.76775">
        <ele>314.2</ele>
        <time>2025-09-13T11:25:35Z</time>
      </trkpt>
      <trkpt lat="47.49147" lon="6.76769">
        <ele>314.2</ele>
        <time>2025-09-13T11:25:36Z</time>
      </trkpt>
      <trkpt lat="47.49146" lon="6.76761">
        <ele>314.2</ele>
        <time>2025-09-13T11:25:37Z</time>
      </trkpt>
      <trkpt lat="47.49145" lon="6.76753">
        <ele>314.2</ele>
        <time>2025-09-13T11:25:38Z</time>
      </trkpt>
      <trkpt lat="47.49143" lon="6.76745">
        <ele>314.3</ele>
        <time>2025-09-13T11:25:39Z</time>
      </trkpt>
      <trkpt lat="47.49143" lon="6.76737">
        <ele>314.3</ele>
        <time>2025-09-13T11:25:40Z</time>
      </trkpt>
      <trkpt lat="47.49143" lon="6.76729">
        <ele>314.3</ele>
        <time>2025-09-13T11:25:41Z</time>
      </trkpt>
      <trkpt lat="47.49142" lon="6.7672">
        <ele>314.3</ele>
        <time>2025-09-13T11:25:42Z</time>
      </trkpt>
      <trkpt lat="47.49141" lon="6.76712">
        <ele>314.4</ele>
        <time>2025-09-13T11:25:43Z</time>
      </trkpt>
      <trkpt lat="47.49141" lon="6.76704">
        <ele>314.4</ele>
        <time>2025-09-13T11:25:44Z</time>
      </trkpt>
      <trkpt lat="47.4914" lon="6.76696">
        <ele>314.4</ele>
        <time>2025-09-13T11:25:45Z</time>
      </trkpt>
      <trkpt lat="47.49141" lon="6.76689">
        <ele>314.4</ele>
        <time>2025-09-13T11:25:47Z</time>
      </trkpt>
      <trkpt lat="47.4914" lon="6.76683">
        <ele>314.4</ele>
        <time>2025-09-13T11:25:48Z</time>
      </trkpt>
      <trkpt lat="47.49141" lon="6.76674">
        <ele>314.4</ele>
        <time>2025-09-13T11:25:49Z</time>
      </trkpt>
      <trkpt lat="47.49138" lon="6.76666">
        <ele>314.4</ele>
        <time>2025-09-13T11:25:50Z</time>
      </trkpt>
      <trkpt lat="47.49139" lon="6.76671">
        <ele>314.4</ele>
        <time>2025-09-13T11:25:51Z</time>
      </trkpt>
      <trkpt lat="47.49136" lon="6.76665">
        <ele>314.4</ele>
        <time>2025-09-13T11:25:52Z</time>
      </trkpt>
      <trkpt lat="47.49137" lon="6.7666">
        <ele>314.4</ele>
        <time>2025-09-13T11:25:53Z</time>
      </trkpt>
      <trkpt lat="47.49138" lon="6.76657">
        <ele>314.5</ele>
        <time>2025-09-13T11:25:54Z</time>
      </trkpt>
      <trkpt lat="47.49136" lon="6.76651">
        <ele>314.5</ele>
        <time>2025-09-13T11:25:55Z</time>
      </trkpt>
      <trkpt lat="47.49136" lon="6.76647">
        <ele>314.5</ele>
        <time>2025-09-13T11:25:56Z</time>
      </trkpt>
      <trkpt lat="47.49132" lon="6.7664">
        <ele>314.6</ele>
        <time>2025-09-13T11:25:57Z</time>
      </trkpt>
      <trkpt lat="47.49129" lon="6.76637">
        <ele>314.6</ele>
        <time>2025-09-13T11:25:58Z</time>
      </trkpt>
      <trkpt lat="47.49129" lon="6.76631">
        <ele>314.6</ele>
        <time>2025-09-13T11:25:59Z</time>
      </trkpt>
      <trkpt lat="47.49127" lon="6.76626">
        <ele>314.7</ele>
        <time>2025-09-13T11:26:00Z</time>
      </trkpt>
      <trkpt lat="47.49128" lon="6.7662">
        <ele>314.7</ele>
        <time>2025-09-13T11:26:01Z</time>
      </trkpt>
      <trkpt lat="47.49126" lon="6.76609">
        <ele>314.7</ele>
        <time>2025-09-13T11:26:02Z</time>
      </trkpt>
      <trkpt lat="47.49126" lon="6.76596">
        <ele>314.8</ele>
        <time>2025-09-13T11:26:03Z</time>
      </trkpt>
      <trkpt lat="47.49121" lon="6.76579">
        <ele>314.9</ele>
        <time>2025-09-13T11:26:04Z</time>
      </trkpt>
      <trkpt lat="47.49119" lon="6.76564">
        <ele>315</ele>
        <time>2025-09-13T11:26:05Z</time>
      </trkpt>
      <trkpt lat="47.49119" lon="6.76553">
        <ele>315</ele>
        <time>2025-09-13T11:26:06Z</time>
      </trkpt>
      <trkpt lat="47.4912" lon="6.76543">
        <ele>315.1</ele>
        <time>2025-09-13T11:26:07Z</time>
      </trkpt>
      <trkpt lat="47.4912" lon="6.76532">
        <ele>315.2</ele>
        <time>2025-09-13T11:26:08Z</time>
      </trkpt>
      <trkpt lat="47.49119" lon="6.76523">
        <ele>315.3</ele>
        <time>2025-09-13T11:26:09Z</time>
      </trkpt>
      <trkpt lat="47.4912" lon="6.76513">
        <ele>315.5</ele>
        <time>2025-09-13T11:26:10Z</time>
      </trkpt>
      <trkpt lat="47.4912" lon="6.76506">
        <ele>315.6</ele>
        <time>2025-09-13T11:26:11Z</time>
      </trkpt>
      <trkpt lat="47.49121" lon="6.76497">
        <ele>315.7</ele>
        <time>2025-09-13T11:26:12Z</time>
      </trkpt>
      <trkpt lat="47.49121" lon="6.76489">
        <ele>315.8</ele>
        <time>2025-09-13T11:26:13Z</time>
      </trkpt>
      <trkpt lat="47.49121" lon="6.76482">
        <ele>315.9</ele>
        <time>2025-09-13T11:26:14Z</time>
      </trkpt>
      <trkpt lat="47.49121" lon="6.76475">
        <ele>316.1</ele>
        <time>2025-09-13T11:26:15Z</time>
      </trkpt>
      <trkpt lat="47.49121" lon="6.76467">
        <ele>316.2</ele>
        <time>2025-09-13T11:26:16Z</time>
      </trkpt>
      <trkpt lat="47.49123" lon="6.7645">
        <ele>316.4</ele>
        <time>2025-09-13T11:26:17Z</time>
      </trkpt>
      <trkpt lat="47.49124" lon="6.76442">
        <ele>316.5</ele>
        <time>2025-09-13T11:26:18Z</time>
      </trkpt>
      <trkpt lat="47.49124" lon="6.76434">
        <ele>316.6</ele>
        <time>2025-09-13T11:26:19Z</time>
      </trkpt>
      <trkpt lat="47.49125" lon="6.76425">
        <ele>316.6</ele>
        <time>2025-09-13T11:26:20Z</time>
      </trkpt>
      <trkpt lat="47.49124" lon="6.7642">
        <ele>316.6</ele>
        <time>2025-09-13T11:26:21Z</time>
      </trkpt>
      <trkpt lat="47.49124" lon="6.76415">
        <ele>316.6</ele>
        <time>2025-09-13T11:26:22Z</time>
      </trkpt>
      <trkpt lat="47.49124" lon="6.76414">
        <ele>316.6</ele>
        <time>2025-09-13T11:26:23Z</time>
      </trkpt>
      <trkpt lat="47.49124" lon="6.7641">
        <ele>316.6</ele>
        <time>2025-09-13T11:26:24Z</time>
      </trkpt>
      <trkpt lat="47.49125" lon="6.764">
        <ele>316.6</ele>
        <time>2025-09-13T11:26:25Z</time>
      </trkpt>
      <trkpt lat="47.49126" lon="6.76393">
        <ele>316.7</ele>
        <time>2025-09-13T11:26:26Z</time>
      </trkpt>
      <trkpt lat="47.49124" lon="6.76389">
        <ele>316.7</ele>
        <time>2025-09-13T11:26:27Z</time>
      </trkpt>
      <trkpt lat="47.49125" lon="6.76377">
        <ele>316.7</ele>
        <time>2025-09-13T11:26:28Z</time>
      </trkpt>
      <trkpt lat="47.49125" lon="6.76368">
        <ele>316.7</ele>
        <time>2025-09-13T11:26:29Z</time>
      </trkpt>
      <trkpt lat="47.49125" lon="6.76358">
        <ele>316.7</ele>
        <time>2025-09-13T11:26:30Z</time>
      </trkpt>
      <trkpt lat="47.49125" lon="6.76345">
        <ele>316.7</ele>
        <time>2025-09-13T11:26:31Z</time>
      </trkpt>
      <trkpt lat="47.49125" lon="6.76335">
        <ele>316.7</ele>
        <time>2025-09-13T11:26:32Z</time>
      </trkpt>
      <trkpt lat="47.49125" lon="6.76326">
        <ele>316.7</ele>
        <time>2025-09-13T11:26:33Z</time>
      </trkpt>
      <trkpt lat="47.49125" lon="6.76316">
        <ele>316.8</ele>
        <time>2025-09-13T11:26:34Z</time>
      </trkpt>
      <trkpt lat="47.49126" lon="6.76308">
        <ele>316.8</ele>
        <time>2025-09-13T11:26:35Z</time>
      </trkpt>
      <trkpt lat="47.49126" lon="6.763">
        <ele>316.8</ele>
        <time>2025-09-13T11:26:36Z</time>
      </trkpt>
      <trkpt lat="47.49127" lon="6.76287">
        <ele>316.9</ele>
        <time>2025-09-13T11:26:37Z</time>
      </trkpt>
      <trkpt lat="47.49126" lon="6.76277">
        <ele>316.9</ele>
        <time>2025-09-13T11:26:38Z</time>
      </trkpt>
      <trkpt lat="47.49128" lon="6.76267">
        <ele>316.9</ele>
        <time>2025-09-13T11:26:39Z</time>
      </trkpt>
      <trkpt lat="47.49127" lon="6.7626">
        <ele>316.9</ele>
        <time>2025-09-13T11:26:40Z</time>
      </trkpt>
      <trkpt lat="47.49127" lon="6.76252">
        <ele>317</ele>
        <time>2025-09-13T11:26:41Z</time>
      </trkpt>
      <trkpt lat="47.49126" lon="6.76244">
        <ele>317</ele>
        <time>2025-09-13T11:26:42Z</time>
      </trkpt>
      <trkpt lat="47.49126" lon="6.76235">
        <ele>317.1</ele>
        <time>2025-09-13T11:26:43Z</time>
      </trkpt>
      <trkpt lat="47.49127" lon="6.76227">
        <ele>317.1</ele>
        <time>2025-09-13T11:26:44Z</time>
      </trkpt>
      <trkpt lat="47.49127" lon="6.76219">
        <ele>317.2</ele>
        <time>2025-09-13T11:26:45Z</time>
      </trkpt>
      <trkpt lat="47.49127" lon="6.76212">
        <ele>317.2</ele>
        <time>2025-09-13T11:26:46Z</time>
      </trkpt>
      <trkpt lat="47.49129" lon="6.76206">
        <ele>317.3</ele>
        <time>2025-09-13T11:26:47Z</time>
      </trkpt>
      <trkpt lat="47.49133" lon="6.76203">
        <ele>317.8</ele>
        <time>2025-09-13T11:26:48Z</time>
      </trkpt>
      <trkpt lat="47.49139" lon="6.76205">
        <ele>317.9</ele>
        <time>2025-09-13T11:26:49Z</time>
      </trkpt>
      <trkpt lat="47.49143" lon="6.7621">
        <ele>317.9</ele>
        <time>2025-09-13T11:26:50Z</time>
      </trkpt>
      <trkpt lat="47.49147" lon="6.76215">
        <ele>317.9</ele>
        <time>2025-09-13T11:26:51Z</time>
      </trkpt>
      <trkpt lat="47.49152" lon="6.76219">
        <ele>318</ele>
        <time>2025-09-13T11:26:52Z</time>
      </trkpt>
      <trkpt lat="47.49158" lon="6.76221">
        <ele>318</ele>
        <time>2025-09-13T11:26:53Z</time>
      </trkpt>
      <trkpt lat="47.49164" lon="6.76222">
        <ele>318</ele>
        <time>2025-09-13T11:26:54Z</time>
      </trkpt>
      <trkpt lat="47.49171" lon="6.76221">
        <ele>318.1</ele>
        <time>2025-09-13T11:26:55Z</time>
      </trkpt>
      <trkpt lat="47.49178" lon="6.7622">
        <ele>318.1</ele>
        <time>2025-09-13T11:26:56Z</time>
      </trkpt>
      <trkpt lat="47.49185" lon="6.76218">
        <ele>318.2</ele>
        <time>2025-09-13T11:26:57Z</time>
      </trkpt>
      <trkpt lat="47.49192" lon="6.76217">
        <ele>318.2</ele>
        <time>2025-09-13T11:26:58Z</time>
      </trkpt>
      <trkpt lat="47.49198" lon="6.76217">
        <ele>318.3</ele>
        <time>2025-09-13T11:26:59Z</time>
      </trkpt>
      <trkpt lat="47.49204" lon="6.76217">
        <ele>318.4</ele>
        <time>2025-09-13T11:27:00Z</time>
      </trkpt>
      <trkpt lat="47.4921" lon="6.76217">
        <ele>318.4</ele>
        <time>2025-09-13T11:27:01Z</time>
      </trkpt>
      <trkpt lat="47.49215" lon="6.76217">
        <ele>318.5</ele>
        <time>2025-09-13T11:27:02Z</time>
      </trkpt>
      <trkpt lat="47.4922" lon="6.76218">
        <ele>318.6</ele>
        <time>2025-09-13T11:27:03Z</time>
      </trkpt>
      <trkpt lat="47.49224" lon="6.7622">
        <ele>318.7</ele>
        <time>2025-09-13T11:27:04Z</time>
      </trkpt>
      <trkpt lat="47.49226" lon="6.76224">
        <ele>318.8</ele>
        <time>2025-09-13T11:27:05Z</time>
      </trkpt>
      <trkpt lat="47.49226" lon="6.76227">
        <ele>318.8</ele>
        <time>2025-09-13T11:27:06Z</time>
      </trkpt>
      <trkpt lat="47.49225" lon="6.76227">
        <ele>318.8</ele>
        <time>2025-09-13T11:27:07Z</time>
      </trkpt>
      <trkpt lat="47.49224" lon="6.76227">
        <ele>318.8</ele>
        <time>2025-09-13T11:27:08Z</time>
      </trkpt>
      <trkpt lat="47.49225" lon="6.76228">
        <ele>318.9</ele>
        <time>2025-09-13T11:27:09Z</time>
      </trkpt>
      <trkpt lat="47.49226" lon="6.76228">
        <ele>318.9</ele>
        <time>2025-09-13T11:27:10Z</time>
      </trkpt>
      <trkpt lat="47.49227" lon="6.76229">
        <ele>318.9</ele>
        <time>2025-09-13T11:27:11Z</time>
      </trkpt>
      <trkpt lat="47.49228" lon="6.7623">
        <ele>318.9</ele>
        <time>2025-09-13T11:27:12Z</time>
      </trkpt>
      <trkpt lat="47.49232" lon="6.76227">
        <ele>319</ele>
        <time>2025-09-13T11:27:13Z</time>
      </trkpt>
      <trkpt lat="47.49233" lon="6.76226">
        <ele>319</ele>
        <time>2025-09-13T11:27:14Z</time>
      </trkpt>
      <trkpt lat="47.49235" lon="6.76221">
        <ele>319</ele>
        <time>2025-09-13T11:27:15Z</time>
      </trkpt>
      <trkpt lat="47.49236" lon="6.76213">
        <ele>319</ele>
        <time>2025-09-13T11:27:16Z</time>
      </trkpt>
      <trkpt lat="47.49235" lon="6.76206">
        <ele>319</ele>
        <time>2025-09-13T11:27:17Z</time>
      </trkpt>
      <trkpt lat="47.49235" lon="6.76197">
        <ele>319</ele>
        <time>2025-09-13T11:27:18Z</time>
      </trkpt>
      <trkpt lat="47.49235" lon="6.76189">
        <ele>318.9</ele>
        <time>2025-09-13T11:27:19Z</time>
      </trkpt>
      <trkpt lat="47.49234" lon="6.76181">
        <ele>318.9</ele>
        <time>2025-09-13T11:27:20Z</time>
      </trkpt>
      <trkpt lat="47.49234" lon="6.76174">
        <ele>318.8</ele>
        <time>2025-09-13T11:27:21Z</time>
      </trkpt>
      <trkpt lat="47.49234" lon="6.76166">
        <ele>318.8</ele>
        <time>2025-09-13T11:27:22Z</time>
      </trkpt>
      <trkpt lat="47.49234" lon="6.76158">
        <ele>318.7</ele>
        <time>2025-09-13T11:27:23Z</time>
      </trkpt>
      <trkpt lat="47.49234" lon="6.7615">
        <ele>318.6</ele>
        <time>2025-09-13T11:27:24Z</time>
      </trkpt>
      <trkpt lat="47.49233" lon="6.76143">
        <ele>318.6</ele>
        <time>2025-09-13T11:27:25Z</time>
      </trkpt>
      <trkpt lat="47.49234" lon="6.76134">
        <ele>318.5</ele>
        <time>2025-09-13T11:27:26Z</time>
      </trkpt>
      <trkpt lat="47.49234" lon="6.76126">
        <ele>318.5</ele>
        <time>2025-09-13T11:27:27Z</time>
      </trkpt>
      <trkpt lat="47.49235" lon="6.76116">
        <ele>318.5</ele>
        <time>2025-09-13T11:27:28Z</time>
      </trkpt>
      <trkpt lat="47.49237" lon="6.76106">
        <ele>318.5</ele>
        <time>2025-09-13T11:27:29Z</time>
      </trkpt>
      <trkpt lat="47.49238" lon="6.76097">
        <ele>318.5</ele>
        <time>2025-09-13T11:27:30Z</time>
      </trkpt>
      <trkpt lat="47.49239" lon="6.76088">
        <ele>318.5</ele>
        <time>2025-09-13T11:27:31Z</time>
      </trkpt>
      <trkpt lat="47.49241" lon="6.76079">
        <ele>318.5</ele>
        <time>2025-09-13T11:27:32Z</time>
      </trkpt>
      <trkpt lat="47.49243" lon="6.7607">
        <ele>318.6</ele>
        <time>2025-09-13T11:27:33Z</time>
      </trkpt>
      <trkpt lat="47.49244" lon="6.76062">
        <ele>318.7</ele>
        <time>2025-09-13T11:27:34Z</time>
      </trkpt>
      <trkpt lat="47.49246" lon="6.76054">
        <ele>318.7</ele>
        <time>2025-09-13T11:27:35Z</time>
      </trkpt>
      <trkpt lat="47.49249" lon="6.76047">
        <ele>318.8</ele>
        <time>2025-09-13T11:27:36Z</time>
      </trkpt>
      <trkpt lat="47.49251" lon="6.7604">
        <ele>318.9</ele>
        <time>2025-09-13T11:27:37Z</time>
      </trkpt>
      <trkpt lat="47.49252" lon="6.76033">
        <ele>318.9</ele>
        <time>2025-09-13T11:27:38Z</time>
      </trkpt>
      <trkpt lat="47.49255" lon="6.76026">
        <ele>319</ele>
        <time>2025-09-13T11:27:39Z</time>
      </trkpt>
      <trkpt lat="47.49257" lon="6.76018">
        <ele>319.1</ele>
        <time>2025-09-13T11:27:40Z</time>
      </trkpt>
      <trkpt lat="47.49259" lon="6.76011">
        <ele>319.2</ele>
        <time>2025-09-13T11:27:41Z</time>
      </trkpt>
      <trkpt lat="47.49263" lon="6.76005">
        <ele>319.3</ele>
        <time>2025-09-13T11:27:42Z</time>
      </trkpt>
      <trkpt lat="47.49266" lon="6.75998">
        <ele>319.4</ele>
        <time>2025-09-13T11:27:43Z</time>
      </trkpt>
      <trkpt lat="47.49268" lon="6.75992">
        <ele>319.5</ele>
        <time>2025-09-13T11:27:44Z</time>
      </trkpt>
      <trkpt lat="47.4927" lon="6.75986">
        <ele>319.6</ele>
        <time>2025-09-13T11:27:45Z</time>
      </trkpt>
      <trkpt lat="47.49273" lon="6.7598">
        <ele>319.7</ele>
        <time>2025-09-13T11:27:46Z</time>
      </trkpt>
      <trkpt lat="47.49275" lon="6.75974">
        <ele>319.8</ele>
        <time>2025-09-13T11:27:47Z</time>
      </trkpt>
      <trkpt lat="47.49278" lon="6.75968">
        <ele>319.9</ele>
        <time>2025-09-13T11:27:48Z</time>
      </trkpt>
      <trkpt lat="47.49281" lon="6.75963">
        <ele>320</ele>
        <time>2025-09-13T11:27:49Z</time>
      </trkpt>
      <trkpt lat="47.49285" lon="6.75957">
        <ele>320.1</ele>
        <time>2025-09-13T11:27:50Z</time>
      </trkpt>
      <trkpt lat="47.49287" lon="6.75951">
        <ele>320.2</ele>
        <time>2025-09-13T11:27:51Z</time>
      </trkpt>
      <trkpt lat="47.4929" lon="6.75946">
        <ele>320.3</ele>
        <time>2025-09-13T11:27:53Z</time>
      </trkpt>
      <trkpt lat="47.49294" lon="6.75941">
        <ele>320.4</ele>
        <time>2025-09-13T11:27:54Z</time>
      </trkpt>
      <trkpt lat="47.49298" lon="6.75935">
        <ele>320.5</ele>
        <time>2025-09-13T11:27:55Z</time>
      </trkpt>
      <trkpt lat="47.49302" lon="6.7593">
        <ele>320.7</ele>
        <time>2025-09-13T11:27:56Z</time>
      </trkpt>
      <trkpt lat="47.49305" lon="6.75926">
        <ele>320.8</ele>
        <time>2025-09-13T11:27:57Z</time>
      </trkpt>
      <trkpt lat="47.49311" lon="6.75921">
        <ele>320.9</ele>
        <time>2025-09-13T11:27:58Z</time>
      </trkpt>
      <trkpt lat="47.49315" lon="6.75914">
        <ele>321.1</ele>
        <time>2025-09-13T11:27:59Z</time>
      </trkpt>
      <trkpt lat="47.49319" lon="6.75909">
        <ele>321.2</ele>
        <time>2025-09-13T11:28:00Z</time>
      </trkpt>
      <trkpt lat="47.49323" lon="6.75904">
        <ele>321.3</ele>
        <time>2025-09-13T11:28:01Z</time>
      </trkpt>
      <trkpt lat="47.49326" lon="6.759">
        <ele>321.4</ele>
        <time>2025-09-13T11:28:02Z</time>
      </trkpt>
      <trkpt lat="47.49329" lon="6.75895">
        <ele>321.5</ele>
        <time>2025-09-13T11:28:03Z</time>
      </trkpt>
      <trkpt lat="47.49333" lon="6.75892">
        <ele>321.6</ele>
        <time>2025-09-13T11:28:04Z</time>
      </trkpt>
      <trkpt lat="47.49337" lon="6.75886">
        <ele>321.7</ele>
        <time>2025-09-13T11:28:05Z</time>
      </trkpt>
      <trkpt lat="47.49341" lon="6.75882">
        <ele>321.8</ele>
        <time>2025-09-13T11:28:06Z</time>
      </trkpt>
      <trkpt lat="47.49345" lon="6.75877">
        <ele>321.9</ele>
        <time>2025-09-13T11:28:07Z</time>
      </trkpt>
      <trkpt lat="47.49349" lon="6.75874">
        <ele>322</ele>
        <time>2025-09-13T11:28:08Z</time>
      </trkpt>
      <trkpt lat="47.49353" lon="6.75868">
        <ele>322.1</ele>
        <time>2025-09-13T11:28:09Z</time>
      </trkpt>
      <trkpt lat="47.49356" lon="6.75863">
        <ele>322.2</ele>
        <time>2025-09-13T11:28:10Z</time>
      </trkpt>
      <trkpt lat="47.49359" lon="6.75859">
        <ele>322.3</ele>
        <time>2025-09-13T11:28:11Z</time>
      </trkpt>
      <trkpt lat="47.49363" lon="6.75854">
        <ele>322.4</ele>
        <time>2025-09-13T11:28:12Z</time>
      </trkpt>
      <trkpt lat="47.49366" lon="6.75848">
        <ele>322.5</ele>
        <time>2025-09-13T11:28:13Z</time>
      </trkpt>
      <trkpt lat="47.4937" lon="6.75844">
        <ele>322.6</ele>
        <time>2025-09-13T11:28:14Z</time>
      </trkpt>
      <trkpt lat="47.49375" lon="6.75842">
        <ele>322.8</ele>
        <time>2025-09-13T11:28:15Z</time>
      </trkpt>
      <trkpt lat="47.4938" lon="6.75841">
        <ele>323</ele>
        <time>2025-09-13T11:28:16Z</time>
      </trkpt>
      <trkpt lat="47.49385" lon="6.75841">
        <ele>323.1</ele>
        <time>2025-09-13T11:28:17Z</time>
      </trkpt>
      <trkpt lat="47.4939" lon="6.75841">
        <ele>323.3</ele>
        <time>2025-09-13T11:28:18Z</time>
      </trkpt>
      <trkpt lat="47.49394" lon="6.75839">
        <ele>323.4</ele>
        <time>2025-09-13T11:28:19Z</time>
      </trkpt>
      <trkpt lat="47.49399" lon="6.75838">
        <ele>323.5</ele>
        <time>2025-09-13T11:28:20Z</time>
      </trkpt>
      <trkpt lat="47.49403" lon="6.75836">
        <ele>323.6</ele>
        <time>2025-09-13T11:28:21Z</time>
      </trkpt>
      <trkpt lat="47.49408" lon="6.75832">
        <ele>323.7</ele>
        <time>2025-09-13T11:28:22Z</time>
      </trkpt>
      <trkpt lat="47.49412" lon="6.75829">
        <ele>323.7</ele>
        <time>2025-09-13T11:28:23Z</time>
      </trkpt>
      <trkpt lat="47.49417" lon="6.75826">
        <ele>323.7</ele>
        <time>2025-09-13T11:28:24Z</time>
      </trkpt>
      <trkpt lat="47.49422" lon="6.75824">
        <ele>323.8</ele>
        <time>2025-09-13T11:28:25Z</time>
      </trkpt>
      <trkpt lat="47.49428" lon="6.75821">
        <ele>323.8</ele>
        <time>2025-09-13T11:28:26Z</time>
      </trkpt>
      <trkpt lat="47.49434" lon="6.7582">
        <ele>323.8</ele>
        <time>2025-09-13T11:28:27Z</time>
      </trkpt>
      <trkpt lat="47.49439" lon="6.75817">
        <ele>323.8</ele>
        <time>2025-09-13T11:28:28Z</time>
      </trkpt>
      <trkpt lat="47.49444" lon="6.75814">
        <ele>323.8</ele>
        <time>2025-09-13T11:28:29Z</time>
      </trkpt>
      <trkpt lat="47.49449" lon="6.75811">
        <ele>323.8</ele>
        <time>2025-09-13T11:28:30Z</time>
      </trkpt>
      <trkpt lat="47.49454" lon="6.75809">
        <ele>323.9</ele>
        <time>2025-09-13T11:28:31Z</time>
      </trkpt>
      <trkpt lat="47.49459" lon="6.75808">
        <ele>323.9</ele>
        <time>2025-09-13T11:28:32Z</time>
      </trkpt>
      <trkpt lat="47.49465" lon="6.75806">
        <ele>323.9</ele>
        <time>2025-09-13T11:28:33Z</time>
      </trkpt>
      <trkpt lat="47.49471" lon="6.75803">
        <ele>324</ele>
        <time>2025-09-13T11:28:34Z</time>
      </trkpt>
      <trkpt lat="47.49476" lon="6.75801">
        <ele>324</ele>
        <time>2025-09-13T11:28:35Z</time>
      </trkpt>
      <trkpt lat="47.49481" lon="6.75798">
        <ele>324.1</ele>
        <time>2025-09-13T11:28:36Z</time>
      </trkpt>
      <trkpt lat="47.49487" lon="6.75795">
        <ele>324.1</ele>
        <time>2025-09-13T11:28:37Z</time>
      </trkpt>
      <trkpt lat="47.49492" lon="6.75793">
        <ele>324.2</ele>
        <time>2025-09-13T11:28:38Z</time>
      </trkpt>
      <trkpt lat="47.49498" lon="6.7579">
        <ele>324.2</ele>
        <time>2025-09-13T11:28:39Z</time>
      </trkpt>
      <trkpt lat="47.49503" lon="6.75787">
        <ele>324.2</ele>
        <time>2025-09-13T11:28:40Z</time>
      </trkpt>
      <trkpt lat="47.49508" lon="6.75785">
        <ele>324.3</ele>
        <time>2025-09-13T11:28:41Z</time>
      </trkpt>
      <trkpt lat="47.49514" lon="6.75782">
        <ele>324.2</ele>
        <time>2025-09-13T11:28:42Z</time>
      </trkpt>
      <trkpt lat="47.49525" lon="6.75775">
        <ele>324.1</ele>
        <time>2025-09-13T11:28:43Z</time>
      </trkpt>
      <trkpt lat="47.4953" lon="6.75771">
        <ele>324</ele>
        <time>2025-09-13T11:28:44Z</time>
      </trkpt>
      <trkpt lat="47.49536" lon="6.75768">
        <ele>323.9</ele>
        <time>2025-09-13T11:28:45Z</time>
      </trkpt>
      <trkpt lat="47.49541" lon="6.75764">
        <ele>323.9</ele>
        <time>2025-09-13T11:28:46Z</time>
      </trkpt>
      <trkpt lat="47.49546" lon="6.75761">
        <ele>323.8</ele>
        <time>2025-09-13T11:28:47Z</time>
      </trkpt>
      <trkpt lat="47.49551" lon="6.75757">
        <ele>323.7</ele>
        <time>2025-09-13T11:28:48Z</time>
      </trkpt>
      <trkpt lat="47.49557" lon="6.75753">
        <ele>323.6</ele>
        <time>2025-09-13T11:28:49Z</time>
      </trkpt>
      <trkpt lat="47.49562" lon="6.7575">
        <ele>323.5</ele>
        <time>2025-09-13T11:28:50Z</time>
      </trkpt>
      <trkpt lat="47.49567" lon="6.75746">
        <ele>323.4</ele>
        <time>2025-09-13T11:28:51Z</time>
      </trkpt>
      <trkpt lat="47.49572" lon="6.75741">
        <ele>323.2</ele>
        <time>2025-09-13T11:28:52Z</time>
      </trkpt>
      <trkpt lat="47.49578" lon="6.75736">
        <ele>323.1</ele>
        <time>2025-09-13T11:28:53Z</time>
      </trkpt>
      <trkpt lat="47.49584" lon="6.75731">
        <ele>322.9</ele>
        <time>2025-09-13T11:28:54Z</time>
      </trkpt>
      <trkpt lat="47.49591" lon="6.75725">
        <ele>322.7</ele>
        <time>2025-09-13T11:28:55Z</time>
      </trkpt>
      <trkpt lat="47.49598" lon="6.75718">
        <ele>322.5</ele>
        <time>2025-09-13T11:28:56Z</time>
      </trkpt>
      <trkpt lat="47.49602" lon="6.7571">
        <ele>322.4</ele>
        <time>2025-09-13T11:28:57Z</time>
      </trkpt>
      <trkpt lat="47.49607" lon="6.75703">
        <ele>322.1</ele>
        <time>2025-09-13T11:28:58Z</time>
      </trkpt>
      <trkpt lat="47.49613" lon="6.75696">
        <ele>321.7</ele>
        <time>2025-09-13T11:28:59Z</time>
      </trkpt>
      <trkpt lat="47.4962" lon="6.75685">
        <ele>321.4</ele>
        <time>2025-09-13T11:29:00Z</time>
      </trkpt>
      <trkpt lat="47.49628" lon="6.75679">
        <ele>321.2</ele>
        <time>2025-09-13T11:29:01Z</time>
      </trkpt>
      <trkpt lat="47.49634" lon="6.75673">
        <ele>321.1</ele>
        <time>2025-09-13T11:29:02Z</time>
      </trkpt>
      <trkpt lat="47.49641" lon="6.75667">
        <ele>321.1</ele>
        <time>2025-09-13T11:29:03Z</time>
      </trkpt>
      <trkpt lat="47.49648" lon="6.75662">
        <ele>321.1</ele>
        <time>2025-09-13T11:29:04Z</time>
      </trkpt>
      <trkpt lat="47.49655" lon="6.75658">
        <ele>321.1</ele>
        <time>2025-09-13T11:29:05Z</time>
      </trkpt>
      <trkpt lat="47.49661" lon="6.75654">
        <ele>321.1</ele>
        <time>2025-09-13T11:29:06Z</time>
      </trkpt>
      <trkpt lat="47.49668" lon="6.7565">
        <ele>321.1</ele>
        <time>2025-09-13T11:29:07Z</time>
      </trkpt>
      <trkpt lat="47.49674" lon="6.75647">
        <ele>321.2</ele>
        <time>2025-09-13T11:29:08Z</time>
      </trkpt>
      <trkpt lat="47.49681" lon="6.75644">
        <ele>321.3</ele>
        <time>2025-09-13T11:29:09Z</time>
      </trkpt>
      <trkpt lat="47.49687" lon="6.75642">
        <ele>321.4</ele>
        <time>2025-09-13T11:29:10Z</time>
      </trkpt>
      <trkpt lat="47.49693" lon="6.7564">
        <ele>321.4</ele>
        <time>2025-09-13T11:29:11Z</time>
      </trkpt>
      <trkpt lat="47.497" lon="6.75638">
        <ele>321.5</ele>
        <time>2025-09-13T11:29:12Z</time>
      </trkpt>
      <trkpt lat="47.49706" lon="6.75636">
        <ele>321.6</ele>
        <time>2025-09-13T11:29:13Z</time>
      </trkpt>
      <trkpt lat="47.49713" lon="6.75633">
        <ele>321.7</ele>
        <time>2025-09-13T11:29:14Z</time>
      </trkpt>
      <trkpt lat="47.49719" lon="6.75631">
        <ele>321.8</ele>
        <time>2025-09-13T11:29:15Z</time>
      </trkpt>
      <trkpt lat="47.49725" lon="6.7563">
        <ele>321.9</ele>
        <time>2025-09-13T11:29:16Z</time>
      </trkpt>
      <trkpt lat="47.49731" lon="6.75627">
        <ele>322</ele>
        <time>2025-09-13T11:29:17Z</time>
      </trkpt>
      <trkpt lat="47.49736" lon="6.75625">
        <ele>322</ele>
        <time>2025-09-13T11:29:18Z</time>
      </trkpt>
      <trkpt lat="47.49742" lon="6.75622">
        <ele>322.1</ele>
        <time>2025-09-13T11:29:19Z</time>
      </trkpt>
      <trkpt lat="47.49748" lon="6.75618">
        <ele>322.2</ele>
        <time>2025-09-13T11:29:20Z</time>
      </trkpt>
      <trkpt lat="47.49753" lon="6.75614">
        <ele>322.3</ele>
        <time>2025-09-13T11:29:21Z</time>
      </trkpt>
      <trkpt lat="47.49758" lon="6.7561">
        <ele>322.3</ele>
        <time>2025-09-13T11:29:22Z</time>
      </trkpt>
      <trkpt lat="47.49764" lon="6.75605">
        <ele>322.4</ele>
        <time>2025-09-13T11:29:23Z</time>
      </trkpt>
      <trkpt lat="47.49768" lon="6.75601">
        <ele>322.4</ele>
        <time>2025-09-13T11:29:24Z</time>
      </trkpt>
      <trkpt lat="47.49773" lon="6.75594">
        <ele>322.4</ele>
        <time>2025-09-13T11:29:25Z</time>
      </trkpt>
      <trkpt lat="47.49778" lon="6.7559">
        <ele>322.4</ele>
        <time>2025-09-13T11:29:26Z</time>
      </trkpt>
      <trkpt lat="47.49783" lon="6.75585">
        <ele>322.4</ele>
        <time>2025-09-13T11:29:27Z</time>
      </trkpt>
      <trkpt lat="47.49788" lon="6.75579">
        <ele>322.4</ele>
        <time>2025-09-13T11:29:28Z</time>
      </trkpt>
      <trkpt lat="47.49793" lon="6.75573">
        <ele>322.4</ele>
        <time>2025-09-13T11:29:29Z</time>
      </trkpt>
      <trkpt lat="47.49799" lon="6.75567">
        <ele>322.5</ele>
        <time>2025-09-13T11:29:30Z</time>
      </trkpt>
      <trkpt lat="47.49804" lon="6.75562">
        <ele>322.5</ele>
        <time>2025-09-13T11:29:31Z</time>
      </trkpt>
      <trkpt lat="47.49808" lon="6.75556">
        <ele>322.5</ele>
        <time>2025-09-13T11:29:32Z</time>
      </trkpt>
      <trkpt lat="47.49812" lon="6.7555">
        <ele>322.5</ele>
        <time>2025-09-13T11:29:33Z</time>
      </trkpt>
      <trkpt lat="47.49815" lon="6.75545">
        <ele>322.6</ele>
        <time>2025-09-13T11:29:34Z</time>
      </trkpt>
      <trkpt lat="47.49821" lon="6.7554">
        <ele>322.7</ele>
        <time>2025-09-13T11:29:35Z</time>
      </trkpt>
      <trkpt lat="47.49825" lon="6.75534">
        <ele>322.7</ele>
        <time>2025-09-13T11:29:36Z</time>
      </trkpt>
      <trkpt lat="47.49831" lon="6.7553">
        <ele>322.8</ele>
        <time>2025-09-13T11:29:37Z</time>
      </trkpt>
      <trkpt lat="47.49834" lon="6.7552">
        <ele>322.9</ele>
        <time>2025-09-13T11:29:38Z</time>
      </trkpt>
      <trkpt lat="47.49838" lon="6.75515">
        <ele>323</ele>
        <time>2025-09-13T11:29:39Z</time>
      </trkpt>
      <trkpt lat="47.49843" lon="6.75509">
        <ele>323.1</ele>
        <time>2025-09-13T11:29:40Z</time>
      </trkpt>
      <trkpt lat="47.49847" lon="6.75506">
        <ele>323.2</ele>
        <time>2025-09-13T11:29:41Z</time>
      </trkpt>
      <trkpt lat="47.49851" lon="6.755">
        <ele>323.3</ele>
        <time>2025-09-13T11:29:42Z</time>
      </trkpt>
      <trkpt lat="47.49854" lon="6.75494">
        <ele>323.4</ele>
        <time>2025-09-13T11:29:43Z</time>
      </trkpt>
      <trkpt lat="47.49859" lon="6.75489">
        <ele>323.5</ele>
        <time>2025-09-13T11:29:44Z</time>
      </trkpt>
      <trkpt lat="47.49863" lon="6.75484">
        <ele>323.7</ele>
        <time>2025-09-13T11:29:45Z</time>
      </trkpt>
      <trkpt lat="47.49866" lon="6.75478">
        <ele>323.8</ele>
        <time>2025-09-13T11:29:46Z</time>
      </trkpt>
      <trkpt lat="47.4987" lon="6.75472">
        <ele>323.9</ele>
        <time>2025-09-13T11:29:47Z</time>
      </trkpt>
      <trkpt lat="47.49873" lon="6.75466">
        <ele>324</ele>
        <time>2025-09-13T11:29:48Z</time>
      </trkpt>
      <trkpt lat="47.49877" lon="6.7546">
        <ele>324.1</ele>
        <time>2025-09-13T11:29:49Z</time>
      </trkpt>
      <trkpt lat="47.49881" lon="6.75454">
        <ele>324.2</ele>
        <time>2025-09-13T11:29:50Z</time>
      </trkpt>
      <trkpt lat="47.49884" lon="6.75449">
        <ele>324.3</ele>
        <time>2025-09-13T11:29:51Z</time>
      </trkpt>
      <trkpt lat="47.49888" lon="6.75443">
        <ele>324.4</ele>
        <time>2025-09-13T11:29:52Z</time>
      </trkpt>
      <trkpt lat="47.49892" lon="6.75437">
        <ele>324.5</ele>
        <time>2025-09-13T11:29:53Z</time>
      </trkpt>
      <trkpt lat="47.49896" lon="6.75433">
        <ele>324.6</ele>
        <time>2025-09-13T11:29:54Z</time>
      </trkpt>
      <trkpt lat="47.49901" lon="6.75428">
        <ele>324.7</ele>
        <time>2025-09-13T11:29:55Z</time>
      </trkpt>
      <trkpt lat="47.49905" lon="6.75424">
        <ele>324.8</ele>
        <time>2025-09-13T11:29:56Z</time>
      </trkpt>
      <trkpt lat="47.4991" lon="6.7542">
        <ele>324.9</ele>
        <time>2025-09-13T11:29:57Z</time>
      </trkpt>
      <trkpt lat="47.49915" lon="6.75417">
        <ele>325</ele>
        <time>2025-09-13T11:29:59Z</time>
      </trkpt>
      <trkpt lat="47.4992" lon="6.75416">
        <ele>325</ele>
        <time>2025-09-13T11:30:00Z</time>
      </trkpt>
      <trkpt lat="47.49925" lon="6.75415">
        <ele>325.1</ele>
        <time>2025-09-13T11:30:01Z</time>
      </trkpt>
      <trkpt lat="47.49931" lon="6.75415">
        <ele>325.2</ele>
        <time>2025-09-13T11:30:02Z</time>
      </trkpt>
      <trkpt lat="47.49936" lon="6.75415">
        <ele>325.2</ele>
        <time>2025-09-13T11:30:03Z</time>
      </trkpt>
      <trkpt lat="47.49941" lon="6.75416">
        <ele>325.3</ele>
        <time>2025-09-13T11:30:04Z</time>
      </trkpt>
      <trkpt lat="47.49947" lon="6.75416">
        <ele>325.3</ele>
        <time>2025-09-13T11:30:05Z</time>
      </trkpt>
      <trkpt lat="47.49952" lon="6.75416">
        <ele>325.4</ele>
        <time>2025-09-13T11:30:06Z</time>
      </trkpt>
      <trkpt lat="47.49957" lon="6.75416">
        <ele>325.4</ele>
        <time>2025-09-13T11:30:07Z</time>
      </trkpt>
      <trkpt lat="47.49962" lon="6.75415">
        <ele>325.4</ele>
        <time>2025-09-13T11:30:08Z</time>
      </trkpt>
      <trkpt lat="47.49967" lon="6.75416">
        <ele>325.4</ele>
        <time>2025-09-13T11:30:09Z</time>
      </trkpt>
      <trkpt lat="47.49973" lon="6.75415">
        <ele>325.4</ele>
        <time>2025-09-13T11:30:10Z</time>
      </trkpt>
      <trkpt lat="47.49979" lon="6.75413">
        <ele>325.4</ele>
        <time>2025-09-13T11:30:11Z</time>
      </trkpt>
      <trkpt lat="47.49984" lon="6.75411">
        <ele>325.3</ele>
        <time>2025-09-13T11:30:12Z</time>
      </trkpt>
      <trkpt lat="47.49988" lon="6.75403">
        <ele>325.2</ele>
        <time>2025-09-13T11:30:13Z</time>
      </trkpt>
      <trkpt lat="47.49993" lon="6.75399">
        <ele>325.1</ele>
        <time>2025-09-13T11:30:14Z</time>
      </trkpt>
      <trkpt lat="47.49997" lon="6.75393">
        <ele>324.9</ele>
        <time>2025-09-13T11:30:15Z</time>
      </trkpt>
      <trkpt lat="47.50002" lon="6.75386">
        <ele>324.8</ele>
        <time>2025-09-13T11:30:16Z</time>
      </trkpt>
      <trkpt lat="47.50006" lon="6.7538">
        <ele>324.7</ele>
        <time>2025-09-13T11:30:17Z</time>
      </trkpt>
      <trkpt lat="47.5001" lon="6.75372">
        <ele>324.5</ele>
        <time>2025-09-13T11:30:18Z</time>
      </trkpt>
      <trkpt lat="47.50013" lon="6.75364">
        <ele>324.4</ele>
        <time>2025-09-13T11:30:19Z</time>
      </trkpt>
      <trkpt lat="47.50015" lon="6.75356">
        <ele>324.3</ele>
        <time>2025-09-13T11:30:20Z</time>
      </trkpt>
      <trkpt lat="47.50015" lon="6.75346">
        <ele>324.1</ele>
        <time>2025-09-13T11:30:21Z</time>
      </trkpt>
      <trkpt lat="47.50015" lon="6.75334">
        <ele>324</ele>
        <time>2025-09-13T11:30:22Z</time>
      </trkpt>
      <trkpt lat="47.50014" lon="6.75324">
        <ele>323.8</ele>
        <time>2025-09-13T11:30:23Z</time>
      </trkpt>
      <trkpt lat="47.50013" lon="6.75313">
        <ele>323.7</ele>
        <time>2025-09-13T11:30:24Z</time>
      </trkpt>
      <trkpt lat="47.50013" lon="6.75302">
        <ele>323.6</ele>
        <time>2025-09-13T11:30:25Z</time>
      </trkpt>
      <trkpt lat="47.50012" lon="6.75292">
        <ele>323.5</ele>
        <time>2025-09-13T11:30:26Z</time>
      </trkpt>
      <trkpt lat="47.50012" lon="6.75282">
        <ele>323.5</ele>
        <time>2025-09-13T11:30:27Z</time>
      </trkpt>
      <trkpt lat="47.50011" lon="6.75272">
        <ele>323.4</ele>
        <time>2025-09-13T11:30:28Z</time>
      </trkpt>
      <trkpt lat="47.50011" lon="6.75261">
        <ele>323.3</ele>
        <time>2025-09-13T11:30:29Z</time>
      </trkpt>
      <trkpt lat="47.50011" lon="6.75251">
        <ele>323.2</ele>
        <time>2025-09-13T11:30:30Z</time>
      </trkpt>
      <trkpt lat="47.50013" lon="6.75241">
        <ele>323.1</ele>
        <time>2025-09-13T11:30:31Z</time>
      </trkpt>
      <trkpt lat="47.50015" lon="6.75232">
        <ele>323</ele>
        <time>2025-09-13T11:30:32Z</time>
      </trkpt>
      <trkpt lat="47.50025" lon="6.75216">
        <ele>322.9</ele>
        <time>2025-09-13T11:30:33Z</time>
      </trkpt>
      <trkpt lat="47.5003" lon="6.75211">
        <ele>322.9</ele>
        <time>2025-09-13T11:30:34Z</time>
      </trkpt>
      <trkpt lat="47.50037" lon="6.75208">
        <ele>322.9</ele>
        <time>2025-09-13T11:30:35Z</time>
      </trkpt>
      <trkpt lat="47.50043" lon="6.75204">
        <ele>322.9</ele>
        <time>2025-09-13T11:30:36Z</time>
      </trkpt>
      <trkpt lat="47.50049" lon="6.75203">
        <ele>322.9</ele>
        <time>2025-09-13T11:30:37Z</time>
      </trkpt>
      <trkpt lat="47.50056" lon="6.75203">
        <ele>322.9</ele>
        <time>2025-09-13T11:30:38Z</time>
      </trkpt>
      <trkpt lat="47.50063" lon="6.75202">
        <ele>322.9</ele>
        <time>2025-09-13T11:30:39Z</time>
      </trkpt>
      <trkpt lat="47.50068" lon="6.75202">
        <ele>322.9</ele>
        <time>2025-09-13T11:30:40Z</time>
      </trkpt>
      <trkpt lat="47.50074" lon="6.75202">
        <ele>323</ele>
        <time>2025-09-13T11:30:41Z</time>
      </trkpt>
      <trkpt lat="47.50079" lon="6.752">
        <ele>323</ele>
        <time>2025-09-13T11:30:42Z</time>
      </trkpt>
      <trkpt lat="47.50086" lon="6.75197">
        <ele>323</ele>
        <time>2025-09-13T11:30:43Z</time>
      </trkpt>
      <trkpt lat="47.50092" lon="6.75195">
        <ele>323.1</ele>
        <time>2025-09-13T11:30:44Z</time>
      </trkpt>
      <trkpt lat="47.50097" lon="6.75192">
        <ele>323.1</ele>
        <time>2025-09-13T11:30:45Z</time>
      </trkpt>
      <trkpt lat="47.50103" lon="6.75189">
        <ele>323.2</ele>
        <time>2025-09-13T11:30:46Z</time>
      </trkpt>
      <trkpt lat="47.50108" lon="6.75186">
        <ele>323.2</ele>
        <time>2025-09-13T11:30:47Z</time>
      </trkpt>
      <trkpt lat="47.50113" lon="6.75183">
        <ele>323.3</ele>
        <time>2025-09-13T11:30:48Z</time>
      </trkpt>
      <trkpt lat="47.50119" lon="6.75179">
        <ele>323.4</ele>
        <time>2025-09-13T11:30:49Z</time>
      </trkpt>
      <trkpt lat="47.50124" lon="6.75175">
        <ele>323.5</ele>
        <time>2025-09-13T11:30:50Z</time>
      </trkpt>
      <trkpt lat="47.50129" lon="6.7517">
        <ele>323.6</ele>
        <time>2025-09-13T11:30:51Z</time>
      </trkpt>
      <trkpt lat="47.50133" lon="6.75166">
        <ele>323.6</ele>
        <time>2025-09-13T11:30:52Z</time>
      </trkpt>
      <trkpt lat="47.50138" lon="6.75162">
        <ele>323.7</ele>
        <time>2025-09-13T11:30:53Z</time>
      </trkpt>
      <trkpt lat="47.50143" lon="6.75158">
        <ele>323.9</ele>
        <time>2025-09-13T11:30:54Z</time>
      </trkpt>
      <trkpt lat="47.50148" lon="6.75153">
        <ele>324</ele>
        <time>2025-09-13T11:30:55Z</time>
      </trkpt>
      <trkpt lat="47.50153" lon="6.75149">
        <ele>324.1</ele>
        <time>2025-09-13T11:30:56Z</time>
      </trkpt>
      <trkpt lat="47.50157" lon="6.75145">
        <ele>324.3</ele>
        <time>2025-09-13T11:30:57Z</time>
      </trkpt>
      <trkpt lat="47.50162" lon="6.75141">
        <ele>324.5</ele>
        <time>2025-09-13T11:30:58Z</time>
      </trkpt>
      <trkpt lat="47.50166" lon="6.75136">
        <ele>324.7</ele>
        <time>2025-09-13T11:30:59Z</time>
      </trkpt>
      <trkpt lat="47.5017" lon="6.75132">
        <ele>324.9</ele>
        <time>2025-09-13T11:31:00Z</time>
      </trkpt>
      <trkpt lat="47.50174" lon="6.75129">
        <ele>325.2</ele>
        <time>2025-09-13T11:31:01Z</time>
      </trkpt>
      <trkpt lat="47.50178" lon="6.75125">
        <ele>325.4</ele>
        <time>2025-09-13T11:31:02Z</time>
      </trkpt>
      <trkpt lat="47.50182" lon="6.75122">
        <ele>325.6</ele>
        <time>2025-09-13T11:31:03Z</time>
      </trkpt>
      <trkpt lat="47.50186" lon="6.75121">
        <ele>325.7</ele>
        <time>2025-09-13T11:31:04Z</time>
      </trkpt>
      <trkpt lat="47.50191" lon="6.75122">
        <ele>325.8</ele>
        <time>2025-09-13T11:31:05Z</time>
      </trkpt>
      <trkpt lat="47.50195" lon="6.75124">
        <ele>325.9</ele>
        <time>2025-09-13T11:31:06Z</time>
      </trkpt>
      <trkpt lat="47.50199" lon="6.75127">
        <ele>326</ele>
        <time>2025-09-13T11:31:07Z</time>
      </trkpt>
      <trkpt lat="47.50203" lon="6.7513">
        <ele>326.2</ele>
        <time>2025-09-13T11:31:08Z</time>
      </trkpt>
      <trkpt lat="47.50207" lon="6.75132">
        <ele>326.3</ele>
        <time>2025-09-13T11:31:09Z</time>
      </trkpt>
      <trkpt lat="47.50211" lon="6.75135">
        <ele>326.4</ele>
        <time>2025-09-13T11:31:10Z</time>
      </trkpt>
      <trkpt lat="47.50215" lon="6.75138">
        <ele>326.5</ele>
        <time>2025-09-13T11:31:11Z</time>
      </trkpt>
      <trkpt lat="47.5022" lon="6.75141">
        <ele>326.7</ele>
        <time>2025-09-13T11:31:12Z</time>
      </trkpt>
      <trkpt lat="47.50223" lon="6.75146">
        <ele>326.8</ele>
        <time>2025-09-13T11:31:13Z</time>
      </trkpt>
      <trkpt lat="47.50226" lon="6.75152">
        <ele>327</ele>
        <time>2025-09-13T11:31:14Z</time>
      </trkpt>
      <trkpt lat="47.5023" lon="6.75157">
        <ele>327.1</ele>
        <time>2025-09-13T11:31:15Z</time>
      </trkpt>
      <trkpt lat="47.50231" lon="6.75157">
        <ele>327.1</ele>
        <time>2025-09-13T11:31:16Z</time>
      </trkpt>
      <trkpt lat="47.50233" lon="6.75159">
        <ele>327.2</ele>
        <time>2025-09-13T11:31:17Z</time>
      </trkpt>
      <trkpt lat="47.50234" lon="6.75161">
        <ele>327.3</ele>
        <time>2025-09-13T11:31:18Z</time>
      </trkpt>
      <trkpt lat="47.50241" lon="6.75168">
        <ele>327.6</ele>
        <time>2025-09-13T11:31:19Z</time>
      </trkpt>
      <trkpt lat="47.50246" lon="6.75173">
        <ele>327.8</ele>
        <time>2025-09-13T11:31:20Z</time>
      </trkpt>
      <trkpt lat="47.50251" lon="6.75177">
        <ele>327.9</ele>
        <time>2025-09-13T11:31:21Z</time>
      </trkpt>
      <trkpt lat="47.50255" lon="6.75179">
        <ele>328.1</ele>
        <time>2025-09-13T11:31:22Z</time>
      </trkpt>
      <trkpt lat="47.5026" lon="6.7518">
        <ele>328.1</ele>
        <time>2025-09-13T11:31:23Z</time>
      </trkpt>
      <trkpt lat="47.50265" lon="6.75181">
        <ele>328.2</ele>
        <time>2025-09-13T11:31:24Z</time>
      </trkpt>
      <trkpt lat="47.50271" lon="6.75181">
        <ele>328.2</ele>
        <time>2025-09-13T11:31:25Z</time>
      </trkpt>
      <trkpt lat="47.50277" lon="6.75181">
        <ele>328.1</ele>
        <time>2025-09-13T11:31:26Z</time>
      </trkpt>
      <trkpt lat="47.50282" lon="6.7518">
        <ele>328.1</ele>
        <time>2025-09-13T11:31:27Z</time>
      </trkpt>
      <trkpt lat="47.50288" lon="6.75179">
        <ele>328</ele>
        <time>2025-09-13T11:31:28Z</time>
      </trkpt>
      <trkpt lat="47.50294" lon="6.75178">
        <ele>328</ele>
        <time>2025-09-13T11:31:29Z</time>
      </trkpt>
      <trkpt lat="47.503" lon="6.75177">
        <ele>327.9</ele>
        <time>2025-09-13T11:31:30Z</time>
      </trkpt>
      <trkpt lat="47.50306" lon="6.75176">
        <ele>327.7</ele>
        <time>2025-09-13T11:31:31Z</time>
      </trkpt>
      <trkpt lat="47.50312" lon="6.75175">
        <ele>327.6</ele>
        <time>2025-09-13T11:31:32Z</time>
      </trkpt>
      <trkpt lat="47.50318" lon="6.75175">
        <ele>327.5</ele>
        <time>2025-09-13T11:31:33Z</time>
      </trkpt>
      <trkpt lat="47.50324" lon="6.75175">
        <ele>327.3</ele>
        <time>2025-09-13T11:31:34Z</time>
      </trkpt>
      <trkpt lat="47.50331" lon="6.75174">
        <ele>327.1</ele>
        <time>2025-09-13T11:31:35Z</time>
      </trkpt>
      <trkpt lat="47.50337" lon="6.75174">
        <ele>326.9</ele>
        <time>2025-09-13T11:31:36Z</time>
      </trkpt>
      <trkpt lat="47.50344" lon="6.75174">
        <ele>326.7</ele>
        <time>2025-09-13T11:31:37Z</time>
      </trkpt>
      <trkpt lat="47.50351" lon="6.75175">
        <ele>326.5</ele>
        <time>2025-09-13T11:31:38Z</time>
      </trkpt>
      <trkpt lat="47.50357" lon="6.75174">
        <ele>326.3</ele>
        <time>2025-09-13T11:31:39Z</time>
      </trkpt>
      <trkpt lat="47.50365" lon="6.75174">
        <ele>326.1</ele>
        <time>2025-09-13T11:31:40Z</time>
      </trkpt>
      <trkpt lat="47.50372" lon="6.75174">
        <ele>325.9</ele>
        <time>2025-09-13T11:31:41Z</time>
      </trkpt>
      <trkpt lat="47.50379" lon="6.75174">
        <ele>325.7</ele>
        <time>2025-09-13T11:31:42Z</time>
      </trkpt>
      <trkpt lat="47.50386" lon="6.75173">
        <ele>325.5</ele>
        <time>2025-09-13T11:31:43Z</time>
      </trkpt>
      <trkpt lat="47.50393" lon="6.75173">
        <ele>325.3</ele>
        <time>2025-09-13T11:31:44Z</time>
      </trkpt>
      <trkpt lat="47.504" lon="6.75173">
        <ele>325.2</ele>
        <time>2025-09-13T11:31:45Z</time>
      </trkpt>
      <trkpt lat="47.50407" lon="6.75172">
        <ele>325.1</ele>
        <time>2025-09-13T11:31:46Z</time>
      </trkpt>
      <trkpt lat="47.50414" lon="6.75173">
        <ele>325</ele>
        <time>2025-09-13T11:31:47Z</time>
      </trkpt>
      <trkpt lat="47.50421" lon="6.75173">
        <ele>324.9</ele>
        <time>2025-09-13T11:31:48Z</time>
      </trkpt>
      <trkpt lat="47.50427" lon="6.75173">
        <ele>324.9</ele>
        <time>2025-09-13T11:31:49Z</time>
      </trkpt>
      <trkpt lat="47.50434" lon="6.75173">
        <ele>325</ele>
        <time>2025-09-13T11:31:50Z</time>
      </trkpt>
      <trkpt lat="47.5044" lon="6.75172">
        <ele>325</ele>
        <time>2025-09-13T11:31:51Z</time>
      </trkpt>
      <trkpt lat="47.50446" lon="6.75171">
        <ele>325.1</ele>
        <time>2025-09-13T11:31:52Z</time>
      </trkpt>
      <trkpt lat="47.50452" lon="6.75171">
        <ele>325.2</ele>
        <time>2025-09-13T11:31:53Z</time>
      </trkpt>
      <trkpt lat="47.50458" lon="6.75171">
        <ele>325.3</ele>
        <time>2025-09-13T11:31:54Z</time>
      </trkpt>
      <trkpt lat="47.50463" lon="6.75172">
        <ele>325.5</ele>
        <time>2025-09-13T11:31:55Z</time>
      </trkpt>
      <trkpt lat="47.50469" lon="6.75171">
        <ele>325.6</ele>
        <time>2025-09-13T11:31:56Z</time>
      </trkpt>
      <trkpt lat="47.50474" lon="6.75171">
        <ele>325.7</ele>
        <time>2025-09-13T11:31:57Z</time>
      </trkpt>
      <trkpt lat="47.50479" lon="6.75172">
        <ele>325.9</ele>
        <time>2025-09-13T11:31:58Z</time>
      </trkpt>
      <trkpt lat="47.50484" lon="6.75172">
        <ele>326</ele>
        <time>2025-09-13T11:31:59Z</time>
      </trkpt>
      <trkpt lat="47.50489" lon="6.75172">
        <ele>326.1</ele>
        <time>2025-09-13T11:32:00Z</time>
      </trkpt>
      <trkpt lat="47.50493" lon="6.75168">
        <ele>326.2</ele>
        <time>2025-09-13T11:32:01Z</time>
      </trkpt>
      <trkpt lat="47.50497" lon="6.75163">
        <ele>326.2</ele>
        <time>2025-09-13T11:32:02Z</time>
      </trkpt>
      <trkpt lat="47.50502" lon="6.75159">
        <ele>326.3</ele>
        <time>2025-09-13T11:32:03Z</time>
      </trkpt>
      <trkpt lat="47.50505" lon="6.75159">
        <ele>326.4</ele>
        <time>2025-09-13T11:32:05Z</time>
      </trkpt>
      <trkpt lat="47.50509" lon="6.7516">
        <ele>326.4</ele>
        <time>2025-09-13T11:32:06Z</time>
      </trkpt>
      <trkpt lat="47.50513" lon="6.75161">
        <ele>326.4</ele>
        <time>2025-09-13T11:32:07Z</time>
      </trkpt>
      <trkpt lat="47.50518" lon="6.75162">
        <ele>326.5</ele>
        <time>2025-09-13T11:32:08Z</time>
      </trkpt>
      <trkpt lat="47.50523" lon="6.75163">
        <ele>326.5</ele>
        <time>2025-09-13T11:32:09Z</time>
      </trkpt>
      <trkpt lat="47.50528" lon="6.75165">
        <ele>326.6</ele>
        <time>2025-09-13T11:32:10Z</time>
      </trkpt>
      <trkpt lat="47.50534" lon="6.75166">
        <ele>326.6</ele>
        <time>2025-09-13T11:32:11Z</time>
      </trkpt>
      <trkpt lat="47.5054" lon="6.75167">
        <ele>326.7</ele>
        <time>2025-09-13T11:32:12Z</time>
      </trkpt>
      <trkpt lat="47.50546" lon="6.75168">
        <ele>326.7</ele>
        <time>2025-09-13T11:32:13Z</time>
      </trkpt>
      <trkpt lat="47.50552" lon="6.75169">
        <ele>326.8</ele>
        <time>2025-09-13T11:32:14Z</time>
      </trkpt>
      <trkpt lat="47.50558" lon="6.7517">
        <ele>326.8</ele>
        <time>2025-09-13T11:32:15Z</time>
      </trkpt>
      <trkpt lat="47.50564" lon="6.75172">
        <ele>326.9</ele>
        <time>2025-09-13T11:32:16Z</time>
      </trkpt>
      <trkpt lat="47.5057" lon="6.75173">
        <ele>326.9</ele>
        <time>2025-09-13T11:32:17Z</time>
      </trkpt>
      <trkpt lat="47.50576" lon="6.75175">
        <ele>326.9</ele>
        <time>2025-09-13T11:32:18Z</time>
      </trkpt>
      <trkpt lat="47.50582" lon="6.75178">
        <ele>326.9</ele>
        <time>2025-09-13T11:32:19Z</time>
      </trkpt>
      <trkpt lat="47.50588" lon="6.7518">
        <ele>326.9</ele>
        <time>2025-09-13T11:32:20Z</time>
      </trkpt>
      <trkpt lat="47.50593" lon="6.75182">
        <ele>326.9</ele>
        <time>2025-09-13T11:32:21Z</time>
      </trkpt>
      <trkpt lat="47.50598" lon="6.75183">
        <ele>326.9</ele>
        <time>2025-09-13T11:32:22Z</time>
      </trkpt>
      <trkpt lat="47.50604" lon="6.75185">
        <ele>326.9</ele>
        <time>2025-09-13T11:32:23Z</time>
      </trkpt>
      <trkpt lat="47.50615" lon="6.75189">
        <ele>326.7</ele>
        <time>2025-09-13T11:32:24Z</time>
      </trkpt>
      <trkpt lat="47.50621" lon="6.75191">
        <ele>326.5</ele>
        <time>2025-09-13T11:32:25Z</time>
      </trkpt>
      <trkpt lat="47.50629" lon="6.75194">
        <ele>326.4</ele>
        <time>2025-09-13T11:32:26Z</time>
      </trkpt>
      <trkpt lat="47.50636" lon="6.75194">
        <ele>326.3</ele>
        <time>2025-09-13T11:32:27Z</time>
      </trkpt>
      <trkpt lat="47.50644" lon="6.75195">
        <ele>326.2</ele>
        <time>2025-09-13T11:32:28Z</time>
      </trkpt>
      <trkpt lat="47.5065" lon="6.75194">
        <ele>326.1</ele>
        <time>2025-09-13T11:32:29Z</time>
      </trkpt>
      <trkpt lat="47.50657" lon="6.75195">
        <ele>326.1</ele>
        <time>2025-09-13T11:32:30Z</time>
      </trkpt>
      <trkpt lat="47.50663" lon="6.75195">
        <ele>326</ele>
        <time>2025-09-13T11:32:31Z</time>
      </trkpt>
      <trkpt lat="47.50668" lon="6.75196">
        <ele>326</ele>
        <time>2025-09-13T11:32:32Z</time>
      </trkpt>
      <trkpt lat="47.50674" lon="6.75197">
        <ele>325.9</ele>
        <time>2025-09-13T11:32:33Z</time>
      </trkpt>
      <trkpt lat="47.5068" lon="6.75198">
        <ele>325.9</ele>
        <time>2025-09-13T11:32:34Z</time>
      </trkpt>
      <trkpt lat="47.50686" lon="6.75199">
        <ele>325.8</ele>
        <time>2025-09-13T11:32:35Z</time>
      </trkpt>
      <trkpt lat="47.50693" lon="6.75198">
        <ele>325.7</ele>
        <time>2025-09-13T11:32:36Z</time>
      </trkpt>
      <trkpt lat="47.50699" lon="6.75197">
        <ele>325.7</ele>
        <time>2025-09-13T11:32:37Z</time>
      </trkpt>
      <trkpt lat="47.50705" lon="6.75196">
        <ele>325.6</ele>
        <time>2025-09-13T11:32:38Z</time>
      </trkpt>
      <trkpt lat="47.50712" lon="6.75195">
        <ele>325.6</ele>
        <time>2025-09-13T11:32:39Z</time>
      </trkpt>
      <trkpt lat="47.50717" lon="6.75193">
        <ele>325.5</ele>
        <time>2025-09-13T11:32:40Z</time>
      </trkpt>
      <trkpt lat="47.50723" lon="6.75191">
        <ele>325.5</ele>
        <time>2025-09-13T11:32:41Z</time>
      </trkpt>
      <trkpt lat="47.50729" lon="6.75188">
        <ele>325.4</ele>
        <time>2025-09-13T11:32:42Z</time>
      </trkpt>
      <trkpt lat="47.50735" lon="6.75186">
        <ele>325.3</ele>
        <time>2025-09-13T11:32:43Z</time>
      </trkpt>
      <trkpt lat="47.50741" lon="6.75182">
        <ele>325.3</ele>
        <time>2025-09-13T11:32:44Z</time>
      </trkpt>
      <trkpt lat="47.50747" lon="6.75178">
        <ele>325.2</ele>
        <time>2025-09-13T11:32:45Z</time>
      </trkpt>
      <trkpt lat="47.50753" lon="6.75175">
        <ele>325.2</ele>
        <time>2025-09-13T11:32:46Z</time>
      </trkpt>
      <trkpt lat="47.5076" lon="6.75173">
        <ele>325.2</ele>
        <time>2025-09-13T11:32:47Z</time>
      </trkpt>
      <trkpt lat="47.50766" lon="6.7517">
        <ele>325.2</ele>
        <time>2025-09-13T11:32:48Z</time>
      </trkpt>
      <trkpt lat="47.50773" lon="6.75167">
        <ele>325.3</ele>
        <time>2025-09-13T11:32:49Z</time>
      </trkpt>
      <trkpt lat="47.50779" lon="6.75164">
        <ele>325.3</ele>
        <time>2025-09-13T11:32:50Z</time>
      </trkpt>
      <trkpt lat="47.50784" lon="6.75162">
        <ele>325.3</ele>
        <time>2025-09-13T11:32:51Z</time>
      </trkpt>
      <trkpt lat="47.5079" lon="6.75158">
        <ele>325.3</ele>
        <time>2025-09-13T11:32:52Z</time>
      </trkpt>
      <trkpt lat="47.50795" lon="6.75155">
        <ele>325.4</ele>
        <time>2025-09-13T11:32:53Z</time>
      </trkpt>
      <trkpt lat="47.50801" lon="6.75152">
        <ele>325.5</ele>
        <time>2025-09-13T11:32:54Z</time>
      </trkpt>
      <trkpt lat="47.50807" lon="6.75149">
        <ele>325.5</ele>
        <time>2025-09-13T11:32:55Z</time>
      </trkpt>
      <trkpt lat="47.50812" lon="6.75146">
        <ele>325.6</ele>
        <time>2025-09-13T11:32:56Z</time>
      </trkpt>
      <trkpt lat="47.50817" lon="6.75143">
        <ele>325.7</ele>
        <time>2025-09-13T11:32:57Z</time>
      </trkpt>
      <trkpt lat="47.50823" lon="6.75139">
        <ele>325.8</ele>
        <time>2025-09-13T11:32:58Z</time>
      </trkpt>
      <trkpt lat="47.50829" lon="6.75136">
        <ele>325.9</ele>
        <time>2025-09-13T11:32:59Z</time>
      </trkpt>
      <trkpt lat="47.50835" lon="6.75133">
        <ele>326</ele>
        <time>2025-09-13T11:33:00Z</time>
      </trkpt>
      <trkpt lat="47.5084" lon="6.75131">
        <ele>326.1</ele>
        <time>2025-09-13T11:33:01Z</time>
      </trkpt>
      <trkpt lat="47.50846" lon="6.75128">
        <ele>326.2</ele>
        <time>2025-09-13T11:33:02Z</time>
      </trkpt>
      <trkpt lat="47.50851" lon="6.75125">
        <ele>326.2</ele>
        <time>2025-09-13T11:33:03Z</time>
      </trkpt>
      <trkpt lat="47.50856" lon="6.75122">
        <ele>326.3</ele>
        <time>2025-09-13T11:33:04Z</time>
      </trkpt>
      <trkpt lat="47.50861" lon="6.75119">
        <ele>326.3</ele>
        <time>2025-09-13T11:33:05Z</time>
      </trkpt>
      <trkpt lat="47.50866" lon="6.75116">
        <ele>326.4</ele>
        <time>2025-09-13T11:33:06Z</time>
      </trkpt>
      <trkpt lat="47.50871" lon="6.75113">
        <ele>326.4</ele>
        <time>2025-09-13T11:33:07Z</time>
      </trkpt>
      <trkpt lat="47.50876" lon="6.75109">
        <ele>326.5</ele>
        <time>2025-09-13T11:33:08Z</time>
      </trkpt>
      <trkpt lat="47.50882" lon="6.75105">
        <ele>326.5</ele>
        <time>2025-09-13T11:33:09Z</time>
      </trkpt>
      <trkpt lat="47.50887" lon="6.75102">
        <ele>326.6</ele>
        <time>2025-09-13T11:33:10Z</time>
      </trkpt>
      <trkpt lat="47.50891" lon="6.75098">
        <ele>326.6</ele>
        <time>2025-09-13T11:33:11Z</time>
      </trkpt>
      <trkpt lat="47.50896" lon="6.75093">
        <ele>326.7</ele>
        <time>2025-09-13T11:33:12Z</time>
      </trkpt>
      <trkpt lat="47.50902" lon="6.75087">
        <ele>326.8</ele>
        <time>2025-09-13T11:33:13Z</time>
      </trkpt>
      <trkpt lat="47.50906" lon="6.75081">
        <ele>326.8</ele>
        <time>2025-09-13T11:33:14Z</time>
      </trkpt>
      <trkpt lat="47.50911" lon="6.75076">
        <ele>326.9</ele>
        <time>2025-09-13T11:33:15Z</time>
      </trkpt>
      <trkpt lat="47.50915" lon="6.75071">
        <ele>326.9</ele>
        <time>2025-09-13T11:33:16Z</time>
      </trkpt>
      <trkpt lat="47.5092" lon="6.75066">
        <ele>326.9</ele>
        <time>2025-09-13T11:33:17Z</time>
      </trkpt>
      <trkpt lat="47.50924" lon="6.7506">
        <ele>327</ele>
        <time>2025-09-13T11:33:18Z</time>
      </trkpt>
      <trkpt lat="47.50928" lon="6.75055">
        <ele>327</ele>
        <time>2025-09-13T11:33:19Z</time>
      </trkpt>
      <trkpt lat="47.50933" lon="6.7505">
        <ele>327</ele>
        <time>2025-09-13T11:33:20Z</time>
      </trkpt>
      <trkpt lat="47.50937" lon="6.75044">
        <ele>327.1</ele>
        <time>2025-09-13T11:33:21Z</time>
      </trkpt>
      <trkpt lat="47.50941" lon="6.75039">
        <ele>327.1</ele>
        <time>2025-09-13T11:33:22Z</time>
      </trkpt>
      <trkpt lat="47.50946" lon="6.75034">
        <ele>327.1</ele>
        <time>2025-09-13T11:33:23Z</time>
      </trkpt>
      <trkpt lat="47.5095" lon="6.75029">
        <ele>327.2</ele>
        <time>2025-09-13T11:33:24Z</time>
      </trkpt>
      <trkpt lat="47.50955" lon="6.75023">
        <ele>327.2</ele>
        <time>2025-09-13T11:33:25Z</time>
      </trkpt>
      <trkpt lat="47.50959" lon="6.75019">
        <ele>327.2</ele>
        <time>2025-09-13T11:33:26Z</time>
      </trkpt>
      <trkpt lat="47.50964" lon="6.75013">
        <ele>327.2</ele>
        <time>2025-09-13T11:33:27Z</time>
      </trkpt>
      <trkpt lat="47.50968" lon="6.75008">
        <ele>327.2</ele>
        <time>2025-09-13T11:33:28Z</time>
      </trkpt>
      <trkpt lat="47.50973" lon="6.75003">
        <ele>327.2</ele>
        <time>2025-09-13T11:33:29Z</time>
      </trkpt>
      <trkpt lat="47.50978" lon="6.74998">
        <ele>327.1</ele>
        <time>2025-09-13T11:33:30Z</time>
      </trkpt>
      <trkpt lat="47.50984" lon="6.74994">
        <ele>327.1</ele>
        <time>2025-09-13T11:33:31Z</time>
      </trkpt>
      <trkpt lat="47.50989" lon="6.74991">
        <ele>327.1</ele>
        <time>2025-09-13T11:33:32Z</time>
      </trkpt>
      <trkpt lat="47.50994" lon="6.74986">
        <ele>327.1</ele>
        <time>2025-09-13T11:33:33Z</time>
      </trkpt>
      <trkpt lat="47.50999" lon="6.74983">
        <ele>327.1</ele>
        <time>2025-09-13T11:33:34Z</time>
      </trkpt>
      <trkpt lat="47.51004" lon="6.74979">
        <ele>327.1</ele>
        <time>2025-09-13T11:33:35Z</time>
      </trkpt>
      <trkpt lat="47.5101" lon="6.74976">
        <ele>327</ele>
        <time>2025-09-13T11:33:36Z</time>
      </trkpt>
      <trkpt lat="47.51015" lon="6.74973">
        <ele>327</ele>
        <time>2025-09-13T11:33:37Z</time>
      </trkpt>
      <trkpt lat="47.51021" lon="6.74968">
        <ele>327</ele>
        <time>2025-09-13T11:33:38Z</time>
      </trkpt>
      <trkpt lat="47.51027" lon="6.74964">
        <ele>327</ele>
        <time>2025-09-13T11:33:39Z</time>
      </trkpt>
      <trkpt lat="47.51032" lon="6.7496">
        <ele>327</ele>
        <time>2025-09-13T11:33:40Z</time>
      </trkpt>
      <trkpt lat="47.51038" lon="6.74957">
        <ele>327</ele>
        <time>2025-09-13T11:33:41Z</time>
      </trkpt>
      <trkpt lat="47.51044" lon="6.74953">
        <ele>327</ele>
        <time>2025-09-13T11:33:42Z</time>
      </trkpt>
      <trkpt lat="47.51049" lon="6.74949">
        <ele>327</ele>
        <time>2025-09-13T11:33:43Z</time>
      </trkpt>
      <trkpt lat="47.51054" lon="6.74945">
        <ele>327</ele>
        <time>2025-09-13T11:33:44Z</time>
      </trkpt>
      <trkpt lat="47.5106" lon="6.74942">
        <ele>327</ele>
        <time>2025-09-13T11:33:45Z</time>
      </trkpt>
      <trkpt lat="47.51065" lon="6.74939">
        <ele>327</ele>
        <time>2025-09-13T11:33:46Z</time>
      </trkpt>
      <trkpt lat="47.51071" lon="6.74935">
        <ele>327.1</ele>
        <time>2025-09-13T11:33:47Z</time>
      </trkpt>
      <trkpt lat="47.51076" lon="6.74931">
        <ele>327.1</ele>
        <time>2025-09-13T11:33:48Z</time>
      </trkpt>
      <trkpt lat="47.51081" lon="6.74928">
        <ele>327.1</ele>
        <time>2025-09-13T11:33:49Z</time>
      </trkpt>
      <trkpt lat="47.51086" lon="6.74924">
        <ele>327.1</ele>
        <time>2025-09-13T11:33:50Z</time>
      </trkpt>
      <trkpt lat="47.51092" lon="6.74921">
        <ele>327.2</ele>
        <time>2025-09-13T11:33:51Z</time>
      </trkpt>
      <trkpt lat="47.51097" lon="6.74918">
        <ele>327.2</ele>
        <time>2025-09-13T11:33:52Z</time>
      </trkpt>
      <trkpt lat="47.51102" lon="6.74914">
        <ele>327.2</ele>
        <time>2025-09-13T11:33:53Z</time>
      </trkpt>
      <trkpt lat="47.51107" lon="6.74911">
        <ele>327.2</ele>
        <time>2025-09-13T11:33:54Z</time>
      </trkpt>
      <trkpt lat="47.51113" lon="6.74907">
        <ele>327.3</ele>
        <time>2025-09-13T11:33:55Z</time>
      </trkpt>
      <trkpt lat="47.51119" lon="6.74903">
        <ele>327.3</ele>
        <time>2025-09-13T11:33:56Z</time>
      </trkpt>
      <trkpt lat="47.51124" lon="6.749">
        <ele>327.4</ele>
        <time>2025-09-13T11:33:57Z</time>
      </trkpt>
      <trkpt lat="47.51129" lon="6.74897">
        <ele>327.4</ele>
        <time>2025-09-13T11:33:58Z</time>
      </trkpt>
      <trkpt lat="47.51134" lon="6.74893">
        <ele>327.5</ele>
        <time>2025-09-13T11:33:59Z</time>
      </trkpt>
      <trkpt lat="47.51139" lon="6.7489">
        <ele>327.5</ele>
        <time>2025-09-13T11:34:00Z</time>
      </trkpt>
      <trkpt lat="47.51145" lon="6.74887">
        <ele>327.6</ele>
        <time>2025-09-13T11:34:01Z</time>
      </trkpt>
      <trkpt lat="47.51149" lon="6.74884">
        <ele>327.7</ele>
        <time>2025-09-13T11:34:02Z</time>
      </trkpt>
      <trkpt lat="47.51155" lon="6.7488">
        <ele>327.7</ele>
        <time>2025-09-13T11:34:03Z</time>
      </trkpt>
      <trkpt lat="47.5116" lon="6.74877">
        <ele>327.8</ele>
        <time>2025-09-13T11:34:04Z</time>
      </trkpt>
      <trkpt lat="47.51164" lon="6.74874">
        <ele>327.8</ele>
        <time>2025-09-13T11:34:05Z</time>
      </trkpt>
      <trkpt lat="47.51169" lon="6.74871">
        <ele>327.9</ele>
        <time>2025-09-13T11:34:06Z</time>
      </trkpt>
      <trkpt lat="47.51175" lon="6.74868">
        <ele>328</ele>
        <time>2025-09-13T11:34:07Z</time>
      </trkpt>
      <trkpt lat="47.51179" lon="6.74864">
        <ele>328</ele>
        <time>2025-09-13T11:34:08Z</time>
      </trkpt>
      <trkpt lat="47.51184" lon="6.74861">
        <ele>328.1</ele>
        <time>2025-09-13T11:34:09Z</time>
      </trkpt>
      <trkpt lat="47.51189" lon="6.74857">
        <ele>328.2</ele>
        <time>2025-09-13T11:34:10Z</time>
      </trkpt>
      <trkpt lat="47.51193" lon="6.74856">
        <ele>328.2</ele>
        <time>2025-09-13T11:34:11Z</time>
      </trkpt>
      <trkpt lat="47.51198" lon="6.74853">
        <ele>328.3</ele>
        <time>2025-09-13T11:34:12Z</time>
      </trkpt>
      <trkpt lat="47.51203" lon="6.74848">
        <ele>328.4</ele>
        <time>2025-09-13T11:34:13Z</time>
      </trkpt>
      <trkpt lat="47.51207" lon="6.74845">
        <ele>328.5</ele>
        <time>2025-09-13T11:34:14Z</time>
      </trkpt>
      <trkpt lat="47.51211" lon="6.74843">
        <ele>328.5</ele>
        <time>2025-09-13T11:34:15Z</time>
      </trkpt>
      <trkpt lat="47.51216" lon="6.7484">
        <ele>328.6</ele>
        <time>2025-09-13T11:34:16Z</time>
      </trkpt>
      <trkpt lat="47.51221" lon="6.74838">
        <ele>328.7</ele>
        <time>2025-09-13T11:34:17Z</time>
      </trkpt>
      <trkpt lat="47.51226" lon="6.74834">
        <ele>328.7</ele>
        <time>2025-09-13T11:34:18Z</time>
      </trkpt>
      <trkpt lat="47.51231" lon="6.74832">
        <ele>328.8</ele>
        <time>2025-09-13T11:34:19Z</time>
      </trkpt>
      <trkpt lat="47.51236" lon="6.74829">
        <ele>328.8</ele>
        <time>2025-09-13T11:34:20Z</time>
      </trkpt>
      <trkpt lat="47.51241" lon="6.74828">
        <ele>328.9</ele>
        <time>2025-09-13T11:34:21Z</time>
      </trkpt>
      <trkpt lat="47.51246" lon="6.74826">
        <ele>328.9</ele>
        <time>2025-09-13T11:34:22Z</time>
      </trkpt>
      <trkpt lat="47.51252" lon="6.74823">
        <ele>329</ele>
        <time>2025-09-13T11:34:23Z</time>
      </trkpt>
      <trkpt lat="47.51257" lon="6.74821">
        <ele>329</ele>
        <time>2025-09-13T11:34:24Z</time>
      </trkpt>
      <trkpt lat="47.51262" lon="6.74819">
        <ele>329.1</ele>
        <time>2025-09-13T11:34:25Z</time>
      </trkpt>
      <trkpt lat="47.51268" lon="6.74818">
        <ele>329.1</ele>
        <time>2025-09-13T11:34:26Z</time>
      </trkpt>
      <trkpt lat="47.51274" lon="6.74816">
        <ele>329.1</ele>
        <time>2025-09-13T11:34:27Z</time>
      </trkpt>
      <trkpt lat="47.5128" lon="6.74815">
        <ele>329.1</ele>
        <time>2025-09-13T11:34:28Z</time>
      </trkpt>
      <trkpt lat="47.51285" lon="6.74814">
        <ele>329.2</ele>
        <time>2025-09-13T11:34:29Z</time>
      </trkpt>
      <trkpt lat="47.51291" lon="6.74814">
        <ele>329.2</ele>
        <time>2025-09-13T11:34:30Z</time>
      </trkpt>
      <trkpt lat="47.51297" lon="6.74813">
        <ele>329.2</ele>
        <time>2025-09-13T11:34:31Z</time>
      </trkpt>
      <trkpt lat="47.51303" lon="6.74813">
        <ele>329.3</ele>
        <time>2025-09-13T11:34:32Z</time>
      </trkpt>
      <trkpt lat="47.51309" lon="6.74813">
        <ele>329.3</ele>
        <time>2025-09-13T11:34:33Z</time>
      </trkpt>
      <trkpt lat="47.51315" lon="6.74813">
        <ele>329.3</ele>
        <time>2025-09-13T11:34:34Z</time>
      </trkpt>
      <trkpt lat="47.51321" lon="6.74813">
        <ele>329.3</ele>
        <time>2025-09-13T11:34:35Z</time>
      </trkpt>
      <trkpt lat="47.51326" lon="6.74813">
        <ele>329.3</ele>
        <time>2025-09-13T11:34:36Z</time>
      </trkpt>
      <trkpt lat="47.51332" lon="6.74813">
        <ele>329.3</ele>
        <time>2025-09-13T11:34:37Z</time>
      </trkpt>
      <trkpt lat="47.51338" lon="6.74814">
        <ele>329.3</ele>
        <time>2025-09-13T11:34:38Z</time>
      </trkpt>
      <trkpt lat="47.51344" lon="6.74814">
        <ele>329.3</ele>
        <time>2025-09-13T11:34:39Z</time>
      </trkpt>
      <trkpt lat="47.5135" lon="6.74815">
        <ele>329.3</ele>
        <time>2025-09-13T11:34:40Z</time>
      </trkpt>
      <trkpt lat="47.51356" lon="6.74815">
        <ele>329.3</ele>
        <time>2025-09-13T11:34:41Z</time>
      </trkpt>
      <trkpt lat="47.51362" lon="6.74814">
        <ele>329.3</ele>
        <time>2025-09-13T11:34:42Z</time>
      </trkpt>
      <trkpt lat="47.51368" lon="6.74814">
        <ele>329.3</ele>
        <time>2025-09-13T11:34:43Z</time>
      </trkpt>
      <trkpt lat="47.51374" lon="6.74814">
        <ele>329.3</ele>
        <time>2025-09-13T11:34:44Z</time>
      </trkpt>
      <trkpt lat="47.5138" lon="6.74813">
        <ele>329.3</ele>
        <time>2025-09-13T11:34:45Z</time>
      </trkpt>
      <trkpt lat="47.51386" lon="6.74812">
        <ele>329.2</ele>
        <time>2025-09-13T11:34:46Z</time>
      </trkpt>
      <trkpt lat="47.51391" lon="6.74809">
        <ele>329.2</ele>
        <time>2025-09-13T11:34:47Z</time>
      </trkpt>
      <trkpt lat="47.51398" lon="6.74806">
        <ele>329.1</ele>
        <time>2025-09-13T11:34:48Z</time>
      </trkpt>
      <trkpt lat="47.51403" lon="6.74804">
        <ele>329.1</ele>
        <time>2025-09-13T11:34:49Z</time>
      </trkpt>
      <trkpt lat="47.51409" lon="6.74798">
        <ele>329</ele>
        <time>2025-09-13T11:34:50Z</time>
      </trkpt>
      <trkpt lat="47.51414" lon="6.74794">
        <ele>328.9</ele>
        <time>2025-09-13T11:34:51Z</time>
      </trkpt>
      <trkpt lat="47.5142" lon="6.74789">
        <ele>328.9</ele>
        <time>2025-09-13T11:34:52Z</time>
      </trkpt>
      <trkpt lat="47.51424" lon="6.74784">
        <ele>328.8</ele>
        <time>2025-09-13T11:34:53Z</time>
      </trkpt>
      <trkpt lat="47.51426" lon="6.74781">
        <ele>328.8</ele>
        <time>2025-09-13T11:34:54Z</time>
      </trkpt>
      <trkpt lat="47.51434" lon="6.74774">
        <ele>328.8</ele>
        <time>2025-09-13T11:34:55Z</time>
      </trkpt>
      <trkpt lat="47.5144" lon="6.74764">
        <ele>328.7</ele>
        <time>2025-09-13T11:34:56Z</time>
      </trkpt>
      <trkpt lat="47.51445" lon="6.74758">
        <ele>328.7</ele>
        <time>2025-09-13T11:34:57Z</time>
      </trkpt>
      <trkpt lat="47.51448" lon="6.74752">
        <ele>328.7</ele>
        <time>2025-09-13T11:34:58Z</time>
      </trkpt>
      <trkpt lat="47.51456" lon="6.74749">
        <ele>328.8</ele>
        <time>2025-09-13T11:34:59Z</time>
      </trkpt>
      <trkpt lat="47.51461" lon="6.74743">
        <ele>328.8</ele>
        <time>2025-09-13T11:35:00Z</time>
      </trkpt>
      <trkpt lat="47.51468" lon="6.74738">
        <ele>328.8</ele>
        <time>2025-09-13T11:35:01Z</time>
      </trkpt>
      <trkpt lat="47.51474" lon="6.74734">
        <ele>328.8</ele>
        <time>2025-09-13T11:35:02Z</time>
      </trkpt>
      <trkpt lat="47.51479" lon="6.74729">
        <ele>328.9</ele>
        <time>2025-09-13T11:35:03Z</time>
      </trkpt>
      <trkpt lat="47.51485" lon="6.74725">
        <ele>328.9</ele>
        <time>2025-09-13T11:35:04Z</time>
      </trkpt>
      <trkpt lat="47.51489" lon="6.7472">
        <ele>328.9</ele>
        <time>2025-09-13T11:35:05Z</time>
      </trkpt>
      <trkpt lat="47.51494" lon="6.74714">
        <ele>329</ele>
        <time>2025-09-13T11:35:06Z</time>
      </trkpt>
      <trkpt lat="47.515" lon="6.74712">
        <ele>329</ele>
        <time>2025-09-13T11:35:07Z</time>
      </trkpt>
      <trkpt lat="47.51505" lon="6.74709">
        <ele>329</ele>
        <time>2025-09-13T11:35:08Z</time>
      </trkpt>
      <trkpt lat="47.51512" lon="6.74707">
        <ele>329.1</ele>
        <time>2025-09-13T11:35:09Z</time>
      </trkpt>
      <trkpt lat="47.51517" lon="6.74705">
        <ele>329.1</ele>
        <time>2025-09-13T11:35:10Z</time>
      </trkpt>
      <trkpt lat="47.51523" lon="6.74703">
        <ele>329.1</ele>
        <time>2025-09-13T11:35:11Z</time>
      </trkpt>
      <trkpt lat="47.5153" lon="6.74703">
        <ele>329.2</ele>
        <time>2025-09-13T11:35:12Z</time>
      </trkpt>
      <trkpt lat="47.51537" lon="6.74703">
        <ele>329.2</ele>
        <time>2025-09-13T11:35:13Z</time>
      </trkpt>
      <trkpt lat="47.51543" lon="6.74701">
        <ele>329.2</ele>
        <time>2025-09-13T11:35:14Z</time>
      </trkpt>
      <trkpt lat="47.51549" lon="6.74702">
        <ele>329.2</ele>
        <time>2025-09-13T11:35:15Z</time>
      </trkpt>
      <trkpt lat="47.51556" lon="6.74704">
        <ele>329.1</ele>
        <time>2025-09-13T11:35:16Z</time>
      </trkpt>
      <trkpt lat="47.51563" lon="6.74706">
        <ele>329.1</ele>
        <time>2025-09-13T11:35:17Z</time>
      </trkpt>
      <trkpt lat="47.51569" lon="6.74708">
        <ele>329</ele>
        <time>2025-09-13T11:35:18Z</time>
      </trkpt>
      <trkpt lat="47.51575" lon="6.7471">
        <ele>329</ele>
        <time>2025-09-13T11:35:19Z</time>
      </trkpt>
      <trkpt lat="47.51581" lon="6.74713">
        <ele>328.9</ele>
        <time>2025-09-13T11:35:20Z</time>
      </trkpt>
      <trkpt lat="47.51588" lon="6.74717">
        <ele>328.8</ele>
        <time>2025-09-13T11:35:21Z</time>
      </trkpt>
      <trkpt lat="47.51593" lon="6.74721">
        <ele>328.8</ele>
        <time>2025-09-13T11:35:22Z</time>
      </trkpt>
      <trkpt lat="47.51599" lon="6.74726">
        <ele>328.7</ele>
        <time>2025-09-13T11:35:23Z</time>
      </trkpt>
      <trkpt lat="47.51604" lon="6.74732">
        <ele>328.7</ele>
        <time>2025-09-13T11:35:24Z</time>
      </trkpt>
      <trkpt lat="47.5161" lon="6.74737">
        <ele>328.7</ele>
        <time>2025-09-13T11:35:25Z</time>
      </trkpt>
      <trkpt lat="47.51615" lon="6.74743">
        <ele>328.6</ele>
        <time>2025-09-13T11:35:26Z</time>
      </trkpt>
      <trkpt lat="47.51621" lon="6.74748">
        <ele>328.6</ele>
        <time>2025-09-13T11:35:27Z</time>
      </trkpt>
      <trkpt lat="47.51625" lon="6.74753">
        <ele>328.6</ele>
        <time>2025-09-13T11:35:28Z</time>
      </trkpt>
      <trkpt lat="47.51632" lon="6.74759">
        <ele>328.6</ele>
        <time>2025-09-13T11:35:29Z</time>
      </trkpt>
      <trkpt lat="47.51637" lon="6.74764">
        <ele>328.6</ele>
        <time>2025-09-13T11:35:30Z</time>
      </trkpt>
      <trkpt lat="47.51643" lon="6.74769">
        <ele>328.7</ele>
        <time>2025-09-13T11:35:31Z</time>
      </trkpt>
      <trkpt lat="47.51648" lon="6.74773">
        <ele>328.7</ele>
        <time>2025-09-13T11:35:32Z</time>
      </trkpt>
      <trkpt lat="47.51654" lon="6.74778">
        <ele>328.7</ele>
        <time>2025-09-13T11:35:33Z</time>
      </trkpt>
      <trkpt lat="47.51659" lon="6.74783">
        <ele>328.7</ele>
        <time>2025-09-13T11:35:34Z</time>
      </trkpt>
      <trkpt lat="47.51664" lon="6.74788">
        <ele>328.8</ele>
        <time>2025-09-13T11:35:35Z</time>
      </trkpt>
      <trkpt lat="47.5167" lon="6.74794">
        <ele>328.8</ele>
        <time>2025-09-13T11:35:36Z</time>
      </trkpt>
      <trkpt lat="47.51675" lon="6.74798">
        <ele>328.8</ele>
        <time>2025-09-13T11:35:37Z</time>
      </trkpt>
      <trkpt lat="47.5168" lon="6.74803">
        <ele>328.9</ele>
        <time>2025-09-13T11:35:38Z</time>
      </trkpt>
      <trkpt lat="47.51687" lon="6.74807">
        <ele>328.9</ele>
        <time>2025-09-13T11:35:39Z</time>
      </trkpt>
      <trkpt lat="47.51692" lon="6.74812">
        <ele>329</ele>
        <time>2025-09-13T11:35:40Z</time>
      </trkpt>
      <trkpt lat="47.51697" lon="6.74815">
        <ele>329</ele>
        <time>2025-09-13T11:35:41Z</time>
      </trkpt>
      <trkpt lat="47.51703" lon="6.74819">
        <ele>329.1</ele>
        <time>2025-09-13T11:35:42Z</time>
      </trkpt>
      <trkpt lat="47.5171" lon="6.74822">
        <ele>329.1</ele>
        <time>2025-09-13T11:35:43Z</time>
      </trkpt>
      <trkpt lat="47.51716" lon="6.74825">
        <ele>329.2</ele>
        <time>2025-09-13T11:35:44Z</time>
      </trkpt>
      <trkpt lat="47.51722" lon="6.74828">
        <ele>329.2</ele>
        <time>2025-09-13T11:35:45Z</time>
      </trkpt>
      <trkpt lat="47.51728" lon="6.74832">
        <ele>329.3</ele>
        <time>2025-09-13T11:35:46Z</time>
      </trkpt>
      <trkpt lat="47.51734" lon="6.74834">
        <ele>329.4</ele>
        <time>2025-09-13T11:35:47Z</time>
      </trkpt>
      <trkpt lat="47.5174" lon="6.74838">
        <ele>329.4</ele>
        <time>2025-09-13T11:35:48Z</time>
      </trkpt>
      <trkpt lat="47.51745" lon="6.74841">
        <ele>329.5</ele>
        <time>2025-09-13T11:35:49Z</time>
      </trkpt>
      <trkpt lat="47.51751" lon="6.74844">
        <ele>329.6</ele>
        <time>2025-09-13T11:35:50Z</time>
      </trkpt>
      <trkpt lat="47.51757" lon="6.74847">
        <ele>329.6</ele>
        <time>2025-09-13T11:35:51Z</time>
      </trkpt>
      <trkpt lat="47.51763" lon="6.74849">
        <ele>329.7</ele>
        <time>2025-09-13T11:35:52Z</time>
      </trkpt>
      <trkpt lat="47.51769" lon="6.74852">
        <ele>329.8</ele>
        <time>2025-09-13T11:35:53Z</time>
      </trkpt>
      <trkpt lat="47.51775" lon="6.74855">
        <ele>329.9</ele>
        <time>2025-09-13T11:35:54Z</time>
      </trkpt>
      <trkpt lat="47.51781" lon="6.74858">
        <ele>330</ele>
        <time>2025-09-13T11:35:55Z</time>
      </trkpt>
      <trkpt lat="47.51786" lon="6.74861">
        <ele>330</ele>
        <time>2025-09-13T11:35:56Z</time>
      </trkpt>
      <trkpt lat="47.51792" lon="6.74864">
        <ele>330</ele>
        <time>2025-09-13T11:35:57Z</time>
      </trkpt>
      <trkpt lat="47.51798" lon="6.74867">
        <ele>330</ele>
        <time>2025-09-13T11:35:58Z</time>
      </trkpt>
      <trkpt lat="47.51804" lon="6.7487">
        <ele>330.1</ele>
        <time>2025-09-13T11:35:59Z</time>
      </trkpt>
      <trkpt lat="47.5181" lon="6.74873">
        <ele>330.1</ele>
        <time>2025-09-13T11:36:00Z</time>
      </trkpt>
      <trkpt lat="47.51816" lon="6.74875">
        <ele>330.1</ele>
        <time>2025-09-13T11:36:01Z</time>
      </trkpt>
      <trkpt lat="47.51823" lon="6.74878">
        <ele>330.1</ele>
        <time>2025-09-13T11:36:02Z</time>
      </trkpt>
      <trkpt lat="47.51829" lon="6.74881">
        <ele>330.1</ele>
        <time>2025-09-13T11:36:03Z</time>
      </trkpt>
      <trkpt lat="47.51835" lon="6.74884">
        <ele>330</ele>
        <time>2025-09-13T11:36:04Z</time>
      </trkpt>
      <trkpt lat="47.51841" lon="6.74888">
        <ele>330</ele>
        <time>2025-09-13T11:36:05Z</time>
      </trkpt>
      <trkpt lat="47.51848" lon="6.74891">
        <ele>329.9</ele>
        <time>2025-09-13T11:36:06Z</time>
      </trkpt>
      <trkpt lat="47.51854" lon="6.74895">
        <ele>329.9</ele>
        <time>2025-09-13T11:36:07Z</time>
      </trkpt>
      <trkpt lat="47.5186" lon="6.74898">
        <ele>329.8</ele>
        <time>2025-09-13T11:36:08Z</time>
      </trkpt>
      <trkpt lat="47.51867" lon="6.74901">
        <ele>329.8</ele>
        <time>2025-09-13T11:36:09Z</time>
      </trkpt>
      <trkpt lat="47.51873" lon="6.74905">
        <ele>329.8</ele>
        <time>2025-09-13T11:36:10Z</time>
      </trkpt>
      <trkpt lat="47.5188" lon="6.74909">
        <ele>329.7</ele>
        <time>2025-09-13T11:36:11Z</time>
      </trkpt>
      <trkpt lat="47.51885" lon="6.74913">
        <ele>329.7</ele>
        <time>2025-09-13T11:36:12Z</time>
      </trkpt>
      <trkpt lat="47.51891" lon="6.74918">
        <ele>329.8</ele>
        <time>2025-09-13T11:36:13Z</time>
      </trkpt>
      <trkpt lat="47.51896" lon="6.74924">
        <ele>329.8</ele>
        <time>2025-09-13T11:36:14Z</time>
      </trkpt>
      <trkpt lat="47.51901" lon="6.7493">
        <ele>329.8</ele>
        <time>2025-09-13T11:36:15Z</time>
      </trkpt>
      <trkpt lat="47.51906" lon="6.74934">
        <ele>329.9</ele>
        <time>2025-09-13T11:36:16Z</time>
      </trkpt>
      <trkpt lat="47.51912" lon="6.74936">
        <ele>329.9</ele>
        <time>2025-09-13T11:36:17Z</time>
      </trkpt>
      <trkpt lat="47.51917" lon="6.74936">
        <ele>330</ele>
        <time>2025-09-13T11:36:18Z</time>
      </trkpt>
      <trkpt lat="47.51922" lon="6.74931">
        <ele>330</ele>
        <time>2025-09-13T11:36:19Z</time>
      </trkpt>
      <trkpt lat="47.51925" lon="6.74922">
        <ele>330.1</ele>
        <time>2025-09-13T11:36:20Z</time>
      </trkpt>
      <trkpt lat="47.51928" lon="6.74914">
        <ele>330.1</ele>
        <time>2025-09-13T11:36:21Z</time>
      </trkpt>
      <trkpt lat="47.5193" lon="6.74906">
        <ele>330.2</ele>
        <time>2025-09-13T11:36:22Z</time>
      </trkpt>
      <trkpt lat="47.51931" lon="6.74899">
        <ele>330.2</ele>
        <time>2025-09-13T11:36:23Z</time>
      </trkpt>
      <trkpt lat="47.51934" lon="6.74891">
        <ele>330.3</ele>
        <time>2025-09-13T11:36:24Z</time>
      </trkpt>
      <trkpt lat="47.51936" lon="6.74882">
        <ele>330.4</ele>
        <time>2025-09-13T11:36:25Z</time>
      </trkpt>
      <trkpt lat="47.51938" lon="6.74875">
        <ele>330.6</ele>
        <time>2025-09-13T11:36:26Z</time>
      </trkpt>
      <trkpt lat="47.5194" lon="6.74868">
        <ele>330.7</ele>
        <time>2025-09-13T11:36:27Z</time>
      </trkpt>
      <trkpt lat="47.51942" lon="6.7486">
        <ele>330.8</ele>
        <time>2025-09-13T11:36:28Z</time>
      </trkpt>
      <trkpt lat="47.51944" lon="6.74853">
        <ele>330.9</ele>
        <time>2025-09-13T11:36:29Z</time>
      </trkpt>
      <trkpt lat="47.51946" lon="6.74846">
        <ele>331</ele>
        <time>2025-09-13T11:36:30Z</time>
      </trkpt>
      <trkpt lat="47.51948" lon="6.74837">
        <ele>331.2</ele>
        <time>2025-09-13T11:36:31Z</time>
      </trkpt>
      <trkpt lat="47.5195" lon="6.7483">
        <ele>331.3</ele>
        <time>2025-09-13T11:36:32Z</time>
      </trkpt>
      <trkpt lat="47.51952" lon="6.74822">
        <ele>331.4</ele>
        <time>2025-09-13T11:36:33Z</time>
      </trkpt>
      <trkpt lat="47.51953" lon="6.74815">
        <ele>331.5</ele>
        <time>2025-09-13T11:36:34Z</time>
      </trkpt>
      <trkpt lat="47.51954" lon="6.74807">
        <ele>331.6</ele>
        <time>2025-09-13T11:36:35Z</time>
      </trkpt>
      <trkpt lat="47.51955" lon="6.748">
        <ele>331.7</ele>
        <time>2025-09-13T11:36:36Z</time>
      </trkpt>
      <trkpt lat="47.51956" lon="6.74793">
        <ele>331.8</ele>
        <time>2025-09-13T11:36:37Z</time>
      </trkpt>
      <trkpt lat="47.51957" lon="6.74785">
        <ele>331.9</ele>
        <time>2025-09-13T11:36:38Z</time>
      </trkpt>
      <trkpt lat="47.51958" lon="6.74777">
        <ele>331.9</ele>
        <time>2025-09-13T11:36:39Z</time>
      </trkpt>
      <trkpt lat="47.51959" lon="6.7477">
        <ele>332</ele>
        <time>2025-09-13T11:36:40Z</time>
      </trkpt>
      <trkpt lat="47.5196" lon="6.74763">
        <ele>332</ele>
        <time>2025-09-13T11:36:41Z</time>
      </trkpt>
      <trkpt lat="47.5196" lon="6.74755">
        <ele>332.1</ele>
        <time>2025-09-13T11:36:42Z</time>
      </trkpt>
      <trkpt lat="47.5196" lon="6.74746">
        <ele>332.1</ele>
        <time>2025-09-13T11:36:43Z</time>
      </trkpt>
      <trkpt lat="47.5196" lon="6.74738">
        <ele>332</ele>
        <time>2025-09-13T11:36:44Z</time>
      </trkpt>
      <trkpt lat="47.51959" lon="6.74731">
        <ele>332</ele>
        <time>2025-09-13T11:36:45Z</time>
      </trkpt>
      <trkpt lat="47.5196" lon="6.74722">
        <ele>331.9</ele>
        <time>2025-09-13T11:36:46Z</time>
      </trkpt>
      <trkpt lat="47.51959" lon="6.74712">
        <ele>331.8</ele>
        <time>2025-09-13T11:36:47Z</time>
      </trkpt>
      <trkpt lat="47.51957" lon="6.74704">
        <ele>331.7</ele>
        <time>2025-09-13T11:36:48Z</time>
      </trkpt>
      <trkpt lat="47.51954" lon="6.74694">
        <ele>331.5</ele>
        <time>2025-09-13T11:36:49Z</time>
      </trkpt>
      <trkpt lat="47.5195" lon="6.74685">
        <ele>331.4</ele>
        <time>2025-09-13T11:36:50Z</time>
      </trkpt>
      <trkpt lat="47.51946" lon="6.74677">
        <ele>331.2</ele>
        <time>2025-09-13T11:36:51Z</time>
      </trkpt>
      <trkpt lat="47.51941" lon="6.7467">
        <ele>331.1</ele>
        <time>2025-09-13T11:36:52Z</time>
      </trkpt>
      <trkpt lat="47.51936" lon="6.74663">
        <ele>331</ele>
        <time>2025-09-13T11:36:53Z</time>
      </trkpt>
      <trkpt lat="47.5193" lon="6.74655">
        <ele>330.8</ele>
        <time>2025-09-13T11:36:54Z</time>
      </trkpt>
      <trkpt lat="47.51925" lon="6.74647">
        <ele>330.7</ele>
        <time>2025-09-13T11:36:55Z</time>
      </trkpt>
      <trkpt lat="47.51919" lon="6.7464">
        <ele>330.6</ele>
        <time>2025-09-13T11:36:56Z</time>
      </trkpt>
      <trkpt lat="47.51913" lon="6.74632">
        <ele>330.5</ele>
        <time>2025-09-13T11:36:57Z</time>
      </trkpt>
      <trkpt lat="47.51907" lon="6.74625">
        <ele>330.4</ele>
        <time>2025-09-13T11:36:58Z</time>
      </trkpt>
      <trkpt lat="47.51901" lon="6.74619">
        <ele>330.4</ele>
        <time>2025-09-13T11:36:59Z</time>
      </trkpt>
      <trkpt lat="47.51896" lon="6.74612">
        <ele>330.4</ele>
        <time>2025-09-13T11:37:00Z</time>
      </trkpt>
      <trkpt lat="47.5189" lon="6.74605">
        <ele>330.5</ele>
        <time>2025-09-13T11:37:01Z</time>
      </trkpt>
      <trkpt lat="47.51885" lon="6.746">
        <ele>330.6</ele>
        <time>2025-09-13T11:37:02Z</time>
      </trkpt>
      <trkpt lat="47.51881" lon="6.74591">
        <ele>330.7</ele>
        <time>2025-09-13T11:37:03Z</time>
      </trkpt>
      <trkpt lat="47.51877" lon="6.74583">
        <ele>330.9</ele>
        <time>2025-09-13T11:37:04Z</time>
      </trkpt>
      <trkpt lat="47.51875" lon="6.74574">
        <ele>330.9</ele>
        <time>2025-09-13T11:37:05Z</time>
      </trkpt>
      <trkpt lat="47.51874" lon="6.74565">
        <ele>331</ele>
        <time>2025-09-13T11:37:06Z</time>
      </trkpt>
      <trkpt lat="47.51872" lon="6.74555">
        <ele>331</ele>
        <time>2025-09-13T11:37:07Z</time>
      </trkpt>
      <trkpt lat="47.51872" lon="6.74546">
        <ele>331.1</ele>
        <time>2025-09-13T11:37:08Z</time>
      </trkpt>
      <trkpt lat="47.51872" lon="6.74536">
        <ele>331.2</ele>
        <time>2025-09-13T11:37:09Z</time>
      </trkpt>
      <trkpt lat="47.51874" lon="6.74527">
        <ele>331.3</ele>
        <time>2025-09-13T11:37:10Z</time>
      </trkpt>
      <trkpt lat="47.51876" lon="6.74519">
        <ele>331.4</ele>
        <time>2025-09-13T11:37:11Z</time>
      </trkpt>
      <trkpt lat="47.51879" lon="6.74511">
        <ele>331.6</ele>
        <time>2025-09-13T11:37:12Z</time>
      </trkpt>
      <trkpt lat="47.51881" lon="6.74502">
        <ele>331.8</ele>
        <time>2025-09-13T11:37:13Z</time>
      </trkpt>
      <trkpt lat="47.51883" lon="6.74494">
        <ele>331.9</ele>
        <time>2025-09-13T11:37:14Z</time>
      </trkpt>
      <trkpt lat="47.51885" lon="6.74486">
        <ele>332.1</ele>
        <time>2025-09-13T11:37:15Z</time>
      </trkpt>
      <trkpt lat="47.51887" lon="6.74478">
        <ele>332.3</ele>
        <time>2025-09-13T11:37:16Z</time>
      </trkpt>
      <trkpt lat="47.51889" lon="6.74471">
        <ele>332.5</ele>
        <time>2025-09-13T11:37:17Z</time>
      </trkpt>
      <trkpt lat="47.51891" lon="6.74463">
        <ele>332.6</ele>
        <time>2025-09-13T11:37:18Z</time>
      </trkpt>
      <trkpt lat="47.51893" lon="6.74455">
        <ele>332.8</ele>
        <time>2025-09-13T11:37:19Z</time>
      </trkpt>
      <trkpt lat="47.51895" lon="6.74447">
        <ele>333</ele>
        <time>2025-09-13T11:37:20Z</time>
      </trkpt>
      <trkpt lat="47.51897" lon="6.74439">
        <ele>333.1</ele>
        <time>2025-09-13T11:37:21Z</time>
      </trkpt>
      <trkpt lat="47.51899" lon="6.74432">
        <ele>333.3</ele>
        <time>2025-09-13T11:37:22Z</time>
      </trkpt>
      <trkpt lat="47.51902" lon="6.74424">
        <ele>333.4</ele>
        <time>2025-09-13T11:37:23Z</time>
      </trkpt>
      <trkpt lat="47.51903" lon="6.74417">
        <ele>333.5</ele>
        <time>2025-09-13T11:37:24Z</time>
      </trkpt>
      <trkpt lat="47.51905" lon="6.74409">
        <ele>333.6</ele>
        <time>2025-09-13T11:37:25Z</time>
      </trkpt>
      <trkpt lat="47.51907" lon="6.74401">
        <ele>333.7</ele>
        <time>2025-09-13T11:37:26Z</time>
      </trkpt>
      <trkpt lat="47.51908" lon="6.74393">
        <ele>333.8</ele>
        <time>2025-09-13T11:37:27Z</time>
      </trkpt>
      <trkpt lat="47.51909" lon="6.74386">
        <ele>333.8</ele>
        <time>2025-09-13T11:37:28Z</time>
      </trkpt>
      <trkpt lat="47.51911" lon="6.74378">
        <ele>333.9</ele>
        <time>2025-09-13T11:37:29Z</time>
      </trkpt>
      <trkpt lat="47.51912" lon="6.7437">
        <ele>334</ele>
        <time>2025-09-13T11:37:30Z</time>
      </trkpt>
      <trkpt lat="47.51913" lon="6.74361">
        <ele>334.1</ele>
        <time>2025-09-13T11:37:31Z</time>
      </trkpt>
      <trkpt lat="47.51915" lon="6.74353">
        <ele>334.2</ele>
        <time>2025-09-13T11:37:32Z</time>
      </trkpt>
      <trkpt lat="47.51916" lon="6.74345">
        <ele>334.3</ele>
        <time>2025-09-13T11:37:33Z</time>
      </trkpt>
      <trkpt lat="47.51918" lon="6.74336">
        <ele>334.4</ele>
        <time>2025-09-13T11:37:34Z</time>
      </trkpt>
      <trkpt lat="47.51919" lon="6.74329">
        <ele>334.5</ele>
        <time>2025-09-13T11:37:35Z</time>
      </trkpt>
      <trkpt lat="47.51921" lon="6.7432">
        <ele>334.6</ele>
        <time>2025-09-13T11:37:36Z</time>
      </trkpt>
      <trkpt lat="47.51922" lon="6.74312">
        <ele>334.7</ele>
        <time>2025-09-13T11:37:37Z</time>
      </trkpt>
      <trkpt lat="47.51924" lon="6.74304">
        <ele>334.7</ele>
        <time>2025-09-13T11:37:38Z</time>
      </trkpt>
      <trkpt lat="47.51926" lon="6.74296">
        <ele>334.8</ele>
        <time>2025-09-13T11:37:39Z</time>
      </trkpt>
      <trkpt lat="47.51927" lon="6.74287">
        <ele>334.8</ele>
        <time>2025-09-13T11:37:40Z</time>
      </trkpt>
      <trkpt lat="47.51928" lon="6.74279">
        <ele>334.9</ele>
        <time>2025-09-13T11:37:41Z</time>
      </trkpt>
      <trkpt lat="47.5193" lon="6.74271">
        <ele>334.9</ele>
        <time>2025-09-13T11:37:42Z</time>
      </trkpt>
      <trkpt lat="47.51932" lon="6.74263">
        <ele>334.9</ele>
        <time>2025-09-13T11:37:43Z</time>
      </trkpt>
      <trkpt lat="47.51933" lon="6.74255">
        <ele>334.9</ele>
        <time>2025-09-13T11:37:44Z</time>
      </trkpt>
      <trkpt lat="47.51935" lon="6.74246">
        <ele>334.9</ele>
        <time>2025-09-13T11:37:45Z</time>
      </trkpt>
      <trkpt lat="47.51936" lon="6.74237">
        <ele>335</ele>
        <time>2025-09-13T11:37:46Z</time>
      </trkpt>
      <trkpt lat="47.51937" lon="6.74228">
        <ele>335</ele>
        <time>2025-09-13T11:37:47Z</time>
      </trkpt>
      <trkpt lat="47.51939" lon="6.74219">
        <ele>335</ele>
        <time>2025-09-13T11:37:48Z</time>
      </trkpt>
      <trkpt lat="47.5194" lon="6.74211">
        <ele>335.1</ele>
        <time>2025-09-13T11:37:49Z</time>
      </trkpt>
      <trkpt lat="47.51942" lon="6.74201">
        <ele>335.1</ele>
        <time>2025-09-13T11:37:50Z</time>
      </trkpt>
      <trkpt lat="47.51943" lon="6.74193">
        <ele>335.2</ele>
        <time>2025-09-13T11:37:51Z</time>
      </trkpt>
      <trkpt lat="47.51945" lon="6.74184">
        <ele>335.2</ele>
        <time>2025-09-13T11:37:52Z</time>
      </trkpt>
      <trkpt lat="47.51946" lon="6.74176">
        <ele>335.3</ele>
        <time>2025-09-13T11:37:53Z</time>
      </trkpt>
      <trkpt lat="47.51948" lon="6.74167">
        <ele>335.4</ele>
        <time>2025-09-13T11:37:54Z</time>
      </trkpt>
      <trkpt lat="47.51949" lon="6.74156">
        <ele>335.4</ele>
        <time>2025-09-13T11:37:55Z</time>
      </trkpt>
      <trkpt lat="47.51951" lon="6.74147">
        <ele>335.5</ele>
        <time>2025-09-13T11:37:56Z</time>
      </trkpt>
      <trkpt lat="47.51952" lon="6.7414">
        <ele>335.5</ele>
        <time>2025-09-13T11:37:57Z</time>
      </trkpt>
      <trkpt lat="47.51954" lon="6.74131">
        <ele>335.5</ele>
        <time>2025-09-13T11:37:58Z</time>
      </trkpt>
      <trkpt lat="47.51956" lon="6.74123">
        <ele>335.5</ele>
        <time>2025-09-13T11:37:59Z</time>
      </trkpt>
      <trkpt lat="47.51958" lon="6.74115">
        <ele>335.6</ele>
        <time>2025-09-13T11:38:00Z</time>
      </trkpt>
      <trkpt lat="47.51961" lon="6.74106">
        <ele>335.6</ele>
        <time>2025-09-13T11:38:01Z</time>
      </trkpt>
      <trkpt lat="47.51963" lon="6.74099">
        <ele>335.6</ele>
        <time>2025-09-13T11:38:02Z</time>
      </trkpt>
      <trkpt lat="47.51966" lon="6.7409">
        <ele>335.6</ele>
        <time>2025-09-13T11:38:03Z</time>
      </trkpt>
      <trkpt lat="47.5197" lon="6.74083">
        <ele>335.6</ele>
        <time>2025-09-13T11:38:04Z</time>
      </trkpt>
      <trkpt lat="47.51973" lon="6.74074">
        <ele>335.6</ele>
        <time>2025-09-13T11:38:05Z</time>
      </trkpt>
      <trkpt lat="47.51976" lon="6.74067">
        <ele>335.6</ele>
        <time>2025-09-13T11:38:06Z</time>
      </trkpt>
      <trkpt lat="47.5198" lon="6.74059">
        <ele>335.6</ele>
        <time>2025-09-13T11:38:07Z</time>
      </trkpt>
      <trkpt lat="47.51984" lon="6.74052">
        <ele>335.6</ele>
        <time>2025-09-13T11:38:08Z</time>
      </trkpt>
      <trkpt lat="47.51988" lon="6.74044">
        <ele>335.6</ele>
        <time>2025-09-13T11:38:09Z</time>
      </trkpt>
      <trkpt lat="47.51991" lon="6.74037">
        <ele>335.5</ele>
        <time>2025-09-13T11:38:10Z</time>
      </trkpt>
      <trkpt lat="47.51995" lon="6.7403">
        <ele>335.5</ele>
        <time>2025-09-13T11:38:11Z</time>
      </trkpt>
      <trkpt lat="47.52" lon="6.74022">
        <ele>335.4</ele>
        <time>2025-09-13T11:38:12Z</time>
      </trkpt>
      <trkpt lat="47.52004" lon="6.74015">
        <ele>335.3</ele>
        <time>2025-09-13T11:38:13Z</time>
      </trkpt>
      <trkpt lat="47.52008" lon="6.74008">
        <ele>335.2</ele>
        <time>2025-09-13T11:38:14Z</time>
      </trkpt>
      <trkpt lat="47.52013" lon="6.74001">
        <ele>335.1</ele>
        <time>2025-09-13T11:38:15Z</time>
      </trkpt>
      <trkpt lat="47.52018" lon="6.73992">
        <ele>335</ele>
        <time>2025-09-13T11:38:16Z</time>
      </trkpt>
      <trkpt lat="47.52023" lon="6.73984">
        <ele>334.8</ele>
        <time>2025-09-13T11:38:17Z</time>
      </trkpt>
      <trkpt lat="47.52027" lon="6.73977">
        <ele>334.7</ele>
        <time>2025-09-13T11:38:18Z</time>
      </trkpt>
      <trkpt lat="47.52031" lon="6.73968">
        <ele>334.6</ele>
        <time>2025-09-13T11:38:19Z</time>
      </trkpt>
      <trkpt lat="47.52036" lon="6.73959">
        <ele>334.5</ele>
        <time>2025-09-13T11:38:20Z</time>
      </trkpt>
      <trkpt lat="47.52041" lon="6.73952">
        <ele>334.4</ele>
        <time>2025-09-13T11:38:21Z</time>
      </trkpt>
      <trkpt lat="47.52045" lon="6.73944">
        <ele>334.3</ele>
        <time>2025-09-13T11:38:22Z</time>
      </trkpt>
      <trkpt lat="47.5205" lon="6.73937">
        <ele>334.3</ele>
        <time>2025-09-13T11:38:23Z</time>
      </trkpt>
      <trkpt lat="47.52054" lon="6.73929">
        <ele>334.2</ele>
        <time>2025-09-13T11:38:24Z</time>
      </trkpt>
      <trkpt lat="47.52059" lon="6.73922">
        <ele>334.2</ele>
        <time>2025-09-13T11:38:25Z</time>
      </trkpt>
      <trkpt lat="47.52063" lon="6.73914">
        <ele>334.1</ele>
        <time>2025-09-13T11:38:26Z</time>
      </trkpt>
      <trkpt lat="47.52068" lon="6.73907">
        <ele>334.1</ele>
        <time>2025-09-13T11:38:27Z</time>
      </trkpt>
      <trkpt lat="47.52072" lon="6.73899">
        <ele>334.1</ele>
        <time>2025-09-13T11:38:28Z</time>
      </trkpt>
      <trkpt lat="47.52076" lon="6.73892">
        <ele>334.1</ele>
        <time>2025-09-13T11:38:29Z</time>
      </trkpt>
      <trkpt lat="47.52081" lon="6.73885">
        <ele>334.1</ele>
        <time>2025-09-13T11:38:30Z</time>
      </trkpt>
      <trkpt lat="47.52085" lon="6.73878">
        <ele>334.1</ele>
        <time>2025-09-13T11:38:31Z</time>
      </trkpt>
      <trkpt lat="47.52089" lon="6.73872">
        <ele>334.1</ele>
        <time>2025-09-13T11:38:32Z</time>
      </trkpt>
      <trkpt lat="47.52094" lon="6.73864">
        <ele>334.1</ele>
        <time>2025-09-13T11:38:33Z</time>
      </trkpt>
      <trkpt lat="47.52098" lon="6.73857">
        <ele>334.2</ele>
        <time>2025-09-13T11:38:34Z</time>
      </trkpt>
      <trkpt lat="47.52103" lon="6.7385">
        <ele>334.2</ele>
        <time>2025-09-13T11:38:35Z</time>
      </trkpt>
      <trkpt lat="47.52107" lon="6.73843">
        <ele>334.3</ele>
        <time>2025-09-13T11:38:36Z</time>
      </trkpt>
      <trkpt lat="47.52112" lon="6.73837">
        <ele>334.3</ele>
        <time>2025-09-13T11:38:37Z</time>
      </trkpt>
      <trkpt lat="47.52116" lon="6.7383">
        <ele>334.4</ele>
        <time>2025-09-13T11:38:38Z</time>
      </trkpt>
      <trkpt lat="47.5212" lon="6.73823">
        <ele>334.4</ele>
        <time>2025-09-13T11:38:39Z</time>
      </trkpt>
      <trkpt lat="47.52125" lon="6.73816">
        <ele>334.5</ele>
        <time>2025-09-13T11:38:40Z</time>
      </trkpt>
      <trkpt lat="47.52129" lon="6.7381">
        <ele>334.5</ele>
        <time>2025-09-13T11:38:41Z</time>
      </trkpt>
      <trkpt lat="47.52134" lon="6.73803">
        <ele>334.6</ele>
        <time>2025-09-13T11:38:42Z</time>
      </trkpt>
      <trkpt lat="47.52138" lon="6.73796">
        <ele>334.6</ele>
        <time>2025-09-13T11:38:43Z</time>
      </trkpt>
      <trkpt lat="47.52142" lon="6.7379">
        <ele>334.6</ele>
        <time>2025-09-13T11:38:44Z</time>
      </trkpt>
      <trkpt lat="47.52147" lon="6.73783">
        <ele>334.7</ele>
        <time>2025-09-13T11:38:45Z</time>
      </trkpt>
      <trkpt lat="47.52152" lon="6.73777">
        <ele>334.7</ele>
        <time>2025-09-13T11:38:46Z</time>
      </trkpt>
      <trkpt lat="47.52157" lon="6.73771">
        <ele>334.8</ele>
        <time>2025-09-13T11:38:47Z</time>
      </trkpt>
      <trkpt lat="47.52161" lon="6.73764">
        <ele>334.8</ele>
        <time>2025-09-13T11:38:48Z</time>
      </trkpt>
      <trkpt lat="47.52166" lon="6.73758">
        <ele>334.9</ele>
        <time>2025-09-13T11:38:49Z</time>
      </trkpt>
      <trkpt lat="47.52171" lon="6.7375">
        <ele>335</ele>
        <time>2025-09-13T11:38:50Z</time>
      </trkpt>
      <trkpt lat="47.52175" lon="6.73742">
        <ele>335</ele>
        <time>2025-09-13T11:38:51Z</time>
      </trkpt>
      <trkpt lat="47.52179" lon="6.73736">
        <ele>335.1</ele>
        <time>2025-09-13T11:38:52Z</time>
      </trkpt>
      <trkpt lat="47.52184" lon="6.7373">
        <ele>335.2</ele>
        <time>2025-09-13T11:38:53Z</time>
      </trkpt>
      <trkpt lat="47.52188" lon="6.73723">
        <ele>335.3</ele>
        <time>2025-09-13T11:38:54Z</time>
      </trkpt>
      <trkpt lat="47.52192" lon="6.73717">
        <ele>335.4</ele>
        <time>2025-09-13T11:38:55Z</time>
      </trkpt>
      <trkpt lat="47.52195" lon="6.7371">
        <ele>335.5</ele>
        <time>2025-09-13T11:38:56Z</time>
      </trkpt>
      <trkpt lat="47.52199" lon="6.73702">
        <ele>335.6</ele>
        <time>2025-09-13T11:38:57Z</time>
      </trkpt>
      <trkpt lat="47.52203" lon="6.73695">
        <ele>335.7</ele>
        <time>2025-09-13T11:38:58Z</time>
      </trkpt>
      <trkpt lat="47.52207" lon="6.73687">
        <ele>335.7</ele>
        <time>2025-09-13T11:38:59Z</time>
      </trkpt>
      <trkpt lat="47.52211" lon="6.7368">
        <ele>335.7</ele>
        <time>2025-09-13T11:39:00Z</time>
      </trkpt>
      <trkpt lat="47.52214" lon="6.73673">
        <ele>335.7</ele>
        <time>2025-09-13T11:39:01Z</time>
      </trkpt>
      <trkpt lat="47.52219" lon="6.73667">
        <ele>335.8</ele>
        <time>2025-09-13T11:39:02Z</time>
      </trkpt>
      <trkpt lat="47.52223" lon="6.7366">
        <ele>335.9</ele>
        <time>2025-09-13T11:39:03Z</time>
      </trkpt>
      <trkpt lat="47.52227" lon="6.73653">
        <ele>335.9</ele>
        <time>2025-09-13T11:39:04Z</time>
      </trkpt>
      <trkpt lat="47.52232" lon="6.73647">
        <ele>335.9</ele>
        <time>2025-09-13T11:39:05Z</time>
      </trkpt>
      <trkpt lat="47.52236" lon="6.7364">
        <ele>335.9</ele>
        <time>2025-09-13T11:39:06Z</time>
      </trkpt>
      <trkpt lat="47.52242" lon="6.73634">
        <ele>335.9</ele>
        <time>2025-09-13T11:39:07Z</time>
      </trkpt>
      <trkpt lat="47.52247" lon="6.73628">
        <ele>335.9</ele>
        <time>2025-09-13T11:39:08Z</time>
      </trkpt>
      <trkpt lat="47.52253" lon="6.73622">
        <ele>335.9</ele>
        <time>2025-09-13T11:39:09Z</time>
      </trkpt>
      <trkpt lat="47.52259" lon="6.73616">
        <ele>335.8</ele>
        <time>2025-09-13T11:39:10Z</time>
      </trkpt>
      <trkpt lat="47.52264" lon="6.73611">
        <ele>335.8</ele>
        <time>2025-09-13T11:39:11Z</time>
      </trkpt>
      <trkpt lat="47.5227" lon="6.73606">
        <ele>335.8</ele>
        <time>2025-09-13T11:39:12Z</time>
      </trkpt>
      <trkpt lat="47.52276" lon="6.73601">
        <ele>335.8</ele>
        <time>2025-09-13T11:39:13Z</time>
      </trkpt>
      <trkpt lat="47.52283" lon="6.73597">
        <ele>335.7</ele>
        <time>2025-09-13T11:39:14Z</time>
      </trkpt>
      <trkpt lat="47.52289" lon="6.73593">
        <ele>335.7</ele>
        <time>2025-09-13T11:39:15Z</time>
      </trkpt>
      <trkpt lat="47.52295" lon="6.73591">
        <ele>335.7</ele>
        <time>2025-09-13T11:39:16Z</time>
      </trkpt>
      <trkpt lat="47.52302" lon="6.73587">
        <ele>335.6</ele>
        <time>2025-09-13T11:39:17Z</time>
      </trkpt>
      <trkpt lat="47.52309" lon="6.73584">
        <ele>335.6</ele>
        <time>2025-09-13T11:39:18Z</time>
      </trkpt>
      <trkpt lat="47.52315" lon="6.73582">
        <ele>335.5</ele>
        <time>2025-09-13T11:39:19Z</time>
      </trkpt>
      <trkpt lat="47.52322" lon="6.73581">
        <ele>335.4</ele>
        <time>2025-09-13T11:39:20Z</time>
      </trkpt>
      <trkpt lat="47.52329" lon="6.73579">
        <ele>335.3</ele>
        <time>2025-09-13T11:39:21Z</time>
      </trkpt>
      <trkpt lat="47.52336" lon="6.73579">
        <ele>335.2</ele>
        <time>2025-09-13T11:39:22Z</time>
      </trkpt>
      <trkpt lat="47.52343" lon="6.73578">
        <ele>335.2</ele>
        <time>2025-09-13T11:39:23Z</time>
      </trkpt>
      <trkpt lat="47.52349" lon="6.73576">
        <ele>335.1</ele>
        <time>2025-09-13T11:39:24Z</time>
      </trkpt>
      <trkpt lat="47.52357" lon="6.73575">
        <ele>335</ele>
        <time>2025-09-13T11:39:25Z</time>
      </trkpt>
      <trkpt lat="47.52364" lon="6.73574">
        <ele>334.9</ele>
        <time>2025-09-13T11:39:26Z</time>
      </trkpt>
      <trkpt lat="47.52369" lon="6.73572">
        <ele>334.9</ele>
        <time>2025-09-13T11:39:27Z</time>
      </trkpt>
      <trkpt lat="47.52376" lon="6.7357">
        <ele>334.8</ele>
        <time>2025-09-13T11:39:28Z</time>
      </trkpt>
      <trkpt lat="47.52383" lon="6.73568">
        <ele>334.8</ele>
        <time>2025-09-13T11:39:29Z</time>
      </trkpt>
      <trkpt lat="47.52389" lon="6.73565">
        <ele>334.8</ele>
        <time>2025-09-13T11:39:30Z</time>
      </trkpt>
      <trkpt lat="47.52396" lon="6.73562">
        <ele>334.8</ele>
        <time>2025-09-13T11:39:31Z</time>
      </trkpt>
      <trkpt lat="47.52402" lon="6.73559">
        <ele>334.8</ele>
        <time>2025-09-13T11:39:32Z</time>
      </trkpt>
      <trkpt lat="47.52408" lon="6.73555">
        <ele>334.8</ele>
        <time>2025-09-13T11:39:33Z</time>
      </trkpt>
      <trkpt lat="47.52414" lon="6.73551">
        <ele>334.8</ele>
        <time>2025-09-13T11:39:34Z</time>
      </trkpt>
      <trkpt lat="47.5242" lon="6.73547">
        <ele>334.8</ele>
        <time>2025-09-13T11:39:35Z</time>
      </trkpt>
      <trkpt lat="47.52426" lon="6.73543">
        <ele>334.8</ele>
        <time>2025-09-13T11:39:36Z</time>
      </trkpt>
      <trkpt lat="47.52432" lon="6.73539">
        <ele>334.9</ele>
        <time>2025-09-13T11:39:37Z</time>
      </trkpt>
      <trkpt lat="47.52438" lon="6.73534">
        <ele>334.9</ele>
        <time>2025-09-13T11:39:38Z</time>
      </trkpt>
      <trkpt lat="47.52442" lon="6.73529">
        <ele>335</ele>
        <time>2025-09-13T11:39:39Z</time>
      </trkpt>
      <trkpt lat="47.52447" lon="6.73523">
        <ele>335</ele>
        <time>2025-09-13T11:39:40Z</time>
      </trkpt>
      <trkpt lat="47.52452" lon="6.73516">
        <ele>335.1</ele>
        <time>2025-09-13T11:39:41Z</time>
      </trkpt>
      <trkpt lat="47.52456" lon="6.73509">
        <ele>335.2</ele>
        <time>2025-09-13T11:39:42Z</time>
      </trkpt>
      <trkpt lat="47.5246" lon="6.73501">
        <ele>335.3</ele>
        <time>2025-09-13T11:39:43Z</time>
      </trkpt>
      <trkpt lat="47.52464" lon="6.73493">
        <ele>335.4</ele>
        <time>2025-09-13T11:39:44Z</time>
      </trkpt>
      <trkpt lat="47.52467" lon="6.73486">
        <ele>335.5</ele>
        <time>2025-09-13T11:39:45Z</time>
      </trkpt>
      <trkpt lat="47.5247" lon="6.73478">
        <ele>335.5</ele>
        <time>2025-09-13T11:39:46Z</time>
      </trkpt>
      <trkpt lat="47.52473" lon="6.7347">
        <ele>335.6</ele>
        <time>2025-09-13T11:39:47Z</time>
      </trkpt>
      <trkpt lat="47.52476" lon="6.73461">
        <ele>335.7</ele>
        <time>2025-09-13T11:39:48Z</time>
      </trkpt>
      <trkpt lat="47.52478" lon="6.73453">
        <ele>335.8</ele>
        <time>2025-09-13T11:39:49Z</time>
      </trkpt>
      <trkpt lat="47.52481" lon="6.73445">
        <ele>335.9</ele>
        <time>2025-09-13T11:39:50Z</time>
      </trkpt>
      <trkpt lat="47.52484" lon="6.73437">
        <ele>335.9</ele>
        <time>2025-09-13T11:39:51Z</time>
      </trkpt>
      <trkpt lat="47.52487" lon="6.73429">
        <ele>336</ele>
        <time>2025-09-13T11:39:52Z</time>
      </trkpt>
      <trkpt lat="47.52491" lon="6.73421">
        <ele>336</ele>
        <time>2025-09-13T11:39:53Z</time>
      </trkpt>
      <trkpt lat="47.52494" lon="6.73412">
        <ele>336.1</ele>
        <time>2025-09-13T11:39:54Z</time>
      </trkpt>
      <trkpt lat="47.52497" lon="6.73404">
        <ele>336.2</ele>
        <time>2025-09-13T11:39:55Z</time>
      </trkpt>
      <trkpt lat="47.525" lon="6.73396">
        <ele>336.3</ele>
        <time>2025-09-13T11:39:56Z</time>
      </trkpt>
      <trkpt lat="47.52503" lon="6.73388">
        <ele>336.4</ele>
        <time>2025-09-13T11:39:57Z</time>
      </trkpt>
      <trkpt lat="47.52505" lon="6.7338">
        <ele>336.6</ele>
        <time>2025-09-13T11:39:58Z</time>
      </trkpt>
      <trkpt lat="47.52508" lon="6.73373">
        <ele>336.7</ele>
        <time>2025-09-13T11:39:59Z</time>
      </trkpt>
      <trkpt lat="47.5251" lon="6.73365">
        <ele>336.8</ele>
        <time>2025-09-13T11:40:00Z</time>
      </trkpt>
      <trkpt lat="47.52513" lon="6.73357">
        <ele>336.9</ele>
        <time>2025-09-13T11:40:01Z</time>
      </trkpt>
      <trkpt lat="47.52515" lon="6.73349">
        <ele>337.1</ele>
        <time>2025-09-13T11:40:02Z</time>
      </trkpt>
      <trkpt lat="47.52517" lon="6.73341">
        <ele>337.2</ele>
        <time>2025-09-13T11:40:03Z</time>
      </trkpt>
      <trkpt lat="47.52518" lon="6.73333">
        <ele>337.4</ele>
        <time>2025-09-13T11:40:04Z</time>
      </trkpt>
      <trkpt lat="47.52519" lon="6.73324">
        <ele>337.6</ele>
        <time>2025-09-13T11:40:05Z</time>
      </trkpt>
      <trkpt lat="47.5252" lon="6.73317">
        <ele>337.7</ele>
        <time>2025-09-13T11:40:06Z</time>
      </trkpt>
      <trkpt lat="47.52521" lon="6.73309">
        <ele>337.9</ele>
        <time>2025-09-13T11:40:07Z</time>
      </trkpt>
      <trkpt lat="47.52522" lon="6.733">
        <ele>338</ele>
        <time>2025-09-13T11:40:08Z</time>
      </trkpt>
      <trkpt lat="47.52522" lon="6.73292">
        <ele>338.2</ele>
        <time>2025-09-13T11:40:09Z</time>
      </trkpt>
      <trkpt lat="47.52522" lon="6.73284">
        <ele>338.4</ele>
        <time>2025-09-13T11:40:10Z</time>
      </trkpt>
      <trkpt lat="47.52522" lon="6.73275">
        <ele>338.5</ele>
        <time>2025-09-13T11:40:11Z</time>
      </trkpt>
      <trkpt lat="47.52522" lon="6.73267">
        <ele>338.7</ele>
        <time>2025-09-13T11:40:12Z</time>
      </trkpt>
      <trkpt lat="47.52521" lon="6.73259">
        <ele>338.9</ele>
        <time>2025-09-13T11:40:13Z</time>
      </trkpt>
      <trkpt lat="47.5252" lon="6.73251">
        <ele>339</ele>
        <time>2025-09-13T11:40:14Z</time>
      </trkpt>
      <trkpt lat="47.52519" lon="6.73244">
        <ele>339.1</ele>
        <time>2025-09-13T11:40:15Z</time>
      </trkpt>
      <trkpt lat="47.52519" lon="6.73236">
        <ele>339.3</ele>
        <time>2025-09-13T11:40:16Z</time>
      </trkpt>
      <trkpt lat="47.52518" lon="6.73229">
        <ele>339.4</ele>
        <time>2025-09-13T11:40:17Z</time>
      </trkpt>
      <trkpt lat="47.52517" lon="6.73221">
        <ele>339.5</ele>
        <time>2025-09-13T11:40:18Z</time>
      </trkpt>
      <trkpt lat="47.52515" lon="6.73213">
        <ele>339.7</ele>
        <time>2025-09-13T11:40:19Z</time>
      </trkpt>
      <trkpt lat="47.52514" lon="6.73206">
        <ele>339.8</ele>
        <time>2025-09-13T11:40:20Z</time>
      </trkpt>
      <trkpt lat="47.52513" lon="6.73198">
        <ele>339.8</ele>
        <time>2025-09-13T11:40:21Z</time>
      </trkpt>
      <trkpt lat="47.52511" lon="6.7319">
        <ele>339.9</ele>
        <time>2025-09-13T11:40:22Z</time>
      </trkpt>
      <trkpt lat="47.5251" lon="6.73182">
        <ele>339.9</ele>
        <time>2025-09-13T11:40:23Z</time>
      </trkpt>
      <trkpt lat="47.52509" lon="6.73174">
        <ele>339.9</ele>
        <time>2025-09-13T11:40:24Z</time>
      </trkpt>
      <trkpt lat="47.52507" lon="6.73166">
        <ele>339.9</ele>
        <time>2025-09-13T11:40:25Z</time>
      </trkpt>
      <trkpt lat="47.52506" lon="6.73159">
        <ele>339.9</ele>
        <time>2025-09-13T11:40:26Z</time>
      </trkpt>
      <trkpt lat="47.52504" lon="6.7315">
        <ele>339.9</ele>
        <time>2025-09-13T11:40:27Z</time>
      </trkpt>
      <trkpt lat="47.52502" lon="6.7314">
        <ele>339.8</ele>
        <time>2025-09-13T11:40:29Z</time>
      </trkpt>
      <trkpt lat="47.52501" lon="6.73131">
        <ele>339.7</ele>
        <time>2025-09-13T11:40:30Z</time>
      </trkpt>
      <trkpt lat="47.525" lon="6.73121">
        <ele>339.5</ele>
        <time>2025-09-13T11:40:31Z</time>
      </trkpt>
      <trkpt lat="47.525" lon="6.7311">
        <ele>339.3</ele>
        <time>2025-09-13T11:40:32Z</time>
      </trkpt>
      <trkpt lat="47.525" lon="6.731">
        <ele>339.1</ele>
        <time>2025-09-13T11:40:33Z</time>
      </trkpt>
      <trkpt lat="47.52501" lon="6.7309">
        <ele>339</ele>
        <time>2025-09-13T11:40:34Z</time>
      </trkpt>
      <trkpt lat="47.52503" lon="6.73079">
        <ele>338.8</ele>
        <time>2025-09-13T11:40:35Z</time>
      </trkpt>
      <trkpt lat="47.52505" lon="6.73068">
        <ele>338.7</ele>
        <time>2025-09-13T11:40:36Z</time>
      </trkpt>
      <trkpt lat="47.52506" lon="6.73058">
        <ele>338.6</ele>
        <time>2025-09-13T11:40:37Z</time>
      </trkpt>
      <trkpt lat="47.52508" lon="6.73049">
        <ele>338.5</ele>
        <time>2025-09-13T11:40:38Z</time>
      </trkpt>
      <trkpt lat="47.5251" lon="6.7304">
        <ele>338.5</ele>
        <time>2025-09-13T11:40:39Z</time>
      </trkpt>
      <trkpt lat="47.52511" lon="6.7303">
        <ele>338.4</ele>
        <time>2025-09-13T11:40:40Z</time>
      </trkpt>
      <trkpt lat="47.52513" lon="6.73021">
        <ele>338.3</ele>
        <time>2025-09-13T11:40:41Z</time>
      </trkpt>
      <trkpt lat="47.52515" lon="6.73011">
        <ele>338.2</ele>
        <time>2025-09-13T11:40:42Z</time>
      </trkpt>
      <trkpt lat="47.52517" lon="6.73003">
        <ele>338.2</ele>
        <time>2025-09-13T11:40:43Z</time>
      </trkpt>
      <trkpt lat="47.52519" lon="6.72993">
        <ele>338.1</ele>
        <time>2025-09-13T11:40:44Z</time>
      </trkpt>
      <trkpt lat="47.52521" lon="6.72983">
        <ele>338</ele>
        <time>2025-09-13T11:40:45Z</time>
      </trkpt>
      <trkpt lat="47.52523" lon="6.72974">
        <ele>338</ele>
        <time>2025-09-13T11:40:46Z</time>
      </trkpt>
      <trkpt lat="47.52525" lon="6.72965">
        <ele>337.9</ele>
        <time>2025-09-13T11:40:47Z</time>
      </trkpt>
      <trkpt lat="47.52527" lon="6.72955">
        <ele>337.8</ele>
        <time>2025-09-13T11:40:48Z</time>
      </trkpt>
      <trkpt lat="47.52529" lon="6.72946">
        <ele>337.8</ele>
        <time>2025-09-13T11:40:49Z</time>
      </trkpt>
      <trkpt lat="47.52533" lon="6.72926">
        <ele>337.6</ele>
        <time>2025-09-13T11:40:50Z</time>
      </trkpt>
      <trkpt lat="47.52536" lon="6.72917">
        <ele>337.5</ele>
        <time>2025-09-13T11:40:51Z</time>
      </trkpt>
      <trkpt lat="47.52539" lon="6.72908">
        <ele>337.5</ele>
        <time>2025-09-13T11:40:52Z</time>
      </trkpt>
      <trkpt lat="47.52542" lon="6.72899">
        <ele>337.4</ele>
        <time>2025-09-13T11:40:53Z</time>
      </trkpt>
      <trkpt lat="47.52546" lon="6.72892">
        <ele>337.3</ele>
        <time>2025-09-13T11:40:54Z</time>
      </trkpt>
      <trkpt lat="47.52551" lon="6.72884">
        <ele>337.2</ele>
        <time>2025-09-13T11:40:55Z</time>
      </trkpt>
      <trkpt lat="47.52556" lon="6.72877">
        <ele>337.2</ele>
        <time>2025-09-13T11:40:56Z</time>
      </trkpt>
      <trkpt lat="47.52562" lon="6.72871">
        <ele>337.2</ele>
        <time>2025-09-13T11:40:57Z</time>
      </trkpt>
      <trkpt lat="47.52568" lon="6.72867">
        <ele>337.1</ele>
        <time>2025-09-13T11:40:58Z</time>
      </trkpt>
      <trkpt lat="47.52575" lon="6.72863">
        <ele>337.1</ele>
        <time>2025-09-13T11:40:59Z</time>
      </trkpt>
      <trkpt lat="47.52581" lon="6.7286">
        <ele>337.1</ele>
        <time>2025-09-13T11:41:00Z</time>
      </trkpt>
      <trkpt lat="47.52587" lon="6.72858">
        <ele>337.1</ele>
        <time>2025-09-13T11:41:01Z</time>
      </trkpt>
      <trkpt lat="47.52593" lon="6.72854">
        <ele>337.1</ele>
        <time>2025-09-13T11:41:02Z</time>
      </trkpt>
      <trkpt lat="47.52599" lon="6.72853">
        <ele>337.1</ele>
        <time>2025-09-13T11:41:03Z</time>
      </trkpt>
      <trkpt lat="47.52606" lon="6.72849">
        <ele>337.1</ele>
        <time>2025-09-13T11:41:04Z</time>
      </trkpt>
      <trkpt lat="47.52612" lon="6.72846">
        <ele>337.1</ele>
        <time>2025-09-13T11:41:05Z</time>
      </trkpt>
      <trkpt lat="47.52618" lon="6.72843">
        <ele>337.1</ele>
        <time>2025-09-13T11:41:06Z</time>
      </trkpt>
      <trkpt lat="47.52624" lon="6.72839">
        <ele>337.1</ele>
        <time>2025-09-13T11:41:07Z</time>
      </trkpt>
      <trkpt lat="47.5263" lon="6.72836">
        <ele>337.2</ele>
        <time>2025-09-13T11:41:08Z</time>
      </trkpt>
      <trkpt lat="47.52636" lon="6.72832">
        <ele>337.3</ele>
        <time>2025-09-13T11:41:09Z</time>
      </trkpt>
      <trkpt lat="47.52642" lon="6.72829">
        <ele>337.3</ele>
        <time>2025-09-13T11:41:10Z</time>
      </trkpt>
      <trkpt lat="47.52648" lon="6.72826">
        <ele>337.4</ele>
        <time>2025-09-13T11:41:11Z</time>
      </trkpt>
      <trkpt lat="47.52654" lon="6.72823">
        <ele>337.5</ele>
        <time>2025-09-13T11:41:12Z</time>
      </trkpt>
      <trkpt lat="47.52659" lon="6.72821">
        <ele>337.6</ele>
        <time>2025-09-13T11:41:13Z</time>
      </trkpt>
      <trkpt lat="47.52665" lon="6.72824">
        <ele>337.6</ele>
        <time>2025-09-13T11:41:14Z</time>
      </trkpt>
      <trkpt lat="47.52671" lon="6.72829">
        <ele>337.5</ele>
        <time>2025-09-13T11:41:15Z</time>
      </trkpt>
      <trkpt lat="47.52675" lon="6.72835">
        <ele>337.5</ele>
        <time>2025-09-13T11:41:16Z</time>
      </trkpt>
      <trkpt lat="47.52681" lon="6.72842">
        <ele>337.4</ele>
        <time>2025-09-13T11:41:17Z</time>
      </trkpt>
      <trkpt lat="47.52687" lon="6.72846">
        <ele>337.4</ele>
        <time>2025-09-13T11:41:18Z</time>
      </trkpt>
      <trkpt lat="47.52695" lon="6.72846">
        <ele>337.4</ele>
        <time>2025-09-13T11:41:19Z</time>
      </trkpt>
      <trkpt lat="47.52701" lon="6.72845">
        <ele>337.5</ele>
        <time>2025-09-13T11:41:20Z</time>
      </trkpt>
      <trkpt lat="47.52708" lon="6.72843">
        <ele>337.5</ele>
        <time>2025-09-13T11:41:21Z</time>
      </trkpt>
      <trkpt lat="47.52714" lon="6.7284">
        <ele>337.6</ele>
        <time>2025-09-13T11:41:22Z</time>
      </trkpt>
      <trkpt lat="47.5272" lon="6.72836">
        <ele>337.7</ele>
        <time>2025-09-13T11:41:23Z</time>
      </trkpt>
      <trkpt lat="47.52725" lon="6.72833">
        <ele>337.7</ele>
        <time>2025-09-13T11:41:24Z</time>
      </trkpt>
      <trkpt lat="47.5273" lon="6.7283">
        <ele>337.8</ele>
        <time>2025-09-13T11:41:25Z</time>
      </trkpt>
      <trkpt lat="47.52735" lon="6.72825">
        <ele>337.9</ele>
        <time>2025-09-13T11:41:26Z</time>
      </trkpt>
      <trkpt lat="47.52739" lon="6.72822">
        <ele>338</ele>
        <time>2025-09-13T11:41:27Z</time>
      </trkpt>
      <trkpt lat="47.52745" lon="6.72818">
        <ele>338.2</ele>
        <time>2025-09-13T11:41:28Z</time>
      </trkpt>
      <trkpt lat="47.52749" lon="6.72815">
        <ele>338.3</ele>
        <time>2025-09-13T11:41:29Z</time>
      </trkpt>
      <trkpt lat="47.52754" lon="6.7281">
        <ele>338.4</ele>
        <time>2025-09-13T11:41:30Z</time>
      </trkpt>
      <trkpt lat="47.52758" lon="6.72806">
        <ele>338.5</ele>
        <time>2025-09-13T11:41:31Z</time>
      </trkpt>
      <trkpt lat="47.52763" lon="6.72801">
        <ele>338.6</ele>
        <time>2025-09-13T11:41:32Z</time>
      </trkpt>
      <trkpt lat="47.52767" lon="6.72798">
        <ele>338.6</ele>
        <time>2025-09-13T11:41:33Z</time>
      </trkpt>
      <trkpt lat="47.52772" lon="6.72794">
        <ele>338.6</ele>
        <time>2025-09-13T11:41:34Z</time>
      </trkpt>
      <trkpt lat="47.52778" lon="6.72789">
        <ele>338.6</ele>
        <time>2025-09-13T11:41:35Z</time>
      </trkpt>
      <trkpt lat="47.52782" lon="6.72785">
        <ele>338.6</ele>
        <time>2025-09-13T11:41:36Z</time>
      </trkpt>
      <trkpt lat="47.52787" lon="6.7278">
        <ele>338.6</ele>
        <time>2025-09-13T11:41:37Z</time>
      </trkpt>
      <trkpt lat="47.52793" lon="6.72775">
        <ele>338.5</ele>
        <time>2025-09-13T11:41:38Z</time>
      </trkpt>
      <trkpt lat="47.52799" lon="6.72771">
        <ele>338.5</ele>
        <time>2025-09-13T11:41:39Z</time>
      </trkpt>
      <trkpt lat="47.52805" lon="6.72767">
        <ele>338.4</ele>
        <time>2025-09-13T11:41:40Z</time>
      </trkpt>
      <trkpt lat="47.52811" lon="6.72763">
        <ele>338.3</ele>
        <time>2025-09-13T11:41:41Z</time>
      </trkpt>
      <trkpt lat="47.52818" lon="6.72759">
        <ele>338.3</ele>
        <time>2025-09-13T11:41:42Z</time>
      </trkpt>
      <trkpt lat="47.52824" lon="6.72756">
        <ele>338.2</ele>
        <time>2025-09-13T11:41:43Z</time>
      </trkpt>
      <trkpt lat="47.5283" lon="6.72755">
        <ele>338.1</ele>
        <time>2025-09-13T11:41:44Z</time>
      </trkpt>
      <trkpt lat="47.52837" lon="6.72757">
        <ele>338.1</ele>
        <time>2025-09-13T11:41:45Z</time>
      </trkpt>
      <trkpt lat="47.52845" lon="6.72759">
        <ele>338</ele>
        <time>2025-09-13T11:41:46Z</time>
      </trkpt>
      <trkpt lat="47.52851" lon="6.72762">
        <ele>337.9</ele>
        <time>2025-09-13T11:41:47Z</time>
      </trkpt>
      <trkpt lat="47.52856" lon="6.72767">
        <ele>337.8</ele>
        <time>2025-09-13T11:41:48Z</time>
      </trkpt>
      <trkpt lat="47.52863" lon="6.72772">
        <ele>337.8</ele>
        <time>2025-09-13T11:41:49Z</time>
      </trkpt>
      <trkpt lat="47.52868" lon="6.72777">
        <ele>337.7</ele>
        <time>2025-09-13T11:41:50Z</time>
      </trkpt>
      <trkpt lat="47.52875" lon="6.72782">
        <ele>337.7</ele>
        <time>2025-09-13T11:41:51Z</time>
      </trkpt>
      <trkpt lat="47.52881" lon="6.72786">
        <ele>337.6</ele>
        <time>2025-09-13T11:41:52Z</time>
      </trkpt>
      <trkpt lat="47.52886" lon="6.7279">
        <ele>337.6</ele>
        <time>2025-09-13T11:41:53Z</time>
      </trkpt>
      <trkpt lat="47.52893" lon="6.72793">
        <ele>337.6</ele>
        <time>2025-09-13T11:41:54Z</time>
      </trkpt>
      <trkpt lat="47.52899" lon="6.72795">
        <ele>337.6</ele>
        <time>2025-09-13T11:41:55Z</time>
      </trkpt>
      <trkpt lat="47.52905" lon="6.72797">
        <ele>337.6</ele>
        <time>2025-09-13T11:41:56Z</time>
      </trkpt>
      <trkpt lat="47.52911" lon="6.72797">
        <ele>337.6</ele>
        <time>2025-09-13T11:41:57Z</time>
      </trkpt>
      <trkpt lat="47.52917" lon="6.72798">
        <ele>337.6</ele>
        <time>2025-09-13T11:41:58Z</time>
      </trkpt>
      <trkpt lat="47.52924" lon="6.72797">
        <ele>337.6</ele>
        <time>2025-09-13T11:41:59Z</time>
      </trkpt>
      <trkpt lat="47.5293" lon="6.72796">
        <ele>337.6</ele>
        <time>2025-09-13T11:42:00Z</time>
      </trkpt>
      <trkpt lat="47.52936" lon="6.72794">
        <ele>337.5</ele>
        <time>2025-09-13T11:42:01Z</time>
      </trkpt>
      <trkpt lat="47.52942" lon="6.72792">
        <ele>337.5</ele>
        <time>2025-09-13T11:42:02Z</time>
      </trkpt>
      <trkpt lat="47.52948" lon="6.7279">
        <ele>337.5</ele>
        <time>2025-09-13T11:42:03Z</time>
      </trkpt>
      <trkpt lat="47.52955" lon="6.72788">
        <ele>337.6</ele>
        <time>2025-09-13T11:42:04Z</time>
      </trkpt>
      <trkpt lat="47.52961" lon="6.72786">
        <ele>337.6</ele>
        <time>2025-09-13T11:42:05Z</time>
      </trkpt>
      <trkpt lat="47.52969" lon="6.72785">
        <ele>337.6</ele>
        <time>2025-09-13T11:42:06Z</time>
      </trkpt>
      <trkpt lat="47.52975" lon="6.72784">
        <ele>337.6</ele>
        <time>2025-09-13T11:42:07Z</time>
      </trkpt>
      <trkpt lat="47.52983" lon="6.72782">
        <ele>337.7</ele>
        <time>2025-09-13T11:42:08Z</time>
      </trkpt>
      <trkpt lat="47.52986" lon="6.72777">
        <ele>337.7</ele>
        <time>2025-09-13T11:42:09Z</time>
      </trkpt>
      <trkpt lat="47.52992" lon="6.72772">
        <ele>337.7</ele>
        <time>2025-09-13T11:42:10Z</time>
      </trkpt>
      <trkpt lat="47.52998" lon="6.7277">
        <ele>337.7</ele>
        <time>2025-09-13T11:42:11Z</time>
      </trkpt>
      <trkpt lat="47.53005" lon="6.72768">
        <ele>337.7</ele>
        <time>2025-09-13T11:42:12Z</time>
      </trkpt>
      <trkpt lat="47.53011" lon="6.72767">
        <ele>337.7</ele>
        <time>2025-09-13T11:42:13Z</time>
      </trkpt>
      <trkpt lat="47.53018" lon="6.72765">
        <ele>337.8</ele>
        <time>2025-09-13T11:42:14Z</time>
      </trkpt>
      <trkpt lat="47.53023" lon="6.72764">
        <ele>337.9</ele>
        <time>2025-09-13T11:42:15Z</time>
      </trkpt>
      <trkpt lat="47.53029" lon="6.72762">
        <ele>338</ele>
        <time>2025-09-13T11:42:16Z</time>
      </trkpt>
      <trkpt lat="47.53036" lon="6.72761">
        <ele>338</ele>
        <time>2025-09-13T11:42:17Z</time>
      </trkpt>
      <trkpt lat="47.53042" lon="6.7276">
        <ele>338.1</ele>
        <time>2025-09-13T11:42:18Z</time>
      </trkpt>
      <trkpt lat="47.53048" lon="6.72759">
        <ele>338.2</ele>
        <time>2025-09-13T11:42:19Z</time>
      </trkpt>
      <trkpt lat="47.53054" lon="6.72758">
        <ele>338.3</ele>
        <time>2025-09-13T11:42:20Z</time>
      </trkpt>
      <trkpt lat="47.53059" lon="6.72757">
        <ele>338.4</ele>
        <time>2025-09-13T11:42:21Z</time>
      </trkpt>
      <trkpt lat="47.53065" lon="6.72755">
        <ele>338.5</ele>
        <time>2025-09-13T11:42:22Z</time>
      </trkpt>
      <trkpt lat="47.53072" lon="6.72755">
        <ele>338.6</ele>
        <time>2025-09-13T11:42:23Z</time>
      </trkpt>
      <trkpt lat="47.53078" lon="6.72753">
        <ele>338.7</ele>
        <time>2025-09-13T11:42:24Z</time>
      </trkpt>
      <trkpt lat="47.53084" lon="6.72752">
        <ele>338.8</ele>
        <time>2025-09-13T11:42:25Z</time>
      </trkpt>
      <trkpt lat="47.5309" lon="6.72751">
        <ele>338.9</ele>
        <time>2025-09-13T11:42:26Z</time>
      </trkpt>
      <trkpt lat="47.53096" lon="6.7275">
        <ele>338.9</ele>
        <time>2025-09-13T11:42:27Z</time>
      </trkpt>
      <trkpt lat="47.53102" lon="6.72749">
        <ele>339</ele>
        <time>2025-09-13T11:42:28Z</time>
      </trkpt>
      <trkpt lat="47.53108" lon="6.72748">
        <ele>339.1</ele>
        <time>2025-09-13T11:42:29Z</time>
      </trkpt>
      <trkpt lat="47.53114" lon="6.72746">
        <ele>339.2</ele>
        <time>2025-09-13T11:42:30Z</time>
      </trkpt>
      <trkpt lat="47.53119" lon="6.72744">
        <ele>339.2</ele>
        <time>2025-09-13T11:42:31Z</time>
      </trkpt>
      <trkpt lat="47.53125" lon="6.72742">
        <ele>339.3</ele>
        <time>2025-09-13T11:42:32Z</time>
      </trkpt>
      <trkpt lat="47.53131" lon="6.7274">
        <ele>339.4</ele>
        <time>2025-09-13T11:42:33Z</time>
      </trkpt>
      <trkpt lat="47.53137" lon="6.72738">
        <ele>339.4</ele>
        <time>2025-09-13T11:42:35Z</time>
      </trkpt>
      <trkpt lat="47.53143" lon="6.72736">
        <ele>339.5</ele>
        <time>2025-09-13T11:42:36Z</time>
      </trkpt>
      <trkpt lat="47.53148" lon="6.72733">
        <ele>339.6</ele>
        <time>2025-09-13T11:42:37Z</time>
      </trkpt>
      <trkpt lat="47.53154" lon="6.7273">
        <ele>339.6</ele>
        <time>2025-09-13T11:42:38Z</time>
      </trkpt>
      <trkpt lat="47.5316" lon="6.72728">
        <ele>339.7</ele>
        <time>2025-09-13T11:42:39Z</time>
      </trkpt>
      <trkpt lat="47.53165" lon="6.72725">
        <ele>339.8</ele>
        <time>2025-09-13T11:42:40Z</time>
      </trkpt>
      <trkpt lat="47.53171" lon="6.72722">
        <ele>339.8</ele>
        <time>2025-09-13T11:42:41Z</time>
      </trkpt>
      <trkpt lat="47.53176" lon="6.72719">
        <ele>339.9</ele>
        <time>2025-09-13T11:42:42Z</time>
      </trkpt>
      <trkpt lat="47.53182" lon="6.72716">
        <ele>340</ele>
        <time>2025-09-13T11:42:43Z</time>
      </trkpt>
      <trkpt lat="47.53187" lon="6.72713">
        <ele>340.1</ele>
        <time>2025-09-13T11:42:44Z</time>
      </trkpt>
      <trkpt lat="47.53193" lon="6.72709">
        <ele>340.1</ele>
        <time>2025-09-13T11:42:45Z</time>
      </trkpt>
      <trkpt lat="47.53198" lon="6.72706">
        <ele>340.2</ele>
        <time>2025-09-13T11:42:46Z</time>
      </trkpt>
      <trkpt lat="47.53203" lon="6.72702">
        <ele>340.3</ele>
        <time>2025-09-13T11:42:47Z</time>
      </trkpt>
      <trkpt lat="47.53209" lon="6.72699">
        <ele>340.4</ele>
        <time>2025-09-13T11:42:48Z</time>
      </trkpt>
      <trkpt lat="47.53213" lon="6.72695">
        <ele>340.5</ele>
        <time>2025-09-13T11:42:49Z</time>
      </trkpt>
      <trkpt lat="47.53219" lon="6.7269">
        <ele>340.6</ele>
        <time>2025-09-13T11:42:50Z</time>
      </trkpt>
      <trkpt lat="47.53224" lon="6.72686">
        <ele>340.7</ele>
        <time>2025-09-13T11:42:51Z</time>
      </trkpt>
      <trkpt lat="47.5323" lon="6.72682">
        <ele>340.8</ele>
        <time>2025-09-13T11:42:52Z</time>
      </trkpt>
      <trkpt lat="47.53235" lon="6.72678">
        <ele>340.8</ele>
        <time>2025-09-13T11:42:53Z</time>
      </trkpt>
      <trkpt lat="47.5324" lon="6.72674">
        <ele>340.9</ele>
        <time>2025-09-13T11:42:54Z</time>
      </trkpt>
      <trkpt lat="47.53245" lon="6.72669">
        <ele>341</ele>
        <time>2025-09-13T11:42:55Z</time>
      </trkpt>
      <trkpt lat="47.5325" lon="6.72664">
        <ele>341.1</ele>
        <time>2025-09-13T11:42:56Z</time>
      </trkpt>
      <trkpt lat="47.53256" lon="6.72659">
        <ele>341.2</ele>
        <time>2025-09-13T11:42:57Z</time>
      </trkpt>
      <trkpt lat="47.53261" lon="6.72655">
        <ele>341.3</ele>
        <time>2025-09-13T11:42:58Z</time>
      </trkpt>
      <trkpt lat="47.53267" lon="6.72651">
        <ele>341.4</ele>
        <time>2025-09-13T11:42:59Z</time>
      </trkpt>
      <trkpt lat="47.53273" lon="6.72648">
        <ele>341.4</ele>
        <time>2025-09-13T11:43:00Z</time>
      </trkpt>
      <trkpt lat="47.53278" lon="6.72644">
        <ele>341.5</ele>
        <time>2025-09-13T11:43:01Z</time>
      </trkpt>
      <trkpt lat="47.53284" lon="6.72641">
        <ele>341.6</ele>
        <time>2025-09-13T11:43:02Z</time>
      </trkpt>
      <trkpt lat="47.53291" lon="6.72639">
        <ele>341.7</ele>
        <time>2025-09-13T11:43:03Z</time>
      </trkpt>
      <trkpt lat="47.53297" lon="6.72637">
        <ele>341.8</ele>
        <time>2025-09-13T11:43:04Z</time>
      </trkpt>
      <trkpt lat="47.53303" lon="6.72635">
        <ele>342</ele>
        <time>2025-09-13T11:43:05Z</time>
      </trkpt>
      <trkpt lat="47.53309" lon="6.72633">
        <ele>342.1</ele>
        <time>2025-09-13T11:43:06Z</time>
      </trkpt>
      <trkpt lat="47.53314" lon="6.72633">
        <ele>342.2</ele>
        <time>2025-09-13T11:43:07Z</time>
      </trkpt>
      <trkpt lat="47.53321" lon="6.72633">
        <ele>342.4</ele>
        <time>2025-09-13T11:43:08Z</time>
      </trkpt>
      <trkpt lat="47.53326" lon="6.72633">
        <ele>342.6</ele>
        <time>2025-09-13T11:43:09Z</time>
      </trkpt>
      <trkpt lat="47.53332" lon="6.72633">
        <ele>342.8</ele>
        <time>2025-09-13T11:43:10Z</time>
      </trkpt>
      <trkpt lat="47.53337" lon="6.72633">
        <ele>343</ele>
        <time>2025-09-13T11:43:11Z</time>
      </trkpt>
      <trkpt lat="47.53343" lon="6.72634">
        <ele>343.2</ele>
        <time>2025-09-13T11:43:12Z</time>
      </trkpt>
      <trkpt lat="47.53348" lon="6.72635">
        <ele>343.4</ele>
        <time>2025-09-13T11:43:13Z</time>
      </trkpt>
      <trkpt lat="47.53354" lon="6.72636">
        <ele>343.6</ele>
        <time>2025-09-13T11:43:14Z</time>
      </trkpt>
      <trkpt lat="47.53359" lon="6.72637">
        <ele>343.8</ele>
        <time>2025-09-13T11:43:15Z</time>
      </trkpt>
      <trkpt lat="47.53365" lon="6.72639">
        <ele>344</ele>
        <time>2025-09-13T11:43:16Z</time>
      </trkpt>
      <trkpt lat="47.5337" lon="6.7264">
        <ele>344.2</ele>
        <time>2025-09-13T11:43:17Z</time>
      </trkpt>
      <trkpt lat="47.53375" lon="6.72642">
        <ele>344.4</ele>
        <time>2025-09-13T11:43:18Z</time>
      </trkpt>
      <trkpt lat="47.5338" lon="6.72644">
        <ele>344.6</ele>
        <time>2025-09-13T11:43:19Z</time>
      </trkpt>
      <trkpt lat="47.53385" lon="6.72646">
        <ele>344.8</ele>
        <time>2025-09-13T11:43:20Z</time>
      </trkpt>
      <trkpt lat="47.53389" lon="6.72647">
        <ele>344.9</ele>
        <time>2025-09-13T11:43:21Z</time>
      </trkpt>
      <trkpt lat="47.53394" lon="6.72649">
        <ele>345.1</ele>
        <time>2025-09-13T11:43:22Z</time>
      </trkpt>
      <trkpt lat="47.53399" lon="6.7265">
        <ele>345.2</ele>
        <time>2025-09-13T11:43:23Z</time>
      </trkpt>
      <trkpt lat="47.53404" lon="6.72651">
        <ele>345.4</ele>
        <time>2025-09-13T11:43:24Z</time>
      </trkpt>
      <trkpt lat="47.53408" lon="6.72653">
        <ele>345.5</ele>
        <time>2025-09-13T11:43:25Z</time>
      </trkpt>
      <trkpt lat="47.53417" lon="6.72656">
        <ele>345.8</ele>
        <time>2025-09-13T11:43:26Z</time>
      </trkpt>
      <trkpt lat="47.53422" lon="6.72658">
        <ele>345.9</ele>
        <time>2025-09-13T11:43:27Z</time>
      </trkpt>
      <trkpt lat="47.53427" lon="6.7266">
        <ele>346</ele>
        <time>2025-09-13T11:43:28Z</time>
      </trkpt>
      <trkpt lat="47.53432" lon="6.72662">
        <ele>346.1</ele>
        <time>2025-09-13T11:43:29Z</time>
      </trkpt>
      <trkpt lat="47.53437" lon="6.72664">
        <ele>346.2</ele>
        <time>2025-09-13T11:43:30Z</time>
      </trkpt>
      <trkpt lat="47.53442" lon="6.72666">
        <ele>346.3</ele>
        <time>2025-09-13T11:43:31Z</time>
      </trkpt>
      <trkpt lat="47.53446" lon="6.72667">
        <ele>346.4</ele>
        <time>2025-09-13T11:43:32Z</time>
      </trkpt>
      <trkpt lat="47.53451" lon="6.72669">
        <ele>346.5</ele>
        <time>2025-09-13T11:43:33Z</time>
      </trkpt>
      <trkpt lat="47.53456" lon="6.72671">
        <ele>346.6</ele>
        <time>2025-09-13T11:43:34Z</time>
      </trkpt>
      <trkpt lat="47.53461" lon="6.72673">
        <ele>346.6</ele>
        <time>2025-09-13T11:43:35Z</time>
      </trkpt>
      <trkpt lat="47.53466" lon="6.72675">
        <ele>346.7</ele>
        <time>2025-09-13T11:43:36Z</time>
      </trkpt>
      <trkpt lat="47.53471" lon="6.72677">
        <ele>346.8</ele>
        <time>2025-09-13T11:43:37Z</time>
      </trkpt>
      <trkpt lat="47.53476" lon="6.72679">
        <ele>346.9</ele>
        <time>2025-09-13T11:43:38Z</time>
      </trkpt>
      <trkpt lat="47.53481" lon="6.72681">
        <ele>346.9</ele>
        <time>2025-09-13T11:43:39Z</time>
      </trkpt>
      <trkpt lat="47.53486" lon="6.72682">
        <ele>347</ele>
        <time>2025-09-13T11:43:40Z</time>
      </trkpt>
      <trkpt lat="47.53491" lon="6.72684">
        <ele>347.1</ele>
        <time>2025-09-13T11:43:41Z</time>
      </trkpt>
      <trkpt lat="47.53496" lon="6.72685">
        <ele>347.1</ele>
        <time>2025-09-13T11:43:42Z</time>
      </trkpt>
      <trkpt lat="47.53501" lon="6.72686">
        <ele>347.2</ele>
        <time>2025-09-13T11:43:43Z</time>
      </trkpt>
      <trkpt lat="47.53505" lon="6.72687">
        <ele>347.3</ele>
        <time>2025-09-13T11:43:44Z</time>
      </trkpt>
      <trkpt lat="47.5351" lon="6.72688">
        <ele>347.3</ele>
        <time>2025-09-13T11:43:45Z</time>
      </trkpt>
      <trkpt lat="47.53515" lon="6.72688">
        <ele>347.4</ele>
        <time>2025-09-13T11:43:46Z</time>
      </trkpt>
      <trkpt lat="47.5352" lon="6.72689">
        <ele>347.5</ele>
        <time>2025-09-13T11:43:47Z</time>
      </trkpt>
      <trkpt lat="47.53524" lon="6.72689">
        <ele>347.6</ele>
        <time>2025-09-13T11:43:48Z</time>
      </trkpt>
      <trkpt lat="47.53529" lon="6.72688">
        <ele>347.6</ele>
        <time>2025-09-13T11:43:49Z</time>
      </trkpt>
      <trkpt lat="47.53533" lon="6.72687">
        <ele>347.7</ele>
        <time>2025-09-13T11:43:50Z</time>
      </trkpt>
      <trkpt lat="47.53536" lon="6.72686">
        <ele>347.8</ele>
        <time>2025-09-13T11:43:51Z</time>
      </trkpt>
      <trkpt lat="47.53539" lon="6.72687">
        <ele>347.9</ele>
        <time>2025-09-13T11:43:52Z</time>
      </trkpt>
      <trkpt lat="47.53543" lon="6.72688">
        <ele>347.9</ele>
        <time>2025-09-13T11:43:53Z</time>
      </trkpt>
      <trkpt lat="47.53544" lon="6.72689">
        <ele>348</ele>
        <time>2025-09-13T11:43:54Z</time>
      </trkpt>
      <trkpt lat="47.53546" lon="6.72688">
        <ele>348</ele>
        <time>2025-09-13T11:43:55Z</time>
      </trkpt>
      <trkpt lat="47.53548" lon="6.72688">
        <ele>348</ele>
        <time>2025-09-13T11:43:56Z</time>
      </trkpt>
      <trkpt lat="47.53547" lon="6.72689">
        <ele>348</ele>
        <time>2025-09-13T11:43:57Z</time>
      </trkpt>
      <trkpt lat="47.53547" lon="6.72689">
        <ele>348</ele>
        <time>2025-09-13T11:43:58Z</time>
      </trkpt>
      <trkpt lat="47.53547" lon="6.72689">
        <ele>348</ele>
        <time>2025-09-13T11:43:59Z</time>
      </trkpt>
      <trkpt lat="47.53547" lon="6.72689">
        <ele>348</ele>
        <time>2025-09-13T11:44:00Z</time>
      </trkpt>
      <trkpt lat="47.53546" lon="6.7269">
        <ele>348.1</ele>
        <time>2025-09-13T11:44:01Z</time>
      </trkpt>
      <trkpt lat="47.53546" lon="6.72692">
        <ele>348.1</ele>
        <time>2025-09-13T11:44:02Z</time>
      </trkpt>
      <trkpt lat="47.53546" lon="6.72692">
        <ele>348.1</ele>
        <time>2025-09-13T11:44:03Z</time>
      </trkpt>
      <trkpt lat="47.53546" lon="6.72691">
        <ele>348.1</ele>
        <time>2025-09-13T11:44:04Z</time>
      </trkpt>
      <trkpt lat="47.53547" lon="6.7269">
        <ele>348.1</ele>
        <time>2025-09-13T11:44:05Z</time>
      </trkpt>
      <trkpt lat="47.53547" lon="6.7269">
        <ele>348.1</ele>
        <time>2025-09-13T11:44:06Z</time>
      </trkpt>
      <trkpt lat="47.53547" lon="6.7269">
        <ele>348.1</ele>
        <time>2025-09-13T11:44:07Z</time>
      </trkpt>
      <trkpt lat="47.53547" lon="6.7269">
        <ele>348.1</ele>
        <time>2025-09-13T11:44:08Z</time>
      </trkpt>
      <trkpt lat="47.53547" lon="6.7269">
        <ele>348.1</ele>
        <time>2025-09-13T11:44:09Z</time>
      </trkpt>
      <trkpt lat="47.53547" lon="6.72691">
        <ele>348.1</ele>
        <time>2025-09-13T11:44:10Z</time>
      </trkpt>
      <trkpt lat="47.53546" lon="6.72691">
        <ele>348.2</ele>
        <time>2025-09-13T11:44:11Z</time>
      </trkpt>
      <trkpt lat="47.53546" lon="6.7269">
        <ele>348.2</ele>
        <time>2025-09-13T11:44:12Z</time>
      </trkpt>
      <trkpt lat="47.53546" lon="6.7269">
        <ele>348.2</ele>
        <time>2025-09-13T11:44:13Z</time>
      </trkpt>
      <trkpt lat="47.53546" lon="6.7269">
        <ele>348.2</ele>
        <time>2025-09-13T11:44:14Z</time>
      </trkpt>
      <trkpt lat="47.53546" lon="6.7269">
        <ele>348.2</ele>
        <time>2025-09-13T11:44:15Z</time>
      </trkpt>
      <trkpt lat="47.53546" lon="6.7269">
        <ele>348.2</ele>
        <time>2025-09-13T11:44:16Z</time>
      </trkpt>
      <trkpt lat="47.53546" lon="6.7269">
        <ele>348.2</ele>
        <time>2025-09-13T11:44:17Z</time>
      </trkpt>
      <trkpt lat="47.53546" lon="6.7269">
        <ele>348.2</ele>
        <time>2025-09-13T11:44:18Z</time>
      </trkpt>
      <trkpt lat="47.53546" lon="6.7269">
        <ele>348.2</ele>
        <time>2025-09-13T11:44:19Z</time>
      </trkpt>
      <trkpt lat="47.53545" lon="6.72691">
        <ele>348.2</ele>
        <time>2025-09-13T11:44:20Z</time>
      </trkpt>
      <trkpt lat="47.53545" lon="6.72691">
        <ele>348.2</ele>
        <time>2025-09-13T11:44:21Z</time>
      </trkpt>
      <trkpt lat="47.53545" lon="6.72691">
        <ele>348.2</ele>
        <time>2025-09-13T11:44:22Z</time>
      </trkpt>
      <trkpt lat="47.53546" lon="6.72691">
        <ele>348.2</ele>
        <time>2025-09-13T11:44:23Z</time>
      </trkpt>
      <trkpt lat="47.53546" lon="6.72692">
        <ele>348.2</ele>
        <time>2025-09-13T11:44:24Z</time>
      </trkpt>
      <trkpt lat="47.53546" lon="6.72692">
        <ele>348.2</ele>
        <time>2025-09-13T11:44:25Z</time>
      </trkpt>
      <trkpt lat="47.53546" lon="6.72692">
        <ele>348.2</ele>
        <time>2025-09-13T11:44:26Z</time>
      </trkpt>
      <trkpt lat="47.53546" lon="6.72692">
        <ele>348.2</ele>
        <time>2025-09-13T11:44:27Z</time>
      </trkpt>
      <trkpt lat="47.53546" lon="6.72692">
        <ele>348.2</ele>
        <time>2025-09-13T11:44:28Z</time>
      </trkpt>
      <trkpt lat="47.53546" lon="6.72692">
        <ele>348.2</ele>
        <time>2025-09-13T11:44:29Z</time>
      </trkpt>
      <trkpt lat="47.53546" lon="6.72692">
        <ele>348.2</ele>
        <time>2025-09-13T11:44:30Z</time>
      </trkpt>
      <trkpt lat="47.53546" lon="6.72692">
        <ele>348.2</ele>
        <time>2025-09-13T11:44:31Z</time>
      </trkpt>
      <trkpt lat="47.53546" lon="6.72692">
        <ele>348.2</ele>
        <time>2025-09-13T11:44:32Z</time>
      </trkpt>
      <trkpt lat="47.53546" lon="6.72692">
        <ele>348.2</ele>
        <time>2025-09-13T11:44:33Z</time>
      </trkpt>
      <trkpt lat="47.53546" lon="6.72692">
        <ele>348.2</ele>
        <time>2025-09-13T11:44:34Z</time>
      </trkpt>
      <trkpt lat="47.53546" lon="6.72692">
        <ele>348.2</ele>
        <time>2025-09-13T11:44:35Z</time>
      </trkpt>
      <trkpt lat="47.53546" lon="6.72692">
        <ele>348.2</ele>
        <time>2025-09-13T11:44:36Z</time>
      </trkpt>
      <trkpt lat="47.53546" lon="6.72692">
        <ele>348.2</ele>
        <time>2025-09-13T11:44:37Z</time>
      </trkpt>
      <trkpt lat="47.53546" lon="6.72692">
        <ele>348.2</ele>
        <time>2025-09-13T11:44:38Z</time>
      </trkpt>
      <trkpt lat="47.53546" lon="6.72692">
        <ele>348.2</ele>
        <time>2025-09-13T11:44:39Z</time>
      </trkpt>
      <trkpt lat="47.53546" lon="6.72692">
        <ele>348.2</ele>
        <time>2025-09-13T11:44:41Z</time>
      </trkpt>
      <trkpt lat="47.53546" lon="6.72692">
        <ele>348.2</ele>
        <time>2025-09-13T11:44:42Z</time>
      </trkpt>
      <trkpt lat="47.53546" lon="6.72692">
        <ele>348.2</ele>
        <time>2025-09-13T11:44:43Z</time>
      </trkpt>
      <trkpt lat="47.53546" lon="6.72692">
        <ele>348.2</ele>
        <time>2025-09-13T11:44:44Z</time>
      </trkpt>
      <trkpt lat="47.53546" lon="6.72692">
        <ele>348.2</ele>
        <time>2025-09-13T11:44:45Z</time>
      </trkpt>
      <trkpt lat="47.53547" lon="6.7269">
        <ele>348.2</ele>
        <time>2025-09-13T11:44:46Z</time>
      </trkpt>
      <trkpt lat="47.53546" lon="6.72691">
        <ele>348.2</ele>
        <time>2025-09-13T11:44:47Z</time>
      </trkpt>
      <trkpt lat="47.53546" lon="6.72691">
        <ele>348.2</ele>
        <time>2025-09-13T11:44:48Z</time>
      </trkpt>
      <trkpt lat="47.53546" lon="6.72691">
        <ele>348.2</ele>
        <time>2025-09-13T11:44:49Z</time>
      </trkpt>
      <trkpt lat="47.53546" lon="6.72691">
        <ele>348.2</ele>
        <time>2025-09-13T11:44:50Z</time>
      </trkpt>
      <trkpt lat="47.53546" lon="6.72691">
        <ele>348.2</ele>
        <time>2025-09-13T11:44:51Z</time>
      </trkpt>
      <trkpt lat="47.53546" lon="6.72691">
        <ele>348.2</ele>
        <time>2025-09-13T11:44:52Z</time>
      </trkpt>
      <trkpt lat="47.53546" lon="6.72691">
        <ele>348.2</ele>
        <time>2025-09-13T11:44:53Z</time>
      </trkpt>
      <trkpt lat="47.53546" lon="6.72691">
        <ele>348.2</ele>
        <time>2025-09-13T11:44:54Z</time>
      </trkpt>
      <trkpt lat="47.53546" lon="6.72691">
        <ele>348.2</ele>
        <time>2025-09-13T11:44:55Z</time>
      </trkpt>
      <trkpt lat="47.53546" lon="6.72691">
        <ele>348.2</ele>
        <time>2025-09-13T11:44:56Z</time>
      </trkpt>
      <trkpt lat="47.53546" lon="6.72691">
        <ele>348.2</ele>
        <time>2025-09-13T11:44:57Z</time>
      </trkpt>
      <trkpt lat="47.53546" lon="6.72691">
        <ele>348.2</ele>
        <time>2025-09-13T11:44:58Z</time>
      </trkpt>
      <trkpt lat="47.53546" lon="6.72691">
        <ele>348.2</ele>
        <time>2025-09-13T11:44:59Z</time>
      </trkpt>
      <trkpt lat="47.53546" lon="6.72691">
        <ele>348.2</ele>
        <time>2025-09-13T11:45:00Z</time>
      </trkpt>
      <trkpt lat="47.53546" lon="6.72691">
        <ele>348.2</ele>
        <time>2025-09-13T11:45:01Z</time>
      </trkpt>
      <trkpt lat="47.53546" lon="6.72691">
        <ele>348.2</ele>
        <time>2025-09-13T11:45:02Z</time>
      </trkpt>
      <trkpt lat="47.53546" lon="6.72691">
        <ele>348.2</ele>
        <time>2025-09-13T11:45:03Z</time>
      </trkpt>
      <trkpt lat="47.53546" lon="6.72691">
        <ele>348.2</ele>
        <time>2025-09-13T11:45:04Z</time>
      </trkpt>
      <trkpt lat="47.53546" lon="6.72691">
        <ele>348.2</ele>
        <time>2025-09-13T11:45:05Z</time>
      </trkpt>
      <trkpt lat="47.53546" lon="6.72691">
        <ele>348.2</ele>
        <time>2025-09-13T11:45:06Z</time>
      </trkpt>
      <trkpt lat="47.53546" lon="6.72691">
        <ele>348.2</ele>
        <time>2025-09-13T11:45:07Z</time>
      </trkpt>
      <trkpt lat="47.53546" lon="6.72691">
        <ele>348.2</ele>
        <time>2025-09-13T11:45:08Z</time>
      </trkpt>
      <trkpt lat="47.53546" lon="6.72691">
        <ele>348.2</ele>
        <time>2025-09-13T11:45:09Z</time>
      </trkpt>
      <trkpt lat="47.53546" lon="6.72691">
        <ele>348.2</ele>
        <time>2025-09-13T11:45:10Z</time>
      </trkpt>
      <trkpt lat="47.53546" lon="6.72691">
        <ele>348.2</ele>
        <time>2025-09-13T11:45:11Z</time>
      </trkpt>
      <trkpt lat="47.53546" lon="6.72691">
        <ele>348.2</ele>
        <time>2025-09-13T11:45:12Z</time>
      </trkpt>
      <trkpt lat="47.53544" lon="6.72688">
        <ele>348.3</ele>
        <time>2025-09-13T11:45:13Z</time>
      </trkpt>
      <trkpt lat="47.53544" lon="6.72688">
        <ele>348.3</ele>
        <time>2025-09-13T11:45:14Z</time>
      </trkpt>
      <trkpt lat="47.53544" lon="6.72688">
        <ele>348.3</ele>
        <time>2025-09-13T11:45:15Z</time>
      </trkpt>
      <trkpt lat="47.53544" lon="6.72688">
        <ele>348.3</ele>
        <time>2025-09-13T11:45:16Z</time>
      </trkpt>
      <trkpt lat="47.53544" lon="6.72688">
        <ele>348.3</ele>
        <time>2025-09-13T11:45:17Z</time>
      </trkpt>
      <trkpt lat="47.53544" lon="6.72688">
        <ele>348.3</ele>
        <time>2025-09-13T11:45:18Z</time>
      </trkpt>
      <trkpt lat="47.53544" lon="6.72688">
        <ele>348.3</ele>
        <time>2025-09-13T11:45:19Z</time>
      </trkpt>
      <trkpt lat="47.53544" lon="6.72688">
        <ele>348.3</ele>
        <time>2025-09-13T11:45:20Z</time>
      </trkpt>
      <trkpt lat="47.53544" lon="6.72688">
        <ele>348.3</ele>
        <time>2025-09-13T11:45:21Z</time>
      </trkpt>
      <trkpt lat="47.53544" lon="6.72689">
        <ele>348.3</ele>
        <time>2025-09-13T11:45:22Z</time>
      </trkpt>
      <trkpt lat="47.53544" lon="6.72689">
        <ele>348.3</ele>
        <time>2025-09-13T11:45:23Z</time>
      </trkpt>
      <trkpt lat="47.53547" lon="6.72688">
        <ele>348.3</ele>
        <time>2025-09-13T11:45:24Z</time>
      </trkpt>
      <trkpt lat="47.5355" lon="6.72687">
        <ele>348.4</ele>
        <time>2025-09-13T11:45:25Z</time>
      </trkpt>
      <trkpt lat="47.53552" lon="6.72686">
        <ele>348.4</ele>
        <time>2025-09-13T11:45:26Z</time>
      </trkpt>
      <trkpt lat="47.53555" lon="6.72683">
        <ele>348.4</ele>
        <time>2025-09-13T11:45:27Z</time>
      </trkpt>
      <trkpt lat="47.53558" lon="6.7268">
        <ele>348.5</ele>
        <time>2025-09-13T11:45:28Z</time>
      </trkpt>
      <trkpt lat="47.5356" lon="6.72679">
        <ele>348.5</ele>
        <time>2025-09-13T11:45:29Z</time>
      </trkpt>
      <trkpt lat="47.53565" lon="6.72676">
        <ele>348.5</ele>
        <time>2025-09-13T11:45:30Z</time>
      </trkpt>
      <trkpt lat="47.53569" lon="6.72673">
        <ele>348.5</ele>
        <time>2025-09-13T11:45:31Z</time>
      </trkpt>
      <trkpt lat="47.53573" lon="6.72668">
        <ele>348.5</ele>
        <time>2025-09-13T11:45:32Z</time>
      </trkpt>
      <trkpt lat="47.53577" lon="6.72666">
        <ele>348.5</ele>
        <time>2025-09-13T11:45:33Z</time>
      </trkpt>
      <trkpt lat="47.53582" lon="6.72664">
        <ele>348.5</ele>
        <time>2025-09-13T11:45:34Z</time>
      </trkpt>
      <trkpt lat="47.53586" lon="6.72662">
        <ele>348.5</ele>
        <time>2025-09-13T11:45:35Z</time>
      </trkpt>
      <trkpt lat="47.5359" lon="6.7266">
        <ele>348.4</ele>
        <time>2025-09-13T11:45:36Z</time>
      </trkpt>
      <trkpt lat="47.53594" lon="6.72657">
        <ele>348.4</ele>
        <time>2025-09-13T11:45:37Z</time>
      </trkpt>
      <trkpt lat="47.53599" lon="6.72655">
        <ele>348.3</ele>
        <time>2025-09-13T11:45:38Z</time>
      </trkpt>
      <trkpt lat="47.53603" lon="6.72652">
        <ele>348.3</ele>
        <time>2025-09-13T11:45:39Z</time>
      </trkpt>
      <trkpt lat="47.53608" lon="6.72648">
        <ele>348.2</ele>
        <time>2025-09-13T11:45:40Z</time>
      </trkpt>
      <trkpt lat="47.53613" lon="6.72645">
        <ele>348.1</ele>
        <time>2025-09-13T11:45:41Z</time>
      </trkpt>
      <trkpt lat="47.53617" lon="6.72641">
        <ele>348.1</ele>
        <time>2025-09-13T11:45:42Z</time>
      </trkpt>
      <trkpt lat="47.53622" lon="6.72638">
        <ele>348</ele>
        <time>2025-09-13T11:45:43Z</time>
      </trkpt>
      <trkpt lat="47.53627" lon="6.72634">
        <ele>347.9</ele>
        <time>2025-09-13T11:45:44Z</time>
      </trkpt>
      <trkpt lat="47.53632" lon="6.7263">
        <ele>347.8</ele>
        <time>2025-09-13T11:45:45Z</time>
      </trkpt>
      <trkpt lat="47.53637" lon="6.72626">
        <ele>347.7</ele>
        <time>2025-09-13T11:45:46Z</time>
      </trkpt>
      <trkpt lat="47.53643" lon="6.72623">
        <ele>347.6</ele>
        <time>2025-09-13T11:45:47Z</time>
      </trkpt>
      <trkpt lat="47.53648" lon="6.72619">
        <ele>347.5</ele>
        <time>2025-09-13T11:45:48Z</time>
      </trkpt>
      <trkpt lat="47.53653" lon="6.72615">
        <ele>347.4</ele>
        <time>2025-09-13T11:45:49Z</time>
      </trkpt>
      <trkpt lat="47.53659" lon="6.72611">
        <ele>347.4</ele>
        <time>2025-09-13T11:45:50Z</time>
      </trkpt>
      <trkpt lat="47.53665" lon="6.72607">
        <ele>347.3</ele>
        <time>2025-09-13T11:45:51Z</time>
      </trkpt>
      <trkpt lat="47.5367" lon="6.72604">
        <ele>347.3</ele>
        <time>2025-09-13T11:45:52Z</time>
      </trkpt>
      <trkpt lat="47.53676" lon="6.726">
        <ele>347.2</ele>
        <time>2025-09-13T11:45:53Z</time>
      </trkpt>
      <trkpt lat="47.53681" lon="6.72596">
        <ele>347.2</ele>
        <time>2025-09-13T11:45:54Z</time>
      </trkpt>
      <trkpt lat="47.53687" lon="6.72592">
        <ele>347.2</ele>
        <time>2025-09-13T11:45:55Z</time>
      </trkpt>
      <trkpt lat="47.53693" lon="6.72589">
        <ele>347.2</ele>
        <time>2025-09-13T11:45:56Z</time>
      </trkpt>
      <trkpt lat="47.53699" lon="6.72585">
        <ele>347.1</ele>
        <time>2025-09-13T11:45:57Z</time>
      </trkpt>
      <trkpt lat="47.53705" lon="6.72581">
        <ele>347.1</ele>
        <time>2025-09-13T11:45:58Z</time>
      </trkpt>
      <trkpt lat="47.5371" lon="6.72578">
        <ele>347.1</ele>
        <time>2025-09-13T11:45:59Z</time>
      </trkpt>
      <trkpt lat="47.53716" lon="6.72575">
        <ele>347.1</ele>
        <time>2025-09-13T11:46:00Z</time>
      </trkpt>
      <trkpt lat="47.53722" lon="6.72571">
        <ele>347.1</ele>
        <time>2025-09-13T11:46:01Z</time>
      </trkpt>
      <trkpt lat="47.53728" lon="6.72568">
        <ele>347.1</ele>
        <time>2025-09-13T11:46:02Z</time>
      </trkpt>
      <trkpt lat="47.53733" lon="6.72565">
        <ele>347.1</ele>
        <time>2025-09-13T11:46:03Z</time>
      </trkpt>
      <trkpt lat="47.5374" lon="6.72562">
        <ele>347.2</ele>
        <time>2025-09-13T11:46:04Z</time>
      </trkpt>
      <trkpt lat="47.53746" lon="6.72559">
        <ele>347.2</ele>
        <time>2025-09-13T11:46:05Z</time>
      </trkpt>
      <trkpt lat="47.53751" lon="6.72556">
        <ele>347.3</ele>
        <time>2025-09-13T11:46:06Z</time>
      </trkpt>
      <trkpt lat="47.53757" lon="6.72552">
        <ele>347.4</ele>
        <time>2025-09-13T11:46:07Z</time>
      </trkpt>
      <trkpt lat="47.53763" lon="6.7255">
        <ele>347.5</ele>
        <time>2025-09-13T11:46:08Z</time>
      </trkpt>
      <trkpt lat="47.53768" lon="6.72547">
        <ele>347.6</ele>
        <time>2025-09-13T11:46:09Z</time>
      </trkpt>
      <trkpt lat="47.53774" lon="6.72544">
        <ele>347.7</ele>
        <time>2025-09-13T11:46:10Z</time>
      </trkpt>
      <trkpt lat="47.53779" lon="6.72541">
        <ele>347.8</ele>
        <time>2025-09-13T11:46:11Z</time>
      </trkpt>
      <trkpt lat="47.53784" lon="6.72538">
        <ele>347.9</ele>
        <time>2025-09-13T11:46:12Z</time>
      </trkpt>
      <trkpt lat="47.53789" lon="6.72536">
        <ele>348</ele>
        <time>2025-09-13T11:46:13Z</time>
      </trkpt>
      <trkpt lat="47.53794" lon="6.72533">
        <ele>348.2</ele>
        <time>2025-09-13T11:46:14Z</time>
      </trkpt>
      <trkpt lat="47.53799" lon="6.72531">
        <ele>348.3</ele>
        <time>2025-09-13T11:46:15Z</time>
      </trkpt>
      <trkpt lat="47.53804" lon="6.72528">
        <ele>348.4</ele>
        <time>2025-09-13T11:46:16Z</time>
      </trkpt>
      <trkpt lat="47.53809" lon="6.72525">
        <ele>348.6</ele>
        <time>2025-09-13T11:46:17Z</time>
      </trkpt>
      <trkpt lat="47.53814" lon="6.72523">
        <ele>348.7</ele>
        <time>2025-09-13T11:46:18Z</time>
      </trkpt>
      <trkpt lat="47.53819" lon="6.7252">
        <ele>348.8</ele>
        <time>2025-09-13T11:46:19Z</time>
      </trkpt>
      <trkpt lat="47.53824" lon="6.72518">
        <ele>348.9</ele>
        <time>2025-09-13T11:46:20Z</time>
      </trkpt>
      <trkpt lat="47.53829" lon="6.72515">
        <ele>349</ele>
        <time>2025-09-13T11:46:21Z</time>
      </trkpt>
      <trkpt lat="47.53834" lon="6.72512">
        <ele>349.1</ele>
        <time>2025-09-13T11:46:22Z</time>
      </trkpt>
      <trkpt lat="47.53838" lon="6.72508">
        <ele>349.2</ele>
        <time>2025-09-13T11:46:23Z</time>
      </trkpt>
      <trkpt lat="47.53843" lon="6.72505">
        <ele>349.3</ele>
        <time>2025-09-13T11:46:24Z</time>
      </trkpt>
      <trkpt lat="47.53848" lon="6.72501">
        <ele>349.4</ele>
        <time>2025-09-13T11:46:25Z</time>
      </trkpt>
      <trkpt lat="47.53853" lon="6.72498">
        <ele>349.5</ele>
        <time>2025-09-13T11:46:26Z</time>
      </trkpt>
      <trkpt lat="47.53858" lon="6.72494">
        <ele>349.6</ele>
        <time>2025-09-13T11:46:27Z</time>
      </trkpt>
      <trkpt lat="47.53863" lon="6.7249">
        <ele>349.6</ele>
        <time>2025-09-13T11:46:28Z</time>
      </trkpt>
      <trkpt lat="47.53868" lon="6.72485">
        <ele>349.7</ele>
        <time>2025-09-13T11:46:29Z</time>
      </trkpt>
      <trkpt lat="47.53872" lon="6.72481">
        <ele>349.7</ele>
        <time>2025-09-13T11:46:30Z</time>
      </trkpt>
      <trkpt lat="47.53876" lon="6.72476">
        <ele>349.7</ele>
        <time>2025-09-13T11:46:31Z</time>
      </trkpt>
      <trkpt lat="47.53881" lon="6.72471">
        <ele>349.7</ele>
        <time>2025-09-13T11:46:32Z</time>
      </trkpt>
      <trkpt lat="47.53885" lon="6.72466">
        <ele>349.7</ele>
        <time>2025-09-13T11:46:33Z</time>
      </trkpt>
      <trkpt lat="47.5389" lon="6.7246">
        <ele>349.6</ele>
        <time>2025-09-13T11:46:34Z</time>
      </trkpt>
      <trkpt lat="47.53894" lon="6.72454">
        <ele>349.5</ele>
        <time>2025-09-13T11:46:35Z</time>
      </trkpt>
      <trkpt lat="47.53899" lon="6.72448">
        <ele>349.4</ele>
        <time>2025-09-13T11:46:36Z</time>
      </trkpt>
      <trkpt lat="47.53903" lon="6.72441">
        <ele>349.4</ele>
        <time>2025-09-13T11:46:37Z</time>
      </trkpt>
      <trkpt lat="47.53907" lon="6.72435">
        <ele>349.3</ele>
        <time>2025-09-13T11:46:38Z</time>
      </trkpt>
      <trkpt lat="47.53913" lon="6.72428">
        <ele>349.2</ele>
        <time>2025-09-13T11:46:39Z</time>
      </trkpt>
      <trkpt lat="47.53918" lon="6.72422">
        <ele>349.1</ele>
        <time>2025-09-13T11:46:40Z</time>
      </trkpt>
      <trkpt lat="47.53922" lon="6.72415">
        <ele>349</ele>
        <time>2025-09-13T11:46:41Z</time>
      </trkpt>
      <trkpt lat="47.53927" lon="6.72409">
        <ele>348.9</ele>
        <time>2025-09-13T11:46:42Z</time>
      </trkpt>
      <trkpt lat="47.53932" lon="6.72402">
        <ele>348.9</ele>
        <time>2025-09-13T11:46:43Z</time>
      </trkpt>
      <trkpt lat="47.53936" lon="6.72397">
        <ele>348.8</ele>
        <time>2025-09-13T11:46:44Z</time>
      </trkpt>
      <trkpt lat="47.53941" lon="6.7239">
        <ele>348.8</ele>
        <time>2025-09-13T11:46:45Z</time>
      </trkpt>
      <trkpt lat="47.53946" lon="6.72383">
        <ele>348.7</ele>
        <time>2025-09-13T11:46:47Z</time>
      </trkpt>
      <trkpt lat="47.5395" lon="6.72377">
        <ele>348.7</ele>
        <time>2025-09-13T11:46:48Z</time>
      </trkpt>
      <trkpt lat="47.53955" lon="6.72371">
        <ele>348.7</ele>
        <time>2025-09-13T11:46:49Z</time>
      </trkpt>
      <trkpt lat="47.53959" lon="6.72364">
        <ele>348.7</ele>
        <time>2025-09-13T11:46:50Z</time>
      </trkpt>
      <trkpt lat="47.53964" lon="6.72358">
        <ele>348.7</ele>
        <time>2025-09-13T11:46:51Z</time>
      </trkpt>
      <trkpt lat="47.53969" lon="6.72351">
        <ele>348.7</ele>
        <time>2025-09-13T11:46:52Z</time>
      </trkpt>
      <trkpt lat="47.53973" lon="6.72345">
        <ele>348.7</ele>
        <time>2025-09-13T11:46:53Z</time>
      </trkpt>
      <trkpt lat="47.53977" lon="6.72339">
        <ele>348.8</ele>
        <time>2025-09-13T11:46:54Z</time>
      </trkpt>
      <trkpt lat="47.53981" lon="6.72334">
        <ele>348.8</ele>
        <time>2025-09-13T11:46:55Z</time>
      </trkpt>
      <trkpt lat="47.53986" lon="6.72327">
        <ele>348.8</ele>
        <time>2025-09-13T11:46:56Z</time>
      </trkpt>
      <trkpt lat="47.53991" lon="6.72322">
        <ele>348.9</ele>
        <time>2025-09-13T11:46:57Z</time>
      </trkpt>
      <trkpt lat="47.53995" lon="6.72316">
        <ele>349</ele>
        <time>2025-09-13T11:46:58Z</time>
      </trkpt>
      <trkpt lat="47.53999" lon="6.7231">
        <ele>349</ele>
        <time>2025-09-13T11:46:59Z</time>
      </trkpt>
      <trkpt lat="47.54003" lon="6.72303">
        <ele>349.2</ele>
        <time>2025-09-13T11:47:00Z</time>
      </trkpt>
      <trkpt lat="47.54008" lon="6.72297">
        <ele>349.3</ele>
        <time>2025-09-13T11:47:01Z</time>
      </trkpt>
      <trkpt lat="47.54012" lon="6.72291">
        <ele>349.4</ele>
        <time>2025-09-13T11:47:02Z</time>
      </trkpt>
      <trkpt lat="47.54017" lon="6.72285">
        <ele>349.5</ele>
        <time>2025-09-13T11:47:03Z</time>
      </trkpt>
      <trkpt lat="47.54021" lon="6.72279">
        <ele>349.6</ele>
        <time>2025-09-13T11:47:04Z</time>
      </trkpt>
      <trkpt lat="47.54025" lon="6.72273">
        <ele>349.8</ele>
        <time>2025-09-13T11:47:05Z</time>
      </trkpt>
      <trkpt lat="47.5403" lon="6.72267">
        <ele>349.9</ele>
        <time>2025-09-13T11:47:06Z</time>
      </trkpt>
      <trkpt lat="47.54034" lon="6.72261">
        <ele>350.1</ele>
        <time>2025-09-13T11:47:07Z</time>
      </trkpt>
      <trkpt lat="47.54038" lon="6.72255">
        <ele>350.2</ele>
        <time>2025-09-13T11:47:08Z</time>
      </trkpt>
      <trkpt lat="47.54043" lon="6.72249">
        <ele>350.4</ele>
        <time>2025-09-13T11:47:09Z</time>
      </trkpt>
      <trkpt lat="47.54047" lon="6.72244">
        <ele>350.5</ele>
        <time>2025-09-13T11:47:10Z</time>
      </trkpt>
      <trkpt lat="47.54051" lon="6.72238">
        <ele>350.7</ele>
        <time>2025-09-13T11:47:11Z</time>
      </trkpt>
      <trkpt lat="47.54054" lon="6.72233">
        <ele>350.9</ele>
        <time>2025-09-13T11:47:12Z</time>
      </trkpt>
      <trkpt lat="47.54058" lon="6.72227">
        <ele>351</ele>
        <time>2025-09-13T11:47:13Z</time>
      </trkpt>
      <trkpt lat="47.54063" lon="6.72222">
        <ele>351.2</ele>
        <time>2025-09-13T11:47:14Z</time>
      </trkpt>
      <trkpt lat="47.54066" lon="6.72217">
        <ele>351.4</ele>
        <time>2025-09-13T11:47:15Z</time>
      </trkpt>
      <trkpt lat="47.5407" lon="6.72211">
        <ele>351.5</ele>
        <time>2025-09-13T11:47:16Z</time>
      </trkpt>
      <trkpt lat="47.54074" lon="6.72205">
        <ele>351.7</ele>
        <time>2025-09-13T11:47:17Z</time>
      </trkpt>
      <trkpt lat="47.54078" lon="6.72199">
        <ele>351.9</ele>
        <time>2025-09-13T11:47:18Z</time>
      </trkpt>
      <trkpt lat="47.54082" lon="6.72194">
        <ele>351.9</ele>
        <time>2025-09-13T11:47:19Z</time>
      </trkpt>
      <trkpt lat="47.54086" lon="6.72188">
        <ele>352</ele>
        <time>2025-09-13T11:47:20Z</time>
      </trkpt>
      <trkpt lat="47.5409" lon="6.72183">
        <ele>352.1</ele>
        <time>2025-09-13T11:47:21Z</time>
      </trkpt>
      <trkpt lat="47.54094" lon="6.72177">
        <ele>352.1</ele>
        <time>2025-09-13T11:47:22Z</time>
      </trkpt>
      <trkpt lat="47.54097" lon="6.7217">
        <ele>352.2</ele>
        <time>2025-09-13T11:47:23Z</time>
      </trkpt>
      <trkpt lat="47.54104" lon="6.72158">
        <ele>352.3</ele>
        <time>2025-09-13T11:47:24Z</time>
      </trkpt>
      <trkpt lat="47.54107" lon="6.72151">
        <ele>352.3</ele>
        <time>2025-09-13T11:47:25Z</time>
      </trkpt>
      <trkpt lat="47.54111" lon="6.72144">
        <ele>352.3</ele>
        <time>2025-09-13T11:47:26Z</time>
      </trkpt>
      <trkpt lat="47.54114" lon="6.72137">
        <ele>352.4</ele>
        <time>2025-09-13T11:47:27Z</time>
      </trkpt>
      <trkpt lat="47.54118" lon="6.7213">
        <ele>352.4</ele>
        <time>2025-09-13T11:47:28Z</time>
      </trkpt>
      <trkpt lat="47.5412" lon="6.72122">
        <ele>352.4</ele>
        <time>2025-09-13T11:47:29Z</time>
      </trkpt>
      <trkpt lat="47.54123" lon="6.72115">
        <ele>352.5</ele>
        <time>2025-09-13T11:47:30Z</time>
      </trkpt>
      <trkpt lat="47.54126" lon="6.72108">
        <ele>352.5</ele>
        <time>2025-09-13T11:47:31Z</time>
      </trkpt>
      <trkpt lat="47.54129" lon="6.72101">
        <ele>352.5</ele>
        <time>2025-09-13T11:47:32Z</time>
      </trkpt>
      <trkpt lat="47.54132" lon="6.72093">
        <ele>352.5</ele>
        <time>2025-09-13T11:47:33Z</time>
      </trkpt>
      <trkpt lat="47.54134" lon="6.72085">
        <ele>352.5</ele>
        <time>2025-09-13T11:47:34Z</time>
      </trkpt>
      <trkpt lat="47.54137" lon="6.72077">
        <ele>352.5</ele>
        <time>2025-09-13T11:47:35Z</time>
      </trkpt>
      <trkpt lat="47.5414" lon="6.72069">
        <ele>352.5</ele>
        <time>2025-09-13T11:47:36Z</time>
      </trkpt>
      <trkpt lat="47.54143" lon="6.7206">
        <ele>352.5</ele>
        <time>2025-09-13T11:47:37Z</time>
      </trkpt>
      <trkpt lat="47.54145" lon="6.72051">
        <ele>352.5</ele>
        <time>2025-09-13T11:47:38Z</time>
      </trkpt>
      <trkpt lat="47.54148" lon="6.72042">
        <ele>352.5</ele>
        <time>2025-09-13T11:47:39Z</time>
      </trkpt>
      <trkpt lat="47.54151" lon="6.72034">
        <ele>352.5</ele>
        <time>2025-09-13T11:47:40Z</time>
      </trkpt>
      <trkpt lat="47.54153" lon="6.72025">
        <ele>352.5</ele>
        <time>2025-09-13T11:47:41Z</time>
      </trkpt>
      <trkpt lat="47.54156" lon="6.72016">
        <ele>352.4</ele>
        <time>2025-09-13T11:47:42Z</time>
      </trkpt>
      <trkpt lat="47.54159" lon="6.72008">
        <ele>352.4</ele>
        <time>2025-09-13T11:47:43Z</time>
      </trkpt>
      <trkpt lat="47.54161" lon="6.71999">
        <ele>352.4</ele>
        <time>2025-09-13T11:47:44Z</time>
      </trkpt>
      <trkpt lat="47.54164" lon="6.71989">
        <ele>352.5</ele>
        <time>2025-09-13T11:47:45Z</time>
      </trkpt>
      <trkpt lat="47.54166" lon="6.71981">
        <ele>352.5</ele>
        <time>2025-09-13T11:47:46Z</time>
      </trkpt>
      <trkpt lat="47.54168" lon="6.71973">
        <ele>352.5</ele>
        <time>2025-09-13T11:47:47Z</time>
      </trkpt>
      <trkpt lat="47.54171" lon="6.71964">
        <ele>352.6</ele>
        <time>2025-09-13T11:47:48Z</time>
      </trkpt>
      <trkpt lat="47.54173" lon="6.71955">
        <ele>352.6</ele>
        <time>2025-09-13T11:47:49Z</time>
      </trkpt>
      <trkpt lat="47.54175" lon="6.71946">
        <ele>352.6</ele>
        <time>2025-09-13T11:47:50Z</time>
      </trkpt>
      <trkpt lat="47.54177" lon="6.71937">
        <ele>352.6</ele>
        <time>2025-09-13T11:47:51Z</time>
      </trkpt>
      <trkpt lat="47.54179" lon="6.71928">
        <ele>352.7</ele>
        <time>2025-09-13T11:47:52Z</time>
      </trkpt>
      <trkpt lat="47.54182" lon="6.71919">
        <ele>352.7</ele>
        <time>2025-09-13T11:47:53Z</time>
      </trkpt>
      <trkpt lat="47.54184" lon="6.71911">
        <ele>352.7</ele>
        <time>2025-09-13T11:47:54Z</time>
      </trkpt>
      <trkpt lat="47.54186" lon="6.71902">
        <ele>352.8</ele>
        <time>2025-09-13T11:47:55Z</time>
      </trkpt>
      <trkpt lat="47.54188" lon="6.71893">
        <ele>352.8</ele>
        <time>2025-09-13T11:47:56Z</time>
      </trkpt>
      <trkpt lat="47.54191" lon="6.71884">
        <ele>352.9</ele>
        <time>2025-09-13T11:47:57Z</time>
      </trkpt>
      <trkpt lat="47.54193" lon="6.71876">
        <ele>352.9</ele>
        <time>2025-09-13T11:47:58Z</time>
      </trkpt>
      <trkpt lat="47.54196" lon="6.71868">
        <ele>352.9</ele>
        <time>2025-09-13T11:47:59Z</time>
      </trkpt>
      <trkpt lat="47.54198" lon="6.7186">
        <ele>352.9</ele>
        <time>2025-09-13T11:48:00Z</time>
      </trkpt>
      <trkpt lat="47.54201" lon="6.71852">
        <ele>353</ele>
        <time>2025-09-13T11:48:01Z</time>
      </trkpt>
      <trkpt lat="47.54204" lon="6.71844">
        <ele>353</ele>
        <time>2025-09-13T11:48:02Z</time>
      </trkpt>
      <trkpt lat="47.54207" lon="6.71836">
        <ele>353.1</ele>
        <time>2025-09-13T11:48:03Z</time>
      </trkpt>
      <trkpt lat="47.5421" lon="6.71828">
        <ele>353.1</ele>
        <time>2025-09-13T11:48:04Z</time>
      </trkpt>
      <trkpt lat="47.54213" lon="6.7182">
        <ele>353.2</ele>
        <time>2025-09-13T11:48:05Z</time>
      </trkpt>
      <trkpt lat="47.54216" lon="6.71812">
        <ele>353.2</ele>
        <time>2025-09-13T11:48:06Z</time>
      </trkpt>
      <trkpt lat="47.54219" lon="6.71805">
        <ele>353.3</ele>
        <time>2025-09-13T11:48:07Z</time>
      </trkpt>
      <trkpt lat="47.54222" lon="6.71797">
        <ele>353.3</ele>
        <time>2025-09-13T11:48:08Z</time>
      </trkpt>
      <trkpt lat="47.54226" lon="6.71789">
        <ele>353.3</ele>
        <time>2025-09-13T11:48:09Z</time>
      </trkpt>
      <trkpt lat="47.54229" lon="6.71781">
        <ele>353.4</ele>
        <time>2025-09-13T11:48:10Z</time>
      </trkpt>
      <trkpt lat="47.54232" lon="6.71774">
        <ele>353.4</ele>
        <time>2025-09-13T11:48:11Z</time>
      </trkpt>
      <trkpt lat="47.54235" lon="6.71765">
        <ele>353.4</ele>
        <time>2025-09-13T11:48:12Z</time>
      </trkpt>
      <trkpt lat="47.54239" lon="6.71756">
        <ele>353.4</ele>
        <time>2025-09-13T11:48:13Z</time>
      </trkpt>
      <trkpt lat="47.54242" lon="6.71747">
        <ele>353.5</ele>
        <time>2025-09-13T11:48:14Z</time>
      </trkpt>
      <trkpt lat="47.54244" lon="6.71738">
        <ele>353.5</ele>
        <time>2025-09-13T11:48:15Z</time>
      </trkpt>
      <trkpt lat="47.54247" lon="6.7173">
        <ele>353.5</ele>
        <time>2025-09-13T11:48:16Z</time>
      </trkpt>
      <trkpt lat="47.54249" lon="6.71722">
        <ele>353.6</ele>
        <time>2025-09-13T11:48:17Z</time>
      </trkpt>
      <trkpt lat="47.54252" lon="6.71713">
        <ele>353.6</ele>
        <time>2025-09-13T11:48:18Z</time>
      </trkpt>
      <trkpt lat="47.54254" lon="6.71705">
        <ele>353.6</ele>
        <time>2025-09-13T11:48:19Z</time>
      </trkpt>
      <trkpt lat="47.54257" lon="6.71696">
        <ele>353.6</ele>
        <time>2025-09-13T11:48:20Z</time>
      </trkpt>
      <trkpt lat="47.54259" lon="6.71687">
        <ele>353.6</ele>
        <time>2025-09-13T11:48:21Z</time>
      </trkpt>
      <trkpt lat="47.5426" lon="6.71679">
        <ele>353.6</ele>
        <time>2025-09-13T11:48:22Z</time>
      </trkpt>
      <trkpt lat="47.54262" lon="6.7167">
        <ele>353.6</ele>
        <time>2025-09-13T11:48:23Z</time>
      </trkpt>
      <trkpt lat="47.54264" lon="6.71661">
        <ele>353.6</ele>
        <time>2025-09-13T11:48:24Z</time>
      </trkpt>
      <trkpt lat="47.54266" lon="6.71653">
        <ele>353.6</ele>
        <time>2025-09-13T11:48:25Z</time>
      </trkpt>
      <trkpt lat="47.54268" lon="6.71644">
        <ele>353.6</ele>
        <time>2025-09-13T11:48:26Z</time>
      </trkpt>
      <trkpt lat="47.5427" lon="6.71634">
        <ele>353.6</ele>
        <time>2025-09-13T11:48:27Z</time>
      </trkpt>
      <trkpt lat="47.54271" lon="6.71626">
        <ele>353.6</ele>
        <time>2025-09-13T11:48:28Z</time>
      </trkpt>
      <trkpt lat="47.54273" lon="6.71616">
        <ele>353.6</ele>
        <time>2025-09-13T11:48:29Z</time>
      </trkpt>
      <trkpt lat="47.54275" lon="6.71608">
        <ele>353.6</ele>
        <time>2025-09-13T11:48:30Z</time>
      </trkpt>
      <trkpt lat="47.54276" lon="6.716">
        <ele>353.6</ele>
        <time>2025-09-13T11:48:31Z</time>
      </trkpt>
      <trkpt lat="47.54277" lon="6.7159">
        <ele>353.6</ele>
        <time>2025-09-13T11:48:32Z</time>
      </trkpt>
      <trkpt lat="47.54279" lon="6.71581">
        <ele>353.7</ele>
        <time>2025-09-13T11:48:33Z</time>
      </trkpt>
      <trkpt lat="47.5428" lon="6.71572">
        <ele>353.7</ele>
        <time>2025-09-13T11:48:34Z</time>
      </trkpt>
      <trkpt lat="47.54282" lon="6.71564">
        <ele>353.7</ele>
        <time>2025-09-13T11:48:35Z</time>
      </trkpt>
      <trkpt lat="47.54283" lon="6.71556">
        <ele>353.7</ele>
        <time>2025-09-13T11:48:36Z</time>
      </trkpt>
      <trkpt lat="47.54285" lon="6.71546">
        <ele>353.8</ele>
        <time>2025-09-13T11:48:37Z</time>
      </trkpt>
      <trkpt lat="47.54287" lon="6.71538">
        <ele>353.8</ele>
        <time>2025-09-13T11:48:38Z</time>
      </trkpt>
      <trkpt lat="47.54288" lon="6.71529">
        <ele>353.8</ele>
        <time>2025-09-13T11:48:39Z</time>
      </trkpt>
      <trkpt lat="47.54289" lon="6.7152">
        <ele>353.9</ele>
        <time>2025-09-13T11:48:40Z</time>
      </trkpt>
      <trkpt lat="47.54291" lon="6.71512">
        <ele>353.9</ele>
        <time>2025-09-13T11:48:41Z</time>
      </trkpt>
      <trkpt lat="47.54293" lon="6.71504">
        <ele>354</ele>
        <time>2025-09-13T11:48:42Z</time>
      </trkpt>
      <trkpt lat="47.54294" lon="6.71495">
        <ele>354.1</ele>
        <time>2025-09-13T11:48:43Z</time>
      </trkpt>
      <trkpt lat="47.54296" lon="6.71486">
        <ele>354.2</ele>
        <time>2025-09-13T11:48:44Z</time>
      </trkpt>
      <trkpt lat="47.54297" lon="6.71479">
        <ele>354.3</ele>
        <time>2025-09-13T11:48:45Z</time>
      </trkpt>
      <trkpt lat="47.54298" lon="6.7147">
        <ele>354.5</ele>
        <time>2025-09-13T11:48:46Z</time>
      </trkpt>
      <trkpt lat="47.543" lon="6.71462">
        <ele>354.6</ele>
        <time>2025-09-13T11:48:47Z</time>
      </trkpt>
      <trkpt lat="47.54301" lon="6.71454">
        <ele>354.8</ele>
        <time>2025-09-13T11:48:48Z</time>
      </trkpt>
      <trkpt lat="47.54303" lon="6.71446">
        <ele>354.9</ele>
        <time>2025-09-13T11:48:49Z</time>
      </trkpt>
      <trkpt lat="47.54304" lon="6.71438">
        <ele>355.1</ele>
        <time>2025-09-13T11:48:50Z</time>
      </trkpt>
      <trkpt lat="47.54305" lon="6.71431">
        <ele>355.2</ele>
        <time>2025-09-13T11:48:51Z</time>
      </trkpt>
      <trkpt lat="47.54307" lon="6.71422">
        <ele>355.4</ele>
        <time>2025-09-13T11:48:53Z</time>
      </trkpt>
      <trkpt lat="47.54308" lon="6.71414">
        <ele>355.5</ele>
        <time>2025-09-13T11:48:54Z</time>
      </trkpt>
      <trkpt lat="47.5431" lon="6.71398">
        <ele>355.8</ele>
        <time>2025-09-13T11:48:55Z</time>
      </trkpt>
      <trkpt lat="47.54311" lon="6.71389">
        <ele>355.9</ele>
        <time>2025-09-13T11:48:56Z</time>
      </trkpt>
      <trkpt lat="47.54312" lon="6.71381">
        <ele>356.1</ele>
        <time>2025-09-13T11:48:57Z</time>
      </trkpt>
      <trkpt lat="47.54313" lon="6.71373">
        <ele>356.2</ele>
        <time>2025-09-13T11:48:58Z</time>
      </trkpt>
      <trkpt lat="47.54314" lon="6.71364">
        <ele>356.4</ele>
        <time>2025-09-13T11:48:59Z</time>
      </trkpt>
      <trkpt lat="47.54314" lon="6.71356">
        <ele>356.5</ele>
        <time>2025-09-13T11:49:00Z</time>
      </trkpt>
      <trkpt lat="47.54314" lon="6.71348">
        <ele>356.7</ele>
        <time>2025-09-13T11:49:01Z</time>
      </trkpt>
      <trkpt lat="47.54315" lon="6.7134">
        <ele>356.8</ele>
        <time>2025-09-13T11:49:02Z</time>
      </trkpt>
      <trkpt lat="47.54315" lon="6.71332">
        <ele>357</ele>
        <time>2025-09-13T11:49:03Z</time>
      </trkpt>
      <trkpt lat="47.54315" lon="6.71324">
        <ele>357.2</ele>
        <time>2025-09-13T11:49:04Z</time>
      </trkpt>
      <trkpt lat="47.54316" lon="6.71316">
        <ele>357.3</ele>
        <time>2025-09-13T11:49:05Z</time>
      </trkpt>
      <trkpt lat="47.54316" lon="6.71308">
        <ele>357.5</ele>
        <time>2025-09-13T11:49:06Z</time>
      </trkpt>
      <trkpt lat="47.54316" lon="6.71299">
        <ele>357.7</ele>
        <time>2025-09-13T11:49:07Z</time>
      </trkpt>
      <trkpt lat="47.54316" lon="6.71293">
        <ele>357.9</ele>
        <time>2025-09-13T11:49:08Z</time>
      </trkpt>
      <trkpt lat="47.54317" lon="6.71285">
        <ele>358.1</ele>
        <time>2025-09-13T11:49:09Z</time>
      </trkpt>
      <trkpt lat="47.54317" lon="6.71277">
        <ele>358.3</ele>
        <time>2025-09-13T11:49:10Z</time>
      </trkpt>
      <trkpt lat="47.54317" lon="6.7127">
        <ele>358.5</ele>
        <time>2025-09-13T11:49:11Z</time>
      </trkpt>
      <trkpt lat="47.54317" lon="6.71262">
        <ele>358.8</ele>
        <time>2025-09-13T11:49:12Z</time>
      </trkpt>
      <trkpt lat="47.54317" lon="6.71254">
        <ele>359.1</ele>
        <time>2025-09-13T11:49:13Z</time>
      </trkpt>
      <trkpt lat="47.54318" lon="6.71247">
        <ele>359.4</ele>
        <time>2025-09-13T11:49:14Z</time>
      </trkpt>
      <trkpt lat="47.54318" lon="6.7124">
        <ele>359.7</ele>
        <time>2025-09-13T11:49:15Z</time>
      </trkpt>
      <trkpt lat="47.54319" lon="6.71233">
        <ele>359.9</ele>
        <time>2025-09-13T11:49:16Z</time>
      </trkpt>
      <trkpt lat="47.54319" lon="6.71226">
        <ele>360.3</ele>
        <time>2025-09-13T11:49:17Z</time>
      </trkpt>
      <trkpt lat="47.54319" lon="6.7122">
        <ele>360.6</ele>
        <time>2025-09-13T11:49:18Z</time>
      </trkpt>
      <trkpt lat="47.54319" lon="6.71213">
        <ele>360.9</ele>
        <time>2025-09-13T11:49:19Z</time>
      </trkpt>
      <trkpt lat="47.5432" lon="6.71207">
        <ele>361.2</ele>
        <time>2025-09-13T11:49:20Z</time>
      </trkpt>
      <trkpt lat="47.54321" lon="6.712">
        <ele>361.5</ele>
        <time>2025-09-13T11:49:21Z</time>
      </trkpt>
      <trkpt lat="47.54321" lon="6.71194">
        <ele>361.7</ele>
        <time>2025-09-13T11:49:22Z</time>
      </trkpt>
      <trkpt lat="47.54322" lon="6.71188">
        <ele>362</ele>
        <time>2025-09-13T11:49:23Z</time>
      </trkpt>
      <trkpt lat="47.54322" lon="6.71183">
        <ele>362.3</ele>
        <time>2025-09-13T11:49:24Z</time>
      </trkpt>
      <trkpt lat="47.54323" lon="6.71177">
        <ele>362.6</ele>
        <time>2025-09-13T11:49:25Z</time>
      </trkpt>
      <trkpt lat="47.54324" lon="6.71171">
        <ele>362.9</ele>
        <time>2025-09-13T11:49:26Z</time>
      </trkpt>
      <trkpt lat="47.54325" lon="6.71164">
        <ele>363.1</ele>
        <time>2025-09-13T11:49:27Z</time>
      </trkpt>
      <trkpt lat="47.54326" lon="6.71158">
        <ele>363.4</ele>
        <time>2025-09-13T11:49:28Z</time>
      </trkpt>
      <trkpt lat="47.54327" lon="6.71153">
        <ele>363.7</ele>
        <time>2025-09-13T11:49:29Z</time>
      </trkpt>
      <trkpt lat="47.54328" lon="6.71147">
        <ele>364</ele>
        <time>2025-09-13T11:49:30Z</time>
      </trkpt>
      <trkpt lat="47.5433" lon="6.7114">
        <ele>364.2</ele>
        <time>2025-09-13T11:49:31Z</time>
      </trkpt>
      <trkpt lat="47.54331" lon="6.71134">
        <ele>364.5</ele>
        <time>2025-09-13T11:49:32Z</time>
      </trkpt>
      <trkpt lat="47.54332" lon="6.71128">
        <ele>364.8</ele>
        <time>2025-09-13T11:49:33Z</time>
      </trkpt>
      <trkpt lat="47.54333" lon="6.71123">
        <ele>365</ele>
        <time>2025-09-13T11:49:34Z</time>
      </trkpt>
      <trkpt lat="47.54335" lon="6.71117">
        <ele>365.3</ele>
        <time>2025-09-13T11:49:35Z</time>
      </trkpt>
      <trkpt lat="47.54336" lon="6.71111">
        <ele>365.5</ele>
        <time>2025-09-13T11:49:36Z</time>
      </trkpt>
      <trkpt lat="47.54338" lon="6.71105">
        <ele>365.8</ele>
        <time>2025-09-13T11:49:37Z</time>
      </trkpt>
      <trkpt lat="47.5434" lon="6.71099">
        <ele>366</ele>
        <time>2025-09-13T11:49:38Z</time>
      </trkpt>
      <trkpt lat="47.54341" lon="6.71094">
        <ele>366.3</ele>
        <time>2025-09-13T11:49:39Z</time>
      </trkpt>
      <trkpt lat="47.54343" lon="6.71088">
        <ele>366.6</ele>
        <time>2025-09-13T11:49:40Z</time>
      </trkpt>
      <trkpt lat="47.54345" lon="6.71082">
        <ele>366.8</ele>
        <time>2025-09-13T11:49:41Z</time>
      </trkpt>
      <trkpt lat="47.54347" lon="6.71076">
        <ele>367.1</ele>
        <time>2025-09-13T11:49:42Z</time>
      </trkpt>
      <trkpt lat="47.54349" lon="6.71071">
        <ele>367.3</ele>
        <time>2025-09-13T11:49:43Z</time>
      </trkpt>
      <trkpt lat="47.54351" lon="6.71065">
        <ele>367.6</ele>
        <time>2025-09-13T11:49:44Z</time>
      </trkpt>
      <trkpt lat="47.54352" lon="6.7106">
        <ele>367.9</ele>
        <time>2025-09-13T11:49:45Z</time>
      </trkpt>
      <trkpt lat="47.54355" lon="6.71054">
        <ele>368.1</ele>
        <time>2025-09-13T11:49:46Z</time>
      </trkpt>
      <trkpt lat="47.54357" lon="6.71048">
        <ele>368.4</ele>
        <time>2025-09-13T11:49:47Z</time>
      </trkpt>
      <trkpt lat="47.54359" lon="6.71043">
        <ele>368.6</ele>
        <time>2025-09-13T11:49:48Z</time>
      </trkpt>
      <trkpt lat="47.54361" lon="6.71038">
        <ele>368.8</ele>
        <time>2025-09-13T11:49:49Z</time>
      </trkpt>
      <trkpt lat="47.54363" lon="6.71033">
        <ele>369.1</ele>
        <time>2025-09-13T11:49:50Z</time>
      </trkpt>
      <trkpt lat="47.54366" lon="6.71028">
        <ele>369.3</ele>
        <time>2025-09-13T11:49:51Z</time>
      </trkpt>
      <trkpt lat="47.54369" lon="6.71022">
        <ele>369.6</ele>
        <time>2025-09-13T11:49:52Z</time>
      </trkpt>
      <trkpt lat="47.54371" lon="6.71017">
        <ele>369.8</ele>
        <time>2025-09-13T11:49:53Z</time>
      </trkpt>
      <trkpt lat="47.54373" lon="6.71011">
        <ele>370</ele>
        <time>2025-09-13T11:49:54Z</time>
      </trkpt>
      <trkpt lat="47.54376" lon="6.71006">
        <ele>370.2</ele>
        <time>2025-09-13T11:49:55Z</time>
      </trkpt>
      <trkpt lat="47.54378" lon="6.71001">
        <ele>370.4</ele>
        <time>2025-09-13T11:49:56Z</time>
      </trkpt>
      <trkpt lat="47.54381" lon="6.70995">
        <ele>370.6</ele>
        <time>2025-09-13T11:49:57Z</time>
      </trkpt>
      <trkpt lat="47.54384" lon="6.7099">
        <ele>370.8</ele>
        <time>2025-09-13T11:49:58Z</time>
      </trkpt>
      <trkpt lat="47.54387" lon="6.70985">
        <ele>371</ele>
        <time>2025-09-13T11:49:59Z</time>
      </trkpt>
      <trkpt lat="47.5439" lon="6.7098">
        <ele>371.2</ele>
        <time>2025-09-13T11:50:00Z</time>
      </trkpt>
      <trkpt lat="47.54393" lon="6.70975">
        <ele>371.4</ele>
        <time>2025-09-13T11:50:01Z</time>
      </trkpt>
      <trkpt lat="47.54396" lon="6.70971">
        <ele>371.6</ele>
        <time>2025-09-13T11:50:02Z</time>
      </trkpt>
      <trkpt lat="47.54399" lon="6.70966">
        <ele>371.8</ele>
        <time>2025-09-13T11:50:03Z</time>
      </trkpt>
      <trkpt lat="47.54402" lon="6.70961">
        <ele>372</ele>
        <time>2025-09-13T11:50:04Z</time>
      </trkpt>
      <trkpt lat="47.54405" lon="6.70957">
        <ele>372.1</ele>
        <time>2025-09-13T11:50:05Z</time>
      </trkpt>
      <trkpt lat="47.54408" lon="6.70952">
        <ele>372.3</ele>
        <time>2025-09-13T11:50:06Z</time>
      </trkpt>
      <trkpt lat="47.54411" lon="6.70948">
        <ele>372.5</ele>
        <time>2025-09-13T11:50:07Z</time>
      </trkpt>
      <trkpt lat="47.54414" lon="6.70944">
        <ele>372.6</ele>
        <time>2025-09-13T11:50:08Z</time>
      </trkpt>
      <trkpt lat="47.54417" lon="6.70938">
        <ele>372.8</ele>
        <time>2025-09-13T11:50:09Z</time>
      </trkpt>
      <trkpt lat="47.54421" lon="6.70934">
        <ele>372.9</ele>
        <time>2025-09-13T11:50:10Z</time>
      </trkpt>
      <trkpt lat="47.54424" lon="6.70929">
        <ele>373.1</ele>
        <time>2025-09-13T11:50:11Z</time>
      </trkpt>
      <trkpt lat="47.54427" lon="6.70924">
        <ele>373.2</ele>
        <time>2025-09-13T11:50:12Z</time>
      </trkpt>
      <trkpt lat="47.5443" lon="6.70919">
        <ele>373.3</ele>
        <time>2025-09-13T11:50:13Z</time>
      </trkpt>
      <trkpt lat="47.54434" lon="6.70914">
        <ele>373.4</ele>
        <time>2025-09-13T11:50:14Z</time>
      </trkpt>
      <trkpt lat="47.54436" lon="6.70909">
        <ele>373.4</ele>
        <time>2025-09-13T11:50:15Z</time>
      </trkpt>
      <trkpt lat="47.54439" lon="6.70905">
        <ele>373.5</ele>
        <time>2025-09-13T11:50:16Z</time>
      </trkpt>
      <trkpt lat="47.54442" lon="6.70899">
        <ele>373.5</ele>
        <time>2025-09-13T11:50:17Z</time>
      </trkpt>
      <trkpt lat="47.54446" lon="6.70894">
        <ele>373.5</ele>
        <time>2025-09-13T11:50:18Z</time>
      </trkpt>
      <trkpt lat="47.54449" lon="6.70889">
        <ele>373.6</ele>
        <time>2025-09-13T11:50:19Z</time>
      </trkpt>
      <trkpt lat="47.54452" lon="6.70884">
        <ele>373.6</ele>
        <time>2025-09-13T11:50:20Z</time>
      </trkpt>
      <trkpt lat="47.54455" lon="6.70879">
        <ele>373.6</ele>
        <time>2025-09-13T11:50:21Z</time>
      </trkpt>
      <trkpt lat="47.54459" lon="6.70874">
        <ele>373.6</ele>
        <time>2025-09-13T11:50:22Z</time>
      </trkpt>
      <trkpt lat="47.54462" lon="6.70869">
        <ele>373.5</ele>
        <time>2025-09-13T11:50:23Z</time>
      </trkpt>
      <trkpt lat="47.54465" lon="6.70863">
        <ele>373.5</ele>
        <time>2025-09-13T11:50:24Z</time>
      </trkpt>
      <trkpt lat="47.54468" lon="6.70858">
        <ele>373.5</ele>
        <time>2025-09-13T11:50:25Z</time>
      </trkpt>
      <trkpt lat="47.54472" lon="6.70851">
        <ele>373.4</ele>
        <time>2025-09-13T11:50:26Z</time>
      </trkpt>
      <trkpt lat="47.54475" lon="6.70845">
        <ele>373.4</ele>
        <time>2025-09-13T11:50:27Z</time>
      </trkpt>
      <trkpt lat="47.54479" lon="6.70839">
        <ele>373.3</ele>
        <time>2025-09-13T11:50:28Z</time>
      </trkpt>
      <trkpt lat="47.54484" lon="6.70833">
        <ele>373.2</ele>
        <time>2025-09-13T11:50:29Z</time>
      </trkpt>
      <trkpt lat="47.54488" lon="6.70827">
        <ele>373.2</ele>
        <time>2025-09-13T11:50:30Z</time>
      </trkpt>
      <trkpt lat="47.54493" lon="6.70821">
        <ele>373.1</ele>
        <time>2025-09-13T11:50:31Z</time>
      </trkpt>
      <trkpt lat="47.54497" lon="6.70815">
        <ele>373.1</ele>
        <time>2025-09-13T11:50:32Z</time>
      </trkpt>
      <trkpt lat="47.54501" lon="6.70808">
        <ele>373</ele>
        <time>2025-09-13T11:50:33Z</time>
      </trkpt>
      <trkpt lat="47.54505" lon="6.70802">
        <ele>372.9</ele>
        <time>2025-09-13T11:50:34Z</time>
      </trkpt>
      <trkpt lat="47.5451" lon="6.70797">
        <ele>372.9</ele>
        <time>2025-09-13T11:50:35Z</time>
      </trkpt>
      <trkpt lat="47.54514" lon="6.70791">
        <ele>372.8</ele>
        <time>2025-09-13T11:50:36Z</time>
      </trkpt>
      <trkpt lat="47.54518" lon="6.70784">
        <ele>372.7</ele>
        <time>2025-09-13T11:50:37Z</time>
      </trkpt>
      <trkpt lat="47.54522" lon="6.70777">
        <ele>372.6</ele>
        <time>2025-09-13T11:50:38Z</time>
      </trkpt>
      <trkpt lat="47.54526" lon="6.70771">
        <ele>372.5</ele>
        <time>2025-09-13T11:50:39Z</time>
      </trkpt>
      <trkpt lat="47.54531" lon="6.70764">
        <ele>372.3</ele>
        <time>2025-09-13T11:50:40Z</time>
      </trkpt>
      <trkpt lat="47.54536" lon="6.70758">
        <ele>372.1</ele>
        <time>2025-09-13T11:50:41Z</time>
      </trkpt>
      <trkpt lat="47.5454" lon="6.70751">
        <ele>372</ele>
        <time>2025-09-13T11:50:42Z</time>
      </trkpt>
      <trkpt lat="47.54545" lon="6.70745">
        <ele>371.7</ele>
        <time>2025-09-13T11:50:43Z</time>
      </trkpt>
      <trkpt lat="47.5455" lon="6.70739">
        <ele>371.5</ele>
        <time>2025-09-13T11:50:44Z</time>
      </trkpt>
      <trkpt lat="47.54555" lon="6.70733">
        <ele>371.2</ele>
        <time>2025-09-13T11:50:45Z</time>
      </trkpt>
      <trkpt lat="47.54561" lon="6.70727">
        <ele>370.9</ele>
        <time>2025-09-13T11:50:46Z</time>
      </trkpt>
      <trkpt lat="47.54568" lon="6.70721">
        <ele>370.6</ele>
        <time>2025-09-13T11:50:47Z</time>
      </trkpt>
      <trkpt lat="47.54574" lon="6.70715">
        <ele>370.3</ele>
        <time>2025-09-13T11:50:48Z</time>
      </trkpt>
      <trkpt lat="47.54577" lon="6.70707">
        <ele>370</ele>
        <time>2025-09-13T11:50:49Z</time>
      </trkpt>
      <trkpt lat="47.54583" lon="6.70702">
        <ele>369.7</ele>
        <time>2025-09-13T11:50:50Z</time>
      </trkpt>
      <trkpt lat="47.54588" lon="6.70696">
        <ele>369.5</ele>
        <time>2025-09-13T11:50:51Z</time>
      </trkpt>
      <trkpt lat="47.54595" lon="6.70691">
        <ele>369.3</ele>
        <time>2025-09-13T11:50:52Z</time>
      </trkpt>
      <trkpt lat="47.54601" lon="6.70682">
        <ele>369.1</ele>
        <time>2025-09-13T11:50:53Z</time>
      </trkpt>
      <trkpt lat="47.54607" lon="6.70676">
        <ele>368.9</ele>
        <time>2025-09-13T11:50:54Z</time>
      </trkpt>
      <trkpt lat="47.54613" lon="6.70669">
        <ele>368.7</ele>
        <time>2025-09-13T11:50:55Z</time>
      </trkpt>
      <trkpt lat="47.54619" lon="6.70663">
        <ele>368.6</ele>
        <time>2025-09-13T11:50:56Z</time>
      </trkpt>
      <trkpt lat="47.54625" lon="6.70658">
        <ele>368.5</ele>
        <time>2025-09-13T11:50:57Z</time>
      </trkpt>
      <trkpt lat="47.5463" lon="6.70652">
        <ele>368.5</ele>
        <time>2025-09-13T11:50:58Z</time>
      </trkpt>
      <trkpt lat="47.54635" lon="6.70647">
        <ele>368.4</ele>
        <time>2025-09-13T11:50:59Z</time>
      </trkpt>
      <trkpt lat="47.5464" lon="6.70642">
        <ele>368.4</ele>
        <time>2025-09-13T11:51:00Z</time>
      </trkpt>
      <trkpt lat="47.54645" lon="6.70637">
        <ele>368.3</ele>
        <time>2025-09-13T11:51:01Z</time>
      </trkpt>
      <trkpt lat="47.5465" lon="6.70631">
        <ele>368.3</ele>
        <time>2025-09-13T11:51:02Z</time>
      </trkpt>
      <trkpt lat="47.54655" lon="6.70625">
        <ele>368.2</ele>
        <time>2025-09-13T11:51:03Z</time>
      </trkpt>
      <trkpt lat="47.54661" lon="6.7062">
        <ele>368.2</ele>
        <time>2025-09-13T11:51:04Z</time>
      </trkpt>
      <trkpt lat="47.54666" lon="6.70615">
        <ele>368.2</ele>
        <time>2025-09-13T11:51:05Z</time>
      </trkpt>
      <trkpt lat="47.54672" lon="6.70608">
        <ele>368.1</ele>
        <time>2025-09-13T11:51:06Z</time>
      </trkpt>
      <trkpt lat="47.54678" lon="6.70602">
        <ele>368.1</ele>
        <time>2025-09-13T11:51:07Z</time>
      </trkpt>
      <trkpt lat="47.54684" lon="6.70595">
        <ele>368</ele>
        <time>2025-09-13T11:51:08Z</time>
      </trkpt>
      <trkpt lat="47.5469" lon="6.70589">
        <ele>368</ele>
        <time>2025-09-13T11:51:09Z</time>
      </trkpt>
      <trkpt lat="47.54696" lon="6.70585">
        <ele>368</ele>
        <time>2025-09-13T11:51:10Z</time>
      </trkpt>
      <trkpt lat="47.54702" lon="6.7058">
        <ele>368</ele>
        <time>2025-09-13T11:51:11Z</time>
      </trkpt>
      <trkpt lat="47.54707" lon="6.70574">
        <ele>368.1</ele>
        <time>2025-09-13T11:51:12Z</time>
      </trkpt>
      <trkpt lat="47.54712" lon="6.70568">
        <ele>368.1</ele>
        <time>2025-09-13T11:51:13Z</time>
      </trkpt>
      <trkpt lat="47.54718" lon="6.70563">
        <ele>368.1</ele>
        <time>2025-09-13T11:51:14Z</time>
      </trkpt>
      <trkpt lat="47.54723" lon="6.70557">
        <ele>368.2</ele>
        <time>2025-09-13T11:51:15Z</time>
      </trkpt>
      <trkpt lat="47.54729" lon="6.70553">
        <ele>368.2</ele>
        <time>2025-09-13T11:51:16Z</time>
      </trkpt>
      <trkpt lat="47.54734" lon="6.70548">
        <ele>368.2</ele>
        <time>2025-09-13T11:51:17Z</time>
      </trkpt>
      <trkpt lat="47.54739" lon="6.70542">
        <ele>368.2</ele>
        <time>2025-09-13T11:51:18Z</time>
      </trkpt>
      <trkpt lat="47.54744" lon="6.70537">
        <ele>368.2</ele>
        <time>2025-09-13T11:51:19Z</time>
      </trkpt>
      <trkpt lat="47.5475" lon="6.70532">
        <ele>368.1</ele>
        <time>2025-09-13T11:51:20Z</time>
      </trkpt>
      <trkpt lat="47.54755" lon="6.70525">
        <ele>367.9</ele>
        <time>2025-09-13T11:51:21Z</time>
      </trkpt>
      <trkpt lat="47.5476" lon="6.70521">
        <ele>367.6</ele>
        <time>2025-09-13T11:51:22Z</time>
      </trkpt>
      <trkpt lat="47.54766" lon="6.70514">
        <ele>367.3</ele>
        <time>2025-09-13T11:51:23Z</time>
      </trkpt>
      <trkpt lat="47.54771" lon="6.70509">
        <ele>367</ele>
        <time>2025-09-13T11:51:24Z</time>
      </trkpt>
      <trkpt lat="47.54777" lon="6.70503">
        <ele>366.6</ele>
        <time>2025-09-13T11:51:25Z</time>
      </trkpt>
      <trkpt lat="47.54783" lon="6.70496">
        <ele>366.2</ele>
        <time>2025-09-13T11:51:26Z</time>
      </trkpt>
      <trkpt lat="47.54789" lon="6.7049">
        <ele>365.8</ele>
        <time>2025-09-13T11:51:27Z</time>
      </trkpt>
      <trkpt lat="47.54795" lon="6.70484">
        <ele>365.4</ele>
        <time>2025-09-13T11:51:28Z</time>
      </trkpt>
      <trkpt lat="47.54801" lon="6.70477">
        <ele>365</ele>
        <time>2025-09-13T11:51:29Z</time>
      </trkpt>
      <trkpt lat="47.54806" lon="6.70471">
        <ele>364.6</ele>
        <time>2025-09-13T11:51:30Z</time>
      </trkpt>
      <trkpt lat="47.54811" lon="6.70464">
        <ele>364.3</ele>
        <time>2025-09-13T11:51:31Z</time>
      </trkpt>
      <trkpt lat="47.54819" lon="6.70459">
        <ele>363.9</ele>
        <time>2025-09-13T11:51:32Z</time>
      </trkpt>
      <trkpt lat="47.54825" lon="6.70453">
        <ele>363.6</ele>
        <time>2025-09-13T11:51:33Z</time>
      </trkpt>
      <trkpt lat="47.54833" lon="6.70444">
        <ele>363.2</ele>
        <time>2025-09-13T11:51:34Z</time>
      </trkpt>
      <trkpt lat="47.54838" lon="6.70438">
        <ele>362.9</ele>
        <time>2025-09-13T11:51:35Z</time>
      </trkpt>
      <trkpt lat="47.54845" lon="6.70429">
        <ele>362.7</ele>
        <time>2025-09-13T11:51:36Z</time>
      </trkpt>
      <trkpt lat="47.5485" lon="6.70422">
        <ele>362.4</ele>
        <time>2025-09-13T11:51:37Z</time>
      </trkpt>
      <trkpt lat="47.54856" lon="6.70414">
        <ele>362.1</ele>
        <time>2025-09-13T11:51:38Z</time>
      </trkpt>
      <trkpt lat="47.54862" lon="6.70405">
        <ele>361.9</ele>
        <time>2025-09-13T11:51:39Z</time>
      </trkpt>
      <trkpt lat="47.54868" lon="6.70401">
        <ele>361.8</ele>
        <time>2025-09-13T11:51:40Z</time>
      </trkpt>
      <trkpt lat="47.54873" lon="6.70394">
        <ele>361.6</ele>
        <time>2025-09-13T11:51:41Z</time>
      </trkpt>
      <trkpt lat="47.54879" lon="6.70384">
        <ele>361.3</ele>
        <time>2025-09-13T11:51:42Z</time>
      </trkpt>
      <trkpt lat="47.54884" lon="6.70374">
        <ele>361</ele>
        <time>2025-09-13T11:51:43Z</time>
      </trkpt>
      <trkpt lat="47.54888" lon="6.70366">
        <ele>360.7</ele>
        <time>2025-09-13T11:51:44Z</time>
      </trkpt>
      <trkpt lat="47.54892" lon="6.70358">
        <ele>360.4</ele>
        <time>2025-09-13T11:51:45Z</time>
      </trkpt>
      <trkpt lat="47.54898" lon="6.70349">
        <ele>360.1</ele>
        <time>2025-09-13T11:51:46Z</time>
      </trkpt>
      <trkpt lat="47.54903" lon="6.7034">
        <ele>359.7</ele>
        <time>2025-09-13T11:51:47Z</time>
      </trkpt>
      <trkpt lat="47.54908" lon="6.7033">
        <ele>359.3</ele>
        <time>2025-09-13T11:51:48Z</time>
      </trkpt>
      <trkpt lat="47.54914" lon="6.7032">
        <ele>358.9</ele>
        <time>2025-09-13T11:51:49Z</time>
      </trkpt>
      <trkpt lat="47.54919" lon="6.7031">
        <ele>358.4</ele>
        <time>2025-09-13T11:51:50Z</time>
      </trkpt>
      <trkpt lat="47.54925" lon="6.70299">
        <ele>357.9</ele>
        <time>2025-09-13T11:51:51Z</time>
      </trkpt>
      <trkpt lat="47.5493" lon="6.70289">
        <ele>357.5</ele>
        <time>2025-09-13T11:51:52Z</time>
      </trkpt>
      <trkpt lat="47.54936" lon="6.70278">
        <ele>357</ele>
        <time>2025-09-13T11:51:53Z</time>
      </trkpt>
      <trkpt lat="47.54941" lon="6.70267">
        <ele>356.5</ele>
        <time>2025-09-13T11:51:54Z</time>
      </trkpt>
      <trkpt lat="47.54947" lon="6.70255">
        <ele>356</ele>
        <time>2025-09-13T11:51:55Z</time>
      </trkpt>
      <trkpt lat="47.54952" lon="6.70243">
        <ele>355.5</ele>
        <time>2025-09-13T11:51:56Z</time>
      </trkpt>
      <trkpt lat="47.54958" lon="6.70232">
        <ele>355</ele>
        <time>2025-09-13T11:51:57Z</time>
      </trkpt>
      <trkpt lat="47.54963" lon="6.7022">
        <ele>354.6</ele>
        <time>2025-09-13T11:51:58Z</time>
      </trkpt>
      <trkpt lat="47.54969" lon="6.70208">
        <ele>354.2</ele>
        <time>2025-09-13T11:51:59Z</time>
      </trkpt>
      <trkpt lat="47.54974" lon="6.70197">
        <ele>354</ele>
        <time>2025-09-13T11:52:00Z</time>
      </trkpt>
      <trkpt lat="47.5498" lon="6.70184">
        <ele>353.7</ele>
        <time>2025-09-13T11:52:01Z</time>
      </trkpt>
      <trkpt lat="47.54984" lon="6.70173">
        <ele>353.5</ele>
        <time>2025-09-13T11:52:02Z</time>
      </trkpt>
      <trkpt lat="47.54989" lon="6.70161">
        <ele>353.4</ele>
        <time>2025-09-13T11:52:03Z</time>
      </trkpt>
      <trkpt lat="47.54994" lon="6.7015">
        <ele>353.2</ele>
        <time>2025-09-13T11:52:04Z</time>
      </trkpt>
      <trkpt lat="47.54999" lon="6.7014">
        <ele>353.1</ele>
        <time>2025-09-13T11:52:05Z</time>
      </trkpt>
      <trkpt lat="47.55004" lon="6.7013">
        <ele>353</ele>
        <time>2025-09-13T11:52:06Z</time>
      </trkpt>
      <trkpt lat="47.55009" lon="6.7012">
        <ele>352.9</ele>
        <time>2025-09-13T11:52:07Z</time>
      </trkpt>
      <trkpt lat="47.55013" lon="6.7011">
        <ele>352.9</ele>
        <time>2025-09-13T11:52:08Z</time>
      </trkpt>
      <trkpt lat="47.55017" lon="6.701">
        <ele>352.8</ele>
        <time>2025-09-13T11:52:09Z</time>
      </trkpt>
      <trkpt lat="47.5502" lon="6.70089">
        <ele>352.7</ele>
        <time>2025-09-13T11:52:10Z</time>
      </trkpt>
      <trkpt lat="47.55024" lon="6.70079">
        <ele>352.7</ele>
        <time>2025-09-13T11:52:11Z</time>
      </trkpt>
      <trkpt lat="47.55028" lon="6.70068">
        <ele>352.7</ele>
        <time>2025-09-13T11:52:12Z</time>
      </trkpt>
      <trkpt lat="47.55031" lon="6.70057">
        <ele>352.7</ele>
        <time>2025-09-13T11:52:13Z</time>
      </trkpt>
      <trkpt lat="47.55035" lon="6.70047">
        <ele>352.7</ele>
        <time>2025-09-13T11:52:14Z</time>
      </trkpt>
      <trkpt lat="47.55038" lon="6.70037">
        <ele>352.8</ele>
        <time>2025-09-13T11:52:15Z</time>
      </trkpt>
      <trkpt lat="47.55042" lon="6.70028">
        <ele>352.9</ele>
        <time>2025-09-13T11:52:16Z</time>
      </trkpt>
      <trkpt lat="47.55045" lon="6.70018">
        <ele>352.9</ele>
        <time>2025-09-13T11:52:17Z</time>
      </trkpt>
      <trkpt lat="47.55049" lon="6.70007">
        <ele>353</ele>
        <time>2025-09-13T11:52:18Z</time>
      </trkpt>
      <trkpt lat="47.55052" lon="6.69998">
        <ele>353.1</ele>
        <time>2025-09-13T11:52:19Z</time>
      </trkpt>
      <trkpt lat="47.55055" lon="6.69988">
        <ele>353.2</ele>
        <time>2025-09-13T11:52:20Z</time>
      </trkpt>
      <trkpt lat="47.55059" lon="6.6998">
        <ele>353.3</ele>
        <time>2025-09-13T11:52:21Z</time>
      </trkpt>
      <trkpt lat="47.55063" lon="6.69971">
        <ele>353.3</ele>
        <time>2025-09-13T11:52:22Z</time>
      </trkpt>
      <trkpt lat="47.55066" lon="6.69963">
        <ele>353.4</ele>
        <time>2025-09-13T11:52:23Z</time>
      </trkpt>
      <trkpt lat="47.5507" lon="6.69954">
        <ele>353.5</ele>
        <time>2025-09-13T11:52:24Z</time>
      </trkpt>
      <trkpt lat="47.55073" lon="6.69945">
        <ele>353.5</ele>
        <time>2025-09-13T11:52:25Z</time>
      </trkpt>
      <trkpt lat="47.55076" lon="6.69937">
        <ele>353.7</ele>
        <time>2025-09-13T11:52:26Z</time>
      </trkpt>
      <trkpt lat="47.55079" lon="6.69928">
        <ele>353.8</ele>
        <time>2025-09-13T11:52:27Z</time>
      </trkpt>
      <trkpt lat="47.55082" lon="6.69921">
        <ele>353.9</ele>
        <time>2025-09-13T11:52:28Z</time>
      </trkpt>
      <trkpt lat="47.55085" lon="6.69912">
        <ele>354.1</ele>
        <time>2025-09-13T11:52:29Z</time>
      </trkpt>
      <trkpt lat="47.55088" lon="6.69904">
        <ele>354.3</ele>
        <time>2025-09-13T11:52:30Z</time>
      </trkpt>
      <trkpt lat="47.5509" lon="6.69895">
        <ele>354.5</ele>
        <time>2025-09-13T11:52:31Z</time>
      </trkpt>
      <trkpt lat="47.55093" lon="6.69888">
        <ele>354.7</ele>
        <time>2025-09-13T11:52:32Z</time>
      </trkpt>
      <trkpt lat="47.55096" lon="6.69879">
        <ele>355</ele>
        <time>2025-09-13T11:52:33Z</time>
      </trkpt>
      <trkpt lat="47.55099" lon="6.69872">
        <ele>355.2</ele>
        <time>2025-09-13T11:52:34Z</time>
      </trkpt>
      <trkpt lat="47.55102" lon="6.69865">
        <ele>355.5</ele>
        <time>2025-09-13T11:52:35Z</time>
      </trkpt>
      <trkpt lat="47.55105" lon="6.69859">
        <ele>355.7</ele>
        <time>2025-09-13T11:52:36Z</time>
      </trkpt>
      <trkpt lat="47.55108" lon="6.69852">
        <ele>356</ele>
        <time>2025-09-13T11:52:37Z</time>
      </trkpt>
      <trkpt lat="47.5511" lon="6.69845">
        <ele>356.2</ele>
        <time>2025-09-13T11:52:38Z</time>
      </trkpt>
      <trkpt lat="47.55112" lon="6.69839">
        <ele>356.4</ele>
        <time>2025-09-13T11:52:39Z</time>
      </trkpt>
      <trkpt lat="47.55114" lon="6.69833">
        <ele>356.7</ele>
        <time>2025-09-13T11:52:40Z</time>
      </trkpt>
      <trkpt lat="47.55116" lon="6.69827">
        <ele>356.9</ele>
        <time>2025-09-13T11:52:41Z</time>
      </trkpt>
      <trkpt lat="47.55118" lon="6.69822">
        <ele>357.2</ele>
        <time>2025-09-13T11:52:42Z</time>
      </trkpt>
      <trkpt lat="47.5512" lon="6.69816">
        <ele>357.4</ele>
        <time>2025-09-13T11:52:43Z</time>
      </trkpt>
      <trkpt lat="47.55122" lon="6.6981">
        <ele>357.7</ele>
        <time>2025-09-13T11:52:44Z</time>
      </trkpt>
      <trkpt lat="47.55124" lon="6.69805">
        <ele>357.9</ele>
        <time>2025-09-13T11:52:45Z</time>
      </trkpt>
      <trkpt lat="47.55125" lon="6.69799">
        <ele>358.2</ele>
        <time>2025-09-13T11:52:46Z</time>
      </trkpt>
      <trkpt lat="47.55125" lon="6.69793">
        <ele>358.4</ele>
        <time>2025-09-13T11:52:47Z</time>
      </trkpt>
      <trkpt lat="47.55126" lon="6.69788">
        <ele>358.6</ele>
        <time>2025-09-13T11:52:48Z</time>
      </trkpt>
      <trkpt lat="47.55127" lon="6.69783">
        <ele>358.8</ele>
        <time>2025-09-13T11:52:49Z</time>
      </trkpt>
      <trkpt lat="47.55129" lon="6.69779">
        <ele>359</ele>
        <time>2025-09-13T11:52:50Z</time>
      </trkpt>
      <trkpt lat="47.55131" lon="6.69775">
        <ele>359.2</ele>
        <time>2025-09-13T11:52:51Z</time>
      </trkpt>
      <trkpt lat="47.55132" lon="6.69774">
        <ele>359.2</ele>
        <time>2025-09-13T11:52:52Z</time>
      </trkpt>
      <trkpt lat="47.55132" lon="6.69772">
        <ele>359.3</ele>
        <time>2025-09-13T11:52:53Z</time>
      </trkpt>
      <trkpt lat="47.55131" lon="6.69771">
        <ele>359.3</ele>
        <time>2025-09-13T11:52:54Z</time>
      </trkpt>
      <trkpt lat="47.55131" lon="6.69771">
        <ele>359.3</ele>
        <time>2025-09-13T11:52:55Z</time>
      </trkpt>
      <trkpt lat="47.55131" lon="6.6977">
        <ele>359.3</ele>
        <time>2025-09-13T11:52:56Z</time>
      </trkpt>
      <trkpt lat="47.55131" lon="6.6977">
        <ele>359.3</ele>
        <time>2025-09-13T11:52:57Z</time>
      </trkpt>
      <trkpt lat="47.55131" lon="6.69769">
        <ele>359.4</ele>
        <time>2025-09-13T11:52:58Z</time>
      </trkpt>
      <trkpt lat="47.55131" lon="6.69769">
        <ele>359.4</ele>
        <time>2025-09-13T11:52:59Z</time>
      </trkpt>
      <trkpt lat="47.55131" lon="6.69768">
        <ele>359.4</ele>
        <time>2025-09-13T11:53:00Z</time>
      </trkpt>
      <trkpt lat="47.55131" lon="6.69768">
        <ele>359.4</ele>
        <time>2025-09-13T11:53:01Z</time>
      </trkpt>
      <trkpt lat="47.55131" lon="6.69767">
        <ele>359.4</ele>
        <time>2025-09-13T11:53:02Z</time>
      </trkpt>
      <trkpt lat="47.55131" lon="6.69763">
        <ele>359.5</ele>
        <time>2025-09-13T11:53:03Z</time>
      </trkpt>
      <trkpt lat="47.55131" lon="6.69761">
        <ele>359.6</ele>
        <time>2025-09-13T11:53:04Z</time>
      </trkpt>
      <trkpt lat="47.55127" lon="6.69758">
        <ele>359.5</ele>
        <time>2025-09-13T11:53:05Z</time>
      </trkpt>
      <trkpt lat="47.55123" lon="6.69755">
        <ele>359.5</ele>
        <time>2025-09-13T11:53:06Z</time>
      </trkpt>
      <trkpt lat="47.55119" lon="6.69752">
        <ele>359.4</ele>
        <time>2025-09-13T11:53:07Z</time>
      </trkpt>
      <trkpt lat="47.55115" lon="6.69749">
        <ele>359.4</ele>
        <time>2025-09-13T11:53:08Z</time>
      </trkpt>
      <trkpt lat="47.55111" lon="6.69746">
        <ele>359.3</ele>
        <time>2025-09-13T11:53:09Z</time>
      </trkpt>
      <trkpt lat="47.55107" lon="6.69743">
        <ele>359.3</ele>
        <time>2025-09-13T11:53:10Z</time>
      </trkpt>
      <trkpt lat="47.55103" lon="6.6974">
        <ele>359.3</ele>
        <time>2025-09-13T11:53:11Z</time>
      </trkpt>
      <trkpt lat="47.55099" lon="6.69737">
        <ele>359.2</ele>
        <time>2025-09-13T11:53:12Z</time>
      </trkpt>
      <trkpt lat="47.55095" lon="6.69734">
        <ele>359.1</ele>
        <time>2025-09-13T11:53:13Z</time>
      </trkpt>
      <trkpt lat="47.55091" lon="6.69731">
        <ele>358.9</ele>
        <time>2025-09-13T11:53:14Z</time>
      </trkpt>
      <trkpt lat="47.55087" lon="6.69728">
        <ele>358.8</ele>
        <time>2025-09-13T11:53:15Z</time>
      </trkpt>
      <trkpt lat="47.55083" lon="6.69725">
        <ele>358.7</ele>
        <time>2025-09-13T11:53:16Z</time>
      </trkpt>
      <trkpt lat="47.55079" lon="6.69722">
        <ele>358.6</ele>
        <time>2025-09-13T11:53:17Z</time>
      </trkpt>
      <trkpt lat="47.55074" lon="6.69719">
        <ele>358.5</ele>
        <time>2025-09-13T11:53:18Z</time>
      </trkpt>
      <trkpt lat="47.5507" lon="6.69716">
        <ele>358.3</ele>
        <time>2025-09-13T11:53:19Z</time>
      </trkpt>
      <trkpt lat="47.55065" lon="6.69713">
        <ele>358.2</ele>
        <time>2025-09-13T11:53:20Z</time>
      </trkpt>
      <trkpt lat="47.55059" lon="6.69712">
        <ele>358</ele>
        <time>2025-09-13T11:53:21Z</time>
      </trkpt>
      <trkpt lat="47.55054" lon="6.6971">
        <ele>357.8</ele>
        <time>2025-09-13T11:53:22Z</time>
      </trkpt>
      <trkpt lat="47.55049" lon="6.69709">
        <ele>357.6</ele>
        <time>2025-09-13T11:53:24Z</time>
      </trkpt>
      <trkpt lat="47.55043" lon="6.69707">
        <ele>357.4</ele>
        <time>2025-09-13T11:53:25Z</time>
      </trkpt>
      <trkpt lat="47.55038" lon="6.69705">
        <ele>357.2</ele>
        <time>2025-09-13T11:53:26Z</time>
      </trkpt>
      <trkpt lat="47.55032" lon="6.69703">
        <ele>357</ele>
        <time>2025-09-13T11:53:27Z</time>
      </trkpt>
      <trkpt lat="47.55026" lon="6.69701">
        <ele>356.7</ele>
        <time>2025-09-13T11:53:28Z</time>
      </trkpt>
      <trkpt lat="47.5502" lon="6.697">
        <ele>356.5</ele>
        <time>2025-09-13T11:53:29Z</time>
      </trkpt>
      <trkpt lat="47.55014" lon="6.69697">
        <ele>356.2</ele>
        <time>2025-09-13T11:53:30Z</time>
      </trkpt>
      <trkpt lat="47.55008" lon="6.69693">
        <ele>355.9</ele>
        <time>2025-09-13T11:53:31Z</time>
      </trkpt>
      <trkpt lat="47.55001" lon="6.69688">
        <ele>355.6</ele>
        <time>2025-09-13T11:53:32Z</time>
      </trkpt>
      <trkpt lat="47.54995" lon="6.69683">
        <ele>355.4</ele>
        <time>2025-09-13T11:53:33Z</time>
      </trkpt>
      <trkpt lat="47.54989" lon="6.69679">
        <ele>355.2</ele>
        <time>2025-09-13T11:53:34Z</time>
      </trkpt>
      <trkpt lat="47.54978" lon="6.69668">
        <ele>354.8</ele>
        <time>2025-09-13T11:53:35Z</time>
      </trkpt>
      <trkpt lat="47.54971" lon="6.69662">
        <ele>354.5</ele>
        <time>2025-09-13T11:53:36Z</time>
      </trkpt>
      <trkpt lat="47.54966" lon="6.69655">
        <ele>354.4</ele>
        <time>2025-09-13T11:53:37Z</time>
      </trkpt>
      <trkpt lat="47.54961" lon="6.69649">
        <ele>354.2</ele>
        <time>2025-09-13T11:53:38Z</time>
      </trkpt>
      <trkpt lat="47.54955" lon="6.69643">
        <ele>354.1</ele>
        <time>2025-09-13T11:53:39Z</time>
      </trkpt>
      <trkpt lat="47.5495" lon="6.69636">
        <ele>354</ele>
        <time>2025-09-13T11:53:40Z</time>
      </trkpt>
      <trkpt lat="47.54944" lon="6.69629">
        <ele>354</ele>
        <time>2025-09-13T11:53:41Z</time>
      </trkpt>
      <trkpt lat="47.54939" lon="6.69623">
        <ele>354</ele>
        <time>2025-09-13T11:53:42Z</time>
      </trkpt>
      <trkpt lat="47.54933" lon="6.69617">
        <ele>353.9</ele>
        <time>2025-09-13T11:53:43Z</time>
      </trkpt>
      <trkpt lat="47.54929" lon="6.6961">
        <ele>353.9</ele>
        <time>2025-09-13T11:53:44Z</time>
      </trkpt>
      <trkpt lat="47.54928" lon="6.69601">
        <ele>353.6</ele>
        <time>2025-09-13T11:53:45Z</time>
      </trkpt>
      <trkpt lat="47.54928" lon="6.69591">
        <ele>353.4</ele>
        <time>2025-09-13T11:53:46Z</time>
      </trkpt>
      <trkpt lat="47.54931" lon="6.69581">
        <ele>353.1</ele>
        <time>2025-09-13T11:53:47Z</time>
      </trkpt>
      <trkpt lat="47.54936" lon="6.69573">
        <ele>352.9</ele>
        <time>2025-09-13T11:53:48Z</time>
      </trkpt>
      <trkpt lat="47.5494" lon="6.69565">
        <ele>352.8</ele>
        <time>2025-09-13T11:53:49Z</time>
      </trkpt>
      <trkpt lat="47.54943" lon="6.69557">
        <ele>352.7</ele>
        <time>2025-09-13T11:53:50Z</time>
      </trkpt>
      <trkpt lat="47.54946" lon="6.69549">
        <ele>352.7</ele>
        <time>2025-09-13T11:53:51Z</time>
      </trkpt>
      <trkpt lat="47.54949" lon="6.69542">
        <ele>352.7</ele>
        <time>2025-09-13T11:53:52Z</time>
      </trkpt>
      <trkpt lat="47.54952" lon="6.69535">
        <ele>352.8</ele>
        <time>2025-09-13T11:53:53Z</time>
      </trkpt>
      <trkpt lat="47.54955" lon="6.69528">
        <ele>352.8</ele>
        <time>2025-09-13T11:53:54Z</time>
      </trkpt>
      <trkpt lat="47.54959" lon="6.69521">
        <ele>352.9</ele>
        <time>2025-09-13T11:53:55Z</time>
      </trkpt>
      <trkpt lat="47.54961" lon="6.69514">
        <ele>352.9</ele>
        <time>2025-09-13T11:53:56Z</time>
      </trkpt>
      <trkpt lat="47.54963" lon="6.69507">
        <ele>353</ele>
        <time>2025-09-13T11:53:57Z</time>
      </trkpt>
      <trkpt lat="47.54965" lon="6.695">
        <ele>353.1</ele>
        <time>2025-09-13T11:53:58Z</time>
      </trkpt>
      <trkpt lat="47.54968" lon="6.69493">
        <ele>353.2</ele>
        <time>2025-09-13T11:53:59Z</time>
      </trkpt>
      <trkpt lat="47.5497" lon="6.69485">
        <ele>353.2</ele>
        <time>2025-09-13T11:54:00Z</time>
      </trkpt>
      <trkpt lat="47.54973" lon="6.69479">
        <ele>353.3</ele>
        <time>2025-09-13T11:54:01Z</time>
      </trkpt>
      <trkpt lat="47.54975" lon="6.69472">
        <ele>353.4</ele>
        <time>2025-09-13T11:54:02Z</time>
      </trkpt>
      <trkpt lat="47.54978" lon="6.69466">
        <ele>353.5</ele>
        <time>2025-09-13T11:54:03Z</time>
      </trkpt>
      <trkpt lat="47.5498" lon="6.69459">
        <ele>353.5</ele>
        <time>2025-09-13T11:54:04Z</time>
      </trkpt>
      <trkpt lat="47.54983" lon="6.69453">
        <ele>353.6</ele>
        <time>2025-09-13T11:54:05Z</time>
      </trkpt>
      <trkpt lat="47.54985" lon="6.69447">
        <ele>353.7</ele>
        <time>2025-09-13T11:54:06Z</time>
      </trkpt>
      <trkpt lat="47.54988" lon="6.69441">
        <ele>353.8</ele>
        <time>2025-09-13T11:54:07Z</time>
      </trkpt>
      <trkpt lat="47.54991" lon="6.69436">
        <ele>353.9</ele>
        <time>2025-09-13T11:54:08Z</time>
      </trkpt>
      <trkpt lat="47.54994" lon="6.69431">
        <ele>354</ele>
        <time>2025-09-13T11:54:09Z</time>
      </trkpt>
      <trkpt lat="47.54998" lon="6.69425">
        <ele>354.1</ele>
        <time>2025-09-13T11:54:10Z</time>
      </trkpt>
      <trkpt lat="47.55001" lon="6.69421">
        <ele>354.2</ele>
        <time>2025-09-13T11:54:11Z</time>
      </trkpt>
      <trkpt lat="47.55005" lon="6.69415">
        <ele>354.3</ele>
        <time>2025-09-13T11:54:12Z</time>
      </trkpt>
      <trkpt lat="47.55009" lon="6.69411">
        <ele>354.4</ele>
        <time>2025-09-13T11:54:13Z</time>
      </trkpt>
      <trkpt lat="47.55014" lon="6.69407">
        <ele>354.5</ele>
        <time>2025-09-13T11:54:14Z</time>
      </trkpt>
      <trkpt lat="47.55018" lon="6.69402">
        <ele>354.6</ele>
        <time>2025-09-13T11:54:15Z</time>
      </trkpt>
      <trkpt lat="47.55022" lon="6.69397">
        <ele>354.7</ele>
        <time>2025-09-13T11:54:16Z</time>
      </trkpt>
      <trkpt lat="47.55026" lon="6.69391">
        <ele>354.8</ele>
        <time>2025-09-13T11:54:17Z</time>
      </trkpt>
      <trkpt lat="47.5503" lon="6.69386">
        <ele>354.9</ele>
        <time>2025-09-13T11:54:18Z</time>
      </trkpt>
      <trkpt lat="47.55034" lon="6.69381">
        <ele>355</ele>
        <time>2025-09-13T11:54:19Z</time>
      </trkpt>
      <trkpt lat="47.55038" lon="6.69377">
        <ele>355.1</ele>
        <time>2025-09-13T11:54:20Z</time>
      </trkpt>
      <trkpt lat="47.55043" lon="6.69372">
        <ele>355.2</ele>
        <time>2025-09-13T11:54:21Z</time>
      </trkpt>
      <trkpt lat="47.55047" lon="6.69366">
        <ele>355.2</ele>
        <time>2025-09-13T11:54:22Z</time>
      </trkpt>
      <trkpt lat="47.55051" lon="6.69362">
        <ele>355.3</ele>
        <time>2025-09-13T11:54:23Z</time>
      </trkpt>
      <trkpt lat="47.55056" lon="6.69357">
        <ele>355.4</ele>
        <time>2025-09-13T11:54:24Z</time>
      </trkpt>
      <trkpt lat="47.5506" lon="6.69352">
        <ele>355.4</ele>
        <time>2025-09-13T11:54:25Z</time>
      </trkpt>
      <trkpt lat="47.55065" lon="6.69347">
        <ele>355.5</ele>
        <time>2025-09-13T11:54:26Z</time>
      </trkpt>
      <trkpt lat="47.55069" lon="6.69342">
        <ele>355.6</ele>
        <time>2025-09-13T11:54:27Z</time>
      </trkpt>
      <trkpt lat="47.55074" lon="6.69337">
        <ele>355.6</ele>
        <time>2025-09-13T11:54:28Z</time>
      </trkpt>
      <trkpt lat="47.55078" lon="6.69332">
        <ele>355.6</ele>
        <time>2025-09-13T11:54:29Z</time>
      </trkpt>
      <trkpt lat="47.55083" lon="6.69326">
        <ele>355.6</ele>
        <time>2025-09-13T11:54:30Z</time>
      </trkpt>
      <trkpt lat="47.55088" lon="6.69321">
        <ele>355.7</ele>
        <time>2025-09-13T11:54:31Z</time>
      </trkpt>
      <trkpt lat="47.55092" lon="6.69316">
        <ele>355.7</ele>
        <time>2025-09-13T11:54:32Z</time>
      </trkpt>
      <trkpt lat="47.55097" lon="6.69311">
        <ele>355.7</ele>
        <time>2025-09-13T11:54:33Z</time>
      </trkpt>
      <trkpt lat="47.55101" lon="6.69305">
        <ele>355.8</ele>
        <time>2025-09-13T11:54:34Z</time>
      </trkpt>
      <trkpt lat="47.55106" lon="6.693">
        <ele>355.8</ele>
        <time>2025-09-13T11:54:35Z</time>
      </trkpt>
      <trkpt lat="47.55111" lon="6.69294">
        <ele>355.9</ele>
        <time>2025-09-13T11:54:36Z</time>
      </trkpt>
      <trkpt lat="47.55114" lon="6.6929">
        <ele>355.9</ele>
        <time>2025-09-13T11:54:37Z</time>
      </trkpt>
      <trkpt lat="47.55119" lon="6.69285">
        <ele>355.9</ele>
        <time>2025-09-13T11:54:38Z</time>
      </trkpt>
      <trkpt lat="47.55123" lon="6.6928">
        <ele>356</ele>
        <time>2025-09-13T11:54:39Z</time>
      </trkpt>
      <trkpt lat="47.55128" lon="6.69274">
        <ele>356</ele>
        <time>2025-09-13T11:54:40Z</time>
      </trkpt>
      <trkpt lat="47.55133" lon="6.69269">
        <ele>356.1</ele>
        <time>2025-09-13T11:54:41Z</time>
      </trkpt>
      <trkpt lat="47.55137" lon="6.69264">
        <ele>356.2</ele>
        <time>2025-09-13T11:54:42Z</time>
      </trkpt>
      <trkpt lat="47.55142" lon="6.69258">
        <ele>356.2</ele>
        <time>2025-09-13T11:54:43Z</time>
      </trkpt>
      <trkpt lat="47.55146" lon="6.69253">
        <ele>356.3</ele>
        <time>2025-09-13T11:54:44Z</time>
      </trkpt>
      <trkpt lat="47.55151" lon="6.69247">
        <ele>356.4</ele>
        <time>2025-09-13T11:54:45Z</time>
      </trkpt>
      <trkpt lat="47.55155" lon="6.69242">
        <ele>356.4</ele>
        <time>2025-09-13T11:54:46Z</time>
      </trkpt>
      <trkpt lat="47.5516" lon="6.69236">
        <ele>356.5</ele>
        <time>2025-09-13T11:54:47Z</time>
      </trkpt>
      <trkpt lat="47.55164" lon="6.69231">
        <ele>356.6</ele>
        <time>2025-09-13T11:54:48Z</time>
      </trkpt>
      <trkpt lat="47.55168" lon="6.69226">
        <ele>356.7</ele>
        <time>2025-09-13T11:54:49Z</time>
      </trkpt>
      <trkpt lat="47.55173" lon="6.69221">
        <ele>356.8</ele>
        <time>2025-09-13T11:54:50Z</time>
      </trkpt>
      <trkpt lat="47.55177" lon="6.69216">
        <ele>356.8</ele>
        <time>2025-09-13T11:54:51Z</time>
      </trkpt>
      <trkpt lat="47.55181" lon="6.69211">
        <ele>356.9</ele>
        <time>2025-09-13T11:54:52Z</time>
      </trkpt>
      <trkpt lat="47.55186" lon="6.69206">
        <ele>357</ele>
        <time>2025-09-13T11:54:53Z</time>
      </trkpt>
      <trkpt lat="47.5519" lon="6.69201">
        <ele>357.1</ele>
        <time>2025-09-13T11:54:54Z</time>
      </trkpt>
      <trkpt lat="47.55195" lon="6.69196">
        <ele>357.2</ele>
        <time>2025-09-13T11:54:55Z</time>
      </trkpt>
      <trkpt lat="47.55199" lon="6.69191">
        <ele>357.3</ele>
        <time>2025-09-13T11:54:56Z</time>
      </trkpt>
      <trkpt lat="47.55203" lon="6.69186">
        <ele>357.4</ele>
        <time>2025-09-13T11:54:57Z</time>
      </trkpt>
      <trkpt lat="47.55208" lon="6.69181">
        <ele>357.5</ele>
        <time>2025-09-13T11:54:58Z</time>
      </trkpt>
      <trkpt lat="47.55212" lon="6.69177">
        <ele>357.6</ele>
        <time>2025-09-13T11:54:59Z</time>
      </trkpt>
      <trkpt lat="47.55216" lon="6.69173">
        <ele>357.7</ele>
        <time>2025-09-13T11:55:00Z</time>
      </trkpt>
      <trkpt lat="47.55221" lon="6.69169">
        <ele>357.8</ele>
        <time>2025-09-13T11:55:01Z</time>
      </trkpt>
      <trkpt lat="47.55226" lon="6.69166">
        <ele>357.9</ele>
        <time>2025-09-13T11:55:02Z</time>
      </trkpt>
      <trkpt lat="47.55231" lon="6.69163">
        <ele>358</ele>
        <time>2025-09-13T11:55:03Z</time>
      </trkpt>
      <trkpt lat="47.55236" lon="6.69161">
        <ele>358.1</ele>
        <time>2025-09-13T11:55:04Z</time>
      </trkpt>
      <trkpt lat="47.55242" lon="6.6916">
        <ele>358.3</ele>
        <time>2025-09-13T11:55:05Z</time>
      </trkpt>
      <trkpt lat="47.55248" lon="6.69161">
        <ele>358.4</ele>
        <time>2025-09-13T11:55:06Z</time>
      </trkpt>
      <trkpt lat="47.55253" lon="6.69161">
        <ele>358.5</ele>
        <time>2025-09-13T11:55:07Z</time>
      </trkpt>
      <trkpt lat="47.55258" lon="6.69163">
        <ele>358.6</ele>
        <time>2025-09-13T11:55:08Z</time>
      </trkpt>
      <trkpt lat="47.55263" lon="6.69166">
        <ele>358.6</ele>
        <time>2025-09-13T11:55:09Z</time>
      </trkpt>
      <trkpt lat="47.55269" lon="6.69169">
        <ele>358.7</ele>
        <time>2025-09-13T11:55:11Z</time>
      </trkpt>
      <trkpt lat="47.55274" lon="6.69173">
        <ele>358.8</ele>
        <time>2025-09-13T11:55:12Z</time>
      </trkpt>
      <trkpt lat="47.55279" lon="6.69176">
        <ele>358.9</ele>
        <time>2025-09-13T11:55:13Z</time>
      </trkpt>
      <trkpt lat="47.55284" lon="6.69178">
        <ele>359</ele>
        <time>2025-09-13T11:55:14Z</time>
      </trkpt>
      <trkpt lat="47.55289" lon="6.69181">
        <ele>359.2</ele>
        <time>2025-09-13T11:55:15Z</time>
      </trkpt>
      <trkpt lat="47.55294" lon="6.69183">
        <ele>359.3</ele>
        <time>2025-09-13T11:55:16Z</time>
      </trkpt>
      <trkpt lat="47.55299" lon="6.69184">
        <ele>359.4</ele>
        <time>2025-09-13T11:55:17Z</time>
      </trkpt>
      <trkpt lat="47.55304" lon="6.69184">
        <ele>359.5</ele>
        <time>2025-09-13T11:55:18Z</time>
      </trkpt>
      <trkpt lat="47.5531" lon="6.69184">
        <ele>359.7</ele>
        <time>2025-09-13T11:55:19Z</time>
      </trkpt>
      <trkpt lat="47.55315" lon="6.69182">
        <ele>359.8</ele>
        <time>2025-09-13T11:55:20Z</time>
      </trkpt>
      <trkpt lat="47.55321" lon="6.69181">
        <ele>359.9</ele>
        <time>2025-09-13T11:55:21Z</time>
      </trkpt>
      <trkpt lat="47.55326" lon="6.69178">
        <ele>360</ele>
        <time>2025-09-13T11:55:22Z</time>
      </trkpt>
      <trkpt lat="47.55331" lon="6.69175">
        <ele>360.1</ele>
        <time>2025-09-13T11:55:23Z</time>
      </trkpt>
      <trkpt lat="47.55335" lon="6.6917">
        <ele>360.2</ele>
        <time>2025-09-13T11:55:24Z</time>
      </trkpt>
      <trkpt lat="47.5534" lon="6.69167">
        <ele>360.3</ele>
        <time>2025-09-13T11:55:25Z</time>
      </trkpt>
      <trkpt lat="47.55345" lon="6.69163">
        <ele>360.3</ele>
        <time>2025-09-13T11:55:26Z</time>
      </trkpt>
      <trkpt lat="47.5535" lon="6.69159">
        <ele>360.4</ele>
        <time>2025-09-13T11:55:27Z</time>
      </trkpt>
      <trkpt lat="47.55354" lon="6.69154">
        <ele>360.5</ele>
        <time>2025-09-13T11:55:28Z</time>
      </trkpt>
      <trkpt lat="47.55359" lon="6.69151">
        <ele>360.6</ele>
        <time>2025-09-13T11:55:29Z</time>
      </trkpt>
      <trkpt lat="47.55364" lon="6.69146">
        <ele>360.7</ele>
        <time>2025-09-13T11:55:30Z</time>
      </trkpt>
      <trkpt lat="47.55368" lon="6.69142">
        <ele>360.8</ele>
        <time>2025-09-13T11:55:31Z</time>
      </trkpt>
      <trkpt lat="47.55373" lon="6.69138">
        <ele>360.9</ele>
        <time>2025-09-13T11:55:32Z</time>
      </trkpt>
      <trkpt lat="47.55378" lon="6.69134">
        <ele>361</ele>
        <time>2025-09-13T11:55:33Z</time>
      </trkpt>
      <trkpt lat="47.55382" lon="6.6913">
        <ele>361.1</ele>
        <time>2025-09-13T11:55:34Z</time>
      </trkpt>
      <trkpt lat="47.55387" lon="6.69127">
        <ele>361.2</ele>
        <time>2025-09-13T11:55:35Z</time>
      </trkpt>
      <trkpt lat="47.55392" lon="6.69125">
        <ele>361.3</ele>
        <time>2025-09-13T11:55:36Z</time>
      </trkpt>
      <trkpt lat="47.55397" lon="6.69122">
        <ele>361.4</ele>
        <time>2025-09-13T11:55:37Z</time>
      </trkpt>
      <trkpt lat="47.55401" lon="6.69119">
        <ele>361.5</ele>
        <time>2025-09-13T11:55:38Z</time>
      </trkpt>
      <trkpt lat="47.55407" lon="6.69117">
        <ele>361.6</ele>
        <time>2025-09-13T11:55:39Z</time>
      </trkpt>
      <trkpt lat="47.55412" lon="6.69115">
        <ele>361.7</ele>
        <time>2025-09-13T11:55:40Z</time>
      </trkpt>
      <trkpt lat="47.55417" lon="6.69112">
        <ele>361.8</ele>
        <time>2025-09-13T11:55:41Z</time>
      </trkpt>
      <trkpt lat="47.55423" lon="6.69111">
        <ele>361.9</ele>
        <time>2025-09-13T11:55:42Z</time>
      </trkpt>
      <trkpt lat="47.55428" lon="6.6911">
        <ele>362</ele>
        <time>2025-09-13T11:55:43Z</time>
      </trkpt>
      <trkpt lat="47.55433" lon="6.69108">
        <ele>362.1</ele>
        <time>2025-09-13T11:55:44Z</time>
      </trkpt>
      <trkpt lat="47.55439" lon="6.69108">
        <ele>362.2</ele>
        <time>2025-09-13T11:55:45Z</time>
      </trkpt>
      <trkpt lat="47.55444" lon="6.69107">
        <ele>362.3</ele>
        <time>2025-09-13T11:55:46Z</time>
      </trkpt>
      <trkpt lat="47.55449" lon="6.69106">
        <ele>362.4</ele>
        <time>2025-09-13T11:55:47Z</time>
      </trkpt>
      <trkpt lat="47.55454" lon="6.69106">
        <ele>362.5</ele>
        <time>2025-09-13T11:55:48Z</time>
      </trkpt>
      <trkpt lat="47.55459" lon="6.69106">
        <ele>362.7</ele>
        <time>2025-09-13T11:55:49Z</time>
      </trkpt>
      <trkpt lat="47.55465" lon="6.69106">
        <ele>362.8</ele>
        <time>2025-09-13T11:55:50Z</time>
      </trkpt>
      <trkpt lat="47.5547" lon="6.69106">
        <ele>362.9</ele>
        <time>2025-09-13T11:55:51Z</time>
      </trkpt>
      <trkpt lat="47.55475" lon="6.69105">
        <ele>363</ele>
        <time>2025-09-13T11:55:52Z</time>
      </trkpt>
      <trkpt lat="47.55485" lon="6.69102">
        <ele>363.3</ele>
        <time>2025-09-13T11:55:53Z</time>
      </trkpt>
      <trkpt lat="47.5549" lon="6.69101">
        <ele>363.4</ele>
        <time>2025-09-13T11:55:54Z</time>
      </trkpt>
      <trkpt lat="47.55494" lon="6.69098">
        <ele>363.5</ele>
        <time>2025-09-13T11:55:55Z</time>
      </trkpt>
      <trkpt lat="47.55499" lon="6.69095">
        <ele>363.7</ele>
        <time>2025-09-13T11:55:56Z</time>
      </trkpt>
      <trkpt lat="47.55504" lon="6.69091">
        <ele>363.8</ele>
        <time>2025-09-13T11:55:57Z</time>
      </trkpt>
      <trkpt lat="47.55509" lon="6.69088">
        <ele>363.9</ele>
        <time>2025-09-13T11:55:58Z</time>
      </trkpt>
      <trkpt lat="47.55512" lon="6.69082">
        <ele>364.1</ele>
        <time>2025-09-13T11:55:59Z</time>
      </trkpt>
      <trkpt lat="47.55516" lon="6.69077">
        <ele>364.2</ele>
        <time>2025-09-13T11:56:00Z</time>
      </trkpt>
      <trkpt lat="47.55519" lon="6.69072">
        <ele>364.3</ele>
        <time>2025-09-13T11:56:01Z</time>
      </trkpt>
      <trkpt lat="47.55521" lon="6.69064">
        <ele>364.4</ele>
        <time>2025-09-13T11:56:02Z</time>
      </trkpt>
      <trkpt lat="47.55523" lon="6.69057">
        <ele>364.5</ele>
        <time>2025-09-13T11:56:03Z</time>
      </trkpt>
      <trkpt lat="47.55525" lon="6.6905">
        <ele>364.7</ele>
        <time>2025-09-13T11:56:04Z</time>
      </trkpt>
      <trkpt lat="47.55525" lon="6.69042">
        <ele>364.8</ele>
        <time>2025-09-13T11:56:05Z</time>
      </trkpt>
      <trkpt lat="47.55527" lon="6.69035">
        <ele>364.9</ele>
        <time>2025-09-13T11:56:06Z</time>
      </trkpt>
      <trkpt lat="47.55528" lon="6.69028">
        <ele>365.1</ele>
        <time>2025-09-13T11:56:07Z</time>
      </trkpt>
      <trkpt lat="47.5553" lon="6.6902">
        <ele>365.2</ele>
        <time>2025-09-13T11:56:08Z</time>
      </trkpt>
      <trkpt lat="47.55531" lon="6.69013">
        <ele>365.3</ele>
        <time>2025-09-13T11:56:09Z</time>
      </trkpt>
      <trkpt lat="47.55532" lon="6.69006">
        <ele>365.4</ele>
        <time>2025-09-13T11:56:10Z</time>
      </trkpt>
      <trkpt lat="47.55533" lon="6.68998">
        <ele>365.6</ele>
        <time>2025-09-13T11:56:11Z</time>
      </trkpt>
      <trkpt lat="47.55534" lon="6.68991">
        <ele>365.7</ele>
        <time>2025-09-13T11:56:12Z</time>
      </trkpt>
      <trkpt lat="47.55535" lon="6.68984">
        <ele>365.8</ele>
        <time>2025-09-13T11:56:13Z</time>
      </trkpt>
      <trkpt lat="47.55535" lon="6.68977">
        <ele>366</ele>
        <time>2025-09-13T11:56:14Z</time>
      </trkpt>
      <trkpt lat="47.55536" lon="6.6897">
        <ele>366.1</ele>
        <time>2025-09-13T11:56:15Z</time>
      </trkpt>
      <trkpt lat="47.55536" lon="6.68962">
        <ele>366.2</ele>
        <time>2025-09-13T11:56:16Z</time>
      </trkpt>
      <trkpt lat="47.55537" lon="6.68955">
        <ele>366.3</ele>
        <time>2025-09-13T11:56:17Z</time>
      </trkpt>
      <trkpt lat="47.55537" lon="6.68948">
        <ele>366.4</ele>
        <time>2025-09-13T11:56:18Z</time>
      </trkpt>
      <trkpt lat="47.55538" lon="6.6894">
        <ele>366.6</ele>
        <time>2025-09-13T11:56:19Z</time>
      </trkpt>
      <trkpt lat="47.55538" lon="6.68932">
        <ele>366.7</ele>
        <time>2025-09-13T11:56:20Z</time>
      </trkpt>
      <trkpt lat="47.55538" lon="6.68925">
        <ele>366.8</ele>
        <time>2025-09-13T11:56:21Z</time>
      </trkpt>
      <trkpt lat="47.55539" lon="6.68918">
        <ele>366.9</ele>
        <time>2025-09-13T11:56:22Z</time>
      </trkpt>
      <trkpt lat="47.5554" lon="6.68911">
        <ele>367</ele>
        <time>2025-09-13T11:56:23Z</time>
      </trkpt>
      <trkpt lat="47.5554" lon="6.68904">
        <ele>367.1</ele>
        <time>2025-09-13T11:56:24Z</time>
      </trkpt>
      <trkpt lat="47.55543" lon="6.68899">
        <ele>367.1</ele>
        <time>2025-09-13T11:56:25Z</time>
      </trkpt>
      <trkpt lat="47.55545" lon="6.68892">
        <ele>367.2</ele>
        <time>2025-09-13T11:56:26Z</time>
      </trkpt>
      <trkpt lat="47.55544" lon="6.68884">
        <ele>367.3</ele>
        <time>2025-09-13T11:56:27Z</time>
      </trkpt>
      <trkpt lat="47.55546" lon="6.68877">
        <ele>367.3</ele>
        <time>2025-09-13T11:56:28Z</time>
      </trkpt>
      <trkpt lat="47.55546" lon="6.68869">
        <ele>367.4</ele>
        <time>2025-09-13T11:56:29Z</time>
      </trkpt>
      <trkpt lat="47.55549" lon="6.68861">
        <ele>367.6</ele>
        <time>2025-09-13T11:56:30Z</time>
      </trkpt>
      <trkpt lat="47.55551" lon="6.68855">
        <ele>367.7</ele>
        <time>2025-09-13T11:56:31Z</time>
      </trkpt>
      <trkpt lat="47.55553" lon="6.68848">
        <ele>367.8</ele>
        <time>2025-09-13T11:56:32Z</time>
      </trkpt>
      <trkpt lat="47.55553" lon="6.68842">
        <ele>367.9</ele>
        <time>2025-09-13T11:56:33Z</time>
      </trkpt>
      <trkpt lat="47.55554" lon="6.68832">
        <ele>368</ele>
        <time>2025-09-13T11:56:34Z</time>
      </trkpt>
      <trkpt lat="47.55557" lon="6.68825">
        <ele>368.2</ele>
        <time>2025-09-13T11:56:35Z</time>
      </trkpt>
      <trkpt lat="47.55558" lon="6.6882">
        <ele>368.3</ele>
        <time>2025-09-13T11:56:36Z</time>
      </trkpt>
      <trkpt lat="47.55562" lon="6.68812">
        <ele>368.4</ele>
        <time>2025-09-13T11:56:37Z</time>
      </trkpt>
      <trkpt lat="47.55564" lon="6.68804">
        <ele>368.6</ele>
        <time>2025-09-13T11:56:38Z</time>
      </trkpt>
      <trkpt lat="47.55567" lon="6.68797">
        <ele>368.7</ele>
        <time>2025-09-13T11:56:39Z</time>
      </trkpt>
      <trkpt lat="47.55569" lon="6.6879">
        <ele>368.8</ele>
        <time>2025-09-13T11:56:40Z</time>
      </trkpt>
      <trkpt lat="47.55571" lon="6.68783">
        <ele>369</ele>
        <time>2025-09-13T11:56:41Z</time>
      </trkpt>
      <trkpt lat="47.55574" lon="6.68776">
        <ele>369.1</ele>
        <time>2025-09-13T11:56:42Z</time>
      </trkpt>
      <trkpt lat="47.55577" lon="6.6877">
        <ele>369.2</ele>
        <time>2025-09-13T11:56:43Z</time>
      </trkpt>
      <trkpt lat="47.55579" lon="6.68763">
        <ele>369.3</ele>
        <time>2025-09-13T11:56:44Z</time>
      </trkpt>
      <trkpt lat="47.55582" lon="6.68757">
        <ele>369.4</ele>
        <time>2025-09-13T11:56:45Z</time>
      </trkpt>
      <trkpt lat="47.55585" lon="6.6875">
        <ele>369.5</ele>
        <time>2025-09-13T11:56:46Z</time>
      </trkpt>
      <trkpt lat="47.55588" lon="6.68744">
        <ele>369.6</ele>
        <time>2025-09-13T11:56:47Z</time>
      </trkpt>
      <trkpt lat="47.55591" lon="6.68737">
        <ele>369.7</ele>
        <time>2025-09-13T11:56:48Z</time>
      </trkpt>
      <trkpt lat="47.55593" lon="6.68731">
        <ele>369.8</ele>
        <time>2025-09-13T11:56:49Z</time>
      </trkpt>
      <trkpt lat="47.55596" lon="6.68725">
        <ele>369.9</ele>
        <time>2025-09-13T11:56:50Z</time>
      </trkpt>
      <trkpt lat="47.55599" lon="6.68719">
        <ele>370</ele>
        <time>2025-09-13T11:56:51Z</time>
      </trkpt>
      <trkpt lat="47.55601" lon="6.68713">
        <ele>370.2</ele>
        <time>2025-09-13T11:56:52Z</time>
      </trkpt>
      <trkpt lat="47.55604" lon="6.68707">
        <ele>370.3</ele>
        <time>2025-09-13T11:56:53Z</time>
      </trkpt>
      <trkpt lat="47.55606" lon="6.68699">
        <ele>370.4</ele>
        <time>2025-09-13T11:56:54Z</time>
      </trkpt>
      <trkpt lat="47.55605" lon="6.68695">
        <ele>370.5</ele>
        <time>2025-09-13T11:56:55Z</time>
      </trkpt>
      <trkpt lat="47.55608" lon="6.68686">
        <ele>370.7</ele>
        <time>2025-09-13T11:56:56Z</time>
      </trkpt>
      <trkpt lat="47.55611" lon="6.6868">
        <ele>370.9</ele>
        <time>2025-09-13T11:56:57Z</time>
      </trkpt>
      <trkpt lat="47.55615" lon="6.68674">
        <ele>371</ele>
        <time>2025-09-13T11:56:58Z</time>
      </trkpt>
      <trkpt lat="47.55618" lon="6.68668">
        <ele>371.1</ele>
        <time>2025-09-13T11:56:59Z</time>
      </trkpt>
      <trkpt lat="47.55619" lon="6.68663">
        <ele>371.2</ele>
        <time>2025-09-13T11:57:00Z</time>
      </trkpt>
      <trkpt lat="47.55621" lon="6.68657">
        <ele>371.3</ele>
        <time>2025-09-13T11:57:01Z</time>
      </trkpt>
      <trkpt lat="47.55624" lon="6.68651">
        <ele>371.5</ele>
        <time>2025-09-13T11:57:02Z</time>
      </trkpt>
      <trkpt lat="47.55626" lon="6.68644">
        <ele>371.6</ele>
        <time>2025-09-13T11:57:03Z</time>
      </trkpt>
      <trkpt lat="47.55629" lon="6.68637">
        <ele>371.7</ele>
        <time>2025-09-13T11:57:04Z</time>
      </trkpt>
      <trkpt lat="47.55632" lon="6.68629">
        <ele>371.8</ele>
        <time>2025-09-13T11:57:05Z</time>
      </trkpt>
      <trkpt lat="47.55635" lon="6.68621">
        <ele>371.9</ele>
        <time>2025-09-13T11:57:06Z</time>
      </trkpt>
      <trkpt lat="47.55637" lon="6.68614">
        <ele>372</ele>
        <time>2025-09-13T11:57:07Z</time>
      </trkpt>
      <trkpt lat="47.55639" lon="6.68607">
        <ele>372.1</ele>
        <time>2025-09-13T11:57:08Z</time>
      </trkpt>
      <trkpt lat="47.55642" lon="6.68599">
        <ele>372.2</ele>
        <time>2025-09-13T11:57:09Z</time>
      </trkpt>
      <trkpt lat="47.55644" lon="6.68594">
        <ele>372.3</ele>
        <time>2025-09-13T11:57:10Z</time>
      </trkpt>
      <trkpt lat="47.55646" lon="6.68587">
        <ele>372.3</ele>
        <time>2025-09-13T11:57:11Z</time>
      </trkpt>
      <trkpt lat="47.55648" lon="6.6858">
        <ele>372.4</ele>
        <time>2025-09-13T11:57:12Z</time>
      </trkpt>
      <trkpt lat="47.55651" lon="6.68573">
        <ele>372.5</ele>
        <time>2025-09-13T11:57:13Z</time>
      </trkpt>
      <trkpt lat="47.55653" lon="6.68566">
        <ele>372.6</ele>
        <time>2025-09-13T11:57:14Z</time>
      </trkpt>
      <trkpt lat="47.55656" lon="6.6856">
        <ele>372.7</ele>
        <time>2025-09-13T11:57:15Z</time>
      </trkpt>
      <trkpt lat="47.55658" lon="6.68552">
        <ele>372.8</ele>
        <time>2025-09-13T11:57:17Z</time>
      </trkpt>
      <trkpt lat="47.55661" lon="6.68546">
        <ele>372.9</ele>
        <time>2025-09-13T11:57:18Z</time>
      </trkpt>
      <trkpt lat="47.55664" lon="6.68539">
        <ele>373</ele>
        <time>2025-09-13T11:57:19Z</time>
      </trkpt>
      <trkpt lat="47.55666" lon="6.68533">
        <ele>373</ele>
        <time>2025-09-13T11:57:20Z</time>
      </trkpt>
      <trkpt lat="47.5567" lon="6.68526">
        <ele>373.2</ele>
        <time>2025-09-13T11:57:21Z</time>
      </trkpt>
      <trkpt lat="47.55673" lon="6.6852">
        <ele>373.3</ele>
        <time>2025-09-13T11:57:22Z</time>
      </trkpt>
      <trkpt lat="47.55676" lon="6.68513">
        <ele>373.4</ele>
        <time>2025-09-13T11:57:23Z</time>
      </trkpt>
      <trkpt lat="47.55677" lon="6.68508">
        <ele>373.4</ele>
        <time>2025-09-13T11:57:24Z</time>
      </trkpt>
      <trkpt lat="47.5568" lon="6.68502">
        <ele>373.5</ele>
        <time>2025-09-13T11:57:25Z</time>
      </trkpt>
      <trkpt lat="47.55683" lon="6.68495">
        <ele>373.6</ele>
        <time>2025-09-13T11:57:26Z</time>
      </trkpt>
      <trkpt lat="47.55686" lon="6.68489">
        <ele>373.7</ele>
        <time>2025-09-13T11:57:27Z</time>
      </trkpt>
      <trkpt lat="47.55688" lon="6.68482">
        <ele>373.8</ele>
        <time>2025-09-13T11:57:28Z</time>
      </trkpt>
      <trkpt lat="47.55691" lon="6.68475">
        <ele>373.9</ele>
        <time>2025-09-13T11:57:29Z</time>
      </trkpt>
      <trkpt lat="47.55694" lon="6.68469">
        <ele>374</ele>
        <time>2025-09-13T11:57:30Z</time>
      </trkpt>
      <trkpt lat="47.55696" lon="6.68463">
        <ele>374.1</ele>
        <time>2025-09-13T11:57:31Z</time>
      </trkpt>
      <trkpt lat="47.55698" lon="6.68457">
        <ele>374.2</ele>
        <time>2025-09-13T11:57:32Z</time>
      </trkpt>
      <trkpt lat="47.557" lon="6.6845">
        <ele>374.3</ele>
        <time>2025-09-13T11:57:33Z</time>
      </trkpt>
      <trkpt lat="47.55701" lon="6.68443">
        <ele>374.5</ele>
        <time>2025-09-13T11:57:34Z</time>
      </trkpt>
      <trkpt lat="47.55704" lon="6.68437">
        <ele>374.6</ele>
        <time>2025-09-13T11:57:35Z</time>
      </trkpt>
      <trkpt lat="47.55706" lon="6.68429">
        <ele>374.7</ele>
        <time>2025-09-13T11:57:36Z</time>
      </trkpt>
      <trkpt lat="47.55708" lon="6.68423">
        <ele>374.9</ele>
        <time>2025-09-13T11:57:37Z</time>
      </trkpt>
      <trkpt lat="47.55711" lon="6.68418">
        <ele>375</ele>
        <time>2025-09-13T11:57:38Z</time>
      </trkpt>
      <trkpt lat="47.55713" lon="6.68411">
        <ele>375.2</ele>
        <time>2025-09-13T11:57:39Z</time>
      </trkpt>
      <trkpt lat="47.55716" lon="6.68404">
        <ele>375.3</ele>
        <time>2025-09-13T11:57:40Z</time>
      </trkpt>
      <trkpt lat="47.55718" lon="6.68398">
        <ele>375.4</ele>
        <time>2025-09-13T11:57:41Z</time>
      </trkpt>
      <trkpt lat="47.55721" lon="6.68391">
        <ele>375.6</ele>
        <time>2025-09-13T11:57:42Z</time>
      </trkpt>
      <trkpt lat="47.55724" lon="6.68384">
        <ele>375.7</ele>
        <time>2025-09-13T11:57:43Z</time>
      </trkpt>
      <trkpt lat="47.55725" lon="6.68378">
        <ele>375.8</ele>
        <time>2025-09-13T11:57:44Z</time>
      </trkpt>
      <trkpt lat="47.55727" lon="6.68371">
        <ele>375.9</ele>
        <time>2025-09-13T11:57:45Z</time>
      </trkpt>
      <trkpt lat="47.5573" lon="6.68365">
        <ele>376.1</ele>
        <time>2025-09-13T11:57:46Z</time>
      </trkpt>
      <trkpt lat="47.55732" lon="6.68359">
        <ele>376.2</ele>
        <time>2025-09-13T11:57:47Z</time>
      </trkpt>
      <trkpt lat="47.55736" lon="6.68353">
        <ele>376.3</ele>
        <time>2025-09-13T11:57:48Z</time>
      </trkpt>
      <trkpt lat="47.55738" lon="6.68347">
        <ele>376.4</ele>
        <time>2025-09-13T11:57:49Z</time>
      </trkpt>
      <trkpt lat="47.5574" lon="6.68341">
        <ele>376.5</ele>
        <time>2025-09-13T11:57:50Z</time>
      </trkpt>
      <trkpt lat="47.55743" lon="6.68335">
        <ele>376.6</ele>
        <time>2025-09-13T11:57:51Z</time>
      </trkpt>
      <trkpt lat="47.55747" lon="6.68329">
        <ele>376.7</ele>
        <time>2025-09-13T11:57:52Z</time>
      </trkpt>
      <trkpt lat="47.55751" lon="6.68322">
        <ele>376.8</ele>
        <time>2025-09-13T11:57:53Z</time>
      </trkpt>
      <trkpt lat="47.55754" lon="6.68318">
        <ele>376.9</ele>
        <time>2025-09-13T11:57:54Z</time>
      </trkpt>
      <trkpt lat="47.55758" lon="6.68313">
        <ele>377</ele>
        <time>2025-09-13T11:57:55Z</time>
      </trkpt>
      <trkpt lat="47.55761" lon="6.68307">
        <ele>377.1</ele>
        <time>2025-09-13T11:57:56Z</time>
      </trkpt>
      <trkpt lat="47.55765" lon="6.68301">
        <ele>377.3</ele>
        <time>2025-09-13T11:57:57Z</time>
      </trkpt>
      <trkpt lat="47.55768" lon="6.68296">
        <ele>377.4</ele>
        <time>2025-09-13T11:57:58Z</time>
      </trkpt>
      <trkpt lat="47.55776" lon="6.68285">
        <ele>377.6</ele>
        <time>2025-09-13T11:57:59Z</time>
      </trkpt>
      <trkpt lat="47.55778" lon="6.68279">
        <ele>377.7</ele>
        <time>2025-09-13T11:58:00Z</time>
      </trkpt>
      <trkpt lat="47.55782" lon="6.68274">
        <ele>377.8</ele>
        <time>2025-09-13T11:58:01Z</time>
      </trkpt>
      <trkpt lat="47.55784" lon="6.6827">
        <ele>377.9</ele>
        <time>2025-09-13T11:58:02Z</time>
      </trkpt>
      <trkpt lat="47.55786" lon="6.68263">
        <ele>378</ele>
        <time>2025-09-13T11:58:03Z</time>
      </trkpt>
      <trkpt lat="47.55789" lon="6.68257">
        <ele>378.1</ele>
        <time>2025-09-13T11:58:04Z</time>
      </trkpt>
      <trkpt lat="47.55795" lon="6.68248">
        <ele>378.2</ele>
        <time>2025-09-13T11:58:05Z</time>
      </trkpt>
      <trkpt lat="47.55798" lon="6.6824">
        <ele>378.2</ele>
        <time>2025-09-13T11:58:06Z</time>
      </trkpt>
      <trkpt lat="47.55798" lon="6.68234">
        <ele>378.3</ele>
        <time>2025-09-13T11:58:07Z</time>
      </trkpt>
      <trkpt lat="47.55801" lon="6.68228">
        <ele>378.4</ele>
        <time>2025-09-13T11:58:08Z</time>
      </trkpt>
      <trkpt lat="47.55805" lon="6.68213">
        <ele>378.6</ele>
        <time>2025-09-13T11:58:09Z</time>
      </trkpt>
      <trkpt lat="47.55807" lon="6.68207">
        <ele>378.7</ele>
        <time>2025-09-13T11:58:10Z</time>
      </trkpt>
      <trkpt lat="47.5581" lon="6.68205">
        <ele>378.7</ele>
        <time>2025-09-13T11:58:11Z</time>
      </trkpt>
      <trkpt lat="47.55811" lon="6.68199">
        <ele>378.8</ele>
        <time>2025-09-13T11:58:12Z</time>
      </trkpt>
      <trkpt lat="47.55814" lon="6.68193">
        <ele>378.9</ele>
        <time>2025-09-13T11:58:13Z</time>
      </trkpt>
      <trkpt lat="47.55816" lon="6.68187">
        <ele>379.1</ele>
        <time>2025-09-13T11:58:14Z</time>
      </trkpt>
      <trkpt lat="47.55818" lon="6.68181">
        <ele>379.2</ele>
        <time>2025-09-13T11:58:15Z</time>
      </trkpt>
      <trkpt lat="47.55821" lon="6.68174">
        <ele>379.3</ele>
        <time>2025-09-13T11:58:16Z</time>
      </trkpt>
      <trkpt lat="47.55824" lon="6.68168">
        <ele>379.4</ele>
        <time>2025-09-13T11:58:17Z</time>
      </trkpt>
      <trkpt lat="47.55827" lon="6.68161">
        <ele>379.6</ele>
        <time>2025-09-13T11:58:18Z</time>
      </trkpt>
      <trkpt lat="47.55829" lon="6.68155">
        <ele>379.7</ele>
        <time>2025-09-13T11:58:19Z</time>
      </trkpt>
      <trkpt lat="47.55832" lon="6.68149">
        <ele>379.8</ele>
        <time>2025-09-13T11:58:20Z</time>
      </trkpt>
      <trkpt lat="47.55834" lon="6.68143">
        <ele>379.9</ele>
        <time>2025-09-13T11:58:21Z</time>
      </trkpt>
      <trkpt lat="47.55836" lon="6.68137">
        <ele>380</ele>
        <time>2025-09-13T11:58:22Z</time>
      </trkpt>
      <trkpt lat="47.55838" lon="6.68131">
        <ele>380.1</ele>
        <time>2025-09-13T11:58:23Z</time>
      </trkpt>
      <trkpt lat="47.55841" lon="6.68125">
        <ele>380.3</ele>
        <time>2025-09-13T11:58:24Z</time>
      </trkpt>
      <trkpt lat="47.55844" lon="6.68119">
        <ele>380.4</ele>
        <time>2025-09-13T11:58:25Z</time>
      </trkpt>
      <trkpt lat="47.55846" lon="6.68113">
        <ele>380.6</ele>
        <time>2025-09-13T11:58:26Z</time>
      </trkpt>
      <trkpt lat="47.55849" lon="6.68107">
        <ele>380.7</ele>
        <time>2025-09-13T11:58:27Z</time>
      </trkpt>
      <trkpt lat="47.55852" lon="6.68101">
        <ele>380.9</ele>
        <time>2025-09-13T11:58:28Z</time>
      </trkpt>
      <trkpt lat="47.55854" lon="6.68095">
        <ele>381.1</ele>
        <time>2025-09-13T11:58:29Z</time>
      </trkpt>
      <trkpt lat="47.55856" lon="6.68089">
        <ele>381.2</ele>
        <time>2025-09-13T11:58:30Z</time>
      </trkpt>
      <trkpt lat="47.55859" lon="6.68082">
        <ele>381.4</ele>
        <time>2025-09-13T11:58:31Z</time>
      </trkpt>
      <trkpt lat="47.55861" lon="6.68076">
        <ele>381.5</ele>
        <time>2025-09-13T11:58:32Z</time>
      </trkpt>
      <trkpt lat="47.55864" lon="6.68071">
        <ele>381.7</ele>
        <time>2025-09-13T11:58:33Z</time>
      </trkpt>
      <trkpt lat="47.55867" lon="6.68064">
        <ele>381.9</ele>
        <time>2025-09-13T11:58:34Z</time>
      </trkpt>
      <trkpt lat="47.55869" lon="6.68058">
        <ele>382.1</ele>
        <time>2025-09-13T11:58:35Z</time>
      </trkpt>
      <trkpt lat="47.55871" lon="6.68053">
        <ele>382.2</ele>
        <time>2025-09-13T11:58:36Z</time>
      </trkpt>
      <trkpt lat="47.55874" lon="6.68047">
        <ele>382.4</ele>
        <time>2025-09-13T11:58:37Z</time>
      </trkpt>
      <trkpt lat="47.55876" lon="6.68042">
        <ele>382.5</ele>
        <time>2025-09-13T11:58:38Z</time>
      </trkpt>
      <trkpt lat="47.55878" lon="6.68035">
        <ele>382.7</ele>
        <time>2025-09-13T11:58:39Z</time>
      </trkpt>
      <trkpt lat="47.5588" lon="6.6803">
        <ele>382.8</ele>
        <time>2025-09-13T11:58:40Z</time>
      </trkpt>
      <trkpt lat="47.55882" lon="6.68025">
        <ele>383</ele>
        <time>2025-09-13T11:58:41Z</time>
      </trkpt>
      <trkpt lat="47.55884" lon="6.68019">
        <ele>383.1</ele>
        <time>2025-09-13T11:58:42Z</time>
      </trkpt>
      <trkpt lat="47.55886" lon="6.68013">
        <ele>383.3</ele>
        <time>2025-09-13T11:58:43Z</time>
      </trkpt>
      <trkpt lat="47.55887" lon="6.68007">
        <ele>383.4</ele>
        <time>2025-09-13T11:58:44Z</time>
      </trkpt>
      <trkpt lat="47.55889" lon="6.68">
        <ele>383.6</ele>
        <time>2025-09-13T11:58:45Z</time>
      </trkpt>
      <trkpt lat="47.55891" lon="6.67993">
        <ele>383.8</ele>
        <time>2025-09-13T11:58:46Z</time>
      </trkpt>
      <trkpt lat="47.55892" lon="6.67987">
        <ele>383.9</ele>
        <time>2025-09-13T11:58:47Z</time>
      </trkpt>
      <trkpt lat="47.55893" lon="6.67981">
        <ele>384.1</ele>
        <time>2025-09-13T11:58:48Z</time>
      </trkpt>
      <trkpt lat="47.55895" lon="6.67975">
        <ele>384.2</ele>
        <time>2025-09-13T11:58:49Z</time>
      </trkpt>
      <trkpt lat="47.55896" lon="6.67969">
        <ele>384.4</ele>
        <time>2025-09-13T11:58:50Z</time>
      </trkpt>
      <trkpt lat="47.55897" lon="6.67962">
        <ele>384.5</ele>
        <time>2025-09-13T11:58:51Z</time>
      </trkpt>
      <trkpt lat="47.55897" lon="6.67955">
        <ele>384.6</ele>
        <time>2025-09-13T11:58:52Z</time>
      </trkpt>
      <trkpt lat="47.55897" lon="6.67949">
        <ele>384.8</ele>
        <time>2025-09-13T11:58:53Z</time>
      </trkpt>
      <trkpt lat="47.55898" lon="6.67942">
        <ele>384.9</ele>
        <time>2025-09-13T11:58:54Z</time>
      </trkpt>
      <trkpt lat="47.55898" lon="6.67935">
        <ele>385.1</ele>
        <time>2025-09-13T11:58:55Z</time>
      </trkpt>
      <trkpt lat="47.55898" lon="6.67929">
        <ele>385.2</ele>
        <time>2025-09-13T11:58:56Z</time>
      </trkpt>
      <trkpt lat="47.55899" lon="6.67922">
        <ele>385.4</ele>
        <time>2025-09-13T11:58:57Z</time>
      </trkpt>
      <trkpt lat="47.55898" lon="6.67916">
        <ele>385.5</ele>
        <time>2025-09-13T11:58:58Z</time>
      </trkpt>
      <trkpt lat="47.55898" lon="6.67909">
        <ele>385.7</ele>
        <time>2025-09-13T11:58:59Z</time>
      </trkpt>
      <trkpt lat="47.55898" lon="6.67902">
        <ele>385.8</ele>
        <time>2025-09-13T11:59:00Z</time>
      </trkpt>
      <trkpt lat="47.55897" lon="6.67895">
        <ele>386</ele>
        <time>2025-09-13T11:59:01Z</time>
      </trkpt>
      <trkpt lat="47.55897" lon="6.67888">
        <ele>386.1</ele>
        <time>2025-09-13T11:59:02Z</time>
      </trkpt>
      <trkpt lat="47.55895" lon="6.67882">
        <ele>386.3</ele>
        <time>2025-09-13T11:59:03Z</time>
      </trkpt>
      <trkpt lat="47.55894" lon="6.67875">
        <ele>386.4</ele>
        <time>2025-09-13T11:59:04Z</time>
      </trkpt>
      <trkpt lat="47.55892" lon="6.67869">
        <ele>386.6</ele>
        <time>2025-09-13T11:59:05Z</time>
      </trkpt>
      <trkpt lat="47.55891" lon="6.67861">
        <ele>386.8</ele>
        <time>2025-09-13T11:59:06Z</time>
      </trkpt>
      <trkpt lat="47.5589" lon="6.67855">
        <ele>386.9</ele>
        <time>2025-09-13T11:59:07Z</time>
      </trkpt>
      <trkpt lat="47.55888" lon="6.67849">
        <ele>387</ele>
        <time>2025-09-13T11:59:08Z</time>
      </trkpt>
      <trkpt lat="47.55886" lon="6.67842">
        <ele>387.2</ele>
        <time>2025-09-13T11:59:09Z</time>
      </trkpt>
      <trkpt lat="47.55884" lon="6.67835">
        <ele>387.4</ele>
        <time>2025-09-13T11:59:10Z</time>
      </trkpt>
      <trkpt lat="47.55882" lon="6.67829">
        <ele>387.5</ele>
        <time>2025-09-13T11:59:11Z</time>
      </trkpt>
      <trkpt lat="47.5588" lon="6.67823">
        <ele>387.7</ele>
        <time>2025-09-13T11:59:12Z</time>
      </trkpt>
      <trkpt lat="47.55878" lon="6.67816">
        <ele>387.8</ele>
        <time>2025-09-13T11:59:13Z</time>
      </trkpt>
      <trkpt lat="47.55876" lon="6.67811">
        <ele>388</ele>
        <time>2025-09-13T11:59:14Z</time>
      </trkpt>
      <trkpt lat="47.55874" lon="6.67804">
        <ele>388.2</ele>
        <time>2025-09-13T11:59:15Z</time>
      </trkpt>
      <trkpt lat="47.55873" lon="6.67799">
        <ele>388.3</ele>
        <time>2025-09-13T11:59:16Z</time>
      </trkpt>
      <trkpt lat="47.5587" lon="6.67792">
        <ele>388.5</ele>
        <time>2025-09-13T11:59:17Z</time>
      </trkpt>
      <trkpt lat="47.55868" lon="6.67785">
        <ele>388.7</ele>
        <time>2025-09-13T11:59:18Z</time>
      </trkpt>
      <trkpt lat="47.55867" lon="6.67779">
        <ele>388.9</ele>
        <time>2025-09-13T11:59:19Z</time>
      </trkpt>
      <trkpt lat="47.55864" lon="6.67774">
        <ele>389.1</ele>
        <time>2025-09-13T11:59:20Z</time>
      </trkpt>
      <trkpt lat="47.55864" lon="6.67768">
        <ele>389.2</ele>
        <time>2025-09-13T11:59:21Z</time>
      </trkpt>
      <trkpt lat="47.55862" lon="6.67761">
        <ele>389.4</ele>
        <time>2025-09-13T11:59:23Z</time>
      </trkpt>
      <trkpt lat="47.55859" lon="6.67755">
        <ele>389.6</ele>
        <time>2025-09-13T11:59:24Z</time>
      </trkpt>
      <trkpt lat="47.55857" lon="6.67749">
        <ele>389.8</ele>
        <time>2025-09-13T11:59:25Z</time>
      </trkpt>
      <trkpt lat="47.55856" lon="6.67741">
        <ele>390</ele>
        <time>2025-09-13T11:59:26Z</time>
      </trkpt>
      <trkpt lat="47.55856" lon="6.67735">
        <ele>390.1</ele>
        <time>2025-09-13T11:59:27Z</time>
      </trkpt>
      <trkpt lat="47.55856" lon="6.67728">
        <ele>390.2</ele>
        <time>2025-09-13T11:59:28Z</time>
      </trkpt>
      <trkpt lat="47.55857" lon="6.6772">
        <ele>390.4</ele>
        <time>2025-09-13T11:59:29Z</time>
      </trkpt>
      <trkpt lat="47.55859" lon="6.67714">
        <ele>390.5</ele>
        <time>2025-09-13T11:59:30Z</time>
      </trkpt>
      <trkpt lat="47.55859" lon="6.67708">
        <ele>390.6</ele>
        <time>2025-09-13T11:59:31Z</time>
      </trkpt>
      <trkpt lat="47.55861" lon="6.67702">
        <ele>390.7</ele>
        <time>2025-09-13T11:59:32Z</time>
      </trkpt>
      <trkpt lat="47.55863" lon="6.67695">
        <ele>390.8</ele>
        <time>2025-09-13T11:59:33Z</time>
      </trkpt>
      <trkpt lat="47.55865" lon="6.67688">
        <ele>390.9</ele>
        <time>2025-09-13T11:59:34Z</time>
      </trkpt>
      <trkpt lat="47.55867" lon="6.67681">
        <ele>390.9</ele>
        <time>2025-09-13T11:59:35Z</time>
      </trkpt>
      <trkpt lat="47.55868" lon="6.67674">
        <ele>390.9</ele>
        <time>2025-09-13T11:59:36Z</time>
      </trkpt>
      <trkpt lat="47.5587" lon="6.67666">
        <ele>391</ele>
        <time>2025-09-13T11:59:37Z</time>
      </trkpt>
      <trkpt lat="47.55872" lon="6.67659">
        <ele>391</ele>
        <time>2025-09-13T11:59:38Z</time>
      </trkpt>
      <trkpt lat="47.55874" lon="6.67651">
        <ele>391</ele>
        <time>2025-09-13T11:59:39Z</time>
      </trkpt>
      <trkpt lat="47.55877" lon="6.67643">
        <ele>391.1</ele>
        <time>2025-09-13T11:59:40Z</time>
      </trkpt>
      <trkpt lat="47.5588" lon="6.67636">
        <ele>391.1</ele>
        <time>2025-09-13T11:59:41Z</time>
      </trkpt>
      <trkpt lat="47.55885" lon="6.6763">
        <ele>391.2</ele>
        <time>2025-09-13T11:59:42Z</time>
      </trkpt>
      <trkpt lat="47.5589" lon="6.67626">
        <ele>391.2</ele>
        <time>2025-09-13T11:59:43Z</time>
      </trkpt>
      <trkpt lat="47.55895" lon="6.67623">
        <ele>391.3</ele>
        <time>2025-09-13T11:59:44Z</time>
      </trkpt>
      <trkpt lat="47.55901" lon="6.67621">
        <ele>391.4</ele>
        <time>2025-09-13T11:59:45Z</time>
      </trkpt>
      <trkpt lat="47.55912" lon="6.67617">
        <ele>391.6</ele>
        <time>2025-09-13T11:59:46Z</time>
      </trkpt>
      <trkpt lat="47.55917" lon="6.67615">
        <ele>391.8</ele>
        <time>2025-09-13T11:59:47Z</time>
      </trkpt>
      <trkpt lat="47.55922" lon="6.67613">
        <ele>391.9</ele>
        <time>2025-09-13T11:59:48Z</time>
      </trkpt>
      <trkpt lat="47.55926" lon="6.67612">
        <ele>392.1</ele>
        <time>2025-09-13T11:59:49Z</time>
      </trkpt>
      <trkpt lat="47.55931" lon="6.67611">
        <ele>392.2</ele>
        <time>2025-09-13T11:59:50Z</time>
      </trkpt>
      <trkpt lat="47.55936" lon="6.67609">
        <ele>392.4</ele>
        <time>2025-09-13T11:59:51Z</time>
      </trkpt>
      <trkpt lat="47.5594" lon="6.67606">
        <ele>392.6</ele>
        <time>2025-09-13T11:59:52Z</time>
      </trkpt>
      <trkpt lat="47.55945" lon="6.67604">
        <ele>392.8</ele>
        <time>2025-09-13T11:59:53Z</time>
      </trkpt>
      <trkpt lat="47.55949" lon="6.676">
        <ele>393</ele>
        <time>2025-09-13T11:59:54Z</time>
      </trkpt>
      <trkpt lat="47.55953" lon="6.67596">
        <ele>393.1</ele>
        <time>2025-09-13T11:59:55Z</time>
      </trkpt>
      <trkpt lat="47.55957" lon="6.67591">
        <ele>393.2</ele>
        <time>2025-09-13T11:59:56Z</time>
      </trkpt>
      <trkpt lat="47.55961" lon="6.67586">
        <ele>393.3</ele>
        <time>2025-09-13T11:59:57Z</time>
      </trkpt>
      <trkpt lat="47.55966" lon="6.67582">
        <ele>393.3</ele>
        <time>2025-09-13T11:59:58Z</time>
      </trkpt>
      <trkpt lat="47.5597" lon="6.67577">
        <ele>393.3</ele>
        <time>2025-09-13T11:59:59Z</time>
      </trkpt>
      <trkpt lat="47.55974" lon="6.67571">
        <ele>393.2</ele>
        <time>2025-09-13T12:00:00Z</time>
      </trkpt>
      <trkpt lat="47.55978" lon="6.67565">
        <ele>393.2</ele>
        <time>2025-09-13T12:00:01Z</time>
      </trkpt>
      <trkpt lat="47.55982" lon="6.67558">
        <ele>393.2</ele>
        <time>2025-09-13T12:00:02Z</time>
      </trkpt>
      <trkpt lat="47.55985" lon="6.67552">
        <ele>393.1</ele>
        <time>2025-09-13T12:00:03Z</time>
      </trkpt>
      <trkpt lat="47.55988" lon="6.67545">
        <ele>393.1</ele>
        <time>2025-09-13T12:00:04Z</time>
      </trkpt>
      <trkpt lat="47.55992" lon="6.67537">
        <ele>393.1</ele>
        <time>2025-09-13T12:00:05Z</time>
      </trkpt>
      <trkpt lat="47.55996" lon="6.67531">
        <ele>393</ele>
        <time>2025-09-13T12:00:06Z</time>
      </trkpt>
      <trkpt lat="47.56" lon="6.67525">
        <ele>393</ele>
        <time>2025-09-13T12:00:07Z</time>
      </trkpt>
      <trkpt lat="47.56004" lon="6.6752">
        <ele>393</ele>
        <time>2025-09-13T12:00:08Z</time>
      </trkpt>
      <trkpt lat="47.56008" lon="6.67515">
        <ele>393</ele>
        <time>2025-09-13T12:00:09Z</time>
      </trkpt>
      <trkpt lat="47.56013" lon="6.6751">
        <ele>392.9</ele>
        <time>2025-09-13T12:00:10Z</time>
      </trkpt>
      <trkpt lat="47.56016" lon="6.67505">
        <ele>392.9</ele>
        <time>2025-09-13T12:00:11Z</time>
      </trkpt>
      <trkpt lat="47.56021" lon="6.67501">
        <ele>392.9</ele>
        <time>2025-09-13T12:00:12Z</time>
      </trkpt>
      <trkpt lat="47.56026" lon="6.67498">
        <ele>392.9</ele>
        <time>2025-09-13T12:00:13Z</time>
      </trkpt>
      <trkpt lat="47.5603" lon="6.67494">
        <ele>392.9</ele>
        <time>2025-09-13T12:00:14Z</time>
      </trkpt>
      <trkpt lat="47.56034" lon="6.67491">
        <ele>392.8</ele>
        <time>2025-09-13T12:00:15Z</time>
      </trkpt>
      <trkpt lat="47.56039" lon="6.67486">
        <ele>392.8</ele>
        <time>2025-09-13T12:00:16Z</time>
      </trkpt>
      <trkpt lat="47.56044" lon="6.67483">
        <ele>392.8</ele>
        <time>2025-09-13T12:00:17Z</time>
      </trkpt>
      <trkpt lat="47.56048" lon="6.67478">
        <ele>392.8</ele>
        <time>2025-09-13T12:00:18Z</time>
      </trkpt>
      <trkpt lat="47.56052" lon="6.67474">
        <ele>392.8</ele>
        <time>2025-09-13T12:00:19Z</time>
      </trkpt>
      <trkpt lat="47.56056" lon="6.67471">
        <ele>392.8</ele>
        <time>2025-09-13T12:00:20Z</time>
      </trkpt>
      <trkpt lat="47.56061" lon="6.67467">
        <ele>392.8</ele>
        <time>2025-09-13T12:00:21Z</time>
      </trkpt>
      <trkpt lat="47.56066" lon="6.67464">
        <ele>392.9</ele>
        <time>2025-09-13T12:00:22Z</time>
      </trkpt>
      <trkpt lat="47.56071" lon="6.6746">
        <ele>392.9</ele>
        <time>2025-09-13T12:00:23Z</time>
      </trkpt>
      <trkpt lat="47.56077" lon="6.67456">
        <ele>392.9</ele>
        <time>2025-09-13T12:00:24Z</time>
      </trkpt>
      <trkpt lat="47.56082" lon="6.67456">
        <ele>392.9</ele>
        <time>2025-09-13T12:00:25Z</time>
      </trkpt>
      <trkpt lat="47.56087" lon="6.67459">
        <ele>392.8</ele>
        <time>2025-09-13T12:00:26Z</time>
      </trkpt>
      <trkpt lat="47.56093" lon="6.67465">
        <ele>392.7</ele>
        <time>2025-09-13T12:00:27Z</time>
      </trkpt>
      <trkpt lat="47.56098" lon="6.67468">
        <ele>392.6</ele>
        <time>2025-09-13T12:00:28Z</time>
      </trkpt>
      <trkpt lat="47.56104" lon="6.67471">
        <ele>392.5</ele>
        <time>2025-09-13T12:00:29Z</time>
      </trkpt>
      <trkpt lat="47.56109" lon="6.67474">
        <ele>392.4</ele>
        <time>2025-09-13T12:00:30Z</time>
      </trkpt>
      <trkpt lat="47.56115" lon="6.67476">
        <ele>392.2</ele>
        <time>2025-09-13T12:00:31Z</time>
      </trkpt>
      <trkpt lat="47.56121" lon="6.67478">
        <ele>392</ele>
        <time>2025-09-13T12:00:32Z</time>
      </trkpt>
      <trkpt lat="47.56127" lon="6.67478">
        <ele>391.8</ele>
        <time>2025-09-13T12:00:33Z</time>
      </trkpt>
      <trkpt lat="47.56135" lon="6.67477">
        <ele>391.7</ele>
        <time>2025-09-13T12:00:34Z</time>
      </trkpt>
      <trkpt lat="47.56142" lon="6.67476">
        <ele>391.5</ele>
        <time>2025-09-13T12:00:35Z</time>
      </trkpt>
      <trkpt lat="47.56149" lon="6.67474">
        <ele>391.3</ele>
        <time>2025-09-13T12:00:36Z</time>
      </trkpt>
      <trkpt lat="47.56157" lon="6.6747">
        <ele>390.9</ele>
        <time>2025-09-13T12:00:37Z</time>
      </trkpt>
      <trkpt lat="47.56165" lon="6.67466">
        <ele>390.5</ele>
        <time>2025-09-13T12:00:38Z</time>
      </trkpt>
      <trkpt lat="47.56173" lon="6.67461">
        <ele>390.2</ele>
        <time>2025-09-13T12:00:39Z</time>
      </trkpt>
      <trkpt lat="47.5618" lon="6.67458">
        <ele>389.9</ele>
        <time>2025-09-13T12:00:40Z</time>
      </trkpt>
      <trkpt lat="47.56188" lon="6.67454">
        <ele>389.6</ele>
        <time>2025-09-13T12:00:41Z</time>
      </trkpt>
      <trkpt lat="47.56196" lon="6.67451">
        <ele>389.5</ele>
        <time>2025-09-13T12:00:42Z</time>
      </trkpt>
      <trkpt lat="47.56203" lon="6.67448">
        <ele>389.3</ele>
        <time>2025-09-13T12:00:43Z</time>
      </trkpt>
      <trkpt lat="47.56211" lon="6.67444">
        <ele>389.3</ele>
        <time>2025-09-13T12:00:44Z</time>
      </trkpt>
      <trkpt lat="47.56217" lon="6.67441">
        <ele>389.3</ele>
        <time>2025-09-13T12:00:45Z</time>
      </trkpt>
      <trkpt lat="47.56224" lon="6.67438">
        <ele>389.4</ele>
        <time>2025-09-13T12:00:46Z</time>
      </trkpt>
      <trkpt lat="47.56231" lon="6.67434">
        <ele>389.4</ele>
        <time>2025-09-13T12:00:47Z</time>
      </trkpt>
      <trkpt lat="47.56236" lon="6.67429">
        <ele>389.6</ele>
        <time>2025-09-13T12:00:48Z</time>
      </trkpt>
      <trkpt lat="47.56241" lon="6.67422">
        <ele>389.7</ele>
        <time>2025-09-13T12:00:49Z</time>
      </trkpt>
      <trkpt lat="47.56244" lon="6.67413">
        <ele>389.9</ele>
        <time>2025-09-13T12:00:50Z</time>
      </trkpt>
      <trkpt lat="47.56245" lon="6.67406">
        <ele>390.1</ele>
        <time>2025-09-13T12:00:51Z</time>
      </trkpt>
      <trkpt lat="47.56247" lon="6.67397">
        <ele>390.3</ele>
        <time>2025-09-13T12:00:52Z</time>
      </trkpt>
      <trkpt lat="47.56248" lon="6.67388">
        <ele>390.6</ele>
        <time>2025-09-13T12:00:53Z</time>
      </trkpt>
      <trkpt lat="47.56248" lon="6.6738">
        <ele>390.9</ele>
        <time>2025-09-13T12:00:54Z</time>
      </trkpt>
      <trkpt lat="47.56248" lon="6.67371">
        <ele>391.2</ele>
        <time>2025-09-13T12:00:55Z</time>
      </trkpt>
      <trkpt lat="47.56248" lon="6.67363">
        <ele>391.4</ele>
        <time>2025-09-13T12:00:56Z</time>
      </trkpt>
      <trkpt lat="47.56248" lon="6.67356">
        <ele>391.7</ele>
        <time>2025-09-13T12:00:57Z</time>
      </trkpt>
      <trkpt lat="47.56249" lon="6.67348">
        <ele>392</ele>
        <time>2025-09-13T12:00:58Z</time>
      </trkpt>
      <trkpt lat="47.5625" lon="6.67339">
        <ele>392.3</ele>
        <time>2025-09-13T12:00:59Z</time>
      </trkpt>
      <trkpt lat="47.56251" lon="6.67332">
        <ele>392.6</ele>
        <time>2025-09-13T12:01:00Z</time>
      </trkpt>
      <trkpt lat="47.56253" lon="6.67324">
        <ele>392.9</ele>
        <time>2025-09-13T12:01:01Z</time>
      </trkpt>
      <trkpt lat="47.56255" lon="6.67316">
        <ele>393.2</ele>
        <time>2025-09-13T12:01:02Z</time>
      </trkpt>
      <trkpt lat="47.56257" lon="6.67308">
        <ele>393.6</ele>
        <time>2025-09-13T12:01:03Z</time>
      </trkpt>
      <trkpt lat="47.56259" lon="6.673">
        <ele>393.9</ele>
        <time>2025-09-13T12:01:04Z</time>
      </trkpt>
      <trkpt lat="47.56261" lon="6.67293">
        <ele>394.2</ele>
        <time>2025-09-13T12:01:05Z</time>
      </trkpt>
      <trkpt lat="47.56264" lon="6.67285">
        <ele>394.5</ele>
        <time>2025-09-13T12:01:06Z</time>
      </trkpt>
      <trkpt lat="47.56266" lon="6.67278">
        <ele>394.8</ele>
        <time>2025-09-13T12:01:07Z</time>
      </trkpt>
      <trkpt lat="47.56269" lon="6.6727">
        <ele>395.1</ele>
        <time>2025-09-13T12:01:08Z</time>
      </trkpt>
      <trkpt lat="47.56271" lon="6.67263">
        <ele>395.4</ele>
        <time>2025-09-13T12:01:09Z</time>
      </trkpt>
      <trkpt lat="47.56274" lon="6.67256">
        <ele>395.6</ele>
        <time>2025-09-13T12:01:10Z</time>
      </trkpt>
      <trkpt lat="47.56277" lon="6.67249">
        <ele>395.9</ele>
        <time>2025-09-13T12:01:11Z</time>
      </trkpt>
      <trkpt lat="47.56281" lon="6.67242">
        <ele>396</ele>
        <time>2025-09-13T12:01:12Z</time>
      </trkpt>
      <trkpt lat="47.56284" lon="6.67235">
        <ele>396.2</ele>
        <time>2025-09-13T12:01:13Z</time>
      </trkpt>
      <trkpt lat="47.56288" lon="6.67229">
        <ele>396.3</ele>
        <time>2025-09-13T12:01:14Z</time>
      </trkpt>
      <trkpt lat="47.56292" lon="6.67223">
        <ele>396.4</ele>
        <time>2025-09-13T12:01:15Z</time>
      </trkpt>
      <trkpt lat="47.56295" lon="6.67217">
        <ele>396.5</ele>
        <time>2025-09-13T12:01:16Z</time>
      </trkpt>
      <trkpt lat="47.563" lon="6.6721">
        <ele>396.6</ele>
        <time>2025-09-13T12:01:17Z</time>
      </trkpt>
      <trkpt lat="47.56304" lon="6.67204">
        <ele>396.6</ele>
        <time>2025-09-13T12:01:18Z</time>
      </trkpt>
      <trkpt lat="47.56308" lon="6.67197">
        <ele>396.6</ele>
        <time>2025-09-13T12:01:19Z</time>
      </trkpt>
      <trkpt lat="47.56312" lon="6.67191">
        <ele>396.7</ele>
        <time>2025-09-13T12:01:20Z</time>
      </trkpt>
      <trkpt lat="47.56316" lon="6.67185">
        <ele>396.7</ele>
        <time>2025-09-13T12:01:21Z</time>
      </trkpt>
      <trkpt lat="47.5632" lon="6.67178">
        <ele>396.7</ele>
        <time>2025-09-13T12:01:22Z</time>
      </trkpt>
      <trkpt lat="47.56324" lon="6.67171">
        <ele>396.7</ele>
        <time>2025-09-13T12:01:23Z</time>
      </trkpt>
      <trkpt lat="47.56329" lon="6.67165">
        <ele>396.7</ele>
        <time>2025-09-13T12:01:24Z</time>
      </trkpt>
      <trkpt lat="47.56333" lon="6.67158">
        <ele>396.7</ele>
        <time>2025-09-13T12:01:25Z</time>
      </trkpt>
      <trkpt lat="47.56337" lon="6.67151">
        <ele>396.8</ele>
        <time>2025-09-13T12:01:26Z</time>
      </trkpt>
      <trkpt lat="47.56342" lon="6.67144">
        <ele>396.9</ele>
        <time>2025-09-13T12:01:27Z</time>
      </trkpt>
      <trkpt lat="47.56346" lon="6.67137">
        <ele>397.1</ele>
        <time>2025-09-13T12:01:28Z</time>
      </trkpt>
      <trkpt lat="47.56351" lon="6.6713">
        <ele>397.2</ele>
        <time>2025-09-13T12:01:30Z</time>
      </trkpt>
      <trkpt lat="47.56355" lon="6.67124">
        <ele>397.4</ele>
        <time>2025-09-13T12:01:31Z</time>
      </trkpt>
      <trkpt lat="47.56358" lon="6.67117">
        <ele>397.5</ele>
        <time>2025-09-13T12:01:32Z</time>
      </trkpt>
      <trkpt lat="47.56362" lon="6.67111">
        <ele>397.7</ele>
        <time>2025-09-13T12:01:33Z</time>
      </trkpt>
      <trkpt lat="47.56366" lon="6.67104">
        <ele>397.9</ele>
        <time>2025-09-13T12:01:34Z</time>
      </trkpt>
      <trkpt lat="47.56368" lon="6.67096">
        <ele>398</ele>
        <time>2025-09-13T12:01:35Z</time>
      </trkpt>
      <trkpt lat="47.56369" lon="6.67088">
        <ele>398.2</ele>
        <time>2025-09-13T12:01:36Z</time>
      </trkpt>
      <trkpt lat="47.56369" lon="6.67079">
        <ele>398.3</ele>
        <time>2025-09-13T12:01:37Z</time>
      </trkpt>
      <trkpt lat="47.56368" lon="6.67071">
        <ele>398.4</ele>
        <time>2025-09-13T12:01:38Z</time>
      </trkpt>
      <trkpt lat="47.56366" lon="6.67062">
        <ele>398.4</ele>
        <time>2025-09-13T12:01:39Z</time>
      </trkpt>
      <trkpt lat="47.56364" lon="6.67055">
        <ele>398.4</ele>
        <time>2025-09-13T12:01:40Z</time>
      </trkpt>
      <trkpt lat="47.56362" lon="6.67046">
        <ele>398.4</ele>
        <time>2025-09-13T12:01:41Z</time>
      </trkpt>
      <trkpt lat="47.56359" lon="6.67038">
        <ele>398.4</ele>
        <time>2025-09-13T12:01:42Z</time>
      </trkpt>
      <trkpt lat="47.56356" lon="6.67031">
        <ele>398.4</ele>
        <time>2025-09-13T12:01:43Z</time>
      </trkpt>
      <trkpt lat="47.56353" lon="6.67023">
        <ele>398.5</ele>
        <time>2025-09-13T12:01:44Z</time>
      </trkpt>
      <trkpt lat="47.56349" lon="6.67015">
        <ele>398.5</ele>
        <time>2025-09-13T12:01:45Z</time>
      </trkpt>
      <trkpt lat="47.56346" lon="6.67008">
        <ele>398.5</ele>
        <time>2025-09-13T12:01:46Z</time>
      </trkpt>
      <trkpt lat="47.56342" lon="6.67002">
        <ele>398.5</ele>
        <time>2025-09-13T12:01:47Z</time>
      </trkpt>
      <trkpt lat="47.56334" lon="6.66989">
        <ele>398.6</ele>
        <time>2025-09-13T12:01:48Z</time>
      </trkpt>
      <trkpt lat="47.5633" lon="6.66983">
        <ele>398.6</ele>
        <time>2025-09-13T12:01:49Z</time>
      </trkpt>
      <trkpt lat="47.56325" lon="6.66977">
        <ele>398.6</ele>
        <time>2025-09-13T12:01:50Z</time>
      </trkpt>
      <trkpt lat="47.56321" lon="6.6697">
        <ele>398.5</ele>
        <time>2025-09-13T12:01:51Z</time>
      </trkpt>
      <trkpt lat="47.56318" lon="6.66964">
        <ele>398.5</ele>
        <time>2025-09-13T12:01:52Z</time>
      </trkpt>
      <trkpt lat="47.56315" lon="6.66957">
        <ele>398.4</ele>
        <time>2025-09-13T12:01:53Z</time>
      </trkpt>
      <trkpt lat="47.56311" lon="6.66949">
        <ele>398.2</ele>
        <time>2025-09-13T12:01:54Z</time>
      </trkpt>
      <trkpt lat="47.56308" lon="6.66941">
        <ele>398.1</ele>
        <time>2025-09-13T12:01:55Z</time>
      </trkpt>
      <trkpt lat="47.56305" lon="6.66932">
        <ele>397.9</ele>
        <time>2025-09-13T12:01:56Z</time>
      </trkpt>
      <trkpt lat="47.56303" lon="6.66923">
        <ele>397.7</ele>
        <time>2025-09-13T12:01:57Z</time>
      </trkpt>
      <trkpt lat="47.56302" lon="6.66913">
        <ele>397.5</ele>
        <time>2025-09-13T12:01:58Z</time>
      </trkpt>
      <trkpt lat="47.56301" lon="6.66902">
        <ele>397.2</ele>
        <time>2025-09-13T12:01:59Z</time>
      </trkpt>
      <trkpt lat="47.56301" lon="6.66891">
        <ele>397</ele>
        <time>2025-09-13T12:02:00Z</time>
      </trkpt>
      <trkpt lat="47.56301" lon="6.66881">
        <ele>396.8</ele>
        <time>2025-09-13T12:02:01Z</time>
      </trkpt>
      <trkpt lat="47.56302" lon="6.66869">
        <ele>396.6</ele>
        <time>2025-09-13T12:02:02Z</time>
      </trkpt>
      <trkpt lat="47.56302" lon="6.66858">
        <ele>396.4</ele>
        <time>2025-09-13T12:02:03Z</time>
      </trkpt>
      <trkpt lat="47.56303" lon="6.66847">
        <ele>396.2</ele>
        <time>2025-09-13T12:02:04Z</time>
      </trkpt>
      <trkpt lat="47.56303" lon="6.66836">
        <ele>396.1</ele>
        <time>2025-09-13T12:02:05Z</time>
      </trkpt>
      <trkpt lat="47.56304" lon="6.66825">
        <ele>396</ele>
        <time>2025-09-13T12:02:06Z</time>
      </trkpt>
      <trkpt lat="47.56304" lon="6.66813">
        <ele>395.9</ele>
        <time>2025-09-13T12:02:07Z</time>
      </trkpt>
      <trkpt lat="47.56305" lon="6.66802">
        <ele>395.8</ele>
        <time>2025-09-13T12:02:08Z</time>
      </trkpt>
      <trkpt lat="47.56306" lon="6.66792">
        <ele>395.7</ele>
        <time>2025-09-13T12:02:09Z</time>
      </trkpt>
      <trkpt lat="47.56306" lon="6.66781">
        <ele>395.6</ele>
        <time>2025-09-13T12:02:10Z</time>
      </trkpt>
      <trkpt lat="47.56307" lon="6.6677">
        <ele>395.5</ele>
        <time>2025-09-13T12:02:11Z</time>
      </trkpt>
      <trkpt lat="47.56307" lon="6.6676">
        <ele>395.3</ele>
        <time>2025-09-13T12:02:12Z</time>
      </trkpt>
      <trkpt lat="47.56308" lon="6.6675">
        <ele>395.2</ele>
        <time>2025-09-13T12:02:13Z</time>
      </trkpt>
      <trkpt lat="47.56308" lon="6.6674">
        <ele>395.1</ele>
        <time>2025-09-13T12:02:14Z</time>
      </trkpt>
      <trkpt lat="47.56309" lon="6.66729">
        <ele>395</ele>
        <time>2025-09-13T12:02:15Z</time>
      </trkpt>
      <trkpt lat="47.5631" lon="6.66719">
        <ele>394.8</ele>
        <time>2025-09-13T12:02:16Z</time>
      </trkpt>
      <trkpt lat="47.5631" lon="6.66708">
        <ele>394.6</ele>
        <time>2025-09-13T12:02:17Z</time>
      </trkpt>
      <trkpt lat="47.56312" lon="6.66697">
        <ele>394.4</ele>
        <time>2025-09-13T12:02:18Z</time>
      </trkpt>
      <trkpt lat="47.56312" lon="6.66686">
        <ele>394.2</ele>
        <time>2025-09-13T12:02:19Z</time>
      </trkpt>
      <trkpt lat="47.56313" lon="6.66675">
        <ele>393.9</ele>
        <time>2025-09-13T12:02:20Z</time>
      </trkpt>
      <trkpt lat="47.56314" lon="6.66665">
        <ele>393.7</ele>
        <time>2025-09-13T12:02:21Z</time>
      </trkpt>
      <trkpt lat="47.56316" lon="6.66653">
        <ele>393.4</ele>
        <time>2025-09-13T12:02:22Z</time>
      </trkpt>
      <trkpt lat="47.56317" lon="6.66641">
        <ele>393.1</ele>
        <time>2025-09-13T12:02:23Z</time>
      </trkpt>
      <trkpt lat="47.5632" lon="6.66632">
        <ele>392.8</ele>
        <time>2025-09-13T12:02:24Z</time>
      </trkpt>
      <trkpt lat="47.56322" lon="6.66621">
        <ele>392.4</ele>
        <time>2025-09-13T12:02:25Z</time>
      </trkpt>
      <trkpt lat="47.56325" lon="6.6661">
        <ele>392</ele>
        <time>2025-09-13T12:02:26Z</time>
      </trkpt>
      <trkpt lat="47.56329" lon="6.666">
        <ele>391.6</ele>
        <time>2025-09-13T12:02:27Z</time>
      </trkpt>
      <trkpt lat="47.56333" lon="6.66588">
        <ele>391.1</ele>
        <time>2025-09-13T12:02:28Z</time>
      </trkpt>
      <trkpt lat="47.56337" lon="6.66579">
        <ele>390.7</ele>
        <time>2025-09-13T12:02:29Z</time>
      </trkpt>
      <trkpt lat="47.56341" lon="6.66568">
        <ele>390.3</ele>
        <time>2025-09-13T12:02:30Z</time>
      </trkpt>
      <trkpt lat="47.56346" lon="6.66557">
        <ele>389.9</ele>
        <time>2025-09-13T12:02:31Z</time>
      </trkpt>
      <trkpt lat="47.5635" lon="6.66546">
        <ele>389.5</ele>
        <time>2025-09-13T12:02:32Z</time>
      </trkpt>
      <trkpt lat="47.56355" lon="6.66536">
        <ele>389.1</ele>
        <time>2025-09-13T12:02:33Z</time>
      </trkpt>
      <trkpt lat="47.5636" lon="6.66525">
        <ele>388.6</ele>
        <time>2025-09-13T12:02:34Z</time>
      </trkpt>
      <trkpt lat="47.56364" lon="6.66514">
        <ele>388.1</ele>
        <time>2025-09-13T12:02:35Z</time>
      </trkpt>
      <trkpt lat="47.56369" lon="6.66504">
        <ele>387.6</ele>
        <time>2025-09-13T12:02:36Z</time>
      </trkpt>
      <trkpt lat="47.56374" lon="6.66493">
        <ele>387.1</ele>
        <time>2025-09-13T12:02:37Z</time>
      </trkpt>
      <trkpt lat="47.56379" lon="6.66482">
        <ele>386.5</ele>
        <time>2025-09-13T12:02:38Z</time>
      </trkpt>
      <trkpt lat="47.56384" lon="6.66471">
        <ele>386</ele>
        <time>2025-09-13T12:02:39Z</time>
      </trkpt>
      <trkpt lat="47.5639" lon="6.6646">
        <ele>385.5</ele>
        <time>2025-09-13T12:02:40Z</time>
      </trkpt>
      <trkpt lat="47.56396" lon="6.6645">
        <ele>385.1</ele>
        <time>2025-09-13T12:02:41Z</time>
      </trkpt>
      <trkpt lat="47.56403" lon="6.66441">
        <ele>384.6</ele>
        <time>2025-09-13T12:02:42Z</time>
      </trkpt>
      <trkpt lat="47.5641" lon="6.66432">
        <ele>384.3</ele>
        <time>2025-09-13T12:02:43Z</time>
      </trkpt>
      <trkpt lat="47.56416" lon="6.66423">
        <ele>384</ele>
        <time>2025-09-13T12:02:44Z</time>
      </trkpt>
      <trkpt lat="47.56422" lon="6.66413">
        <ele>383.8</ele>
        <time>2025-09-13T12:02:45Z</time>
      </trkpt>
      <trkpt lat="47.56427" lon="6.66402">
        <ele>383.5</ele>
        <time>2025-09-13T12:02:46Z</time>
      </trkpt>
      <trkpt lat="47.5643" lon="6.66391">
        <ele>383.3</ele>
        <time>2025-09-13T12:02:47Z</time>
      </trkpt>
      <trkpt lat="47.56434" lon="6.6638">
        <ele>383</ele>
        <time>2025-09-13T12:02:48Z</time>
      </trkpt>
      <trkpt lat="47.56438" lon="6.66369">
        <ele>382.7</ele>
        <time>2025-09-13T12:02:49Z</time>
      </trkpt>
      <trkpt lat="47.56441" lon="6.66359">
        <ele>382.4</ele>
        <time>2025-09-13T12:02:50Z</time>
      </trkpt>
      <trkpt lat="47.56445" lon="6.66347">
        <ele>382</ele>
        <time>2025-09-13T12:02:51Z</time>
      </trkpt>
      <trkpt lat="47.56449" lon="6.66336">
        <ele>381.6</ele>
        <time>2025-09-13T12:02:52Z</time>
      </trkpt>
      <trkpt lat="47.56452" lon="6.66325">
        <ele>381.2</ele>
        <time>2025-09-13T12:02:53Z</time>
      </trkpt>
      <trkpt lat="47.56452" lon="6.66312">
        <ele>380.9</ele>
        <time>2025-09-13T12:02:54Z</time>
      </trkpt>
      <trkpt lat="47.56451" lon="6.66299">
        <ele>380.5</ele>
        <time>2025-09-13T12:02:55Z</time>
      </trkpt>
      <trkpt lat="47.56447" lon="6.66287">
        <ele>380.4</ele>
        <time>2025-09-13T12:02:56Z</time>
      </trkpt>
      <trkpt lat="47.56442" lon="6.66276">
        <ele>380.3</ele>
        <time>2025-09-13T12:02:57Z</time>
      </trkpt>
      <trkpt lat="47.56436" lon="6.66265">
        <ele>380.2</ele>
        <time>2025-09-13T12:02:58Z</time>
      </trkpt>
      <trkpt lat="47.56432" lon="6.66253">
        <ele>380.2</ele>
        <time>2025-09-13T12:02:59Z</time>
      </trkpt>
      <trkpt lat="47.56428" lon="6.66241">
        <ele>380.1</ele>
        <time>2025-09-13T12:03:00Z</time>
      </trkpt>
      <trkpt lat="47.56426" lon="6.6623">
        <ele>380</ele>
        <time>2025-09-13T12:03:01Z</time>
      </trkpt>
      <trkpt lat="47.56426" lon="6.66218">
        <ele>380</ele>
        <time>2025-09-13T12:03:02Z</time>
      </trkpt>
      <trkpt lat="47.56423" lon="6.66207">
        <ele>380</ele>
        <time>2025-09-13T12:03:03Z</time>
      </trkpt>
      <trkpt lat="47.5642" lon="6.66196">
        <ele>380</ele>
        <time>2025-09-13T12:03:04Z</time>
      </trkpt>
      <trkpt lat="47.56418" lon="6.66186">
        <ele>380</ele>
        <time>2025-09-13T12:03:05Z</time>
      </trkpt>
      <trkpt lat="47.56415" lon="6.66175">
        <ele>380</ele>
        <time>2025-09-13T12:03:06Z</time>
      </trkpt>
      <trkpt lat="47.56412" lon="6.66165">
        <ele>380.1</ele>
        <time>2025-09-13T12:03:07Z</time>
      </trkpt>
      <trkpt lat="47.56409" lon="6.66155">
        <ele>380.2</ele>
        <time>2025-09-13T12:03:08Z</time>
      </trkpt>
      <trkpt lat="47.56406" lon="6.66145">
        <ele>380.3</ele>
        <time>2025-09-13T12:03:09Z</time>
      </trkpt>
      <trkpt lat="47.56403" lon="6.66135">
        <ele>380.5</ele>
        <time>2025-09-13T12:03:10Z</time>
      </trkpt>
      <trkpt lat="47.56401" lon="6.66124">
        <ele>380.8</ele>
        <time>2025-09-13T12:03:11Z</time>
      </trkpt>
      <trkpt lat="47.56398" lon="6.66114">
        <ele>381</ele>
        <time>2025-09-13T12:03:12Z</time>
      </trkpt>
      <trkpt lat="47.56396" lon="6.66103">
        <ele>381.2</ele>
        <time>2025-09-13T12:03:13Z</time>
      </trkpt>
      <trkpt lat="47.56394" lon="6.66092">
        <ele>381.5</ele>
        <time>2025-09-13T12:03:14Z</time>
      </trkpt>
      <trkpt lat="47.56393" lon="6.66083">
        <ele>381.6</ele>
        <time>2025-09-13T12:03:15Z</time>
      </trkpt>
      <trkpt lat="47.56392" lon="6.66071">
        <ele>381.9</ele>
        <time>2025-09-13T12:03:16Z</time>
      </trkpt>
      <trkpt lat="47.56392" lon="6.6606">
        <ele>382.1</ele>
        <time>2025-09-13T12:03:17Z</time>
      </trkpt>
      <trkpt lat="47.56392" lon="6.66049">
        <ele>382.3</ele>
        <time>2025-09-13T12:03:18Z</time>
      </trkpt>
      <trkpt lat="47.56392" lon="6.66038">
        <ele>382.6</ele>
        <time>2025-09-13T12:03:19Z</time>
      </trkpt>
      <trkpt lat="47.56393" lon="6.66027">
        <ele>382.9</ele>
        <time>2025-09-13T12:03:20Z</time>
      </trkpt>
      <trkpt lat="47.56395" lon="6.66016">
        <ele>383.2</ele>
        <time>2025-09-13T12:03:21Z</time>
      </trkpt>
      <trkpt lat="47.56397" lon="6.66006">
        <ele>383.5</ele>
        <time>2025-09-13T12:03:22Z</time>
      </trkpt>
      <trkpt lat="47.564" lon="6.65995">
        <ele>383.8</ele>
        <time>2025-09-13T12:03:23Z</time>
      </trkpt>
      <trkpt lat="47.56402" lon="6.65986">
        <ele>384.1</ele>
        <time>2025-09-13T12:03:24Z</time>
      </trkpt>
      <trkpt lat="47.56405" lon="6.65976">
        <ele>384.4</ele>
        <time>2025-09-13T12:03:25Z</time>
      </trkpt>
      <trkpt lat="47.56408" lon="6.65967">
        <ele>384.6</ele>
        <time>2025-09-13T12:03:26Z</time>
      </trkpt>
      <trkpt lat="47.5641" lon="6.65957">
        <ele>384.8</ele>
        <time>2025-09-13T12:03:27Z</time>
      </trkpt>
      <trkpt lat="47.56412" lon="6.65948">
        <ele>384.9</ele>
        <time>2025-09-13T12:03:28Z</time>
      </trkpt>
      <trkpt lat="47.56414" lon="6.65938">
        <ele>385.1</ele>
        <time>2025-09-13T12:03:29Z</time>
      </trkpt>
      <trkpt lat="47.56416" lon="6.65928">
        <ele>385.2</ele>
        <time>2025-09-13T12:03:30Z</time>
      </trkpt>
      <trkpt lat="47.56417" lon="6.65919">
        <ele>385.3</ele>
        <time>2025-09-13T12:03:31Z</time>
      </trkpt>
      <trkpt lat="47.56417" lon="6.6591">
        <ele>385.3</ele>
        <time>2025-09-13T12:03:32Z</time>
      </trkpt>
      <trkpt lat="47.56417" lon="6.65903">
        <ele>385.3</ele>
        <time>2025-09-13T12:03:33Z</time>
      </trkpt>
      <trkpt lat="47.56417" lon="6.65896">
        <ele>385.2</ele>
        <time>2025-09-13T12:03:35Z</time>
      </trkpt>
      <trkpt lat="47.56417" lon="6.65888">
        <ele>385.1</ele>
        <time>2025-09-13T12:03:36Z</time>
      </trkpt>
      <trkpt lat="47.56418" lon="6.65881">
        <ele>385</ele>
        <time>2025-09-13T12:03:37Z</time>
      </trkpt>
      <trkpt lat="47.56418" lon="6.65872">
        <ele>384.8</ele>
        <time>2025-09-13T12:03:38Z</time>
      </trkpt>
      <trkpt lat="47.56417" lon="6.65864">
        <ele>384.6</ele>
        <time>2025-09-13T12:03:39Z</time>
      </trkpt>
      <trkpt lat="47.56417" lon="6.65854">
        <ele>384.4</ele>
        <time>2025-09-13T12:03:40Z</time>
      </trkpt>
      <trkpt lat="47.56417" lon="6.65845">
        <ele>384.2</ele>
        <time>2025-09-13T12:03:41Z</time>
      </trkpt>
      <trkpt lat="47.56417" lon="6.65836">
        <ele>384</ele>
        <time>2025-09-13T12:03:42Z</time>
      </trkpt>
      <trkpt lat="47.56417" lon="6.65826">
        <ele>383.8</ele>
        <time>2025-09-13T12:03:43Z</time>
      </trkpt>
      <trkpt lat="47.56416" lon="6.65817">
        <ele>383.5</ele>
        <time>2025-09-13T12:03:44Z</time>
      </trkpt>
      <trkpt lat="47.56416" lon="6.65807">
        <ele>383.3</ele>
        <time>2025-09-13T12:03:45Z</time>
      </trkpt>
      <trkpt lat="47.56416" lon="6.65796">
        <ele>383</ele>
        <time>2025-09-13T12:03:46Z</time>
      </trkpt>
      <trkpt lat="47.56415" lon="6.65786">
        <ele>382.7</ele>
        <time>2025-09-13T12:03:47Z</time>
      </trkpt>
      <trkpt lat="47.56415" lon="6.65775">
        <ele>382.4</ele>
        <time>2025-09-13T12:03:48Z</time>
      </trkpt>
      <trkpt lat="47.56415" lon="6.65764">
        <ele>382.1</ele>
        <time>2025-09-13T12:03:49Z</time>
      </trkpt>
      <trkpt lat="47.56416" lon="6.65754">
        <ele>381.8</ele>
        <time>2025-09-13T12:03:50Z</time>
      </trkpt>
      <trkpt lat="47.56416" lon="6.65743">
        <ele>381.5</ele>
        <time>2025-09-13T12:03:51Z</time>
      </trkpt>
      <trkpt lat="47.56417" lon="6.65732">
        <ele>381.2</ele>
        <time>2025-09-13T12:03:52Z</time>
      </trkpt>
      <trkpt lat="47.56418" lon="6.6572">
        <ele>380.9</ele>
        <time>2025-09-13T12:03:53Z</time>
      </trkpt>
      <trkpt lat="47.56419" lon="6.65709">
        <ele>380.5</ele>
        <time>2025-09-13T12:03:54Z</time>
      </trkpt>
      <trkpt lat="47.5642" lon="6.65698">
        <ele>380.2</ele>
        <time>2025-09-13T12:03:55Z</time>
      </trkpt>
      <trkpt lat="47.56421" lon="6.65687">
        <ele>379.9</ele>
        <time>2025-09-13T12:03:56Z</time>
      </trkpt>
      <trkpt lat="47.56424" lon="6.65664">
        <ele>379.1</ele>
        <time>2025-09-13T12:03:57Z</time>
      </trkpt>
      <trkpt lat="47.56425" lon="6.65653">
        <ele>378.7</ele>
        <time>2025-09-13T12:03:58Z</time>
      </trkpt>
      <trkpt lat="47.56427" lon="6.65641">
        <ele>378.3</ele>
        <time>2025-09-13T12:03:59Z</time>
      </trkpt>
      <trkpt lat="47.56428" lon="6.65629">
        <ele>377.9</ele>
        <time>2025-09-13T12:04:00Z</time>
      </trkpt>
      <trkpt lat="47.5643" lon="6.65618">
        <ele>377.5</ele>
        <time>2025-09-13T12:04:01Z</time>
      </trkpt>
      <trkpt lat="47.56432" lon="6.65606">
        <ele>377.1</ele>
        <time>2025-09-13T12:04:02Z</time>
      </trkpt>
      <trkpt lat="47.56434" lon="6.65593">
        <ele>376.8</ele>
        <time>2025-09-13T12:04:03Z</time>
      </trkpt>
      <trkpt lat="47.56436" lon="6.65582">
        <ele>376.4</ele>
        <time>2025-09-13T12:04:04Z</time>
      </trkpt>
      <trkpt lat="47.56439" lon="6.6557">
        <ele>376.1</ele>
        <time>2025-09-13T12:04:05Z</time>
      </trkpt>
      <trkpt lat="47.56441" lon="6.65559">
        <ele>375.8</ele>
        <time>2025-09-13T12:04:06Z</time>
      </trkpt>
      <trkpt lat="47.56444" lon="6.65547">
        <ele>375.5</ele>
        <time>2025-09-13T12:04:07Z</time>
      </trkpt>
      <trkpt lat="47.56446" lon="6.65535">
        <ele>375.3</ele>
        <time>2025-09-13T12:04:08Z</time>
      </trkpt>
      <trkpt lat="47.56449" lon="6.65522">
        <ele>375.1</ele>
        <time>2025-09-13T12:04:09Z</time>
      </trkpt>
      <trkpt lat="47.56452" lon="6.6551">
        <ele>374.8</ele>
        <time>2025-09-13T12:04:10Z</time>
      </trkpt>
      <trkpt lat="47.56455" lon="6.65499">
        <ele>374.6</ele>
        <time>2025-09-13T12:04:11Z</time>
      </trkpt>
      <trkpt lat="47.56457" lon="6.65488">
        <ele>374.5</ele>
        <time>2025-09-13T12:04:12Z</time>
      </trkpt>
      <trkpt lat="47.5646" lon="6.65477">
        <ele>374.4</ele>
        <time>2025-09-13T12:04:13Z</time>
      </trkpt>
      <trkpt lat="47.56462" lon="6.65466">
        <ele>374.4</ele>
        <time>2025-09-13T12:04:14Z</time>
      </trkpt>
      <trkpt lat="47.56464" lon="6.65455">
        <ele>374.3</ele>
        <time>2025-09-13T12:04:15Z</time>
      </trkpt>
      <trkpt lat="47.56466" lon="6.65445">
        <ele>374.3</ele>
        <time>2025-09-13T12:04:16Z</time>
      </trkpt>
      <trkpt lat="47.56468" lon="6.65435">
        <ele>374.3</ele>
        <time>2025-09-13T12:04:17Z</time>
      </trkpt>
      <trkpt lat="47.56469" lon="6.65426">
        <ele>374.4</ele>
        <time>2025-09-13T12:04:18Z</time>
      </trkpt>
      <trkpt lat="47.56471" lon="6.65416">
        <ele>374.4</ele>
        <time>2025-09-13T12:04:19Z</time>
      </trkpt>
      <trkpt lat="47.56471" lon="6.65408">
        <ele>374.4</ele>
        <time>2025-09-13T12:04:20Z</time>
      </trkpt>
      <trkpt lat="47.56472" lon="6.65399">
        <ele>374.4</ele>
        <time>2025-09-13T12:04:21Z</time>
      </trkpt>
      <trkpt lat="47.56471" lon="6.65391">
        <ele>374.4</ele>
        <time>2025-09-13T12:04:22Z</time>
      </trkpt>
      <trkpt lat="47.56472" lon="6.65382">
        <ele>374.4</ele>
        <time>2025-09-13T12:04:23Z</time>
      </trkpt>
      <trkpt lat="47.56474" lon="6.65374">
        <ele>374.4</ele>
        <time>2025-09-13T12:04:24Z</time>
      </trkpt>
      <trkpt lat="47.56474" lon="6.65367">
        <ele>374.5</ele>
        <time>2025-09-13T12:04:25Z</time>
      </trkpt>
      <trkpt lat="47.56474" lon="6.65359">
        <ele>374.5</ele>
        <time>2025-09-13T12:04:26Z</time>
      </trkpt>
      <trkpt lat="47.56475" lon="6.6535">
        <ele>374.5</ele>
        <time>2025-09-13T12:04:27Z</time>
      </trkpt>
      <trkpt lat="47.56477" lon="6.65342">
        <ele>374.5</ele>
        <time>2025-09-13T12:04:28Z</time>
      </trkpt>
      <trkpt lat="47.56478" lon="6.65333">
        <ele>374.6</ele>
        <time>2025-09-13T12:04:29Z</time>
      </trkpt>
      <trkpt lat="47.56481" lon="6.65325">
        <ele>374.6</ele>
        <time>2025-09-13T12:04:30Z</time>
      </trkpt>
      <trkpt lat="47.56483" lon="6.65318">
        <ele>374.6</ele>
        <time>2025-09-13T12:04:31Z</time>
      </trkpt>
      <trkpt lat="47.56486" lon="6.65311">
        <ele>374.6</ele>
        <time>2025-09-13T12:04:32Z</time>
      </trkpt>
      <trkpt lat="47.56489" lon="6.65304">
        <ele>374.6</ele>
        <time>2025-09-13T12:04:33Z</time>
      </trkpt>
      <trkpt lat="47.56492" lon="6.65297">
        <ele>374.6</ele>
        <time>2025-09-13T12:04:34Z</time>
      </trkpt>
      <trkpt lat="47.56496" lon="6.6529">
        <ele>374.6</ele>
        <time>2025-09-13T12:04:35Z</time>
      </trkpt>
      <trkpt lat="47.565" lon="6.65283">
        <ele>374.6</ele>
        <time>2025-09-13T12:04:36Z</time>
      </trkpt>
      <trkpt lat="47.56503" lon="6.65277">
        <ele>374.6</ele>
        <time>2025-09-13T12:04:37Z</time>
      </trkpt>
      <trkpt lat="47.56506" lon="6.65271">
        <ele>374.6</ele>
        <time>2025-09-13T12:04:38Z</time>
      </trkpt>
      <trkpt lat="47.56509" lon="6.65265">
        <ele>374.7</ele>
        <time>2025-09-13T12:04:39Z</time>
      </trkpt>
      <trkpt lat="47.56512" lon="6.65258">
        <ele>374.7</ele>
        <time>2025-09-13T12:04:40Z</time>
      </trkpt>
      <trkpt lat="47.56515" lon="6.65252">
        <ele>374.7</ele>
        <time>2025-09-13T12:04:41Z</time>
      </trkpt>
      <trkpt lat="47.56518" lon="6.65246">
        <ele>374.8</ele>
        <time>2025-09-13T12:04:42Z</time>
      </trkpt>
      <trkpt lat="47.56521" lon="6.6524">
        <ele>374.8</ele>
        <time>2025-09-13T12:04:43Z</time>
      </trkpt>
      <trkpt lat="47.56524" lon="6.65234">
        <ele>374.8</ele>
        <time>2025-09-13T12:04:44Z</time>
      </trkpt>
      <trkpt lat="47.56528" lon="6.65227">
        <ele>374.8</ele>
        <time>2025-09-13T12:04:45Z</time>
      </trkpt>
      <trkpt lat="47.56531" lon="6.65221">
        <ele>374.8</ele>
        <time>2025-09-13T12:04:46Z</time>
      </trkpt>
      <trkpt lat="47.56535" lon="6.65214">
        <ele>374.8</ele>
        <time>2025-09-13T12:04:47Z</time>
      </trkpt>
      <trkpt lat="47.56538" lon="6.65208">
        <ele>374.9</ele>
        <time>2025-09-13T12:04:48Z</time>
      </trkpt>
      <trkpt lat="47.56541" lon="6.65202">
        <ele>374.9</ele>
        <time>2025-09-13T12:04:49Z</time>
      </trkpt>
      <trkpt lat="47.56544" lon="6.65196">
        <ele>374.9</ele>
        <time>2025-09-13T12:04:50Z</time>
      </trkpt>
      <trkpt lat="47.56547" lon="6.6519">
        <ele>375</ele>
        <time>2025-09-13T12:04:51Z</time>
      </trkpt>
      <trkpt lat="47.5655" lon="6.65183">
        <ele>375</ele>
        <time>2025-09-13T12:04:52Z</time>
      </trkpt>
      <trkpt lat="47.56554" lon="6.65177">
        <ele>375</ele>
        <time>2025-09-13T12:04:53Z</time>
      </trkpt>
      <trkpt lat="47.56557" lon="6.65171">
        <ele>375.1</ele>
        <time>2025-09-13T12:04:54Z</time>
      </trkpt>
      <trkpt lat="47.5656" lon="6.65165">
        <ele>375.1</ele>
        <time>2025-09-13T12:04:55Z</time>
      </trkpt>
      <trkpt lat="47.56564" lon="6.65158">
        <ele>375.2</ele>
        <time>2025-09-13T12:04:56Z</time>
      </trkpt>
      <trkpt lat="47.56567" lon="6.65153">
        <ele>375.2</ele>
        <time>2025-09-13T12:04:57Z</time>
      </trkpt>
      <trkpt lat="47.5657" lon="6.65146">
        <ele>375.3</ele>
        <time>2025-09-13T12:04:58Z</time>
      </trkpt>
      <trkpt lat="47.56573" lon="6.6514">
        <ele>375.3</ele>
        <time>2025-09-13T12:04:59Z</time>
      </trkpt>
      <trkpt lat="47.56576" lon="6.65135">
        <ele>375.4</ele>
        <time>2025-09-13T12:05:00Z</time>
      </trkpt>
      <trkpt lat="47.56579" lon="6.6513">
        <ele>375.4</ele>
        <time>2025-09-13T12:05:01Z</time>
      </trkpt>
      <trkpt lat="47.56581" lon="6.65124">
        <ele>375.5</ele>
        <time>2025-09-13T12:05:02Z</time>
      </trkpt>
      <trkpt lat="47.56584" lon="6.65119">
        <ele>375.6</ele>
        <time>2025-09-13T12:05:03Z</time>
      </trkpt>
      <trkpt lat="47.56587" lon="6.65115">
        <ele>375.7</ele>
        <time>2025-09-13T12:05:04Z</time>
      </trkpt>
      <trkpt lat="47.56589" lon="6.65112">
        <ele>375.8</ele>
        <time>2025-09-13T12:05:05Z</time>
      </trkpt>
      <trkpt lat="47.56593" lon="6.6511">
        <ele>375.8</ele>
        <time>2025-09-13T12:05:06Z</time>
      </trkpt>
      <trkpt lat="47.56595" lon="6.65109">
        <ele>375.9</ele>
        <time>2025-09-13T12:05:07Z</time>
      </trkpt>
      <trkpt lat="47.56598" lon="6.65106">
        <ele>375.9</ele>
        <time>2025-09-13T12:05:08Z</time>
      </trkpt>
      <trkpt lat="47.56598" lon="6.65105">
        <ele>376</ele>
        <time>2025-09-13T12:05:09Z</time>
      </trkpt>
      <trkpt lat="47.566" lon="6.65103">
        <ele>376</ele>
        <time>2025-09-13T12:05:10Z</time>
      </trkpt>
      <trkpt lat="47.566" lon="6.65103">
        <ele>376</ele>
        <time>2025-09-13T12:05:11Z</time>
      </trkpt>
      <trkpt lat="47.566" lon="6.65102">
        <ele>376</ele>
        <time>2025-09-13T12:05:12Z</time>
      </trkpt>
      <trkpt lat="47.566" lon="6.65102">
        <ele>376</ele>
        <time>2025-09-13T12:05:13Z</time>
      </trkpt>
      <trkpt lat="47.56601" lon="6.65101">
        <ele>376</ele>
        <time>2025-09-13T12:05:14Z</time>
      </trkpt>
      <trkpt lat="47.56601" lon="6.65101">
        <ele>376</ele>
        <time>2025-09-13T12:05:15Z</time>
      </trkpt>
      <trkpt lat="47.56601" lon="6.651">
        <ele>376</ele>
        <time>2025-09-13T12:05:16Z</time>
      </trkpt>
      <trkpt lat="47.56602" lon="6.651">
        <ele>376.1</ele>
        <time>2025-09-13T12:05:17Z</time>
      </trkpt>
      <trkpt lat="47.56603" lon="6.65095">
        <ele>376.1</ele>
        <time>2025-09-13T12:05:18Z</time>
      </trkpt>
      <trkpt lat="47.56603" lon="6.65089">
        <ele>376.1</ele>
        <time>2025-09-13T12:05:19Z</time>
      </trkpt>
      <trkpt lat="47.56603" lon="6.65082">
        <ele>376.2</ele>
        <time>2025-09-13T12:05:20Z</time>
      </trkpt>
      <trkpt lat="47.56602" lon="6.65076">
        <ele>376.2</ele>
        <time>2025-09-13T12:05:21Z</time>
      </trkpt>
      <trkpt lat="47.566" lon="6.6507">
        <ele>376.3</ele>
        <time>2025-09-13T12:05:22Z</time>
      </trkpt>
      <trkpt lat="47.56598" lon="6.65064">
        <ele>376.4</ele>
        <time>2025-09-13T12:05:23Z</time>
      </trkpt>
      <trkpt lat="47.56597" lon="6.65057">
        <ele>376.4</ele>
        <time>2025-09-13T12:05:24Z</time>
      </trkpt>
      <trkpt lat="47.56595" lon="6.65051">
        <ele>376.5</ele>
        <time>2025-09-13T12:05:25Z</time>
      </trkpt>
      <trkpt lat="47.56593" lon="6.65044">
        <ele>376.6</ele>
        <time>2025-09-13T12:05:26Z</time>
      </trkpt>
      <trkpt lat="47.56591" lon="6.65037">
        <ele>376.7</ele>
        <time>2025-09-13T12:05:27Z</time>
      </trkpt>
      <trkpt lat="47.56588" lon="6.65031">
        <ele>376.8</ele>
        <time>2025-09-13T12:05:28Z</time>
      </trkpt>
      <trkpt lat="47.56586" lon="6.65024">
        <ele>376.9</ele>
        <time>2025-09-13T12:05:29Z</time>
      </trkpt>
      <trkpt lat="47.56585" lon="6.65017">
        <ele>377.1</ele>
        <time>2025-09-13T12:05:30Z</time>
      </trkpt>
      <trkpt lat="47.56582" lon="6.6501">
        <ele>377.2</ele>
        <time>2025-09-13T12:05:31Z</time>
      </trkpt>
      <trkpt lat="47.5658" lon="6.65004">
        <ele>377.3</ele>
        <time>2025-09-13T12:05:32Z</time>
      </trkpt>
      <trkpt lat="47.56578" lon="6.64997">
        <ele>377.5</ele>
        <time>2025-09-13T12:05:33Z</time>
      </trkpt>
      <trkpt lat="47.56576" lon="6.64992">
        <ele>377.6</ele>
        <time>2025-09-13T12:05:34Z</time>
      </trkpt>
      <trkpt lat="47.56573" lon="6.64985">
        <ele>377.8</ele>
        <time>2025-09-13T12:05:35Z</time>
      </trkpt>
      <trkpt lat="47.5657" lon="6.64979">
        <ele>378</ele>
        <time>2025-09-13T12:05:36Z</time>
      </trkpt>
      <trkpt lat="47.56568" lon="6.64973">
        <ele>378.1</ele>
        <time>2025-09-13T12:05:37Z</time>
      </trkpt>
      <trkpt lat="47.56566" lon="6.64967">
        <ele>378.3</ele>
        <time>2025-09-13T12:05:38Z</time>
      </trkpt>
      <trkpt lat="47.56564" lon="6.64961">
        <ele>378.5</ele>
        <time>2025-09-13T12:05:39Z</time>
      </trkpt>
      <trkpt lat="47.56561" lon="6.64954">
        <ele>378.7</ele>
        <time>2025-09-13T12:05:41Z</time>
      </trkpt>
      <trkpt lat="47.56558" lon="6.64948">
        <ele>378.9</ele>
        <time>2025-09-13T12:05:42Z</time>
      </trkpt>
      <trkpt lat="47.56555" lon="6.64942">
        <ele>379.2</ele>
        <time>2025-09-13T12:05:43Z</time>
      </trkpt>
      <trkpt lat="47.56552" lon="6.64936">
        <ele>379.4</ele>
        <time>2025-09-13T12:05:44Z</time>
      </trkpt>
      <trkpt lat="47.56549" lon="6.6493">
        <ele>379.6</ele>
        <time>2025-09-13T12:05:45Z</time>
      </trkpt>
      <trkpt lat="47.56547" lon="6.64924">
        <ele>379.9</ele>
        <time>2025-09-13T12:05:46Z</time>
      </trkpt>
      <trkpt lat="47.56544" lon="6.64918">
        <ele>380.1</ele>
        <time>2025-09-13T12:05:47Z</time>
      </trkpt>
      <trkpt lat="47.5654" lon="6.64913">
        <ele>380.4</ele>
        <time>2025-09-13T12:05:48Z</time>
      </trkpt>
      <trkpt lat="47.56537" lon="6.64907">
        <ele>380.6</ele>
        <time>2025-09-13T12:05:49Z</time>
      </trkpt>
      <trkpt lat="47.56534" lon="6.64901">
        <ele>380.8</ele>
        <time>2025-09-13T12:05:50Z</time>
      </trkpt>
      <trkpt lat="47.56531" lon="6.64895">
        <ele>381.1</ele>
        <time>2025-09-13T12:05:51Z</time>
      </trkpt>
      <trkpt lat="47.56528" lon="6.6489">
        <ele>381.3</ele>
        <time>2025-09-13T12:05:52Z</time>
      </trkpt>
      <trkpt lat="47.56525" lon="6.64884">
        <ele>381.6</ele>
        <time>2025-09-13T12:05:53Z</time>
      </trkpt>
      <trkpt lat="47.56521" lon="6.64878">
        <ele>381.9</ele>
        <time>2025-09-13T12:05:54Z</time>
      </trkpt>
      <trkpt lat="47.56519" lon="6.64873">
        <ele>382.2</ele>
        <time>2025-09-13T12:05:55Z</time>
      </trkpt>
      <trkpt lat="47.56515" lon="6.64867">
        <ele>382.5</ele>
        <time>2025-09-13T12:05:56Z</time>
      </trkpt>
      <trkpt lat="47.56512" lon="6.64861">
        <ele>382.8</ele>
        <time>2025-09-13T12:05:57Z</time>
      </trkpt>
      <trkpt lat="47.56509" lon="6.64856">
        <ele>383.1</ele>
        <time>2025-09-13T12:05:58Z</time>
      </trkpt>
      <trkpt lat="47.56506" lon="6.6485">
        <ele>383.4</ele>
        <time>2025-09-13T12:05:59Z</time>
      </trkpt>
      <trkpt lat="47.56502" lon="6.64844">
        <ele>383.7</ele>
        <time>2025-09-13T12:06:00Z</time>
      </trkpt>
      <trkpt lat="47.56499" lon="6.64838">
        <ele>384</ele>
        <time>2025-09-13T12:06:01Z</time>
      </trkpt>
      <trkpt lat="47.56496" lon="6.64833">
        <ele>384.3</ele>
        <time>2025-09-13T12:06:02Z</time>
      </trkpt>
      <trkpt lat="47.5649" lon="6.64821">
        <ele>384.8</ele>
        <time>2025-09-13T12:06:03Z</time>
      </trkpt>
      <trkpt lat="47.56486" lon="6.64815">
        <ele>385.1</ele>
        <time>2025-09-13T12:06:04Z</time>
      </trkpt>
      <trkpt lat="47.56484" lon="6.64809">
        <ele>385.3</ele>
        <time>2025-09-13T12:06:05Z</time>
      </trkpt>
      <trkpt lat="47.5648" lon="6.64802">
        <ele>385.5</ele>
        <time>2025-09-13T12:06:06Z</time>
      </trkpt>
      <trkpt lat="47.56477" lon="6.64796">
        <ele>385.7</ele>
        <time>2025-09-13T12:06:07Z</time>
      </trkpt>
      <trkpt lat="47.56474" lon="6.64789">
        <ele>385.9</ele>
        <time>2025-09-13T12:06:08Z</time>
      </trkpt>
      <trkpt lat="47.56471" lon="6.64782">
        <ele>386</ele>
        <time>2025-09-13T12:06:09Z</time>
      </trkpt>
      <trkpt lat="47.56468" lon="6.64775">
        <ele>386.2</ele>
        <time>2025-09-13T12:06:10Z</time>
      </trkpt>
      <trkpt lat="47.56465" lon="6.64769">
        <ele>386.3</ele>
        <time>2025-09-13T12:06:11Z</time>
      </trkpt>
      <trkpt lat="47.56462" lon="6.64762">
        <ele>386.4</ele>
        <time>2025-09-13T12:06:12Z</time>
      </trkpt>
      <trkpt lat="47.5646" lon="6.64755">
        <ele>386.6</ele>
        <time>2025-09-13T12:06:13Z</time>
      </trkpt>
      <trkpt lat="47.56458" lon="6.64748">
        <ele>386.6</ele>
        <time>2025-09-13T12:06:14Z</time>
      </trkpt>
      <trkpt lat="47.56455" lon="6.64742">
        <ele>386.7</ele>
        <time>2025-09-13T12:06:15Z</time>
      </trkpt>
      <trkpt lat="47.56453" lon="6.64735">
        <ele>386.8</ele>
        <time>2025-09-13T12:06:16Z</time>
      </trkpt>
      <trkpt lat="47.5645" lon="6.64729">
        <ele>386.9</ele>
        <time>2025-09-13T12:06:17Z</time>
      </trkpt>
      <trkpt lat="47.56447" lon="6.64723">
        <ele>387</ele>
        <time>2025-09-13T12:06:18Z</time>
      </trkpt>
      <trkpt lat="47.56445" lon="6.64716">
        <ele>387</ele>
        <time>2025-09-13T12:06:19Z</time>
      </trkpt>
      <trkpt lat="47.56443" lon="6.6471">
        <ele>387.1</ele>
        <time>2025-09-13T12:06:20Z</time>
      </trkpt>
      <trkpt lat="47.5644" lon="6.64703">
        <ele>387.1</ele>
        <time>2025-09-13T12:06:21Z</time>
      </trkpt>
      <trkpt lat="47.56437" lon="6.64696">
        <ele>387</ele>
        <time>2025-09-13T12:06:22Z</time>
      </trkpt>
      <trkpt lat="47.56434" lon="6.64689">
        <ele>387</ele>
        <time>2025-09-13T12:06:23Z</time>
      </trkpt>
      <trkpt lat="47.56432" lon="6.64682">
        <ele>386.9</ele>
        <time>2025-09-13T12:06:24Z</time>
      </trkpt>
      <trkpt lat="47.56428" lon="6.64675">
        <ele>386.8</ele>
        <time>2025-09-13T12:06:25Z</time>
      </trkpt>
      <trkpt lat="47.56425" lon="6.64668">
        <ele>386.6</ele>
        <time>2025-09-13T12:06:26Z</time>
      </trkpt>
      <trkpt lat="47.56422" lon="6.6466">
        <ele>386.4</ele>
        <time>2025-09-13T12:06:27Z</time>
      </trkpt>
      <trkpt lat="47.56419" lon="6.64652">
        <ele>386</ele>
        <time>2025-09-13T12:06:28Z</time>
      </trkpt>
      <trkpt lat="47.56416" lon="6.64644">
        <ele>385.8</ele>
        <time>2025-09-13T12:06:29Z</time>
      </trkpt>
      <trkpt lat="47.56413" lon="6.64636">
        <ele>385.4</ele>
        <time>2025-09-13T12:06:30Z</time>
      </trkpt>
      <trkpt lat="47.5641" lon="6.64627">
        <ele>385</ele>
        <time>2025-09-13T12:06:31Z</time>
      </trkpt>
      <trkpt lat="47.56407" lon="6.64617">
        <ele>384.5</ele>
        <time>2025-09-13T12:06:32Z</time>
      </trkpt>
      <trkpt lat="47.56403" lon="6.64607">
        <ele>384</ele>
        <time>2025-09-13T12:06:33Z</time>
      </trkpt>
      <trkpt lat="47.564" lon="6.64597">
        <ele>383.5</ele>
        <time>2025-09-13T12:06:34Z</time>
      </trkpt>
      <trkpt lat="47.56398" lon="6.64585">
        <ele>382.9</ele>
        <time>2025-09-13T12:06:35Z</time>
      </trkpt>
      <trkpt lat="47.56395" lon="6.64574">
        <ele>382.3</ele>
        <time>2025-09-13T12:06:36Z</time>
      </trkpt>
      <trkpt lat="47.56393" lon="6.64562">
        <ele>381.7</ele>
        <time>2025-09-13T12:06:37Z</time>
      </trkpt>
      <trkpt lat="47.56391" lon="6.6455">
        <ele>381.2</ele>
        <time>2025-09-13T12:06:38Z</time>
      </trkpt>
      <trkpt lat="47.56389" lon="6.64538">
        <ele>380.6</ele>
        <time>2025-09-13T12:06:39Z</time>
      </trkpt>
      <trkpt lat="47.56388" lon="6.64525">
        <ele>380.1</ele>
        <time>2025-09-13T12:06:40Z</time>
      </trkpt>
      <trkpt lat="47.56386" lon="6.64511">
        <ele>379.6</ele>
        <time>2025-09-13T12:06:41Z</time>
      </trkpt>
      <trkpt lat="47.56386" lon="6.64499">
        <ele>379.2</ele>
        <time>2025-09-13T12:06:42Z</time>
      </trkpt>
      <trkpt lat="47.56385" lon="6.64485">
        <ele>378.9</ele>
        <time>2025-09-13T12:06:43Z</time>
      </trkpt>
      <trkpt lat="47.56385" lon="6.64472">
        <ele>378.6</ele>
        <time>2025-09-13T12:06:44Z</time>
      </trkpt>
      <trkpt lat="47.56384" lon="6.6446">
        <ele>378.3</ele>
        <time>2025-09-13T12:06:45Z</time>
      </trkpt>
      <trkpt lat="47.56383" lon="6.64447">
        <ele>378.1</ele>
        <time>2025-09-13T12:06:46Z</time>
      </trkpt>
      <trkpt lat="47.56383" lon="6.64435">
        <ele>377.9</ele>
        <time>2025-09-13T12:06:47Z</time>
      </trkpt>
      <trkpt lat="47.56382" lon="6.64422">
        <ele>377.7</ele>
        <time>2025-09-13T12:06:48Z</time>
      </trkpt>
      <trkpt lat="47.56381" lon="6.64411">
        <ele>377.5</ele>
        <time>2025-09-13T12:06:49Z</time>
      </trkpt>
      <trkpt lat="47.5638" lon="6.64399">
        <ele>377.5</ele>
        <time>2025-09-13T12:06:50Z</time>
      </trkpt>
      <trkpt lat="47.5638" lon="6.64387">
        <ele>377.4</ele>
        <time>2025-09-13T12:06:51Z</time>
      </trkpt>
      <trkpt lat="47.56379" lon="6.64375">
        <ele>377.3</ele>
        <time>2025-09-13T12:06:52Z</time>
      </trkpt>
      <trkpt lat="47.56379" lon="6.64364">
        <ele>377.2</ele>
        <time>2025-09-13T12:06:53Z</time>
      </trkpt>
      <trkpt lat="47.56378" lon="6.64354">
        <ele>377.2</ele>
        <time>2025-09-13T12:06:54Z</time>
      </trkpt>
      <trkpt lat="47.56378" lon="6.64343">
        <ele>377.2</ele>
        <time>2025-09-13T12:06:55Z</time>
      </trkpt>
      <trkpt lat="47.56378" lon="6.64332">
        <ele>377.2</ele>
        <time>2025-09-13T12:06:56Z</time>
      </trkpt>
      <trkpt lat="47.56378" lon="6.64321">
        <ele>377.2</ele>
        <time>2025-09-13T12:06:57Z</time>
      </trkpt>
      <trkpt lat="47.56379" lon="6.64311">
        <ele>377.1</ele>
        <time>2025-09-13T12:06:58Z</time>
      </trkpt>
      <trkpt lat="47.5638" lon="6.64301">
        <ele>377</ele>
        <time>2025-09-13T12:06:59Z</time>
      </trkpt>
      <trkpt lat="47.56381" lon="6.6429">
        <ele>376.9</ele>
        <time>2025-09-13T12:07:00Z</time>
      </trkpt>
      <trkpt lat="47.56382" lon="6.6428">
        <ele>376.8</ele>
        <time>2025-09-13T12:07:01Z</time>
      </trkpt>
      <trkpt lat="47.56384" lon="6.64269">
        <ele>376.8</ele>
        <time>2025-09-13T12:07:02Z</time>
      </trkpt>
      <trkpt lat="47.56386" lon="6.64259">
        <ele>376.7</ele>
        <time>2025-09-13T12:07:03Z</time>
      </trkpt>
      <trkpt lat="47.56388" lon="6.6425">
        <ele>376.7</ele>
        <time>2025-09-13T12:07:04Z</time>
      </trkpt>
      <trkpt lat="47.5639" lon="6.6424">
        <ele>376.7</ele>
        <time>2025-09-13T12:07:05Z</time>
      </trkpt>
      <trkpt lat="47.56392" lon="6.6423">
        <ele>376.7</ele>
        <time>2025-09-13T12:07:06Z</time>
      </trkpt>
      <trkpt lat="47.56395" lon="6.64221">
        <ele>376.7</ele>
        <time>2025-09-13T12:07:07Z</time>
      </trkpt>
      <trkpt lat="47.56397" lon="6.64212">
        <ele>376.7</ele>
        <time>2025-09-13T12:07:08Z</time>
      </trkpt>
      <trkpt lat="47.56399" lon="6.64203">
        <ele>376.7</ele>
        <time>2025-09-13T12:07:09Z</time>
      </trkpt>
      <trkpt lat="47.56401" lon="6.64194">
        <ele>376.7</ele>
        <time>2025-09-13T12:07:10Z</time>
      </trkpt>
      <trkpt lat="47.56404" lon="6.64184">
        <ele>376.8</ele>
        <time>2025-09-13T12:07:11Z</time>
      </trkpt>
      <trkpt lat="47.56406" lon="6.64175">
        <ele>376.8</ele>
        <time>2025-09-13T12:07:12Z</time>
      </trkpt>
      <trkpt lat="47.56407" lon="6.64166">
        <ele>376.8</ele>
        <time>2025-09-13T12:07:13Z</time>
      </trkpt>
      <trkpt lat="47.5641" lon="6.64157">
        <ele>376.8</ele>
        <time>2025-09-13T12:07:14Z</time>
      </trkpt>
      <trkpt lat="47.56412" lon="6.64147">
        <ele>376.8</ele>
        <time>2025-09-13T12:07:15Z</time>
      </trkpt>
      <trkpt lat="47.56414" lon="6.64139">
        <ele>376.9</ele>
        <time>2025-09-13T12:07:16Z</time>
      </trkpt>
      <trkpt lat="47.56416" lon="6.64129">
        <ele>376.9</ele>
        <time>2025-09-13T12:07:17Z</time>
      </trkpt>
      <trkpt lat="47.56418" lon="6.6412">
        <ele>376.9</ele>
        <time>2025-09-13T12:07:18Z</time>
      </trkpt>
      <trkpt lat="47.56421" lon="6.64112">
        <ele>376.9</ele>
        <time>2025-09-13T12:07:19Z</time>
      </trkpt>
      <trkpt lat="47.56423" lon="6.64104">
        <ele>376.9</ele>
        <time>2025-09-13T12:07:20Z</time>
      </trkpt>
      <trkpt lat="47.56425" lon="6.64095">
        <ele>377</ele>
        <time>2025-09-13T12:07:21Z</time>
      </trkpt>
      <trkpt lat="47.56427" lon="6.64085">
        <ele>377</ele>
        <time>2025-09-13T12:07:22Z</time>
      </trkpt>
      <trkpt lat="47.56429" lon="6.64077">
        <ele>377</ele>
        <time>2025-09-13T12:07:23Z</time>
      </trkpt>
      <trkpt lat="47.56431" lon="6.64068">
        <ele>377</ele>
        <time>2025-09-13T12:07:24Z</time>
      </trkpt>
      <trkpt lat="47.56433" lon="6.64059">
        <ele>377.1</ele>
        <time>2025-09-13T12:07:25Z</time>
      </trkpt>
      <trkpt lat="47.56436" lon="6.64049">
        <ele>377.1</ele>
        <time>2025-09-13T12:07:26Z</time>
      </trkpt>
      <trkpt lat="47.56438" lon="6.6404">
        <ele>377</ele>
        <time>2025-09-13T12:07:27Z</time>
      </trkpt>
      <trkpt lat="47.5644" lon="6.64031">
        <ele>377</ele>
        <time>2025-09-13T12:07:28Z</time>
      </trkpt>
      <trkpt lat="47.56442" lon="6.64021">
        <ele>377</ele>
        <time>2025-09-13T12:07:29Z</time>
      </trkpt>
      <trkpt lat="47.56445" lon="6.64012">
        <ele>377</ele>
        <time>2025-09-13T12:07:30Z</time>
      </trkpt>
      <trkpt lat="47.56447" lon="6.64003">
        <ele>377</ele>
        <time>2025-09-13T12:07:31Z</time>
      </trkpt>
      <trkpt lat="47.5645" lon="6.63993">
        <ele>377</ele>
        <time>2025-09-13T12:07:32Z</time>
      </trkpt>
      <trkpt lat="47.56452" lon="6.63984">
        <ele>376.9</ele>
        <time>2025-09-13T12:07:33Z</time>
      </trkpt>
      <trkpt lat="47.56454" lon="6.63975">
        <ele>376.9</ele>
        <time>2025-09-13T12:07:34Z</time>
      </trkpt>
      <trkpt lat="47.56456" lon="6.63966">
        <ele>376.9</ele>
        <time>2025-09-13T12:07:35Z</time>
      </trkpt>
      <trkpt lat="47.56459" lon="6.63956">
        <ele>376.9</ele>
        <time>2025-09-13T12:07:36Z</time>
      </trkpt>
      <trkpt lat="47.56461" lon="6.63947">
        <ele>377</ele>
        <time>2025-09-13T12:07:37Z</time>
      </trkpt>
      <trkpt lat="47.56463" lon="6.63937">
        <ele>377</ele>
        <time>2025-09-13T12:07:38Z</time>
      </trkpt>
      <trkpt lat="47.56466" lon="6.63928">
        <ele>377</ele>
        <time>2025-09-13T12:07:39Z</time>
      </trkpt>
      <trkpt lat="47.56468" lon="6.63918">
        <ele>377.1</ele>
        <time>2025-09-13T12:07:40Z</time>
      </trkpt>
      <trkpt lat="47.5647" lon="6.63909">
        <ele>377.1</ele>
        <time>2025-09-13T12:07:41Z</time>
      </trkpt>
      <trkpt lat="47.56473" lon="6.63899">
        <ele>377.2</ele>
        <time>2025-09-13T12:07:42Z</time>
      </trkpt>
      <trkpt lat="47.56475" lon="6.63891">
        <ele>377.3</ele>
        <time>2025-09-13T12:07:43Z</time>
      </trkpt>
      <trkpt lat="47.56477" lon="6.63881">
        <ele>377.4</ele>
        <time>2025-09-13T12:07:44Z</time>
      </trkpt>
      <trkpt lat="47.5648" lon="6.63871">
        <ele>377.5</ele>
        <time>2025-09-13T12:07:45Z</time>
      </trkpt>
      <trkpt lat="47.56482" lon="6.63862">
        <ele>377.7</ele>
        <time>2025-09-13T12:07:47Z</time>
      </trkpt>
      <trkpt lat="47.56484" lon="6.63854">
        <ele>377.8</ele>
        <time>2025-09-13T12:07:48Z</time>
      </trkpt>
      <trkpt lat="47.56487" lon="6.63844">
        <ele>378</ele>
        <time>2025-09-13T12:07:49Z</time>
      </trkpt>
      <trkpt lat="47.56489" lon="6.63836">
        <ele>378.2</ele>
        <time>2025-09-13T12:07:50Z</time>
      </trkpt>
      <trkpt lat="47.5649" lon="6.63828">
        <ele>378.4</ele>
        <time>2025-09-13T12:07:51Z</time>
      </trkpt>
      <trkpt lat="47.56493" lon="6.63819">
        <ele>378.6</ele>
        <time>2025-09-13T12:07:52Z</time>
      </trkpt>
      <trkpt lat="47.56495" lon="6.6381">
        <ele>378.8</ele>
        <time>2025-09-13T12:07:53Z</time>
      </trkpt>
      <trkpt lat="47.56497" lon="6.63803">
        <ele>379</ele>
        <time>2025-09-13T12:07:54Z</time>
      </trkpt>
      <trkpt lat="47.56499" lon="6.63795">
        <ele>379.2</ele>
        <time>2025-09-13T12:07:55Z</time>
      </trkpt>
      <trkpt lat="47.56502" lon="6.63787">
        <ele>379.5</ele>
        <time>2025-09-13T12:07:56Z</time>
      </trkpt>
      <trkpt lat="47.56504" lon="6.63778">
        <ele>379.7</ele>
        <time>2025-09-13T12:07:57Z</time>
      </trkpt>
      <trkpt lat="47.56506" lon="6.63769">
        <ele>379.9</ele>
        <time>2025-09-13T12:07:58Z</time>
      </trkpt>
      <trkpt lat="47.56508" lon="6.63761">
        <ele>380.1</ele>
        <time>2025-09-13T12:07:59Z</time>
      </trkpt>
      <trkpt lat="47.56509" lon="6.63753">
        <ele>380.4</ele>
        <time>2025-09-13T12:08:00Z</time>
      </trkpt>
      <trkpt lat="47.56512" lon="6.63744">
        <ele>380.6</ele>
        <time>2025-09-13T12:08:01Z</time>
      </trkpt>
      <trkpt lat="47.56514" lon="6.63737">
        <ele>380.8</ele>
        <time>2025-09-13T12:08:02Z</time>
      </trkpt>
      <trkpt lat="47.56516" lon="6.63729">
        <ele>380.9</ele>
        <time>2025-09-13T12:08:03Z</time>
      </trkpt>
      <trkpt lat="47.56518" lon="6.63721">
        <ele>381.1</ele>
        <time>2025-09-13T12:08:04Z</time>
      </trkpt>
      <trkpt lat="47.5652" lon="6.63713">
        <ele>381.3</ele>
        <time>2025-09-13T12:08:05Z</time>
      </trkpt>
      <trkpt lat="47.56523" lon="6.63705">
        <ele>381.5</ele>
        <time>2025-09-13T12:08:06Z</time>
      </trkpt>
      <trkpt lat="47.56525" lon="6.63698">
        <ele>381.7</ele>
        <time>2025-09-13T12:08:07Z</time>
      </trkpt>
      <trkpt lat="47.56528" lon="6.63691">
        <ele>381.8</ele>
        <time>2025-09-13T12:08:08Z</time>
      </trkpt>
      <trkpt lat="47.5653" lon="6.63683">
        <ele>382</ele>
        <time>2025-09-13T12:08:09Z</time>
      </trkpt>
      <trkpt lat="47.56532" lon="6.63676">
        <ele>382.1</ele>
        <time>2025-09-13T12:08:10Z</time>
      </trkpt>
      <trkpt lat="47.56535" lon="6.63668">
        <ele>382.2</ele>
        <time>2025-09-13T12:08:11Z</time>
      </trkpt>
      <trkpt lat="47.56537" lon="6.63661">
        <ele>382.3</ele>
        <time>2025-09-13T12:08:12Z</time>
      </trkpt>
      <trkpt lat="47.56542" lon="6.63645">
        <ele>382.4</ele>
        <time>2025-09-13T12:08:13Z</time>
      </trkpt>
      <trkpt lat="47.56545" lon="6.63638">
        <ele>382.5</ele>
        <time>2025-09-13T12:08:14Z</time>
      </trkpt>
      <trkpt lat="47.56549" lon="6.6363">
        <ele>382.5</ele>
        <time>2025-09-13T12:08:15Z</time>
      </trkpt>
      <trkpt lat="47.56554" lon="6.63624">
        <ele>382.6</ele>
        <time>2025-09-13T12:08:16Z</time>
      </trkpt>
      <trkpt lat="47.56559" lon="6.63618">
        <ele>382.6</ele>
        <time>2025-09-13T12:08:17Z</time>
      </trkpt>
      <trkpt lat="47.56564" lon="6.63614">
        <ele>382.6</ele>
        <time>2025-09-13T12:08:18Z</time>
      </trkpt>
      <trkpt lat="47.56569" lon="6.63609">
        <ele>382.6</ele>
        <time>2025-09-13T12:08:19Z</time>
      </trkpt>
      <trkpt lat="47.56575" lon="6.63604">
        <ele>382.6</ele>
        <time>2025-09-13T12:08:20Z</time>
      </trkpt>
      <trkpt lat="47.56582" lon="6.63599">
        <ele>382.6</ele>
        <time>2025-09-13T12:08:21Z</time>
      </trkpt>
      <trkpt lat="47.56587" lon="6.63595">
        <ele>382.5</ele>
        <time>2025-09-13T12:08:22Z</time>
      </trkpt>
      <trkpt lat="47.56593" lon="6.63591">
        <ele>382.5</ele>
        <time>2025-09-13T12:08:23Z</time>
      </trkpt>
      <trkpt lat="47.566" lon="6.63587">
        <ele>382.4</ele>
        <time>2025-09-13T12:08:24Z</time>
      </trkpt>
      <trkpt lat="47.56606" lon="6.63582">
        <ele>382.2</ele>
        <time>2025-09-13T12:08:25Z</time>
      </trkpt>
      <trkpt lat="47.56613" lon="6.63578">
        <ele>382.1</ele>
        <time>2025-09-13T12:08:26Z</time>
      </trkpt>
      <trkpt lat="47.5662" lon="6.63574">
        <ele>382</ele>
        <time>2025-09-13T12:08:27Z</time>
      </trkpt>
      <trkpt lat="47.56629" lon="6.63575">
        <ele>381.8</ele>
        <time>2025-09-13T12:08:28Z</time>
      </trkpt>
      <trkpt lat="47.56635" lon="6.63576">
        <ele>381.7</ele>
        <time>2025-09-13T12:08:29Z</time>
      </trkpt>
      <trkpt lat="47.56643" lon="6.63577">
        <ele>381.6</ele>
        <time>2025-09-13T12:08:30Z</time>
      </trkpt>
      <trkpt lat="47.56649" lon="6.63576">
        <ele>381.5</ele>
        <time>2025-09-13T12:08:31Z</time>
      </trkpt>
      <trkpt lat="47.56657" lon="6.63578">
        <ele>381.4</ele>
        <time>2025-09-13T12:08:32Z</time>
      </trkpt>
      <trkpt lat="47.56663" lon="6.63579">
        <ele>381.4</ele>
        <time>2025-09-13T12:08:33Z</time>
      </trkpt>
      <trkpt lat="47.5667" lon="6.6358">
        <ele>381.3</ele>
        <time>2025-09-13T12:08:34Z</time>
      </trkpt>
      <trkpt lat="47.56677" lon="6.63581">
        <ele>381.3</ele>
        <time>2025-09-13T12:08:35Z</time>
      </trkpt>
      <trkpt lat="47.56684" lon="6.63584">
        <ele>381.2</ele>
        <time>2025-09-13T12:08:36Z</time>
      </trkpt>
      <trkpt lat="47.56692" lon="6.63585">
        <ele>381.2</ele>
        <time>2025-09-13T12:08:37Z</time>
      </trkpt>
      <trkpt lat="47.56698" lon="6.63588">
        <ele>381.1</ele>
        <time>2025-09-13T12:08:38Z</time>
      </trkpt>
      <trkpt lat="47.56706" lon="6.63592">
        <ele>381.1</ele>
        <time>2025-09-13T12:08:39Z</time>
      </trkpt>
      <trkpt lat="47.56713" lon="6.63595">
        <ele>381</ele>
        <time>2025-09-13T12:08:40Z</time>
      </trkpt>
      <trkpt lat="47.5672" lon="6.63598">
        <ele>381</ele>
        <time>2025-09-13T12:08:41Z</time>
      </trkpt>
      <trkpt lat="47.56727" lon="6.63601">
        <ele>381</ele>
        <time>2025-09-13T12:08:42Z</time>
      </trkpt>
      <trkpt lat="47.56734" lon="6.63604">
        <ele>380.9</ele>
        <time>2025-09-13T12:08:43Z</time>
      </trkpt>
      <trkpt lat="47.56741" lon="6.63606">
        <ele>380.9</ele>
        <time>2025-09-13T12:08:44Z</time>
      </trkpt>
      <trkpt lat="47.56748" lon="6.6361">
        <ele>380.9</ele>
        <time>2025-09-13T12:08:45Z</time>
      </trkpt>
      <trkpt lat="47.56756" lon="6.63612">
        <ele>380.8</ele>
        <time>2025-09-13T12:08:46Z</time>
      </trkpt>
      <trkpt lat="47.56763" lon="6.63615">
        <ele>380.8</ele>
        <time>2025-09-13T12:08:47Z</time>
      </trkpt>
      <trkpt lat="47.5677" lon="6.63617">
        <ele>380.8</ele>
        <time>2025-09-13T12:08:48Z</time>
      </trkpt>
      <trkpt lat="47.56777" lon="6.6362">
        <ele>380.8</ele>
        <time>2025-09-13T12:08:49Z</time>
      </trkpt>
      <trkpt lat="47.56785" lon="6.63623">
        <ele>380.7</ele>
        <time>2025-09-13T12:08:50Z</time>
      </trkpt>
      <trkpt lat="47.56791" lon="6.63625">
        <ele>380.7</ele>
        <time>2025-09-13T12:08:51Z</time>
      </trkpt>
      <trkpt lat="47.56799" lon="6.63627">
        <ele>380.7</ele>
        <time>2025-09-13T12:08:52Z</time>
      </trkpt>
      <trkpt lat="47.56806" lon="6.6363">
        <ele>380.7</ele>
        <time>2025-09-13T12:08:53Z</time>
      </trkpt>
      <trkpt lat="47.56813" lon="6.63633">
        <ele>380.7</ele>
        <time>2025-09-13T12:08:54Z</time>
      </trkpt>
      <trkpt lat="47.5682" lon="6.63637">
        <ele>380.8</ele>
        <time>2025-09-13T12:08:55Z</time>
      </trkpt>
      <trkpt lat="47.56827" lon="6.6364">
        <ele>380.8</ele>
        <time>2025-09-13T12:08:56Z</time>
      </trkpt>
      <trkpt lat="47.56833" lon="6.63644">
        <ele>380.8</ele>
        <time>2025-09-13T12:08:57Z</time>
      </trkpt>
      <trkpt lat="47.56839" lon="6.63648">
        <ele>380.8</ele>
        <time>2025-09-13T12:08:58Z</time>
      </trkpt>
      <trkpt lat="47.56845" lon="6.63653">
        <ele>380.8</ele>
        <time>2025-09-13T12:08:59Z</time>
      </trkpt>
      <trkpt lat="47.56851" lon="6.63658">
        <ele>380.8</ele>
        <time>2025-09-13T12:09:00Z</time>
      </trkpt>
      <trkpt lat="47.56857" lon="6.63665">
        <ele>380.9</ele>
        <time>2025-09-13T12:09:01Z</time>
      </trkpt>
      <trkpt lat="47.56862" lon="6.6367">
        <ele>380.9</ele>
        <time>2025-09-13T12:09:02Z</time>
      </trkpt>
      <trkpt lat="47.56868" lon="6.63677">
        <ele>380.8</ele>
        <time>2025-09-13T12:09:03Z</time>
      </trkpt>
      <trkpt lat="47.56873" lon="6.63683">
        <ele>380.8</ele>
        <time>2025-09-13T12:09:04Z</time>
      </trkpt>
      <trkpt lat="47.56878" lon="6.63689">
        <ele>380.8</ele>
        <time>2025-09-13T12:09:05Z</time>
      </trkpt>
      <trkpt lat="47.56884" lon="6.63695">
        <ele>380.9</ele>
        <time>2025-09-13T12:09:06Z</time>
      </trkpt>
      <trkpt lat="47.56889" lon="6.63701">
        <ele>380.9</ele>
        <time>2025-09-13T12:09:07Z</time>
      </trkpt>
      <trkpt lat="47.56895" lon="6.63707">
        <ele>381</ele>
        <time>2025-09-13T12:09:08Z</time>
      </trkpt>
      <trkpt lat="47.569" lon="6.63713">
        <ele>381</ele>
        <time>2025-09-13T12:09:09Z</time>
      </trkpt>
      <trkpt lat="47.56905" lon="6.63719">
        <ele>381.1</ele>
        <time>2025-09-13T12:09:10Z</time>
      </trkpt>
      <trkpt lat="47.5691" lon="6.63724">
        <ele>381.2</ele>
        <time>2025-09-13T12:09:11Z</time>
      </trkpt>
      <trkpt lat="47.56915" lon="6.6373">
        <ele>381.3</ele>
        <time>2025-09-13T12:09:12Z</time>
      </trkpt>
      <trkpt lat="47.5692" lon="6.63736">
        <ele>381.4</ele>
        <time>2025-09-13T12:09:13Z</time>
      </trkpt>
      <trkpt lat="47.56925" lon="6.63742">
        <ele>381.5</ele>
        <time>2025-09-13T12:09:14Z</time>
      </trkpt>
      <trkpt lat="47.5693" lon="6.63747">
        <ele>381.7</ele>
        <time>2025-09-13T12:09:15Z</time>
      </trkpt>
      <trkpt lat="47.56935" lon="6.63753">
        <ele>381.8</ele>
        <time>2025-09-13T12:09:16Z</time>
      </trkpt>
      <trkpt lat="47.5694" lon="6.63758">
        <ele>382</ele>
        <time>2025-09-13T12:09:17Z</time>
      </trkpt>
      <trkpt lat="47.56945" lon="6.63764">
        <ele>382.1</ele>
        <time>2025-09-13T12:09:18Z</time>
      </trkpt>
      <trkpt lat="47.5695" lon="6.6377">
        <ele>382.2</ele>
        <time>2025-09-13T12:09:19Z</time>
      </trkpt>
      <trkpt lat="47.56955" lon="6.63775">
        <ele>382.3</ele>
        <time>2025-09-13T12:09:20Z</time>
      </trkpt>
      <trkpt lat="47.56959" lon="6.63781">
        <ele>382.5</ele>
        <time>2025-09-13T12:09:21Z</time>
      </trkpt>
      <trkpt lat="47.56964" lon="6.63786">
        <ele>382.6</ele>
        <time>2025-09-13T12:09:22Z</time>
      </trkpt>
      <trkpt lat="47.56969" lon="6.63792">
        <ele>382.8</ele>
        <time>2025-09-13T12:09:23Z</time>
      </trkpt>
      <trkpt lat="47.56974" lon="6.63797">
        <ele>383</ele>
        <time>2025-09-13T12:09:24Z</time>
      </trkpt>
      <trkpt lat="47.56978" lon="6.63803">
        <ele>383.1</ele>
        <time>2025-09-13T12:09:25Z</time>
      </trkpt>
      <trkpt lat="47.56983" lon="6.63807">
        <ele>383.2</ele>
        <time>2025-09-13T12:09:26Z</time>
      </trkpt>
      <trkpt lat="47.56988" lon="6.63814">
        <ele>383.4</ele>
        <time>2025-09-13T12:09:27Z</time>
      </trkpt>
      <trkpt lat="47.56993" lon="6.63819">
        <ele>383.6</ele>
        <time>2025-09-13T12:09:28Z</time>
      </trkpt>
      <trkpt lat="47.56998" lon="6.63824">
        <ele>383.7</ele>
        <time>2025-09-13T12:09:29Z</time>
      </trkpt>
      <trkpt lat="47.57002" lon="6.6383">
        <ele>383.9</ele>
        <time>2025-09-13T12:09:30Z</time>
      </trkpt>
      <trkpt lat="47.57007" lon="6.63836">
        <ele>384</ele>
        <time>2025-09-13T12:09:31Z</time>
      </trkpt>
      <trkpt lat="47.57012" lon="6.63841">
        <ele>384.2</ele>
        <time>2025-09-13T12:09:32Z</time>
      </trkpt>
      <trkpt lat="47.57017" lon="6.63846">
        <ele>384.3</ele>
        <time>2025-09-13T12:09:33Z</time>
      </trkpt>
      <trkpt lat="47.57021" lon="6.63851">
        <ele>384.5</ele>
        <time>2025-09-13T12:09:34Z</time>
      </trkpt>
      <trkpt lat="47.57026" lon="6.63856">
        <ele>384.6</ele>
        <time>2025-09-13T12:09:35Z</time>
      </trkpt>
      <trkpt lat="47.57031" lon="6.63861">
        <ele>384.8</ele>
        <time>2025-09-13T12:09:36Z</time>
      </trkpt>
      <trkpt lat="47.57036" lon="6.63866">
        <ele>385</ele>
        <time>2025-09-13T12:09:37Z</time>
      </trkpt>
      <trkpt lat="47.57041" lon="6.6387">
        <ele>385.1</ele>
        <time>2025-09-13T12:09:38Z</time>
      </trkpt>
      <trkpt lat="47.57046" lon="6.63874">
        <ele>385.2</ele>
        <time>2025-09-13T12:09:39Z</time>
      </trkpt>
      <trkpt lat="47.57052" lon="6.63878">
        <ele>385.4</ele>
        <time>2025-09-13T12:09:40Z</time>
      </trkpt>
      <trkpt lat="47.57058" lon="6.6388">
        <ele>385.5</ele>
        <time>2025-09-13T12:09:41Z</time>
      </trkpt>
      <trkpt lat="47.57064" lon="6.63883">
        <ele>385.6</ele>
        <time>2025-09-13T12:09:42Z</time>
      </trkpt>
      <trkpt lat="47.57069" lon="6.63884">
        <ele>385.7</ele>
        <time>2025-09-13T12:09:43Z</time>
      </trkpt>
      <trkpt lat="47.57075" lon="6.63885">
        <ele>385.9</ele>
        <time>2025-09-13T12:09:44Z</time>
      </trkpt>
      <trkpt lat="47.57081" lon="6.63886">
        <ele>386.1</ele>
        <time>2025-09-13T12:09:45Z</time>
      </trkpt>
      <trkpt lat="47.57088" lon="6.63886">
        <ele>386.2</ele>
        <time>2025-09-13T12:09:46Z</time>
      </trkpt>
      <trkpt lat="47.57093" lon="6.63886">
        <ele>386.4</ele>
        <time>2025-09-13T12:09:47Z</time>
      </trkpt>
      <trkpt lat="47.571" lon="6.63885">
        <ele>386.5</ele>
        <time>2025-09-13T12:09:48Z</time>
      </trkpt>
      <trkpt lat="47.57106" lon="6.63884">
        <ele>386.7</ele>
        <time>2025-09-13T12:09:49Z</time>
      </trkpt>
      <trkpt lat="47.57112" lon="6.63883">
        <ele>386.7</ele>
        <time>2025-09-13T12:09:50Z</time>
      </trkpt>
      <trkpt lat="47.57118" lon="6.63881">
        <ele>386.8</ele>
        <time>2025-09-13T12:09:51Z</time>
      </trkpt>
      <trkpt lat="47.57124" lon="6.63879">
        <ele>386.8</ele>
        <time>2025-09-13T12:09:52Z</time>
      </trkpt>
      <trkpt lat="47.57136" lon="6.63876">
        <ele>386.7</ele>
        <time>2025-09-13T12:09:54Z</time>
      </trkpt>
      <trkpt lat="47.57142" lon="6.63874">
        <ele>386.6</ele>
        <time>2025-09-13T12:09:55Z</time>
      </trkpt>
      <trkpt lat="47.57148" lon="6.63872">
        <ele>386.6</ele>
        <time>2025-09-13T12:09:56Z</time>
      </trkpt>
      <trkpt lat="47.57155" lon="6.6387">
        <ele>386.4</ele>
        <time>2025-09-13T12:09:57Z</time>
      </trkpt>
      <trkpt lat="47.57162" lon="6.63869">
        <ele>386.3</ele>
        <time>2025-09-13T12:09:58Z</time>
      </trkpt>
      <trkpt lat="47.57168" lon="6.63867">
        <ele>386.2</ele>
        <time>2025-09-13T12:09:59Z</time>
      </trkpt>
      <trkpt lat="47.57175" lon="6.63865">
        <ele>386.1</ele>
        <time>2025-09-13T12:10:00Z</time>
      </trkpt>
      <trkpt lat="47.57183" lon="6.63862">
        <ele>385.9</ele>
        <time>2025-09-13T12:10:01Z</time>
      </trkpt>
      <trkpt lat="47.5719" lon="6.63861">
        <ele>385.7</ele>
        <time>2025-09-13T12:10:02Z</time>
      </trkpt>
      <trkpt lat="47.57197" lon="6.63859">
        <ele>385.6</ele>
        <time>2025-09-13T12:10:03Z</time>
      </trkpt>
      <trkpt lat="47.57205" lon="6.63857">
        <ele>385.4</ele>
        <time>2025-09-13T12:10:04Z</time>
      </trkpt>
      <trkpt lat="47.57212" lon="6.63853">
        <ele>385.2</ele>
        <time>2025-09-13T12:10:05Z</time>
      </trkpt>
      <trkpt lat="47.57219" lon="6.63851">
        <ele>385</ele>
        <time>2025-09-13T12:10:06Z</time>
      </trkpt>
      <trkpt lat="47.57226" lon="6.6385">
        <ele>384.8</ele>
        <time>2025-09-13T12:10:07Z</time>
      </trkpt>
      <trkpt lat="47.57233" lon="6.63848">
        <ele>384.6</ele>
        <time>2025-09-13T12:10:08Z</time>
      </trkpt>
      <trkpt lat="47.57241" lon="6.63846">
        <ele>384.4</ele>
        <time>2025-09-13T12:10:09Z</time>
      </trkpt>
      <trkpt lat="47.57249" lon="6.63844">
        <ele>384.2</ele>
        <time>2025-09-13T12:10:10Z</time>
      </trkpt>
      <trkpt lat="47.57256" lon="6.63842">
        <ele>384.1</ele>
        <time>2025-09-13T12:10:11Z</time>
      </trkpt>
      <trkpt lat="47.57263" lon="6.63839">
        <ele>384</ele>
        <time>2025-09-13T12:10:12Z</time>
      </trkpt>
      <trkpt lat="47.57271" lon="6.63837">
        <ele>383.9</ele>
        <time>2025-09-13T12:10:13Z</time>
      </trkpt>
      <trkpt lat="47.57278" lon="6.63835">
        <ele>383.8</ele>
        <time>2025-09-13T12:10:14Z</time>
      </trkpt>
      <trkpt lat="47.57285" lon="6.63834">
        <ele>383.7</ele>
        <time>2025-09-13T12:10:15Z</time>
      </trkpt>
      <trkpt lat="47.57292" lon="6.63831">
        <ele>383.5</ele>
        <time>2025-09-13T12:10:16Z</time>
      </trkpt>
      <trkpt lat="47.57299" lon="6.6383">
        <ele>383.4</ele>
        <time>2025-09-13T12:10:17Z</time>
      </trkpt>
      <trkpt lat="47.57306" lon="6.63828">
        <ele>383.3</ele>
        <time>2025-09-13T12:10:18Z</time>
      </trkpt>
      <trkpt lat="47.57314" lon="6.63826">
        <ele>383.2</ele>
        <time>2025-09-13T12:10:19Z</time>
      </trkpt>
      <trkpt lat="47.57321" lon="6.63824">
        <ele>383.1</ele>
        <time>2025-09-13T12:10:20Z</time>
      </trkpt>
      <trkpt lat="47.57328" lon="6.63822">
        <ele>383</ele>
        <time>2025-09-13T12:10:21Z</time>
      </trkpt>
      <trkpt lat="47.57335" lon="6.63821">
        <ele>383</ele>
        <time>2025-09-13T12:10:22Z</time>
      </trkpt>
      <trkpt lat="47.57343" lon="6.63818">
        <ele>382.9</ele>
        <time>2025-09-13T12:10:23Z</time>
      </trkpt>
      <trkpt lat="47.5735" lon="6.63816">
        <ele>382.9</ele>
        <time>2025-09-13T12:10:24Z</time>
      </trkpt>
      <trkpt lat="47.57357" lon="6.63814">
        <ele>382.9</ele>
        <time>2025-09-13T12:10:25Z</time>
      </trkpt>
      <trkpt lat="47.57365" lon="6.63811">
        <ele>383</ele>
        <time>2025-09-13T12:10:26Z</time>
      </trkpt>
      <trkpt lat="47.57372" lon="6.63809">
        <ele>383</ele>
        <time>2025-09-13T12:10:27Z</time>
      </trkpt>
      <trkpt lat="47.57379" lon="6.63807">
        <ele>383.1</ele>
        <time>2025-09-13T12:10:28Z</time>
      </trkpt>
      <trkpt lat="47.57385" lon="6.63805">
        <ele>383.1</ele>
        <time>2025-09-13T12:10:29Z</time>
      </trkpt>
      <trkpt lat="47.57392" lon="6.63804">
        <ele>383.2</ele>
        <time>2025-09-13T12:10:30Z</time>
      </trkpt>
      <trkpt lat="47.57399" lon="6.63801">
        <ele>383.3</ele>
        <time>2025-09-13T12:10:31Z</time>
      </trkpt>
      <trkpt lat="47.57405" lon="6.638">
        <ele>383.4</ele>
        <time>2025-09-13T12:10:32Z</time>
      </trkpt>
      <trkpt lat="47.57412" lon="6.63798">
        <ele>383.5</ele>
        <time>2025-09-13T12:10:33Z</time>
      </trkpt>
      <trkpt lat="47.57418" lon="6.63795">
        <ele>383.6</ele>
        <time>2025-09-13T12:10:34Z</time>
      </trkpt>
      <trkpt lat="47.57425" lon="6.63794">
        <ele>383.7</ele>
        <time>2025-09-13T12:10:35Z</time>
      </trkpt>
      <trkpt lat="47.57431" lon="6.63792">
        <ele>383.8</ele>
        <time>2025-09-13T12:10:36Z</time>
      </trkpt>
      <trkpt lat="47.57438" lon="6.63789">
        <ele>384</ele>
        <time>2025-09-13T12:10:37Z</time>
      </trkpt>
      <trkpt lat="47.57444" lon="6.63788">
        <ele>384.1</ele>
        <time>2025-09-13T12:10:38Z</time>
      </trkpt>
      <trkpt lat="47.5745" lon="6.63786">
        <ele>384.2</ele>
        <time>2025-09-13T12:10:39Z</time>
      </trkpt>
      <trkpt lat="47.57456" lon="6.63785">
        <ele>384.3</ele>
        <time>2025-09-13T12:10:40Z</time>
      </trkpt>
      <trkpt lat="47.57462" lon="6.63784">
        <ele>384.4</ele>
        <time>2025-09-13T12:10:41Z</time>
      </trkpt>
      <trkpt lat="47.57469" lon="6.63782">
        <ele>384.5</ele>
        <time>2025-09-13T12:10:42Z</time>
      </trkpt>
      <trkpt lat="47.57475" lon="6.6378">
        <ele>384.6</ele>
        <time>2025-09-13T12:10:43Z</time>
      </trkpt>
      <trkpt lat="47.57481" lon="6.63779">
        <ele>384.7</ele>
        <time>2025-09-13T12:10:44Z</time>
      </trkpt>
      <trkpt lat="47.57487" lon="6.63777">
        <ele>384.8</ele>
        <time>2025-09-13T12:10:45Z</time>
      </trkpt>
      <trkpt lat="47.57494" lon="6.63775">
        <ele>384.9</ele>
        <time>2025-09-13T12:10:46Z</time>
      </trkpt>
      <trkpt lat="47.575" lon="6.63773">
        <ele>385.1</ele>
        <time>2025-09-13T12:10:47Z</time>
      </trkpt>
      <trkpt lat="47.57506" lon="6.63771">
        <ele>385.2</ele>
        <time>2025-09-13T12:10:48Z</time>
      </trkpt>
      <trkpt lat="47.57513" lon="6.63769">
        <ele>385.4</ele>
        <time>2025-09-13T12:10:49Z</time>
      </trkpt>
      <trkpt lat="47.57519" lon="6.63768">
        <ele>385.5</ele>
        <time>2025-09-13T12:10:50Z</time>
      </trkpt>
      <trkpt lat="47.57525" lon="6.63766">
        <ele>385.7</ele>
        <time>2025-09-13T12:10:51Z</time>
      </trkpt>
      <trkpt lat="47.57531" lon="6.63764">
        <ele>385.9</ele>
        <time>2025-09-13T12:10:52Z</time>
      </trkpt>
      <trkpt lat="47.57537" lon="6.63763">
        <ele>386</ele>
        <time>2025-09-13T12:10:53Z</time>
      </trkpt>
      <trkpt lat="47.57543" lon="6.63761">
        <ele>386.2</ele>
        <time>2025-09-13T12:10:54Z</time>
      </trkpt>
      <trkpt lat="47.57549" lon="6.6376">
        <ele>386.4</ele>
        <time>2025-09-13T12:10:55Z</time>
      </trkpt>
      <trkpt lat="47.57555" lon="6.63759">
        <ele>386.5</ele>
        <time>2025-09-13T12:10:56Z</time>
      </trkpt>
      <trkpt lat="47.57561" lon="6.63756">
        <ele>386.7</ele>
        <time>2025-09-13T12:10:57Z</time>
      </trkpt>
      <trkpt lat="47.57567" lon="6.63754">
        <ele>386.9</ele>
        <time>2025-09-13T12:10:58Z</time>
      </trkpt>
      <trkpt lat="47.57572" lon="6.63753">
        <ele>387</ele>
        <time>2025-09-13T12:10:59Z</time>
      </trkpt>
      <trkpt lat="47.57578" lon="6.63752">
        <ele>387.2</ele>
        <time>2025-09-13T12:11:00Z</time>
      </trkpt>
      <trkpt lat="47.57584" lon="6.6375">
        <ele>387.4</ele>
        <time>2025-09-13T12:11:01Z</time>
      </trkpt>
      <trkpt lat="47.57589" lon="6.63748">
        <ele>387.6</ele>
        <time>2025-09-13T12:11:02Z</time>
      </trkpt>
      <trkpt lat="47.57595" lon="6.63747">
        <ele>387.8</ele>
        <time>2025-09-13T12:11:03Z</time>
      </trkpt>
      <trkpt lat="47.576" lon="6.63745">
        <ele>387.9</ele>
        <time>2025-09-13T12:11:04Z</time>
      </trkpt>
      <trkpt lat="47.57605" lon="6.63744">
        <ele>388.1</ele>
        <time>2025-09-13T12:11:05Z</time>
      </trkpt>
      <trkpt lat="47.57611" lon="6.63743">
        <ele>388.2</ele>
        <time>2025-09-13T12:11:06Z</time>
      </trkpt>
      <trkpt lat="47.57616" lon="6.63742">
        <ele>388.3</ele>
        <time>2025-09-13T12:11:07Z</time>
      </trkpt>
      <trkpt lat="47.57622" lon="6.6374">
        <ele>388.5</ele>
        <time>2025-09-13T12:11:08Z</time>
      </trkpt>
      <trkpt lat="47.57628" lon="6.63738">
        <ele>388.6</ele>
        <time>2025-09-13T12:11:09Z</time>
      </trkpt>
      <trkpt lat="47.57633" lon="6.63736">
        <ele>388.8</ele>
        <time>2025-09-13T12:11:10Z</time>
      </trkpt>
      <trkpt lat="47.57639" lon="6.63735">
        <ele>388.9</ele>
        <time>2025-09-13T12:11:11Z</time>
      </trkpt>
      <trkpt lat="47.57644" lon="6.63733">
        <ele>389</ele>
        <time>2025-09-13T12:11:12Z</time>
      </trkpt>
      <trkpt lat="47.5765" lon="6.63731">
        <ele>389.1</ele>
        <time>2025-09-13T12:11:13Z</time>
      </trkpt>
      <trkpt lat="47.57655" lon="6.63729">
        <ele>389.2</ele>
        <time>2025-09-13T12:11:14Z</time>
      </trkpt>
      <trkpt lat="47.57661" lon="6.63728">
        <ele>389.3</ele>
        <time>2025-09-13T12:11:15Z</time>
      </trkpt>
      <trkpt lat="47.57667" lon="6.63727">
        <ele>389.5</ele>
        <time>2025-09-13T12:11:16Z</time>
      </trkpt>
      <trkpt lat="47.57673" lon="6.63725">
        <ele>389.6</ele>
        <time>2025-09-13T12:11:17Z</time>
      </trkpt>
      <trkpt lat="47.57678" lon="6.63723">
        <ele>389.8</ele>
        <time>2025-09-13T12:11:18Z</time>
      </trkpt>
      <trkpt lat="47.57683" lon="6.63721">
        <ele>389.9</ele>
        <time>2025-09-13T12:11:19Z</time>
      </trkpt>
      <trkpt lat="47.57689" lon="6.63719">
        <ele>390.1</ele>
        <time>2025-09-13T12:11:20Z</time>
      </trkpt>
      <trkpt lat="47.57694" lon="6.63719">
        <ele>390.2</ele>
        <time>2025-09-13T12:11:21Z</time>
      </trkpt>
      <trkpt lat="47.577" lon="6.63718">
        <ele>390.4</ele>
        <time>2025-09-13T12:11:22Z</time>
      </trkpt>
      <trkpt lat="47.57705" lon="6.63715">
        <ele>390.5</ele>
        <time>2025-09-13T12:11:23Z</time>
      </trkpt>
      <trkpt lat="47.57711" lon="6.63714">
        <ele>390.7</ele>
        <time>2025-09-13T12:11:24Z</time>
      </trkpt>
      <trkpt lat="47.57716" lon="6.63713">
        <ele>390.9</ele>
        <time>2025-09-13T12:11:25Z</time>
      </trkpt>
      <trkpt lat="47.57721" lon="6.63711">
        <ele>391</ele>
        <time>2025-09-13T12:11:26Z</time>
      </trkpt>
      <trkpt lat="47.57727" lon="6.63709">
        <ele>391.2</ele>
        <time>2025-09-13T12:11:27Z</time>
      </trkpt>
      <trkpt lat="47.57732" lon="6.63708">
        <ele>391.4</ele>
        <time>2025-09-13T12:11:28Z</time>
      </trkpt>
      <trkpt lat="47.57737" lon="6.63706">
        <ele>391.5</ele>
        <time>2025-09-13T12:11:29Z</time>
      </trkpt>
      <trkpt lat="47.57744" lon="6.63704">
        <ele>391.8</ele>
        <time>2025-09-13T12:11:30Z</time>
      </trkpt>
      <trkpt lat="47.57749" lon="6.63703">
        <ele>391.9</ele>
        <time>2025-09-13T12:11:31Z</time>
      </trkpt>
      <trkpt lat="47.57754" lon="6.63701">
        <ele>392.1</ele>
        <time>2025-09-13T12:11:32Z</time>
      </trkpt>
      <trkpt lat="47.57759" lon="6.637">
        <ele>392.2</ele>
        <time>2025-09-13T12:11:33Z</time>
      </trkpt>
      <trkpt lat="47.57764" lon="6.63699">
        <ele>392.3</ele>
        <time>2025-09-13T12:11:34Z</time>
      </trkpt>
      <trkpt lat="47.57769" lon="6.63698">
        <ele>392.4</ele>
        <time>2025-09-13T12:11:35Z</time>
      </trkpt>
      <trkpt lat="47.57774" lon="6.63697">
        <ele>392.6</ele>
        <time>2025-09-13T12:11:36Z</time>
      </trkpt>
      <trkpt lat="47.5778" lon="6.63695">
        <ele>392.7</ele>
        <time>2025-09-13T12:11:37Z</time>
      </trkpt>
      <trkpt lat="47.57785" lon="6.63693">
        <ele>392.8</ele>
        <time>2025-09-13T12:11:38Z</time>
      </trkpt>
      <trkpt lat="47.5779" lon="6.63692">
        <ele>392.9</ele>
        <time>2025-09-13T12:11:39Z</time>
      </trkpt>
      <trkpt lat="47.57796" lon="6.63691">
        <ele>393.1</ele>
        <time>2025-09-13T12:11:40Z</time>
      </trkpt>
      <trkpt lat="47.57801" lon="6.6369">
        <ele>393.2</ele>
        <time>2025-09-13T12:11:41Z</time>
      </trkpt>
      <trkpt lat="47.57806" lon="6.63689">
        <ele>393.4</ele>
        <time>2025-09-13T12:11:42Z</time>
      </trkpt>
      <trkpt lat="47.57811" lon="6.63686">
        <ele>393.5</ele>
        <time>2025-09-13T12:11:43Z</time>
      </trkpt>
      <trkpt lat="47.57817" lon="6.63684">
        <ele>393.7</ele>
        <time>2025-09-13T12:11:44Z</time>
      </trkpt>
      <trkpt lat="47.57822" lon="6.63683">
        <ele>393.8</ele>
        <time>2025-09-13T12:11:45Z</time>
      </trkpt>
      <trkpt lat="47.57827" lon="6.63681">
        <ele>394</ele>
        <time>2025-09-13T12:11:46Z</time>
      </trkpt>
      <trkpt lat="47.57832" lon="6.6368">
        <ele>394.1</ele>
        <time>2025-09-13T12:11:47Z</time>
      </trkpt>
      <trkpt lat="47.57837" lon="6.63679">
        <ele>394.3</ele>
        <time>2025-09-13T12:11:48Z</time>
      </trkpt>
      <trkpt lat="47.57843" lon="6.63677">
        <ele>394.5</ele>
        <time>2025-09-13T12:11:49Z</time>
      </trkpt>
      <trkpt lat="47.57848" lon="6.63676">
        <ele>394.6</ele>
        <time>2025-09-13T12:11:50Z</time>
      </trkpt>
      <trkpt lat="47.57853" lon="6.63674">
        <ele>394.7</ele>
        <time>2025-09-13T12:11:51Z</time>
      </trkpt>
      <trkpt lat="47.57858" lon="6.63672">
        <ele>394.8</ele>
        <time>2025-09-13T12:11:52Z</time>
      </trkpt>
      <trkpt lat="47.57863" lon="6.63671">
        <ele>395</ele>
        <time>2025-09-13T12:11:53Z</time>
      </trkpt>
      <trkpt lat="47.57868" lon="6.63669">
        <ele>395.1</ele>
        <time>2025-09-13T12:11:54Z</time>
      </trkpt>
      <trkpt lat="47.57873" lon="6.63666">
        <ele>395.2</ele>
        <time>2025-09-13T12:11:55Z</time>
      </trkpt>
      <trkpt lat="47.57879" lon="6.63664">
        <ele>395.4</ele>
        <time>2025-09-13T12:11:56Z</time>
      </trkpt>
      <trkpt lat="47.57885" lon="6.63661">
        <ele>395.6</ele>
        <time>2025-09-13T12:11:57Z</time>
      </trkpt>
      <trkpt lat="47.57894" lon="6.63656">
        <ele>395.9</ele>
        <time>2025-09-13T12:11:59Z</time>
      </trkpt>
      <trkpt lat="47.579" lon="6.63652">
        <ele>396.1</ele>
        <time>2025-09-13T12:12:00Z</time>
      </trkpt>
      <trkpt lat="47.57905" lon="6.6365">
        <ele>396.2</ele>
        <time>2025-09-13T12:12:01Z</time>
      </trkpt>
      <trkpt lat="47.57909" lon="6.63648">
        <ele>396.4</ele>
        <time>2025-09-13T12:12:02Z</time>
      </trkpt>
      <trkpt lat="47.57914" lon="6.63646">
        <ele>396.6</ele>
        <time>2025-09-13T12:12:03Z</time>
      </trkpt>
      <trkpt lat="47.57919" lon="6.63645">
        <ele>396.8</ele>
        <time>2025-09-13T12:12:04Z</time>
      </trkpt>
      <trkpt lat="47.57924" lon="6.63643">
        <ele>396.9</ele>
        <time>2025-09-13T12:12:05Z</time>
      </trkpt>
      <trkpt lat="47.57929" lon="6.6364">
        <ele>397.2</ele>
        <time>2025-09-13T12:12:06Z</time>
      </trkpt>
      <trkpt lat="47.57934" lon="6.63638">
        <ele>397.4</ele>
        <time>2025-09-13T12:12:07Z</time>
      </trkpt>
      <trkpt lat="47.57939" lon="6.63634">
        <ele>397.6</ele>
        <time>2025-09-13T12:12:08Z</time>
      </trkpt>
      <trkpt lat="47.57943" lon="6.63632">
        <ele>397.8</ele>
        <time>2025-09-13T12:12:09Z</time>
      </trkpt>
      <trkpt lat="47.57946" lon="6.6363">
        <ele>398</ele>
        <time>2025-09-13T12:12:10Z</time>
      </trkpt>
      <trkpt lat="47.5795" lon="6.63628">
        <ele>398.1</ele>
        <time>2025-09-13T12:12:11Z</time>
      </trkpt>
      <trkpt lat="47.57955" lon="6.63624">
        <ele>398.4</ele>
        <time>2025-09-13T12:12:12Z</time>
      </trkpt>
      <trkpt lat="47.57958" lon="6.63621">
        <ele>398.6</ele>
        <time>2025-09-13T12:12:13Z</time>
      </trkpt>
      <trkpt lat="47.57962" lon="6.63618">
        <ele>398.8</ele>
        <time>2025-09-13T12:12:14Z</time>
      </trkpt>
      <trkpt lat="47.57966" lon="6.63614">
        <ele>398.9</ele>
        <time>2025-09-13T12:12:15Z</time>
      </trkpt>
      <trkpt lat="47.5797" lon="6.6361">
        <ele>399.1</ele>
        <time>2025-09-13T12:12:16Z</time>
      </trkpt>
      <trkpt lat="47.57974" lon="6.63606">
        <ele>399.4</ele>
        <time>2025-09-13T12:12:17Z</time>
      </trkpt>
      <trkpt lat="47.57977" lon="6.63602">
        <ele>399.6</ele>
        <time>2025-09-13T12:12:18Z</time>
      </trkpt>
      <trkpt lat="47.57982" lon="6.63597">
        <ele>399.8</ele>
        <time>2025-09-13T12:12:19Z</time>
      </trkpt>
      <trkpt lat="47.57986" lon="6.63593">
        <ele>400</ele>
        <time>2025-09-13T12:12:20Z</time>
      </trkpt>
      <trkpt lat="47.57989" lon="6.63588">
        <ele>400.2</ele>
        <time>2025-09-13T12:12:21Z</time>
      </trkpt>
      <trkpt lat="47.57993" lon="6.63583">
        <ele>400.4</ele>
        <time>2025-09-13T12:12:22Z</time>
      </trkpt>
      <trkpt lat="47.57997" lon="6.63578">
        <ele>400.6</ele>
        <time>2025-09-13T12:12:23Z</time>
      </trkpt>
      <trkpt lat="47.58" lon="6.63574">
        <ele>400.8</ele>
        <time>2025-09-13T12:12:24Z</time>
      </trkpt>
      <trkpt lat="47.58004" lon="6.6357">
        <ele>401</ele>
        <time>2025-09-13T12:12:25Z</time>
      </trkpt>
      <trkpt lat="47.58007" lon="6.63565">
        <ele>401.1</ele>
        <time>2025-09-13T12:12:26Z</time>
      </trkpt>
      <trkpt lat="47.58012" lon="6.63561">
        <ele>401.4</ele>
        <time>2025-09-13T12:12:27Z</time>
      </trkpt>
      <trkpt lat="47.58016" lon="6.63555">
        <ele>401.6</ele>
        <time>2025-09-13T12:12:28Z</time>
      </trkpt>
      <trkpt lat="47.58019" lon="6.63552">
        <ele>401.7</ele>
        <time>2025-09-13T12:12:29Z</time>
      </trkpt>
      <trkpt lat="47.58023" lon="6.63547">
        <ele>401.9</ele>
        <time>2025-09-13T12:12:30Z</time>
      </trkpt>
      <trkpt lat="47.58027" lon="6.63544">
        <ele>402.1</ele>
        <time>2025-09-13T12:12:31Z</time>
      </trkpt>
      <trkpt lat="47.5803" lon="6.63539">
        <ele>402.3</ele>
        <time>2025-09-13T12:12:32Z</time>
      </trkpt>
      <trkpt lat="47.58036" lon="6.63533">
        <ele>402.6</ele>
        <time>2025-09-13T12:12:33Z</time>
      </trkpt>
      <trkpt lat="47.58039" lon="6.63529">
        <ele>402.7</ele>
        <time>2025-09-13T12:12:34Z</time>
      </trkpt>
      <trkpt lat="47.58042" lon="6.63525">
        <ele>402.9</ele>
        <time>2025-09-13T12:12:35Z</time>
      </trkpt>
      <trkpt lat="47.58046" lon="6.6352">
        <ele>403.1</ele>
        <time>2025-09-13T12:12:36Z</time>
      </trkpt>
      <trkpt lat="47.58049" lon="6.63516">
        <ele>403.3</ele>
        <time>2025-09-13T12:12:37Z</time>
      </trkpt>
      <trkpt lat="47.58052" lon="6.63511">
        <ele>403.5</ele>
        <time>2025-09-13T12:12:38Z</time>
      </trkpt>
      <trkpt lat="47.58057" lon="6.63506">
        <ele>403.7</ele>
        <time>2025-09-13T12:12:39Z</time>
      </trkpt>
      <trkpt lat="47.5806" lon="6.63501">
        <ele>403.9</ele>
        <time>2025-09-13T12:12:40Z</time>
      </trkpt>
      <trkpt lat="47.58063" lon="6.63497">
        <ele>404.1</ele>
        <time>2025-09-13T12:12:41Z</time>
      </trkpt>
      <trkpt lat="47.58065" lon="6.63492">
        <ele>404.2</ele>
        <time>2025-09-13T12:12:42Z</time>
      </trkpt>
      <trkpt lat="47.58068" lon="6.63487">
        <ele>404.4</ele>
        <time>2025-09-13T12:12:43Z</time>
      </trkpt>
      <trkpt lat="47.58072" lon="6.63482">
        <ele>404.6</ele>
        <time>2025-09-13T12:12:44Z</time>
      </trkpt>
      <trkpt lat="47.58074" lon="6.63477">
        <ele>404.7</ele>
        <time>2025-09-13T12:12:45Z</time>
      </trkpt>
      <trkpt lat="47.58076" lon="6.63472">
        <ele>404.9</ele>
        <time>2025-09-13T12:12:46Z</time>
      </trkpt>
      <trkpt lat="47.5808" lon="6.63466">
        <ele>405</ele>
        <time>2025-09-13T12:12:47Z</time>
      </trkpt>
      <trkpt lat="47.58083" lon="6.63461">
        <ele>405.2</ele>
        <time>2025-09-13T12:12:48Z</time>
      </trkpt>
      <trkpt lat="47.58086" lon="6.63455">
        <ele>405.4</ele>
        <time>2025-09-13T12:12:49Z</time>
      </trkpt>
      <trkpt lat="47.58088" lon="6.63452">
        <ele>405.5</ele>
        <time>2025-09-13T12:12:50Z</time>
      </trkpt>
      <trkpt lat="47.58091" lon="6.63447">
        <ele>405.6</ele>
        <time>2025-09-13T12:12:51Z</time>
      </trkpt>
      <trkpt lat="47.58093" lon="6.63442">
        <ele>405.7</ele>
        <time>2025-09-13T12:12:52Z</time>
      </trkpt>
      <trkpt lat="47.58097" lon="6.63434">
        <ele>405.9</ele>
        <time>2025-09-13T12:12:53Z</time>
      </trkpt>
      <trkpt lat="47.581" lon="6.63429">
        <ele>406.1</ele>
        <time>2025-09-13T12:12:54Z</time>
      </trkpt>
      <trkpt lat="47.58104" lon="6.63423">
        <ele>406.2</ele>
        <time>2025-09-13T12:12:55Z</time>
      </trkpt>
      <trkpt lat="47.58107" lon="6.63419">
        <ele>406.4</ele>
        <time>2025-09-13T12:12:56Z</time>
      </trkpt>
      <trkpt lat="47.58109" lon="6.63415">
        <ele>406.5</ele>
        <time>2025-09-13T12:12:57Z</time>
      </trkpt>
      <trkpt lat="47.58113" lon="6.63409">
        <ele>406.7</ele>
        <time>2025-09-13T12:12:58Z</time>
      </trkpt>
      <trkpt lat="47.58115" lon="6.63403">
        <ele>406.9</ele>
        <time>2025-09-13T12:12:59Z</time>
      </trkpt>
      <trkpt lat="47.58118" lon="6.63396">
        <ele>407.1</ele>
        <time>2025-09-13T12:13:00Z</time>
      </trkpt>
      <trkpt lat="47.58121" lon="6.6339">
        <ele>407.2</ele>
        <time>2025-09-13T12:13:01Z</time>
      </trkpt>
      <trkpt lat="47.58124" lon="6.63384">
        <ele>407.4</ele>
        <time>2025-09-13T12:13:02Z</time>
      </trkpt>
      <trkpt lat="47.58126" lon="6.63379">
        <ele>407.6</ele>
        <time>2025-09-13T12:13:03Z</time>
      </trkpt>
      <trkpt lat="47.58129" lon="6.63375">
        <ele>407.8</ele>
        <time>2025-09-13T12:13:04Z</time>
      </trkpt>
      <trkpt lat="47.58132" lon="6.63369">
        <ele>408</ele>
        <time>2025-09-13T12:13:05Z</time>
      </trkpt>
      <trkpt lat="47.58135" lon="6.63363">
        <ele>408.1</ele>
        <time>2025-09-13T12:13:06Z</time>
      </trkpt>
      <trkpt lat="47.58138" lon="6.63357">
        <ele>408.3</ele>
        <time>2025-09-13T12:13:07Z</time>
      </trkpt>
      <trkpt lat="47.58141" lon="6.63351">
        <ele>408.5</ele>
        <time>2025-09-13T12:13:08Z</time>
      </trkpt>
      <trkpt lat="47.58144" lon="6.63346">
        <ele>408.7</ele>
        <time>2025-09-13T12:13:09Z</time>
      </trkpt>
      <trkpt lat="47.58148" lon="6.6334">
        <ele>408.9</ele>
        <time>2025-09-13T12:13:10Z</time>
      </trkpt>
      <trkpt lat="47.5815" lon="6.63335">
        <ele>409.1</ele>
        <time>2025-09-13T12:13:11Z</time>
      </trkpt>
      <trkpt lat="47.58154" lon="6.63329">
        <ele>409.3</ele>
        <time>2025-09-13T12:13:12Z</time>
      </trkpt>
      <trkpt lat="47.58156" lon="6.63324">
        <ele>409.5</ele>
        <time>2025-09-13T12:13:13Z</time>
      </trkpt>
      <trkpt lat="47.58159" lon="6.63318">
        <ele>409.7</ele>
        <time>2025-09-13T12:13:14Z</time>
      </trkpt>
      <trkpt lat="47.58162" lon="6.63312">
        <ele>409.9</ele>
        <time>2025-09-13T12:13:15Z</time>
      </trkpt>
      <trkpt lat="47.58165" lon="6.63307">
        <ele>410</ele>
        <time>2025-09-13T12:13:16Z</time>
      </trkpt>
      <trkpt lat="47.58168" lon="6.63302">
        <ele>410.2</ele>
        <time>2025-09-13T12:13:17Z</time>
      </trkpt>
      <trkpt lat="47.5817" lon="6.63296">
        <ele>410.4</ele>
        <time>2025-09-13T12:13:18Z</time>
      </trkpt>
      <trkpt lat="47.58173" lon="6.63292">
        <ele>410.6</ele>
        <time>2025-09-13T12:13:19Z</time>
      </trkpt>
      <trkpt lat="47.58176" lon="6.63285">
        <ele>410.8</ele>
        <time>2025-09-13T12:13:20Z</time>
      </trkpt>
      <trkpt lat="47.58178" lon="6.63279">
        <ele>411</ele>
        <time>2025-09-13T12:13:21Z</time>
      </trkpt>
      <trkpt lat="47.58181" lon="6.63275">
        <ele>411.2</ele>
        <time>2025-09-13T12:13:22Z</time>
      </trkpt>
      <trkpt lat="47.58184" lon="6.6327">
        <ele>411.4</ele>
        <time>2025-09-13T12:13:23Z</time>
      </trkpt>
      <trkpt lat="47.58186" lon="6.63265">
        <ele>411.6</ele>
        <time>2025-09-13T12:13:24Z</time>
      </trkpt>
      <trkpt lat="47.58189" lon="6.63259">
        <ele>411.8</ele>
        <time>2025-09-13T12:13:25Z</time>
      </trkpt>
      <trkpt lat="47.58192" lon="6.63254">
        <ele>412</ele>
        <time>2025-09-13T12:13:26Z</time>
      </trkpt>
      <trkpt lat="47.58195" lon="6.63248">
        <ele>412.3</ele>
        <time>2025-09-13T12:13:27Z</time>
      </trkpt>
      <trkpt lat="47.58197" lon="6.63242">
        <ele>412.5</ele>
        <time>2025-09-13T12:13:28Z</time>
      </trkpt>
      <trkpt lat="47.58199" lon="6.63236">
        <ele>412.7</ele>
        <time>2025-09-13T12:13:29Z</time>
      </trkpt>
      <trkpt lat="47.58201" lon="6.6323">
        <ele>412.9</ele>
        <time>2025-09-13T12:13:30Z</time>
      </trkpt>
      <trkpt lat="47.58202" lon="6.63222">
        <ele>413.2</ele>
        <time>2025-09-13T12:13:31Z</time>
      </trkpt>
      <trkpt lat="47.58203" lon="6.63215">
        <ele>413.4</ele>
        <time>2025-09-13T12:13:32Z</time>
      </trkpt>
      <trkpt lat="47.58205" lon="6.63208">
        <ele>413.6</ele>
        <time>2025-09-13T12:13:33Z</time>
      </trkpt>
      <trkpt lat="47.58206" lon="6.63201">
        <ele>413.8</ele>
        <time>2025-09-13T12:13:34Z</time>
      </trkpt>
      <trkpt lat="47.58206" lon="6.63195">
        <ele>414</ele>
        <time>2025-09-13T12:13:35Z</time>
      </trkpt>
      <trkpt lat="47.58205" lon="6.63189">
        <ele>414.2</ele>
        <time>2025-09-13T12:13:36Z</time>
      </trkpt>
      <trkpt lat="47.58204" lon="6.63181">
        <ele>414.4</ele>
        <time>2025-09-13T12:13:37Z</time>
      </trkpt>
      <trkpt lat="47.58203" lon="6.63176">
        <ele>414.6</ele>
        <time>2025-09-13T12:13:38Z</time>
      </trkpt>
      <trkpt lat="47.582" lon="6.6317">
        <ele>414.8</ele>
        <time>2025-09-13T12:13:39Z</time>
      </trkpt>
      <trkpt lat="47.58199" lon="6.63163">
        <ele>415</ele>
        <time>2025-09-13T12:13:40Z</time>
      </trkpt>
      <trkpt lat="47.58197" lon="6.63157">
        <ele>415.2</ele>
        <time>2025-09-13T12:13:41Z</time>
      </trkpt>
      <trkpt lat="47.58194" lon="6.63151">
        <ele>415.4</ele>
        <time>2025-09-13T12:13:42Z</time>
      </trkpt>
      <trkpt lat="47.58193" lon="6.63145">
        <ele>415.6</ele>
        <time>2025-09-13T12:13:43Z</time>
      </trkpt>
      <trkpt lat="47.58191" lon="6.63138">
        <ele>415.8</ele>
        <time>2025-09-13T12:13:44Z</time>
      </trkpt>
      <trkpt lat="47.5819" lon="6.63131">
        <ele>416</ele>
        <time>2025-09-13T12:13:45Z</time>
      </trkpt>
      <trkpt lat="47.5819" lon="6.63124">
        <ele>416.3</ele>
        <time>2025-09-13T12:13:46Z</time>
      </trkpt>
      <trkpt lat="47.58189" lon="6.63117">
        <ele>416.5</ele>
        <time>2025-09-13T12:13:47Z</time>
      </trkpt>
      <trkpt lat="47.58188" lon="6.63111">
        <ele>416.7</ele>
        <time>2025-09-13T12:13:48Z</time>
      </trkpt>
      <trkpt lat="47.58189" lon="6.63104">
        <ele>417</ele>
        <time>2025-09-13T12:13:49Z</time>
      </trkpt>
      <trkpt lat="47.5819" lon="6.63097">
        <ele>417.3</ele>
        <time>2025-09-13T12:13:50Z</time>
      </trkpt>
      <trkpt lat="47.58192" lon="6.63089">
        <ele>417.6</ele>
        <time>2025-09-13T12:13:51Z</time>
      </trkpt>
      <trkpt lat="47.58196" lon="6.63083">
        <ele>417.9</ele>
        <time>2025-09-13T12:13:52Z</time>
      </trkpt>
      <trkpt lat="47.58199" lon="6.63078">
        <ele>418.2</ele>
        <time>2025-09-13T12:13:53Z</time>
      </trkpt>
      <trkpt lat="47.58203" lon="6.63075">
        <ele>418.5</ele>
        <time>2025-09-13T12:13:54Z</time>
      </trkpt>
      <trkpt lat="47.58206" lon="6.63072">
        <ele>418.7</ele>
        <time>2025-09-13T12:13:55Z</time>
      </trkpt>
      <trkpt lat="47.58211" lon="6.63071">
        <ele>419</ele>
        <time>2025-09-13T12:13:56Z</time>
      </trkpt>
      <trkpt lat="47.58217" lon="6.6307">
        <ele>419.4</ele>
        <time>2025-09-13T12:13:57Z</time>
      </trkpt>
      <trkpt lat="47.5822" lon="6.63071">
        <ele>419.7</ele>
        <time>2025-09-13T12:13:58Z</time>
      </trkpt>
      <trkpt lat="47.58225" lon="6.63072">
        <ele>420</ele>
        <time>2025-09-13T12:13:59Z</time>
      </trkpt>
      <trkpt lat="47.58229" lon="6.63073">
        <ele>420.3</ele>
        <time>2025-09-13T12:14:00Z</time>
      </trkpt>
      <trkpt lat="47.58234" lon="6.63075">
        <ele>420.6</ele>
        <time>2025-09-13T12:14:01Z</time>
      </trkpt>
      <trkpt lat="47.58238" lon="6.63076">
        <ele>421</ele>
        <time>2025-09-13T12:14:02Z</time>
      </trkpt>
      <trkpt lat="47.58243" lon="6.63078">
        <ele>421.3</ele>
        <time>2025-09-13T12:14:03Z</time>
      </trkpt>
      <trkpt lat="47.58247" lon="6.63079">
        <ele>421.6</ele>
        <time>2025-09-13T12:14:04Z</time>
      </trkpt>
      <trkpt lat="47.58252" lon="6.6308">
        <ele>421.9</ele>
        <time>2025-09-13T12:14:05Z</time>
      </trkpt>
      <trkpt lat="47.58257" lon="6.63081">
        <ele>422.2</ele>
        <time>2025-09-13T12:14:06Z</time>
      </trkpt>
      <trkpt lat="47.58262" lon="6.63082">
        <ele>422.5</ele>
        <time>2025-09-13T12:14:07Z</time>
      </trkpt>
      <trkpt lat="47.58266" lon="6.63083">
        <ele>422.7</ele>
        <time>2025-09-13T12:14:08Z</time>
      </trkpt>
      <trkpt lat="47.58271" lon="6.63084">
        <ele>423</ele>
        <time>2025-09-13T12:14:09Z</time>
      </trkpt>
      <trkpt lat="47.58275" lon="6.63085">
        <ele>423.3</ele>
        <time>2025-09-13T12:14:10Z</time>
      </trkpt>
      <trkpt lat="47.5828" lon="6.63085">
        <ele>423.5</ele>
        <time>2025-09-13T12:14:11Z</time>
      </trkpt>
      <trkpt lat="47.58285" lon="6.63086">
        <ele>423.8</ele>
        <time>2025-09-13T12:14:12Z</time>
      </trkpt>
      <trkpt lat="47.5829" lon="6.63087">
        <ele>424.1</ele>
        <time>2025-09-13T12:14:13Z</time>
      </trkpt>
      <trkpt lat="47.58295" lon="6.63087">
        <ele>424.3</ele>
        <time>2025-09-13T12:14:14Z</time>
      </trkpt>
      <trkpt lat="47.58299" lon="6.63088">
        <ele>424.6</ele>
        <time>2025-09-13T12:14:15Z</time>
      </trkpt>
      <trkpt lat="47.58304" lon="6.63087">
        <ele>424.8</ele>
        <time>2025-09-13T12:14:16Z</time>
      </trkpt>
      <trkpt lat="47.58309" lon="6.63086">
        <ele>425.1</ele>
        <time>2025-09-13T12:14:17Z</time>
      </trkpt>
      <trkpt lat="47.58314" lon="6.63085">
        <ele>425.4</ele>
        <time>2025-09-13T12:14:18Z</time>
      </trkpt>
      <trkpt lat="47.58319" lon="6.63085">
        <ele>425.6</ele>
        <time>2025-09-13T12:14:19Z</time>
      </trkpt>
      <trkpt lat="47.58324" lon="6.63085">
        <ele>425.8</ele>
        <time>2025-09-13T12:14:20Z</time>
      </trkpt>
      <trkpt lat="47.58328" lon="6.63084">
        <ele>426.1</ele>
        <time>2025-09-13T12:14:21Z</time>
      </trkpt>
      <trkpt lat="47.58333" lon="6.63084">
        <ele>426.3</ele>
        <time>2025-09-13T12:14:22Z</time>
      </trkpt>
      <trkpt lat="47.58338" lon="6.63084">
        <ele>426.5</ele>
        <time>2025-09-13T12:14:23Z</time>
      </trkpt>
      <trkpt lat="47.58342" lon="6.63084">
        <ele>426.8</ele>
        <time>2025-09-13T12:14:24Z</time>
      </trkpt>
      <trkpt lat="47.58347" lon="6.63084">
        <ele>427</ele>
        <time>2025-09-13T12:14:25Z</time>
      </trkpt>
      <trkpt lat="47.58352" lon="6.63085">
        <ele>427.2</ele>
        <time>2025-09-13T12:14:26Z</time>
      </trkpt>
      <trkpt lat="47.58357" lon="6.63085">
        <ele>427.5</ele>
        <time>2025-09-13T12:14:27Z</time>
      </trkpt>
      <trkpt lat="47.58362" lon="6.63087">
        <ele>427.7</ele>
        <time>2025-09-13T12:14:28Z</time>
      </trkpt>
      <trkpt lat="47.58366" lon="6.63088">
        <ele>428</ele>
        <time>2025-09-13T12:14:29Z</time>
      </trkpt>
      <trkpt lat="47.58371" lon="6.63089">
        <ele>428.2</ele>
        <time>2025-09-13T12:14:30Z</time>
      </trkpt>
      <trkpt lat="47.58376" lon="6.63092">
        <ele>428.5</ele>
        <time>2025-09-13T12:14:31Z</time>
      </trkpt>
      <trkpt lat="47.58381" lon="6.63093">
        <ele>428.7</ele>
        <time>2025-09-13T12:14:32Z</time>
      </trkpt>
      <trkpt lat="47.58386" lon="6.63096">
        <ele>428.9</ele>
        <time>2025-09-13T12:14:33Z</time>
      </trkpt>
      <trkpt lat="47.5839" lon="6.63098">
        <ele>429.2</ele>
        <time>2025-09-13T12:14:34Z</time>
      </trkpt>
      <trkpt lat="47.58395" lon="6.63102">
        <ele>429.4</ele>
        <time>2025-09-13T12:14:35Z</time>
      </trkpt>
      <trkpt lat="47.584" lon="6.63105">
        <ele>429.7</ele>
        <time>2025-09-13T12:14:36Z</time>
      </trkpt>
      <trkpt lat="47.58404" lon="6.6311">
        <ele>429.9</ele>
        <time>2025-09-13T12:14:37Z</time>
      </trkpt>
      <trkpt lat="47.58408" lon="6.63114">
        <ele>430.2</ele>
        <time>2025-09-13T12:14:38Z</time>
      </trkpt>
      <trkpt lat="47.58413" lon="6.63119">
        <ele>430.4</ele>
        <time>2025-09-13T12:14:39Z</time>
      </trkpt>
      <trkpt lat="47.58416" lon="6.63124">
        <ele>430.7</ele>
        <time>2025-09-13T12:14:40Z</time>
      </trkpt>
      <trkpt lat="47.5842" lon="6.6313">
        <ele>431</ele>
        <time>2025-09-13T12:14:41Z</time>
      </trkpt>
      <trkpt lat="47.58424" lon="6.63136">
        <ele>431.2</ele>
        <time>2025-09-13T12:14:42Z</time>
      </trkpt>
      <trkpt lat="47.58428" lon="6.63142">
        <ele>431.5</ele>
        <time>2025-09-13T12:14:43Z</time>
      </trkpt>
      <trkpt lat="47.58431" lon="6.63146">
        <ele>431.7</ele>
        <time>2025-09-13T12:14:44Z</time>
      </trkpt>
      <trkpt lat="47.58435" lon="6.63153">
        <ele>432</ele>
        <time>2025-09-13T12:14:45Z</time>
      </trkpt>
      <trkpt lat="47.58439" lon="6.63159">
        <ele>432.2</ele>
        <time>2025-09-13T12:14:46Z</time>
      </trkpt>
      <trkpt lat="47.58442" lon="6.63164">
        <ele>432.3</ele>
        <time>2025-09-13T12:14:47Z</time>
      </trkpt>
      <trkpt lat="47.58446" lon="6.6317">
        <ele>432.2</ele>
        <time>2025-09-13T12:14:48Z</time>
      </trkpt>
      <trkpt lat="47.5845" lon="6.63175">
        <ele>432</ele>
        <time>2025-09-13T12:14:49Z</time>
      </trkpt>
      <trkpt lat="47.58455" lon="6.6318">
        <ele>431.8</ele>
        <time>2025-09-13T12:14:50Z</time>
      </trkpt>
      <trkpt lat="47.58461" lon="6.63182">
        <ele>431.5</ele>
        <time>2025-09-13T12:14:51Z</time>
      </trkpt>
      <trkpt lat="47.58468" lon="6.63183">
        <ele>431.2</ele>
        <time>2025-09-13T12:14:52Z</time>
      </trkpt>
      <trkpt lat="47.58475" lon="6.63181">
        <ele>430.9</ele>
        <time>2025-09-13T12:14:53Z</time>
      </trkpt>
      <trkpt lat="47.58481" lon="6.63178">
        <ele>430.6</ele>
        <time>2025-09-13T12:14:54Z</time>
      </trkpt>
      <trkpt lat="47.58487" lon="6.63171">
        <ele>430.2</ele>
        <time>2025-09-13T12:14:55Z</time>
      </trkpt>
      <trkpt lat="47.58491" lon="6.63165">
        <ele>429.9</ele>
        <time>2025-09-13T12:14:56Z</time>
      </trkpt>
      <trkpt lat="47.58496" lon="6.63157">
        <ele>429.5</ele>
        <time>2025-09-13T12:14:57Z</time>
      </trkpt>
      <trkpt lat="47.58499" lon="6.63146">
        <ele>429.2</ele>
        <time>2025-09-13T12:14:58Z</time>
      </trkpt>
      <trkpt lat="47.58504" lon="6.63135">
        <ele>428.7</ele>
        <time>2025-09-13T12:14:59Z</time>
      </trkpt>
      <trkpt lat="47.58509" lon="6.63122">
        <ele>428.2</ele>
        <time>2025-09-13T12:15:00Z</time>
      </trkpt>
      <trkpt lat="47.58514" lon="6.63111">
        <ele>427.8</ele>
        <time>2025-09-13T12:15:01Z</time>
      </trkpt>
      <trkpt lat="47.58519" lon="6.63102">
        <ele>427.4</ele>
        <time>2025-09-13T12:15:02Z</time>
      </trkpt>
      <trkpt lat="47.58526" lon="6.63095">
        <ele>427</ele>
        <time>2025-09-13T12:15:03Z</time>
      </trkpt>
      <trkpt lat="47.58534" lon="6.63089">
        <ele>426.5</ele>
        <time>2025-09-13T12:15:04Z</time>
      </trkpt>
      <trkpt lat="47.58542" lon="6.63086">
        <ele>426.1</ele>
        <time>2025-09-13T12:15:05Z</time>
      </trkpt>
      <trkpt lat="47.58553" lon="6.63085">
        <ele>425.6</ele>
        <time>2025-09-13T12:15:06Z</time>
      </trkpt>
      <trkpt lat="47.58562" lon="6.63084">
        <ele>425.1</ele>
        <time>2025-09-13T12:15:07Z</time>
      </trkpt>
      <trkpt lat="47.58571" lon="6.63085">
        <ele>424.7</ele>
        <time>2025-09-13T12:15:08Z</time>
      </trkpt>
      <trkpt lat="47.58581" lon="6.63085">
        <ele>424.1</ele>
        <time>2025-09-13T12:15:09Z</time>
      </trkpt>
      <trkpt lat="47.5859" lon="6.63085">
        <ele>423.6</ele>
        <time>2025-09-13T12:15:10Z</time>
      </trkpt>
      <trkpt lat="47.58599" lon="6.6309">
        <ele>423.1</ele>
        <time>2025-09-13T12:15:11Z</time>
      </trkpt>
      <trkpt lat="47.58608" lon="6.63097">
        <ele>422.6</ele>
        <time>2025-09-13T12:15:12Z</time>
      </trkpt>
      <trkpt lat="47.58615" lon="6.63105">
        <ele>422</ele>
        <time>2025-09-13T12:15:13Z</time>
      </trkpt>
      <trkpt lat="47.58623" lon="6.63117">
        <ele>421.4</ele>
        <time>2025-09-13T12:15:14Z</time>
      </trkpt>
      <trkpt lat="47.58628" lon="6.63129">
        <ele>420.8</ele>
        <time>2025-09-13T12:15:15Z</time>
      </trkpt>
      <trkpt lat="47.58635" lon="6.6314">
        <ele>420.2</ele>
        <time>2025-09-13T12:15:16Z</time>
      </trkpt>
      <trkpt lat="47.58642" lon="6.6315">
        <ele>419.7</ele>
        <time>2025-09-13T12:15:17Z</time>
      </trkpt>
      <trkpt lat="47.58649" lon="6.6316">
        <ele>419.2</ele>
        <time>2025-09-13T12:15:18Z</time>
      </trkpt>
      <trkpt lat="47.58657" lon="6.63171">
        <ele>418.6</ele>
        <time>2025-09-13T12:15:19Z</time>
      </trkpt>
      <trkpt lat="47.58663" lon="6.63183">
        <ele>418.1</ele>
        <time>2025-09-13T12:15:20Z</time>
      </trkpt>
      <trkpt lat="47.58671" lon="6.63193">
        <ele>417.5</ele>
        <time>2025-09-13T12:15:21Z</time>
      </trkpt>
      <trkpt lat="47.5868" lon="6.63203">
        <ele>417</ele>
        <time>2025-09-13T12:15:22Z</time>
      </trkpt>
      <trkpt lat="47.58687" lon="6.63212">
        <ele>416.5</ele>
        <time>2025-09-13T12:15:23Z</time>
      </trkpt>
      <trkpt lat="47.58697" lon="6.6322">
        <ele>415.8</ele>
        <time>2025-09-13T12:15:24Z</time>
      </trkpt>
      <trkpt lat="47.58707" lon="6.63225">
        <ele>415.3</ele>
        <time>2025-09-13T12:15:25Z</time>
      </trkpt>
      <trkpt lat="47.58717" lon="6.63232">
        <ele>414.6</ele>
        <time>2025-09-13T12:15:26Z</time>
      </trkpt>
      <trkpt lat="47.58726" lon="6.63235">
        <ele>414.1</ele>
        <time>2025-09-13T12:15:27Z</time>
      </trkpt>
      <trkpt lat="47.58735" lon="6.63239">
        <ele>413.5</ele>
        <time>2025-09-13T12:15:28Z</time>
      </trkpt>
      <trkpt lat="47.58745" lon="6.63243">
        <ele>413</ele>
        <time>2025-09-13T12:15:29Z</time>
      </trkpt>
      <trkpt lat="47.58756" lon="6.63251">
        <ele>412.3</ele>
        <time>2025-09-13T12:15:30Z</time>
      </trkpt>
      <trkpt lat="47.58767" lon="6.63255">
        <ele>411.7</ele>
        <time>2025-09-13T12:15:31Z</time>
      </trkpt>
      <trkpt lat="47.58778" lon="6.6326">
        <ele>411.1</ele>
        <time>2025-09-13T12:15:32Z</time>
      </trkpt>
      <trkpt lat="47.58788" lon="6.63264">
        <ele>410.5</ele>
        <time>2025-09-13T12:15:33Z</time>
      </trkpt>
      <trkpt lat="47.58799" lon="6.63269">
        <ele>409.9</ele>
        <time>2025-09-13T12:15:34Z</time>
      </trkpt>
      <trkpt lat="47.58809" lon="6.63274">
        <ele>409.2</ele>
        <time>2025-09-13T12:15:35Z</time>
      </trkpt>
      <trkpt lat="47.5882" lon="6.6328">
        <ele>408.6</ele>
        <time>2025-09-13T12:15:36Z</time>
      </trkpt>
      <trkpt lat="47.58831" lon="6.63284">
        <ele>408</ele>
        <time>2025-09-13T12:15:37Z</time>
      </trkpt>
      <trkpt lat="47.5884" lon="6.63289">
        <ele>407.4</ele>
        <time>2025-09-13T12:15:38Z</time>
      </trkpt>
      <trkpt lat="47.58851" lon="6.6329">
        <ele>406.8</ele>
        <time>2025-09-13T12:15:39Z</time>
      </trkpt>
      <trkpt lat="47.58862" lon="6.6329">
        <ele>406.2</ele>
        <time>2025-09-13T12:15:40Z</time>
      </trkpt>
      <trkpt lat="47.58873" lon="6.63287">
        <ele>405.5</ele>
        <time>2025-09-13T12:15:41Z</time>
      </trkpt>
      <trkpt lat="47.58884" lon="6.63282">
        <ele>404.9</ele>
        <time>2025-09-13T12:15:42Z</time>
      </trkpt>
      <trkpt lat="47.58894" lon="6.63276">
        <ele>404.3</ele>
        <time>2025-09-13T12:15:43Z</time>
      </trkpt>
      <trkpt lat="47.58904" lon="6.63269">
        <ele>403.6</ele>
        <time>2025-09-13T12:15:44Z</time>
      </trkpt>
      <trkpt lat="47.58914" lon="6.63261">
        <ele>403</ele>
        <time>2025-09-13T12:15:45Z</time>
      </trkpt>
      <trkpt lat="47.58924" lon="6.63254">
        <ele>402.4</ele>
        <time>2025-09-13T12:15:46Z</time>
      </trkpt>
      <trkpt lat="47.58934" lon="6.63246">
        <ele>401.8</ele>
        <time>2025-09-13T12:15:47Z</time>
      </trkpt>
      <trkpt lat="47.58944" lon="6.63239">
        <ele>401.3</ele>
        <time>2025-09-13T12:15:48Z</time>
      </trkpt>
      <trkpt lat="47.58955" lon="6.63233">
        <ele>400.7</ele>
        <time>2025-09-13T12:15:49Z</time>
      </trkpt>
      <trkpt lat="47.58967" lon="6.6323">
        <ele>400.2</ele>
        <time>2025-09-13T12:15:50Z</time>
      </trkpt>
      <trkpt lat="47.58978" lon="6.63231">
        <ele>399.6</ele>
        <time>2025-09-13T12:15:51Z</time>
      </trkpt>
      <trkpt lat="47.58989" lon="6.6323">
        <ele>398.9</ele>
        <time>2025-09-13T12:15:52Z</time>
      </trkpt>
      <trkpt lat="47.59001" lon="6.63232">
        <ele>398.2</ele>
        <time>2025-09-13T12:15:53Z</time>
      </trkpt>
      <trkpt lat="47.59013" lon="6.63235">
        <ele>397.5</ele>
        <time>2025-09-13T12:15:54Z</time>
      </trkpt>
      <trkpt lat="47.59023" lon="6.6324">
        <ele>396.9</ele>
        <time>2025-09-13T12:15:55Z</time>
      </trkpt>
      <trkpt lat="47.59035" lon="6.63246">
        <ele>396.2</ele>
        <time>2025-09-13T12:15:56Z</time>
      </trkpt>
      <trkpt lat="47.59044" lon="6.63253">
        <ele>395.6</ele>
        <time>2025-09-13T12:15:57Z</time>
      </trkpt>
      <trkpt lat="47.59055" lon="6.63261">
        <ele>395</ele>
        <time>2025-09-13T12:15:58Z</time>
      </trkpt>
      <trkpt lat="47.59065" lon="6.63269">
        <ele>394.3</ele>
        <time>2025-09-13T12:15:59Z</time>
      </trkpt>
      <trkpt lat="47.59076" lon="6.63277">
        <ele>393.7</ele>
        <time>2025-09-13T12:16:00Z</time>
      </trkpt>
      <trkpt lat="47.59086" lon="6.63285">
        <ele>393</ele>
        <time>2025-09-13T12:16:01Z</time>
      </trkpt>
      <trkpt lat="47.59097" lon="6.63292">
        <ele>392.5</ele>
        <time>2025-09-13T12:16:02Z</time>
      </trkpt>
      <trkpt lat="47.59107" lon="6.63299">
        <ele>391.8</ele>
        <time>2025-09-13T12:16:03Z</time>
      </trkpt>
      <trkpt lat="47.59119" lon="6.63303">
        <ele>391.2</ele>
        <time>2025-09-13T12:16:04Z</time>
      </trkpt>
      <trkpt lat="47.5913" lon="6.63305">
        <ele>390.6</ele>
        <time>2025-09-13T12:16:05Z</time>
      </trkpt>
      <trkpt lat="47.59142" lon="6.63304">
        <ele>390</ele>
        <time>2025-09-13T12:16:06Z</time>
      </trkpt>
      <trkpt lat="47.59153" lon="6.63301">
        <ele>389.4</ele>
        <time>2025-09-13T12:16:07Z</time>
      </trkpt>
      <trkpt lat="47.59164" lon="6.63296">
        <ele>388.8</ele>
        <time>2025-09-13T12:16:08Z</time>
      </trkpt>
      <trkpt lat="47.59175" lon="6.63292">
        <ele>388.3</ele>
        <time>2025-09-13T12:16:09Z</time>
      </trkpt>
      <trkpt lat="47.59187" lon="6.63287">
        <ele>387.8</ele>
        <time>2025-09-13T12:16:10Z</time>
      </trkpt>
      <trkpt lat="47.59199" lon="6.63284">
        <ele>387.3</ele>
        <time>2025-09-13T12:16:11Z</time>
      </trkpt>
      <trkpt lat="47.5921" lon="6.63282">
        <ele>386.9</ele>
        <time>2025-09-13T12:16:12Z</time>
      </trkpt>
      <trkpt lat="47.59222" lon="6.63278">
        <ele>386.5</ele>
        <time>2025-09-13T12:16:13Z</time>
      </trkpt>
      <trkpt lat="47.59233" lon="6.63272">
        <ele>386</ele>
        <time>2025-09-13T12:16:14Z</time>
      </trkpt>
      <trkpt lat="47.59244" lon="6.63263">
        <ele>385.6</ele>
        <time>2025-09-13T12:16:15Z</time>
      </trkpt>
      <trkpt lat="47.59253" lon="6.63252">
        <ele>385.2</ele>
        <time>2025-09-13T12:16:16Z</time>
      </trkpt>
      <trkpt lat="47.59261" lon="6.6324">
        <ele>384.8</ele>
        <time>2025-09-13T12:16:17Z</time>
      </trkpt>
      <trkpt lat="47.59268" lon="6.63226">
        <ele>384.3</ele>
        <time>2025-09-13T12:16:18Z</time>
      </trkpt>
      <trkpt lat="47.59276" lon="6.63213">
        <ele>383.9</ele>
        <time>2025-09-13T12:16:19Z</time>
      </trkpt>
      <trkpt lat="47.59285" lon="6.63202">
        <ele>383.5</ele>
        <time>2025-09-13T12:16:20Z</time>
      </trkpt>
      <trkpt lat="47.59294" lon="6.63191">
        <ele>383</ele>
        <time>2025-09-13T12:16:21Z</time>
      </trkpt>
      <trkpt lat="47.59304" lon="6.63183">
        <ele>382.6</ele>
        <time>2025-09-13T12:16:22Z</time>
      </trkpt>
      <trkpt lat="47.59315" lon="6.63178">
        <ele>382.1</ele>
        <time>2025-09-13T12:16:23Z</time>
      </trkpt>
      <trkpt lat="47.59327" lon="6.63176">
        <ele>381.6</ele>
        <time>2025-09-13T12:16:24Z</time>
      </trkpt>
      <trkpt lat="47.59338" lon="6.63174">
        <ele>381.1</ele>
        <time>2025-09-13T12:16:25Z</time>
      </trkpt>
      <trkpt lat="47.59349" lon="6.63172">
        <ele>380.7</ele>
        <time>2025-09-13T12:16:26Z</time>
      </trkpt>
      <trkpt lat="47.5936" lon="6.63171">
        <ele>380.3</ele>
        <time>2025-09-13T12:16:27Z</time>
      </trkpt>
      <trkpt lat="47.5937" lon="6.63169">
        <ele>379.8</ele>
        <time>2025-09-13T12:16:28Z</time>
      </trkpt>
      <trkpt lat="47.59381" lon="6.63168">
        <ele>379.4</ele>
        <time>2025-09-13T12:16:29Z</time>
      </trkpt>
      <trkpt lat="47.59392" lon="6.63166">
        <ele>379</ele>
        <time>2025-09-13T12:16:30Z</time>
      </trkpt>
      <trkpt lat="47.59403" lon="6.63164">
        <ele>378.6</ele>
        <time>2025-09-13T12:16:31Z</time>
      </trkpt>
      <trkpt lat="47.59414" lon="6.63162">
        <ele>378.2</ele>
        <time>2025-09-13T12:16:32Z</time>
      </trkpt>
      <trkpt lat="47.59424" lon="6.63161">
        <ele>377.8</ele>
        <time>2025-09-13T12:16:33Z</time>
      </trkpt>
      <trkpt lat="47.59434" lon="6.63163">
        <ele>377.4</ele>
        <time>2025-09-13T12:16:34Z</time>
      </trkpt>
      <trkpt lat="47.59445" lon="6.63165">
        <ele>376.9</ele>
        <time>2025-09-13T12:16:35Z</time>
      </trkpt>
      <trkpt lat="47.59455" lon="6.63168">
        <ele>376.4</ele>
        <time>2025-09-13T12:16:36Z</time>
      </trkpt>
      <trkpt lat="47.59465" lon="6.63174">
        <ele>375.9</ele>
        <time>2025-09-13T12:16:37Z</time>
      </trkpt>
      <trkpt lat="47.59475" lon="6.6318">
        <ele>375.4</ele>
        <time>2025-09-13T12:16:38Z</time>
      </trkpt>
      <trkpt lat="47.59485" lon="6.63186">
        <ele>374.9</ele>
        <time>2025-09-13T12:16:39Z</time>
      </trkpt>
      <trkpt lat="47.59495" lon="6.63194">
        <ele>374.4</ele>
        <time>2025-09-13T12:16:40Z</time>
      </trkpt>
      <trkpt lat="47.59504" lon="6.63202">
        <ele>373.9</ele>
        <time>2025-09-13T12:16:41Z</time>
      </trkpt>
      <trkpt lat="47.59514" lon="6.63212">
        <ele>373.3</ele>
        <time>2025-09-13T12:16:42Z</time>
      </trkpt>
      <trkpt lat="47.59523" lon="6.63222">
        <ele>372.8</ele>
        <time>2025-09-13T12:16:43Z</time>
      </trkpt>
      <trkpt lat="47.59532" lon="6.6323">
        <ele>372.3</ele>
        <time>2025-09-13T12:16:44Z</time>
      </trkpt>
      <trkpt lat="47.5954" lon="6.6324">
        <ele>371.8</ele>
        <time>2025-09-13T12:16:45Z</time>
      </trkpt>
      <trkpt lat="47.59548" lon="6.6325">
        <ele>371.4</ele>
        <time>2025-09-13T12:16:46Z</time>
      </trkpt>
      <trkpt lat="47.59557" lon="6.6326">
        <ele>370.9</ele>
        <time>2025-09-13T12:16:47Z</time>
      </trkpt>
      <trkpt lat="47.59565" lon="6.6327">
        <ele>370.4</ele>
        <time>2025-09-13T12:16:48Z</time>
      </trkpt>
      <trkpt lat="47.59573" lon="6.6328">
        <ele>370</ele>
        <time>2025-09-13T12:16:49Z</time>
      </trkpt>
      <trkpt lat="47.59581" lon="6.6329">
        <ele>369.5</ele>
        <time>2025-09-13T12:16:50Z</time>
      </trkpt>
      <trkpt lat="47.59589" lon="6.63299">
        <ele>369</ele>
        <time>2025-09-13T12:16:51Z</time>
      </trkpt>
      <trkpt lat="47.59597" lon="6.63308">
        <ele>368.5</ele>
        <time>2025-09-13T12:16:52Z</time>
      </trkpt>
      <trkpt lat="47.59606" lon="6.63317">
        <ele>368.1</ele>
        <time>2025-09-13T12:16:53Z</time>
      </trkpt>
      <trkpt lat="47.59615" lon="6.63323">
        <ele>367.6</ele>
        <time>2025-09-13T12:16:54Z</time>
      </trkpt>
      <trkpt lat="47.59625" lon="6.63328">
        <ele>367.2</ele>
        <time>2025-09-13T12:16:55Z</time>
      </trkpt>
      <trkpt lat="47.59635" lon="6.63331">
        <ele>366.8</ele>
        <time>2025-09-13T12:16:56Z</time>
      </trkpt>
      <trkpt lat="47.59646" lon="6.6333">
        <ele>366.4</ele>
        <time>2025-09-13T12:16:57Z</time>
      </trkpt>
      <trkpt lat="47.59656" lon="6.63328">
        <ele>366</ele>
        <time>2025-09-13T12:16:58Z</time>
      </trkpt>
      <trkpt lat="47.59667" lon="6.63324">
        <ele>365.6</ele>
        <time>2025-09-13T12:16:59Z</time>
      </trkpt>
      <trkpt lat="47.59677" lon="6.63318">
        <ele>365.2</ele>
        <time>2025-09-13T12:17:00Z</time>
      </trkpt>
      <trkpt lat="47.59687" lon="6.63312">
        <ele>364.8</ele>
        <time>2025-09-13T12:17:01Z</time>
      </trkpt>
      <trkpt lat="47.59698" lon="6.63307">
        <ele>364.3</ele>
        <time>2025-09-13T12:17:02Z</time>
      </trkpt>
      <trkpt lat="47.59708" lon="6.633">
        <ele>363.8</ele>
        <time>2025-09-13T12:17:03Z</time>
      </trkpt>
      <trkpt lat="47.59718" lon="6.63293">
        <ele>363.4</ele>
        <time>2025-09-13T12:17:04Z</time>
      </trkpt>
      <trkpt lat="47.59728" lon="6.63287">
        <ele>363</ele>
        <time>2025-09-13T12:17:05Z</time>
      </trkpt>
      <trkpt lat="47.59738" lon="6.63281">
        <ele>362.6</ele>
        <time>2025-09-13T12:17:06Z</time>
      </trkpt>
      <trkpt lat="47.59747" lon="6.63276">
        <ele>362.2</ele>
        <time>2025-09-13T12:17:07Z</time>
      </trkpt>
      <trkpt lat="47.59758" lon="6.6327">
        <ele>361.8</ele>
        <time>2025-09-13T12:17:08Z</time>
      </trkpt>
      <trkpt lat="47.59768" lon="6.63264">
        <ele>361.3</ele>
        <time>2025-09-13T12:17:09Z</time>
      </trkpt>
      <trkpt lat="47.59777" lon="6.63258">
        <ele>360.9</ele>
        <time>2025-09-13T12:17:10Z</time>
      </trkpt>
      <trkpt lat="47.59787" lon="6.63252">
        <ele>360.5</ele>
        <time>2025-09-13T12:17:11Z</time>
      </trkpt>
      <trkpt lat="47.59796" lon="6.63246">
        <ele>360.2</ele>
        <time>2025-09-13T12:17:12Z</time>
      </trkpt>
      <trkpt lat="47.59805" lon="6.63241">
        <ele>359.8</ele>
        <time>2025-09-13T12:17:13Z</time>
      </trkpt>
      <trkpt lat="47.59815" lon="6.63235">
        <ele>359.5</ele>
        <time>2025-09-13T12:17:14Z</time>
      </trkpt>
      <trkpt lat="47.59824" lon="6.63229">
        <ele>359.1</ele>
        <time>2025-09-13T12:17:15Z</time>
      </trkpt>
      <trkpt lat="47.59833" lon="6.63223">
        <ele>358.8</ele>
        <time>2025-09-13T12:17:16Z</time>
      </trkpt>
      <trkpt lat="47.59843" lon="6.63219">
        <ele>358.5</ele>
        <time>2025-09-13T12:17:17Z</time>
      </trkpt>
      <trkpt lat="47.59852" lon="6.63212">
        <ele>358.2</ele>
        <time>2025-09-13T12:17:18Z</time>
      </trkpt>
      <trkpt lat="47.59862" lon="6.63206">
        <ele>357.9</ele>
        <time>2025-09-13T12:17:19Z</time>
      </trkpt>
      <trkpt lat="47.5987" lon="6.63198">
        <ele>357.7</ele>
        <time>2025-09-13T12:17:20Z</time>
      </trkpt>
      <trkpt lat="47.59878" lon="6.6319">
        <ele>357.4</ele>
        <time>2025-09-13T12:17:21Z</time>
      </trkpt>
      <trkpt lat="47.59886" lon="6.63181">
        <ele>357.1</ele>
        <time>2025-09-13T12:17:22Z</time>
      </trkpt>
      <trkpt lat="47.59894" lon="6.63171">
        <ele>356.9</ele>
        <time>2025-09-13T12:17:23Z</time>
      </trkpt>
      <trkpt lat="47.599" lon="6.6316">
        <ele>356.8</ele>
        <time>2025-09-13T12:17:24Z</time>
      </trkpt>
      <trkpt lat="47.59906" lon="6.63148">
        <ele>356.7</ele>
        <time>2025-09-13T12:17:25Z</time>
      </trkpt>
      <trkpt lat="47.59912" lon="6.63136">
        <ele>356.5</ele>
        <time>2025-09-13T12:17:26Z</time>
      </trkpt>
      <trkpt lat="47.59918" lon="6.63125">
        <ele>356.4</ele>
        <time>2025-09-13T12:17:27Z</time>
      </trkpt>
      <trkpt lat="47.59924" lon="6.63114">
        <ele>356.3</ele>
        <time>2025-09-13T12:17:28Z</time>
      </trkpt>
      <trkpt lat="47.5993" lon="6.63104">
        <ele>356.1</ele>
        <time>2025-09-13T12:17:29Z</time>
      </trkpt>
      <trkpt lat="47.59936" lon="6.63094">
        <ele>356</ele>
        <time>2025-09-13T12:17:30Z</time>
      </trkpt>
      <trkpt lat="47.59941" lon="6.63084">
        <ele>355.9</ele>
        <time>2025-09-13T12:17:31Z</time>
      </trkpt>
      <trkpt lat="47.59947" lon="6.63073">
        <ele>355.8</ele>
        <time>2025-09-13T12:17:32Z</time>
      </trkpt>
      <trkpt lat="47.59953" lon="6.63063">
        <ele>355.8</ele>
        <time>2025-09-13T12:17:33Z</time>
      </trkpt>
      <trkpt lat="47.59958" lon="6.63054">
        <ele>355.7</ele>
        <time>2025-09-13T12:17:34Z</time>
      </trkpt>
      <trkpt lat="47.59963" lon="6.63045">
        <ele>355.6</ele>
        <time>2025-09-13T12:17:35Z</time>
      </trkpt>
      <trkpt lat="47.59969" lon="6.63035">
        <ele>355.6</ele>
        <time>2025-09-13T12:17:36Z</time>
      </trkpt>
      <trkpt lat="47.59973" lon="6.63027">
        <ele>355.5</ele>
        <time>2025-09-13T12:17:37Z</time>
      </trkpt>
      <trkpt lat="47.59978" lon="6.63019">
        <ele>355.5</ele>
        <time>2025-09-13T12:17:38Z</time>
      </trkpt>
      <trkpt lat="47.59982" lon="6.63009">
        <ele>355.5</ele>
        <time>2025-09-13T12:17:39Z</time>
      </trkpt>
      <trkpt lat="47.59987" lon="6.63">
        <ele>355.4</ele>
        <time>2025-09-13T12:17:40Z</time>
      </trkpt>
      <trkpt lat="47.59991" lon="6.62991">
        <ele>355.4</ele>
        <time>2025-09-13T12:17:41Z</time>
      </trkpt>
      <trkpt lat="47.59996" lon="6.62981">
        <ele>355.4</ele>
        <time>2025-09-13T12:17:42Z</time>
      </trkpt>
      <trkpt lat="47.6" lon="6.62971">
        <ele>355.3</ele>
        <time>2025-09-13T12:17:43Z</time>
      </trkpt>
      <trkpt lat="47.60004" lon="6.62959">
        <ele>355.3</ele>
        <time>2025-09-13T12:17:44Z</time>
      </trkpt>
      <trkpt lat="47.60008" lon="6.62947">
        <ele>355.2</ele>
        <time>2025-09-13T12:17:45Z</time>
      </trkpt>
      <trkpt lat="47.60011" lon="6.62935">
        <ele>355.2</ele>
        <time>2025-09-13T12:17:46Z</time>
      </trkpt>
      <trkpt lat="47.60015" lon="6.62923">
        <ele>355.1</ele>
        <time>2025-09-13T12:17:47Z</time>
      </trkpt>
      <trkpt lat="47.6002" lon="6.62911">
        <ele>355</ele>
        <time>2025-09-13T12:17:48Z</time>
      </trkpt>
      <trkpt lat="47.60025" lon="6.62898">
        <ele>354.9</ele>
        <time>2025-09-13T12:17:49Z</time>
      </trkpt>
      <trkpt lat="47.6003" lon="6.62888">
        <ele>354.7</ele>
        <time>2025-09-13T12:17:50Z</time>
      </trkpt>
      <trkpt lat="47.60035" lon="6.62878">
        <ele>354.6</ele>
        <time>2025-09-13T12:17:51Z</time>
      </trkpt>
      <trkpt lat="47.6004" lon="6.62867">
        <ele>354.5</ele>
        <time>2025-09-13T12:17:52Z</time>
      </trkpt>
      <trkpt lat="47.60046" lon="6.62857">
        <ele>354.4</ele>
        <time>2025-09-13T12:17:53Z</time>
      </trkpt>
      <trkpt lat="47.60051" lon="6.62847">
        <ele>354.3</ele>
        <time>2025-09-13T12:17:54Z</time>
      </trkpt>
      <trkpt lat="47.60056" lon="6.62838">
        <ele>354.2</ele>
        <time>2025-09-13T12:17:55Z</time>
      </trkpt>
      <trkpt lat="47.60062" lon="6.6283">
        <ele>354.1</ele>
        <time>2025-09-13T12:17:56Z</time>
      </trkpt>
      <trkpt lat="47.60068" lon="6.6282">
        <ele>354</ele>
        <time>2025-09-13T12:17:57Z</time>
      </trkpt>
      <trkpt lat="47.60073" lon="6.62812">
        <ele>353.9</ele>
        <time>2025-09-13T12:17:58Z</time>
      </trkpt>
      <trkpt lat="47.60081" lon="6.62804">
        <ele>353.8</ele>
        <time>2025-09-13T12:17:59Z</time>
      </trkpt>
      <trkpt lat="47.60089" lon="6.62798">
        <ele>353.7</ele>
        <time>2025-09-13T12:18:00Z</time>
      </trkpt>
      <trkpt lat="47.60097" lon="6.62794">
        <ele>353.6</ele>
        <time>2025-09-13T12:18:01Z</time>
      </trkpt>
      <trkpt lat="47.60106" lon="6.62792">
        <ele>353.4</ele>
        <time>2025-09-13T12:18:02Z</time>
      </trkpt>
      <trkpt lat="47.60115" lon="6.62792">
        <ele>353.2</ele>
        <time>2025-09-13T12:18:03Z</time>
      </trkpt>
      <trkpt lat="47.60124" lon="6.62797">
        <ele>352.9</ele>
        <time>2025-09-13T12:18:04Z</time>
      </trkpt>
      <trkpt lat="47.60133" lon="6.62803">
        <ele>352.7</ele>
        <time>2025-09-13T12:18:05Z</time>
      </trkpt>
      <trkpt lat="47.60142" lon="6.62809">
        <ele>352.4</ele>
        <time>2025-09-13T12:18:06Z</time>
      </trkpt>
      <trkpt lat="47.6015" lon="6.62817">
        <ele>352.2</ele>
        <time>2025-09-13T12:18:07Z</time>
      </trkpt>
      <trkpt lat="47.60158" lon="6.62826">
        <ele>352</ele>
        <time>2025-09-13T12:18:08Z</time>
      </trkpt>
      <trkpt lat="47.60166" lon="6.62835">
        <ele>351.7</ele>
        <time>2025-09-13T12:18:09Z</time>
      </trkpt>
      <trkpt lat="47.60173" lon="6.62845">
        <ele>351.4</ele>
        <time>2025-09-13T12:18:10Z</time>
      </trkpt>
      <trkpt lat="47.6018" lon="6.62855">
        <ele>351.1</ele>
        <time>2025-09-13T12:18:11Z</time>
      </trkpt>
      <trkpt lat="47.60187" lon="6.62866">
        <ele>350.7</ele>
        <time>2025-09-13T12:18:12Z</time>
      </trkpt>
      <trkpt lat="47.60194" lon="6.62876">
        <ele>350.3</ele>
        <time>2025-09-13T12:18:13Z</time>
      </trkpt>
      <trkpt lat="47.60201" lon="6.62886">
        <ele>349.9</ele>
        <time>2025-09-13T12:18:14Z</time>
      </trkpt>
      <trkpt lat="47.60208" lon="6.62896">
        <ele>349.5</ele>
        <time>2025-09-13T12:18:15Z</time>
      </trkpt>
      <trkpt lat="47.60215" lon="6.62906">
        <ele>349</ele>
        <time>2025-09-13T12:18:16Z</time>
      </trkpt>
      <trkpt lat="47.60222" lon="6.62917">
        <ele>348.5</ele>
        <time>2025-09-13T12:18:17Z</time>
      </trkpt>
      <trkpt lat="47.60231" lon="6.62928">
        <ele>348</ele>
        <time>2025-09-13T12:18:18Z</time>
      </trkpt>
      <trkpt lat="47.60238" lon="6.62939">
        <ele>347.5</ele>
        <time>2025-09-13T12:18:19Z</time>
      </trkpt>
      <trkpt lat="47.60246" lon="6.62948">
        <ele>346.9</ele>
        <time>2025-09-13T12:18:20Z</time>
      </trkpt>
      <trkpt lat="47.60255" lon="6.62956">
        <ele>346.3</ele>
        <time>2025-09-13T12:18:21Z</time>
      </trkpt>
      <trkpt lat="47.60267" lon="6.62959">
        <ele>345.6</ele>
        <time>2025-09-13T12:18:22Z</time>
      </trkpt>
      <trkpt lat="47.60278" lon="6.62966">
        <ele>345</ele>
        <time>2025-09-13T12:18:23Z</time>
      </trkpt>
      <trkpt lat="47.60289" lon="6.62973">
        <ele>344.3</ele>
        <time>2025-09-13T12:18:24Z</time>
      </trkpt>
      <trkpt lat="47.60299" lon="6.6298">
        <ele>343.8</ele>
        <time>2025-09-13T12:18:25Z</time>
      </trkpt>
      <trkpt lat="47.60309" lon="6.62986">
        <ele>343.2</ele>
        <time>2025-09-13T12:18:26Z</time>
      </trkpt>
      <trkpt lat="47.6032" lon="6.62992">
        <ele>342.7</ele>
        <time>2025-09-13T12:18:27Z</time>
      </trkpt>
      <trkpt lat="47.60331" lon="6.62998">
        <ele>342.2</ele>
        <time>2025-09-13T12:18:28Z</time>
      </trkpt>
      <trkpt lat="47.60341" lon="6.63003">
        <ele>341.7</ele>
        <time>2025-09-13T12:18:29Z</time>
      </trkpt>
      <trkpt lat="47.60351" lon="6.63013">
        <ele>341.1</ele>
        <time>2025-09-13T12:18:30Z</time>
      </trkpt>
      <trkpt lat="47.60361" lon="6.63022">
        <ele>340.6</ele>
        <time>2025-09-13T12:18:31Z</time>
      </trkpt>
      <trkpt lat="47.60371" lon="6.63031">
        <ele>340</ele>
        <time>2025-09-13T12:18:33Z</time>
      </trkpt>
      <trkpt lat="47.60381" lon="6.63039">
        <ele>339.6</ele>
        <time>2025-09-13T12:18:34Z</time>
      </trkpt>
      <trkpt lat="47.60391" lon="6.63047">
        <ele>339.1</ele>
        <time>2025-09-13T12:18:35Z</time>
      </trkpt>
      <trkpt lat="47.60402" lon="6.63052">
        <ele>338.7</ele>
        <time>2025-09-13T12:18:36Z</time>
      </trkpt>
      <trkpt lat="47.60413" lon="6.63056">
        <ele>338.3</ele>
        <time>2025-09-13T12:18:37Z</time>
      </trkpt>
      <trkpt lat="47.60425" lon="6.63058">
        <ele>338</ele>
        <time>2025-09-13T12:18:38Z</time>
      </trkpt>
      <trkpt lat="47.60437" lon="6.6306">
        <ele>337.7</ele>
        <time>2025-09-13T12:18:39Z</time>
      </trkpt>
      <trkpt lat="47.60448" lon="6.63059">
        <ele>337.5</ele>
        <time>2025-09-13T12:18:40Z</time>
      </trkpt>
      <trkpt lat="47.6046" lon="6.63059">
        <ele>337.3</ele>
        <time>2025-09-13T12:18:41Z</time>
      </trkpt>
      <trkpt lat="47.60471" lon="6.6306">
        <ele>337.1</ele>
        <time>2025-09-13T12:18:42Z</time>
      </trkpt>
      <trkpt lat="47.60482" lon="6.6306">
        <ele>336.9</ele>
        <time>2025-09-13T12:18:43Z</time>
      </trkpt>
      <trkpt lat="47.60492" lon="6.63061">
        <ele>336.7</ele>
        <time>2025-09-13T12:18:44Z</time>
      </trkpt>
      <trkpt lat="47.60503" lon="6.63062">
        <ele>336.5</ele>
        <time>2025-09-13T12:18:45Z</time>
      </trkpt>
      <trkpt lat="47.60513" lon="6.63063">
        <ele>336.3</ele>
        <time>2025-09-13T12:18:46Z</time>
      </trkpt>
      <trkpt lat="47.60522" lon="6.63061">
        <ele>336.2</ele>
        <time>2025-09-13T12:18:47Z</time>
      </trkpt>
      <trkpt lat="47.60532" lon="6.6306">
        <ele>336</ele>
        <time>2025-09-13T12:18:48Z</time>
      </trkpt>
      <trkpt lat="47.60542" lon="6.63061">
        <ele>335.8</ele>
        <time>2025-09-13T12:18:49Z</time>
      </trkpt>
      <trkpt lat="47.60552" lon="6.6306">
        <ele>335.7</ele>
        <time>2025-09-13T12:18:50Z</time>
      </trkpt>
      <trkpt lat="47.60561" lon="6.63056">
        <ele>335.5</ele>
        <time>2025-09-13T12:18:51Z</time>
      </trkpt>
      <trkpt lat="47.6057" lon="6.63052">
        <ele>335.5</ele>
        <time>2025-09-13T12:18:52Z</time>
      </trkpt>
      <trkpt lat="47.6058" lon="6.63048">
        <ele>335.3</ele>
        <time>2025-09-13T12:18:53Z</time>
      </trkpt>
      <trkpt lat="47.60589" lon="6.63043">
        <ele>335.2</ele>
        <time>2025-09-13T12:18:54Z</time>
      </trkpt>
      <trkpt lat="47.60597" lon="6.63038">
        <ele>335.1</ele>
        <time>2025-09-13T12:18:55Z</time>
      </trkpt>
      <trkpt lat="47.60605" lon="6.63032">
        <ele>335</ele>
        <time>2025-09-13T12:18:56Z</time>
      </trkpt>
      <trkpt lat="47.60615" lon="6.63026">
        <ele>334.8</ele>
        <time>2025-09-13T12:18:57Z</time>
      </trkpt>
      <trkpt lat="47.60624" lon="6.6302">
        <ele>334.7</ele>
        <time>2025-09-13T12:18:58Z</time>
      </trkpt>
      <trkpt lat="47.60633" lon="6.63016">
        <ele>334.6</ele>
        <time>2025-09-13T12:18:59Z</time>
      </trkpt>
      <trkpt lat="47.60641" lon="6.63012">
        <ele>334.5</ele>
        <time>2025-09-13T12:19:00Z</time>
      </trkpt>
      <trkpt lat="47.60659" lon="6.63002">
        <ele>334.1</ele>
        <time>2025-09-13T12:19:01Z</time>
      </trkpt>
      <trkpt lat="47.60669" lon="6.62998">
        <ele>334</ele>
        <time>2025-09-13T12:19:02Z</time>
      </trkpt>
      <trkpt lat="47.60678" lon="6.62994">
        <ele>333.9</ele>
        <time>2025-09-13T12:19:03Z</time>
      </trkpt>
      <trkpt lat="47.60687" lon="6.62992">
        <ele>333.8</ele>
        <time>2025-09-13T12:19:04Z</time>
      </trkpt>
      <trkpt lat="47.60695" lon="6.62989">
        <ele>333.7</ele>
        <time>2025-09-13T12:19:05Z</time>
      </trkpt>
      <trkpt lat="47.60704" lon="6.62983">
        <ele>333.7</ele>
        <time>2025-09-13T12:19:06Z</time>
      </trkpt>
      <trkpt lat="47.6071" lon="6.62981">
        <ele>333.7</ele>
        <time>2025-09-13T12:19:07Z</time>
      </trkpt>
      <trkpt lat="47.60715" lon="6.6298">
        <ele>333.6</ele>
        <time>2025-09-13T12:19:08Z</time>
      </trkpt>
      <trkpt lat="47.60719" lon="6.62982">
        <ele>333.6</ele>
        <time>2025-09-13T12:19:09Z</time>
      </trkpt>
      <trkpt lat="47.60723" lon="6.62981">
        <ele>333.6</ele>
        <time>2025-09-13T12:19:10Z</time>
      </trkpt>
      <trkpt lat="47.60728" lon="6.6298">
        <ele>333.5</ele>
        <time>2025-09-13T12:19:11Z</time>
      </trkpt>
      <trkpt lat="47.60734" lon="6.62979">
        <ele>333.5</ele>
        <time>2025-09-13T12:19:12Z</time>
      </trkpt>
      <trkpt lat="47.6074" lon="6.62976">
        <ele>333.3</ele>
        <time>2025-09-13T12:19:13Z</time>
      </trkpt>
      <trkpt lat="47.60747" lon="6.62975">
        <ele>333.1</ele>
        <time>2025-09-13T12:19:14Z</time>
      </trkpt>
      <trkpt lat="47.60753" lon="6.62973">
        <ele>332.9</ele>
        <time>2025-09-13T12:19:15Z</time>
      </trkpt>
      <trkpt lat="47.6076" lon="6.62971">
        <ele>332.6</ele>
        <time>2025-09-13T12:19:16Z</time>
      </trkpt>
      <trkpt lat="47.60767" lon="6.62969">
        <ele>332.3</ele>
        <time>2025-09-13T12:19:17Z</time>
      </trkpt>
      <trkpt lat="47.60774" lon="6.62968">
        <ele>332.1</ele>
        <time>2025-09-13T12:19:18Z</time>
      </trkpt>
      <trkpt lat="47.60782" lon="6.62968">
        <ele>331.8</ele>
        <time>2025-09-13T12:19:19Z</time>
      </trkpt>
      <trkpt lat="47.6079" lon="6.62966">
        <ele>331.6</ele>
        <time>2025-09-13T12:19:20Z</time>
      </trkpt>
      <trkpt lat="47.60797" lon="6.62963">
        <ele>331.5</ele>
        <time>2025-09-13T12:19:21Z</time>
      </trkpt>
      <trkpt lat="47.60805" lon="6.62962">
        <ele>331.3</ele>
        <time>2025-09-13T12:19:22Z</time>
      </trkpt>
      <trkpt lat="47.60813" lon="6.62959">
        <ele>331.2</ele>
        <time>2025-09-13T12:19:23Z</time>
      </trkpt>
      <trkpt lat="47.60821" lon="6.62955">
        <ele>331.2</ele>
        <time>2025-09-13T12:19:24Z</time>
      </trkpt>
      <trkpt lat="47.60828" lon="6.62951">
        <ele>331.1</ele>
        <time>2025-09-13T12:19:25Z</time>
      </trkpt>
      <trkpt lat="47.60835" lon="6.62947">
        <ele>331</ele>
        <time>2025-09-13T12:19:26Z</time>
      </trkpt>
      <trkpt lat="47.60842" lon="6.62943">
        <ele>330.9</ele>
        <time>2025-09-13T12:19:27Z</time>
      </trkpt>
      <trkpt lat="47.60849" lon="6.62938">
        <ele>330.7</ele>
        <time>2025-09-13T12:19:28Z</time>
      </trkpt>
      <trkpt lat="47.60856" lon="6.62935">
        <ele>330.6</ele>
        <time>2025-09-13T12:19:29Z</time>
      </trkpt>
      <trkpt lat="47.60862" lon="6.62931">
        <ele>330.4</ele>
        <time>2025-09-13T12:19:30Z</time>
      </trkpt>
      <trkpt lat="47.60868" lon="6.62927">
        <ele>330.3</ele>
        <time>2025-09-13T12:19:31Z</time>
      </trkpt>
      <trkpt lat="47.60875" lon="6.62922">
        <ele>330.1</ele>
        <time>2025-09-13T12:19:32Z</time>
      </trkpt>
      <trkpt lat="47.60881" lon="6.62919">
        <ele>330</ele>
        <time>2025-09-13T12:19:33Z</time>
      </trkpt>
      <trkpt lat="47.60888" lon="6.62915">
        <ele>329.9</ele>
        <time>2025-09-13T12:19:34Z</time>
      </trkpt>
      <trkpt lat="47.60895" lon="6.62911">
        <ele>329.8</ele>
        <time>2025-09-13T12:19:35Z</time>
      </trkpt>
      <trkpt lat="47.60901" lon="6.62909">
        <ele>329.7</ele>
        <time>2025-09-13T12:19:36Z</time>
      </trkpt>
      <trkpt lat="47.60908" lon="6.62906">
        <ele>329.6</ele>
        <time>2025-09-13T12:19:37Z</time>
      </trkpt>
      <trkpt lat="47.60915" lon="6.62903">
        <ele>329.5</ele>
        <time>2025-09-13T12:19:38Z</time>
      </trkpt>
      <trkpt lat="47.60922" lon="6.62902">
        <ele>329.5</ele>
        <time>2025-09-13T12:19:39Z</time>
      </trkpt>
      <trkpt lat="47.60928" lon="6.629">
        <ele>329.5</ele>
        <time>2025-09-13T12:19:40Z</time>
      </trkpt>
      <trkpt lat="47.60934" lon="6.629">
        <ele>329.5</ele>
        <time>2025-09-13T12:19:41Z</time>
      </trkpt>
      <trkpt lat="47.6094" lon="6.629">
        <ele>329.5</ele>
        <time>2025-09-13T12:19:42Z</time>
      </trkpt>
      <trkpt lat="47.60947" lon="6.62897">
        <ele>329.5</ele>
        <time>2025-09-13T12:19:43Z</time>
      </trkpt>
      <trkpt lat="47.60953" lon="6.62895">
        <ele>329.5</ele>
        <time>2025-09-13T12:19:44Z</time>
      </trkpt>
      <trkpt lat="47.6096" lon="6.62894">
        <ele>329.5</ele>
        <time>2025-09-13T12:19:45Z</time>
      </trkpt>
      <trkpt lat="47.60967" lon="6.62894">
        <ele>329.5</ele>
        <time>2025-09-13T12:19:46Z</time>
      </trkpt>
      <trkpt lat="47.60973" lon="6.62893">
        <ele>329.5</ele>
        <time>2025-09-13T12:19:47Z</time>
      </trkpt>
      <trkpt lat="47.60979" lon="6.62892">
        <ele>329.5</ele>
        <time>2025-09-13T12:19:48Z</time>
      </trkpt>
      <trkpt lat="47.60985" lon="6.62892">
        <ele>329.5</ele>
        <time>2025-09-13T12:19:49Z</time>
      </trkpt>
      <trkpt lat="47.60992" lon="6.62891">
        <ele>329.5</ele>
        <time>2025-09-13T12:19:50Z</time>
      </trkpt>
      <trkpt lat="47.60999" lon="6.62889">
        <ele>329.6</ele>
        <time>2025-09-13T12:19:51Z</time>
      </trkpt>
      <trkpt lat="47.61005" lon="6.62887">
        <ele>329.6</ele>
        <time>2025-09-13T12:19:52Z</time>
      </trkpt>
      <trkpt lat="47.61011" lon="6.62885">
        <ele>329.7</ele>
        <time>2025-09-13T12:19:53Z</time>
      </trkpt>
      <trkpt lat="47.61017" lon="6.62885">
        <ele>329.8</ele>
        <time>2025-09-13T12:19:54Z</time>
      </trkpt>
      <trkpt lat="47.61024" lon="6.62885">
        <ele>330</ele>
        <time>2025-09-13T12:19:55Z</time>
      </trkpt>
      <trkpt lat="47.6103" lon="6.62883">
        <ele>330.2</ele>
        <time>2025-09-13T12:19:56Z</time>
      </trkpt>
      <trkpt lat="47.61036" lon="6.62881">
        <ele>330.3</ele>
        <time>2025-09-13T12:19:57Z</time>
      </trkpt>
      <trkpt lat="47.61041" lon="6.62879">
        <ele>330.5</ele>
        <time>2025-09-13T12:19:58Z</time>
      </trkpt>
      <trkpt lat="47.61048" lon="6.62876">
        <ele>330.7</ele>
        <time>2025-09-13T12:19:59Z</time>
      </trkpt>
      <trkpt lat="47.61053" lon="6.62874">
        <ele>330.8</ele>
        <time>2025-09-13T12:20:00Z</time>
      </trkpt>
      <trkpt lat="47.61058" lon="6.62871">
        <ele>331</ele>
        <time>2025-09-13T12:20:01Z</time>
      </trkpt>
      <trkpt lat="47.61064" lon="6.62867">
        <ele>331.1</ele>
        <time>2025-09-13T12:20:02Z</time>
      </trkpt>
      <trkpt lat="47.61069" lon="6.62866">
        <ele>331.2</ele>
        <time>2025-09-13T12:20:03Z</time>
      </trkpt>
      <trkpt lat="47.61073" lon="6.62864">
        <ele>331.3</ele>
        <time>2025-09-13T12:20:04Z</time>
      </trkpt>
      <trkpt lat="47.61077" lon="6.62862">
        <ele>331.4</ele>
        <time>2025-09-13T12:20:05Z</time>
      </trkpt>
      <trkpt lat="47.61081" lon="6.62861">
        <ele>331.5</ele>
        <time>2025-09-13T12:20:06Z</time>
      </trkpt>
      <trkpt lat="47.61084" lon="6.62858">
        <ele>331.5</ele>
        <time>2025-09-13T12:20:07Z</time>
      </trkpt>
      <trkpt lat="47.61088" lon="6.62854">
        <ele>331.5</ele>
        <time>2025-09-13T12:20:08Z</time>
      </trkpt>
      <trkpt lat="47.61092" lon="6.62853">
        <ele>331.6</ele>
        <time>2025-09-13T12:20:09Z</time>
      </trkpt>
      <trkpt lat="47.61097" lon="6.62852">
        <ele>331.6</ele>
        <time>2025-09-13T12:20:10Z</time>
      </trkpt>
      <trkpt lat="47.61101" lon="6.6285">
        <ele>331.5</ele>
        <time>2025-09-13T12:20:11Z</time>
      </trkpt>
      <trkpt lat="47.61106" lon="6.62848">
        <ele>331.5</ele>
        <time>2025-09-13T12:20:12Z</time>
      </trkpt>
      <trkpt lat="47.61111" lon="6.62845">
        <ele>331.5</ele>
        <time>2025-09-13T12:20:13Z</time>
      </trkpt>
      <trkpt lat="47.61116" lon="6.62842">
        <ele>331.5</ele>
        <time>2025-09-13T12:20:14Z</time>
      </trkpt>
      <trkpt lat="47.61121" lon="6.6284">
        <ele>331.4</ele>
        <time>2025-09-13T12:20:15Z</time>
      </trkpt>
      <trkpt lat="47.61126" lon="6.62836">
        <ele>331.4</ele>
        <time>2025-09-13T12:20:16Z</time>
      </trkpt>
      <trkpt lat="47.61131" lon="6.62833">
        <ele>331.4</ele>
        <time>2025-09-13T12:20:17Z</time>
      </trkpt>
      <trkpt lat="47.61136" lon="6.6283">
        <ele>331.4</ele>
        <time>2025-09-13T12:20:18Z</time>
      </trkpt>
      <trkpt lat="47.61141" lon="6.6283">
        <ele>331.4</ele>
        <time>2025-09-13T12:20:19Z</time>
      </trkpt>
      <trkpt lat="47.61146" lon="6.62829">
        <ele>331.4</ele>
        <time>2025-09-13T12:20:20Z</time>
      </trkpt>
      <trkpt lat="47.61153" lon="6.62828">
        <ele>331.5</ele>
        <time>2025-09-13T12:20:21Z</time>
      </trkpt>
      <trkpt lat="47.61158" lon="6.62828">
        <ele>331.6</ele>
        <time>2025-09-13T12:20:23Z</time>
      </trkpt>
      <trkpt lat="47.61163" lon="6.62829">
        <ele>331.6</ele>
        <time>2025-09-13T12:20:24Z</time>
      </trkpt>
      <trkpt lat="47.61174" lon="6.62832">
        <ele>331.6</ele>
        <time>2025-09-13T12:20:25Z</time>
      </trkpt>
      <trkpt lat="47.61179" lon="6.62833">
        <ele>331.6</ele>
        <time>2025-09-13T12:20:26Z</time>
      </trkpt>
      <trkpt lat="47.61185" lon="6.62834">
        <ele>331.4</ele>
        <time>2025-09-13T12:20:27Z</time>
      </trkpt>
      <trkpt lat="47.6119" lon="6.62834">
        <ele>331.3</ele>
        <time>2025-09-13T12:20:28Z</time>
      </trkpt>
      <trkpt lat="47.61198" lon="6.62833">
        <ele>330.9</ele>
        <time>2025-09-13T12:20:29Z</time>
      </trkpt>
      <trkpt lat="47.61204" lon="6.62828">
        <ele>330.6</ele>
        <time>2025-09-13T12:20:30Z</time>
      </trkpt>
      <trkpt lat="47.6121" lon="6.62823">
        <ele>330.3</ele>
        <time>2025-09-13T12:20:31Z</time>
      </trkpt>
      <trkpt lat="47.61217" lon="6.62816">
        <ele>330</ele>
        <time>2025-09-13T12:20:32Z</time>
      </trkpt>
      <trkpt lat="47.61224" lon="6.62809">
        <ele>329.7</ele>
        <time>2025-09-13T12:20:33Z</time>
      </trkpt>
      <trkpt lat="47.6123" lon="6.628">
        <ele>329.5</ele>
        <time>2025-09-13T12:20:35Z</time>
      </trkpt>
      <trkpt lat="47.61241" lon="6.62779">
        <ele>328.9</ele>
        <time>2025-09-13T12:20:36Z</time>
      </trkpt>
      <trkpt lat="47.61246" lon="6.62769">
        <ele>328.7</ele>
        <time>2025-09-13T12:20:37Z</time>
      </trkpt>
      <trkpt lat="47.6125" lon="6.62759">
        <ele>328.6</ele>
        <time>2025-09-13T12:20:38Z</time>
      </trkpt>
      <trkpt lat="47.61254" lon="6.6275">
        <ele>328.6</ele>
        <time>2025-09-13T12:20:39Z</time>
      </trkpt>
      <trkpt lat="47.61259" lon="6.62741">
        <ele>328.8</ele>
        <time>2025-09-13T12:20:40Z</time>
      </trkpt>
      <trkpt lat="47.61263" lon="6.62732">
        <ele>329</ele>
        <time>2025-09-13T12:20:41Z</time>
      </trkpt>
      <trkpt lat="47.61267" lon="6.62726">
        <ele>329.1</ele>
        <time>2025-09-13T12:20:42Z</time>
      </trkpt>
      <trkpt lat="47.6127" lon="6.62718">
        <ele>329.4</ele>
        <time>2025-09-13T12:20:43Z</time>
      </trkpt>
      <trkpt lat="47.61274" lon="6.62711">
        <ele>329.7</ele>
        <time>2025-09-13T12:20:44Z</time>
      </trkpt>
      <trkpt lat="47.61278" lon="6.62705">
        <ele>330</ele>
        <time>2025-09-13T12:20:45Z</time>
      </trkpt>
      <trkpt lat="47.61281" lon="6.62698">
        <ele>330.3</ele>
        <time>2025-09-13T12:20:46Z</time>
      </trkpt>
      <trkpt lat="47.61284" lon="6.62692">
        <ele>330.6</ele>
        <time>2025-09-13T12:20:47Z</time>
      </trkpt>
      <trkpt lat="47.61287" lon="6.62685">
        <ele>330.9</ele>
        <time>2025-09-13T12:20:48Z</time>
      </trkpt>
      <trkpt lat="47.6129" lon="6.62679">
        <ele>331.3</ele>
        <time>2025-09-13T12:20:49Z</time>
      </trkpt>
      <trkpt lat="47.61294" lon="6.62673">
        <ele>331.6</ele>
        <time>2025-09-13T12:20:50Z</time>
      </trkpt>
      <trkpt lat="47.61297" lon="6.62666">
        <ele>332</ele>
        <time>2025-09-13T12:20:51Z</time>
      </trkpt>
      <trkpt lat="47.613" lon="6.6266">
        <ele>332.3</ele>
        <time>2025-09-13T12:20:52Z</time>
      </trkpt>
      <trkpt lat="47.61303" lon="6.62654">
        <ele>332.7</ele>
        <time>2025-09-13T12:20:53Z</time>
      </trkpt>
      <trkpt lat="47.61306" lon="6.62647">
        <ele>333.1</ele>
        <time>2025-09-13T12:20:54Z</time>
      </trkpt>
      <trkpt lat="47.6131" lon="6.6264">
        <ele>333.4</ele>
        <time>2025-09-13T12:20:55Z</time>
      </trkpt>
      <trkpt lat="47.61314" lon="6.62632">
        <ele>333.8</ele>
        <time>2025-09-13T12:20:56Z</time>
      </trkpt>
      <trkpt lat="47.61316" lon="6.62626">
        <ele>334</ele>
        <time>2025-09-13T12:20:57Z</time>
      </trkpt>
      <trkpt lat="47.61319" lon="6.62619">
        <ele>334.2</ele>
        <time>2025-09-13T12:20:58Z</time>
      </trkpt>
      <trkpt lat="47.61321" lon="6.62613">
        <ele>334.2</ele>
        <time>2025-09-13T12:20:59Z</time>
      </trkpt>
      <trkpt lat="47.61324" lon="6.62606">
        <ele>334.3</ele>
        <time>2025-09-13T12:21:00Z</time>
      </trkpt>
      <trkpt lat="47.61326" lon="6.62599">
        <ele>334.2</ele>
        <time>2025-09-13T12:21:01Z</time>
      </trkpt>
      <trkpt lat="47.61328" lon="6.62592">
        <ele>334.2</ele>
        <time>2025-09-13T12:21:02Z</time>
      </trkpt>
      <trkpt lat="47.61331" lon="6.62583">
        <ele>334.1</ele>
        <time>2025-09-13T12:21:03Z</time>
      </trkpt>
      <trkpt lat="47.61333" lon="6.62576">
        <ele>333.9</ele>
        <time>2025-09-13T12:21:04Z</time>
      </trkpt>
      <trkpt lat="47.61336" lon="6.62567">
        <ele>333.7</ele>
        <time>2025-09-13T12:21:05Z</time>
      </trkpt>
      <trkpt lat="47.61339" lon="6.62559">
        <ele>333.4</ele>
        <time>2025-09-13T12:21:06Z</time>
      </trkpt>
      <trkpt lat="47.61342" lon="6.6255">
        <ele>333.1</ele>
        <time>2025-09-13T12:21:07Z</time>
      </trkpt>
      <trkpt lat="47.61344" lon="6.62541">
        <ele>332.8</ele>
        <time>2025-09-13T12:21:08Z</time>
      </trkpt>
      <trkpt lat="47.61347" lon="6.62531">
        <ele>332.5</ele>
        <time>2025-09-13T12:21:09Z</time>
      </trkpt>
      <trkpt lat="47.6135" lon="6.62521">
        <ele>332.2</ele>
        <time>2025-09-13T12:21:10Z</time>
      </trkpt>
      <trkpt lat="47.61353" lon="6.6251">
        <ele>331.9</ele>
        <time>2025-09-13T12:21:11Z</time>
      </trkpt>
      <trkpt lat="47.61356" lon="6.62498">
        <ele>331.6</ele>
        <time>2025-09-13T12:21:12Z</time>
      </trkpt>
      <trkpt lat="47.61358" lon="6.62488">
        <ele>331.4</ele>
        <time>2025-09-13T12:21:13Z</time>
      </trkpt>
      <trkpt lat="47.61361" lon="6.62478">
        <ele>331.2</ele>
        <time>2025-09-13T12:21:14Z</time>
      </trkpt>
      <trkpt lat="47.61364" lon="6.62466">
        <ele>331.1</ele>
        <time>2025-09-13T12:21:15Z</time>
      </trkpt>
      <trkpt lat="47.61366" lon="6.62455">
        <ele>331</ele>
        <time>2025-09-13T12:21:16Z</time>
      </trkpt>
      <trkpt lat="47.61369" lon="6.62445">
        <ele>330.9</ele>
        <time>2025-09-13T12:21:17Z</time>
      </trkpt>
      <trkpt lat="47.61371" lon="6.62434">
        <ele>330.8</ele>
        <time>2025-09-13T12:21:18Z</time>
      </trkpt>
      <trkpt lat="47.61374" lon="6.62424">
        <ele>330.8</ele>
        <time>2025-09-13T12:21:19Z</time>
      </trkpt>
      <trkpt lat="47.61378" lon="6.62412">
        <ele>330.9</ele>
        <time>2025-09-13T12:21:20Z</time>
      </trkpt>
      <trkpt lat="47.61381" lon="6.62402">
        <ele>331</ele>
        <time>2025-09-13T12:21:21Z</time>
      </trkpt>
      <trkpt lat="47.61386" lon="6.62392">
        <ele>331.1</ele>
        <time>2025-09-13T12:21:22Z</time>
      </trkpt>
      <trkpt lat="47.61389" lon="6.62382">
        <ele>331.2</ele>
        <time>2025-09-13T12:21:23Z</time>
      </trkpt>
      <trkpt lat="47.61392" lon="6.62373">
        <ele>331.3</ele>
        <time>2025-09-13T12:21:24Z</time>
      </trkpt>
      <trkpt lat="47.61396" lon="6.62362">
        <ele>331.5</ele>
        <time>2025-09-13T12:21:25Z</time>
      </trkpt>
      <trkpt lat="47.61399" lon="6.62354">
        <ele>331.5</ele>
        <time>2025-09-13T12:21:26Z</time>
      </trkpt>
      <trkpt lat="47.61402" lon="6.62345">
        <ele>331.5</ele>
        <time>2025-09-13T12:21:27Z</time>
      </trkpt>
      <trkpt lat="47.61405" lon="6.62337">
        <ele>331.4</ele>
        <time>2025-09-13T12:21:28Z</time>
      </trkpt>
      <trkpt lat="47.61408" lon="6.62329">
        <ele>331.3</ele>
        <time>2025-09-13T12:21:29Z</time>
      </trkpt>
      <trkpt lat="47.61411" lon="6.6232">
        <ele>331.1</ele>
        <time>2025-09-13T12:21:30Z</time>
      </trkpt>
      <trkpt lat="47.61414" lon="6.62311">
        <ele>330.9</ele>
        <time>2025-09-13T12:21:31Z</time>
      </trkpt>
      <trkpt lat="47.61417" lon="6.62303">
        <ele>330.6</ele>
        <time>2025-09-13T12:21:32Z</time>
      </trkpt>
      <trkpt lat="47.6142" lon="6.62295">
        <ele>330.3</ele>
        <time>2025-09-13T12:21:33Z</time>
      </trkpt>
      <trkpt lat="47.61426" lon="6.62283">
        <ele>329.8</ele>
        <time>2025-09-13T12:21:34Z</time>
      </trkpt>
      <trkpt lat="47.6143" lon="6.62274">
        <ele>329.4</ele>
        <time>2025-09-13T12:21:35Z</time>
      </trkpt>
      <trkpt lat="47.61435" lon="6.62265">
        <ele>329</ele>
        <time>2025-09-13T12:21:36Z</time>
      </trkpt>
      <trkpt lat="47.61441" lon="6.62255">
        <ele>328.5</ele>
        <time>2025-09-13T12:21:37Z</time>
      </trkpt>
      <trkpt lat="47.61446" lon="6.62246">
        <ele>328.2</ele>
        <time>2025-09-13T12:21:38Z</time>
      </trkpt>
      <trkpt lat="47.61453" lon="6.62236">
        <ele>327.7</ele>
        <time>2025-09-13T12:21:39Z</time>
      </trkpt>
      <trkpt lat="47.61459" lon="6.62227">
        <ele>327.4</ele>
        <time>2025-09-13T12:21:40Z</time>
      </trkpt>
      <trkpt lat="47.61466" lon="6.62218">
        <ele>327</ele>
        <time>2025-09-13T12:21:41Z</time>
      </trkpt>
      <trkpt lat="47.61473" lon="6.62208">
        <ele>326.8</ele>
        <time>2025-09-13T12:21:42Z</time>
      </trkpt>
      <trkpt lat="47.61479" lon="6.622">
        <ele>326.6</ele>
        <time>2025-09-13T12:21:43Z</time>
      </trkpt>
      <trkpt lat="47.61487" lon="6.62192">
        <ele>326.4</ele>
        <time>2025-09-13T12:21:44Z</time>
      </trkpt>
      <trkpt lat="47.61492" lon="6.62184">
        <ele>326.3</ele>
        <time>2025-09-13T12:21:45Z</time>
      </trkpt>
      <trkpt lat="47.61498" lon="6.62176">
        <ele>326.1</ele>
        <time>2025-09-13T12:21:46Z</time>
      </trkpt>
      <trkpt lat="47.61506" lon="6.62168">
        <ele>325.8</ele>
        <time>2025-09-13T12:21:47Z</time>
      </trkpt>
      <trkpt lat="47.61514" lon="6.62158">
        <ele>325.5</ele>
        <time>2025-09-13T12:21:48Z</time>
      </trkpt>
      <trkpt lat="47.6152" lon="6.62152">
        <ele>325.2</ele>
        <time>2025-09-13T12:21:49Z</time>
      </trkpt>
      <trkpt lat="47.61525" lon="6.62148">
        <ele>325</ele>
        <time>2025-09-13T12:21:50Z</time>
      </trkpt>
      <trkpt lat="47.61532" lon="6.62139">
        <ele>324.7</ele>
        <time>2025-09-13T12:21:51Z</time>
      </trkpt>
      <trkpt lat="47.61539" lon="6.62133">
        <ele>324.5</ele>
        <time>2025-09-13T12:21:52Z</time>
      </trkpt>
      <trkpt lat="47.61547" lon="6.62125">
        <ele>324.3</ele>
        <time>2025-09-13T12:21:53Z</time>
      </trkpt>
      <trkpt lat="47.61551" lon="6.62119">
        <ele>324.2</ele>
        <time>2025-09-13T12:21:54Z</time>
      </trkpt>
      <trkpt lat="47.61558" lon="6.62113">
        <ele>324</ele>
        <time>2025-09-13T12:21:55Z</time>
      </trkpt>
      <trkpt lat="47.61564" lon="6.62106">
        <ele>323.8</ele>
        <time>2025-09-13T12:21:56Z</time>
      </trkpt>
      <trkpt lat="47.61571" lon="6.62099">
        <ele>323.6</ele>
        <time>2025-09-13T12:21:57Z</time>
      </trkpt>
      <trkpt lat="47.61578" lon="6.6209">
        <ele>323.3</ele>
        <time>2025-09-13T12:21:58Z</time>
      </trkpt>
      <trkpt lat="47.61583" lon="6.62084">
        <ele>323.1</ele>
        <time>2025-09-13T12:21:59Z</time>
      </trkpt>
      <trkpt lat="47.61588" lon="6.62074">
        <ele>322.8</ele>
        <time>2025-09-13T12:22:00Z</time>
      </trkpt>
      <trkpt lat="47.61593" lon="6.62065">
        <ele>322.5</ele>
        <time>2025-09-13T12:22:01Z</time>
      </trkpt>
      <trkpt lat="47.61599" lon="6.62055">
        <ele>322.2</ele>
        <time>2025-09-13T12:22:02Z</time>
      </trkpt>
      <trkpt lat="47.61604" lon="6.62046">
        <ele>321.9</ele>
        <time>2025-09-13T12:22:03Z</time>
      </trkpt>
      <trkpt lat="47.61609" lon="6.62037">
        <ele>321.6</ele>
        <time>2025-09-13T12:22:04Z</time>
      </trkpt>
      <trkpt lat="47.61615" lon="6.62027">
        <ele>321.4</ele>
        <time>2025-09-13T12:22:05Z</time>
      </trkpt>
      <trkpt lat="47.61621" lon="6.6202">
        <ele>321.2</ele>
        <time>2025-09-13T12:22:06Z</time>
      </trkpt>
      <trkpt lat="47.61628" lon="6.62012">
        <ele>320.9</ele>
        <time>2025-09-13T12:22:07Z</time>
      </trkpt>
      <trkpt lat="47.61635" lon="6.62003">
        <ele>320.7</ele>
        <time>2025-09-13T12:22:08Z</time>
      </trkpt>
      <trkpt lat="47.61643" lon="6.61994">
        <ele>320.4</ele>
        <time>2025-09-13T12:22:09Z</time>
      </trkpt>
      <trkpt lat="47.61652" lon="6.61987">
        <ele>320.1</ele>
        <time>2025-09-13T12:22:10Z</time>
      </trkpt>
      <trkpt lat="47.6166" lon="6.61983">
        <ele>319.9</ele>
        <time>2025-09-13T12:22:11Z</time>
      </trkpt>
      <trkpt lat="47.61669" lon="6.61982">
        <ele>319.7</ele>
        <time>2025-09-13T12:22:12Z</time>
      </trkpt>
      <trkpt lat="47.61678" lon="6.61981">
        <ele>319.5</ele>
        <time>2025-09-13T12:22:13Z</time>
      </trkpt>
      <trkpt lat="47.61685" lon="6.61985">
        <ele>319.3</ele>
        <time>2025-09-13T12:22:14Z</time>
      </trkpt>
      <trkpt lat="47.61694" lon="6.6199">
        <ele>319.2</ele>
        <time>2025-09-13T12:22:15Z</time>
      </trkpt>
      <trkpt lat="47.61702" lon="6.61992">
        <ele>319.1</ele>
        <time>2025-09-13T12:22:16Z</time>
      </trkpt>
      <trkpt lat="47.61711" lon="6.61993">
        <ele>319.1</ele>
        <time>2025-09-13T12:22:17Z</time>
      </trkpt>
      <trkpt lat="47.6172" lon="6.61991">
        <ele>319.2</ele>
        <time>2025-09-13T12:22:18Z</time>
      </trkpt>
      <trkpt lat="47.61726" lon="6.61986">
        <ele>319.2</ele>
        <time>2025-09-13T12:22:19Z</time>
      </trkpt>
      <trkpt lat="47.61733" lon="6.61982">
        <ele>319.4</ele>
        <time>2025-09-13T12:22:20Z</time>
      </trkpt>
      <trkpt lat="47.61742" lon="6.61976">
        <ele>319.6</ele>
        <time>2025-09-13T12:22:21Z</time>
      </trkpt>
      <trkpt lat="47.61748" lon="6.61969">
        <ele>319.9</ele>
        <time>2025-09-13T12:22:22Z</time>
      </trkpt>
      <trkpt lat="47.61753" lon="6.61961">
        <ele>320.2</ele>
        <time>2025-09-13T12:22:23Z</time>
      </trkpt>
      <trkpt lat="47.61757" lon="6.61953">
        <ele>320.4</ele>
        <time>2025-09-13T12:22:24Z</time>
      </trkpt>
      <trkpt lat="47.61759" lon="6.61944">
        <ele>320.6</ele>
        <time>2025-09-13T12:22:25Z</time>
      </trkpt>
      <trkpt lat="47.6176" lon="6.61934">
        <ele>320.9</ele>
        <time>2025-09-13T12:22:26Z</time>
      </trkpt>
      <trkpt lat="47.6176" lon="6.61924">
        <ele>321.2</ele>
        <time>2025-09-13T12:22:27Z</time>
      </trkpt>
      <trkpt lat="47.6176" lon="6.61914">
        <ele>321.6</ele>
        <time>2025-09-13T12:22:28Z</time>
      </trkpt>
      <trkpt lat="47.6176" lon="6.61905">
        <ele>321.9</ele>
        <time>2025-09-13T12:22:29Z</time>
      </trkpt>
      <trkpt lat="47.6176" lon="6.61899">
        <ele>322.2</ele>
        <time>2025-09-13T12:22:30Z</time>
      </trkpt>
      <trkpt lat="47.6176" lon="6.6189">
        <ele>322.5</ele>
        <time>2025-09-13T12:22:31Z</time>
      </trkpt>
      <trkpt lat="47.61759" lon="6.61883">
        <ele>322.8</ele>
        <time>2025-09-13T12:22:32Z</time>
      </trkpt>
      <trkpt lat="47.6176" lon="6.61875">
        <ele>323.1</ele>
        <time>2025-09-13T12:22:33Z</time>
      </trkpt>
      <trkpt lat="47.61761" lon="6.61868">
        <ele>323.4</ele>
        <time>2025-09-13T12:22:34Z</time>
      </trkpt>
      <trkpt lat="47.61762" lon="6.6186">
        <ele>323.8</ele>
        <time>2025-09-13T12:22:35Z</time>
      </trkpt>
      <trkpt lat="47.61763" lon="6.61852">
        <ele>324.1</ele>
        <time>2025-09-13T12:22:36Z</time>
      </trkpt>
      <trkpt lat="47.61765" lon="6.61845">
        <ele>324.4</ele>
        <time>2025-09-13T12:22:37Z</time>
      </trkpt>
      <trkpt lat="47.61765" lon="6.61839">
        <ele>324.7</ele>
        <time>2025-09-13T12:22:38Z</time>
      </trkpt>
      <trkpt lat="47.61766" lon="6.61833">
        <ele>324.9</ele>
        <time>2025-09-13T12:22:39Z</time>
      </trkpt>
      <trkpt lat="47.61766" lon="6.61827">
        <ele>325.1</ele>
        <time>2025-09-13T12:22:40Z</time>
      </trkpt>
      <trkpt lat="47.61768" lon="6.6182">
        <ele>325.4</ele>
        <time>2025-09-13T12:22:41Z</time>
      </trkpt>
      <trkpt lat="47.6177" lon="6.61813">
        <ele>325.7</ele>
        <time>2025-09-13T12:22:42Z</time>
      </trkpt>
      <trkpt lat="47.61771" lon="6.61806">
        <ele>325.9</ele>
        <time>2025-09-13T12:22:43Z</time>
      </trkpt>
      <trkpt lat="47.61772" lon="6.61799">
        <ele>326.1</ele>
        <time>2025-09-13T12:22:44Z</time>
      </trkpt>
      <trkpt lat="47.61774" lon="6.61791">
        <ele>326.5</ele>
        <time>2025-09-13T12:22:45Z</time>
      </trkpt>
      <trkpt lat="47.61775" lon="6.61784">
        <ele>326.7</ele>
        <time>2025-09-13T12:22:46Z</time>
      </trkpt>
      <trkpt lat="47.61776" lon="6.61778">
        <ele>326.9</ele>
        <time>2025-09-13T12:22:47Z</time>
      </trkpt>
      <trkpt lat="47.61777" lon="6.61771">
        <ele>327.1</ele>
        <time>2025-09-13T12:22:48Z</time>
      </trkpt>
      <trkpt lat="47.61779" lon="6.61764">
        <ele>327.3</ele>
        <time>2025-09-13T12:22:49Z</time>
      </trkpt>
      <trkpt lat="47.6178" lon="6.61758">
        <ele>327.5</ele>
        <time>2025-09-13T12:22:50Z</time>
      </trkpt>
      <trkpt lat="47.61781" lon="6.6175">
        <ele>327.7</ele>
        <time>2025-09-13T12:22:51Z</time>
      </trkpt>
      <trkpt lat="47.61781" lon="6.61744">
        <ele>327.9</ele>
        <time>2025-09-13T12:22:52Z</time>
      </trkpt>
      <trkpt lat="47.61782" lon="6.61736">
        <ele>328.2</ele>
        <time>2025-09-13T12:22:53Z</time>
      </trkpt>
      <trkpt lat="47.61784" lon="6.61729">
        <ele>328.4</ele>
        <time>2025-09-13T12:22:54Z</time>
      </trkpt>
      <trkpt lat="47.61786" lon="6.61722">
        <ele>328.6</ele>
        <time>2025-09-13T12:22:55Z</time>
      </trkpt>
      <trkpt lat="47.61787" lon="6.61715">
        <ele>328.8</ele>
        <time>2025-09-13T12:22:56Z</time>
      </trkpt>
      <trkpt lat="47.61788" lon="6.61708">
        <ele>329</ele>
        <time>2025-09-13T12:22:57Z</time>
      </trkpt>
      <trkpt lat="47.6179" lon="6.617">
        <ele>329.2</ele>
        <time>2025-09-13T12:22:58Z</time>
      </trkpt>
      <trkpt lat="47.61791" lon="6.61693">
        <ele>329.5</ele>
        <time>2025-09-13T12:22:59Z</time>
      </trkpt>
      <trkpt lat="47.61793" lon="6.61686">
        <ele>329.7</ele>
        <time>2025-09-13T12:23:00Z</time>
      </trkpt>
      <trkpt lat="47.61794" lon="6.61679">
        <ele>329.9</ele>
        <time>2025-09-13T12:23:01Z</time>
      </trkpt>
      <trkpt lat="47.61795" lon="6.61672">
        <ele>330.1</ele>
        <time>2025-09-13T12:23:02Z</time>
      </trkpt>
      <trkpt lat="47.61796" lon="6.61667">
        <ele>330.3</ele>
        <time>2025-09-13T12:23:03Z</time>
      </trkpt>
      <trkpt lat="47.61798" lon="6.6166">
        <ele>330.5</ele>
        <time>2025-09-13T12:23:04Z</time>
      </trkpt>
      <trkpt lat="47.61798" lon="6.61654">
        <ele>330.7</ele>
        <time>2025-09-13T12:23:05Z</time>
      </trkpt>
      <trkpt lat="47.618" lon="6.61646">
        <ele>330.9</ele>
        <time>2025-09-13T12:23:06Z</time>
      </trkpt>
      <trkpt lat="47.61801" lon="6.61639">
        <ele>331.1</ele>
        <time>2025-09-13T12:23:07Z</time>
      </trkpt>
      <trkpt lat="47.61803" lon="6.61632">
        <ele>331.3</ele>
        <time>2025-09-13T12:23:08Z</time>
      </trkpt>
      <trkpt lat="47.61805" lon="6.61624">
        <ele>331.6</ele>
        <time>2025-09-13T12:23:09Z</time>
      </trkpt>
      <trkpt lat="47.61806" lon="6.61618">
        <ele>331.8</ele>
        <time>2025-09-13T12:23:10Z</time>
      </trkpt>
      <trkpt lat="47.61808" lon="6.6161">
        <ele>332.1</ele>
        <time>2025-09-13T12:23:11Z</time>
      </trkpt>
      <trkpt lat="47.61809" lon="6.61605">
        <ele>332.3</ele>
        <time>2025-09-13T12:23:12Z</time>
      </trkpt>
      <trkpt lat="47.61811" lon="6.61599">
        <ele>332.5</ele>
        <time>2025-09-13T12:23:13Z</time>
      </trkpt>
      <trkpt lat="47.61812" lon="6.61593">
        <ele>332.8</ele>
        <time>2025-09-13T12:23:14Z</time>
      </trkpt>
      <trkpt lat="47.61813" lon="6.61585">
        <ele>333</ele>
        <time>2025-09-13T12:23:15Z</time>
      </trkpt>
      <trkpt lat="47.61814" lon="6.61578">
        <ele>333.2</ele>
        <time>2025-09-13T12:23:16Z</time>
      </trkpt>
      <trkpt lat="47.61816" lon="6.61572">
        <ele>333.4</ele>
        <time>2025-09-13T12:23:17Z</time>
      </trkpt>
      <trkpt lat="47.61818" lon="6.61565">
        <ele>333.7</ele>
        <time>2025-09-13T12:23:18Z</time>
      </trkpt>
      <trkpt lat="47.6182" lon="6.61559">
        <ele>333.9</ele>
        <time>2025-09-13T12:23:19Z</time>
      </trkpt>
      <trkpt lat="47.61822" lon="6.61552">
        <ele>334.1</ele>
        <time>2025-09-13T12:23:20Z</time>
      </trkpt>
      <trkpt lat="47.61823" lon="6.61546">
        <ele>334.3</ele>
        <time>2025-09-13T12:23:21Z</time>
      </trkpt>
      <trkpt lat="47.61826" lon="6.61538">
        <ele>334.6</ele>
        <time>2025-09-13T12:23:22Z</time>
      </trkpt>
      <trkpt lat="47.61827" lon="6.61533">
        <ele>334.8</ele>
        <time>2025-09-13T12:23:23Z</time>
      </trkpt>
      <trkpt lat="47.61829" lon="6.61526">
        <ele>335</ele>
        <time>2025-09-13T12:23:24Z</time>
      </trkpt>
      <trkpt lat="47.6183" lon="6.61521">
        <ele>335.1</ele>
        <time>2025-09-13T12:23:25Z</time>
      </trkpt>
      <trkpt lat="47.61832" lon="6.61514">
        <ele>335.4</ele>
        <time>2025-09-13T12:23:26Z</time>
      </trkpt>
      <trkpt lat="47.61833" lon="6.61509">
        <ele>335.5</ele>
        <time>2025-09-13T12:23:27Z</time>
      </trkpt>
      <trkpt lat="47.61835" lon="6.61503">
        <ele>335.7</ele>
        <time>2025-09-13T12:23:28Z</time>
      </trkpt>
      <trkpt lat="47.61837" lon="6.61496">
        <ele>335.9</ele>
        <time>2025-09-13T12:23:29Z</time>
      </trkpt>
      <trkpt lat="47.61839" lon="6.61491">
        <ele>336.1</ele>
        <time>2025-09-13T12:23:30Z</time>
      </trkpt>
      <trkpt lat="47.61841" lon="6.61485">
        <ele>336.3</ele>
        <time>2025-09-13T12:23:31Z</time>
      </trkpt>
      <trkpt lat="47.61843" lon="6.6148">
        <ele>336.4</ele>
        <time>2025-09-13T12:23:32Z</time>
      </trkpt>
      <trkpt lat="47.61847" lon="6.61475">
        <ele>336.6</ele>
        <time>2025-09-13T12:23:33Z</time>
      </trkpt>
      <trkpt lat="47.6185" lon="6.61471">
        <ele>336.7</ele>
        <time>2025-09-13T12:23:34Z</time>
      </trkpt>
      <trkpt lat="47.61852" lon="6.61468">
        <ele>336.9</ele>
        <time>2025-09-13T12:23:35Z</time>
      </trkpt>
      <trkpt lat="47.61856" lon="6.61465">
        <ele>337</ele>
        <time>2025-09-13T12:23:36Z</time>
      </trkpt>
      <trkpt lat="47.61861" lon="6.61461">
        <ele>337.2</ele>
        <time>2025-09-13T12:23:37Z</time>
      </trkpt>
      <trkpt lat="47.61865" lon="6.6146">
        <ele>337.4</ele>
        <time>2025-09-13T12:23:38Z</time>
      </trkpt>
      <trkpt lat="47.61869" lon="6.61458">
        <ele>337.6</ele>
        <time>2025-09-13T12:23:39Z</time>
      </trkpt>
      <trkpt lat="47.61874" lon="6.61459">
        <ele>337.8</ele>
        <time>2025-09-13T12:23:40Z</time>
      </trkpt>
      <trkpt lat="47.61878" lon="6.61459">
        <ele>337.9</ele>
        <time>2025-09-13T12:23:41Z</time>
      </trkpt>
      <trkpt lat="47.61883" lon="6.61461">
        <ele>338.1</ele>
        <time>2025-09-13T12:23:42Z</time>
      </trkpt>
      <trkpt lat="47.61887" lon="6.61461">
        <ele>338.3</ele>
        <time>2025-09-13T12:23:43Z</time>
      </trkpt>
      <trkpt lat="47.61891" lon="6.6146">
        <ele>338.4</ele>
        <time>2025-09-13T12:23:44Z</time>
      </trkpt>
      <trkpt lat="47.61894" lon="6.61461">
        <ele>338.6</ele>
        <time>2025-09-13T12:23:45Z</time>
      </trkpt>
      <trkpt lat="47.61898" lon="6.61462">
        <ele>338.8</ele>
        <time>2025-09-13T12:23:46Z</time>
      </trkpt>
      <trkpt lat="47.61902" lon="6.61462">
        <ele>338.9</ele>
        <time>2025-09-13T12:23:47Z</time>
      </trkpt>
      <trkpt lat="47.61907" lon="6.61462">
        <ele>339.1</ele>
        <time>2025-09-13T12:23:48Z</time>
      </trkpt>
      <trkpt lat="47.61911" lon="6.61462">
        <ele>339.3</ele>
        <time>2025-09-13T12:23:49Z</time>
      </trkpt>
      <trkpt lat="47.61915" lon="6.61462">
        <ele>339.5</ele>
        <time>2025-09-13T12:23:50Z</time>
      </trkpt>
      <trkpt lat="47.61919" lon="6.61463">
        <ele>339.6</ele>
        <time>2025-09-13T12:23:51Z</time>
      </trkpt>
      <trkpt lat="47.61922" lon="6.61463">
        <ele>339.8</ele>
        <time>2025-09-13T12:23:52Z</time>
      </trkpt>
      <trkpt lat="47.61927" lon="6.61463">
        <ele>340</ele>
        <time>2025-09-13T12:23:53Z</time>
      </trkpt>
      <trkpt lat="47.61931" lon="6.61462">
        <ele>340.2</ele>
        <time>2025-09-13T12:23:54Z</time>
      </trkpt>
      <trkpt lat="47.61935" lon="6.61461">
        <ele>340.4</ele>
        <time>2025-09-13T12:23:55Z</time>
      </trkpt>
      <trkpt lat="47.61939" lon="6.61461">
        <ele>340.6</ele>
        <time>2025-09-13T12:23:56Z</time>
      </trkpt>
      <trkpt lat="47.61943" lon="6.61461">
        <ele>340.8</ele>
        <time>2025-09-13T12:23:57Z</time>
      </trkpt>
      <trkpt lat="47.61947" lon="6.61459">
        <ele>341</ele>
        <time>2025-09-13T12:23:58Z</time>
      </trkpt>
      <trkpt lat="47.6195" lon="6.61459">
        <ele>341.2</ele>
        <time>2025-09-13T12:23:59Z</time>
      </trkpt>
      <trkpt lat="47.61954" lon="6.61459">
        <ele>341.4</ele>
        <time>2025-09-13T12:24:00Z</time>
      </trkpt>
      <trkpt lat="47.61959" lon="6.61459">
        <ele>341.6</ele>
        <time>2025-09-13T12:24:01Z</time>
      </trkpt>
      <trkpt lat="47.61961" lon="6.61459">
        <ele>341.8</ele>
        <time>2025-09-13T12:24:02Z</time>
      </trkpt>
      <trkpt lat="47.61964" lon="6.61458">
        <ele>342</ele>
        <time>2025-09-13T12:24:03Z</time>
      </trkpt>
      <trkpt lat="47.61969" lon="6.61458">
        <ele>342.3</ele>
        <time>2025-09-13T12:24:04Z</time>
      </trkpt>
      <trkpt lat="47.61973" lon="6.61458">
        <ele>342.5</ele>
        <time>2025-09-13T12:24:05Z</time>
      </trkpt>
      <trkpt lat="47.61976" lon="6.61458">
        <ele>342.7</ele>
        <time>2025-09-13T12:24:06Z</time>
      </trkpt>
      <trkpt lat="47.61979" lon="6.61457">
        <ele>342.9</ele>
        <time>2025-09-13T12:24:07Z</time>
      </trkpt>
      <trkpt lat="47.61982" lon="6.61456">
        <ele>343.1</ele>
        <time>2025-09-13T12:24:08Z</time>
      </trkpt>
      <trkpt lat="47.61985" lon="6.61457">
        <ele>343.4</ele>
        <time>2025-09-13T12:24:09Z</time>
      </trkpt>
      <trkpt lat="47.61989" lon="6.61457">
        <ele>343.6</ele>
        <time>2025-09-13T12:24:10Z</time>
      </trkpt>
      <trkpt lat="47.61993" lon="6.61458">
        <ele>343.9</ele>
        <time>2025-09-13T12:24:11Z</time>
      </trkpt>
      <trkpt lat="47.61997" lon="6.61459">
        <ele>344.1</ele>
        <time>2025-09-13T12:24:12Z</time>
      </trkpt>
      <trkpt lat="47.62001" lon="6.61459">
        <ele>344.4</ele>
        <time>2025-09-13T12:24:13Z</time>
      </trkpt>
      <trkpt lat="47.62006" lon="6.61459">
        <ele>344.7</ele>
        <time>2025-09-13T12:24:14Z</time>
      </trkpt>
      <trkpt lat="47.62007" lon="6.6146">
        <ele>344.8</ele>
        <time>2025-09-13T12:24:15Z</time>
      </trkpt>
      <trkpt lat="47.62011" lon="6.6146">
        <ele>345</ele>
        <time>2025-09-13T12:24:16Z</time>
      </trkpt>
      <trkpt lat="47.62016" lon="6.6146">
        <ele>345.3</ele>
        <time>2025-09-13T12:24:17Z</time>
      </trkpt>
      <trkpt lat="47.62019" lon="6.6146">
        <ele>345.6</ele>
        <time>2025-09-13T12:24:18Z</time>
      </trkpt>
      <trkpt lat="47.62023" lon="6.61461">
        <ele>345.8</ele>
        <time>2025-09-13T12:24:19Z</time>
      </trkpt>
      <trkpt lat="47.62023" lon="6.61462">
        <ele>345.9</ele>
        <time>2025-09-13T12:24:20Z</time>
      </trkpt>
      <trkpt lat="47.62025" lon="6.61462">
        <ele>346</ele>
        <time>2025-09-13T12:24:21Z</time>
      </trkpt>
      <trkpt lat="47.62027" lon="6.61462">
        <ele>346.1</ele>
        <time>2025-09-13T12:24:22Z</time>
      </trkpt>
      <trkpt lat="47.6203" lon="6.61463">
        <ele>346.3</ele>
        <time>2025-09-13T12:24:23Z</time>
      </trkpt>
      <trkpt lat="47.62032" lon="6.61463">
        <ele>346.4</ele>
        <time>2025-09-13T12:24:24Z</time>
      </trkpt>
      <trkpt lat="47.62035" lon="6.61464">
        <ele>346.6</ele>
        <time>2025-09-13T12:24:25Z</time>
      </trkpt>
      <trkpt lat="47.62038" lon="6.61466">
        <ele>346.9</ele>
        <time>2025-09-13T12:24:26Z</time>
      </trkpt>
      <trkpt lat="47.6204" lon="6.61466">
        <ele>347</ele>
        <time>2025-09-13T12:24:27Z</time>
      </trkpt>
      <trkpt lat="47.62044" lon="6.61467">
        <ele>347.3</ele>
        <time>2025-09-13T12:24:28Z</time>
      </trkpt>
      <trkpt lat="47.62046" lon="6.61468">
        <ele>347.4</ele>
        <time>2025-09-13T12:24:29Z</time>
      </trkpt>
      <trkpt lat="47.62049" lon="6.61471">
        <ele>347.7</ele>
        <time>2025-09-13T12:24:30Z</time>
      </trkpt>
      <trkpt lat="47.62051" lon="6.6147">
        <ele>347.8</ele>
        <time>2025-09-13T12:24:31Z</time>
      </trkpt>
      <trkpt lat="47.62056" lon="6.61472">
        <ele>348.1</ele>
        <time>2025-09-13T12:24:32Z</time>
      </trkpt>
      <trkpt lat="47.62058" lon="6.61472">
        <ele>348.3</ele>
        <time>2025-09-13T12:24:33Z</time>
      </trkpt>
      <trkpt lat="47.62062" lon="6.61476">
        <ele>348.6</ele>
        <time>2025-09-13T12:24:34Z</time>
      </trkpt>
      <trkpt lat="47.62064" lon="6.6148">
        <ele>348.8</ele>
        <time>2025-09-13T12:24:35Z</time>
      </trkpt>
      <trkpt lat="47.62067" lon="6.6148">
        <ele>349.1</ele>
        <time>2025-09-13T12:24:36Z</time>
      </trkpt>
      <trkpt lat="47.6207" lon="6.61481">
        <ele>349.3</ele>
        <time>2025-09-13T12:24:37Z</time>
      </trkpt>
      <trkpt lat="47.62073" lon="6.61482">
        <ele>349.5</ele>
        <time>2025-09-13T12:24:38Z</time>
      </trkpt>
      <trkpt lat="47.62077" lon="6.61484">
        <ele>349.7</ele>
        <time>2025-09-13T12:24:39Z</time>
      </trkpt>
      <trkpt lat="47.62081" lon="6.61484">
        <ele>350</ele>
        <time>2025-09-13T12:24:40Z</time>
      </trkpt>
      <trkpt lat="47.62082" lon="6.61484">
        <ele>350.1</ele>
        <time>2025-09-13T12:24:41Z</time>
      </trkpt>
      <trkpt lat="47.62084" lon="6.61483">
        <ele>350.2</ele>
        <time>2025-09-13T12:24:42Z</time>
      </trkpt>
      <trkpt lat="47.62085" lon="6.6148">
        <ele>350.3</ele>
        <time>2025-09-13T12:24:43Z</time>
      </trkpt>
      <trkpt lat="47.6209" lon="6.61479">
        <ele>350.6</ele>
        <time>2025-09-13T12:24:44Z</time>
      </trkpt>
      <trkpt lat="47.62092" lon="6.61478">
        <ele>350.8</ele>
        <time>2025-09-13T12:24:45Z</time>
      </trkpt>
      <trkpt lat="47.62093" lon="6.61484">
        <ele>351.1</ele>
        <time>2025-09-13T12:24:46Z</time>
      </trkpt>
      <trkpt lat="47.62095" lon="6.61489">
        <ele>351.3</ele>
        <time>2025-09-13T12:24:47Z</time>
      </trkpt>
      <trkpt lat="47.62098" lon="6.61493">
        <ele>351.5</ele>
        <time>2025-09-13T12:24:48Z</time>
      </trkpt>
      <trkpt lat="47.62102" lon="6.61495">
        <ele>351.8</ele>
        <time>2025-09-13T12:24:49Z</time>
      </trkpt>
      <trkpt lat="47.62107" lon="6.61496">
        <ele>352</ele>
        <time>2025-09-13T12:24:50Z</time>
      </trkpt>
      <trkpt lat="47.62111" lon="6.61499">
        <ele>352.3</ele>
        <time>2025-09-13T12:24:51Z</time>
      </trkpt>
      <trkpt lat="47.62116" lon="6.61501">
        <ele>352.6</ele>
        <time>2025-09-13T12:24:52Z</time>
      </trkpt>
      <trkpt lat="47.62122" lon="6.61503">
        <ele>353</ele>
        <time>2025-09-13T12:24:53Z</time>
      </trkpt>
      <trkpt lat="47.62127" lon="6.61506">
        <ele>353.3</ele>
        <time>2025-09-13T12:24:54Z</time>
      </trkpt>
      <trkpt lat="47.62131" lon="6.61508">
        <ele>353.6</ele>
        <time>2025-09-13T12:24:55Z</time>
      </trkpt>
      <trkpt lat="47.62136" lon="6.61513">
        <ele>353.9</ele>
        <time>2025-09-13T12:24:56Z</time>
      </trkpt>
      <trkpt lat="47.6214" lon="6.61518">
        <ele>354.2</ele>
        <time>2025-09-13T12:24:57Z</time>
      </trkpt>
      <trkpt lat="47.62145" lon="6.61523">
        <ele>354.6</ele>
        <time>2025-09-13T12:24:58Z</time>
      </trkpt>
      <trkpt lat="47.62149" lon="6.61527">
        <ele>354.9</ele>
        <time>2025-09-13T12:24:59Z</time>
      </trkpt>
      <trkpt lat="47.62153" lon="6.6153">
        <ele>355.2</ele>
        <time>2025-09-13T12:25:00Z</time>
      </trkpt>
      <trkpt lat="47.62158" lon="6.61533">
        <ele>355.5</ele>
        <time>2025-09-13T12:25:01Z</time>
      </trkpt>
      <trkpt lat="47.62163" lon="6.61535">
        <ele>355.9</ele>
        <time>2025-09-13T12:25:02Z</time>
      </trkpt>
      <trkpt lat="47.62168" lon="6.6154">
        <ele>356.2</ele>
        <time>2025-09-13T12:25:03Z</time>
      </trkpt>
      <trkpt lat="47.62172" lon="6.61542">
        <ele>356.5</ele>
        <time>2025-09-13T12:25:04Z</time>
      </trkpt>
      <trkpt lat="47.62176" lon="6.61546">
        <ele>356.9</ele>
        <time>2025-09-13T12:25:05Z</time>
      </trkpt>
      <trkpt lat="47.62174" lon="6.61547">
        <ele>357</ele>
        <time>2025-09-13T12:25:06Z</time>
      </trkpt>
      <trkpt lat="47.62176" lon="6.61548">
        <ele>357.2</ele>
        <time>2025-09-13T12:25:07Z</time>
      </trkpt>
      <trkpt lat="47.62178" lon="6.6155">
        <ele>357.3</ele>
        <time>2025-09-13T12:25:08Z</time>
      </trkpt>
      <trkpt lat="47.62181" lon="6.6155">
        <ele>357.5</ele>
        <time>2025-09-13T12:25:09Z</time>
      </trkpt>
      <trkpt lat="47.62185" lon="6.6155">
        <ele>357.8</ele>
        <time>2025-09-13T12:25:10Z</time>
      </trkpt>
      <trkpt lat="47.62188" lon="6.61552">
        <ele>358</ele>
        <time>2025-09-13T12:25:11Z</time>
      </trkpt>
      <trkpt lat="47.6219" lon="6.61556">
        <ele>358.2</ele>
        <time>2025-09-13T12:25:12Z</time>
      </trkpt>
      <trkpt lat="47.62194" lon="6.61557">
        <ele>358.4</ele>
        <time>2025-09-13T12:25:13Z</time>
      </trkpt>
      <trkpt lat="47.62198" lon="6.61558">
        <ele>358.7</ele>
        <time>2025-09-13T12:25:14Z</time>
      </trkpt>
      <trkpt lat="47.62199" lon="6.61558">
        <ele>358.8</ele>
        <time>2025-09-13T12:25:15Z</time>
      </trkpt>
      <trkpt lat="47.62202" lon="6.6156">
        <ele>359</ele>
        <time>2025-09-13T12:25:16Z</time>
      </trkpt>
      <trkpt lat="47.62205" lon="6.61561">
        <ele>359.2</ele>
        <time>2025-09-13T12:25:17Z</time>
      </trkpt>
      <trkpt lat="47.62209" lon="6.6156">
        <ele>359.5</ele>
        <time>2025-09-13T12:25:18Z</time>
      </trkpt>
      <trkpt lat="47.62212" lon="6.61555">
        <ele>359.8</ele>
        <time>2025-09-13T12:25:19Z</time>
      </trkpt>
      <trkpt lat="47.62216" lon="6.61547">
        <ele>360.4</ele>
        <time>2025-09-13T12:25:20Z</time>
      </trkpt>
      <trkpt lat="47.62219" lon="6.61538">
        <ele>360.9</ele>
        <time>2025-09-13T12:25:21Z</time>
      </trkpt>
      <trkpt lat="47.62221" lon="6.61531">
        <ele>361.3</ele>
        <time>2025-09-13T12:25:22Z</time>
      </trkpt>
      <trkpt lat="47.62221" lon="6.61523">
        <ele>361.7</ele>
        <time>2025-09-13T12:25:23Z</time>
      </trkpt>
      <trkpt lat="47.62221" lon="6.61515">
        <ele>362.2</ele>
        <time>2025-09-13T12:25:24Z</time>
      </trkpt>
      <trkpt lat="47.62221" lon="6.61508">
        <ele>362.6</ele>
        <time>2025-09-13T12:25:25Z</time>
      </trkpt>
      <trkpt lat="47.62222" lon="6.61501">
        <ele>362.9</ele>
        <time>2025-09-13T12:25:26Z</time>
      </trkpt>
      <trkpt lat="47.62224" lon="6.61493">
        <ele>363.3</ele>
        <time>2025-09-13T12:25:27Z</time>
      </trkpt>
      <trkpt lat="47.62225" lon="6.61486">
        <ele>363.7</ele>
        <time>2025-09-13T12:25:28Z</time>
      </trkpt>
      <trkpt lat="47.62228" lon="6.61479">
        <ele>364.2</ele>
        <time>2025-09-13T12:25:29Z</time>
      </trkpt>
      <trkpt lat="47.62231" lon="6.61472">
        <ele>364.6</ele>
        <time>2025-09-13T12:25:30Z</time>
      </trkpt>
      <trkpt lat="47.62234" lon="6.61471">
        <ele>364.8</ele>
        <time>2025-09-13T12:25:31Z</time>
      </trkpt>
      <trkpt lat="47.62235" lon="6.61469">
        <ele>365</ele>
        <time>2025-09-13T12:25:32Z</time>
      </trkpt>
      <trkpt lat="47.62239" lon="6.61465">
        <ele>365.3</ele>
        <time>2025-09-13T12:25:33Z</time>
      </trkpt>
      <trkpt lat="47.62241" lon="6.61462">
        <ele>365.6</ele>
        <time>2025-09-13T12:25:34Z</time>
      </trkpt>
      <trkpt lat="47.62243" lon="6.61459">
        <ele>365.9</ele>
        <time>2025-09-13T12:25:35Z</time>
      </trkpt>
      <trkpt lat="47.62245" lon="6.61453">
        <ele>366.2</ele>
        <time>2025-09-13T12:25:36Z</time>
      </trkpt>
      <trkpt lat="47.62249" lon="6.6145">
        <ele>366.6</ele>
        <time>2025-09-13T12:25:37Z</time>
      </trkpt>
      <trkpt lat="47.62253" lon="6.61448">
        <ele>366.9</ele>
        <time>2025-09-13T12:25:38Z</time>
      </trkpt>
      <trkpt lat="47.62255" lon="6.61444">
        <ele>367.2</ele>
        <time>2025-09-13T12:25:39Z</time>
      </trkpt>
      <trkpt lat="47.62258" lon="6.61441">
        <ele>367.5</ele>
        <time>2025-09-13T12:25:40Z</time>
      </trkpt>
      <trkpt lat="47.62261" lon="6.61438">
        <ele>367.8</ele>
        <time>2025-09-13T12:25:41Z</time>
      </trkpt>
      <trkpt lat="47.62264" lon="6.61435">
        <ele>368.1</ele>
        <time>2025-09-13T12:25:42Z</time>
      </trkpt>
      <trkpt lat="47.62266" lon="6.61432">
        <ele>368.4</ele>
        <time>2025-09-13T12:25:43Z</time>
      </trkpt>
      <trkpt lat="47.62269" lon="6.61429">
        <ele>368.7</ele>
        <time>2025-09-13T12:25:44Z</time>
      </trkpt>
      <trkpt lat="47.62272" lon="6.61427">
        <ele>368.9</ele>
        <time>2025-09-13T12:25:45Z</time>
      </trkpt>
      <trkpt lat="47.62274" lon="6.61424">
        <ele>369.2</ele>
        <time>2025-09-13T12:25:46Z</time>
      </trkpt>
      <trkpt lat="47.62277" lon="6.61421">
        <ele>369.4</ele>
        <time>2025-09-13T12:25:47Z</time>
      </trkpt>
      <trkpt lat="47.6228" lon="6.61419">
        <ele>369.5</ele>
        <time>2025-09-13T12:25:48Z</time>
      </trkpt>
      <trkpt lat="47.62283" lon="6.61415">
        <ele>369.6</ele>
        <time>2025-09-13T12:25:49Z</time>
      </trkpt>
      <trkpt lat="47.6229" lon="6.61408">
        <ele>370.1</ele>
        <time>2025-09-13T12:25:50Z</time>
      </trkpt>
      <trkpt lat="47.62297" lon="6.61402">
        <ele>370.7</ele>
        <time>2025-09-13T12:25:51Z</time>
      </trkpt>
      <trkpt lat="47.62303" lon="6.61396">
        <ele>371.2</ele>
        <time>2025-09-13T12:25:52Z</time>
      </trkpt>
      <trkpt lat="47.6231" lon="6.61387">
        <ele>371.8</ele>
        <time>2025-09-13T12:25:53Z</time>
      </trkpt>
      <trkpt lat="47.62315" lon="6.61381">
        <ele>372.3</ele>
        <time>2025-09-13T12:25:54Z</time>
      </trkpt>
      <trkpt lat="47.62322" lon="6.61374">
        <ele>372.9</ele>
        <time>2025-09-13T12:25:55Z</time>
      </trkpt>
      <trkpt lat="47.62328" lon="6.61368">
        <ele>373.6</ele>
        <time>2025-09-13T12:25:56Z</time>
      </trkpt>
      <trkpt lat="47.62335" lon="6.61361">
        <ele>374.3</ele>
        <time>2025-09-13T12:25:57Z</time>
      </trkpt>
      <trkpt lat="47.62341" lon="6.61354">
        <ele>374.9</ele>
        <time>2025-09-13T12:25:58Z</time>
      </trkpt>
      <trkpt lat="47.62349" lon="6.61348">
        <ele>375.6</ele>
        <time>2025-09-13T12:25:59Z</time>
      </trkpt>
      <trkpt lat="47.62356" lon="6.61342">
        <ele>376.3</ele>
        <time>2025-09-13T12:26:00Z</time>
      </trkpt>
      <trkpt lat="47.62363" lon="6.61337">
        <ele>376.9</ele>
        <time>2025-09-13T12:26:01Z</time>
      </trkpt>
      <trkpt lat="47.6237" lon="6.61333">
        <ele>377.5</ele>
        <time>2025-09-13T12:26:02Z</time>
      </trkpt>
      <trkpt lat="47.62376" lon="6.61329">
        <ele>378</ele>
        <time>2025-09-13T12:26:03Z</time>
      </trkpt>
      <trkpt lat="47.62381" lon="6.61327">
        <ele>378.3</ele>
        <time>2025-09-13T12:26:04Z</time>
      </trkpt>
      <trkpt lat="47.62387" lon="6.61323">
        <ele>378.8</ele>
        <time>2025-09-13T12:26:05Z</time>
      </trkpt>
      <trkpt lat="47.62393" lon="6.6132">
        <ele>379.1</ele>
        <time>2025-09-13T12:26:06Z</time>
      </trkpt>
      <trkpt lat="47.62399" lon="6.61322">
        <ele>379.3</ele>
        <time>2025-09-13T12:26:07Z</time>
      </trkpt>
      <trkpt lat="47.62405" lon="6.61324">
        <ele>379.5</ele>
        <time>2025-09-13T12:26:08Z</time>
      </trkpt>
      <trkpt lat="47.62409" lon="6.61326">
        <ele>379.6</ele>
        <time>2025-09-13T12:26:09Z</time>
      </trkpt>
      <trkpt lat="47.62413" lon="6.61326">
        <ele>379.8</ele>
        <time>2025-09-13T12:26:10Z</time>
      </trkpt>
      <trkpt lat="47.62417" lon="6.61328">
        <ele>379.9</ele>
        <time>2025-09-13T12:26:11Z</time>
      </trkpt>
      <trkpt lat="47.62421" lon="6.6133">
        <ele>380</ele>
        <time>2025-09-13T12:26:12Z</time>
      </trkpt>
      <trkpt lat="47.62424" lon="6.61332">
        <ele>380.1</ele>
        <time>2025-09-13T12:26:13Z</time>
      </trkpt>
      <trkpt lat="47.62427" lon="6.61333">
        <ele>380.2</ele>
        <time>2025-09-13T12:26:14Z</time>
      </trkpt>
      <trkpt lat="47.62429" lon="6.61334">
        <ele>380.2</ele>
        <time>2025-09-13T12:26:15Z</time>
      </trkpt>
      <trkpt lat="47.62433" lon="6.61337">
        <ele>380.3</ele>
        <time>2025-09-13T12:26:16Z</time>
      </trkpt>
      <trkpt lat="47.62437" lon="6.61343">
        <ele>380.5</ele>
        <time>2025-09-13T12:26:17Z</time>
      </trkpt>
      <trkpt lat="47.6244" lon="6.61348">
        <ele>380.7</ele>
        <time>2025-09-13T12:26:18Z</time>
      </trkpt>
      <trkpt lat="47.62443" lon="6.61354">
        <ele>380.9</ele>
        <time>2025-09-13T12:26:19Z</time>
      </trkpt>
      <trkpt lat="47.62445" lon="6.61361">
        <ele>381</ele>
        <time>2025-09-13T12:26:20Z</time>
      </trkpt>
      <trkpt lat="47.62446" lon="6.61366">
        <ele>381.2</ele>
        <time>2025-09-13T12:26:21Z</time>
      </trkpt>
      <trkpt lat="47.62449" lon="6.6137">
        <ele>381.3</ele>
        <time>2025-09-13T12:26:22Z</time>
      </trkpt>
      <trkpt lat="47.62451" lon="6.61374">
        <ele>381.5</ele>
        <time>2025-09-13T12:26:23Z</time>
      </trkpt>
      <trkpt lat="47.62453" lon="6.61379">
        <ele>381.6</ele>
        <time>2025-09-13T12:26:24Z</time>
      </trkpt>
      <trkpt lat="47.62455" lon="6.61383">
        <ele>381.7</ele>
        <time>2025-09-13T12:26:25Z</time>
      </trkpt>
      <trkpt lat="47.62456" lon="6.61387">
        <ele>381.9</ele>
        <time>2025-09-13T12:26:26Z</time>
      </trkpt>
      <trkpt lat="47.62458" lon="6.61391">
        <ele>382</ele>
        <time>2025-09-13T12:26:27Z</time>
      </trkpt>
      <trkpt lat="47.6246" lon="6.61394">
        <ele>382.1</ele>
        <time>2025-09-13T12:26:28Z</time>
      </trkpt>
      <trkpt lat="47.62463" lon="6.61396">
        <ele>382.3</ele>
        <time>2025-09-13T12:26:29Z</time>
      </trkpt>
      <trkpt lat="47.62466" lon="6.61396">
        <ele>382.2</ele>
        <time>2025-09-13T12:26:30Z</time>
      </trkpt>
      <trkpt lat="47.62467" lon="6.61397">
        <ele>382.1</ele>
        <time>2025-09-13T12:26:31Z</time>
      </trkpt>
      <trkpt lat="47.6247" lon="6.61396">
        <ele>382</ele>
        <time>2025-09-13T12:26:32Z</time>
      </trkpt>
      <trkpt lat="47.62471" lon="6.61395">
        <ele>382</ele>
        <time>2025-09-13T12:26:33Z</time>
      </trkpt>
      <trkpt lat="47.62471" lon="6.61394">
        <ele>382</ele>
        <time>2025-09-13T12:26:34Z</time>
      </trkpt>
      <trkpt lat="47.62473" lon="6.61392">
        <ele>381.9</ele>
        <time>2025-09-13T12:26:35Z</time>
      </trkpt>
      <trkpt lat="47.62474" lon="6.61389">
        <ele>381.9</ele>
        <time>2025-09-13T12:26:36Z</time>
      </trkpt>
      <trkpt lat="47.62475" lon="6.61388">
        <ele>381.8</ele>
        <time>2025-09-13T12:26:37Z</time>
      </trkpt>
      <trkpt lat="47.62477" lon="6.61384">
        <ele>381.7</ele>
        <time>2025-09-13T12:26:38Z</time>
      </trkpt>
      <trkpt lat="47.62479" lon="6.6138">
        <ele>381.6</ele>
        <time>2025-09-13T12:26:39Z</time>
      </trkpt>
      <trkpt lat="47.62481" lon="6.61377">
        <ele>381.6</ele>
        <time>2025-09-13T12:26:40Z</time>
      </trkpt>
      <trkpt lat="47.62484" lon="6.61371">
        <ele>381.5</ele>
        <time>2025-09-13T12:26:41Z</time>
      </trkpt>
      <trkpt lat="47.62486" lon="6.61366">
        <ele>381.4</ele>
        <time>2025-09-13T12:26:42Z</time>
      </trkpt>
      <trkpt lat="47.62489" lon="6.61361">
        <ele>381.3</ele>
        <time>2025-09-13T12:26:43Z</time>
      </trkpt>
      <trkpt lat="47.62492" lon="6.61356">
        <ele>381.2</ele>
        <time>2025-09-13T12:26:44Z</time>
      </trkpt>
      <trkpt lat="47.62493" lon="6.6135">
        <ele>381.1</ele>
        <time>2025-09-13T12:26:45Z</time>
      </trkpt>
      <trkpt lat="47.62492" lon="6.61345">
        <ele>380.9</ele>
        <time>2025-09-13T12:26:46Z</time>
      </trkpt>
      <trkpt lat="47.62488" lon="6.61343">
        <ele>380.8</ele>
        <time>2025-09-13T12:26:47Z</time>
      </trkpt>
      <trkpt lat="47.62485" lon="6.61342">
        <ele>380.8</ele>
        <time>2025-09-13T12:26:48Z</time>
      </trkpt>
      <trkpt lat="47.62482" lon="6.61341">
        <ele>380.8</ele>
        <time>2025-09-13T12:26:49Z</time>
      </trkpt>
      <trkpt lat="47.62478" lon="6.61339">
        <ele>380.7</ele>
        <time>2025-09-13T12:26:50Z</time>
      </trkpt>
      <trkpt lat="47.62475" lon="6.61338">
        <ele>380.7</ele>
        <time>2025-09-13T12:26:51Z</time>
      </trkpt>
      <trkpt lat="47.62471" lon="6.61336">
        <ele>380.7</ele>
        <time>2025-09-13T12:26:52Z</time>
      </trkpt>
      <trkpt lat="47.62467" lon="6.61334">
        <ele>380.6</ele>
        <time>2025-09-13T12:26:53Z</time>
      </trkpt>
      <trkpt lat="47.62463" lon="6.61334">
        <ele>380.6</ele>
        <time>2025-09-13T12:26:54Z</time>
      </trkpt>
      <trkpt lat="47.62459" lon="6.61333">
        <ele>380.6</ele>
        <time>2025-09-13T12:26:55Z</time>
      </trkpt>
      <trkpt lat="47.62455" lon="6.61333">
        <ele>380.5</ele>
        <time>2025-09-13T12:26:56Z</time>
      </trkpt>
      <trkpt lat="47.62451" lon="6.61332">
        <ele>380.5</ele>
        <time>2025-09-13T12:26:57Z</time>
      </trkpt>
      <trkpt lat="47.62448" lon="6.61332">
        <ele>380.5</ele>
        <time>2025-09-13T12:26:58Z</time>
      </trkpt>
      <trkpt lat="47.62443" lon="6.61331">
        <ele>380.4</ele>
        <time>2025-09-13T12:26:59Z</time>
      </trkpt>
      <trkpt lat="47.62439" lon="6.6133">
        <ele>380.4</ele>
        <time>2025-09-13T12:27:00Z</time>
      </trkpt>
      <trkpt lat="47.62436" lon="6.61327">
        <ele>380.3</ele>
        <time>2025-09-13T12:27:01Z</time>
      </trkpt>
      <trkpt lat="47.62432" lon="6.61324">
        <ele>380.2</ele>
        <time>2025-09-13T12:27:02Z</time>
      </trkpt>
      <trkpt lat="47.62429" lon="6.61321">
        <ele>380.2</ele>
        <time>2025-09-13T12:27:03Z</time>
      </trkpt>
      <trkpt lat="47.62424" lon="6.61318">
        <ele>380</ele>
        <time>2025-09-13T12:27:04Z</time>
      </trkpt>
      <trkpt lat="47.6242" lon="6.61316">
        <ele>379.9</ele>
        <time>2025-09-13T12:27:05Z</time>
      </trkpt>
      <trkpt lat="47.62415" lon="6.61315">
        <ele>379.8</ele>
        <time>2025-09-13T12:27:06Z</time>
      </trkpt>
      <trkpt lat="47.62411" lon="6.61313">
        <ele>379.6</ele>
        <time>2025-09-13T12:27:07Z</time>
      </trkpt>
      <trkpt lat="47.62406" lon="6.61311">
        <ele>379.5</ele>
        <time>2025-09-13T12:27:08Z</time>
      </trkpt>
      <trkpt lat="47.62401" lon="6.6131">
        <ele>379.3</ele>
        <time>2025-09-13T12:27:09Z</time>
      </trkpt>
      <trkpt lat="47.62396" lon="6.61309">
        <ele>379.2</ele>
        <time>2025-09-13T12:27:10Z</time>
      </trkpt>
      <trkpt lat="47.62391" lon="6.61308">
        <ele>379</ele>
        <time>2025-09-13T12:27:11Z</time>
      </trkpt>
      <trkpt lat="47.62387" lon="6.61306">
        <ele>379</ele>
        <time>2025-09-13T12:27:12Z</time>
      </trkpt>
      <trkpt lat="47.62384" lon="6.61305">
        <ele>379</ele>
        <time>2025-09-13T12:27:13Z</time>
      </trkpt>
      <trkpt lat="47.6238" lon="6.61304">
        <ele>379</ele>
        <time>2025-09-13T12:27:14Z</time>
      </trkpt>
      <trkpt lat="47.62383" lon="6.6131">
        <ele>379</ele>
        <time>2025-09-13T12:27:15Z</time>
      </trkpt>
      <trkpt lat="47.62385" lon="6.61312">
        <ele>379</ele>
        <time>2025-09-13T12:27:16Z</time>
      </trkpt>
      <trkpt lat="47.62389" lon="6.61314">
        <ele>379</ele>
        <time>2025-09-13T12:27:17Z</time>
      </trkpt>
      <trkpt lat="47.62394" lon="6.61314">
        <ele>379.1</ele>
        <time>2025-09-13T12:27:18Z</time>
      </trkpt>
      <trkpt lat="47.62399" lon="6.61313">
        <ele>379.3</ele>
        <time>2025-09-13T12:27:19Z</time>
      </trkpt>
      <trkpt lat="47.62403" lon="6.61314">
        <ele>379.4</ele>
        <time>2025-09-13T12:27:20Z</time>
      </trkpt>
      <trkpt lat="47.62408" lon="6.61316">
        <ele>379.6</ele>
        <time>2025-09-13T12:27:21Z</time>
      </trkpt>
      <trkpt lat="47.62413" lon="6.61318">
        <ele>379.7</ele>
        <time>2025-09-13T12:27:22Z</time>
      </trkpt>
      <trkpt lat="47.62418" lon="6.6132">
        <ele>379.9</ele>
        <time>2025-09-13T12:27:23Z</time>
      </trkpt>
      <trkpt lat="47.62422" lon="6.61323">
        <ele>380</ele>
        <time>2025-09-13T12:27:24Z</time>
      </trkpt>
      <trkpt lat="47.62427" lon="6.61327">
        <ele>380.1</ele>
        <time>2025-09-13T12:27:25Z</time>
      </trkpt>
      <trkpt lat="47.62432" lon="6.61331">
        <ele>380.3</ele>
        <time>2025-09-13T12:27:26Z</time>
      </trkpt>
      <trkpt lat="47.62436" lon="6.61336">
        <ele>380.4</ele>
        <time>2025-09-13T12:27:27Z</time>
      </trkpt>
      <trkpt lat="47.62441" lon="6.6134">
        <ele>380.6</ele>
        <time>2025-09-13T12:27:28Z</time>
      </trkpt>
      <trkpt lat="47.62445" lon="6.61346">
        <ele>380.7</ele>
        <time>2025-09-13T12:27:29Z</time>
      </trkpt>
      <trkpt lat="47.62449" lon="6.61352">
        <ele>380.9</ele>
        <time>2025-09-13T12:27:30Z</time>
      </trkpt>
      <trkpt lat="47.62452" lon="6.61359">
        <ele>381.1</ele>
        <time>2025-09-13T12:27:31Z</time>
      </trkpt>
      <trkpt lat="47.62454" lon="6.61366">
        <ele>381.2</ele>
        <time>2025-09-13T12:27:32Z</time>
      </trkpt>
      <trkpt lat="47.62455" lon="6.61371">
        <ele>381.4</ele>
        <time>2025-09-13T12:27:33Z</time>
      </trkpt>
      <trkpt lat="47.62458" lon="6.61378">
        <ele>381.5</ele>
        <time>2025-09-13T12:27:34Z</time>
      </trkpt>
      <trkpt lat="47.6246" lon="6.61384">
        <ele>381.7</ele>
        <time>2025-09-13T12:27:35Z</time>
      </trkpt>
      <trkpt lat="47.62463" lon="6.6139">
        <ele>381.8</ele>
        <time>2025-09-13T12:27:36Z</time>
      </trkpt>
      <trkpt lat="47.62466" lon="6.61395">
        <ele>382</ele>
        <time>2025-09-13T12:27:37Z</time>
      </trkpt>
      <trkpt lat="47.6247" lon="6.61396">
        <ele>382.1</ele>
        <time>2025-09-13T12:27:38Z</time>
      </trkpt>
      <trkpt lat="47.62476" lon="6.61395">
        <ele>381.9</ele>
        <time>2025-09-13T12:27:39Z</time>
      </trkpt>
      <trkpt lat="47.62479" lon="6.6139">
        <ele>381.8</ele>
        <time>2025-09-13T12:27:40Z</time>
      </trkpt>
      <trkpt lat="47.62483" lon="6.61384">
        <ele>381.6</ele>
        <time>2025-09-13T12:27:41Z</time>
      </trkpt>
      <trkpt lat="47.62487" lon="6.61378">
        <ele>381.5</ele>
        <time>2025-09-13T12:27:42Z</time>
      </trkpt>
      <trkpt lat="47.6249" lon="6.61371">
        <ele>381.4</ele>
        <time>2025-09-13T12:27:43Z</time>
      </trkpt>
      <trkpt lat="47.62492" lon="6.61364">
        <ele>381.2</ele>
        <time>2025-09-13T12:27:44Z</time>
      </trkpt>
      <trkpt lat="47.62496" lon="6.61356">
        <ele>381.1</ele>
        <time>2025-09-13T12:27:45Z</time>
      </trkpt>
      <trkpt lat="47.62499" lon="6.61349">
        <ele>381</ele>
        <time>2025-09-13T12:27:46Z</time>
      </trkpt>
      <trkpt lat="47.62503" lon="6.61344">
        <ele>380.9</ele>
        <time>2025-09-13T12:27:47Z</time>
      </trkpt>
      <trkpt lat="47.62507" lon="6.61338">
        <ele>380.7</ele>
        <time>2025-09-13T12:27:48Z</time>
      </trkpt>
      <trkpt lat="47.6251" lon="6.61331">
        <ele>380.6</ele>
        <time>2025-09-13T12:27:49Z</time>
      </trkpt>
      <trkpt lat="47.62515" lon="6.61325">
        <ele>380.4</ele>
        <time>2025-09-13T12:27:50Z</time>
      </trkpt>
      <trkpt lat="47.62519" lon="6.61319">
        <ele>380.3</ele>
        <time>2025-09-13T12:27:51Z</time>
      </trkpt>
      <trkpt lat="47.62525" lon="6.61314">
        <ele>380.1</ele>
        <time>2025-09-13T12:27:52Z</time>
      </trkpt>
      <trkpt lat="47.6253" lon="6.61309">
        <ele>380</ele>
        <time>2025-09-13T12:27:53Z</time>
      </trkpt>
      <trkpt lat="47.62535" lon="6.61304">
        <ele>379.8</ele>
        <time>2025-09-13T12:27:54Z</time>
      </trkpt>
      <trkpt lat="47.6254" lon="6.61298">
        <ele>379.6</ele>
        <time>2025-09-13T12:27:55Z</time>
      </trkpt>
      <trkpt lat="47.62545" lon="6.61292">
        <ele>379.5</ele>
        <time>2025-09-13T12:27:56Z</time>
      </trkpt>
      <trkpt lat="47.62549" lon="6.61286">
        <ele>379.3</ele>
        <time>2025-09-13T12:27:57Z</time>
      </trkpt>
      <trkpt lat="47.62553" lon="6.61281">
        <ele>379.2</ele>
        <time>2025-09-13T12:27:58Z</time>
      </trkpt>
      <trkpt lat="47.62556" lon="6.61276">
        <ele>379.1</ele>
        <time>2025-09-13T12:27:59Z</time>
      </trkpt>
      <trkpt lat="47.62558" lon="6.6127">
        <ele>378.9</ele>
        <time>2025-09-13T12:28:00Z</time>
      </trkpt>
      <trkpt lat="47.62558" lon="6.61265">
        <ele>378.7</ele>
        <time>2025-09-13T12:28:01Z</time>
      </trkpt>
      <trkpt lat="47.62559" lon="6.61259">
        <ele>378.6</ele>
        <time>2025-09-13T12:28:02Z</time>
      </trkpt>
      <trkpt lat="47.62559" lon="6.61254">
        <ele>378.4</ele>
        <time>2025-09-13T12:28:03Z</time>
      </trkpt>
      <trkpt lat="47.6256" lon="6.61248">
        <ele>378.2</ele>
        <time>2025-09-13T12:28:04Z</time>
      </trkpt>
      <trkpt lat="47.62562" lon="6.61242">
        <ele>378</ele>
        <time>2025-09-13T12:28:05Z</time>
      </trkpt>
      <trkpt lat="47.62563" lon="6.61235">
        <ele>377.8</ele>
        <time>2025-09-13T12:28:06Z</time>
      </trkpt>
      <trkpt lat="47.62563" lon="6.61229">
        <ele>377.5</ele>
        <time>2025-09-13T12:28:07Z</time>
      </trkpt>
      <trkpt lat="47.62562" lon="6.61222">
        <ele>377.4</ele>
        <time>2025-09-13T12:28:08Z</time>
      </trkpt>
      <trkpt lat="47.62563" lon="6.61214">
        <ele>377.2</ele>
        <time>2025-09-13T12:28:09Z</time>
      </trkpt>
      <trkpt lat="47.62564" lon="6.61206">
        <ele>377.1</ele>
        <time>2025-09-13T12:28:10Z</time>
      </trkpt>
      <trkpt lat="47.62564" lon="6.61198">
        <ele>376.8</ele>
        <time>2025-09-13T12:28:11Z</time>
      </trkpt>
      <trkpt lat="47.62564" lon="6.6119">
        <ele>376.5</ele>
        <time>2025-09-13T12:28:12Z</time>
      </trkpt>
      <trkpt lat="47.62564" lon="6.61181">
        <ele>376.2</ele>
        <time>2025-09-13T12:28:13Z</time>
      </trkpt>
      <trkpt lat="47.62564" lon="6.61171">
        <ele>375.8</ele>
        <time>2025-09-13T12:28:14Z</time>
      </trkpt>
      <trkpt lat="47.62566" lon="6.61161">
        <ele>375.5</ele>
        <time>2025-09-13T12:28:15Z</time>
      </trkpt>
      <trkpt lat="47.62567" lon="6.61151">
        <ele>375.1</ele>
        <time>2025-09-13T12:28:16Z</time>
      </trkpt>
      <trkpt lat="47.62568" lon="6.61139">
        <ele>374.8</ele>
        <time>2025-09-13T12:28:17Z</time>
      </trkpt>
      <trkpt lat="47.62569" lon="6.61128">
        <ele>374.6</ele>
        <time>2025-09-13T12:28:18Z</time>
      </trkpt>
      <trkpt lat="47.62571" lon="6.61118">
        <ele>374.3</ele>
        <time>2025-09-13T12:28:19Z</time>
      </trkpt>
      <trkpt lat="47.62574" lon="6.61107">
        <ele>374.1</ele>
        <time>2025-09-13T12:28:20Z</time>
      </trkpt>
      <trkpt lat="47.62577" lon="6.61097">
        <ele>374</ele>
        <time>2025-09-13T12:28:21Z</time>
      </trkpt>
      <trkpt lat="47.6258" lon="6.61086">
        <ele>373.8</ele>
        <time>2025-09-13T12:28:22Z</time>
      </trkpt>
      <trkpt lat="47.62583" lon="6.61078">
        <ele>373.7</ele>
        <time>2025-09-13T12:28:23Z</time>
      </trkpt>
      <trkpt lat="47.62587" lon="6.61069">
        <ele>373.6</ele>
        <time>2025-09-13T12:28:24Z</time>
      </trkpt>
      <trkpt lat="47.6259" lon="6.61061">
        <ele>373.6</ele>
        <time>2025-09-13T12:28:25Z</time>
      </trkpt>
      <trkpt lat="47.62595" lon="6.61052">
        <ele>373.5</ele>
        <time>2025-09-13T12:28:26Z</time>
      </trkpt>
      <trkpt lat="47.62599" lon="6.61044">
        <ele>373.5</ele>
        <time>2025-09-13T12:28:27Z</time>
      </trkpt>
      <trkpt lat="47.62603" lon="6.61037">
        <ele>373.6</ele>
        <time>2025-09-13T12:28:28Z</time>
      </trkpt>
      <trkpt lat="47.62606" lon="6.6103">
        <ele>373.6</ele>
        <time>2025-09-13T12:28:29Z</time>
      </trkpt>
      <trkpt lat="47.6261" lon="6.61024">
        <ele>373.6</ele>
        <time>2025-09-13T12:28:30Z</time>
      </trkpt>
      <trkpt lat="47.62614" lon="6.61017">
        <ele>373.6</ele>
        <time>2025-09-13T12:28:31Z</time>
      </trkpt>
      <trkpt lat="47.62618" lon="6.6101">
        <ele>373.5</ele>
        <time>2025-09-13T12:28:32Z</time>
      </trkpt>
      <trkpt lat="47.62621" lon="6.61002">
        <ele>373.5</ele>
        <time>2025-09-13T12:28:33Z</time>
      </trkpt>
      <trkpt lat="47.62623" lon="6.60994">
        <ele>373.4</ele>
        <time>2025-09-13T12:28:34Z</time>
      </trkpt>
      <trkpt lat="47.62624" lon="6.60985">
        <ele>373.3</ele>
        <time>2025-09-13T12:28:35Z</time>
      </trkpt>
      <trkpt lat="47.62624" lon="6.60976">
        <ele>373.1</ele>
        <time>2025-09-13T12:28:36Z</time>
      </trkpt>
      <trkpt lat="47.62623" lon="6.60966">
        <ele>372.9</ele>
        <time>2025-09-13T12:28:37Z</time>
      </trkpt>
      <trkpt lat="47.62621" lon="6.60955">
        <ele>372.8</ele>
        <time>2025-09-13T12:28:38Z</time>
      </trkpt>
      <trkpt lat="47.62619" lon="6.60945">
        <ele>372.6</ele>
        <time>2025-09-13T12:28:39Z</time>
      </trkpt>
      <trkpt lat="47.62618" lon="6.60935">
        <ele>372.5</ele>
        <time>2025-09-13T12:28:40Z</time>
      </trkpt>
      <trkpt lat="47.62617" lon="6.60925">
        <ele>372.5</ele>
        <time>2025-09-13T12:28:41Z</time>
      </trkpt>
      <trkpt lat="47.62617" lon="6.60915">
        <ele>372.4</ele>
        <time>2025-09-13T12:28:42Z</time>
      </trkpt>
      <trkpt lat="47.62618" lon="6.60905">
        <ele>372.4</ele>
        <time>2025-09-13T12:28:43Z</time>
      </trkpt>
      <trkpt lat="47.62618" lon="6.60896">
        <ele>372.4</ele>
        <time>2025-09-13T12:28:44Z</time>
      </trkpt>
      <trkpt lat="47.6262" lon="6.60886">
        <ele>372.5</ele>
        <time>2025-09-13T12:28:45Z</time>
      </trkpt>
      <trkpt lat="47.62621" lon="6.60876">
        <ele>372.6</ele>
        <time>2025-09-13T12:28:46Z</time>
      </trkpt>
      <trkpt lat="47.62624" lon="6.60867">
        <ele>372.8</ele>
        <time>2025-09-13T12:28:47Z</time>
      </trkpt>
      <trkpt lat="47.62626" lon="6.60857">
        <ele>372.9</ele>
        <time>2025-09-13T12:28:48Z</time>
      </trkpt>
      <trkpt lat="47.62628" lon="6.60849">
        <ele>373.1</ele>
        <time>2025-09-13T12:28:49Z</time>
      </trkpt>
      <trkpt lat="47.6263" lon="6.60841">
        <ele>373.3</ele>
        <time>2025-09-13T12:28:50Z</time>
      </trkpt>
      <trkpt lat="47.62632" lon="6.60833">
        <ele>373.5</ele>
        <time>2025-09-13T12:28:51Z</time>
      </trkpt>
      <trkpt lat="47.62634" lon="6.60825">
        <ele>373.7</ele>
        <time>2025-09-13T12:28:52Z</time>
      </trkpt>
      <trkpt lat="47.62636" lon="6.60818">
        <ele>373.9</ele>
        <time>2025-09-13T12:28:53Z</time>
      </trkpt>
      <trkpt lat="47.62638" lon="6.6081">
        <ele>374</ele>
        <time>2025-09-13T12:28:54Z</time>
      </trkpt>
      <trkpt lat="47.62639" lon="6.60803">
        <ele>374.2</ele>
        <time>2025-09-13T12:28:55Z</time>
      </trkpt>
      <trkpt lat="47.62641" lon="6.60796">
        <ele>374.4</ele>
        <time>2025-09-13T12:28:56Z</time>
      </trkpt>
      <trkpt lat="47.62642" lon="6.6079">
        <ele>374.5</ele>
        <time>2025-09-13T12:28:57Z</time>
      </trkpt>
      <trkpt lat="47.62645" lon="6.60782">
        <ele>374.7</ele>
        <time>2025-09-13T12:28:58Z</time>
      </trkpt>
      <trkpt lat="47.62646" lon="6.60776">
        <ele>374.9</ele>
        <time>2025-09-13T12:28:59Z</time>
      </trkpt>
      <trkpt lat="47.62648" lon="6.60769">
        <ele>375</ele>
        <time>2025-09-13T12:29:00Z</time>
      </trkpt>
      <trkpt lat="47.62649" lon="6.60763">
        <ele>375.2</ele>
        <time>2025-09-13T12:29:01Z</time>
      </trkpt>
      <trkpt lat="47.62651" lon="6.60756">
        <ele>375.4</ele>
        <time>2025-09-13T12:29:02Z</time>
      </trkpt>
      <trkpt lat="47.62653" lon="6.60748">
        <ele>375.5</ele>
        <time>2025-09-13T12:29:03Z</time>
      </trkpt>
      <trkpt lat="47.62654" lon="6.60741">
        <ele>375.7</ele>
        <time>2025-09-13T12:29:04Z</time>
      </trkpt>
      <trkpt lat="47.62655" lon="6.60733">
        <ele>375.9</ele>
        <time>2025-09-13T12:29:05Z</time>
      </trkpt>
      <trkpt lat="47.62654" lon="6.60726">
        <ele>376</ele>
        <time>2025-09-13T12:29:06Z</time>
      </trkpt>
      <trkpt lat="47.62655" lon="6.60718">
        <ele>376.2</ele>
        <time>2025-09-13T12:29:07Z</time>
      </trkpt>
      <trkpt lat="47.62655" lon="6.60711">
        <ele>376.3</ele>
        <time>2025-09-13T12:29:08Z</time>
      </trkpt>
      <trkpt lat="47.62655" lon="6.60703">
        <ele>376.5</ele>
        <time>2025-09-13T12:29:09Z</time>
      </trkpt>
      <trkpt lat="47.62654" lon="6.60698">
        <ele>376.6</ele>
        <time>2025-09-13T12:29:10Z</time>
      </trkpt>
      <trkpt lat="47.62651" lon="6.6069">
        <ele>376.7</ele>
        <time>2025-09-13T12:29:11Z</time>
      </trkpt>
      <trkpt lat="47.6265" lon="6.60684">
        <ele>376.8</ele>
        <time>2025-09-13T12:29:12Z</time>
      </trkpt>
      <trkpt lat="47.62647" lon="6.60677">
        <ele>376.9</ele>
        <time>2025-09-13T12:29:13Z</time>
      </trkpt>
      <trkpt lat="47.62644" lon="6.60671">
        <ele>377.1</ele>
        <time>2025-09-13T12:29:14Z</time>
      </trkpt>
      <trkpt lat="47.62641" lon="6.60666">
        <ele>377.2</ele>
        <time>2025-09-13T12:29:15Z</time>
      </trkpt>
      <trkpt lat="47.62637" lon="6.6066">
        <ele>377.4</ele>
        <time>2025-09-13T12:29:16Z</time>
      </trkpt>
      <trkpt lat="47.62634" lon="6.60654">
        <ele>377.5</ele>
        <time>2025-09-13T12:29:17Z</time>
      </trkpt>
      <trkpt lat="47.6263" lon="6.60648">
        <ele>377.7</ele>
        <time>2025-09-13T12:29:18Z</time>
      </trkpt>
      <trkpt lat="47.62626" lon="6.60642">
        <ele>377.9</ele>
        <time>2025-09-13T12:29:19Z</time>
      </trkpt>
      <trkpt lat="47.62624" lon="6.60637">
        <ele>378.1</ele>
        <time>2025-09-13T12:29:20Z</time>
      </trkpt>
      <trkpt lat="47.6262" lon="6.60632">
        <ele>378.3</ele>
        <time>2025-09-13T12:29:21Z</time>
      </trkpt>
      <trkpt lat="47.62617" lon="6.60627">
        <ele>378.5</ele>
        <time>2025-09-13T12:29:22Z</time>
      </trkpt>
      <trkpt lat="47.62614" lon="6.60623">
        <ele>378.7</ele>
        <time>2025-09-13T12:29:23Z</time>
      </trkpt>
      <trkpt lat="47.62611" lon="6.60618">
        <ele>378.9</ele>
        <time>2025-09-13T12:29:24Z</time>
      </trkpt>
      <trkpt lat="47.62609" lon="6.60613">
        <ele>379.1</ele>
        <time>2025-09-13T12:29:25Z</time>
      </trkpt>
      <trkpt lat="47.62606" lon="6.60608">
        <ele>379.3</ele>
        <time>2025-09-13T12:29:26Z</time>
      </trkpt>
      <trkpt lat="47.62603" lon="6.60603">
        <ele>379.5</ele>
        <time>2025-09-13T12:29:27Z</time>
      </trkpt>
      <trkpt lat="47.62599" lon="6.60598">
        <ele>379.7</ele>
        <time>2025-09-13T12:29:28Z</time>
      </trkpt>
      <trkpt lat="47.62596" lon="6.60593">
        <ele>379.9</ele>
        <time>2025-09-13T12:29:29Z</time>
      </trkpt>
      <trkpt lat="47.62593" lon="6.60588">
        <ele>380.1</ele>
        <time>2025-09-13T12:29:30Z</time>
      </trkpt>
      <trkpt lat="47.6259" lon="6.60583">
        <ele>380.3</ele>
        <time>2025-09-13T12:29:31Z</time>
      </trkpt>
      <trkpt lat="47.62588" lon="6.60578">
        <ele>380.5</ele>
        <time>2025-09-13T12:29:32Z</time>
      </trkpt>
      <trkpt lat="47.62584" lon="6.60573">
        <ele>380.7</ele>
        <time>2025-09-13T12:29:33Z</time>
      </trkpt>
      <trkpt lat="47.62581" lon="6.60567">
        <ele>380.9</ele>
        <time>2025-09-13T12:29:34Z</time>
      </trkpt>
      <trkpt lat="47.62578" lon="6.60561">
        <ele>381.1</ele>
        <time>2025-09-13T12:29:35Z</time>
      </trkpt>
      <trkpt lat="47.62575" lon="6.60556">
        <ele>381.2</ele>
        <time>2025-09-13T12:29:36Z</time>
      </trkpt>
      <trkpt lat="47.62572" lon="6.60551">
        <ele>381.4</ele>
        <time>2025-09-13T12:29:37Z</time>
      </trkpt>
      <trkpt lat="47.6257" lon="6.60546">
        <ele>381.5</ele>
        <time>2025-09-13T12:29:38Z</time>
      </trkpt>
      <trkpt lat="47.62568" lon="6.6054">
        <ele>381.7</ele>
        <time>2025-09-13T12:29:39Z</time>
      </trkpt>
      <trkpt lat="47.62565" lon="6.60535">
        <ele>381.8</ele>
        <time>2025-09-13T12:29:40Z</time>
      </trkpt>
      <trkpt lat="47.62562" lon="6.60529">
        <ele>381.9</ele>
        <time>2025-09-13T12:29:41Z</time>
      </trkpt>
      <trkpt lat="47.62559" lon="6.60524">
        <ele>382</ele>
        <time>2025-09-13T12:29:42Z</time>
      </trkpt>
      <trkpt lat="47.62557" lon="6.60519">
        <ele>382.1</ele>
        <time>2025-09-13T12:29:43Z</time>
      </trkpt>
      <trkpt lat="47.62554" lon="6.60513">
        <ele>382.2</ele>
        <time>2025-09-13T12:29:44Z</time>
      </trkpt>
      <trkpt lat="47.62551" lon="6.60508">
        <ele>382.3</ele>
        <time>2025-09-13T12:29:45Z</time>
      </trkpt>
      <trkpt lat="47.62549" lon="6.60502">
        <ele>382.3</ele>
        <time>2025-09-13T12:29:46Z</time>
      </trkpt>
      <trkpt lat="47.62546" lon="6.60497">
        <ele>382.4</ele>
        <time>2025-09-13T12:29:47Z</time>
      </trkpt>
      <trkpt lat="47.62543" lon="6.6049">
        <ele>382.5</ele>
        <time>2025-09-13T12:29:48Z</time>
      </trkpt>
      <trkpt lat="47.6254" lon="6.60484">
        <ele>382.5</ele>
        <time>2025-09-13T12:29:49Z</time>
      </trkpt>
      <trkpt lat="47.62537" lon="6.60478">
        <ele>382.5</ele>
        <time>2025-09-13T12:29:50Z</time>
      </trkpt>
      <trkpt lat="47.62535" lon="6.60472">
        <ele>382.5</ele>
        <time>2025-09-13T12:29:51Z</time>
      </trkpt>
      <trkpt lat="47.62532" lon="6.60466">
        <ele>382.4</ele>
        <time>2025-09-13T12:29:52Z</time>
      </trkpt>
      <trkpt lat="47.6253" lon="6.60459">
        <ele>382.4</ele>
        <time>2025-09-13T12:29:53Z</time>
      </trkpt>
      <trkpt lat="47.62528" lon="6.6045">
        <ele>382.3</ele>
        <time>2025-09-13T12:29:54Z</time>
      </trkpt>
      <trkpt lat="47.62526" lon="6.60443">
        <ele>382.3</ele>
        <time>2025-09-13T12:29:55Z</time>
      </trkpt>
      <trkpt lat="47.62524" lon="6.60434">
        <ele>382.2</ele>
        <time>2025-09-13T12:29:56Z</time>
      </trkpt>
      <trkpt lat="47.62523" lon="6.60427">
        <ele>382.1</ele>
        <time>2025-09-13T12:29:57Z</time>
      </trkpt>
      <trkpt lat="47.62522" lon="6.6042">
        <ele>382</ele>
        <time>2025-09-13T12:29:58Z</time>
      </trkpt>
      <trkpt lat="47.62521" lon="6.60412">
        <ele>381.9</ele>
        <time>2025-09-13T12:29:59Z</time>
      </trkpt>
      <trkpt lat="47.62521" lon="6.60403">
        <ele>381.9</ele>
        <time>2025-09-13T12:30:00Z</time>
      </trkpt>
      <trkpt lat="47.6252" lon="6.60395">
        <ele>381.8</ele>
        <time>2025-09-13T12:30:01Z</time>
      </trkpt>
      <trkpt lat="47.6252" lon="6.60387">
        <ele>381.7</ele>
        <time>2025-09-13T12:30:02Z</time>
      </trkpt>
      <trkpt lat="47.62521" lon="6.60377">
        <ele>381.5</ele>
        <time>2025-09-13T12:30:03Z</time>
      </trkpt>
      <trkpt lat="47.6252" lon="6.60369">
        <ele>381.4</ele>
        <time>2025-09-13T12:30:04Z</time>
      </trkpt>
      <trkpt lat="47.62521" lon="6.60361">
        <ele>381.3</ele>
        <time>2025-09-13T12:30:05Z</time>
      </trkpt>
      <trkpt lat="47.62522" lon="6.60353">
        <ele>381.1</ele>
        <time>2025-09-13T12:30:06Z</time>
      </trkpt>
      <trkpt lat="47.62523" lon="6.60343">
        <ele>380.9</ele>
        <time>2025-09-13T12:30:07Z</time>
      </trkpt>
      <trkpt lat="47.62524" lon="6.60335">
        <ele>380.7</ele>
        <time>2025-09-13T12:30:08Z</time>
      </trkpt>
      <trkpt lat="47.62526" lon="6.60326">
        <ele>380.4</ele>
        <time>2025-09-13T12:30:09Z</time>
      </trkpt>
      <trkpt lat="47.62527" lon="6.60318">
        <ele>380.2</ele>
        <time>2025-09-13T12:30:10Z</time>
      </trkpt>
      <trkpt lat="47.62529" lon="6.60309">
        <ele>379.9</ele>
        <time>2025-09-13T12:30:11Z</time>
      </trkpt>
      <trkpt lat="47.6253" lon="6.603">
        <ele>379.6</ele>
        <time>2025-09-13T12:30:12Z</time>
      </trkpt>
      <trkpt lat="47.62531" lon="6.60291">
        <ele>379.3</ele>
        <time>2025-09-13T12:30:13Z</time>
      </trkpt>
      <trkpt lat="47.62533" lon="6.60282">
        <ele>378.9</ele>
        <time>2025-09-13T12:30:14Z</time>
      </trkpt>
      <trkpt lat="47.62535" lon="6.60273">
        <ele>378.5</ele>
        <time>2025-09-13T12:30:15Z</time>
      </trkpt>
      <trkpt lat="47.62536" lon="6.60263">
        <ele>378.2</ele>
        <time>2025-09-13T12:30:16Z</time>
      </trkpt>
      <trkpt lat="47.62538" lon="6.60253">
        <ele>377.7</ele>
        <time>2025-09-13T12:30:17Z</time>
      </trkpt>
      <trkpt lat="47.62539" lon="6.60242">
        <ele>377.3</ele>
        <time>2025-09-13T12:30:18Z</time>
      </trkpt>
      <trkpt lat="47.62539" lon="6.60232">
        <ele>376.9</ele>
        <time>2025-09-13T12:30:19Z</time>
      </trkpt>
      <trkpt lat="47.62539" lon="6.60222">
        <ele>376.4</ele>
        <time>2025-09-13T12:30:20Z</time>
      </trkpt>
      <trkpt lat="47.62539" lon="6.60211">
        <ele>375.8</ele>
        <time>2025-09-13T12:30:21Z</time>
      </trkpt>
      <trkpt lat="47.62539" lon="6.60201">
        <ele>375.3</ele>
        <time>2025-09-13T12:30:22Z</time>
      </trkpt>
      <trkpt lat="47.62538" lon="6.60188">
        <ele>374.6</ele>
        <time>2025-09-13T12:30:23Z</time>
      </trkpt>
      <trkpt lat="47.62539" lon="6.60176">
        <ele>374</ele>
        <time>2025-09-13T12:30:25Z</time>
      </trkpt>
      <trkpt lat="47.62539" lon="6.60163">
        <ele>373.4</ele>
        <time>2025-09-13T12:30:26Z</time>
      </trkpt>
      <trkpt lat="47.62539" lon="6.6015">
        <ele>372.8</ele>
        <time>2025-09-13T12:30:27Z</time>
      </trkpt>
      <trkpt lat="47.62539" lon="6.60137">
        <ele>372.2</ele>
        <time>2025-09-13T12:30:28Z</time>
      </trkpt>
      <trkpt lat="47.62539" lon="6.60124">
        <ele>371.7</ele>
        <time>2025-09-13T12:30:29Z</time>
      </trkpt>
      <trkpt lat="47.62538" lon="6.6011">
        <ele>371.3</ele>
        <time>2025-09-13T12:30:30Z</time>
      </trkpt>
      <trkpt lat="47.62537" lon="6.60097">
        <ele>371.1</ele>
        <time>2025-09-13T12:30:31Z</time>
      </trkpt>
      <trkpt lat="47.62536" lon="6.60084">
        <ele>371</ele>
        <time>2025-09-13T12:30:32Z</time>
      </trkpt>
      <trkpt lat="47.62533" lon="6.60072">
        <ele>370.9</ele>
        <time>2025-09-13T12:30:33Z</time>
      </trkpt>
      <trkpt lat="47.62531" lon="6.60059">
        <ele>371</ele>
        <time>2025-09-13T12:30:34Z</time>
      </trkpt>
      <trkpt lat="47.62528" lon="6.60047">
        <ele>371.2</ele>
        <time>2025-09-13T12:30:35Z</time>
      </trkpt>
      <trkpt lat="47.62525" lon="6.60037">
        <ele>371.5</ele>
        <time>2025-09-13T12:30:36Z</time>
      </trkpt>
      <trkpt lat="47.62522" lon="6.60027">
        <ele>371.8</ele>
        <time>2025-09-13T12:30:37Z</time>
      </trkpt>
      <trkpt lat="47.62521" lon="6.60018">
        <ele>372.1</ele>
        <time>2025-09-13T12:30:38Z</time>
      </trkpt>
      <trkpt lat="47.62519" lon="6.60009">
        <ele>372.4</ele>
        <time>2025-09-13T12:30:39Z</time>
      </trkpt>
      <trkpt lat="47.62518" lon="6.6">
        <ele>372.6</ele>
        <time>2025-09-13T12:30:40Z</time>
      </trkpt>
      <trkpt lat="47.62517" lon="6.59991">
        <ele>372.8</ele>
        <time>2025-09-13T12:30:41Z</time>
      </trkpt>
      <trkpt lat="47.62516" lon="6.59983">
        <ele>373</ele>
        <time>2025-09-13T12:30:42Z</time>
      </trkpt>
      <trkpt lat="47.62515" lon="6.59975">
        <ele>373.2</ele>
        <time>2025-09-13T12:30:43Z</time>
      </trkpt>
      <trkpt lat="47.62514" lon="6.59965">
        <ele>373.3</ele>
        <time>2025-09-13T12:30:44Z</time>
      </trkpt>
      <trkpt lat="47.62513" lon="6.59958">
        <ele>373.5</ele>
        <time>2025-09-13T12:30:45Z</time>
      </trkpt>
      <trkpt lat="47.62512" lon="6.59949">
        <ele>373.6</ele>
        <time>2025-09-13T12:30:46Z</time>
      </trkpt>
      <trkpt lat="47.62512" lon="6.5994">
        <ele>373.7</ele>
        <time>2025-09-13T12:30:47Z</time>
      </trkpt>
      <trkpt lat="47.62511" lon="6.59932">
        <ele>373.8</ele>
        <time>2025-09-13T12:30:48Z</time>
      </trkpt>
      <trkpt lat="47.6251" lon="6.59924">
        <ele>373.9</ele>
        <time>2025-09-13T12:30:49Z</time>
      </trkpt>
      <trkpt lat="47.62509" lon="6.59916">
        <ele>373.9</ele>
        <time>2025-09-13T12:30:50Z</time>
      </trkpt>
      <trkpt lat="47.62508" lon="6.59909">
        <ele>374</ele>
        <time>2025-09-13T12:30:51Z</time>
      </trkpt>
      <trkpt lat="47.62507" lon="6.59901">
        <ele>374.1</ele>
        <time>2025-09-13T12:30:52Z</time>
      </trkpt>
      <trkpt lat="47.62507" lon="6.59893">
        <ele>374.1</ele>
        <time>2025-09-13T12:30:53Z</time>
      </trkpt>
      <trkpt lat="47.62506" lon="6.59885">
        <ele>374.2</ele>
        <time>2025-09-13T12:30:54Z</time>
      </trkpt>
      <trkpt lat="47.62505" lon="6.59878">
        <ele>374.2</ele>
        <time>2025-09-13T12:30:55Z</time>
      </trkpt>
      <trkpt lat="47.62504" lon="6.59871">
        <ele>374.2</ele>
        <time>2025-09-13T12:30:56Z</time>
      </trkpt>
      <trkpt lat="47.62503" lon="6.59863">
        <ele>374.3</ele>
        <time>2025-09-13T12:30:57Z</time>
      </trkpt>
      <trkpt lat="47.62502" lon="6.59856">
        <ele>374.3</ele>
        <time>2025-09-13T12:30:58Z</time>
      </trkpt>
      <trkpt lat="47.62501" lon="6.59849">
        <ele>374.3</ele>
        <time>2025-09-13T12:30:59Z</time>
      </trkpt>
      <trkpt lat="47.625" lon="6.59845">
        <ele>374.4</ele>
        <time>2025-09-13T12:31:00Z</time>
      </trkpt>
      <trkpt lat="47.625" lon="6.59843">
        <ele>374.4</ele>
        <time>2025-09-13T12:31:01Z</time>
      </trkpt>
      <trkpt lat="47.62499" lon="6.59836">
        <ele>374.4</ele>
        <time>2025-09-13T12:31:02Z</time>
      </trkpt>
      <trkpt lat="47.62498" lon="6.59832">
        <ele>374.4</ele>
        <time>2025-09-13T12:31:03Z</time>
      </trkpt>
      <trkpt lat="47.62497" lon="6.59826">
        <ele>374.4</ele>
        <time>2025-09-13T12:31:05Z</time>
      </trkpt>
      <trkpt lat="47.62497" lon="6.5982">
        <ele>374.4</ele>
        <time>2025-09-13T12:31:06Z</time>
      </trkpt>
      <trkpt lat="47.62495" lon="6.59807">
        <ele>374.4</ele>
        <time>2025-09-13T12:31:07Z</time>
      </trkpt>
      <trkpt lat="47.62496" lon="6.598">
        <ele>374.4</ele>
        <time>2025-09-13T12:31:08Z</time>
      </trkpt>
      <trkpt lat="47.62493" lon="6.59791">
        <ele>374.4</ele>
        <time>2025-09-13T12:31:09Z</time>
      </trkpt>
      <trkpt lat="47.62493" lon="6.59782">
        <ele>374.4</ele>
        <time>2025-09-13T12:31:10Z</time>
      </trkpt>
      <trkpt lat="47.62491" lon="6.5977">
        <ele>374.4</ele>
        <time>2025-09-13T12:31:11Z</time>
      </trkpt>
      <trkpt lat="47.62491" lon="6.59745">
        <ele>374.4</ele>
        <time>2025-09-13T12:31:12Z</time>
      </trkpt>
      <trkpt lat="47.6249" lon="6.59737">
        <ele>374.4</ele>
        <time>2025-09-13T12:31:13Z</time>
      </trkpt>
      <trkpt lat="47.62488" lon="6.59728">
        <ele>374.4</ele>
        <time>2025-09-13T12:31:14Z</time>
      </trkpt>
      <trkpt lat="47.62488" lon="6.5972">
        <ele>374.4</ele>
        <time>2025-09-13T12:31:15Z</time>
      </trkpt>
      <trkpt lat="47.62487" lon="6.59711">
        <ele>374.4</ele>
        <time>2025-09-13T12:31:16Z</time>
      </trkpt>
      <trkpt lat="47.62485" lon="6.59702">
        <ele>374.4</ele>
        <time>2025-09-13T12:31:17Z</time>
      </trkpt>
      <trkpt lat="47.62484" lon="6.59693">
        <ele>374.4</ele>
        <time>2025-09-13T12:31:18Z</time>
      </trkpt>
      <trkpt lat="47.62483" lon="6.59684">
        <ele>374.4</ele>
        <time>2025-09-13T12:31:19Z</time>
      </trkpt>
      <trkpt lat="47.62482" lon="6.59675">
        <ele>374.5</ele>
        <time>2025-09-13T12:31:20Z</time>
      </trkpt>
      <trkpt lat="47.62482" lon="6.59666">
        <ele>374.5</ele>
        <time>2025-09-13T12:31:21Z</time>
      </trkpt>
      <trkpt lat="47.6248" lon="6.59657">
        <ele>374.5</ele>
        <time>2025-09-13T12:31:22Z</time>
      </trkpt>
      <trkpt lat="47.6248" lon="6.59648">
        <ele>374.5</ele>
        <time>2025-09-13T12:31:23Z</time>
      </trkpt>
      <trkpt lat="47.62478" lon="6.59639">
        <ele>374.6</ele>
        <time>2025-09-13T12:31:24Z</time>
      </trkpt>
      <trkpt lat="47.62478" lon="6.5963">
        <ele>374.6</ele>
        <time>2025-09-13T12:31:25Z</time>
      </trkpt>
      <trkpt lat="47.62477" lon="6.59622">
        <ele>374.7</ele>
        <time>2025-09-13T12:31:26Z</time>
      </trkpt>
      <trkpt lat="47.62475" lon="6.59613">
        <ele>374.7</ele>
        <time>2025-09-13T12:31:27Z</time>
      </trkpt>
      <trkpt lat="47.62474" lon="6.59604">
        <ele>374.8</ele>
        <time>2025-09-13T12:31:28Z</time>
      </trkpt>
      <trkpt lat="47.62473" lon="6.59599">
        <ele>374.8</ele>
        <time>2025-09-13T12:31:29Z</time>
      </trkpt>
      <trkpt lat="47.62472" lon="6.59589">
        <ele>374.9</ele>
        <time>2025-09-13T12:31:30Z</time>
      </trkpt>
      <trkpt lat="47.62471" lon="6.59581">
        <ele>375</ele>
        <time>2025-09-13T12:31:31Z</time>
      </trkpt>
      <trkpt lat="47.6247" lon="6.59571">
        <ele>375</ele>
        <time>2025-09-13T12:31:32Z</time>
      </trkpt>
      <trkpt lat="47.62469" lon="6.59562">
        <ele>375.1</ele>
        <time>2025-09-13T12:31:33Z</time>
      </trkpt>
      <trkpt lat="47.62467" lon="6.59552">
        <ele>375.3</ele>
        <time>2025-09-13T12:31:34Z</time>
      </trkpt>
      <trkpt lat="47.62465" lon="6.59542">
        <ele>375.4</ele>
        <time>2025-09-13T12:31:35Z</time>
      </trkpt>
      <trkpt lat="47.62463" lon="6.59533">
        <ele>375.5</ele>
        <time>2025-09-13T12:31:36Z</time>
      </trkpt>
      <trkpt lat="47.62462" lon="6.59525">
        <ele>375.6</ele>
        <time>2025-09-13T12:31:37Z</time>
      </trkpt>
      <trkpt lat="47.6246" lon="6.59517">
        <ele>375.6</ele>
        <time>2025-09-13T12:31:38Z</time>
      </trkpt>
      <trkpt lat="47.62458" lon="6.59508">
        <ele>375.7</ele>
        <time>2025-09-13T12:31:39Z</time>
      </trkpt>
      <trkpt lat="47.62456" lon="6.595">
        <ele>375.7</ele>
        <time>2025-09-13T12:31:40Z</time>
      </trkpt>
      <trkpt lat="47.62454" lon="6.59492">
        <ele>375.8</ele>
        <time>2025-09-13T12:31:41Z</time>
      </trkpt>
      <trkpt lat="47.62452" lon="6.59482">
        <ele>375.8</ele>
        <time>2025-09-13T12:31:42Z</time>
      </trkpt>
      <trkpt lat="47.62451" lon="6.59474">
        <ele>375.8</ele>
        <time>2025-09-13T12:31:43Z</time>
      </trkpt>
      <trkpt lat="47.62449" lon="6.59465">
        <ele>375.9</ele>
        <time>2025-09-13T12:31:44Z</time>
      </trkpt>
      <trkpt lat="47.62448" lon="6.59456">
        <ele>375.9</ele>
        <time>2025-09-13T12:31:45Z</time>
      </trkpt>
      <trkpt lat="47.62447" lon="6.59447">
        <ele>376</ele>
        <time>2025-09-13T12:31:46Z</time>
      </trkpt>
      <trkpt lat="47.62445" lon="6.59438">
        <ele>376.1</ele>
        <time>2025-09-13T12:31:47Z</time>
      </trkpt>
      <trkpt lat="47.62444" lon="6.59429">
        <ele>376.2</ele>
        <time>2025-09-13T12:31:48Z</time>
      </trkpt>
      <trkpt lat="47.62443" lon="6.5942">
        <ele>376.3</ele>
        <time>2025-09-13T12:31:49Z</time>
      </trkpt>
      <trkpt lat="47.62442" lon="6.59411">
        <ele>376.4</ele>
        <time>2025-09-13T12:31:50Z</time>
      </trkpt>
      <trkpt lat="47.6244" lon="6.59402">
        <ele>376.6</ele>
        <time>2025-09-13T12:31:51Z</time>
      </trkpt>
      <trkpt lat="47.62439" lon="6.59394">
        <ele>376.7</ele>
        <time>2025-09-13T12:31:52Z</time>
      </trkpt>
      <trkpt lat="47.62437" lon="6.59386">
        <ele>376.8</ele>
        <time>2025-09-13T12:31:53Z</time>
      </trkpt>
      <trkpt lat="47.62436" lon="6.59378">
        <ele>377</ele>
        <time>2025-09-13T12:31:54Z</time>
      </trkpt>
      <trkpt lat="47.62435" lon="6.59368">
        <ele>377.2</ele>
        <time>2025-09-13T12:31:55Z</time>
      </trkpt>
      <trkpt lat="47.62434" lon="6.5936">
        <ele>377.4</ele>
        <time>2025-09-13T12:31:56Z</time>
      </trkpt>
      <trkpt lat="47.62432" lon="6.59351">
        <ele>377.6</ele>
        <time>2025-09-13T12:31:57Z</time>
      </trkpt>
      <trkpt lat="47.62431" lon="6.59342">
        <ele>377.9</ele>
        <time>2025-09-13T12:31:58Z</time>
      </trkpt>
      <trkpt lat="47.6243" lon="6.59333">
        <ele>378.1</ele>
        <time>2025-09-13T12:31:59Z</time>
      </trkpt>
      <trkpt lat="47.62429" lon="6.59324">
        <ele>378.3</ele>
        <time>2025-09-13T12:32:00Z</time>
      </trkpt>
      <trkpt lat="47.62427" lon="6.59316">
        <ele>378.5</ele>
        <time>2025-09-13T12:32:01Z</time>
      </trkpt>
      <trkpt lat="47.62426" lon="6.59307">
        <ele>378.7</ele>
        <time>2025-09-13T12:32:02Z</time>
      </trkpt>
      <trkpt lat="47.62425" lon="6.593">
        <ele>378.9</ele>
        <time>2025-09-13T12:32:03Z</time>
      </trkpt>
      <trkpt lat="47.62424" lon="6.59291">
        <ele>379.1</ele>
        <time>2025-09-13T12:32:04Z</time>
      </trkpt>
      <trkpt lat="47.62423" lon="6.59283">
        <ele>379.3</ele>
        <time>2025-09-13T12:32:05Z</time>
      </trkpt>
      <trkpt lat="47.62421" lon="6.59274">
        <ele>379.4</ele>
        <time>2025-09-13T12:32:06Z</time>
      </trkpt>
      <trkpt lat="47.6242" lon="6.59266">
        <ele>379.6</ele>
        <time>2025-09-13T12:32:07Z</time>
      </trkpt>
      <trkpt lat="47.6242" lon="6.59258">
        <ele>379.8</ele>
        <time>2025-09-13T12:32:08Z</time>
      </trkpt>
      <trkpt lat="47.62419" lon="6.5925">
        <ele>380</ele>
        <time>2025-09-13T12:32:09Z</time>
      </trkpt>
      <trkpt lat="47.62418" lon="6.59242">
        <ele>380.2</ele>
        <time>2025-09-13T12:32:10Z</time>
      </trkpt>
      <trkpt lat="47.62417" lon="6.59234">
        <ele>380.3</ele>
        <time>2025-09-13T12:32:11Z</time>
      </trkpt>
      <trkpt lat="47.62417" lon="6.59225">
        <ele>380.4</ele>
        <time>2025-09-13T12:32:12Z</time>
      </trkpt>
      <trkpt lat="47.62416" lon="6.59217">
        <ele>380.5</ele>
        <time>2025-09-13T12:32:13Z</time>
      </trkpt>
      <trkpt lat="47.62415" lon="6.59209">
        <ele>380.6</ele>
        <time>2025-09-13T12:32:14Z</time>
      </trkpt>
      <trkpt lat="47.62414" lon="6.592">
        <ele>380.7</ele>
        <time>2025-09-13T12:32:15Z</time>
      </trkpt>
      <trkpt lat="47.62412" lon="6.59193">
        <ele>380.8</ele>
        <time>2025-09-13T12:32:16Z</time>
      </trkpt>
      <trkpt lat="47.62411" lon="6.59184">
        <ele>381</ele>
        <time>2025-09-13T12:32:17Z</time>
      </trkpt>
      <trkpt lat="47.6241" lon="6.59175">
        <ele>381.1</ele>
        <time>2025-09-13T12:32:18Z</time>
      </trkpt>
      <trkpt lat="47.62409" lon="6.59167">
        <ele>381.2</ele>
        <time>2025-09-13T12:32:19Z</time>
      </trkpt>
      <trkpt lat="47.62407" lon="6.59159">
        <ele>381.3</ele>
        <time>2025-09-13T12:32:20Z</time>
      </trkpt>
      <trkpt lat="47.62405" lon="6.59152">
        <ele>381.4</ele>
        <time>2025-09-13T12:32:21Z</time>
      </trkpt>
      <trkpt lat="47.62404" lon="6.59144">
        <ele>381.5</ele>
        <time>2025-09-13T12:32:22Z</time>
      </trkpt>
      <trkpt lat="47.62405" lon="6.5913">
        <ele>381.7</ele>
        <time>2025-09-13T12:32:23Z</time>
      </trkpt>
      <trkpt lat="47.62403" lon="6.59123">
        <ele>381.8</ele>
        <time>2025-09-13T12:32:24Z</time>
      </trkpt>
      <trkpt lat="47.62402" lon="6.59114">
        <ele>381.9</ele>
        <time>2025-09-13T12:32:25Z</time>
      </trkpt>
      <trkpt lat="47.62401" lon="6.59105">
        <ele>382.1</ele>
        <time>2025-09-13T12:32:26Z</time>
      </trkpt>
      <trkpt lat="47.624" lon="6.59097">
        <ele>382.2</ele>
        <time>2025-09-13T12:32:27Z</time>
      </trkpt>
      <trkpt lat="47.62399" lon="6.59088">
        <ele>382.3</ele>
        <time>2025-09-13T12:32:28Z</time>
      </trkpt>
      <trkpt lat="47.62401" lon="6.5908">
        <ele>382.5</ele>
        <time>2025-09-13T12:32:29Z</time>
      </trkpt>
      <trkpt lat="47.62402" lon="6.59071">
        <ele>382.6</ele>
        <time>2025-09-13T12:32:30Z</time>
      </trkpt>
      <trkpt lat="47.62405" lon="6.59064">
        <ele>382.7</ele>
        <time>2025-09-13T12:32:31Z</time>
      </trkpt>
      <trkpt lat="47.62409" lon="6.59057">
        <ele>383</ele>
        <time>2025-09-13T12:32:32Z</time>
      </trkpt>
      <trkpt lat="47.62414" lon="6.59051">
        <ele>383.4</ele>
        <time>2025-09-13T12:32:33Z</time>
      </trkpt>
      <trkpt lat="47.6242" lon="6.59047">
        <ele>383.7</ele>
        <time>2025-09-13T12:32:34Z</time>
      </trkpt>
      <trkpt lat="47.62425" lon="6.59044">
        <ele>384</ele>
        <time>2025-09-13T12:32:35Z</time>
      </trkpt>
      <trkpt lat="47.6243" lon="6.5904">
        <ele>384.3</ele>
        <time>2025-09-13T12:32:36Z</time>
      </trkpt>
      <trkpt lat="47.62436" lon="6.59037">
        <ele>384.7</ele>
        <time>2025-09-13T12:32:37Z</time>
      </trkpt>
      <trkpt lat="47.62442" lon="6.59033">
        <ele>385.1</ele>
        <time>2025-09-13T12:32:38Z</time>
      </trkpt>
      <trkpt lat="47.62447" lon="6.59026">
        <ele>385.4</ele>
        <time>2025-09-13T12:32:39Z</time>
      </trkpt>
      <trkpt lat="47.62451" lon="6.59019">
        <ele>385.7</ele>
        <time>2025-09-13T12:32:40Z</time>
      </trkpt>
      <trkpt lat="47.62455" lon="6.59009">
        <ele>386</ele>
        <time>2025-09-13T12:32:41Z</time>
      </trkpt>
      <trkpt lat="47.62455" lon="6.59004">
        <ele>386.1</ele>
        <time>2025-09-13T12:32:42Z</time>
      </trkpt>
      <trkpt lat="47.62454" lon="6.58995">
        <ele>386.2</ele>
        <time>2025-09-13T12:32:43Z</time>
      </trkpt>
      <trkpt lat="47.62453" lon="6.58986">
        <ele>386.3</ele>
        <time>2025-09-13T12:32:44Z</time>
      </trkpt>
      <trkpt lat="47.62452" lon="6.58976">
        <ele>386.4</ele>
        <time>2025-09-13T12:32:45Z</time>
      </trkpt>
      <trkpt lat="47.6245" lon="6.58967">
        <ele>386.4</ele>
        <time>2025-09-13T12:32:46Z</time>
      </trkpt>
      <trkpt lat="47.6245" lon="6.58957">
        <ele>386.3</ele>
        <time>2025-09-13T12:32:47Z</time>
      </trkpt>
      <trkpt lat="47.6245" lon="6.58948">
        <ele>386.3</ele>
        <time>2025-09-13T12:32:48Z</time>
      </trkpt>
      <trkpt lat="47.62449" lon="6.58939">
        <ele>386.2</ele>
        <time>2025-09-13T12:32:49Z</time>
      </trkpt>
      <trkpt lat="47.62449" lon="6.58929">
        <ele>386.1</ele>
        <time>2025-09-13T12:32:50Z</time>
      </trkpt>
      <trkpt lat="47.62448" lon="6.5892">
        <ele>386</ele>
        <time>2025-09-13T12:32:51Z</time>
      </trkpt>
      <trkpt lat="47.62448" lon="6.58912">
        <ele>385.9</ele>
        <time>2025-09-13T12:32:52Z</time>
      </trkpt>
      <trkpt lat="47.62447" lon="6.58903">
        <ele>385.8</ele>
        <time>2025-09-13T12:32:53Z</time>
      </trkpt>
      <trkpt lat="47.62447" lon="6.58893">
        <ele>385.7</ele>
        <time>2025-09-13T12:32:54Z</time>
      </trkpt>
      <trkpt lat="47.62446" lon="6.58884">
        <ele>385.6</ele>
        <time>2025-09-13T12:32:55Z</time>
      </trkpt>
      <trkpt lat="47.62445" lon="6.58874">
        <ele>385.5</ele>
        <time>2025-09-13T12:32:56Z</time>
      </trkpt>
      <trkpt lat="47.62444" lon="6.58865">
        <ele>385.4</ele>
        <time>2025-09-13T12:32:57Z</time>
      </trkpt>
      <trkpt lat="47.62442" lon="6.58855">
        <ele>385.2</ele>
        <time>2025-09-13T12:32:58Z</time>
      </trkpt>
      <trkpt lat="47.62441" lon="6.58846">
        <ele>385.1</ele>
        <time>2025-09-13T12:32:59Z</time>
      </trkpt>
      <trkpt lat="47.6244" lon="6.58838">
        <ele>385</ele>
        <time>2025-09-13T12:33:00Z</time>
      </trkpt>
      <trkpt lat="47.62438" lon="6.58828">
        <ele>384.8</ele>
        <time>2025-09-13T12:33:01Z</time>
      </trkpt>
      <trkpt lat="47.62436" lon="6.58819">
        <ele>384.7</ele>
        <time>2025-09-13T12:33:02Z</time>
      </trkpt>
      <trkpt lat="47.62435" lon="6.5881">
        <ele>384.5</ele>
        <time>2025-09-13T12:33:03Z</time>
      </trkpt>
      <trkpt lat="47.62433" lon="6.588">
        <ele>384.4</ele>
        <time>2025-09-13T12:33:04Z</time>
      </trkpt>
      <trkpt lat="47.62431" lon="6.58789">
        <ele>384.2</ele>
        <time>2025-09-13T12:33:05Z</time>
      </trkpt>
      <trkpt lat="47.6243" lon="6.58778">
        <ele>384.1</ele>
        <time>2025-09-13T12:33:06Z</time>
      </trkpt>
      <trkpt lat="47.62428" lon="6.58768">
        <ele>384</ele>
        <time>2025-09-13T12:33:07Z</time>
      </trkpt>
      <trkpt lat="47.62426" lon="6.58757">
        <ele>383.9</ele>
        <time>2025-09-13T12:33:08Z</time>
      </trkpt>
      <trkpt lat="47.62424" lon="6.58746">
        <ele>383.7</ele>
        <time>2025-09-13T12:33:09Z</time>
      </trkpt>
      <trkpt lat="47.62423" lon="6.58736">
        <ele>383.6</ele>
        <time>2025-09-13T12:33:10Z</time>
      </trkpt>
      <trkpt lat="47.62422" lon="6.58726">
        <ele>383.5</ele>
        <time>2025-09-13T12:33:11Z</time>
      </trkpt>
      <trkpt lat="47.6242" lon="6.58715">
        <ele>383.3</ele>
        <time>2025-09-13T12:33:12Z</time>
      </trkpt>
      <trkpt lat="47.62418" lon="6.58705">
        <ele>383.2</ele>
        <time>2025-09-13T12:33:13Z</time>
      </trkpt>
      <trkpt lat="47.62417" lon="6.58695">
        <ele>383.1</ele>
        <time>2025-09-13T12:33:14Z</time>
      </trkpt>
      <trkpt lat="47.62416" lon="6.58684">
        <ele>382.9</ele>
        <time>2025-09-13T12:33:15Z</time>
      </trkpt>
      <trkpt lat="47.62415" lon="6.58674">
        <ele>382.8</ele>
        <time>2025-09-13T12:33:16Z</time>
      </trkpt>
      <trkpt lat="47.62414" lon="6.58663">
        <ele>382.7</ele>
        <time>2025-09-13T12:33:17Z</time>
      </trkpt>
      <trkpt lat="47.62412" lon="6.58652">
        <ele>382.6</ele>
        <time>2025-09-13T12:33:18Z</time>
      </trkpt>
      <trkpt lat="47.6241" lon="6.58642">
        <ele>382.5</ele>
        <time>2025-09-13T12:33:19Z</time>
      </trkpt>
      <trkpt lat="47.62409" lon="6.58632">
        <ele>382.4</ele>
        <time>2025-09-13T12:33:20Z</time>
      </trkpt>
      <trkpt lat="47.62407" lon="6.58622">
        <ele>382.3</ele>
        <time>2025-09-13T12:33:21Z</time>
      </trkpt>
      <trkpt lat="47.62406" lon="6.58611">
        <ele>382.2</ele>
        <time>2025-09-13T12:33:22Z</time>
      </trkpt>
      <trkpt lat="47.62405" lon="6.58601">
        <ele>382</ele>
        <time>2025-09-13T12:33:23Z</time>
      </trkpt>
      <trkpt lat="47.62403" lon="6.58591">
        <ele>381.9</ele>
        <time>2025-09-13T12:33:24Z</time>
      </trkpt>
      <trkpt lat="47.62402" lon="6.5858">
        <ele>381.7</ele>
        <time>2025-09-13T12:33:25Z</time>
      </trkpt>
      <trkpt lat="47.62401" lon="6.58569">
        <ele>381.6</ele>
        <time>2025-09-13T12:33:26Z</time>
      </trkpt>
      <trkpt lat="47.62399" lon="6.58558">
        <ele>381.4</ele>
        <time>2025-09-13T12:33:27Z</time>
      </trkpt>
      <trkpt lat="47.62397" lon="6.58547">
        <ele>381.3</ele>
        <time>2025-09-13T12:33:28Z</time>
      </trkpt>
      <trkpt lat="47.62396" lon="6.58536">
        <ele>381.1</ele>
        <time>2025-09-13T12:33:29Z</time>
      </trkpt>
      <trkpt lat="47.62394" lon="6.58524">
        <ele>380.9</ele>
        <time>2025-09-13T12:33:30Z</time>
      </trkpt>
      <trkpt lat="47.62392" lon="6.58513">
        <ele>380.8</ele>
        <time>2025-09-13T12:33:31Z</time>
      </trkpt>
      <trkpt lat="47.62391" lon="6.58503">
        <ele>380.6</ele>
        <time>2025-09-13T12:33:32Z</time>
      </trkpt>
      <trkpt lat="47.62389" lon="6.58493">
        <ele>380.3</ele>
        <time>2025-09-13T12:33:33Z</time>
      </trkpt>
      <trkpt lat="47.62386" lon="6.58481">
        <ele>380</ele>
        <time>2025-09-13T12:33:34Z</time>
      </trkpt>
      <trkpt lat="47.62386" lon="6.58472">
        <ele>379.7</ele>
        <time>2025-09-13T12:33:35Z</time>
      </trkpt>
      <trkpt lat="47.62385" lon="6.58461">
        <ele>379.3</ele>
        <time>2025-09-13T12:33:36Z</time>
      </trkpt>
      <trkpt lat="47.62383" lon="6.58449">
        <ele>378.9</ele>
        <time>2025-09-13T12:33:37Z</time>
      </trkpt>
      <trkpt lat="47.62382" lon="6.58439">
        <ele>378.4</ele>
        <time>2025-09-13T12:33:38Z</time>
      </trkpt>
      <trkpt lat="47.62382" lon="6.58426">
        <ele>377.9</ele>
        <time>2025-09-13T12:33:39Z</time>
      </trkpt>
      <trkpt lat="47.62381" lon="6.58415">
        <ele>377.3</ele>
        <time>2025-09-13T12:33:40Z</time>
      </trkpt>
      <trkpt lat="47.62382" lon="6.58403">
        <ele>376.8</ele>
        <time>2025-09-13T12:33:41Z</time>
      </trkpt>
      <trkpt lat="47.62383" lon="6.5839">
        <ele>376.3</ele>
        <time>2025-09-13T12:33:42Z</time>
      </trkpt>
      <trkpt lat="47.62385" lon="6.58378">
        <ele>375.7</ele>
        <time>2025-09-13T12:33:43Z</time>
      </trkpt>
      <trkpt lat="47.62386" lon="6.58365">
        <ele>375.1</ele>
        <time>2025-09-13T12:33:44Z</time>
      </trkpt>
      <trkpt lat="47.62388" lon="6.58353">
        <ele>374.5</ele>
        <time>2025-09-13T12:33:45Z</time>
      </trkpt>
      <trkpt lat="47.6239" lon="6.58341">
        <ele>373.8</ele>
        <time>2025-09-13T12:33:46Z</time>
      </trkpt>
      <trkpt lat="47.62391" lon="6.58327">
        <ele>373.1</ele>
        <time>2025-09-13T12:33:47Z</time>
      </trkpt>
      <trkpt lat="47.62393" lon="6.58314">
        <ele>372.3</ele>
        <time>2025-09-13T12:33:48Z</time>
      </trkpt>
      <trkpt lat="47.62394" lon="6.583">
        <ele>371.5</ele>
        <time>2025-09-13T12:33:49Z</time>
      </trkpt>
      <trkpt lat="47.62397" lon="6.58286">
        <ele>370.5</ele>
        <time>2025-09-13T12:33:50Z</time>
      </trkpt>
      <trkpt lat="47.62401" lon="6.58272">
        <ele>369.6</ele>
        <time>2025-09-13T12:33:51Z</time>
      </trkpt>
      <trkpt lat="47.62407" lon="6.58259">
        <ele>368.6</ele>
        <time>2025-09-13T12:33:52Z</time>
      </trkpt>
      <trkpt lat="47.62412" lon="6.58246">
        <ele>367.7</ele>
        <time>2025-09-13T12:33:53Z</time>
      </trkpt>
      <trkpt lat="47.62418" lon="6.58231">
        <ele>366.8</ele>
        <time>2025-09-13T12:33:54Z</time>
      </trkpt>
      <trkpt lat="47.62425" lon="6.58218">
        <ele>366</ele>
        <time>2025-09-13T12:33:55Z</time>
      </trkpt>
      <trkpt lat="47.62433" lon="6.58205">
        <ele>365.7</ele>
        <time>2025-09-13T12:33:56Z</time>
      </trkpt>
      <trkpt lat="47.62442" lon="6.58193">
        <ele>365.4</ele>
        <time>2025-09-13T12:33:57Z</time>
      </trkpt>
      <trkpt lat="47.62449" lon="6.5818">
        <ele>365</ele>
        <time>2025-09-13T12:33:58Z</time>
      </trkpt>
      <trkpt lat="47.62455" lon="6.58165">
        <ele>364.7</ele>
        <time>2025-09-13T12:33:59Z</time>
      </trkpt>
      <trkpt lat="47.62459" lon="6.58149">
        <ele>364.4</ele>
        <time>2025-09-13T12:34:00Z</time>
      </trkpt>
      <trkpt lat="47.62462" lon="6.58134">
        <ele>364.3</ele>
        <time>2025-09-13T12:34:01Z</time>
      </trkpt>
      <trkpt lat="47.62465" lon="6.5812">
        <ele>364.2</ele>
        <time>2025-09-13T12:34:02Z</time>
      </trkpt>
      <trkpt lat="47.62467" lon="6.58105">
        <ele>364.1</ele>
        <time>2025-09-13T12:34:03Z</time>
      </trkpt>
      <trkpt lat="47.62468" lon="6.58091">
        <ele>364</ele>
        <time>2025-09-13T12:34:04Z</time>
      </trkpt>
      <trkpt lat="47.6247" lon="6.58078">
        <ele>364</ele>
        <time>2025-09-13T12:34:05Z</time>
      </trkpt>
      <trkpt lat="47.62472" lon="6.58065">
        <ele>363.9</ele>
        <time>2025-09-13T12:34:06Z</time>
      </trkpt>
      <trkpt lat="47.62473" lon="6.58054">
        <ele>363.8</ele>
        <time>2025-09-13T12:34:07Z</time>
      </trkpt>
      <trkpt lat="47.62476" lon="6.58041">
        <ele>363.7</ele>
        <time>2025-09-13T12:34:08Z</time>
      </trkpt>
      <trkpt lat="47.62477" lon="6.5803">
        <ele>363.7</ele>
        <time>2025-09-13T12:34:09Z</time>
      </trkpt>
      <trkpt lat="47.62479" lon="6.58018">
        <ele>363.6</ele>
        <time>2025-09-13T12:34:10Z</time>
      </trkpt>
      <trkpt lat="47.62481" lon="6.58007">
        <ele>363.5</ele>
        <time>2025-09-13T12:34:11Z</time>
      </trkpt>
      <trkpt lat="47.62483" lon="6.57997">
        <ele>363.4</ele>
        <time>2025-09-13T12:34:12Z</time>
      </trkpt>
      <trkpt lat="47.62484" lon="6.57987">
        <ele>363.4</ele>
        <time>2025-09-13T12:34:13Z</time>
      </trkpt>
      <trkpt lat="47.62486" lon="6.57977">
        <ele>363.3</ele>
        <time>2025-09-13T12:34:14Z</time>
      </trkpt>
      <trkpt lat="47.62487" lon="6.57967">
        <ele>363.3</ele>
        <time>2025-09-13T12:34:15Z</time>
      </trkpt>
      <trkpt lat="47.62489" lon="6.57956">
        <ele>363.2</ele>
        <time>2025-09-13T12:34:16Z</time>
      </trkpt>
      <trkpt lat="47.62491" lon="6.57946">
        <ele>363.2</ele>
        <time>2025-09-13T12:34:17Z</time>
      </trkpt>
      <trkpt lat="47.62493" lon="6.57937">
        <ele>363.2</ele>
        <time>2025-09-13T12:34:18Z</time>
      </trkpt>
      <trkpt lat="47.62494" lon="6.57929">
        <ele>363.1</ele>
        <time>2025-09-13T12:34:19Z</time>
      </trkpt>
      <trkpt lat="47.62496" lon="6.57919">
        <ele>363.1</ele>
        <time>2025-09-13T12:34:20Z</time>
      </trkpt>
      <trkpt lat="47.62497" lon="6.5791">
        <ele>363</ele>
        <time>2025-09-13T12:34:21Z</time>
      </trkpt>
      <trkpt lat="47.62499" lon="6.57901">
        <ele>363</ele>
        <time>2025-09-13T12:34:22Z</time>
      </trkpt>
      <trkpt lat="47.62501" lon="6.57892">
        <ele>362.9</ele>
        <time>2025-09-13T12:34:23Z</time>
      </trkpt>
      <trkpt lat="47.62502" lon="6.57884">
        <ele>362.8</ele>
        <time>2025-09-13T12:34:24Z</time>
      </trkpt>
      <trkpt lat="47.62503" lon="6.57875">
        <ele>362.8</ele>
        <time>2025-09-13T12:34:25Z</time>
      </trkpt>
      <trkpt lat="47.62504" lon="6.57867">
        <ele>362.7</ele>
        <time>2025-09-13T12:34:26Z</time>
      </trkpt>
      <trkpt lat="47.62506" lon="6.57858">
        <ele>362.7</ele>
        <time>2025-09-13T12:34:27Z</time>
      </trkpt>
      <trkpt lat="47.62507" lon="6.57849">
        <ele>362.6</ele>
        <time>2025-09-13T12:34:28Z</time>
      </trkpt>
      <trkpt lat="47.62509" lon="6.57841">
        <ele>362.4</ele>
        <time>2025-09-13T12:34:29Z</time>
      </trkpt>
      <trkpt lat="47.62511" lon="6.57832">
        <ele>362.3</ele>
        <time>2025-09-13T12:34:30Z</time>
      </trkpt>
      <trkpt lat="47.62512" lon="6.57823">
        <ele>362.2</ele>
        <time>2025-09-13T12:34:31Z</time>
      </trkpt>
      <trkpt lat="47.62513" lon="6.57815">
        <ele>362.1</ele>
        <time>2025-09-13T12:34:32Z</time>
      </trkpt>
      <trkpt lat="47.62514" lon="6.57806">
        <ele>361.9</ele>
        <time>2025-09-13T12:34:33Z</time>
      </trkpt>
      <trkpt lat="47.62516" lon="6.57797">
        <ele>361.7</ele>
        <time>2025-09-13T12:34:34Z</time>
      </trkpt>
      <trkpt lat="47.62517" lon="6.57788">
        <ele>361.6</ele>
        <time>2025-09-13T12:34:35Z</time>
      </trkpt>
      <trkpt lat="47.62518" lon="6.57779">
        <ele>361.4</ele>
        <time>2025-09-13T12:34:36Z</time>
      </trkpt>
      <trkpt lat="47.62519" lon="6.5777">
        <ele>361.2</ele>
        <time>2025-09-13T12:34:37Z</time>
      </trkpt>
      <trkpt lat="47.6252" lon="6.5776">
        <ele>361.1</ele>
        <time>2025-09-13T12:34:38Z</time>
      </trkpt>
      <trkpt lat="47.6252" lon="6.57751">
        <ele>360.9</ele>
        <time>2025-09-13T12:34:39Z</time>
      </trkpt>
      <trkpt lat="47.62519" lon="6.57741">
        <ele>360.7</ele>
        <time>2025-09-13T12:34:40Z</time>
      </trkpt>
      <trkpt lat="47.62518" lon="6.57732">
        <ele>360.6</ele>
        <time>2025-09-13T12:34:41Z</time>
      </trkpt>
      <trkpt lat="47.62516" lon="6.57722">
        <ele>360.4</ele>
        <time>2025-09-13T12:34:42Z</time>
      </trkpt>
      <trkpt lat="47.62514" lon="6.57713">
        <ele>360.2</ele>
        <time>2025-09-13T12:34:43Z</time>
      </trkpt>
      <trkpt lat="47.62513" lon="6.57704">
        <ele>360.1</ele>
        <time>2025-09-13T12:34:44Z</time>
      </trkpt>
      <trkpt lat="47.62511" lon="6.57696">
        <ele>359.9</ele>
        <time>2025-09-13T12:34:45Z</time>
      </trkpt>
      <trkpt lat="47.62509" lon="6.57686">
        <ele>359.7</ele>
        <time>2025-09-13T12:34:46Z</time>
      </trkpt>
      <trkpt lat="47.62507" lon="6.57677">
        <ele>359.5</ele>
        <time>2025-09-13T12:34:47Z</time>
      </trkpt>
      <trkpt lat="47.62505" lon="6.57668">
        <ele>359.3</ele>
        <time>2025-09-13T12:34:48Z</time>
      </trkpt>
      <trkpt lat="47.62504" lon="6.57658">
        <ele>359.1</ele>
        <time>2025-09-13T12:34:49Z</time>
      </trkpt>
      <trkpt lat="47.62502" lon="6.57649">
        <ele>359</ele>
        <time>2025-09-13T12:34:50Z</time>
      </trkpt>
      <trkpt lat="47.625" lon="6.57641">
        <ele>358.8</ele>
        <time>2025-09-13T12:34:51Z</time>
      </trkpt>
      <trkpt lat="47.62499" lon="6.57633">
        <ele>358.7</ele>
        <time>2025-09-13T12:34:52Z</time>
      </trkpt>
      <trkpt lat="47.62498" lon="6.57624">
        <ele>358.5</ele>
        <time>2025-09-13T12:34:53Z</time>
      </trkpt>
      <trkpt lat="47.62496" lon="6.57615">
        <ele>358.3</ele>
        <time>2025-09-13T12:34:54Z</time>
      </trkpt>
      <trkpt lat="47.62494" lon="6.57606">
        <ele>358.2</ele>
        <time>2025-09-13T12:34:55Z</time>
      </trkpt>
      <trkpt lat="47.62493" lon="6.57597">
        <ele>358</ele>
        <time>2025-09-13T12:34:56Z</time>
      </trkpt>
      <trkpt lat="47.62491" lon="6.57589">
        <ele>357.9</ele>
        <time>2025-09-13T12:34:57Z</time>
      </trkpt>
      <trkpt lat="47.62489" lon="6.57579">
        <ele>357.7</ele>
        <time>2025-09-13T12:34:58Z</time>
      </trkpt>
      <trkpt lat="47.62488" lon="6.57571">
        <ele>357.6</ele>
        <time>2025-09-13T12:34:59Z</time>
      </trkpt>
      <trkpt lat="47.62486" lon="6.57563">
        <ele>357.5</ele>
        <time>2025-09-13T12:35:00Z</time>
      </trkpt>
      <trkpt lat="47.62484" lon="6.57554">
        <ele>357.4</ele>
        <time>2025-09-13T12:35:01Z</time>
      </trkpt>
      <trkpt lat="47.62483" lon="6.57546">
        <ele>357.2</ele>
        <time>2025-09-13T12:35:02Z</time>
      </trkpt>
      <trkpt lat="47.62481" lon="6.57537">
        <ele>357.1</ele>
        <time>2025-09-13T12:35:03Z</time>
      </trkpt>
      <trkpt lat="47.62479" lon="6.57529">
        <ele>357</ele>
        <time>2025-09-13T12:35:04Z</time>
      </trkpt>
      <trkpt lat="47.62477" lon="6.5752">
        <ele>356.9</ele>
        <time>2025-09-13T12:35:05Z</time>
      </trkpt>
      <trkpt lat="47.62475" lon="6.57511">
        <ele>356.8</ele>
        <time>2025-09-13T12:35:06Z</time>
      </trkpt>
      <trkpt lat="47.62474" lon="6.57503">
        <ele>356.7</ele>
        <time>2025-09-13T12:35:07Z</time>
      </trkpt>
      <trkpt lat="47.62473" lon="6.57494">
        <ele>356.6</ele>
        <time>2025-09-13T12:35:08Z</time>
      </trkpt>
      <trkpt lat="47.62471" lon="6.57485">
        <ele>356.5</ele>
        <time>2025-09-13T12:35:09Z</time>
      </trkpt>
      <trkpt lat="47.6247" lon="6.57476">
        <ele>356.4</ele>
        <time>2025-09-13T12:35:10Z</time>
      </trkpt>
      <trkpt lat="47.6247" lon="6.57467">
        <ele>356.3</ele>
        <time>2025-09-13T12:35:11Z</time>
      </trkpt>
      <trkpt lat="47.62469" lon="6.57458">
        <ele>356.2</ele>
        <time>2025-09-13T12:35:12Z</time>
      </trkpt>
      <trkpt lat="47.62469" lon="6.57449">
        <ele>356.1</ele>
        <time>2025-09-13T12:35:13Z</time>
      </trkpt>
      <trkpt lat="47.62468" lon="6.57439">
        <ele>355.9</ele>
        <time>2025-09-13T12:35:14Z</time>
      </trkpt>
      <trkpt lat="47.62469" lon="6.5743">
        <ele>355.8</ele>
        <time>2025-09-13T12:35:15Z</time>
      </trkpt>
      <trkpt lat="47.62469" lon="6.5742">
        <ele>355.7</ele>
        <time>2025-09-13T12:35:16Z</time>
      </trkpt>
      <trkpt lat="47.62469" lon="6.57411">
        <ele>355.6</ele>
        <time>2025-09-13T12:35:17Z</time>
      </trkpt>
      <trkpt lat="47.62469" lon="6.57402">
        <ele>355.5</ele>
        <time>2025-09-13T12:35:18Z</time>
      </trkpt>
      <trkpt lat="47.6247" lon="6.57393">
        <ele>355.4</ele>
        <time>2025-09-13T12:35:19Z</time>
      </trkpt>
      <trkpt lat="47.6247" lon="6.57384">
        <ele>355.3</ele>
        <time>2025-09-13T12:35:20Z</time>
      </trkpt>
      <trkpt lat="47.62471" lon="6.57374">
        <ele>355.1</ele>
        <time>2025-09-13T12:35:21Z</time>
      </trkpt>
      <trkpt lat="47.62472" lon="6.57364">
        <ele>355</ele>
        <time>2025-09-13T12:35:22Z</time>
      </trkpt>
      <trkpt lat="47.62472" lon="6.57354">
        <ele>354.9</ele>
        <time>2025-09-13T12:35:23Z</time>
      </trkpt>
      <trkpt lat="47.62472" lon="6.57344">
        <ele>354.8</ele>
        <time>2025-09-13T12:35:24Z</time>
      </trkpt>
      <trkpt lat="47.62472" lon="6.57335">
        <ele>354.7</ele>
        <time>2025-09-13T12:35:25Z</time>
      </trkpt>
      <trkpt lat="47.62473" lon="6.57327">
        <ele>354.6</ele>
        <time>2025-09-13T12:35:26Z</time>
      </trkpt>
      <trkpt lat="47.62473" lon="6.57317">
        <ele>354.5</ele>
        <time>2025-09-13T12:35:27Z</time>
      </trkpt>
      <trkpt lat="47.62473" lon="6.57307">
        <ele>354.3</ele>
        <time>2025-09-13T12:35:28Z</time>
      </trkpt>
      <trkpt lat="47.62474" lon="6.57298">
        <ele>354.2</ele>
        <time>2025-09-13T12:35:29Z</time>
      </trkpt>
      <trkpt lat="47.62474" lon="6.57289">
        <ele>354.1</ele>
        <time>2025-09-13T12:35:30Z</time>
      </trkpt>
      <trkpt lat="47.62475" lon="6.5728">
        <ele>354</ele>
        <time>2025-09-13T12:35:31Z</time>
      </trkpt>
      <trkpt lat="47.62475" lon="6.57271">
        <ele>353.9</ele>
        <time>2025-09-13T12:35:32Z</time>
      </trkpt>
      <trkpt lat="47.62476" lon="6.57263">
        <ele>353.7</ele>
        <time>2025-09-13T12:35:33Z</time>
      </trkpt>
      <trkpt lat="47.62474" lon="6.57253">
        <ele>353.6</ele>
        <time>2025-09-13T12:35:34Z</time>
      </trkpt>
      <trkpt lat="47.62475" lon="6.57245">
        <ele>353.4</ele>
        <time>2025-09-13T12:35:35Z</time>
      </trkpt>
      <trkpt lat="47.62475" lon="6.57236">
        <ele>353.3</ele>
        <time>2025-09-13T12:35:36Z</time>
      </trkpt>
      <trkpt lat="47.62476" lon="6.57227">
        <ele>353.1</ele>
        <time>2025-09-13T12:35:37Z</time>
      </trkpt>
      <trkpt lat="47.62476" lon="6.57218">
        <ele>352.9</ele>
        <time>2025-09-13T12:35:38Z</time>
      </trkpt>
      <trkpt lat="47.62477" lon="6.57209">
        <ele>352.7</ele>
        <time>2025-09-13T12:35:39Z</time>
      </trkpt>
      <trkpt lat="47.62478" lon="6.572">
        <ele>352.6</ele>
        <time>2025-09-13T12:35:40Z</time>
      </trkpt>
      <trkpt lat="47.62479" lon="6.57191">
        <ele>352.4</ele>
        <time>2025-09-13T12:35:41Z</time>
      </trkpt>
      <trkpt lat="47.6248" lon="6.57182">
        <ele>352.2</ele>
        <time>2025-09-13T12:35:42Z</time>
      </trkpt>
      <trkpt lat="47.62482" lon="6.57172">
        <ele>352</ele>
        <time>2025-09-13T12:35:43Z</time>
      </trkpt>
      <trkpt lat="47.62483" lon="6.57163">
        <ele>351.8</ele>
        <time>2025-09-13T12:35:44Z</time>
      </trkpt>
      <trkpt lat="47.62485" lon="6.57154">
        <ele>351.7</ele>
        <time>2025-09-13T12:35:45Z</time>
      </trkpt>
      <trkpt lat="47.62488" lon="6.57145">
        <ele>351.5</ele>
        <time>2025-09-13T12:35:46Z</time>
      </trkpt>
      <trkpt lat="47.62491" lon="6.57137">
        <ele>351.3</ele>
        <time>2025-09-13T12:35:47Z</time>
      </trkpt>
      <trkpt lat="47.62495" lon="6.57129">
        <ele>351.1</ele>
        <time>2025-09-13T12:35:48Z</time>
      </trkpt>
      <trkpt lat="47.62499" lon="6.57122">
        <ele>350.9</ele>
        <time>2025-09-13T12:35:49Z</time>
      </trkpt>
      <trkpt lat="47.62502" lon="6.57114">
        <ele>350.8</ele>
        <time>2025-09-13T12:35:50Z</time>
      </trkpt>
      <trkpt lat="47.62505" lon="6.57105">
        <ele>350.6</ele>
        <time>2025-09-13T12:35:51Z</time>
      </trkpt>
      <trkpt lat="47.62508" lon="6.57096">
        <ele>350.4</ele>
        <time>2025-09-13T12:35:52Z</time>
      </trkpt>
      <trkpt lat="47.62509" lon="6.57087">
        <ele>350.3</ele>
        <time>2025-09-13T12:35:53Z</time>
      </trkpt>
      <trkpt lat="47.6251" lon="6.57078">
        <ele>350.1</ele>
        <time>2025-09-13T12:35:54Z</time>
      </trkpt>
      <trkpt lat="47.62511" lon="6.57068">
        <ele>349.9</ele>
        <time>2025-09-13T12:35:55Z</time>
      </trkpt>
      <trkpt lat="47.62512" lon="6.57057">
        <ele>349.6</ele>
        <time>2025-09-13T12:35:56Z</time>
      </trkpt>
      <trkpt lat="47.62513" lon="6.57048">
        <ele>349.4</ele>
        <time>2025-09-13T12:35:57Z</time>
      </trkpt>
      <trkpt lat="47.62514" lon="6.57037">
        <ele>349.2</ele>
        <time>2025-09-13T12:35:58Z</time>
      </trkpt>
      <trkpt lat="47.62515" lon="6.57028">
        <ele>349</ele>
        <time>2025-09-13T12:35:59Z</time>
      </trkpt>
      <trkpt lat="47.62515" lon="6.57019">
        <ele>348.8</ele>
        <time>2025-09-13T12:36:00Z</time>
      </trkpt>
      <trkpt lat="47.62515" lon="6.57009">
        <ele>348.6</ele>
        <time>2025-09-13T12:36:01Z</time>
      </trkpt>
      <trkpt lat="47.62517" lon="6.56999">
        <ele>348.4</ele>
        <time>2025-09-13T12:36:02Z</time>
      </trkpt>
      <trkpt lat="47.62518" lon="6.5699">
        <ele>348.1</ele>
        <time>2025-09-13T12:36:03Z</time>
      </trkpt>
      <trkpt lat="47.62519" lon="6.56979">
        <ele>347.9</ele>
        <time>2025-09-13T12:36:04Z</time>
      </trkpt>
      <trkpt lat="47.6252" lon="6.56969">
        <ele>347.6</ele>
        <time>2025-09-13T12:36:05Z</time>
      </trkpt>
      <trkpt lat="47.62521" lon="6.56959">
        <ele>347.3</ele>
        <time>2025-09-13T12:36:06Z</time>
      </trkpt>
      <trkpt lat="47.62522" lon="6.56949">
        <ele>347.1</ele>
        <time>2025-09-13T12:36:07Z</time>
      </trkpt>
      <trkpt lat="47.62522" lon="6.56938">
        <ele>346.7</ele>
        <time>2025-09-13T12:36:08Z</time>
      </trkpt>
      <trkpt lat="47.62522" lon="6.56927">
        <ele>346.4</ele>
        <time>2025-09-13T12:36:09Z</time>
      </trkpt>
      <trkpt lat="47.62522" lon="6.56917">
        <ele>346.1</ele>
        <time>2025-09-13T12:36:10Z</time>
      </trkpt>
      <trkpt lat="47.62522" lon="6.56906">
        <ele>345.7</ele>
        <time>2025-09-13T12:36:11Z</time>
      </trkpt>
      <trkpt lat="47.62522" lon="6.56895">
        <ele>345.4</ele>
        <time>2025-09-13T12:36:12Z</time>
      </trkpt>
      <trkpt lat="47.62521" lon="6.56884">
        <ele>345</ele>
        <time>2025-09-13T12:36:13Z</time>
      </trkpt>
      <trkpt lat="47.62521" lon="6.56872">
        <ele>344.7</ele>
        <time>2025-09-13T12:36:14Z</time>
      </trkpt>
      <trkpt lat="47.62521" lon="6.5686">
        <ele>344.3</ele>
        <time>2025-09-13T12:36:15Z</time>
      </trkpt>
      <trkpt lat="47.62521" lon="6.56848">
        <ele>343.9</ele>
        <time>2025-09-13T12:36:16Z</time>
      </trkpt>
      <trkpt lat="47.62521" lon="6.56835">
        <ele>343.5</ele>
        <time>2025-09-13T12:36:17Z</time>
      </trkpt>
      <trkpt lat="47.62522" lon="6.56823">
        <ele>343</ele>
        <time>2025-09-13T12:36:18Z</time>
      </trkpt>
      <trkpt lat="47.62523" lon="6.5681">
        <ele>342.6</ele>
        <time>2025-09-13T12:36:19Z</time>
      </trkpt>
      <trkpt lat="47.62523" lon="6.56797">
        <ele>342.1</ele>
        <time>2025-09-13T12:36:20Z</time>
      </trkpt>
      <trkpt lat="47.62524" lon="6.56784">
        <ele>341.6</ele>
        <time>2025-09-13T12:36:21Z</time>
      </trkpt>
      <trkpt lat="47.62525" lon="6.56772">
        <ele>341.2</ele>
        <time>2025-09-13T12:36:22Z</time>
      </trkpt>
      <trkpt lat="47.62525" lon="6.56758">
        <ele>340.7</ele>
        <time>2025-09-13T12:36:23Z</time>
      </trkpt>
      <trkpt lat="47.62525" lon="6.56745">
        <ele>340.2</ele>
        <time>2025-09-13T12:36:24Z</time>
      </trkpt>
      <trkpt lat="47.62525" lon="6.56731">
        <ele>339.7</ele>
        <time>2025-09-13T12:36:25Z</time>
      </trkpt>
      <trkpt lat="47.62526" lon="6.56716">
        <ele>339.2</ele>
        <time>2025-09-13T12:36:26Z</time>
      </trkpt>
      <trkpt lat="47.62526" lon="6.56701">
        <ele>338.8</ele>
        <time>2025-09-13T12:36:27Z</time>
      </trkpt>
      <trkpt lat="47.62527" lon="6.56686">
        <ele>338.5</ele>
        <time>2025-09-13T12:36:28Z</time>
      </trkpt>
      <trkpt lat="47.62527" lon="6.56672">
        <ele>338.3</ele>
        <time>2025-09-13T12:36:29Z</time>
      </trkpt>
      <trkpt lat="47.62527" lon="6.56657">
        <ele>338.2</ele>
        <time>2025-09-13T12:36:30Z</time>
      </trkpt>
      <trkpt lat="47.62526" lon="6.56646">
        <ele>338.2</ele>
        <time>2025-09-13T12:36:31Z</time>
      </trkpt>
      <trkpt lat="47.62527" lon="6.56631">
        <ele>338.2</ele>
        <time>2025-09-13T12:36:32Z</time>
      </trkpt>
      <trkpt lat="47.62527" lon="6.56618">
        <ele>338.2</ele>
        <time>2025-09-13T12:36:33Z</time>
      </trkpt>
      <trkpt lat="47.62529" lon="6.56605">
        <ele>338.2</ele>
        <time>2025-09-13T12:36:34Z</time>
      </trkpt>
      <trkpt lat="47.62531" lon="6.56593">
        <ele>338.1</ele>
        <time>2025-09-13T12:36:35Z</time>
      </trkpt>
      <trkpt lat="47.62533" lon="6.56581">
        <ele>338</ele>
        <time>2025-09-13T12:36:36Z</time>
      </trkpt>
      <trkpt lat="47.62536" lon="6.56571">
        <ele>337.8</ele>
        <time>2025-09-13T12:36:37Z</time>
      </trkpt>
      <trkpt lat="47.6254" lon="6.56559">
        <ele>337.5</ele>
        <time>2025-09-13T12:36:38Z</time>
      </trkpt>
      <trkpt lat="47.62543" lon="6.56548">
        <ele>337.2</ele>
        <time>2025-09-13T12:36:39Z</time>
      </trkpt>
      <trkpt lat="47.62547" lon="6.56537">
        <ele>336.9</ele>
        <time>2025-09-13T12:36:40Z</time>
      </trkpt>
      <trkpt lat="47.62552" lon="6.56528">
        <ele>336.5</ele>
        <time>2025-09-13T12:36:41Z</time>
      </trkpt>
      <trkpt lat="47.62558" lon="6.56518">
        <ele>336.2</ele>
        <time>2025-09-13T12:36:42Z</time>
      </trkpt>
      <trkpt lat="47.62564" lon="6.56507">
        <ele>335.8</ele>
        <time>2025-09-13T12:36:43Z</time>
      </trkpt>
      <trkpt lat="47.62569" lon="6.56497">
        <ele>335.4</ele>
        <time>2025-09-13T12:36:44Z</time>
      </trkpt>
      <trkpt lat="47.62574" lon="6.56487">
        <ele>335.1</ele>
        <time>2025-09-13T12:36:45Z</time>
      </trkpt>
      <trkpt lat="47.6258" lon="6.56477">
        <ele>334.7</ele>
        <time>2025-09-13T12:36:46Z</time>
      </trkpt>
      <trkpt lat="47.62586" lon="6.56467">
        <ele>334.3</ele>
        <time>2025-09-13T12:36:47Z</time>
      </trkpt>
      <trkpt lat="47.62592" lon="6.56456">
        <ele>333.9</ele>
        <time>2025-09-13T12:36:48Z</time>
      </trkpt>
      <trkpt lat="47.62599" lon="6.56446">
        <ele>333.5</ele>
        <time>2025-09-13T12:36:49Z</time>
      </trkpt>
      <trkpt lat="47.62605" lon="6.56436">
        <ele>333.2</ele>
        <time>2025-09-13T12:36:50Z</time>
      </trkpt>
      <trkpt lat="47.62611" lon="6.56425">
        <ele>332.8</ele>
        <time>2025-09-13T12:36:51Z</time>
      </trkpt>
      <trkpt lat="47.62618" lon="6.56415">
        <ele>332.4</ele>
        <time>2025-09-13T12:36:52Z</time>
      </trkpt>
      <trkpt lat="47.62625" lon="6.56403">
        <ele>332.1</ele>
        <time>2025-09-13T12:36:53Z</time>
      </trkpt>
      <trkpt lat="47.62631" lon="6.56392">
        <ele>331.8</ele>
        <time>2025-09-13T12:36:54Z</time>
      </trkpt>
      <trkpt lat="47.62638" lon="6.56381">
        <ele>331.5</ele>
        <time>2025-09-13T12:36:55Z</time>
      </trkpt>
      <trkpt lat="47.62645" lon="6.56369">
        <ele>331.1</ele>
        <time>2025-09-13T12:36:56Z</time>
      </trkpt>
      <trkpt lat="47.62651" lon="6.56357">
        <ele>330.8</ele>
        <time>2025-09-13T12:36:57Z</time>
      </trkpt>
      <trkpt lat="47.62657" lon="6.56346">
        <ele>330.4</ele>
        <time>2025-09-13T12:36:58Z</time>
      </trkpt>
      <trkpt lat="47.62664" lon="6.56335">
        <ele>330</ele>
        <time>2025-09-13T12:36:59Z</time>
      </trkpt>
      <trkpt lat="47.6267" lon="6.56324">
        <ele>329.4</ele>
        <time>2025-09-13T12:37:00Z</time>
      </trkpt>
      <trkpt lat="47.62677" lon="6.56312">
        <ele>328.7</ele>
        <time>2025-09-13T12:37:01Z</time>
      </trkpt>
      <trkpt lat="47.62684" lon="6.563">
        <ele>328</ele>
        <time>2025-09-13T12:37:02Z</time>
      </trkpt>
      <trkpt lat="47.62691" lon="6.56288">
        <ele>327.3</ele>
        <time>2025-09-13T12:37:03Z</time>
      </trkpt>
      <trkpt lat="47.62698" lon="6.56275">
        <ele>326.6</ele>
        <time>2025-09-13T12:37:04Z</time>
      </trkpt>
      <trkpt lat="47.62705" lon="6.56262">
        <ele>325.9</ele>
        <time>2025-09-13T12:37:05Z</time>
      </trkpt>
      <trkpt lat="47.62712" lon="6.56249">
        <ele>325.1</ele>
        <time>2025-09-13T12:37:06Z</time>
      </trkpt>
      <trkpt lat="47.6272" lon="6.56235">
        <ele>324.4</ele>
        <time>2025-09-13T12:37:07Z</time>
      </trkpt>
      <trkpt lat="47.62728" lon="6.56222">
        <ele>323.6</ele>
        <time>2025-09-13T12:37:08Z</time>
      </trkpt>
      <trkpt lat="47.62736" lon="6.56208">
        <ele>322.8</ele>
        <time>2025-09-13T12:37:09Z</time>
      </trkpt>
      <trkpt lat="47.62744" lon="6.56194">
        <ele>321.9</ele>
        <time>2025-09-13T12:37:10Z</time>
      </trkpt>
      <trkpt lat="47.62752" lon="6.5618">
        <ele>321</ele>
        <time>2025-09-13T12:37:11Z</time>
      </trkpt>
      <trkpt lat="47.6276" lon="6.56166">
        <ele>320.1</ele>
        <time>2025-09-13T12:37:12Z</time>
      </trkpt>
      <trkpt lat="47.62769" lon="6.56152">
        <ele>319.3</ele>
        <time>2025-09-13T12:37:13Z</time>
      </trkpt>
      <trkpt lat="47.62777" lon="6.56137">
        <ele>318.5</ele>
        <time>2025-09-13T12:37:14Z</time>
      </trkpt>
      <trkpt lat="47.62785" lon="6.56122">
        <ele>317.8</ele>
        <time>2025-09-13T12:37:15Z</time>
      </trkpt>
      <trkpt lat="47.62794" lon="6.56107">
        <ele>317.1</ele>
        <time>2025-09-13T12:37:16Z</time>
      </trkpt>
      <trkpt lat="47.62802" lon="6.56092">
        <ele>316.5</ele>
        <time>2025-09-13T12:37:17Z</time>
      </trkpt>
      <trkpt lat="47.62811" lon="6.56077">
        <ele>315.8</ele>
        <time>2025-09-13T12:37:18Z</time>
      </trkpt>
      <trkpt lat="47.62819" lon="6.56063">
        <ele>315.1</ele>
        <time>2025-09-13T12:37:19Z</time>
      </trkpt>
      <trkpt lat="47.62826" lon="6.56046">
        <ele>314.3</ele>
        <time>2025-09-13T12:37:20Z</time>
      </trkpt>
      <trkpt lat="47.62832" lon="6.56029">
        <ele>313.4</ele>
        <time>2025-09-13T12:37:21Z</time>
      </trkpt>
      <trkpt lat="47.62838" lon="6.56011">
        <ele>312.5</ele>
        <time>2025-09-13T12:37:22Z</time>
      </trkpt>
      <trkpt lat="47.62841" lon="6.55992">
        <ele>311.5</ele>
        <time>2025-09-13T12:37:23Z</time>
      </trkpt>
      <trkpt lat="47.62843" lon="6.55973">
        <ele>310.5</ele>
        <time>2025-09-13T12:37:24Z</time>
      </trkpt>
      <trkpt lat="47.62845" lon="6.55953">
        <ele>309.6</ele>
        <time>2025-09-13T12:37:25Z</time>
      </trkpt>
      <trkpt lat="47.62848" lon="6.55932">
        <ele>308.6</ele>
        <time>2025-09-13T12:37:26Z</time>
      </trkpt>
      <trkpt lat="47.62849" lon="6.55911">
        <ele>307.6</ele>
        <time>2025-09-13T12:37:27Z</time>
      </trkpt>
      <trkpt lat="47.62851" lon="6.55891">
        <ele>306.5</ele>
        <time>2025-09-13T12:37:28Z</time>
      </trkpt>
      <trkpt lat="47.62851" lon="6.55869">
        <ele>305.4</ele>
        <time>2025-09-13T12:37:29Z</time>
      </trkpt>
      <trkpt lat="47.62855" lon="6.55849">
        <ele>304.3</ele>
        <time>2025-09-13T12:37:30Z</time>
      </trkpt>
      <trkpt lat="47.6286" lon="6.55831">
        <ele>303.2</ele>
        <time>2025-09-13T12:37:31Z</time>
      </trkpt>
      <trkpt lat="47.62867" lon="6.55812">
        <ele>301.9</ele>
        <time>2025-09-13T12:37:32Z</time>
      </trkpt>
      <trkpt lat="47.62875" lon="6.55794">
        <ele>300.6</ele>
        <time>2025-09-13T12:37:33Z</time>
      </trkpt>
      <trkpt lat="47.62882" lon="6.55776">
        <ele>299.3</ele>
        <time>2025-09-13T12:37:34Z</time>
      </trkpt>
      <trkpt lat="47.62891" lon="6.55758">
        <ele>298</ele>
        <time>2025-09-13T12:37:35Z</time>
      </trkpt>
      <trkpt lat="47.62898" lon="6.5574">
        <ele>296.7</ele>
        <time>2025-09-13T12:37:36Z</time>
      </trkpt>
      <trkpt lat="47.62905" lon="6.55722">
        <ele>295.5</ele>
        <time>2025-09-13T12:37:37Z</time>
      </trkpt>
      <trkpt lat="47.62908" lon="6.55703">
        <ele>294.4</ele>
        <time>2025-09-13T12:37:38Z</time>
      </trkpt>
      <trkpt lat="47.62909" lon="6.55682">
        <ele>293.7</ele>
        <time>2025-09-13T12:37:39Z</time>
      </trkpt>
      <trkpt lat="47.62907" lon="6.55662">
        <ele>293.1</ele>
        <time>2025-09-13T12:37:40Z</time>
      </trkpt>
      <trkpt lat="47.62903" lon="6.55643">
        <ele>292.6</ele>
        <time>2025-09-13T12:37:41Z</time>
      </trkpt>
      <trkpt lat="47.62903" lon="6.55623">
        <ele>292</ele>
        <time>2025-09-13T12:37:42Z</time>
      </trkpt>
      <trkpt lat="47.62907" lon="6.55605">
        <ele>292</ele>
        <time>2025-09-13T12:37:43Z</time>
      </trkpt>
      <trkpt lat="47.62916" lon="6.55591">
        <ele>291.4</ele>
        <time>2025-09-13T12:37:44Z</time>
      </trkpt>
      <trkpt lat="47.62927" lon="6.55583">
        <ele>291.1</ele>
        <time>2025-09-13T12:37:45Z</time>
      </trkpt>
      <trkpt lat="47.62937" lon="6.55574">
        <ele>290.9</ele>
        <time>2025-09-13T12:37:46Z</time>
      </trkpt>
      <trkpt lat="47.62946" lon="6.55563">
        <ele>290.7</ele>
        <time>2025-09-13T12:37:47Z</time>
      </trkpt>
      <trkpt lat="47.62955" lon="6.55554">
        <ele>290.6</ele>
        <time>2025-09-13T12:37:48Z</time>
      </trkpt>
      <trkpt lat="47.62964" lon="6.55544">
        <ele>290.4</ele>
        <time>2025-09-13T12:37:49Z</time>
      </trkpt>
      <trkpt lat="47.62972" lon="6.55533">
        <ele>290.3</ele>
        <time>2025-09-13T12:37:50Z</time>
      </trkpt>
      <trkpt lat="47.62979" lon="6.55522">
        <ele>290.3</ele>
        <time>2025-09-13T12:37:51Z</time>
      </trkpt>
      <trkpt lat="47.62983" lon="6.55508">
        <ele>290.2</ele>
        <time>2025-09-13T12:37:52Z</time>
      </trkpt>
      <trkpt lat="47.62983" lon="6.55493">
        <ele>290.1</ele>
        <time>2025-09-13T12:37:53Z</time>
      </trkpt>
      <trkpt lat="47.62981" lon="6.55479">
        <ele>289.9</ele>
        <time>2025-09-13T12:37:54Z</time>
      </trkpt>
      <trkpt lat="47.62977" lon="6.55466">
        <ele>289.8</ele>
        <time>2025-09-13T12:37:55Z</time>
      </trkpt>
      <trkpt lat="47.62973" lon="6.55455">
        <ele>289.8</ele>
        <time>2025-09-13T12:37:56Z</time>
      </trkpt>
      <trkpt lat="47.62969" lon="6.55443">
        <ele>289.7</ele>
        <time>2025-09-13T12:37:57Z</time>
      </trkpt>
      <trkpt lat="47.62965" lon="6.55433">
        <ele>289.7</ele>
        <time>2025-09-13T12:37:58Z</time>
      </trkpt>
      <trkpt lat="47.62961" lon="6.55423">
        <ele>289.7</ele>
        <time>2025-09-13T12:37:59Z</time>
      </trkpt>
      <trkpt lat="47.62958" lon="6.55414">
        <ele>289.7</ele>
        <time>2025-09-13T12:38:00Z</time>
      </trkpt>
      <trkpt lat="47.62955" lon="6.55403">
        <ele>289.8</ele>
        <time>2025-09-13T12:38:01Z</time>
      </trkpt>
      <trkpt lat="47.62952" lon="6.55394">
        <ele>289.9</ele>
        <time>2025-09-13T12:38:02Z</time>
      </trkpt>
      <trkpt lat="47.62949" lon="6.55386">
        <ele>290</ele>
        <time>2025-09-13T12:38:03Z</time>
      </trkpt>
      <trkpt lat="47.62946" lon="6.55378">
        <ele>290.1</ele>
        <time>2025-09-13T12:38:04Z</time>
      </trkpt>
      <trkpt lat="47.62946" lon="6.55369">
        <ele>290.3</ele>
        <time>2025-09-13T12:38:05Z</time>
      </trkpt>
      <trkpt lat="47.62946" lon="6.55361">
        <ele>290.5</ele>
        <time>2025-09-13T12:38:06Z</time>
      </trkpt>
      <trkpt lat="47.62947" lon="6.55352">
        <ele>290.7</ele>
        <time>2025-09-13T12:38:07Z</time>
      </trkpt>
      <trkpt lat="47.62949" lon="6.55344">
        <ele>290.9</ele>
        <time>2025-09-13T12:38:08Z</time>
      </trkpt>
      <trkpt lat="47.62955" lon="6.55326">
        <ele>291.5</ele>
        <time>2025-09-13T12:38:09Z</time>
      </trkpt>
      <trkpt lat="47.62959" lon="6.55318">
        <ele>291.8</ele>
        <time>2025-09-13T12:38:10Z</time>
      </trkpt>
      <trkpt lat="47.62963" lon="6.5531">
        <ele>292.1</ele>
        <time>2025-09-13T12:38:11Z</time>
      </trkpt>
      <trkpt lat="47.62966" lon="6.55302">
        <ele>292.4</ele>
        <time>2025-09-13T12:38:12Z</time>
      </trkpt>
      <trkpt lat="47.62968" lon="6.55294">
        <ele>292.8</ele>
        <time>2025-09-13T12:38:13Z</time>
      </trkpt>
      <trkpt lat="47.62971" lon="6.55285">
        <ele>293.1</ele>
        <time>2025-09-13T12:38:14Z</time>
      </trkpt>
      <trkpt lat="47.62974" lon="6.55275">
        <ele>293.5</ele>
        <time>2025-09-13T12:38:15Z</time>
      </trkpt>
      <trkpt lat="47.62977" lon="6.55266">
        <ele>293.9</ele>
        <time>2025-09-13T12:38:16Z</time>
      </trkpt>
      <trkpt lat="47.6298" lon="6.55259">
        <ele>294.2</ele>
        <time>2025-09-13T12:38:17Z</time>
      </trkpt>
      <trkpt lat="47.62982" lon="6.55253">
        <ele>294.4</ele>
        <time>2025-09-13T12:38:18Z</time>
      </trkpt>
      <trkpt lat="47.62984" lon="6.55248">
        <ele>294.7</ele>
        <time>2025-09-13T12:38:19Z</time>
      </trkpt>
      <trkpt lat="47.62987" lon="6.55243">
        <ele>294.9</ele>
        <time>2025-09-13T12:38:20Z</time>
      </trkpt>
      <trkpt lat="47.6299" lon="6.5524">
        <ele>295.1</ele>
        <time>2025-09-13T12:38:21Z</time>
      </trkpt>
      <trkpt lat="47.6299" lon="6.5524">
        <ele>295.1</ele>
        <time>2025-09-13T12:38:22Z</time>
      </trkpt>
      <trkpt lat="47.62991" lon="6.55239">
        <ele>295.2</ele>
        <time>2025-09-13T12:38:23Z</time>
      </trkpt>
      <trkpt lat="47.62992" lon="6.55238">
        <ele>295.2</ele>
        <time>2025-09-13T12:38:24Z</time>
      </trkpt>
      <trkpt lat="47.62991" lon="6.5524">
        <ele>295.2</ele>
        <time>2025-09-13T12:38:25Z</time>
      </trkpt>
      <trkpt lat="47.62991" lon="6.5524">
        <ele>295.3</ele>
        <time>2025-09-13T12:38:26Z</time>
      </trkpt>
      <trkpt lat="47.6299" lon="6.5524">
        <ele>295.3</ele>
        <time>2025-09-13T12:38:27Z</time>
      </trkpt>
      <trkpt lat="47.6299" lon="6.5524">
        <ele>295.3</ele>
        <time>2025-09-13T12:38:28Z</time>
      </trkpt>
      <trkpt lat="47.6299" lon="6.5524">
        <ele>295.3</ele>
        <time>2025-09-13T12:38:29Z</time>
      </trkpt>
      <trkpt lat="47.6299" lon="6.5524">
        <ele>295.3</ele>
        <time>2025-09-13T12:38:30Z</time>
      </trkpt>
      <trkpt lat="47.62991" lon="6.55241">
        <ele>295.3</ele>
        <time>2025-09-13T12:38:31Z</time>
      </trkpt>
      <trkpt lat="47.62991" lon="6.55241">
        <ele>295.3</ele>
        <time>2025-09-13T12:38:32Z</time>
      </trkpt>
      <trkpt lat="47.62991" lon="6.55241">
        <ele>295.3</ele>
        <time>2025-09-13T12:38:33Z</time>
      </trkpt>
      <trkpt lat="47.6299" lon="6.55241">
        <ele>295.3</ele>
        <time>2025-09-13T12:38:34Z</time>
      </trkpt>
      <trkpt lat="47.6299" lon="6.5524">
        <ele>295.3</ele>
        <time>2025-09-13T12:38:35Z</time>
      </trkpt>
      <trkpt lat="47.62991" lon="6.55239">
        <ele>295.3</ele>
        <time>2025-09-13T12:38:36Z</time>
      </trkpt>
      <trkpt lat="47.6299" lon="6.55236">
        <ele>295.4</ele>
        <time>2025-09-13T12:38:37Z</time>
      </trkpt>
      <trkpt lat="47.62988" lon="6.55231">
        <ele>295.5</ele>
        <time>2025-09-13T12:38:38Z</time>
      </trkpt>
      <trkpt lat="47.62986" lon="6.55229">
        <ele>295.5</ele>
        <time>2025-09-13T12:38:39Z</time>
      </trkpt>
      <trkpt lat="47.62982" lon="6.55226">
        <ele>295.6</ele>
        <time>2025-09-13T12:38:40Z</time>
      </trkpt>
      <trkpt lat="47.62976" lon="6.55223">
        <ele>295.8</ele>
        <time>2025-09-13T12:38:41Z</time>
      </trkpt>
      <trkpt lat="47.6297" lon="6.55218">
        <ele>296</ele>
        <time>2025-09-13T12:38:42Z</time>
      </trkpt>
      <trkpt lat="47.62965" lon="6.55212">
        <ele>296.1</ele>
        <time>2025-09-13T12:38:43Z</time>
      </trkpt>
      <trkpt lat="47.6296" lon="6.55205">
        <ele>296.3</ele>
        <time>2025-09-13T12:38:44Z</time>
      </trkpt>
      <trkpt lat="47.62955" lon="6.55198">
        <ele>296.6</ele>
        <time>2025-09-13T12:38:45Z</time>
      </trkpt>
      <trkpt lat="47.62951" lon="6.55193">
        <ele>296.9</ele>
        <time>2025-09-13T12:38:46Z</time>
      </trkpt>
      <trkpt lat="47.62947" lon="6.55187">
        <ele>297.3</ele>
        <time>2025-09-13T12:38:47Z</time>
      </trkpt>
      <trkpt lat="47.62945" lon="6.55182">
        <ele>297.7</ele>
        <time>2025-09-13T12:38:48Z</time>
      </trkpt>
      <trkpt lat="47.62942" lon="6.55177">
        <ele>298</ele>
        <time>2025-09-13T12:38:49Z</time>
      </trkpt>
      <trkpt lat="47.62939" lon="6.55173">
        <ele>298.4</ele>
        <time>2025-09-13T12:38:50Z</time>
      </trkpt>
      <trkpt lat="47.62937" lon="6.55168">
        <ele>298.7</ele>
        <time>2025-09-13T12:38:51Z</time>
      </trkpt>
      <trkpt lat="47.62934" lon="6.55163">
        <ele>299.1</ele>
        <time>2025-09-13T12:38:52Z</time>
      </trkpt>
      <trkpt lat="47.62931" lon="6.55159">
        <ele>299.5</ele>
        <time>2025-09-13T12:38:53Z</time>
      </trkpt>
      <trkpt lat="47.62928" lon="6.55155">
        <ele>299.8</ele>
        <time>2025-09-13T12:38:54Z</time>
      </trkpt>
      <trkpt lat="47.62926" lon="6.55151">
        <ele>300.2</ele>
        <time>2025-09-13T12:38:55Z</time>
      </trkpt>
      <trkpt lat="47.62923" lon="6.55146">
        <ele>300.5</ele>
        <time>2025-09-13T12:38:56Z</time>
      </trkpt>
      <trkpt lat="47.62921" lon="6.55141">
        <ele>300.9</ele>
        <time>2025-09-13T12:38:57Z</time>
      </trkpt>
      <trkpt lat="47.62918" lon="6.55136">
        <ele>301.2</ele>
        <time>2025-09-13T12:38:58Z</time>
      </trkpt>
      <trkpt lat="47.62916" lon="6.55131">
        <ele>301.6</ele>
        <time>2025-09-13T12:38:59Z</time>
      </trkpt>
      <trkpt lat="47.62914" lon="6.55126">
        <ele>302</ele>
        <time>2025-09-13T12:39:00Z</time>
      </trkpt>
      <trkpt lat="47.62911" lon="6.5512">
        <ele>302.4</ele>
        <time>2025-09-13T12:39:01Z</time>
      </trkpt>
      <trkpt lat="47.6291" lon="6.55114">
        <ele>302.8</ele>
        <time>2025-09-13T12:39:02Z</time>
      </trkpt>
      <trkpt lat="47.62908" lon="6.55109">
        <ele>303.2</ele>
        <time>2025-09-13T12:39:03Z</time>
      </trkpt>
      <trkpt lat="47.62906" lon="6.55102">
        <ele>303.6</ele>
        <time>2025-09-13T12:39:04Z</time>
      </trkpt>
      <trkpt lat="47.62905" lon="6.55097">
        <ele>303.9</ele>
        <time>2025-09-13T12:39:05Z</time>
      </trkpt>
      <trkpt lat="47.62904" lon="6.55092">
        <ele>304.3</ele>
        <time>2025-09-13T12:39:06Z</time>
      </trkpt>
      <trkpt lat="47.62902" lon="6.55087">
        <ele>304.5</ele>
        <time>2025-09-13T12:39:07Z</time>
      </trkpt>
      <trkpt lat="47.629" lon="6.55082">
        <ele>304.8</ele>
        <time>2025-09-13T12:39:08Z</time>
      </trkpt>
      <trkpt lat="47.62898" lon="6.55076">
        <ele>305.1</ele>
        <time>2025-09-13T12:39:09Z</time>
      </trkpt>
      <trkpt lat="47.62895" lon="6.5507">
        <ele>305.4</ele>
        <time>2025-09-13T12:39:10Z</time>
      </trkpt>
      <trkpt lat="47.62893" lon="6.55066">
        <ele>305.7</ele>
        <time>2025-09-13T12:39:11Z</time>
      </trkpt>
      <trkpt lat="47.62889" lon="6.55062">
        <ele>306</ele>
        <time>2025-09-13T12:39:12Z</time>
      </trkpt>
      <trkpt lat="47.62886" lon="6.55059">
        <ele>306.3</ele>
        <time>2025-09-13T12:39:13Z</time>
      </trkpt>
      <trkpt lat="47.62882" lon="6.55055">
        <ele>306.6</ele>
        <time>2025-09-13T12:39:14Z</time>
      </trkpt>
      <trkpt lat="47.62878" lon="6.55052">
        <ele>306.8</ele>
        <time>2025-09-13T12:39:15Z</time>
      </trkpt>
      <trkpt lat="47.62877" lon="6.55046">
        <ele>307</ele>
        <time>2025-09-13T12:39:17Z</time>
      </trkpt>
      <trkpt lat="47.62878" lon="6.55038">
        <ele>307.2</ele>
        <time>2025-09-13T12:39:18Z</time>
      </trkpt>
      <trkpt lat="47.6288" lon="6.55031">
        <ele>307.4</ele>
        <time>2025-09-13T12:39:19Z</time>
      </trkpt>
      <trkpt lat="47.62881" lon="6.55023">
        <ele>307.6</ele>
        <time>2025-09-13T12:39:20Z</time>
      </trkpt>
      <trkpt lat="47.62881" lon="6.55016">
        <ele>307.7</ele>
        <time>2025-09-13T12:39:21Z</time>
      </trkpt>
      <trkpt lat="47.62881" lon="6.55009">
        <ele>307.8</ele>
        <time>2025-09-13T12:39:22Z</time>
      </trkpt>
      <trkpt lat="47.62881" lon="6.55003">
        <ele>307.9</ele>
        <time>2025-09-13T12:39:23Z</time>
      </trkpt>
      <trkpt lat="47.62881" lon="6.54996">
        <ele>308</ele>
        <time>2025-09-13T12:39:24Z</time>
      </trkpt>
      <trkpt lat="47.62881" lon="6.54988">
        <ele>308</ele>
        <time>2025-09-13T12:39:25Z</time>
      </trkpt>
      <trkpt lat="47.62881" lon="6.54981">
        <ele>308</ele>
        <time>2025-09-13T12:39:26Z</time>
      </trkpt>
      <trkpt lat="47.62881" lon="6.54973">
        <ele>308.1</ele>
        <time>2025-09-13T12:39:27Z</time>
      </trkpt>
      <trkpt lat="47.62882" lon="6.54965">
        <ele>308.2</ele>
        <time>2025-09-13T12:39:28Z</time>
      </trkpt>
      <trkpt lat="47.62883" lon="6.54958">
        <ele>308.2</ele>
        <time>2025-09-13T12:39:29Z</time>
      </trkpt>
      <trkpt lat="47.62884" lon="6.5495">
        <ele>308.3</ele>
        <time>2025-09-13T12:39:30Z</time>
      </trkpt>
      <trkpt lat="47.62884" lon="6.54942">
        <ele>308.3</ele>
        <time>2025-09-13T12:39:31Z</time>
      </trkpt>
      <trkpt lat="47.62885" lon="6.54935">
        <ele>308.4</ele>
        <time>2025-09-13T12:39:32Z</time>
      </trkpt>
      <trkpt lat="47.62885" lon="6.54927">
        <ele>308.4</ele>
        <time>2025-09-13T12:39:33Z</time>
      </trkpt>
      <trkpt lat="47.62885" lon="6.54919">
        <ele>308.4</ele>
        <time>2025-09-13T12:39:34Z</time>
      </trkpt>
      <trkpt lat="47.62885" lon="6.54911">
        <ele>308.4</ele>
        <time>2025-09-13T12:39:35Z</time>
      </trkpt>
      <trkpt lat="47.62884" lon="6.54904">
        <ele>308.4</ele>
        <time>2025-09-13T12:39:36Z</time>
      </trkpt>
      <trkpt lat="47.62883" lon="6.54896">
        <ele>308.4</ele>
        <time>2025-09-13T12:39:37Z</time>
      </trkpt>
      <trkpt lat="47.62883" lon="6.54889">
        <ele>308.4</ele>
        <time>2025-09-13T12:39:38Z</time>
      </trkpt>
      <trkpt lat="47.62881" lon="6.54883">
        <ele>308.3</ele>
        <time>2025-09-13T12:39:39Z</time>
      </trkpt>
      <trkpt lat="47.6288" lon="6.54877">
        <ele>308.3</ele>
        <time>2025-09-13T12:39:40Z</time>
      </trkpt>
      <trkpt lat="47.62879" lon="6.5487">
        <ele>308.3</ele>
        <time>2025-09-13T12:39:41Z</time>
      </trkpt>
      <trkpt lat="47.62878" lon="6.54863">
        <ele>308.3</ele>
        <time>2025-09-13T12:39:42Z</time>
      </trkpt>
      <trkpt lat="47.62876" lon="6.54856">
        <ele>308.3</ele>
        <time>2025-09-13T12:39:43Z</time>
      </trkpt>
      <trkpt lat="47.62875" lon="6.5485">
        <ele>308.2</ele>
        <time>2025-09-13T12:39:44Z</time>
      </trkpt>
      <trkpt lat="47.62873" lon="6.54843">
        <ele>308.2</ele>
        <time>2025-09-13T12:39:45Z</time>
      </trkpt>
      <trkpt lat="47.62871" lon="6.54837">
        <ele>308.2</ele>
        <time>2025-09-13T12:39:46Z</time>
      </trkpt>
      <trkpt lat="47.6287" lon="6.54828">
        <ele>308.2</ele>
        <time>2025-09-13T12:39:47Z</time>
      </trkpt>
      <trkpt lat="47.62868" lon="6.54822">
        <ele>308.2</ele>
        <time>2025-09-13T12:39:48Z</time>
      </trkpt>
      <trkpt lat="47.62866" lon="6.54815">
        <ele>308.2</ele>
        <time>2025-09-13T12:39:49Z</time>
      </trkpt>
      <trkpt lat="47.62864" lon="6.54808">
        <ele>308.2</ele>
        <time>2025-09-13T12:39:50Z</time>
      </trkpt>
      <trkpt lat="47.62864" lon="6.54806">
        <ele>308.2</ele>
        <time>2025-09-13T12:39:51Z</time>
      </trkpt>
      <trkpt lat="47.62864" lon="6.54802">
        <ele>308.2</ele>
        <time>2025-09-13T12:39:52Z</time>
      </trkpt>
      <trkpt lat="47.62862" lon="6.54795">
        <ele>308.2</ele>
        <time>2025-09-13T12:39:53Z</time>
      </trkpt>
      <trkpt lat="47.62861" lon="6.54789">
        <ele>308.1</ele>
        <time>2025-09-13T12:39:54Z</time>
      </trkpt>
      <trkpt lat="47.62858" lon="6.54779">
        <ele>308.1</ele>
        <time>2025-09-13T12:39:55Z</time>
      </trkpt>
      <trkpt lat="47.62857" lon="6.54771">
        <ele>308.1</ele>
        <time>2025-09-13T12:39:56Z</time>
      </trkpt>
      <trkpt lat="47.62856" lon="6.54762">
        <ele>308.1</ele>
        <time>2025-09-13T12:39:57Z</time>
      </trkpt>
      <trkpt lat="47.62856" lon="6.54754">
        <ele>308.1</ele>
        <time>2025-09-13T12:39:58Z</time>
      </trkpt>
      <trkpt lat="47.62855" lon="6.54747">
        <ele>308.1</ele>
        <time>2025-09-13T12:39:59Z</time>
      </trkpt>
      <trkpt lat="47.62855" lon="6.54739">
        <ele>308</ele>
        <time>2025-09-13T12:40:00Z</time>
      </trkpt>
      <trkpt lat="47.62855" lon="6.54732">
        <ele>308</ele>
        <time>2025-09-13T12:40:01Z</time>
      </trkpt>
      <trkpt lat="47.62854" lon="6.54716">
        <ele>308</ele>
        <time>2025-09-13T12:40:02Z</time>
      </trkpt>
      <trkpt lat="47.62854" lon="6.54708">
        <ele>307.9</ele>
        <time>2025-09-13T12:40:03Z</time>
      </trkpt>
      <trkpt lat="47.62854" lon="6.547">
        <ele>307.9</ele>
        <time>2025-09-13T12:40:04Z</time>
      </trkpt>
      <trkpt lat="47.62854" lon="6.54692">
        <ele>307.9</ele>
        <time>2025-09-13T12:40:05Z</time>
      </trkpt>
      <trkpt lat="47.62853" lon="6.54684">
        <ele>307.9</ele>
        <time>2025-09-13T12:40:06Z</time>
      </trkpt>
      <trkpt lat="47.62853" lon="6.54676">
        <ele>307.9</ele>
        <time>2025-09-13T12:40:07Z</time>
      </trkpt>
      <trkpt lat="47.62852" lon="6.54667">
        <ele>307.9</ele>
        <time>2025-09-13T12:40:08Z</time>
      </trkpt>
      <trkpt lat="47.62852" lon="6.54658">
        <ele>307.9</ele>
        <time>2025-09-13T12:40:09Z</time>
      </trkpt>
      <trkpt lat="47.62852" lon="6.5465">
        <ele>307.9</ele>
        <time>2025-09-13T12:40:10Z</time>
      </trkpt>
      <trkpt lat="47.62852" lon="6.54641">
        <ele>307.8</ele>
        <time>2025-09-13T12:40:11Z</time>
      </trkpt>
      <trkpt lat="47.62851" lon="6.54633">
        <ele>307.8</ele>
        <time>2025-09-13T12:40:12Z</time>
      </trkpt>
      <trkpt lat="47.6285" lon="6.54625">
        <ele>307.8</ele>
        <time>2025-09-13T12:40:13Z</time>
      </trkpt>
      <trkpt lat="47.6285" lon="6.54616">
        <ele>307.8</ele>
        <time>2025-09-13T12:40:14Z</time>
      </trkpt>
      <trkpt lat="47.62849" lon="6.54608">
        <ele>307.7</ele>
        <time>2025-09-13T12:40:15Z</time>
      </trkpt>
      <trkpt lat="47.62849" lon="6.54599">
        <ele>307.7</ele>
        <time>2025-09-13T12:40:16Z</time>
      </trkpt>
      <trkpt lat="47.62848" lon="6.54591">
        <ele>307.6</ele>
        <time>2025-09-13T12:40:17Z</time>
      </trkpt>
      <trkpt lat="47.62847" lon="6.54582">
        <ele>307.6</ele>
        <time>2025-09-13T12:40:18Z</time>
      </trkpt>
      <trkpt lat="47.62846" lon="6.54573">
        <ele>307.6</ele>
        <time>2025-09-13T12:40:19Z</time>
      </trkpt>
      <trkpt lat="47.62845" lon="6.54566">
        <ele>307.5</ele>
        <time>2025-09-13T12:40:20Z</time>
      </trkpt>
      <trkpt lat="47.62845" lon="6.54558">
        <ele>307.5</ele>
        <time>2025-09-13T12:40:21Z</time>
      </trkpt>
      <trkpt lat="47.62844" lon="6.5455">
        <ele>307.5</ele>
        <time>2025-09-13T12:40:22Z</time>
      </trkpt>
      <trkpt lat="47.62843" lon="6.54541">
        <ele>307.4</ele>
        <time>2025-09-13T12:40:23Z</time>
      </trkpt>
      <trkpt lat="47.62842" lon="6.54533">
        <ele>307.4</ele>
        <time>2025-09-13T12:40:24Z</time>
      </trkpt>
      <trkpt lat="47.62841" lon="6.54525">
        <ele>307.3</ele>
        <time>2025-09-13T12:40:25Z</time>
      </trkpt>
      <trkpt lat="47.6284" lon="6.54516">
        <ele>307.3</ele>
        <time>2025-09-13T12:40:26Z</time>
      </trkpt>
      <trkpt lat="47.62839" lon="6.54507">
        <ele>307.3</ele>
        <time>2025-09-13T12:40:27Z</time>
      </trkpt>
      <trkpt lat="47.62837" lon="6.54499">
        <ele>307.3</ele>
        <time>2025-09-13T12:40:28Z</time>
      </trkpt>
      <trkpt lat="47.62836" lon="6.5449">
        <ele>307.3</ele>
        <time>2025-09-13T12:40:29Z</time>
      </trkpt>
      <trkpt lat="47.62836" lon="6.54482">
        <ele>307.3</ele>
        <time>2025-09-13T12:40:30Z</time>
      </trkpt>
      <trkpt lat="47.62836" lon="6.54473">
        <ele>307.3</ele>
        <time>2025-09-13T12:40:31Z</time>
      </trkpt>
      <trkpt lat="47.62836" lon="6.54465">
        <ele>307.3</ele>
        <time>2025-09-13T12:40:32Z</time>
      </trkpt>
      <trkpt lat="47.62837" lon="6.54456">
        <ele>307.2</ele>
        <time>2025-09-13T12:40:33Z</time>
      </trkpt>
      <trkpt lat="47.62837" lon="6.54448">
        <ele>307.2</ele>
        <time>2025-09-13T12:40:34Z</time>
      </trkpt>
      <trkpt lat="47.62838" lon="6.54439">
        <ele>307.2</ele>
        <time>2025-09-13T12:40:35Z</time>
      </trkpt>
      <trkpt lat="47.62838" lon="6.5443">
        <ele>307.1</ele>
        <time>2025-09-13T12:40:36Z</time>
      </trkpt>
      <trkpt lat="47.62839" lon="6.54421">
        <ele>307.1</ele>
        <time>2025-09-13T12:40:37Z</time>
      </trkpt>
      <trkpt lat="47.6284" lon="6.54412">
        <ele>307.1</ele>
        <time>2025-09-13T12:40:38Z</time>
      </trkpt>
      <trkpt lat="47.6284" lon="6.54403">
        <ele>307.1</ele>
        <time>2025-09-13T12:40:39Z</time>
      </trkpt>
      <trkpt lat="47.6284" lon="6.54395">
        <ele>307</ele>
        <time>2025-09-13T12:40:40Z</time>
      </trkpt>
      <trkpt lat="47.62841" lon="6.54386">
        <ele>307</ele>
        <time>2025-09-13T12:40:41Z</time>
      </trkpt>
      <trkpt lat="47.62841" lon="6.54378">
        <ele>307</ele>
        <time>2025-09-13T12:40:42Z</time>
      </trkpt>
      <trkpt lat="47.62841" lon="6.5437">
        <ele>307</ele>
        <time>2025-09-13T12:40:43Z</time>
      </trkpt>
      <trkpt lat="47.62842" lon="6.54361">
        <ele>306.9</ele>
        <time>2025-09-13T12:40:44Z</time>
      </trkpt>
      <trkpt lat="47.62842" lon="6.54352">
        <ele>306.9</ele>
        <time>2025-09-13T12:40:45Z</time>
      </trkpt>
      <trkpt lat="47.62843" lon="6.54344">
        <ele>306.9</ele>
        <time>2025-09-13T12:40:46Z</time>
      </trkpt>
      <trkpt lat="47.62843" lon="6.54336">
        <ele>307</ele>
        <time>2025-09-13T12:40:47Z</time>
      </trkpt>
      <trkpt lat="47.62843" lon="6.54328">
        <ele>307</ele>
        <time>2025-09-13T12:40:48Z</time>
      </trkpt>
      <trkpt lat="47.62844" lon="6.54319">
        <ele>307</ele>
        <time>2025-09-13T12:40:49Z</time>
      </trkpt>
      <trkpt lat="47.62845" lon="6.5431">
        <ele>306.9</ele>
        <time>2025-09-13T12:40:50Z</time>
      </trkpt>
      <trkpt lat="47.62845" lon="6.54302">
        <ele>306.9</ele>
        <time>2025-09-13T12:40:51Z</time>
      </trkpt>
      <trkpt lat="47.62845" lon="6.54295">
        <ele>306.9</ele>
        <time>2025-09-13T12:40:52Z</time>
      </trkpt>
      <trkpt lat="47.62845" lon="6.54286">
        <ele>306.9</ele>
        <time>2025-09-13T12:40:53Z</time>
      </trkpt>
      <trkpt lat="47.62846" lon="6.54277">
        <ele>306.9</ele>
        <time>2025-09-13T12:40:54Z</time>
      </trkpt>
      <trkpt lat="47.62847" lon="6.54268">
        <ele>307</ele>
        <time>2025-09-13T12:40:55Z</time>
      </trkpt>
      <trkpt lat="47.62847" lon="6.54261">
        <ele>307</ele>
        <time>2025-09-13T12:40:56Z</time>
      </trkpt>
      <trkpt lat="47.62847" lon="6.54253">
        <ele>307</ele>
        <time>2025-09-13T12:40:57Z</time>
      </trkpt>
      <trkpt lat="47.62847" lon="6.54245">
        <ele>307</ele>
        <time>2025-09-13T12:40:58Z</time>
      </trkpt>
      <trkpt lat="47.62848" lon="6.54237">
        <ele>307</ele>
        <time>2025-09-13T12:40:59Z</time>
      </trkpt>
      <trkpt lat="47.62849" lon="6.54228">
        <ele>307.1</ele>
        <time>2025-09-13T12:41:00Z</time>
      </trkpt>
      <trkpt lat="47.62849" lon="6.5422">
        <ele>307.1</ele>
        <time>2025-09-13T12:41:01Z</time>
      </trkpt>
      <trkpt lat="47.62849" lon="6.54213">
        <ele>307.1</ele>
        <time>2025-09-13T12:41:02Z</time>
      </trkpt>
      <trkpt lat="47.6285" lon="6.54204">
        <ele>307.1</ele>
        <time>2025-09-13T12:41:03Z</time>
      </trkpt>
      <trkpt lat="47.6285" lon="6.54195">
        <ele>307.2</ele>
        <time>2025-09-13T12:41:04Z</time>
      </trkpt>
      <trkpt lat="47.6285" lon="6.54187">
        <ele>307.3</ele>
        <time>2025-09-13T12:41:05Z</time>
      </trkpt>
      <trkpt lat="47.6285" lon="6.54179">
        <ele>307.3</ele>
        <time>2025-09-13T12:41:06Z</time>
      </trkpt>
      <trkpt lat="47.62851" lon="6.54171">
        <ele>307.4</ele>
        <time>2025-09-13T12:41:07Z</time>
      </trkpt>
      <trkpt lat="47.62851" lon="6.54164">
        <ele>307.4</ele>
        <time>2025-09-13T12:41:08Z</time>
      </trkpt>
      <trkpt lat="47.62851" lon="6.54155">
        <ele>307.5</ele>
        <time>2025-09-13T12:41:09Z</time>
      </trkpt>
      <trkpt lat="47.62852" lon="6.54148">
        <ele>307.6</ele>
        <time>2025-09-13T12:41:10Z</time>
      </trkpt>
      <trkpt lat="47.62852" lon="6.5414">
        <ele>307.7</ele>
        <time>2025-09-13T12:41:11Z</time>
      </trkpt>
      <trkpt lat="47.62852" lon="6.54133">
        <ele>307.7</ele>
        <time>2025-09-13T12:41:12Z</time>
      </trkpt>
      <trkpt lat="47.62853" lon="6.54125">
        <ele>307.8</ele>
        <time>2025-09-13T12:41:13Z</time>
      </trkpt>
      <trkpt lat="47.62853" lon="6.54118">
        <ele>307.9</ele>
        <time>2025-09-13T12:41:14Z</time>
      </trkpt>
      <trkpt lat="47.62853" lon="6.54112">
        <ele>307.9</ele>
        <time>2025-09-13T12:41:15Z</time>
      </trkpt>
      <trkpt lat="47.62853" lon="6.54106">
        <ele>308</ele>
        <time>2025-09-13T12:41:16Z</time>
      </trkpt>
      <trkpt lat="47.62854" lon="6.54099">
        <ele>308</ele>
        <time>2025-09-13T12:41:17Z</time>
      </trkpt>
      <trkpt lat="47.62855" lon="6.54093">
        <ele>308.1</ele>
        <time>2025-09-13T12:41:18Z</time>
      </trkpt>
      <trkpt lat="47.62855" lon="6.54086">
        <ele>308.1</ele>
        <time>2025-09-13T12:41:19Z</time>
      </trkpt>
      <trkpt lat="47.62856" lon="6.54078">
        <ele>308.2</ele>
        <time>2025-09-13T12:41:20Z</time>
      </trkpt>
      <trkpt lat="47.62857" lon="6.54072">
        <ele>308.2</ele>
        <time>2025-09-13T12:41:21Z</time>
      </trkpt>
      <trkpt lat="47.62857" lon="6.54063">
        <ele>308.3</ele>
        <time>2025-09-13T12:41:22Z</time>
      </trkpt>
      <trkpt lat="47.62857" lon="6.54056">
        <ele>308.3</ele>
        <time>2025-09-13T12:41:23Z</time>
      </trkpt>
      <trkpt lat="47.62857" lon="6.5405">
        <ele>308.4</ele>
        <time>2025-09-13T12:41:24Z</time>
      </trkpt>
      <trkpt lat="47.62858" lon="6.54044">
        <ele>308.5</ele>
        <time>2025-09-13T12:41:25Z</time>
      </trkpt>
      <trkpt lat="47.62859" lon="6.54036">
        <ele>308.6</ele>
        <time>2025-09-13T12:41:26Z</time>
      </trkpt>
      <trkpt lat="47.62861" lon="6.54028">
        <ele>308.7</ele>
        <time>2025-09-13T12:41:27Z</time>
      </trkpt>
      <trkpt lat="47.62861" lon="6.54021">
        <ele>308.8</ele>
        <time>2025-09-13T12:41:28Z</time>
      </trkpt>
      <trkpt lat="47.62862" lon="6.54014">
        <ele>308.9</ele>
        <time>2025-09-13T12:41:29Z</time>
      </trkpt>
      <trkpt lat="47.62863" lon="6.54008">
        <ele>308.9</ele>
        <time>2025-09-13T12:41:30Z</time>
      </trkpt>
      <trkpt lat="47.62861" lon="6.54009">
        <ele>309</ele>
        <time>2025-09-13T12:41:31Z</time>
      </trkpt>
      <trkpt lat="47.6286" lon="6.54005">
        <ele>309.1</ele>
        <time>2025-09-13T12:41:32Z</time>
      </trkpt>
      <trkpt lat="47.6286" lon="6.54004">
        <ele>309.1</ele>
        <time>2025-09-13T12:41:33Z</time>
      </trkpt>
      <trkpt lat="47.62861" lon="6.54">
        <ele>309.1</ele>
        <time>2025-09-13T12:41:34Z</time>
      </trkpt>
      <trkpt lat="47.6286" lon="6.53996">
        <ele>309.2</ele>
        <time>2025-09-13T12:41:35Z</time>
      </trkpt>
      <trkpt lat="47.6286" lon="6.53991">
        <ele>309.2</ele>
        <time>2025-09-13T12:41:36Z</time>
      </trkpt>
      <trkpt lat="47.6286" lon="6.53987">
        <ele>309.3</ele>
        <time>2025-09-13T12:41:37Z</time>
      </trkpt>
      <trkpt lat="47.6286" lon="6.53985">
        <ele>309.3</ele>
        <time>2025-09-13T12:41:38Z</time>
      </trkpt>
      <trkpt lat="47.6286" lon="6.5398">
        <ele>309.3</ele>
        <time>2025-09-13T12:41:39Z</time>
      </trkpt>
      <trkpt lat="47.62863" lon="6.53972">
        <ele>309.4</ele>
        <time>2025-09-13T12:41:40Z</time>
      </trkpt>
      <trkpt lat="47.62867" lon="6.53965">
        <ele>309.5</ele>
        <time>2025-09-13T12:41:41Z</time>
      </trkpt>
      <trkpt lat="47.62868" lon="6.5396">
        <ele>309.5</ele>
        <time>2025-09-13T12:41:42Z</time>
      </trkpt>
      <trkpt lat="47.62869" lon="6.53954">
        <ele>309.5</ele>
        <time>2025-09-13T12:41:43Z</time>
      </trkpt>
      <trkpt lat="47.62869" lon="6.53951">
        <ele>309.6</ele>
        <time>2025-09-13T12:41:44Z</time>
      </trkpt>
      <trkpt lat="47.62872" lon="6.53946">
        <ele>309.6</ele>
        <time>2025-09-13T12:41:45Z</time>
      </trkpt>
      <trkpt lat="47.62874" lon="6.53934">
        <ele>309.7</ele>
        <time>2025-09-13T12:41:46Z</time>
      </trkpt>
      <trkpt lat="47.62876" lon="6.53931">
        <ele>309.7</ele>
        <time>2025-09-13T12:41:47Z</time>
      </trkpt>
      <trkpt lat="47.62875" lon="6.53925">
        <ele>309.8</ele>
        <time>2025-09-13T12:41:48Z</time>
      </trkpt>
      <trkpt lat="47.62876" lon="6.53917">
        <ele>309.8</ele>
        <time>2025-09-13T12:41:49Z</time>
      </trkpt>
      <trkpt lat="47.62875" lon="6.53911">
        <ele>309.9</ele>
        <time>2025-09-13T12:41:50Z</time>
      </trkpt>
      <trkpt lat="47.62875" lon="6.53905">
        <ele>309.9</ele>
        <time>2025-09-13T12:41:51Z</time>
      </trkpt>
      <trkpt lat="47.6288" lon="6.5389">
        <ele>310</ele>
        <time>2025-09-13T12:41:52Z</time>
      </trkpt>
      <trkpt lat="47.62884" lon="6.53881">
        <ele>310.1</ele>
        <time>2025-09-13T12:41:53Z</time>
      </trkpt>
      <trkpt lat="47.62887" lon="6.53873">
        <ele>310.2</ele>
        <time>2025-09-13T12:41:54Z</time>
      </trkpt>
      <trkpt lat="47.6289" lon="6.53865">
        <ele>310.3</ele>
        <time>2025-09-13T12:41:55Z</time>
      </trkpt>
      <trkpt lat="47.62892" lon="6.53857">
        <ele>310.4</ele>
        <time>2025-09-13T12:41:56Z</time>
      </trkpt>
      <trkpt lat="47.62895" lon="6.5385">
        <ele>310.4</ele>
        <time>2025-09-13T12:41:57Z</time>
      </trkpt>
      <trkpt lat="47.62897" lon="6.53842">
        <ele>310.5</ele>
        <time>2025-09-13T12:41:58Z</time>
      </trkpt>
      <trkpt lat="47.62899" lon="6.53834">
        <ele>310.5</ele>
        <time>2025-09-13T12:41:59Z</time>
      </trkpt>
      <trkpt lat="47.62902" lon="6.53827">
        <ele>310.6</ele>
        <time>2025-09-13T12:42:00Z</time>
      </trkpt>
      <trkpt lat="47.62905" lon="6.53817">
        <ele>310.6</ele>
        <time>2025-09-13T12:42:01Z</time>
      </trkpt>
      <trkpt lat="47.62908" lon="6.53809">
        <ele>310.6</ele>
        <time>2025-09-13T12:42:02Z</time>
      </trkpt>
      <trkpt lat="47.6291" lon="6.53802">
        <ele>310.5</ele>
        <time>2025-09-13T12:42:03Z</time>
      </trkpt>
      <trkpt lat="47.62912" lon="6.53793">
        <ele>310.5</ele>
        <time>2025-09-13T12:42:04Z</time>
      </trkpt>
      <trkpt lat="47.62914" lon="6.53784">
        <ele>310.4</ele>
        <time>2025-09-13T12:42:05Z</time>
      </trkpt>
      <trkpt lat="47.62916" lon="6.53776">
        <ele>310.3</ele>
        <time>2025-09-13T12:42:06Z</time>
      </trkpt>
      <trkpt lat="47.62918" lon="6.53767">
        <ele>310.3</ele>
        <time>2025-09-13T12:42:07Z</time>
      </trkpt>
      <trkpt lat="47.6292" lon="6.53759">
        <ele>310.2</ele>
        <time>2025-09-13T12:42:08Z</time>
      </trkpt>
      <trkpt lat="47.62923" lon="6.5375">
        <ele>310.1</ele>
        <time>2025-09-13T12:42:09Z</time>
      </trkpt>
      <trkpt lat="47.62925" lon="6.53742">
        <ele>310</ele>
        <time>2025-09-13T12:42:10Z</time>
      </trkpt>
      <trkpt lat="47.62926" lon="6.53733">
        <ele>309.9</ele>
        <time>2025-09-13T12:42:11Z</time>
      </trkpt>
      <trkpt lat="47.62928" lon="6.53724">
        <ele>309.7</ele>
        <time>2025-09-13T12:42:12Z</time>
      </trkpt>
      <trkpt lat="47.6293" lon="6.53715">
        <ele>309.6</ele>
        <time>2025-09-13T12:42:13Z</time>
      </trkpt>
      <trkpt lat="47.62932" lon="6.53706">
        <ele>309.6</ele>
        <time>2025-09-13T12:42:14Z</time>
      </trkpt>
      <trkpt lat="47.62934" lon="6.53696">
        <ele>309.5</ele>
        <time>2025-09-13T12:42:15Z</time>
      </trkpt>
      <trkpt lat="47.62936" lon="6.53689">
        <ele>309.4</ele>
        <time>2025-09-13T12:42:16Z</time>
      </trkpt>
      <trkpt lat="47.62937" lon="6.53681">
        <ele>309.4</ele>
        <time>2025-09-13T12:42:17Z</time>
      </trkpt>
      <trkpt lat="47.62939" lon="6.53672">
        <ele>309.3</ele>
        <time>2025-09-13T12:42:18Z</time>
      </trkpt>
      <trkpt lat="47.6294" lon="6.53664">
        <ele>309.3</ele>
        <time>2025-09-13T12:42:19Z</time>
      </trkpt>
      <trkpt lat="47.62942" lon="6.53656">
        <ele>309.2</ele>
        <time>2025-09-13T12:42:20Z</time>
      </trkpt>
      <trkpt lat="47.62944" lon="6.53647">
        <ele>309.2</ele>
        <time>2025-09-13T12:42:21Z</time>
      </trkpt>
      <trkpt lat="47.62945" lon="6.53638">
        <ele>309.2</ele>
        <time>2025-09-13T12:42:22Z</time>
      </trkpt>
      <trkpt lat="47.62947" lon="6.5363">
        <ele>309.1</ele>
        <time>2025-09-13T12:42:23Z</time>
      </trkpt>
      <trkpt lat="47.62949" lon="6.53622">
        <ele>309.1</ele>
        <time>2025-09-13T12:42:24Z</time>
      </trkpt>
      <trkpt lat="47.62951" lon="6.53612">
        <ele>309.1</ele>
        <time>2025-09-13T12:42:25Z</time>
      </trkpt>
      <trkpt lat="47.62953" lon="6.53603">
        <ele>309.1</ele>
        <time>2025-09-13T12:42:26Z</time>
      </trkpt>
      <trkpt lat="47.62954" lon="6.53594">
        <ele>309.1</ele>
        <time>2025-09-13T12:42:27Z</time>
      </trkpt>
      <trkpt lat="47.62956" lon="6.53585">
        <ele>309.1</ele>
        <time>2025-09-13T12:42:28Z</time>
      </trkpt>
      <trkpt lat="47.62958" lon="6.53576">
        <ele>309.1</ele>
        <time>2025-09-13T12:42:29Z</time>
      </trkpt>
      <trkpt lat="47.62959" lon="6.53568">
        <ele>309.2</ele>
        <time>2025-09-13T12:42:30Z</time>
      </trkpt>
      <trkpt lat="47.62961" lon="6.53559">
        <ele>309.2</ele>
        <time>2025-09-13T12:42:31Z</time>
      </trkpt>
      <trkpt lat="47.62962" lon="6.53552">
        <ele>309.3</ele>
        <time>2025-09-13T12:42:32Z</time>
      </trkpt>
      <trkpt lat="47.62964" lon="6.53543">
        <ele>309.3</ele>
        <time>2025-09-13T12:42:33Z</time>
      </trkpt>
      <trkpt lat="47.62967" lon="6.53534">
        <ele>309.4</ele>
        <time>2025-09-13T12:42:34Z</time>
      </trkpt>
      <trkpt lat="47.62968" lon="6.53527">
        <ele>309.5</ele>
        <time>2025-09-13T12:42:35Z</time>
      </trkpt>
      <trkpt lat="47.62971" lon="6.53519">
        <ele>309.6</ele>
        <time>2025-09-13T12:42:36Z</time>
      </trkpt>
      <trkpt lat="47.62974" lon="6.53512">
        <ele>309.7</ele>
        <time>2025-09-13T12:42:37Z</time>
      </trkpt>
      <trkpt lat="47.62976" lon="6.53504">
        <ele>309.8</ele>
        <time>2025-09-13T12:42:38Z</time>
      </trkpt>
      <trkpt lat="47.62978" lon="6.53496">
        <ele>309.9</ele>
        <time>2025-09-13T12:42:39Z</time>
      </trkpt>
      <trkpt lat="47.6298" lon="6.53489">
        <ele>309.9</ele>
        <time>2025-09-13T12:42:40Z</time>
      </trkpt>
      <trkpt lat="47.62982" lon="6.53481">
        <ele>310</ele>
        <time>2025-09-13T12:42:41Z</time>
      </trkpt>
      <trkpt lat="47.62984" lon="6.53474">
        <ele>310</ele>
        <time>2025-09-13T12:42:42Z</time>
      </trkpt>
      <trkpt lat="47.62987" lon="6.53466">
        <ele>310</ele>
        <time>2025-09-13T12:42:43Z</time>
      </trkpt>
      <trkpt lat="47.62988" lon="6.5346">
        <ele>310</ele>
        <time>2025-09-13T12:42:44Z</time>
      </trkpt>
      <trkpt lat="47.6299" lon="6.53451">
        <ele>310</ele>
        <time>2025-09-13T12:42:45Z</time>
      </trkpt>
      <trkpt lat="47.62992" lon="6.53443">
        <ele>310</ele>
        <time>2025-09-13T12:42:46Z</time>
      </trkpt>
      <trkpt lat="47.62994" lon="6.53434">
        <ele>310</ele>
        <time>2025-09-13T12:42:47Z</time>
      </trkpt>
      <trkpt lat="47.62996" lon="6.53426">
        <ele>310</ele>
        <time>2025-09-13T12:42:48Z</time>
      </trkpt>
      <trkpt lat="47.62997" lon="6.53419">
        <ele>310</ele>
        <time>2025-09-13T12:42:49Z</time>
      </trkpt>
      <trkpt lat="47.62998" lon="6.53409">
        <ele>310</ele>
        <time>2025-09-13T12:42:50Z</time>
      </trkpt>
      <trkpt lat="47.62999" lon="6.534">
        <ele>310</ele>
        <time>2025-09-13T12:42:51Z</time>
      </trkpt>
      <trkpt lat="47.63001" lon="6.53392">
        <ele>310</ele>
        <time>2025-09-13T12:42:52Z</time>
      </trkpt>
      <trkpt lat="47.63002" lon="6.53383">
        <ele>309.9</ele>
        <time>2025-09-13T12:42:53Z</time>
      </trkpt>
      <trkpt lat="47.63003" lon="6.53373">
        <ele>309.9</ele>
        <time>2025-09-13T12:42:54Z</time>
      </trkpt>
      <trkpt lat="47.63005" lon="6.53364">
        <ele>309.9</ele>
        <time>2025-09-13T12:42:55Z</time>
      </trkpt>
      <trkpt lat="47.63006" lon="6.53355">
        <ele>309.8</ele>
        <time>2025-09-13T12:42:56Z</time>
      </trkpt>
      <trkpt lat="47.63007" lon="6.53347">
        <ele>309.8</ele>
        <time>2025-09-13T12:42:57Z</time>
      </trkpt>
      <trkpt lat="47.63007" lon="6.53338">
        <ele>309.9</ele>
        <time>2025-09-13T12:42:58Z</time>
      </trkpt>
      <trkpt lat="47.63008" lon="6.53329">
        <ele>309.9</ele>
        <time>2025-09-13T12:42:59Z</time>
      </trkpt>
      <trkpt lat="47.63009" lon="6.53321">
        <ele>309.9</ele>
        <time>2025-09-13T12:43:00Z</time>
      </trkpt>
      <trkpt lat="47.63011" lon="6.53313">
        <ele>309.9</ele>
        <time>2025-09-13T12:43:01Z</time>
      </trkpt>
      <trkpt lat="47.63012" lon="6.53303">
        <ele>310</ele>
        <time>2025-09-13T12:43:02Z</time>
      </trkpt>
      <trkpt lat="47.63013" lon="6.53295">
        <ele>310</ele>
        <time>2025-09-13T12:43:03Z</time>
      </trkpt>
      <trkpt lat="47.63014" lon="6.53289">
        <ele>310</ele>
        <time>2025-09-13T12:43:04Z</time>
      </trkpt>
      <trkpt lat="47.63015" lon="6.5328">
        <ele>310</ele>
        <time>2025-09-13T12:43:05Z</time>
      </trkpt>
      <trkpt lat="47.63015" lon="6.53273">
        <ele>309.9</ele>
        <time>2025-09-13T12:43:06Z</time>
      </trkpt>
      <trkpt lat="47.63016" lon="6.53262">
        <ele>309.8</ele>
        <time>2025-09-13T12:43:07Z</time>
      </trkpt>
      <trkpt lat="47.63016" lon="6.53254">
        <ele>309.8</ele>
        <time>2025-09-13T12:43:08Z</time>
      </trkpt>
      <trkpt lat="47.63017" lon="6.53244">
        <ele>309.7</ele>
        <time>2025-09-13T12:43:09Z</time>
      </trkpt>
      <trkpt lat="47.63017" lon="6.53234">
        <ele>309.6</ele>
        <time>2025-09-13T12:43:10Z</time>
      </trkpt>
      <trkpt lat="47.63017" lon="6.53225">
        <ele>309.5</ele>
        <time>2025-09-13T12:43:11Z</time>
      </trkpt>
      <trkpt lat="47.63017" lon="6.53217">
        <ele>309.5</ele>
        <time>2025-09-13T12:43:12Z</time>
      </trkpt>
      <trkpt lat="47.63019" lon="6.53207">
        <ele>309.5</ele>
        <time>2025-09-13T12:43:13Z</time>
      </trkpt>
      <trkpt lat="47.63019" lon="6.53199">
        <ele>309.4</ele>
        <time>2025-09-13T12:43:14Z</time>
      </trkpt>
      <trkpt lat="47.63019" lon="6.5319">
        <ele>309.4</ele>
        <time>2025-09-13T12:43:15Z</time>
      </trkpt>
      <trkpt lat="47.63019" lon="6.53181">
        <ele>309.4</ele>
        <time>2025-09-13T12:43:16Z</time>
      </trkpt>
      <trkpt lat="47.63018" lon="6.53172">
        <ele>309.4</ele>
        <time>2025-09-13T12:43:17Z</time>
      </trkpt>
      <trkpt lat="47.63019" lon="6.53164">
        <ele>309.4</ele>
        <time>2025-09-13T12:43:18Z</time>
      </trkpt>
      <trkpt lat="47.63019" lon="6.53155">
        <ele>309.3</ele>
        <time>2025-09-13T12:43:19Z</time>
      </trkpt>
      <trkpt lat="47.6302" lon="6.53146">
        <ele>309.3</ele>
        <time>2025-09-13T12:43:20Z</time>
      </trkpt>
      <trkpt lat="47.63018" lon="6.53138">
        <ele>309.3</ele>
        <time>2025-09-13T12:43:21Z</time>
      </trkpt>
      <trkpt lat="47.63017" lon="6.53129">
        <ele>309.2</ele>
        <time>2025-09-13T12:43:22Z</time>
      </trkpt>
      <trkpt lat="47.63016" lon="6.5312">
        <ele>309.1</ele>
        <time>2025-09-13T12:43:23Z</time>
      </trkpt>
      <trkpt lat="47.63016" lon="6.53112">
        <ele>309.1</ele>
        <time>2025-09-13T12:43:24Z</time>
      </trkpt>
      <trkpt lat="47.63015" lon="6.53104">
        <ele>309</ele>
        <time>2025-09-13T12:43:25Z</time>
      </trkpt>
      <trkpt lat="47.63015" lon="6.53094">
        <ele>308.8</ele>
        <time>2025-09-13T12:43:26Z</time>
      </trkpt>
      <trkpt lat="47.63014" lon="6.53085">
        <ele>308.7</ele>
        <time>2025-09-13T12:43:27Z</time>
      </trkpt>
      <trkpt lat="47.63015" lon="6.53075">
        <ele>308.6</ele>
        <time>2025-09-13T12:43:28Z</time>
      </trkpt>
      <trkpt lat="47.63014" lon="6.53064">
        <ele>308.4</ele>
        <time>2025-09-13T12:43:29Z</time>
      </trkpt>
      <trkpt lat="47.63013" lon="6.53055">
        <ele>308.4</ele>
        <time>2025-09-13T12:43:30Z</time>
      </trkpt>
      <trkpt lat="47.63015" lon="6.53044">
        <ele>308.3</ele>
        <time>2025-09-13T12:43:31Z</time>
      </trkpt>
      <trkpt lat="47.63013" lon="6.53037">
        <ele>308.2</ele>
        <time>2025-09-13T12:43:32Z</time>
      </trkpt>
      <trkpt lat="47.63014" lon="6.53026">
        <ele>308.1</ele>
        <time>2025-09-13T12:43:33Z</time>
      </trkpt>
      <trkpt lat="47.63013" lon="6.53017">
        <ele>307.9</ele>
        <time>2025-09-13T12:43:34Z</time>
      </trkpt>
      <trkpt lat="47.63014" lon="6.53007">
        <ele>307.8</ele>
        <time>2025-09-13T12:43:35Z</time>
      </trkpt>
      <trkpt lat="47.63014" lon="6.52997">
        <ele>307.7</ele>
        <time>2025-09-13T12:43:36Z</time>
      </trkpt>
      <trkpt lat="47.63014" lon="6.52987">
        <ele>307.6</ele>
        <time>2025-09-13T12:43:37Z</time>
      </trkpt>
      <trkpt lat="47.63014" lon="6.52978">
        <ele>307.5</ele>
        <time>2025-09-13T12:43:38Z</time>
      </trkpt>
      <trkpt lat="47.63014" lon="6.52967">
        <ele>307.3</ele>
        <time>2025-09-13T12:43:39Z</time>
      </trkpt>
      <trkpt lat="47.63014" lon="6.52959">
        <ele>307.2</ele>
        <time>2025-09-13T12:43:40Z</time>
      </trkpt>
      <trkpt lat="47.63015" lon="6.52948">
        <ele>307.1</ele>
        <time>2025-09-13T12:43:41Z</time>
      </trkpt>
      <trkpt lat="47.63015" lon="6.52938">
        <ele>307</ele>
        <time>2025-09-13T12:43:42Z</time>
      </trkpt>
      <trkpt lat="47.63016" lon="6.52927">
        <ele>306.8</ele>
        <time>2025-09-13T12:43:43Z</time>
      </trkpt>
      <trkpt lat="47.63016" lon="6.52917">
        <ele>306.7</ele>
        <time>2025-09-13T12:43:44Z</time>
      </trkpt>
      <trkpt lat="47.63016" lon="6.52906">
        <ele>306.5</ele>
        <time>2025-09-13T12:43:45Z</time>
      </trkpt>
      <trkpt lat="47.63017" lon="6.52895">
        <ele>306.3</ele>
        <time>2025-09-13T12:43:46Z</time>
      </trkpt>
      <trkpt lat="47.63016" lon="6.52885">
        <ele>306.2</ele>
        <time>2025-09-13T12:43:47Z</time>
      </trkpt>
      <trkpt lat="47.63016" lon="6.52874">
        <ele>306</ele>
        <time>2025-09-13T12:43:48Z</time>
      </trkpt>
      <trkpt lat="47.63015" lon="6.52863">
        <ele>305.8</ele>
        <time>2025-09-13T12:43:49Z</time>
      </trkpt>
      <trkpt lat="47.63014" lon="6.52853">
        <ele>305.6</ele>
        <time>2025-09-13T12:43:50Z</time>
      </trkpt>
      <trkpt lat="47.63013" lon="6.52843">
        <ele>305.4</ele>
        <time>2025-09-13T12:43:51Z</time>
      </trkpt>
      <trkpt lat="47.63012" lon="6.52832">
        <ele>305.3</ele>
        <time>2025-09-13T12:43:52Z</time>
      </trkpt>
      <trkpt lat="47.6301" lon="6.52822">
        <ele>305.1</ele>
        <time>2025-09-13T12:43:53Z</time>
      </trkpt>
      <trkpt lat="47.63009" lon="6.52812">
        <ele>305</ele>
        <time>2025-09-13T12:43:54Z</time>
      </trkpt>
      <trkpt lat="47.63008" lon="6.52803">
        <ele>304.8</ele>
        <time>2025-09-13T12:43:55Z</time>
      </trkpt>
      <trkpt lat="47.63007" lon="6.52793">
        <ele>304.7</ele>
        <time>2025-09-13T12:43:56Z</time>
      </trkpt>
      <trkpt lat="47.63005" lon="6.52783">
        <ele>304.6</ele>
        <time>2025-09-13T12:43:57Z</time>
      </trkpt>
      <trkpt lat="47.63004" lon="6.52774">
        <ele>304.5</ele>
        <time>2025-09-13T12:43:58Z</time>
      </trkpt>
      <trkpt lat="47.63003" lon="6.52764">
        <ele>304.4</ele>
        <time>2025-09-13T12:43:59Z</time>
      </trkpt>
      <trkpt lat="47.63002" lon="6.52754">
        <ele>304.3</ele>
        <time>2025-09-13T12:44:00Z</time>
      </trkpt>
      <trkpt lat="47.63001" lon="6.52744">
        <ele>304.2</ele>
        <time>2025-09-13T12:44:01Z</time>
      </trkpt>
      <trkpt lat="47.63" lon="6.52734">
        <ele>304.1</ele>
        <time>2025-09-13T12:44:02Z</time>
      </trkpt>
      <trkpt lat="47.62998" lon="6.52725">
        <ele>304</ele>
        <time>2025-09-13T12:44:03Z</time>
      </trkpt>
      <trkpt lat="47.62996" lon="6.52714">
        <ele>303.9</ele>
        <time>2025-09-13T12:44:04Z</time>
      </trkpt>
      <trkpt lat="47.62995" lon="6.52704">
        <ele>303.8</ele>
        <time>2025-09-13T12:44:05Z</time>
      </trkpt>
      <trkpt lat="47.62993" lon="6.52693">
        <ele>303.8</ele>
        <time>2025-09-13T12:44:06Z</time>
      </trkpt>
      <trkpt lat="47.62991" lon="6.52684">
        <ele>303.8</ele>
        <time>2025-09-13T12:44:07Z</time>
      </trkpt>
      <trkpt lat="47.62989" lon="6.52674">
        <ele>303.7</ele>
        <time>2025-09-13T12:44:08Z</time>
      </trkpt>
      <trkpt lat="47.62988" lon="6.52664">
        <ele>303.7</ele>
        <time>2025-09-13T12:44:09Z</time>
      </trkpt>
      <trkpt lat="47.62986" lon="6.52654">
        <ele>303.6</ele>
        <time>2025-09-13T12:44:10Z</time>
      </trkpt>
      <trkpt lat="47.62984" lon="6.52644">
        <ele>303.5</ele>
        <time>2025-09-13T12:44:11Z</time>
      </trkpt>
      <trkpt lat="47.62982" lon="6.52634">
        <ele>303.5</ele>
        <time>2025-09-13T12:44:12Z</time>
      </trkpt>
      <trkpt lat="47.6298" lon="6.52624">
        <ele>303.4</ele>
        <time>2025-09-13T12:44:13Z</time>
      </trkpt>
      <trkpt lat="47.62978" lon="6.52613">
        <ele>303.4</ele>
        <time>2025-09-13T12:44:14Z</time>
      </trkpt>
      <trkpt lat="47.62976" lon="6.52605">
        <ele>303.4</ele>
        <time>2025-09-13T12:44:15Z</time>
      </trkpt>
      <trkpt lat="47.62974" lon="6.52596">
        <ele>303.3</ele>
        <time>2025-09-13T12:44:16Z</time>
      </trkpt>
      <trkpt lat="47.62972" lon="6.52585">
        <ele>303.3</ele>
        <time>2025-09-13T12:44:17Z</time>
      </trkpt>
      <trkpt lat="47.62969" lon="6.52578">
        <ele>303.3</ele>
        <time>2025-09-13T12:44:18Z</time>
      </trkpt>
      <trkpt lat="47.62965" lon="6.52569">
        <ele>303.2</ele>
        <time>2025-09-13T12:44:19Z</time>
      </trkpt>
      <trkpt lat="47.62962" lon="6.52561">
        <ele>303.1</ele>
        <time>2025-09-13T12:44:20Z</time>
      </trkpt>
      <trkpt lat="47.62959" lon="6.52552">
        <ele>303.1</ele>
        <time>2025-09-13T12:44:21Z</time>
      </trkpt>
      <trkpt lat="47.62955" lon="6.52542">
        <ele>303</ele>
        <time>2025-09-13T12:44:22Z</time>
      </trkpt>
      <trkpt lat="47.62951" lon="6.52533">
        <ele>303</ele>
        <time>2025-09-13T12:44:23Z</time>
      </trkpt>
      <trkpt lat="47.6295" lon="6.52523">
        <ele>303</ele>
        <time>2025-09-13T12:44:24Z</time>
      </trkpt>
      <trkpt lat="47.62946" lon="6.52515">
        <ele>303</ele>
        <time>2025-09-13T12:44:25Z</time>
      </trkpt>
      <trkpt lat="47.62942" lon="6.52508">
        <ele>303</ele>
        <time>2025-09-13T12:44:26Z</time>
      </trkpt>
      <trkpt lat="47.62938" lon="6.525">
        <ele>303</ele>
        <time>2025-09-13T12:44:27Z</time>
      </trkpt>
      <trkpt lat="47.62934" lon="6.52492">
        <ele>303.1</ele>
        <time>2025-09-13T12:44:28Z</time>
      </trkpt>
      <trkpt lat="47.6293" lon="6.52486">
        <ele>303.1</ele>
        <time>2025-09-13T12:44:29Z</time>
      </trkpt>
      <trkpt lat="47.62927" lon="6.52478">
        <ele>303.1</ele>
        <time>2025-09-13T12:44:30Z</time>
      </trkpt>
      <trkpt lat="47.62924" lon="6.52471">
        <ele>303.2</ele>
        <time>2025-09-13T12:44:31Z</time>
      </trkpt>
      <trkpt lat="47.62919" lon="6.52463">
        <ele>303.2</ele>
        <time>2025-09-13T12:44:32Z</time>
      </trkpt>
      <trkpt lat="47.62916" lon="6.52455">
        <ele>303.3</ele>
        <time>2025-09-13T12:44:33Z</time>
      </trkpt>
      <trkpt lat="47.62912" lon="6.52448">
        <ele>303.3</ele>
        <time>2025-09-13T12:44:34Z</time>
      </trkpt>
      <trkpt lat="47.62908" lon="6.52441">
        <ele>303.3</ele>
        <time>2025-09-13T12:44:35Z</time>
      </trkpt>
      <trkpt lat="47.62904" lon="6.52435">
        <ele>303.4</ele>
        <time>2025-09-13T12:44:36Z</time>
      </trkpt>
      <trkpt lat="47.62901" lon="6.52427">
        <ele>303.4</ele>
        <time>2025-09-13T12:44:37Z</time>
      </trkpt>
      <trkpt lat="47.62898" lon="6.5242">
        <ele>303.5</ele>
        <time>2025-09-13T12:44:38Z</time>
      </trkpt>
      <trkpt lat="47.62894" lon="6.52413">
        <ele>303.6</ele>
        <time>2025-09-13T12:44:39Z</time>
      </trkpt>
      <trkpt lat="47.62891" lon="6.52406">
        <ele>303.7</ele>
        <time>2025-09-13T12:44:40Z</time>
      </trkpt>
      <trkpt lat="47.62888" lon="6.524">
        <ele>303.7</ele>
        <time>2025-09-13T12:44:41Z</time>
      </trkpt>
      <trkpt lat="47.62886" lon="6.52393">
        <ele>303.8</ele>
        <time>2025-09-13T12:44:42Z</time>
      </trkpt>
      <trkpt lat="47.62884" lon="6.52385">
        <ele>303.9</ele>
        <time>2025-09-13T12:44:43Z</time>
      </trkpt>
      <trkpt lat="47.62882" lon="6.52376">
        <ele>304</ele>
        <time>2025-09-13T12:44:44Z</time>
      </trkpt>
      <trkpt lat="47.62879" lon="6.5237">
        <ele>304.1</ele>
        <time>2025-09-13T12:44:45Z</time>
      </trkpt>
      <trkpt lat="47.62879" lon="6.52361">
        <ele>304.2</ele>
        <time>2025-09-13T12:44:46Z</time>
      </trkpt>
      <trkpt lat="47.62875" lon="6.52356">
        <ele>304.3</ele>
        <time>2025-09-13T12:44:47Z</time>
      </trkpt>
      <trkpt lat="47.62872" lon="6.5235">
        <ele>304.5</ele>
        <time>2025-09-13T12:44:48Z</time>
      </trkpt>
      <trkpt lat="47.62869" lon="6.52342">
        <ele>304.7</ele>
        <time>2025-09-13T12:44:49Z</time>
      </trkpt>
      <trkpt lat="47.62867" lon="6.52336">
        <ele>304.8</ele>
        <time>2025-09-13T12:44:50Z</time>
      </trkpt>
      <trkpt lat="47.62864" lon="6.52331">
        <ele>304.9</ele>
        <time>2025-09-13T12:44:51Z</time>
      </trkpt>
      <trkpt lat="47.62864" lon="6.52324">
        <ele>305.1</ele>
        <time>2025-09-13T12:44:52Z</time>
      </trkpt>
      <trkpt lat="47.62863" lon="6.52316">
        <ele>305.3</ele>
        <time>2025-09-13T12:44:53Z</time>
      </trkpt>
      <trkpt lat="47.62861" lon="6.52311">
        <ele>305.5</ele>
        <time>2025-09-13T12:44:54Z</time>
      </trkpt>
      <trkpt lat="47.6286" lon="6.52304">
        <ele>305.7</ele>
        <time>2025-09-13T12:44:55Z</time>
      </trkpt>
      <trkpt lat="47.62856" lon="6.52299">
        <ele>306</ele>
        <time>2025-09-13T12:44:56Z</time>
      </trkpt>
      <trkpt lat="47.62852" lon="6.52294">
        <ele>306.3</ele>
        <time>2025-09-13T12:44:57Z</time>
      </trkpt>
      <trkpt lat="47.62852" lon="6.52294">
        <ele>306.3</ele>
        <time>2025-09-13T12:44:58Z</time>
      </trkpt>
      <trkpt lat="47.62852" lon="6.52289">
        <ele>306.5</ele>
        <time>2025-09-13T12:44:59Z</time>
      </trkpt>
      <trkpt lat="47.62849" lon="6.52287">
        <ele>306.7</ele>
        <time>2025-09-13T12:45:00Z</time>
      </trkpt>
      <trkpt lat="47.62848" lon="6.52283">
        <ele>306.9</ele>
        <time>2025-09-13T12:45:01Z</time>
      </trkpt>
      <trkpt lat="47.62844" lon="6.52274">
        <ele>307.4</ele>
        <time>2025-09-13T12:45:02Z</time>
      </trkpt>
      <trkpt lat="47.62841" lon="6.52267">
        <ele>307.8</ele>
        <time>2025-09-13T12:45:03Z</time>
      </trkpt>
      <trkpt lat="47.6284" lon="6.52259">
        <ele>308.2</ele>
        <time>2025-09-13T12:45:04Z</time>
      </trkpt>
      <trkpt lat="47.62841" lon="6.52266">
        <ele>308.5</ele>
        <time>2025-09-13T12:45:05Z</time>
      </trkpt>
      <trkpt lat="47.62842" lon="6.52262">
        <ele>308.7</ele>
        <time>2025-09-13T12:45:06Z</time>
      </trkpt>
      <trkpt lat="47.62843" lon="6.52255">
        <ele>309</ele>
        <time>2025-09-13T12:45:07Z</time>
      </trkpt>
      <trkpt lat="47.62842" lon="6.52249">
        <ele>309.2</ele>
        <time>2025-09-13T12:45:08Z</time>
      </trkpt>
      <trkpt lat="47.62841" lon="6.52242">
        <ele>309.6</ele>
        <time>2025-09-13T12:45:09Z</time>
      </trkpt>
      <trkpt lat="47.6284" lon="6.52232">
        <ele>310</ele>
        <time>2025-09-13T12:45:10Z</time>
      </trkpt>
      <trkpt lat="47.62837" lon="6.52224">
        <ele>310.4</ele>
        <time>2025-09-13T12:45:11Z</time>
      </trkpt>
      <trkpt lat="47.62834" lon="6.52217">
        <ele>310.7</ele>
        <time>2025-09-13T12:45:12Z</time>
      </trkpt>
      <trkpt lat="47.62833" lon="6.5221">
        <ele>311</ele>
        <time>2025-09-13T12:45:13Z</time>
      </trkpt>
      <trkpt lat="47.62832" lon="6.52203">
        <ele>311.3</ele>
        <time>2025-09-13T12:45:14Z</time>
      </trkpt>
      <trkpt lat="47.6283" lon="6.52197">
        <ele>311.6</ele>
        <time>2025-09-13T12:45:15Z</time>
      </trkpt>
      <trkpt lat="47.62828" lon="6.52191">
        <ele>311.8</ele>
        <time>2025-09-13T12:45:16Z</time>
      </trkpt>
      <trkpt lat="47.62826" lon="6.52182">
        <ele>312.1</ele>
        <time>2025-09-13T12:45:17Z</time>
      </trkpt>
      <trkpt lat="47.62823" lon="6.52175">
        <ele>312.4</ele>
        <time>2025-09-13T12:45:18Z</time>
      </trkpt>
      <trkpt lat="47.62821" lon="6.52169">
        <ele>312.6</ele>
        <time>2025-09-13T12:45:19Z</time>
      </trkpt>
      <trkpt lat="47.62819" lon="6.52163">
        <ele>312.9</ele>
        <time>2025-09-13T12:45:20Z</time>
      </trkpt>
      <trkpt lat="47.62818" lon="6.52157">
        <ele>313.1</ele>
        <time>2025-09-13T12:45:21Z</time>
      </trkpt>
      <trkpt lat="47.62816" lon="6.52151">
        <ele>313.3</ele>
        <time>2025-09-13T12:45:22Z</time>
      </trkpt>
      <trkpt lat="47.62815" lon="6.52145">
        <ele>313.5</ele>
        <time>2025-09-13T12:45:23Z</time>
      </trkpt>
      <trkpt lat="47.62814" lon="6.5214">
        <ele>313.6</ele>
        <time>2025-09-13T12:45:24Z</time>
      </trkpt>
      <trkpt lat="47.62811" lon="6.52134">
        <ele>313.8</ele>
        <time>2025-09-13T12:45:25Z</time>
      </trkpt>
      <trkpt lat="47.6281" lon="6.52129">
        <ele>314</ele>
        <time>2025-09-13T12:45:26Z</time>
      </trkpt>
      <trkpt lat="47.62807" lon="6.52123">
        <ele>314.1</ele>
        <time>2025-09-13T12:45:27Z</time>
      </trkpt>
      <trkpt lat="47.62805" lon="6.52117">
        <ele>314.3</ele>
        <time>2025-09-13T12:45:28Z</time>
      </trkpt>
      <trkpt lat="47.62803" lon="6.52111">
        <ele>314.4</ele>
        <time>2025-09-13T12:45:29Z</time>
      </trkpt>
      <trkpt lat="47.62801" lon="6.52105">
        <ele>314.6</ele>
        <time>2025-09-13T12:45:30Z</time>
      </trkpt>
      <trkpt lat="47.62799" lon="6.52099">
        <ele>314.7</ele>
        <time>2025-09-13T12:45:31Z</time>
      </trkpt>
      <trkpt lat="47.62797" lon="6.52093">
        <ele>314.9</ele>
        <time>2025-09-13T12:45:32Z</time>
      </trkpt>
      <trkpt lat="47.62796" lon="6.52087">
        <ele>315</ele>
        <time>2025-09-13T12:45:33Z</time>
      </trkpt>
      <trkpt lat="47.62794" lon="6.52081">
        <ele>315.2</ele>
        <time>2025-09-13T12:45:34Z</time>
      </trkpt>
      <trkpt lat="47.62793" lon="6.52074">
        <ele>315.3</ele>
        <time>2025-09-13T12:45:35Z</time>
      </trkpt>
      <trkpt lat="47.62791" lon="6.52069">
        <ele>315.4</ele>
        <time>2025-09-13T12:45:36Z</time>
      </trkpt>
      <trkpt lat="47.62789" lon="6.52063">
        <ele>315.6</ele>
        <time>2025-09-13T12:45:37Z</time>
      </trkpt>
      <trkpt lat="47.62787" lon="6.52057">
        <ele>315.7</ele>
        <time>2025-09-13T12:45:38Z</time>
      </trkpt>
      <trkpt lat="47.62785" lon="6.5205">
        <ele>315.8</ele>
        <time>2025-09-13T12:45:39Z</time>
      </trkpt>
      <trkpt lat="47.62784" lon="6.52044">
        <ele>315.9</ele>
        <time>2025-09-13T12:45:40Z</time>
      </trkpt>
      <trkpt lat="47.62782" lon="6.52038">
        <ele>316.1</ele>
        <time>2025-09-13T12:45:41Z</time>
      </trkpt>
      <trkpt lat="47.6278" lon="6.52032">
        <ele>316.2</ele>
        <time>2025-09-13T12:45:42Z</time>
      </trkpt>
      <trkpt lat="47.62778" lon="6.52026">
        <ele>316.3</ele>
        <time>2025-09-13T12:45:43Z</time>
      </trkpt>
      <trkpt lat="47.62777" lon="6.52019">
        <ele>316.4</ele>
        <time>2025-09-13T12:45:44Z</time>
      </trkpt>
      <trkpt lat="47.62776" lon="6.52013">
        <ele>316.4</ele>
        <time>2025-09-13T12:45:45Z</time>
      </trkpt>
      <trkpt lat="47.62776" lon="6.52006">
        <ele>316.5</ele>
        <time>2025-09-13T12:45:46Z</time>
      </trkpt>
      <trkpt lat="47.62775" lon="6.52">
        <ele>316.4</ele>
        <time>2025-09-13T12:45:47Z</time>
      </trkpt>
      <trkpt lat="47.62776" lon="6.51993">
        <ele>316.4</ele>
        <time>2025-09-13T12:45:48Z</time>
      </trkpt>
      <trkpt lat="47.62776" lon="6.51986">
        <ele>316.3</ele>
        <time>2025-09-13T12:45:49Z</time>
      </trkpt>
      <trkpt lat="47.62778" lon="6.51979">
        <ele>316.1</ele>
        <time>2025-09-13T12:45:50Z</time>
      </trkpt>
      <trkpt lat="47.6278" lon="6.51971">
        <ele>315.8</ele>
        <time>2025-09-13T12:45:51Z</time>
      </trkpt>
      <trkpt lat="47.62783" lon="6.51963">
        <ele>315.5</ele>
        <time>2025-09-13T12:45:52Z</time>
      </trkpt>
      <trkpt lat="47.62787" lon="6.51956">
        <ele>315.1</ele>
        <time>2025-09-13T12:45:53Z</time>
      </trkpt>
      <trkpt lat="47.6279" lon="6.51949">
        <ele>314.7</ele>
        <time>2025-09-13T12:45:54Z</time>
      </trkpt>
      <trkpt lat="47.62795" lon="6.51942">
        <ele>314.3</ele>
        <time>2025-09-13T12:45:55Z</time>
      </trkpt>
      <trkpt lat="47.62801" lon="6.51936">
        <ele>313.9</ele>
        <time>2025-09-13T12:45:56Z</time>
      </trkpt>
      <trkpt lat="47.62807" lon="6.51931">
        <ele>313.4</ele>
        <time>2025-09-13T12:45:57Z</time>
      </trkpt>
      <trkpt lat="47.62814" lon="6.51926">
        <ele>312.9</ele>
        <time>2025-09-13T12:45:58Z</time>
      </trkpt>
      <trkpt lat="47.62821" lon="6.51923">
        <ele>312.5</ele>
        <time>2025-09-13T12:45:59Z</time>
      </trkpt>
      <trkpt lat="47.62828" lon="6.51919">
        <ele>312.1</ele>
        <time>2025-09-13T12:46:00Z</time>
      </trkpt>
      <trkpt lat="47.62836" lon="6.51914">
        <ele>311.6</ele>
        <time>2025-09-13T12:46:01Z</time>
      </trkpt>
      <trkpt lat="47.62844" lon="6.51909">
        <ele>311.2</ele>
        <time>2025-09-13T12:46:02Z</time>
      </trkpt>
      <trkpt lat="47.62851" lon="6.51903">
        <ele>310.8</ele>
        <time>2025-09-13T12:46:03Z</time>
      </trkpt>
      <trkpt lat="47.62859" lon="6.51898">
        <ele>310.4</ele>
        <time>2025-09-13T12:46:04Z</time>
      </trkpt>
      <trkpt lat="47.62866" lon="6.51892">
        <ele>310.1</ele>
        <time>2025-09-13T12:46:05Z</time>
      </trkpt>
      <trkpt lat="47.62873" lon="6.51887">
        <ele>309.8</ele>
        <time>2025-09-13T12:46:06Z</time>
      </trkpt>
      <trkpt lat="47.62882" lon="6.51881">
        <ele>309.5</ele>
        <time>2025-09-13T12:46:07Z</time>
      </trkpt>
      <trkpt lat="47.6289" lon="6.51874">
        <ele>309.2</ele>
        <time>2025-09-13T12:46:08Z</time>
      </trkpt>
      <trkpt lat="47.62898" lon="6.51872">
        <ele>308.9</ele>
        <time>2025-09-13T12:46:09Z</time>
      </trkpt>
      <trkpt lat="47.62905" lon="6.51868">
        <ele>308.7</ele>
        <time>2025-09-13T12:46:10Z</time>
      </trkpt>
      <trkpt lat="47.62913" lon="6.51863">
        <ele>308.5</ele>
        <time>2025-09-13T12:46:11Z</time>
      </trkpt>
      <trkpt lat="47.62921" lon="6.51858">
        <ele>308.3</ele>
        <time>2025-09-13T12:46:12Z</time>
      </trkpt>
      <trkpt lat="47.62929" lon="6.51853">
        <ele>308.1</ele>
        <time>2025-09-13T12:46:13Z</time>
      </trkpt>
      <trkpt lat="47.62936" lon="6.51847">
        <ele>307.9</ele>
        <time>2025-09-13T12:46:14Z</time>
      </trkpt>
      <trkpt lat="47.62944" lon="6.51843">
        <ele>307.8</ele>
        <time>2025-09-13T12:46:15Z</time>
      </trkpt>
      <trkpt lat="47.62951" lon="6.51836">
        <ele>307.6</ele>
        <time>2025-09-13T12:46:16Z</time>
      </trkpt>
      <trkpt lat="47.62958" lon="6.5183">
        <ele>307.4</ele>
        <time>2025-09-13T12:46:17Z</time>
      </trkpt>
      <trkpt lat="47.62965" lon="6.51824">
        <ele>307.2</ele>
        <time>2025-09-13T12:46:18Z</time>
      </trkpt>
      <trkpt lat="47.62974" lon="6.51822">
        <ele>307.1</ele>
        <time>2025-09-13T12:46:19Z</time>
      </trkpt>
      <trkpt lat="47.62981" lon="6.51819">
        <ele>306.9</ele>
        <time>2025-09-13T12:46:20Z</time>
      </trkpt>
      <trkpt lat="47.62989" lon="6.51815">
        <ele>306.8</ele>
        <time>2025-09-13T12:46:21Z</time>
      </trkpt>
      <trkpt lat="47.62995" lon="6.5181">
        <ele>306.6</ele>
        <time>2025-09-13T12:46:22Z</time>
      </trkpt>
      <trkpt lat="47.63002" lon="6.51805">
        <ele>306.5</ele>
        <time>2025-09-13T12:46:23Z</time>
      </trkpt>
      <trkpt lat="47.63009" lon="6.518">
        <ele>306.4</ele>
        <time>2025-09-13T12:46:24Z</time>
      </trkpt>
      <trkpt lat="47.63016" lon="6.51795">
        <ele>306.2</ele>
        <time>2025-09-13T12:46:25Z</time>
      </trkpt>
      <trkpt lat="47.63023" lon="6.51792">
        <ele>306</ele>
        <time>2025-09-13T12:46:26Z</time>
      </trkpt>
      <trkpt lat="47.6303" lon="6.51788">
        <ele>305.9</ele>
        <time>2025-09-13T12:46:27Z</time>
      </trkpt>
      <trkpt lat="47.63037" lon="6.51784">
        <ele>305.7</ele>
        <time>2025-09-13T12:46:28Z</time>
      </trkpt>
      <trkpt lat="47.63044" lon="6.51779">
        <ele>305.5</ele>
        <time>2025-09-13T12:46:29Z</time>
      </trkpt>
      <trkpt lat="47.63051" lon="6.51775">
        <ele>305.3</ele>
        <time>2025-09-13T12:46:30Z</time>
      </trkpt>
      <trkpt lat="47.63059" lon="6.51771">
        <ele>305</ele>
        <time>2025-09-13T12:46:31Z</time>
      </trkpt>
      <trkpt lat="47.63066" lon="6.51766">
        <ele>304.7</ele>
        <time>2025-09-13T12:46:32Z</time>
      </trkpt>
      <trkpt lat="47.63074" lon="6.51762">
        <ele>304.4</ele>
        <time>2025-09-13T12:46:33Z</time>
      </trkpt>
      <trkpt lat="47.63081" lon="6.51758">
        <ele>304.1</ele>
        <time>2025-09-13T12:46:34Z</time>
      </trkpt>
      <trkpt lat="47.6309" lon="6.51756">
        <ele>303.7</ele>
        <time>2025-09-13T12:46:35Z</time>
      </trkpt>
      <trkpt lat="47.63098" lon="6.51752">
        <ele>303.4</ele>
        <time>2025-09-13T12:46:36Z</time>
      </trkpt>
      <trkpt lat="47.63106" lon="6.51747">
        <ele>303</ele>
        <time>2025-09-13T12:46:37Z</time>
      </trkpt>
      <trkpt lat="47.63114" lon="6.51741">
        <ele>302.6</ele>
        <time>2025-09-13T12:46:38Z</time>
      </trkpt>
      <trkpt lat="47.63122" lon="6.51738">
        <ele>302.3</ele>
        <time>2025-09-13T12:46:39Z</time>
      </trkpt>
      <trkpt lat="47.63129" lon="6.51733">
        <ele>302.1</ele>
        <time>2025-09-13T12:46:40Z</time>
      </trkpt>
      <trkpt lat="47.63136" lon="6.51726">
        <ele>301.8</ele>
        <time>2025-09-13T12:46:41Z</time>
      </trkpt>
      <trkpt lat="47.63143" lon="6.51722">
        <ele>301.6</ele>
        <time>2025-09-13T12:46:42Z</time>
      </trkpt>
      <trkpt lat="47.63151" lon="6.51716">
        <ele>301.4</ele>
        <time>2025-09-13T12:46:43Z</time>
      </trkpt>
      <trkpt lat="47.63159" lon="6.5171">
        <ele>301.2</ele>
        <time>2025-09-13T12:46:44Z</time>
      </trkpt>
      <trkpt lat="47.63166" lon="6.51707">
        <ele>301</ele>
        <time>2025-09-13T12:46:45Z</time>
      </trkpt>
      <trkpt lat="47.63173" lon="6.51703">
        <ele>300.8</ele>
        <time>2025-09-13T12:46:46Z</time>
      </trkpt>
      <trkpt lat="47.63181" lon="6.51697">
        <ele>300.6</ele>
        <time>2025-09-13T12:46:47Z</time>
      </trkpt>
      <trkpt lat="47.63188" lon="6.51693">
        <ele>300.4</ele>
        <time>2025-09-13T12:46:48Z</time>
      </trkpt>
      <trkpt lat="47.63195" lon="6.51687">
        <ele>300.2</ele>
        <time>2025-09-13T12:46:49Z</time>
      </trkpt>
      <trkpt lat="47.63202" lon="6.51682">
        <ele>300.1</ele>
        <time>2025-09-13T12:46:50Z</time>
      </trkpt>
      <trkpt lat="47.63209" lon="6.51676">
        <ele>299.9</ele>
        <time>2025-09-13T12:46:51Z</time>
      </trkpt>
      <trkpt lat="47.63215" lon="6.51671">
        <ele>299.8</ele>
        <time>2025-09-13T12:46:52Z</time>
      </trkpt>
      <trkpt lat="47.63221" lon="6.51667">
        <ele>299.8</ele>
        <time>2025-09-13T12:46:53Z</time>
      </trkpt>
      <trkpt lat="47.63228" lon="6.51661">
        <ele>299.7</ele>
        <time>2025-09-13T12:46:54Z</time>
      </trkpt>
      <trkpt lat="47.63234" lon="6.51658">
        <ele>299.7</ele>
        <time>2025-09-13T12:46:55Z</time>
      </trkpt>
      <trkpt lat="47.6324" lon="6.51654">
        <ele>299.7</ele>
        <time>2025-09-13T12:46:56Z</time>
      </trkpt>
      <trkpt lat="47.63246" lon="6.51649">
        <ele>299.8</ele>
        <time>2025-09-13T12:46:57Z</time>
      </trkpt>
      <trkpt lat="47.63253" lon="6.51643">
        <ele>299.9</ele>
        <time>2025-09-13T12:46:58Z</time>
      </trkpt>
      <trkpt lat="47.63259" lon="6.51642">
        <ele>299.9</ele>
        <time>2025-09-13T12:46:59Z</time>
      </trkpt>
      <trkpt lat="47.63265" lon="6.51636">
        <ele>300</ele>
        <time>2025-09-13T12:47:00Z</time>
      </trkpt>
      <trkpt lat="47.63271" lon="6.51631">
        <ele>300.1</ele>
        <time>2025-09-13T12:47:01Z</time>
      </trkpt>
      <trkpt lat="47.63277" lon="6.51627">
        <ele>300.1</ele>
        <time>2025-09-13T12:47:02Z</time>
      </trkpt>
      <trkpt lat="47.63283" lon="6.51623">
        <ele>300.2</ele>
        <time>2025-09-13T12:47:03Z</time>
      </trkpt>
      <trkpt lat="47.63289" lon="6.51616">
        <ele>300.3</ele>
        <time>2025-09-13T12:47:04Z</time>
      </trkpt>
      <trkpt lat="47.63296" lon="6.51612">
        <ele>300.4</ele>
        <time>2025-09-13T12:47:05Z</time>
      </trkpt>
      <trkpt lat="47.63302" lon="6.51607">
        <ele>300.5</ele>
        <time>2025-09-13T12:47:06Z</time>
      </trkpt>
      <trkpt lat="47.63307" lon="6.51602">
        <ele>300.6</ele>
        <time>2025-09-13T12:47:07Z</time>
      </trkpt>
      <trkpt lat="47.63313" lon="6.51597">
        <ele>300.6</ele>
        <time>2025-09-13T12:47:08Z</time>
      </trkpt>
      <trkpt lat="47.63319" lon="6.51593">
        <ele>300.7</ele>
        <time>2025-09-13T12:47:09Z</time>
      </trkpt>
      <trkpt lat="47.63326" lon="6.51592">
        <ele>300.7</ele>
        <time>2025-09-13T12:47:10Z</time>
      </trkpt>
      <trkpt lat="47.63331" lon="6.5159">
        <ele>300.6</ele>
        <time>2025-09-13T12:47:11Z</time>
      </trkpt>
      <trkpt lat="47.63336" lon="6.51586">
        <ele>300.6</ele>
        <time>2025-09-13T12:47:12Z</time>
      </trkpt>
      <trkpt lat="47.63342" lon="6.51586">
        <ele>300.6</ele>
        <time>2025-09-13T12:47:13Z</time>
      </trkpt>
      <trkpt lat="47.63347" lon="6.51583">
        <ele>300.6</ele>
        <time>2025-09-13T12:47:14Z</time>
      </trkpt>
      <trkpt lat="47.63353" lon="6.5158">
        <ele>300.6</ele>
        <time>2025-09-13T12:47:15Z</time>
      </trkpt>
      <trkpt lat="47.63358" lon="6.51575">
        <ele>300.5</ele>
        <time>2025-09-13T12:47:16Z</time>
      </trkpt>
      <trkpt lat="47.63364" lon="6.51572">
        <ele>300.5</ele>
        <time>2025-09-13T12:47:17Z</time>
      </trkpt>
      <trkpt lat="47.63369" lon="6.51569">
        <ele>300.5</ele>
        <time>2025-09-13T12:47:18Z</time>
      </trkpt>
      <trkpt lat="47.63374" lon="6.51565">
        <ele>300.5</ele>
        <time>2025-09-13T12:47:19Z</time>
      </trkpt>
      <trkpt lat="47.6338" lon="6.51561">
        <ele>300.4</ele>
        <time>2025-09-13T12:47:20Z</time>
      </trkpt>
      <trkpt lat="47.63385" lon="6.51557">
        <ele>300.4</ele>
        <time>2025-09-13T12:47:21Z</time>
      </trkpt>
      <trkpt lat="47.6339" lon="6.51552">
        <ele>300.4</ele>
        <time>2025-09-13T12:47:22Z</time>
      </trkpt>
      <trkpt lat="47.63395" lon="6.51548">
        <ele>300.4</ele>
        <time>2025-09-13T12:47:23Z</time>
      </trkpt>
      <trkpt lat="47.63399" lon="6.51546">
        <ele>300.4</ele>
        <time>2025-09-13T12:47:24Z</time>
      </trkpt>
      <trkpt lat="47.63404" lon="6.51544">
        <ele>300.5</ele>
        <time>2025-09-13T12:47:25Z</time>
      </trkpt>
      <trkpt lat="47.63407" lon="6.51541">
        <ele>300.5</ele>
        <time>2025-09-13T12:47:26Z</time>
      </trkpt>
      <trkpt lat="47.63409" lon="6.51539">
        <ele>300.5</ele>
        <time>2025-09-13T12:47:27Z</time>
      </trkpt>
      <trkpt lat="47.63412" lon="6.51536">
        <ele>300.5</ele>
        <time>2025-09-13T12:47:28Z</time>
      </trkpt>
      <trkpt lat="47.63413" lon="6.51535">
        <ele>300.5</ele>
        <time>2025-09-13T12:47:29Z</time>
      </trkpt>
      <trkpt lat="47.63415" lon="6.51536">
        <ele>300.5</ele>
        <time>2025-09-13T12:47:30Z</time>
      </trkpt>
      <trkpt lat="47.63416" lon="6.51536">
        <ele>300.5</ele>
        <time>2025-09-13T12:47:31Z</time>
      </trkpt>
      <trkpt lat="47.63416" lon="6.51536">
        <ele>300.5</ele>
        <time>2025-09-13T12:47:32Z</time>
      </trkpt>
      <trkpt lat="47.63417" lon="6.51537">
        <ele>300.5</ele>
        <time>2025-09-13T12:47:33Z</time>
      </trkpt>
      <trkpt lat="47.63417" lon="6.51537">
        <ele>300.5</ele>
        <time>2025-09-13T12:47:34Z</time>
      </trkpt>
      <trkpt lat="47.63418" lon="6.51537">
        <ele>300.5</ele>
        <time>2025-09-13T12:47:35Z</time>
      </trkpt>
      <trkpt lat="47.63417" lon="6.51537">
        <ele>300.5</ele>
        <time>2025-09-13T12:47:36Z</time>
      </trkpt>
      <trkpt lat="47.63415" lon="6.51537">
        <ele>300.5</ele>
        <time>2025-09-13T12:47:37Z</time>
      </trkpt>
      <trkpt lat="47.63415" lon="6.51537">
        <ele>300.5</ele>
        <time>2025-09-13T12:47:38Z</time>
      </trkpt>
      <trkpt lat="47.63415" lon="6.51537">
        <ele>300.5</ele>
        <time>2025-09-13T12:47:39Z</time>
      </trkpt>
      <trkpt lat="47.63416" lon="6.51535">
        <ele>300.5</ele>
        <time>2025-09-13T12:47:40Z</time>
      </trkpt>
      <trkpt lat="47.63415" lon="6.51535">
        <ele>300.5</ele>
        <time>2025-09-13T12:47:41Z</time>
      </trkpt>
      <trkpt lat="47.63415" lon="6.51535">
        <ele>300.5</ele>
        <time>2025-09-13T12:47:42Z</time>
      </trkpt>
      <trkpt lat="47.63416" lon="6.51535">
        <ele>300.5</ele>
        <time>2025-09-13T12:47:43Z</time>
      </trkpt>
      <trkpt lat="47.63417" lon="6.51535">
        <ele>300.5</ele>
        <time>2025-09-13T12:47:44Z</time>
      </trkpt>
      <trkpt lat="47.63417" lon="6.51534">
        <ele>300.5</ele>
        <time>2025-09-13T12:47:45Z</time>
      </trkpt>
      <trkpt lat="47.63417" lon="6.51535">
        <ele>300.5</ele>
        <time>2025-09-13T12:47:46Z</time>
      </trkpt>
      <trkpt lat="47.63416" lon="6.51535">
        <ele>300.5</ele>
        <time>2025-09-13T12:47:47Z</time>
      </trkpt>
      <trkpt lat="47.63415" lon="6.51535">
        <ele>300.5</ele>
        <time>2025-09-13T12:47:48Z</time>
      </trkpt>
      <trkpt lat="47.63415" lon="6.51535">
        <ele>300.5</ele>
        <time>2025-09-13T12:47:49Z</time>
      </trkpt>
      <trkpt lat="47.63415" lon="6.51535">
        <ele>300.5</ele>
        <time>2025-09-13T12:47:50Z</time>
      </trkpt>
      <trkpt lat="47.63415" lon="6.51535">
        <ele>300.5</ele>
        <time>2025-09-13T12:47:51Z</time>
      </trkpt>
      <trkpt lat="47.63415" lon="6.51535">
        <ele>300.5</ele>
        <time>2025-09-13T12:47:52Z</time>
      </trkpt>
      <trkpt lat="47.63415" lon="6.51535">
        <ele>300.5</ele>
        <time>2025-09-13T12:47:53Z</time>
      </trkpt>
      <trkpt lat="47.63415" lon="6.51535">
        <ele>300.5</ele>
        <time>2025-09-13T12:47:54Z</time>
      </trkpt>
      <trkpt lat="47.63415" lon="6.51535">
        <ele>300.5</ele>
        <time>2025-09-13T12:47:55Z</time>
      </trkpt>
      <trkpt lat="47.63415" lon="6.51535">
        <ele>300.5</ele>
        <time>2025-09-13T12:47:56Z</time>
      </trkpt>
      <trkpt lat="47.63415" lon="6.51535">
        <ele>300.5</ele>
        <time>2025-09-13T12:47:57Z</time>
      </trkpt>
      <trkpt lat="47.63415" lon="6.51535">
        <ele>300.5</ele>
        <time>2025-09-13T12:47:58Z</time>
      </trkpt>
      <trkpt lat="47.63415" lon="6.51535">
        <ele>300.5</ele>
        <time>2025-09-13T12:47:59Z</time>
      </trkpt>
      <trkpt lat="47.63415" lon="6.51535">
        <ele>300.5</ele>
        <time>2025-09-13T12:48:00Z</time>
      </trkpt>
      <trkpt lat="47.63415" lon="6.51535">
        <ele>300.5</ele>
        <time>2025-09-13T12:48:01Z</time>
      </trkpt>
      <trkpt lat="47.63415" lon="6.51535">
        <ele>300.5</ele>
        <time>2025-09-13T12:48:02Z</time>
      </trkpt>
      <trkpt lat="47.63415" lon="6.51535">
        <ele>300.5</ele>
        <time>2025-09-13T12:48:03Z</time>
      </trkpt>
      <trkpt lat="47.63415" lon="6.51535">
        <ele>300.5</ele>
        <time>2025-09-13T12:48:04Z</time>
      </trkpt>
      <trkpt lat="47.63415" lon="6.51535">
        <ele>300.5</ele>
        <time>2025-09-13T12:48:05Z</time>
      </trkpt>
      <trkpt lat="47.63415" lon="6.51535">
        <ele>300.5</ele>
        <time>2025-09-13T12:48:06Z</time>
      </trkpt>
      <trkpt lat="47.63415" lon="6.51535">
        <ele>300.5</ele>
        <time>2025-09-13T12:48:07Z</time>
      </trkpt>
      <trkpt lat="47.63415" lon="6.51535">
        <ele>300.5</ele>
        <time>2025-09-13T12:48:08Z</time>
      </trkpt>
      <trkpt lat="47.63415" lon="6.51535">
        <ele>300.5</ele>
        <time>2025-09-13T12:48:09Z</time>
      </trkpt>
      <trkpt lat="47.63415" lon="6.51535">
        <ele>300.5</ele>
        <time>2025-09-13T12:48:10Z</time>
      </trkpt>
      <trkpt lat="47.63415" lon="6.51535">
        <ele>300.5</ele>
        <time>2025-09-13T12:48:11Z</time>
      </trkpt>
      <trkpt lat="47.63415" lon="6.51535">
        <ele>300.5</ele>
        <time>2025-09-13T12:48:12Z</time>
      </trkpt>
      <trkpt lat="47.63415" lon="6.51535">
        <ele>300.5</ele>
        <time>2025-09-13T12:48:13Z</time>
      </trkpt>
      <trkpt lat="47.63415" lon="6.51535">
        <ele>300.5</ele>
        <time>2025-09-13T12:48:14Z</time>
      </trkpt>
      <trkpt lat="47.63415" lon="6.51535">
        <ele>300.5</ele>
        <time>2025-09-13T12:48:15Z</time>
      </trkpt>
      <trkpt lat="47.63415" lon="6.51535">
        <ele>300.5</ele>
        <time>2025-09-13T12:48:16Z</time>
      </trkpt>
      <trkpt lat="47.63415" lon="6.51535">
        <ele>300.5</ele>
        <time>2025-09-13T12:48:17Z</time>
      </trkpt>
      <trkpt lat="47.63415" lon="6.51535">
        <ele>300.5</ele>
        <time>2025-09-13T12:48:18Z</time>
      </trkpt>
      <trkpt lat="47.63415" lon="6.51535">
        <ele>300.5</ele>
        <time>2025-09-13T12:48:19Z</time>
      </trkpt>
      <trkpt lat="47.63415" lon="6.51535">
        <ele>300.5</ele>
        <time>2025-09-13T12:48:20Z</time>
      </trkpt>
      <trkpt lat="47.63415" lon="6.51535">
        <ele>300.5</ele>
        <time>2025-09-13T12:48:21Z</time>
      </trkpt>
      <trkpt lat="47.63415" lon="6.51535">
        <ele>300.5</ele>
        <time>2025-09-13T12:48:22Z</time>
      </trkpt>
      <trkpt lat="47.63415" lon="6.51535">
        <ele>300.5</ele>
        <time>2025-09-13T12:48:23Z</time>
      </trkpt>
      <trkpt lat="47.63415" lon="6.51535">
        <ele>300.5</ele>
        <time>2025-09-13T12:48:24Z</time>
      </trkpt>
      <trkpt lat="47.63415" lon="6.51535">
        <ele>300.5</ele>
        <time>2025-09-13T12:48:25Z</time>
      </trkpt>
      <trkpt lat="47.63415" lon="6.51535">
        <ele>300.5</ele>
        <time>2025-09-13T12:48:26Z</time>
      </trkpt>
      <trkpt lat="47.63415" lon="6.51535">
        <ele>300.5</ele>
        <time>2025-09-13T12:48:27Z</time>
      </trkpt>
      <trkpt lat="47.63415" lon="6.51535">
        <ele>300.5</ele>
        <time>2025-09-13T12:48:28Z</time>
      </trkpt>
      <trkpt lat="47.63415" lon="6.51535">
        <ele>300.5</ele>
        <time>2025-09-13T12:48:29Z</time>
      </trkpt>
      <trkpt lat="47.63415" lon="6.51535">
        <ele>300.5</ele>
        <time>2025-09-13T12:48:30Z</time>
      </trkpt>
      <trkpt lat="47.63415" lon="6.51535">
        <ele>300.5</ele>
        <time>2025-09-13T12:48:31Z</time>
      </trkpt>
      <trkpt lat="47.63415" lon="6.51535">
        <ele>300.5</ele>
        <time>2025-09-13T12:48:32Z</time>
      </trkpt>
      <trkpt lat="47.63415" lon="6.51535">
        <ele>300.5</ele>
        <time>2025-09-13T12:48:33Z</time>
      </trkpt>
      <trkpt lat="47.63415" lon="6.51535">
        <ele>300.5</ele>
        <time>2025-09-13T12:48:34Z</time>
      </trkpt>
      <trkpt lat="47.63415" lon="6.51535">
        <ele>300.5</ele>
        <time>2025-09-13T12:48:35Z</time>
      </trkpt>
      <trkpt lat="47.63415" lon="6.51535">
        <ele>300.5</ele>
        <time>2025-09-13T12:48:36Z</time>
      </trkpt>
      <trkpt lat="47.63415" lon="6.51535">
        <ele>300.5</ele>
        <time>2025-09-13T12:48:37Z</time>
      </trkpt>
      <trkpt lat="47.63415" lon="6.51535">
        <ele>300.5</ele>
        <time>2025-09-13T12:48:38Z</time>
      </trkpt>
      <trkpt lat="47.63413" lon="6.51536">
        <ele>300.5</ele>
        <time>2025-09-13T12:48:39Z</time>
      </trkpt>
      <trkpt lat="47.63414" lon="6.51537">
        <ele>300.5</ele>
        <time>2025-09-13T12:48:40Z</time>
      </trkpt>
      <trkpt lat="47.63413" lon="6.51537">
        <ele>300.5</ele>
        <time>2025-09-13T12:48:41Z</time>
      </trkpt>
      <trkpt lat="47.63412" lon="6.51537">
        <ele>300.5</ele>
        <time>2025-09-13T12:48:42Z</time>
      </trkpt>
      <trkpt lat="47.63415" lon="6.51535">
        <ele>300.5</ele>
        <time>2025-09-13T12:48:43Z</time>
      </trkpt>
      <trkpt lat="47.63416" lon="6.51535">
        <ele>300.5</ele>
        <time>2025-09-13T12:48:44Z</time>
      </trkpt>
      <trkpt lat="47.63416" lon="6.51534">
        <ele>300.5</ele>
        <time>2025-09-13T12:48:45Z</time>
      </trkpt>
      <trkpt lat="47.63417" lon="6.51533">
        <ele>300.5</ele>
        <time>2025-09-13T12:48:46Z</time>
      </trkpt>
      <trkpt lat="47.63418" lon="6.51533">
        <ele>300.5</ele>
        <time>2025-09-13T12:48:47Z</time>
      </trkpt>
      <trkpt lat="47.63418" lon="6.51533">
        <ele>300.5</ele>
        <time>2025-09-13T12:48:48Z</time>
      </trkpt>
      <trkpt lat="47.63419" lon="6.51532">
        <ele>300.5</ele>
        <time>2025-09-13T12:48:49Z</time>
      </trkpt>
      <trkpt lat="47.63419" lon="6.51532">
        <ele>300.6</ele>
        <time>2025-09-13T12:48:50Z</time>
      </trkpt>
      <trkpt lat="47.6342" lon="6.51531">
        <ele>300.6</ele>
        <time>2025-09-13T12:48:51Z</time>
      </trkpt>
      <trkpt lat="47.6342" lon="6.51531">
        <ele>300.6</ele>
        <time>2025-09-13T12:48:52Z</time>
      </trkpt>
      <trkpt lat="47.6342" lon="6.51531">
        <ele>300.6</ele>
        <time>2025-09-13T12:48:53Z</time>
      </trkpt>
      <trkpt lat="47.6342" lon="6.51531">
        <ele>300.6</ele>
        <time>2025-09-13T12:48:54Z</time>
      </trkpt>
      <trkpt lat="47.6342" lon="6.51531">
        <ele>300.6</ele>
        <time>2025-09-13T12:48:55Z</time>
      </trkpt>
      <trkpt lat="47.6342" lon="6.51531">
        <ele>300.6</ele>
        <time>2025-09-13T12:48:56Z</time>
      </trkpt>
      <trkpt lat="47.6342" lon="6.51531">
        <ele>300.6</ele>
        <time>2025-09-13T12:48:57Z</time>
      </trkpt>
      <trkpt lat="47.6342" lon="6.51531">
        <ele>300.6</ele>
        <time>2025-09-13T12:48:58Z</time>
      </trkpt>
      <trkpt lat="47.6342" lon="6.51531">
        <ele>300.6</ele>
        <time>2025-09-13T12:48:59Z</time>
      </trkpt>
      <trkpt lat="47.6342" lon="6.51531">
        <ele>300.6</ele>
        <time>2025-09-13T12:49:00Z</time>
      </trkpt>
      <trkpt lat="47.6342" lon="6.51531">
        <ele>300.6</ele>
        <time>2025-09-13T12:49:01Z</time>
      </trkpt>
      <trkpt lat="47.6342" lon="6.51531">
        <ele>300.6</ele>
        <time>2025-09-13T12:49:02Z</time>
      </trkpt>
      <trkpt lat="47.6342" lon="6.51531">
        <ele>300.6</ele>
        <time>2025-09-13T12:49:04Z</time>
      </trkpt>
      <trkpt lat="47.6342" lon="6.51531">
        <ele>300.6</ele>
        <time>2025-09-13T12:49:05Z</time>
      </trkpt>
      <trkpt lat="47.6342" lon="6.51531">
        <ele>300.6</ele>
        <time>2025-09-13T12:49:06Z</time>
      </trkpt>
      <trkpt lat="47.6342" lon="6.51531">
        <ele>300.6</ele>
        <time>2025-09-13T12:49:07Z</time>
      </trkpt>
      <trkpt lat="47.6342" lon="6.51531">
        <ele>300.6</ele>
        <time>2025-09-13T12:49:08Z</time>
      </trkpt>
      <trkpt lat="47.6342" lon="6.51531">
        <ele>300.6</ele>
        <time>2025-09-13T12:49:09Z</time>
      </trkpt>
      <trkpt lat="47.6342" lon="6.51532">
        <ele>300.6</ele>
        <time>2025-09-13T12:49:10Z</time>
      </trkpt>
      <trkpt lat="47.6342" lon="6.51532">
        <ele>300.6</ele>
        <time>2025-09-13T12:49:11Z</time>
      </trkpt>
      <trkpt lat="47.6342" lon="6.51532">
        <ele>300.6</ele>
        <time>2025-09-13T12:49:12Z</time>
      </trkpt>
      <trkpt lat="47.6342" lon="6.51532">
        <ele>300.6</ele>
        <time>2025-09-13T12:49:13Z</time>
      </trkpt>
      <trkpt lat="47.6342" lon="6.51532">
        <ele>300.6</ele>
        <time>2025-09-13T12:49:14Z</time>
      </trkpt>
      <trkpt lat="47.6342" lon="6.51532">
        <ele>300.6</ele>
        <time>2025-09-13T12:49:15Z</time>
      </trkpt>
      <trkpt lat="47.6342" lon="6.51532">
        <ele>300.6</ele>
        <time>2025-09-13T12:49:16Z</time>
      </trkpt>
      <trkpt lat="47.6342" lon="6.51532">
        <ele>300.6</ele>
        <time>2025-09-13T12:49:17Z</time>
      </trkpt>
      <trkpt lat="47.6342" lon="6.51533">
        <ele>300.6</ele>
        <time>2025-09-13T12:49:18Z</time>
      </trkpt>
      <trkpt lat="47.6342" lon="6.51532">
        <ele>300.6</ele>
        <time>2025-09-13T12:49:19Z</time>
      </trkpt>
      <trkpt lat="47.6342" lon="6.51532">
        <ele>300.6</ele>
        <time>2025-09-13T12:49:20Z</time>
      </trkpt>
      <trkpt lat="47.63419" lon="6.51532">
        <ele>300.6</ele>
        <time>2025-09-13T12:49:21Z</time>
      </trkpt>
      <trkpt lat="47.63419" lon="6.51532">
        <ele>300.6</ele>
        <time>2025-09-13T12:49:22Z</time>
      </trkpt>
      <trkpt lat="47.63419" lon="6.51532">
        <ele>300.6</ele>
        <time>2025-09-13T12:49:23Z</time>
      </trkpt>
      <trkpt lat="47.63419" lon="6.51532">
        <ele>300.6</ele>
        <time>2025-09-13T12:49:24Z</time>
      </trkpt>
      <trkpt lat="47.63418" lon="6.51533">
        <ele>300.6</ele>
        <time>2025-09-13T12:49:25Z</time>
      </trkpt>
      <trkpt lat="47.63418" lon="6.51534">
        <ele>300.6</ele>
        <time>2025-09-13T12:49:26Z</time>
      </trkpt>
      <trkpt lat="47.63418" lon="6.51534">
        <ele>300.6</ele>
        <time>2025-09-13T12:49:27Z</time>
      </trkpt>
      <trkpt lat="47.63417" lon="6.51534">
        <ele>300.6</ele>
        <time>2025-09-13T12:49:28Z</time>
      </trkpt>
      <trkpt lat="47.63417" lon="6.51534">
        <ele>300.6</ele>
        <time>2025-09-13T12:49:29Z</time>
      </trkpt>
      <trkpt lat="47.63417" lon="6.51534">
        <ele>300.6</ele>
        <time>2025-09-13T12:49:30Z</time>
      </trkpt>
      <trkpt lat="47.63417" lon="6.51535">
        <ele>300.6</ele>
        <time>2025-09-13T12:49:31Z</time>
      </trkpt>
      <trkpt lat="47.63416" lon="6.51535">
        <ele>300.6</ele>
        <time>2025-09-13T12:49:32Z</time>
      </trkpt>
      <trkpt lat="47.63416" lon="6.51535">
        <ele>300.6</ele>
        <time>2025-09-13T12:49:33Z</time>
      </trkpt>
      <trkpt lat="47.63416" lon="6.51535">
        <ele>300.6</ele>
        <time>2025-09-13T12:49:34Z</time>
      </trkpt>
      <trkpt lat="47.63416" lon="6.51536">
        <ele>300.6</ele>
        <time>2025-09-13T12:49:35Z</time>
      </trkpt>
      <trkpt lat="47.63415" lon="6.51536">
        <ele>300.6</ele>
        <time>2025-09-13T12:49:36Z</time>
      </trkpt>
      <trkpt lat="47.63415" lon="6.51536">
        <ele>300.6</ele>
        <time>2025-09-13T12:49:37Z</time>
      </trkpt>
      <trkpt lat="47.63415" lon="6.51536">
        <ele>300.6</ele>
        <time>2025-09-13T12:49:38Z</time>
      </trkpt>
      <trkpt lat="47.63415" lon="6.51537">
        <ele>300.6</ele>
        <time>2025-09-13T12:49:39Z</time>
      </trkpt>
      <trkpt lat="47.63414" lon="6.51537">
        <ele>300.6</ele>
        <time>2025-09-13T12:49:40Z</time>
      </trkpt>
      <trkpt lat="47.63414" lon="6.51537">
        <ele>300.6</ele>
        <time>2025-09-13T12:49:41Z</time>
      </trkpt>
      <trkpt lat="47.63414" lon="6.51537">
        <ele>300.6</ele>
        <time>2025-09-13T12:49:42Z</time>
      </trkpt>
      <trkpt lat="47.63414" lon="6.51537">
        <ele>300.6</ele>
        <time>2025-09-13T12:49:43Z</time>
      </trkpt>
      <trkpt lat="47.63414" lon="6.51537">
        <ele>300.6</ele>
        <time>2025-09-13T12:49:44Z</time>
      </trkpt>
      <trkpt lat="47.63414" lon="6.51537">
        <ele>300.6</ele>
        <time>2025-09-13T12:49:45Z</time>
      </trkpt>
      <trkpt lat="47.63414" lon="6.51537">
        <ele>300.6</ele>
        <time>2025-09-13T12:49:46Z</time>
      </trkpt>
      <trkpt lat="47.63414" lon="6.51537">
        <ele>300.6</ele>
        <time>2025-09-13T12:49:47Z</time>
      </trkpt>
      <trkpt lat="47.63414" lon="6.51537">
        <ele>300.6</ele>
        <time>2025-09-13T12:49:48Z</time>
      </trkpt>
      <trkpt lat="47.63414" lon="6.51537">
        <ele>300.6</ele>
        <time>2025-09-13T12:49:49Z</time>
      </trkpt>
      <trkpt lat="47.63414" lon="6.51537">
        <ele>300.6</ele>
        <time>2025-09-13T12:49:50Z</time>
      </trkpt>
      <trkpt lat="47.63414" lon="6.51537">
        <ele>300.6</ele>
        <time>2025-09-13T12:49:51Z</time>
      </trkpt>
      <trkpt lat="47.63414" lon="6.51537">
        <ele>300.6</ele>
        <time>2025-09-13T12:49:52Z</time>
      </trkpt>
      <trkpt lat="47.63414" lon="6.51537">
        <ele>300.6</ele>
        <time>2025-09-13T12:49:53Z</time>
      </trkpt>
      <trkpt lat="47.63414" lon="6.51537">
        <ele>300.6</ele>
        <time>2025-09-13T12:49:54Z</time>
      </trkpt>
      <trkpt lat="47.63414" lon="6.51537">
        <ele>300.6</ele>
        <time>2025-09-13T12:49:55Z</time>
      </trkpt>
      <trkpt lat="47.63414" lon="6.51537">
        <ele>300.6</ele>
        <time>2025-09-13T12:49:56Z</time>
      </trkpt>
      <trkpt lat="47.63413" lon="6.5154">
        <ele>300.6</ele>
        <time>2025-09-13T12:49:57Z</time>
      </trkpt>
      <trkpt lat="47.63413" lon="6.51542">
        <ele>300.6</ele>
        <time>2025-09-13T12:49:58Z</time>
      </trkpt>
      <trkpt lat="47.63412" lon="6.51542">
        <ele>300.6</ele>
        <time>2025-09-13T12:49:59Z</time>
      </trkpt>
      <trkpt lat="47.63412" lon="6.51542">
        <ele>300.6</ele>
        <time>2025-09-13T12:50:00Z</time>
      </trkpt>
      <trkpt lat="47.63412" lon="6.51542">
        <ele>300.6</ele>
        <time>2025-09-13T12:50:01Z</time>
      </trkpt>
      <trkpt lat="47.63412" lon="6.51542">
        <ele>300.6</ele>
        <time>2025-09-13T12:50:02Z</time>
      </trkpt>
      <trkpt lat="47.63412" lon="6.51542">
        <ele>300.6</ele>
        <time>2025-09-13T12:50:03Z</time>
      </trkpt>
      <trkpt lat="47.63412" lon="6.51542">
        <ele>300.6</ele>
        <time>2025-09-13T12:50:04Z</time>
      </trkpt>
      <trkpt lat="47.63412" lon="6.51542">
        <ele>300.6</ele>
        <time>2025-09-13T12:50:05Z</time>
      </trkpt>
      <trkpt lat="47.63412" lon="6.51542">
        <ele>300.6</ele>
        <time>2025-09-13T12:50:06Z</time>
      </trkpt>
      <trkpt lat="47.63412" lon="6.51542">
        <ele>300.6</ele>
        <time>2025-09-13T12:50:07Z</time>
      </trkpt>
      <trkpt lat="47.63413" lon="6.51542">
        <ele>300.6</ele>
        <time>2025-09-13T12:50:08Z</time>
      </trkpt>
      <trkpt lat="47.63412" lon="6.51542">
        <ele>300.6</ele>
        <time>2025-09-13T12:50:09Z</time>
      </trkpt>
      <trkpt lat="47.63412" lon="6.51542">
        <ele>300.6</ele>
        <time>2025-09-13T12:50:10Z</time>
      </trkpt>
      <trkpt lat="47.63412" lon="6.51542">
        <ele>300.6</ele>
        <time>2025-09-13T12:50:11Z</time>
      </trkpt>
      <trkpt lat="47.63412" lon="6.51542">
        <ele>300.6</ele>
        <time>2025-09-13T12:50:12Z</time>
      </trkpt>
      <trkpt lat="47.63412" lon="6.51542">
        <ele>300.6</ele>
        <time>2025-09-13T12:50:13Z</time>
      </trkpt>
      <trkpt lat="47.63412" lon="6.51542">
        <ele>300.6</ele>
        <time>2025-09-13T12:50:14Z</time>
      </trkpt>
      <trkpt lat="47.63412" lon="6.51542">
        <ele>300.6</ele>
        <time>2025-09-13T12:50:15Z</time>
      </trkpt>
      <trkpt lat="47.63412" lon="6.51542">
        <ele>300.6</ele>
        <time>2025-09-13T12:50:16Z</time>
      </trkpt>
      <trkpt lat="47.63412" lon="6.51542">
        <ele>300.6</ele>
        <time>2025-09-13T12:50:17Z</time>
      </trkpt>
      <trkpt lat="47.63412" lon="6.51542">
        <ele>300.6</ele>
        <time>2025-09-13T12:50:18Z</time>
      </trkpt>
      <trkpt lat="47.63412" lon="6.51542">
        <ele>300.6</ele>
        <time>2025-09-13T12:50:19Z</time>
      </trkpt>
      <trkpt lat="47.63412" lon="6.51542">
        <ele>300.6</ele>
        <time>2025-09-13T12:50:20Z</time>
      </trkpt>
      <trkpt lat="47.63412" lon="6.51542">
        <ele>300.6</ele>
        <time>2025-09-13T12:50:21Z</time>
      </trkpt>
      <trkpt lat="47.63412" lon="6.51542">
        <ele>300.6</ele>
        <time>2025-09-13T12:50:22Z</time>
      </trkpt>
      <trkpt lat="47.63412" lon="6.51542">
        <ele>300.6</ele>
        <time>2025-09-13T12:50:23Z</time>
      </trkpt>
      <trkpt lat="47.63412" lon="6.51542">
        <ele>300.6</ele>
        <time>2025-09-13T12:50:24Z</time>
      </trkpt>
      <trkpt lat="47.63412" lon="6.51542">
        <ele>300.6</ele>
        <time>2025-09-13T12:50:25Z</time>
      </trkpt>
      <trkpt lat="47.63412" lon="6.51542">
        <ele>300.6</ele>
        <time>2025-09-13T12:50:26Z</time>
      </trkpt>
      <trkpt lat="47.63412" lon="6.51542">
        <ele>300.6</ele>
        <time>2025-09-13T12:50:27Z</time>
      </trkpt>
      <trkpt lat="47.63412" lon="6.51542">
        <ele>300.6</ele>
        <time>2025-09-13T12:50:28Z</time>
      </trkpt>
      <trkpt lat="47.63412" lon="6.51542">
        <ele>300.6</ele>
        <time>2025-09-13T12:50:29Z</time>
      </trkpt>
      <trkpt lat="47.63412" lon="6.51542">
        <ele>300.6</ele>
        <time>2025-09-13T12:50:30Z</time>
      </trkpt>
      <trkpt lat="47.63412" lon="6.51542">
        <ele>300.6</ele>
        <time>2025-09-13T12:50:31Z</time>
      </trkpt>
      <trkpt lat="47.63412" lon="6.51542">
        <ele>300.6</ele>
        <time>2025-09-13T12:50:32Z</time>
      </trkpt>
      <trkpt lat="47.63412" lon="6.51542">
        <ele>300.6</ele>
        <time>2025-09-13T12:50:33Z</time>
      </trkpt>
      <trkpt lat="47.63412" lon="6.51542">
        <ele>300.6</ele>
        <time>2025-09-13T12:50:34Z</time>
      </trkpt>
      <trkpt lat="47.63412" lon="6.51542">
        <ele>300.6</ele>
        <time>2025-09-13T12:50:35Z</time>
      </trkpt>
      <trkpt lat="47.63412" lon="6.51542">
        <ele>300.6</ele>
        <time>2025-09-13T12:50:36Z</time>
      </trkpt>
      <trkpt lat="47.63412" lon="6.51542">
        <ele>300.6</ele>
        <time>2025-09-13T12:50:37Z</time>
      </trkpt>
      <trkpt lat="47.63412" lon="6.51542">
        <ele>300.6</ele>
        <time>2025-09-13T12:50:38Z</time>
      </trkpt>
      <trkpt lat="47.63412" lon="6.51542">
        <ele>300.6</ele>
        <time>2025-09-13T12:50:39Z</time>
      </trkpt>
      <trkpt lat="47.63412" lon="6.51542">
        <ele>300.6</ele>
        <time>2025-09-13T12:50:40Z</time>
      </trkpt>
      <trkpt lat="47.63412" lon="6.51542">
        <ele>300.6</ele>
        <time>2025-09-13T12:50:41Z</time>
      </trkpt>
      <trkpt lat="47.63412" lon="6.51542">
        <ele>300.6</ele>
        <time>2025-09-13T12:50:42Z</time>
      </trkpt>
      <trkpt lat="47.63412" lon="6.51542">
        <ele>300.6</ele>
        <time>2025-09-13T12:50:43Z</time>
      </trkpt>
      <trkpt lat="47.63412" lon="6.51542">
        <ele>300.6</ele>
        <time>2025-09-13T12:50:44Z</time>
      </trkpt>
      <trkpt lat="47.63412" lon="6.51542">
        <ele>300.6</ele>
        <time>2025-09-13T12:50:45Z</time>
      </trkpt>
      <trkpt lat="47.63412" lon="6.51542">
        <ele>300.6</ele>
        <time>2025-09-13T12:50:46Z</time>
      </trkpt>
      <trkpt lat="47.63412" lon="6.51542">
        <ele>300.6</ele>
        <time>2025-09-13T12:50:47Z</time>
      </trkpt>
      <trkpt lat="47.63412" lon="6.51542">
        <ele>300.6</ele>
        <time>2025-09-13T12:50:48Z</time>
      </trkpt>
      <trkpt lat="47.63412" lon="6.51542">
        <ele>300.6</ele>
        <time>2025-09-13T12:50:49Z</time>
      </trkpt>
      <trkpt lat="47.63412" lon="6.51542">
        <ele>300.6</ele>
        <time>2025-09-13T12:50:50Z</time>
      </trkpt>
      <trkpt lat="47.63412" lon="6.51542">
        <ele>300.6</ele>
        <time>2025-09-13T12:50:51Z</time>
      </trkpt>
      <trkpt lat="47.63412" lon="6.51542">
        <ele>300.6</ele>
        <time>2025-09-13T12:50:52Z</time>
      </trkpt>
      <trkpt lat="47.63412" lon="6.51542">
        <ele>300.6</ele>
        <time>2025-09-13T12:50:53Z</time>
      </trkpt>
      <trkpt lat="47.63412" lon="6.51542">
        <ele>300.6</ele>
        <time>2025-09-13T12:50:54Z</time>
      </trkpt>
      <trkpt lat="47.63411" lon="6.51541">
        <ele>300.6</ele>
        <time>2025-09-13T12:50:55Z</time>
      </trkpt>
      <trkpt lat="47.63411" lon="6.51541">
        <ele>300.6</ele>
        <time>2025-09-13T12:50:56Z</time>
      </trkpt>
      <trkpt lat="47.63411" lon="6.51541">
        <ele>300.6</ele>
        <time>2025-09-13T12:50:58Z</time>
      </trkpt>
      <trkpt lat="47.63411" lon="6.51541">
        <ele>300.6</ele>
        <time>2025-09-13T12:50:59Z</time>
      </trkpt>
      <trkpt lat="47.63411" lon="6.51541">
        <ele>300.6</ele>
        <time>2025-09-13T12:51:00Z</time>
      </trkpt>
      <trkpt lat="47.63411" lon="6.51541">
        <ele>300.6</ele>
        <time>2025-09-13T12:51:01Z</time>
      </trkpt>
      <trkpt lat="47.63411" lon="6.51541">
        <ele>300.6</ele>
        <time>2025-09-13T12:51:02Z</time>
      </trkpt>
      <trkpt lat="47.63411" lon="6.51541">
        <ele>300.6</ele>
        <time>2025-09-13T12:51:03Z</time>
      </trkpt>
      <trkpt lat="47.63411" lon="6.51541">
        <ele>300.6</ele>
        <time>2025-09-13T12:51:04Z</time>
      </trkpt>
      <trkpt lat="47.63411" lon="6.51541">
        <ele>300.6</ele>
        <time>2025-09-13T12:51:05Z</time>
      </trkpt>
      <trkpt lat="47.63409" lon="6.51541">
        <ele>300.6</ele>
        <time>2025-09-13T12:51:06Z</time>
      </trkpt>
      <trkpt lat="47.6341" lon="6.51542">
        <ele>300.6</ele>
        <time>2025-09-13T12:51:07Z</time>
      </trkpt>
      <trkpt lat="47.6341" lon="6.51542">
        <ele>300.6</ele>
        <time>2025-09-13T12:51:08Z</time>
      </trkpt>
      <trkpt lat="47.6341" lon="6.51542">
        <ele>300.6</ele>
        <time>2025-09-13T12:51:09Z</time>
      </trkpt>
      <trkpt lat="47.6341" lon="6.51542">
        <ele>300.6</ele>
        <time>2025-09-13T12:51:10Z</time>
      </trkpt>
      <trkpt lat="47.63411" lon="6.51542">
        <ele>300.6</ele>
        <time>2025-09-13T12:51:11Z</time>
      </trkpt>
      <trkpt lat="47.63411" lon="6.51541">
        <ele>300.6</ele>
        <time>2025-09-13T12:51:12Z</time>
      </trkpt>
      <trkpt lat="47.63411" lon="6.51541">
        <ele>300.6</ele>
        <time>2025-09-13T12:51:13Z</time>
      </trkpt>
      <trkpt lat="47.63411" lon="6.51541">
        <ele>300.6</ele>
        <time>2025-09-13T12:51:14Z</time>
      </trkpt>
      <trkpt lat="47.63411" lon="6.51541">
        <ele>300.6</ele>
        <time>2025-09-13T12:51:15Z</time>
      </trkpt>
      <trkpt lat="47.63411" lon="6.51541">
        <ele>300.6</ele>
        <time>2025-09-13T12:51:16Z</time>
      </trkpt>
      <trkpt lat="47.63412" lon="6.51541">
        <ele>300.6</ele>
        <time>2025-09-13T12:51:17Z</time>
      </trkpt>
      <trkpt lat="47.63412" lon="6.51541">
        <ele>300.6</ele>
        <time>2025-09-13T12:51:18Z</time>
      </trkpt>
      <trkpt lat="47.63412" lon="6.51541">
        <ele>300.6</ele>
        <time>2025-09-13T12:51:19Z</time>
      </trkpt>
      <trkpt lat="47.63412" lon="6.5154">
        <ele>300.6</ele>
        <time>2025-09-13T12:51:20Z</time>
      </trkpt>
      <trkpt lat="47.63412" lon="6.5154">
        <ele>300.6</ele>
        <time>2025-09-13T12:51:21Z</time>
      </trkpt>
      <trkpt lat="47.63412" lon="6.5154">
        <ele>300.6</ele>
        <time>2025-09-13T12:51:22Z</time>
      </trkpt>
      <trkpt lat="47.63413" lon="6.5154">
        <ele>300.6</ele>
        <time>2025-09-13T12:51:23Z</time>
      </trkpt>
      <trkpt lat="47.63413" lon="6.5154">
        <ele>300.6</ele>
        <time>2025-09-13T12:51:24Z</time>
      </trkpt>
      <trkpt lat="47.63413" lon="6.5154">
        <ele>300.6</ele>
        <time>2025-09-13T12:51:25Z</time>
      </trkpt>
      <trkpt lat="47.63413" lon="6.5154">
        <ele>300.6</ele>
        <time>2025-09-13T12:51:26Z</time>
      </trkpt>
      <trkpt lat="47.63413" lon="6.5154">
        <ele>300.6</ele>
        <time>2025-09-13T12:51:27Z</time>
      </trkpt>
      <trkpt lat="47.63413" lon="6.5154">
        <ele>300.6</ele>
        <time>2025-09-13T12:51:28Z</time>
      </trkpt>
      <trkpt lat="47.63413" lon="6.51539">
        <ele>300.6</ele>
        <time>2025-09-13T12:51:29Z</time>
      </trkpt>
      <trkpt lat="47.63413" lon="6.51539">
        <ele>300.6</ele>
        <time>2025-09-13T12:51:30Z</time>
      </trkpt>
      <trkpt lat="47.63413" lon="6.51539">
        <ele>300.6</ele>
        <time>2025-09-13T12:51:31Z</time>
      </trkpt>
      <trkpt lat="47.63413" lon="6.51539">
        <ele>300.6</ele>
        <time>2025-09-13T12:51:32Z</time>
      </trkpt>
      <trkpt lat="47.63413" lon="6.51539">
        <ele>300.6</ele>
        <time>2025-09-13T12:51:33Z</time>
      </trkpt>
      <trkpt lat="47.63413" lon="6.51539">
        <ele>300.6</ele>
        <time>2025-09-13T12:51:34Z</time>
      </trkpt>
      <trkpt lat="47.63413" lon="6.51539">
        <ele>300.6</ele>
        <time>2025-09-13T12:51:35Z</time>
      </trkpt>
      <trkpt lat="47.63414" lon="6.51542">
        <ele>300.6</ele>
        <time>2025-09-13T12:51:36Z</time>
      </trkpt>
      <trkpt lat="47.63414" lon="6.51542">
        <ele>300.7</ele>
        <time>2025-09-13T12:51:37Z</time>
      </trkpt>
      <trkpt lat="47.63414" lon="6.51542">
        <ele>300.7</ele>
        <time>2025-09-13T12:51:38Z</time>
      </trkpt>
      <trkpt lat="47.63414" lon="6.51542">
        <ele>300.7</ele>
        <time>2025-09-13T12:51:39Z</time>
      </trkpt>
      <trkpt lat="47.63414" lon="6.51542">
        <ele>300.7</ele>
        <time>2025-09-13T12:51:40Z</time>
      </trkpt>
      <trkpt lat="47.63415" lon="6.5154">
        <ele>300.7</ele>
        <time>2025-09-13T12:51:41Z</time>
      </trkpt>
      <trkpt lat="47.63415" lon="6.5154">
        <ele>300.7</ele>
        <time>2025-09-13T12:51:42Z</time>
      </trkpt>
      <trkpt lat="47.63415" lon="6.5154">
        <ele>300.7</ele>
        <time>2025-09-13T12:51:43Z</time>
      </trkpt>
      <trkpt lat="47.63415" lon="6.5154">
        <ele>300.7</ele>
        <time>2025-09-13T12:51:44Z</time>
      </trkpt>
      <trkpt lat="47.63415" lon="6.5154">
        <ele>300.7</ele>
        <time>2025-09-13T12:51:45Z</time>
      </trkpt>
      <trkpt lat="47.63415" lon="6.5154">
        <ele>300.7</ele>
        <time>2025-09-13T12:51:46Z</time>
      </trkpt>
      <trkpt lat="47.63415" lon="6.5154">
        <ele>300.7</ele>
        <time>2025-09-13T12:51:47Z</time>
      </trkpt>
      <trkpt lat="47.63415" lon="6.5154">
        <ele>300.7</ele>
        <time>2025-09-13T12:51:48Z</time>
      </trkpt>
      <trkpt lat="47.63416" lon="6.51539">
        <ele>300.7</ele>
        <time>2025-09-13T12:51:49Z</time>
      </trkpt>
      <trkpt lat="47.63416" lon="6.51539">
        <ele>300.7</ele>
        <time>2025-09-13T12:51:50Z</time>
      </trkpt>
      <trkpt lat="47.63416" lon="6.51539">
        <ele>300.7</ele>
        <time>2025-09-13T12:51:51Z</time>
      </trkpt>
      <trkpt lat="47.63416" lon="6.51539">
        <ele>300.7</ele>
        <time>2025-09-13T12:51:52Z</time>
      </trkpt>
      <trkpt lat="47.63416" lon="6.51539">
        <ele>300.7</ele>
        <time>2025-09-13T12:51:53Z</time>
      </trkpt>
      <trkpt lat="47.63416" lon="6.51539">
        <ele>300.7</ele>
        <time>2025-09-13T12:51:54Z</time>
      </trkpt>
      <trkpt lat="47.63416" lon="6.51539">
        <ele>300.7</ele>
        <time>2025-09-13T12:51:55Z</time>
      </trkpt>
      <trkpt lat="47.63416" lon="6.51539">
        <ele>300.7</ele>
        <time>2025-09-13T12:51:56Z</time>
      </trkpt>
      <trkpt lat="47.63415" lon="6.51539">
        <ele>300.7</ele>
        <time>2025-09-13T12:51:57Z</time>
      </trkpt>
      <trkpt lat="47.63415" lon="6.51539">
        <ele>300.7</ele>
        <time>2025-09-13T12:51:58Z</time>
      </trkpt>
      <trkpt lat="47.63415" lon="6.51539">
        <ele>300.7</ele>
        <time>2025-09-13T12:51:59Z</time>
      </trkpt>
      <trkpt lat="47.63415" lon="6.51539">
        <ele>300.7</ele>
        <time>2025-09-13T12:52:00Z</time>
      </trkpt>
      <trkpt lat="47.63415" lon="6.51539">
        <ele>300.7</ele>
        <time>2025-09-13T12:52:01Z</time>
      </trkpt>
      <trkpt lat="47.63415" lon="6.51539">
        <ele>300.7</ele>
        <time>2025-09-13T12:52:02Z</time>
      </trkpt>
      <trkpt lat="47.63415" lon="6.51539">
        <ele>300.7</ele>
        <time>2025-09-13T12:52:03Z</time>
      </trkpt>
      <trkpt lat="47.63415" lon="6.51539">
        <ele>300.7</ele>
        <time>2025-09-13T12:52:04Z</time>
      </trkpt>
      <trkpt lat="47.63415" lon="6.51539">
        <ele>300.7</ele>
        <time>2025-09-13T12:52:05Z</time>
      </trkpt>
      <trkpt lat="47.63415" lon="6.51539">
        <ele>300.7</ele>
        <time>2025-09-13T12:52:06Z</time>
      </trkpt>
      <trkpt lat="47.63415" lon="6.51539">
        <ele>300.7</ele>
        <time>2025-09-13T12:52:07Z</time>
      </trkpt>
      <trkpt lat="47.63414" lon="6.51539">
        <ele>300.7</ele>
        <time>2025-09-13T12:52:08Z</time>
      </trkpt>
      <trkpt lat="47.63414" lon="6.51539">
        <ele>300.7</ele>
        <time>2025-09-13T12:52:09Z</time>
      </trkpt>
      <trkpt lat="47.63414" lon="6.51539">
        <ele>300.7</ele>
        <time>2025-09-13T12:52:10Z</time>
      </trkpt>
      <trkpt lat="47.63414" lon="6.51539">
        <ele>300.7</ele>
        <time>2025-09-13T12:52:11Z</time>
      </trkpt>
      <trkpt lat="47.63414" lon="6.51539">
        <ele>300.7</ele>
        <time>2025-09-13T12:52:12Z</time>
      </trkpt>
      <trkpt lat="47.63414" lon="6.51539">
        <ele>300.7</ele>
        <time>2025-09-13T12:52:13Z</time>
      </trkpt>
      <trkpt lat="47.63414" lon="6.51539">
        <ele>300.7</ele>
        <time>2025-09-13T12:52:14Z</time>
      </trkpt>
      <trkpt lat="47.63414" lon="6.51539">
        <ele>300.7</ele>
        <time>2025-09-13T12:52:15Z</time>
      </trkpt>
      <trkpt lat="47.63414" lon="6.51539">
        <ele>300.7</ele>
        <time>2025-09-13T12:52:16Z</time>
      </trkpt>
      <trkpt lat="47.63414" lon="6.51539">
        <ele>300.7</ele>
        <time>2025-09-13T12:52:17Z</time>
      </trkpt>
      <trkpt lat="47.63414" lon="6.51539">
        <ele>300.7</ele>
        <time>2025-09-13T12:52:18Z</time>
      </trkpt>
      <trkpt lat="47.63414" lon="6.51539">
        <ele>300.7</ele>
        <time>2025-09-13T12:52:19Z</time>
      </trkpt>
      <trkpt lat="47.63413" lon="6.51539">
        <ele>300.7</ele>
        <time>2025-09-13T12:52:20Z</time>
      </trkpt>
      <trkpt lat="47.63413" lon="6.51539">
        <ele>300.7</ele>
        <time>2025-09-13T12:52:21Z</time>
      </trkpt>
      <trkpt lat="47.63413" lon="6.51538">
        <ele>300.7</ele>
        <time>2025-09-13T12:52:22Z</time>
      </trkpt>
      <trkpt lat="47.63413" lon="6.51538">
        <ele>300.7</ele>
        <time>2025-09-13T12:52:23Z</time>
      </trkpt>
      <trkpt lat="47.63413" lon="6.51538">
        <ele>300.7</ele>
        <time>2025-09-13T12:52:24Z</time>
      </trkpt>
      <trkpt lat="47.63413" lon="6.51538">
        <ele>300.7</ele>
        <time>2025-09-13T12:52:25Z</time>
      </trkpt>
      <trkpt lat="47.63413" lon="6.51538">
        <ele>300.7</ele>
        <time>2025-09-13T12:52:26Z</time>
      </trkpt>
      <trkpt lat="47.63413" lon="6.51538">
        <ele>300.7</ele>
        <time>2025-09-13T12:52:27Z</time>
      </trkpt>
      <trkpt lat="47.63413" lon="6.51538">
        <ele>300.7</ele>
        <time>2025-09-13T12:52:28Z</time>
      </trkpt>
      <trkpt lat="47.63413" lon="6.51538">
        <ele>300.7</ele>
        <time>2025-09-13T12:52:29Z</time>
      </trkpt>
      <trkpt lat="47.63413" lon="6.51538">
        <ele>300.7</ele>
        <time>2025-09-13T12:52:30Z</time>
      </trkpt>
      <trkpt lat="47.63412" lon="6.51538">
        <ele>300.7</ele>
        <time>2025-09-13T12:52:31Z</time>
      </trkpt>
      <trkpt lat="47.63412" lon="6.51538">
        <ele>300.7</ele>
        <time>2025-09-13T12:52:33Z</time>
      </trkpt>
      <trkpt lat="47.63412" lon="6.51538">
        <ele>300.7</ele>
        <time>2025-09-13T12:52:34Z</time>
      </trkpt>
      <trkpt lat="47.63412" lon="6.51538">
        <ele>300.7</ele>
        <time>2025-09-13T12:52:35Z</time>
      </trkpt>
      <trkpt lat="47.63412" lon="6.51538">
        <ele>300.7</ele>
        <time>2025-09-13T12:52:36Z</time>
      </trkpt>
      <trkpt lat="47.63413" lon="6.51538">
        <ele>300.7</ele>
        <time>2025-09-13T12:52:37Z</time>
      </trkpt>
      <trkpt lat="47.63413" lon="6.51538">
        <ele>300.7</ele>
        <time>2025-09-13T12:52:38Z</time>
      </trkpt>
      <trkpt lat="47.63413" lon="6.51537">
        <ele>300.7</ele>
        <time>2025-09-13T12:52:39Z</time>
      </trkpt>
      <trkpt lat="47.63414" lon="6.51537">
        <ele>300.7</ele>
        <time>2025-09-13T12:52:40Z</time>
      </trkpt>
      <trkpt lat="47.63414" lon="6.51537">
        <ele>300.7</ele>
        <time>2025-09-13T12:52:41Z</time>
      </trkpt>
      <trkpt lat="47.63414" lon="6.51537">
        <ele>300.7</ele>
        <time>2025-09-13T12:52:42Z</time>
      </trkpt>
      <trkpt lat="47.63415" lon="6.51536">
        <ele>300.7</ele>
        <time>2025-09-13T12:52:43Z</time>
      </trkpt>
      <trkpt lat="47.63415" lon="6.51536">
        <ele>300.7</ele>
        <time>2025-09-13T12:52:44Z</time>
      </trkpt>
      <trkpt lat="47.63415" lon="6.51536">
        <ele>300.7</ele>
        <time>2025-09-13T12:52:45Z</time>
      </trkpt>
      <trkpt lat="47.63416" lon="6.51535">
        <ele>300.7</ele>
        <time>2025-09-13T12:52:46Z</time>
      </trkpt>
      <trkpt lat="47.63418" lon="6.51536">
        <ele>300.7</ele>
        <time>2025-09-13T12:52:47Z</time>
      </trkpt>
      <trkpt lat="47.63417" lon="6.51536">
        <ele>300.7</ele>
        <time>2025-09-13T12:52:48Z</time>
      </trkpt>
      <trkpt lat="47.63418" lon="6.51537">
        <ele>300.7</ele>
        <time>2025-09-13T12:52:49Z</time>
      </trkpt>
      <trkpt lat="47.63418" lon="6.51537">
        <ele>300.7</ele>
        <time>2025-09-13T12:52:50Z</time>
      </trkpt>
      <trkpt lat="47.63418" lon="6.51537">
        <ele>300.7</ele>
        <time>2025-09-13T12:52:51Z</time>
      </trkpt>
      <trkpt lat="47.63418" lon="6.51537">
        <ele>300.7</ele>
        <time>2025-09-13T12:52:52Z</time>
      </trkpt>
      <trkpt lat="47.63419" lon="6.51537">
        <ele>300.7</ele>
        <time>2025-09-13T12:52:53Z</time>
      </trkpt>
      <trkpt lat="47.63419" lon="6.51537">
        <ele>300.7</ele>
        <time>2025-09-13T12:52:54Z</time>
      </trkpt>
      <trkpt lat="47.63419" lon="6.51536">
        <ele>300.7</ele>
        <time>2025-09-13T12:52:55Z</time>
      </trkpt>
      <trkpt lat="47.63419" lon="6.51536">
        <ele>300.7</ele>
        <time>2025-09-13T12:52:56Z</time>
      </trkpt>
      <trkpt lat="47.63419" lon="6.51536">
        <ele>300.7</ele>
        <time>2025-09-13T12:52:57Z</time>
      </trkpt>
      <trkpt lat="47.63419" lon="6.51536">
        <ele>300.7</ele>
        <time>2025-09-13T12:52:58Z</time>
      </trkpt>
      <trkpt lat="47.6342" lon="6.51536">
        <ele>300.7</ele>
        <time>2025-09-13T12:52:59Z</time>
      </trkpt>
      <trkpt lat="47.6342" lon="6.51536">
        <ele>300.7</ele>
        <time>2025-09-13T12:53:00Z</time>
      </trkpt>
      <trkpt lat="47.6342" lon="6.51536">
        <ele>300.7</ele>
        <time>2025-09-13T12:53:01Z</time>
      </trkpt>
      <trkpt lat="47.6342" lon="6.51536">
        <ele>300.7</ele>
        <time>2025-09-13T12:53:02Z</time>
      </trkpt>
      <trkpt lat="47.6342" lon="6.51536">
        <ele>300.7</ele>
        <time>2025-09-13T12:53:03Z</time>
      </trkpt>
      <trkpt lat="47.63421" lon="6.51536">
        <ele>300.8</ele>
        <time>2025-09-13T12:53:04Z</time>
      </trkpt>
      <trkpt lat="47.63421" lon="6.51536">
        <ele>300.8</ele>
        <time>2025-09-13T12:53:05Z</time>
      </trkpt>
      <trkpt lat="47.63421" lon="6.51536">
        <ele>300.8</ele>
        <time>2025-09-13T12:53:06Z</time>
      </trkpt>
      <trkpt lat="47.63421" lon="6.51535">
        <ele>300.8</ele>
        <time>2025-09-13T12:53:07Z</time>
      </trkpt>
      <trkpt lat="47.63421" lon="6.51535">
        <ele>300.8</ele>
        <time>2025-09-13T12:53:08Z</time>
      </trkpt>
      <trkpt lat="47.63421" lon="6.51535">
        <ele>300.8</ele>
        <time>2025-09-13T12:53:09Z</time>
      </trkpt>
      <trkpt lat="47.63422" lon="6.51535">
        <ele>300.8</ele>
        <time>2025-09-13T12:53:10Z</time>
      </trkpt>
      <trkpt lat="47.63422" lon="6.51535">
        <ele>300.8</ele>
        <time>2025-09-13T12:53:11Z</time>
      </trkpt>
      <trkpt lat="47.63422" lon="6.51535">
        <ele>300.8</ele>
        <time>2025-09-13T12:53:12Z</time>
      </trkpt>
      <trkpt lat="47.63422" lon="6.51535">
        <ele>300.8</ele>
        <time>2025-09-13T12:53:13Z</time>
      </trkpt>
      <trkpt lat="47.63422" lon="6.51534">
        <ele>300.8</ele>
        <time>2025-09-13T12:53:14Z</time>
      </trkpt>
      <trkpt lat="47.63423" lon="6.51532">
        <ele>300.8</ele>
        <time>2025-09-13T12:53:15Z</time>
      </trkpt>
      <trkpt lat="47.63423" lon="6.51532">
        <ele>300.8</ele>
        <time>2025-09-13T12:53:16Z</time>
      </trkpt>
      <trkpt lat="47.63422" lon="6.51531">
        <ele>300.8</ele>
        <time>2025-09-13T12:53:17Z</time>
      </trkpt>
      <trkpt lat="47.63422" lon="6.51531">
        <ele>300.8</ele>
        <time>2025-09-13T12:53:18Z</time>
      </trkpt>
      <trkpt lat="47.63424" lon="6.51527">
        <ele>300.8</ele>
        <time>2025-09-13T12:53:19Z</time>
      </trkpt>
      <trkpt lat="47.63427" lon="6.51524">
        <ele>300.8</ele>
        <time>2025-09-13T12:53:20Z</time>
      </trkpt>
      <trkpt lat="47.63428" lon="6.51522">
        <ele>300.8</ele>
        <time>2025-09-13T12:53:21Z</time>
      </trkpt>
      <trkpt lat="47.63432" lon="6.51519">
        <ele>300.8</ele>
        <time>2025-09-13T12:53:22Z</time>
      </trkpt>
      <trkpt lat="47.63432" lon="6.51518">
        <ele>300.8</ele>
        <time>2025-09-13T12:53:23Z</time>
      </trkpt>
      <trkpt lat="47.63435" lon="6.51515">
        <ele>300.9</ele>
        <time>2025-09-13T12:53:24Z</time>
      </trkpt>
      <trkpt lat="47.63437" lon="6.51514">
        <ele>300.9</ele>
        <time>2025-09-13T12:53:25Z</time>
      </trkpt>
      <trkpt lat="47.63439" lon="6.51509">
        <ele>300.9</ele>
        <time>2025-09-13T12:53:26Z</time>
      </trkpt>
      <trkpt lat="47.6344" lon="6.51508">
        <ele>300.9</ele>
        <time>2025-09-13T12:53:27Z</time>
      </trkpt>
      <trkpt lat="47.63443" lon="6.51506">
        <ele>300.9</ele>
        <time>2025-09-13T12:53:28Z</time>
      </trkpt>
      <trkpt lat="47.63446" lon="6.51503">
        <ele>300.9</ele>
        <time>2025-09-13T12:53:29Z</time>
      </trkpt>
      <trkpt lat="47.63447" lon="6.51501">
        <ele>300.9</ele>
        <time>2025-09-13T12:53:30Z</time>
      </trkpt>
      <trkpt lat="47.6345" lon="6.51498">
        <ele>300.9</ele>
        <time>2025-09-13T12:53:31Z</time>
      </trkpt>
      <trkpt lat="47.63451" lon="6.51497">
        <ele>300.9</ele>
        <time>2025-09-13T12:53:32Z</time>
      </trkpt>
      <trkpt lat="47.63454" lon="6.51493">
        <ele>301</ele>
        <time>2025-09-13T12:53:33Z</time>
      </trkpt>
      <trkpt lat="47.63456" lon="6.5149">
        <ele>301</ele>
        <time>2025-09-13T12:53:34Z</time>
      </trkpt>
      <trkpt lat="47.63458" lon="6.51486">
        <ele>301</ele>
        <time>2025-09-13T12:53:35Z</time>
      </trkpt>
      <trkpt lat="47.63461" lon="6.51483">
        <ele>301</ele>
        <time>2025-09-13T12:53:36Z</time>
      </trkpt>
      <trkpt lat="47.63463" lon="6.51479">
        <ele>301</ele>
        <time>2025-09-13T12:53:37Z</time>
      </trkpt>
      <trkpt lat="47.63466" lon="6.51476">
        <ele>301.1</ele>
        <time>2025-09-13T12:53:38Z</time>
      </trkpt>
      <trkpt lat="47.63469" lon="6.51474">
        <ele>301.1</ele>
        <time>2025-09-13T12:53:39Z</time>
      </trkpt>
      <trkpt lat="47.63472" lon="6.51472">
        <ele>301.1</ele>
        <time>2025-09-13T12:53:40Z</time>
      </trkpt>
      <trkpt lat="47.63476" lon="6.51469">
        <ele>301.1</ele>
        <time>2025-09-13T12:53:41Z</time>
      </trkpt>
      <trkpt lat="47.63479" lon="6.51465">
        <ele>301.1</ele>
        <time>2025-09-13T12:53:42Z</time>
      </trkpt>
      <trkpt lat="47.63481" lon="6.51462">
        <ele>301.1</ele>
        <time>2025-09-13T12:53:43Z</time>
      </trkpt>
      <trkpt lat="47.63483" lon="6.51459">
        <ele>301.1</ele>
        <time>2025-09-13T12:53:44Z</time>
      </trkpt>
      <trkpt lat="47.63486" lon="6.51457">
        <ele>301.1</ele>
        <time>2025-09-13T12:53:45Z</time>
      </trkpt>
      <trkpt lat="47.63489" lon="6.51455">
        <ele>301.1</ele>
        <time>2025-09-13T12:53:46Z</time>
      </trkpt>
      <trkpt lat="47.63491" lon="6.51452">
        <ele>301.1</ele>
        <time>2025-09-13T12:53:47Z</time>
      </trkpt>
      <trkpt lat="47.63493" lon="6.51448">
        <ele>301.1</ele>
        <time>2025-09-13T12:53:48Z</time>
      </trkpt>
      <trkpt lat="47.63497" lon="6.51446">
        <ele>301.2</ele>
        <time>2025-09-13T12:53:49Z</time>
      </trkpt>
      <trkpt lat="47.635" lon="6.51442">
        <ele>301.2</ele>
        <time>2025-09-13T12:53:50Z</time>
      </trkpt>
      <trkpt lat="47.63502" lon="6.5144">
        <ele>301.2</ele>
        <time>2025-09-13T12:53:51Z</time>
      </trkpt>
      <trkpt lat="47.63505" lon="6.51437">
        <ele>301.2</ele>
        <time>2025-09-13T12:53:52Z</time>
      </trkpt>
      <trkpt lat="47.63508" lon="6.51435">
        <ele>301.3</ele>
        <time>2025-09-13T12:53:53Z</time>
      </trkpt>
      <trkpt lat="47.63511" lon="6.51431">
        <ele>301.3</ele>
        <time>2025-09-13T12:53:54Z</time>
      </trkpt>
      <trkpt lat="47.63515" lon="6.51427">
        <ele>301.4</ele>
        <time>2025-09-13T12:53:55Z</time>
      </trkpt>
      <trkpt lat="47.63518" lon="6.51424">
        <ele>301.4</ele>
        <time>2025-09-13T12:53:56Z</time>
      </trkpt>
      <trkpt lat="47.63521" lon="6.51421">
        <ele>301.5</ele>
        <time>2025-09-13T12:53:57Z</time>
      </trkpt>
      <trkpt lat="47.63527" lon="6.51414">
        <ele>301.6</ele>
        <time>2025-09-13T12:53:58Z</time>
      </trkpt>
      <trkpt lat="47.6353" lon="6.51409">
        <ele>301.7</ele>
        <time>2025-09-13T12:53:59Z</time>
      </trkpt>
      <trkpt lat="47.63534" lon="6.51406">
        <ele>301.8</ele>
        <time>2025-09-13T12:54:00Z</time>
      </trkpt>
      <trkpt lat="47.63537" lon="6.51402">
        <ele>301.8</ele>
        <time>2025-09-13T12:54:01Z</time>
      </trkpt>
      <trkpt lat="47.63541" lon="6.51399">
        <ele>301.9</ele>
        <time>2025-09-13T12:54:02Z</time>
      </trkpt>
      <trkpt lat="47.63545" lon="6.51396">
        <ele>302</ele>
        <time>2025-09-13T12:54:03Z</time>
      </trkpt>
      <trkpt lat="47.63548" lon="6.51392">
        <ele>302</ele>
        <time>2025-09-13T12:54:04Z</time>
      </trkpt>
      <trkpt lat="47.63552" lon="6.51386">
        <ele>302.1</ele>
        <time>2025-09-13T12:54:05Z</time>
      </trkpt>
      <trkpt lat="47.63556" lon="6.51383">
        <ele>302.1</ele>
        <time>2025-09-13T12:54:06Z</time>
      </trkpt>
      <trkpt lat="47.6356" lon="6.51379">
        <ele>302.2</ele>
        <time>2025-09-13T12:54:07Z</time>
      </trkpt>
      <trkpt lat="47.63563" lon="6.51376">
        <ele>302.2</ele>
        <time>2025-09-13T12:54:08Z</time>
      </trkpt>
      <trkpt lat="47.63566" lon="6.51372">
        <ele>302.2</ele>
        <time>2025-09-13T12:54:09Z</time>
      </trkpt>
      <trkpt lat="47.6357" lon="6.51368">
        <ele>302.3</ele>
        <time>2025-09-13T12:54:10Z</time>
      </trkpt>
      <trkpt lat="47.63574" lon="6.51365">
        <ele>302.3</ele>
        <time>2025-09-13T12:54:11Z</time>
      </trkpt>
      <trkpt lat="47.63579" lon="6.5136">
        <ele>302.3</ele>
        <time>2025-09-13T12:54:12Z</time>
      </trkpt>
      <trkpt lat="47.63583" lon="6.51356">
        <ele>302.3</ele>
        <time>2025-09-13T12:54:13Z</time>
      </trkpt>
      <trkpt lat="47.63587" lon="6.51352">
        <ele>302.3</ele>
        <time>2025-09-13T12:54:14Z</time>
      </trkpt>
      <trkpt lat="47.63591" lon="6.51348">
        <ele>302.2</ele>
        <time>2025-09-13T12:54:15Z</time>
      </trkpt>
      <trkpt lat="47.63596" lon="6.51344">
        <ele>302.2</ele>
        <time>2025-09-13T12:54:16Z</time>
      </trkpt>
      <trkpt lat="47.63602" lon="6.51344">
        <ele>302.1</ele>
        <time>2025-09-13T12:54:17Z</time>
      </trkpt>
      <trkpt lat="47.63608" lon="6.51343">
        <ele>302</ele>
        <time>2025-09-13T12:54:18Z</time>
      </trkpt>
      <trkpt lat="47.63613" lon="6.5134">
        <ele>301.9</ele>
        <time>2025-09-13T12:54:19Z</time>
      </trkpt>
      <trkpt lat="47.63617" lon="6.51337">
        <ele>301.9</ele>
        <time>2025-09-13T12:54:20Z</time>
      </trkpt>
      <trkpt lat="47.63622" lon="6.51332">
        <ele>301.8</ele>
        <time>2025-09-13T12:54:21Z</time>
      </trkpt>
      <trkpt lat="47.63627" lon="6.5133">
        <ele>301.7</ele>
        <time>2025-09-13T12:54:22Z</time>
      </trkpt>
      <trkpt lat="47.63632" lon="6.51325">
        <ele>301.6</ele>
        <time>2025-09-13T12:54:23Z</time>
      </trkpt>
      <trkpt lat="47.63637" lon="6.5132">
        <ele>301.5</ele>
        <time>2025-09-13T12:54:24Z</time>
      </trkpt>
      <trkpt lat="47.63641" lon="6.51315">
        <ele>301.4</ele>
        <time>2025-09-13T12:54:25Z</time>
      </trkpt>
      <trkpt lat="47.63647" lon="6.51312">
        <ele>301.3</ele>
        <time>2025-09-13T12:54:26Z</time>
      </trkpt>
      <trkpt lat="47.63651" lon="6.51306">
        <ele>301.2</ele>
        <time>2025-09-13T12:54:27Z</time>
      </trkpt>
      <trkpt lat="47.63656" lon="6.51299">
        <ele>301</ele>
        <time>2025-09-13T12:54:28Z</time>
      </trkpt>
      <trkpt lat="47.6366" lon="6.51292">
        <ele>300.9</ele>
        <time>2025-09-13T12:54:29Z</time>
      </trkpt>
      <trkpt lat="47.63664" lon="6.51286">
        <ele>300.7</ele>
        <time>2025-09-13T12:54:30Z</time>
      </trkpt>
      <trkpt lat="47.63669" lon="6.51282">
        <ele>300.6</ele>
        <time>2025-09-13T12:54:31Z</time>
      </trkpt>
      <trkpt lat="47.63674" lon="6.51276">
        <ele>300.4</ele>
        <time>2025-09-13T12:54:32Z</time>
      </trkpt>
      <trkpt lat="47.63678" lon="6.5127">
        <ele>300.3</ele>
        <time>2025-09-13T12:54:33Z</time>
      </trkpt>
      <trkpt lat="47.63685" lon="6.51264">
        <ele>300.1</ele>
        <time>2025-09-13T12:54:34Z</time>
      </trkpt>
      <trkpt lat="47.6369" lon="6.51257">
        <ele>300</ele>
        <time>2025-09-13T12:54:35Z</time>
      </trkpt>
      <trkpt lat="47.63695" lon="6.51251">
        <ele>299.9</ele>
        <time>2025-09-13T12:54:36Z</time>
      </trkpt>
      <trkpt lat="47.63699" lon="6.51244">
        <ele>299.8</ele>
        <time>2025-09-13T12:54:37Z</time>
      </trkpt>
      <trkpt lat="47.63703" lon="6.51238">
        <ele>299.7</ele>
        <time>2025-09-13T12:54:38Z</time>
      </trkpt>
      <trkpt lat="47.63708" lon="6.51232">
        <ele>299.7</ele>
        <time>2025-09-13T12:54:39Z</time>
      </trkpt>
      <trkpt lat="47.63712" lon="6.51226">
        <ele>299.6</ele>
        <time>2025-09-13T12:54:40Z</time>
      </trkpt>
      <trkpt lat="47.63717" lon="6.51219">
        <ele>299.6</ele>
        <time>2025-09-13T12:54:41Z</time>
      </trkpt>
      <trkpt lat="47.63721" lon="6.51212">
        <ele>299.7</ele>
        <time>2025-09-13T12:54:42Z</time>
      </trkpt>
      <trkpt lat="47.63725" lon="6.51205">
        <ele>299.7</ele>
        <time>2025-09-13T12:54:43Z</time>
      </trkpt>
      <trkpt lat="47.6373" lon="6.51201">
        <ele>299.8</ele>
        <time>2025-09-13T12:54:44Z</time>
      </trkpt>
      <trkpt lat="47.63733" lon="6.51195">
        <ele>299.8</ele>
        <time>2025-09-13T12:54:45Z</time>
      </trkpt>
      <trkpt lat="47.63737" lon="6.51189">
        <ele>299.9</ele>
        <time>2025-09-13T12:54:47Z</time>
      </trkpt>
      <trkpt lat="47.63742" lon="6.51183">
        <ele>300</ele>
        <time>2025-09-13T12:54:48Z</time>
      </trkpt>
      <trkpt lat="47.63746" lon="6.51177">
        <ele>300.1</ele>
        <time>2025-09-13T12:54:49Z</time>
      </trkpt>
      <trkpt lat="47.6375" lon="6.51171">
        <ele>300.3</ele>
        <time>2025-09-13T12:54:50Z</time>
      </trkpt>
      <trkpt lat="47.63754" lon="6.51166">
        <ele>300.4</ele>
        <time>2025-09-13T12:54:51Z</time>
      </trkpt>
      <trkpt lat="47.63758" lon="6.5116">
        <ele>300.6</ele>
        <time>2025-09-13T12:54:52Z</time>
      </trkpt>
      <trkpt lat="47.63761" lon="6.51152">
        <ele>300.7</ele>
        <time>2025-09-13T12:54:53Z</time>
      </trkpt>
      <trkpt lat="47.63765" lon="6.51147">
        <ele>300.9</ele>
        <time>2025-09-13T12:54:54Z</time>
      </trkpt>
      <trkpt lat="47.63769" lon="6.5114">
        <ele>301.1</ele>
        <time>2025-09-13T12:54:55Z</time>
      </trkpt>
      <trkpt lat="47.63773" lon="6.51135">
        <ele>301.2</ele>
        <time>2025-09-13T12:54:56Z</time>
      </trkpt>
      <trkpt lat="47.63776" lon="6.51129">
        <ele>301.4</ele>
        <time>2025-09-13T12:54:57Z</time>
      </trkpt>
      <trkpt lat="47.63779" lon="6.51123">
        <ele>301.5</ele>
        <time>2025-09-13T12:54:58Z</time>
      </trkpt>
      <trkpt lat="47.63784" lon="6.51116">
        <ele>301.7</ele>
        <time>2025-09-13T12:54:59Z</time>
      </trkpt>
      <trkpt lat="47.63787" lon="6.51111">
        <ele>301.8</ele>
        <time>2025-09-13T12:55:00Z</time>
      </trkpt>
      <trkpt lat="47.63792" lon="6.51106">
        <ele>301.9</ele>
        <time>2025-09-13T12:55:01Z</time>
      </trkpt>
      <trkpt lat="47.63796" lon="6.51099">
        <ele>302.1</ele>
        <time>2025-09-13T12:55:02Z</time>
      </trkpt>
      <trkpt lat="47.638" lon="6.51094">
        <ele>302.2</ele>
        <time>2025-09-13T12:55:03Z</time>
      </trkpt>
      <trkpt lat="47.63803" lon="6.51089">
        <ele>302.3</ele>
        <time>2025-09-13T12:55:04Z</time>
      </trkpt>
      <trkpt lat="47.63806" lon="6.51083">
        <ele>302.4</ele>
        <time>2025-09-13T12:55:05Z</time>
      </trkpt>
      <trkpt lat="47.6381" lon="6.51077">
        <ele>302.5</ele>
        <time>2025-09-13T12:55:06Z</time>
      </trkpt>
      <trkpt lat="47.63814" lon="6.51071">
        <ele>302.6</ele>
        <time>2025-09-13T12:55:07Z</time>
      </trkpt>
      <trkpt lat="47.63818" lon="6.51065">
        <ele>302.7</ele>
        <time>2025-09-13T12:55:08Z</time>
      </trkpt>
      <trkpt lat="47.63821" lon="6.51059">
        <ele>302.9</ele>
        <time>2025-09-13T12:55:09Z</time>
      </trkpt>
      <trkpt lat="47.63823" lon="6.51052">
        <ele>303</ele>
        <time>2025-09-13T12:55:10Z</time>
      </trkpt>
      <trkpt lat="47.63826" lon="6.51047">
        <ele>303.1</ele>
        <time>2025-09-13T12:55:11Z</time>
      </trkpt>
      <trkpt lat="47.63829" lon="6.51041">
        <ele>303.2</ele>
        <time>2025-09-13T12:55:12Z</time>
      </trkpt>
      <trkpt lat="47.63833" lon="6.51035">
        <ele>303.3</ele>
        <time>2025-09-13T12:55:13Z</time>
      </trkpt>
      <trkpt lat="47.63837" lon="6.5103">
        <ele>303.4</ele>
        <time>2025-09-13T12:55:14Z</time>
      </trkpt>
      <trkpt lat="47.6384" lon="6.51023">
        <ele>303.6</ele>
        <time>2025-09-13T12:55:15Z</time>
      </trkpt>
      <trkpt lat="47.63843" lon="6.51017">
        <ele>303.7</ele>
        <time>2025-09-13T12:55:16Z</time>
      </trkpt>
      <trkpt lat="47.63847" lon="6.51011">
        <ele>303.8</ele>
        <time>2025-09-13T12:55:17Z</time>
      </trkpt>
      <trkpt lat="47.6385" lon="6.51006">
        <ele>303.9</ele>
        <time>2025-09-13T12:55:18Z</time>
      </trkpt>
      <trkpt lat="47.63852" lon="6.51">
        <ele>304</ele>
        <time>2025-09-13T12:55:19Z</time>
      </trkpt>
      <trkpt lat="47.63856" lon="6.50995">
        <ele>304.1</ele>
        <time>2025-09-13T12:55:20Z</time>
      </trkpt>
      <trkpt lat="47.6386" lon="6.5099">
        <ele>304.3</ele>
        <time>2025-09-13T12:55:21Z</time>
      </trkpt>
      <trkpt lat="47.63863" lon="6.50983">
        <ele>304.4</ele>
        <time>2025-09-13T12:55:22Z</time>
      </trkpt>
      <trkpt lat="47.63861" lon="6.50987">
        <ele>304.4</ele>
        <time>2025-09-13T12:55:23Z</time>
      </trkpt>
      <trkpt lat="47.63862" lon="6.50982">
        <ele>304.5</ele>
        <time>2025-09-13T12:55:24Z</time>
      </trkpt>
      <trkpt lat="47.63864" lon="6.50979">
        <ele>304.6</ele>
        <time>2025-09-13T12:55:25Z</time>
      </trkpt>
      <trkpt lat="47.63865" lon="6.50977">
        <ele>304.6</ele>
        <time>2025-09-13T12:55:26Z</time>
      </trkpt>
      <trkpt lat="47.63867" lon="6.50973">
        <ele>304.7</ele>
        <time>2025-09-13T12:55:27Z</time>
      </trkpt>
      <trkpt lat="47.63874" lon="6.50964">
        <ele>304.9</ele>
        <time>2025-09-13T12:55:28Z</time>
      </trkpt>
      <trkpt lat="47.63875" lon="6.50961">
        <ele>304.9</ele>
        <time>2025-09-13T12:55:29Z</time>
      </trkpt>
      <trkpt lat="47.63876" lon="6.50959">
        <ele>304.9</ele>
        <time>2025-09-13T12:55:30Z</time>
      </trkpt>
      <trkpt lat="47.63877" lon="6.50954">
        <ele>305</ele>
        <time>2025-09-13T12:55:31Z</time>
      </trkpt>
      <trkpt lat="47.63879" lon="6.5095">
        <ele>305</ele>
        <time>2025-09-13T12:55:32Z</time>
      </trkpt>
      <trkpt lat="47.63882" lon="6.50944">
        <ele>305.1</ele>
        <time>2025-09-13T12:55:33Z</time>
      </trkpt>
      <trkpt lat="47.63885" lon="6.50939">
        <ele>305.1</ele>
        <time>2025-09-13T12:55:34Z</time>
      </trkpt>
      <trkpt lat="47.63888" lon="6.50935">
        <ele>305.2</ele>
        <time>2025-09-13T12:55:35Z</time>
      </trkpt>
      <trkpt lat="47.63891" lon="6.5093">
        <ele>305.2</ele>
        <time>2025-09-13T12:55:36Z</time>
      </trkpt>
      <trkpt lat="47.63894" lon="6.50923">
        <ele>305.2</ele>
        <time>2025-09-13T12:55:37Z</time>
      </trkpt>
      <trkpt lat="47.63895" lon="6.50922">
        <ele>305.2</ele>
        <time>2025-09-13T12:55:38Z</time>
      </trkpt>
      <trkpt lat="47.63897" lon="6.50921">
        <ele>305.2</ele>
        <time>2025-09-13T12:55:39Z</time>
      </trkpt>
      <trkpt lat="47.639" lon="6.50916">
        <ele>305.1</ele>
        <time>2025-09-13T12:55:40Z</time>
      </trkpt>
      <trkpt lat="47.63902" lon="6.5091">
        <ele>305.1</ele>
        <time>2025-09-13T12:55:41Z</time>
      </trkpt>
      <trkpt lat="47.63908" lon="6.50894">
        <ele>304.8</ele>
        <time>2025-09-13T12:55:42Z</time>
      </trkpt>
      <trkpt lat="47.63914" lon="6.50882">
        <ele>304.6</ele>
        <time>2025-09-13T12:55:43Z</time>
      </trkpt>
      <trkpt lat="47.63919" lon="6.5087">
        <ele>304.3</ele>
        <time>2025-09-13T12:55:44Z</time>
      </trkpt>
      <trkpt lat="47.63927" lon="6.50858">
        <ele>304</ele>
        <time>2025-09-13T12:55:45Z</time>
      </trkpt>
      <trkpt lat="47.63934" lon="6.50846">
        <ele>303.6</ele>
        <time>2025-09-13T12:55:46Z</time>
      </trkpt>
      <trkpt lat="47.63941" lon="6.50835">
        <ele>303.3</ele>
        <time>2025-09-13T12:55:47Z</time>
      </trkpt>
      <trkpt lat="47.63947" lon="6.50824">
        <ele>302.9</ele>
        <time>2025-09-13T12:55:48Z</time>
      </trkpt>
      <trkpt lat="47.63953" lon="6.50814">
        <ele>302.6</ele>
        <time>2025-09-13T12:55:49Z</time>
      </trkpt>
      <trkpt lat="47.63959" lon="6.50803">
        <ele>302.2</ele>
        <time>2025-09-13T12:55:50Z</time>
      </trkpt>
      <trkpt lat="47.63965" lon="6.50791">
        <ele>301.8</ele>
        <time>2025-09-13T12:55:51Z</time>
      </trkpt>
      <trkpt lat="47.63973" lon="6.50785">
        <ele>301.5</ele>
        <time>2025-09-13T12:55:52Z</time>
      </trkpt>
      <trkpt lat="47.63978" lon="6.50774">
        <ele>301.1</ele>
        <time>2025-09-13T12:55:53Z</time>
      </trkpt>
      <trkpt lat="47.63984" lon="6.50764">
        <ele>300.8</ele>
        <time>2025-09-13T12:55:54Z</time>
      </trkpt>
      <trkpt lat="47.63988" lon="6.50754">
        <ele>300.5</ele>
        <time>2025-09-13T12:55:55Z</time>
      </trkpt>
      <trkpt lat="47.63994" lon="6.50744">
        <ele>300.1</ele>
        <time>2025-09-13T12:55:56Z</time>
      </trkpt>
      <trkpt lat="47.64" lon="6.50735">
        <ele>299.8</ele>
        <time>2025-09-13T12:55:57Z</time>
      </trkpt>
      <trkpt lat="47.64005" lon="6.50724">
        <ele>299.4</ele>
        <time>2025-09-13T12:55:58Z</time>
      </trkpt>
      <trkpt lat="47.64012" lon="6.50715">
        <ele>299</ele>
        <time>2025-09-13T12:55:59Z</time>
      </trkpt>
      <trkpt lat="47.64016" lon="6.50704">
        <ele>298.6</ele>
        <time>2025-09-13T12:56:00Z</time>
      </trkpt>
      <trkpt lat="47.64023" lon="6.50692">
        <ele>298.2</ele>
        <time>2025-09-13T12:56:01Z</time>
      </trkpt>
      <trkpt lat="47.64026" lon="6.50682">
        <ele>297.8</ele>
        <time>2025-09-13T12:56:02Z</time>
      </trkpt>
      <trkpt lat="47.64032" lon="6.50672">
        <ele>297.4</ele>
        <time>2025-09-13T12:56:03Z</time>
      </trkpt>
      <trkpt lat="47.64043" lon="6.50652">
        <ele>296.6</ele>
        <time>2025-09-13T12:56:04Z</time>
      </trkpt>
      <trkpt lat="47.64049" lon="6.50642">
        <ele>296.2</ele>
        <time>2025-09-13T12:56:05Z</time>
      </trkpt>
      <trkpt lat="47.64054" lon="6.50629">
        <ele>295.8</ele>
        <time>2025-09-13T12:56:06Z</time>
      </trkpt>
      <trkpt lat="47.64061" lon="6.50619">
        <ele>295.3</ele>
        <time>2025-09-13T12:56:07Z</time>
      </trkpt>
      <trkpt lat="47.64068" lon="6.5061">
        <ele>294.9</ele>
        <time>2025-09-13T12:56:08Z</time>
      </trkpt>
      <trkpt lat="47.64074" lon="6.506">
        <ele>294.4</ele>
        <time>2025-09-13T12:56:09Z</time>
      </trkpt>
      <trkpt lat="47.6408" lon="6.5059">
        <ele>293.9</ele>
        <time>2025-09-13T12:56:10Z</time>
      </trkpt>
      <trkpt lat="47.64086" lon="6.50581">
        <ele>293.4</ele>
        <time>2025-09-13T12:56:11Z</time>
      </trkpt>
      <trkpt lat="47.64092" lon="6.50572">
        <ele>292.9</ele>
        <time>2025-09-13T12:56:12Z</time>
      </trkpt>
      <trkpt lat="47.64099" lon="6.50562">
        <ele>292.5</ele>
        <time>2025-09-13T12:56:13Z</time>
      </trkpt>
      <trkpt lat="47.64106" lon="6.50552">
        <ele>292.1</ele>
        <time>2025-09-13T12:56:14Z</time>
      </trkpt>
      <trkpt lat="47.64112" lon="6.50541">
        <ele>291.8</ele>
        <time>2025-09-13T12:56:15Z</time>
      </trkpt>
      <trkpt lat="47.64119" lon="6.50531">
        <ele>291.5</ele>
        <time>2025-09-13T12:56:16Z</time>
      </trkpt>
      <trkpt lat="47.64127" lon="6.50522">
        <ele>291.2</ele>
        <time>2025-09-13T12:56:17Z</time>
      </trkpt>
      <trkpt lat="47.64133" lon="6.50512">
        <ele>290.9</ele>
        <time>2025-09-13T12:56:18Z</time>
      </trkpt>
      <trkpt lat="47.64141" lon="6.50502">
        <ele>290.6</ele>
        <time>2025-09-13T12:56:19Z</time>
      </trkpt>
      <trkpt lat="47.64147" lon="6.50492">
        <ele>290.3</ele>
        <time>2025-09-13T12:56:20Z</time>
      </trkpt>
      <trkpt lat="47.64154" lon="6.50482">
        <ele>289.9</ele>
        <time>2025-09-13T12:56:21Z</time>
      </trkpt>
      <trkpt lat="47.6416" lon="6.50471">
        <ele>289.5</ele>
        <time>2025-09-13T12:56:22Z</time>
      </trkpt>
      <trkpt lat="47.64167" lon="6.50461">
        <ele>289</ele>
        <time>2025-09-13T12:56:23Z</time>
      </trkpt>
      <trkpt lat="47.64173" lon="6.50449">
        <ele>288.6</ele>
        <time>2025-09-13T12:56:24Z</time>
      </trkpt>
      <trkpt lat="47.64182" lon="6.50439">
        <ele>288.2</ele>
        <time>2025-09-13T12:56:25Z</time>
      </trkpt>
      <trkpt lat="47.64188" lon="6.50428">
        <ele>287.9</ele>
        <time>2025-09-13T12:56:26Z</time>
      </trkpt>
      <trkpt lat="47.64194" lon="6.50416">
        <ele>287.7</ele>
        <time>2025-09-13T12:56:27Z</time>
      </trkpt>
      <trkpt lat="47.642" lon="6.50403">
        <ele>287.6</ele>
        <time>2025-09-13T12:56:28Z</time>
      </trkpt>
      <trkpt lat="47.64205" lon="6.50391">
        <ele>287.5</ele>
        <time>2025-09-13T12:56:29Z</time>
      </trkpt>
      <trkpt lat="47.6421" lon="6.5038">
        <ele>287.4</ele>
        <time>2025-09-13T12:56:30Z</time>
      </trkpt>
      <trkpt lat="47.64215" lon="6.50368">
        <ele>287.4</ele>
        <time>2025-09-13T12:56:31Z</time>
      </trkpt>
      <trkpt lat="47.64219" lon="6.50356">
        <ele>287.4</ele>
        <time>2025-09-13T12:56:32Z</time>
      </trkpt>
      <trkpt lat="47.64223" lon="6.50345">
        <ele>287.4</ele>
        <time>2025-09-13T12:56:33Z</time>
      </trkpt>
      <trkpt lat="47.64227" lon="6.50332">
        <ele>287.4</ele>
        <time>2025-09-13T12:56:34Z</time>
      </trkpt>
      <trkpt lat="47.6423" lon="6.50321">
        <ele>287.5</ele>
        <time>2025-09-13T12:56:35Z</time>
      </trkpt>
      <trkpt lat="47.64234" lon="6.50309">
        <ele>287.6</ele>
        <time>2025-09-13T12:56:36Z</time>
      </trkpt>
      <trkpt lat="47.64237" lon="6.50299">
        <ele>287.5</ele>
        <time>2025-09-13T12:56:37Z</time>
      </trkpt>
      <trkpt lat="47.64239" lon="6.50289">
        <ele>287.5</ele>
        <time>2025-09-13T12:56:38Z</time>
      </trkpt>
      <trkpt lat="47.64242" lon="6.50278">
        <ele>287.4</ele>
        <time>2025-09-13T12:56:39Z</time>
      </trkpt>
      <trkpt lat="47.64245" lon="6.50269">
        <ele>287.4</ele>
        <time>2025-09-13T12:56:40Z</time>
      </trkpt>
      <trkpt lat="47.64248" lon="6.50258">
        <ele>287.4</ele>
        <time>2025-09-13T12:56:41Z</time>
      </trkpt>
      <trkpt lat="47.64252" lon="6.50248">
        <ele>287.4</ele>
        <time>2025-09-13T12:56:42Z</time>
      </trkpt>
      <trkpt lat="47.64255" lon="6.50237">
        <ele>287.3</ele>
        <time>2025-09-13T12:56:43Z</time>
      </trkpt>
      <trkpt lat="47.64258" lon="6.50227">
        <ele>287.3</ele>
        <time>2025-09-13T12:56:44Z</time>
      </trkpt>
      <trkpt lat="47.6426" lon="6.50217">
        <ele>287.3</ele>
        <time>2025-09-13T12:56:45Z</time>
      </trkpt>
      <trkpt lat="47.64263" lon="6.50206">
        <ele>287.3</ele>
        <time>2025-09-13T12:56:46Z</time>
      </trkpt>
      <trkpt lat="47.64265" lon="6.50195">
        <ele>287.3</ele>
        <time>2025-09-13T12:56:47Z</time>
      </trkpt>
      <trkpt lat="47.64267" lon="6.50185">
        <ele>287.3</ele>
        <time>2025-09-13T12:56:48Z</time>
      </trkpt>
      <trkpt lat="47.6427" lon="6.50176">
        <ele>287.3</ele>
        <time>2025-09-13T12:56:49Z</time>
      </trkpt>
      <trkpt lat="47.64273" lon="6.50165">
        <ele>287.3</ele>
        <time>2025-09-13T12:56:50Z</time>
      </trkpt>
      <trkpt lat="47.64275" lon="6.50155">
        <ele>287.3</ele>
        <time>2025-09-13T12:56:51Z</time>
      </trkpt>
      <trkpt lat="47.64277" lon="6.50144">
        <ele>287.3</ele>
        <time>2025-09-13T12:56:52Z</time>
      </trkpt>
      <trkpt lat="47.6428" lon="6.50134">
        <ele>287.3</ele>
        <time>2025-09-13T12:56:53Z</time>
      </trkpt>
      <trkpt lat="47.64282" lon="6.50124">
        <ele>287.3</ele>
        <time>2025-09-13T12:56:55Z</time>
      </trkpt>
      <trkpt lat="47.64284" lon="6.50113">
        <ele>287.2</ele>
        <time>2025-09-13T12:56:56Z</time>
      </trkpt>
      <trkpt lat="47.64286" lon="6.50104">
        <ele>287.3</ele>
        <time>2025-09-13T12:56:57Z</time>
      </trkpt>
      <trkpt lat="47.64289" lon="6.50093">
        <ele>287.3</ele>
        <time>2025-09-13T12:56:58Z</time>
      </trkpt>
      <trkpt lat="47.6429" lon="6.50084">
        <ele>287.3</ele>
        <time>2025-09-13T12:56:59Z</time>
      </trkpt>
      <trkpt lat="47.64293" lon="6.50073">
        <ele>287.4</ele>
        <time>2025-09-13T12:57:00Z</time>
      </trkpt>
      <trkpt lat="47.64295" lon="6.50063">
        <ele>287.4</ele>
        <time>2025-09-13T12:57:01Z</time>
      </trkpt>
      <trkpt lat="47.64298" lon="6.50053">
        <ele>287.5</ele>
        <time>2025-09-13T12:57:02Z</time>
      </trkpt>
      <trkpt lat="47.643" lon="6.50043">
        <ele>287.5</ele>
        <time>2025-09-13T12:57:03Z</time>
      </trkpt>
      <trkpt lat="47.64302" lon="6.50033">
        <ele>287.5</ele>
        <time>2025-09-13T12:57:04Z</time>
      </trkpt>
      <trkpt lat="47.64305" lon="6.50024">
        <ele>287.5</ele>
        <time>2025-09-13T12:57:05Z</time>
      </trkpt>
      <trkpt lat="47.64306" lon="6.50014">
        <ele>287.5</ele>
        <time>2025-09-13T12:57:06Z</time>
      </trkpt>
      <trkpt lat="47.64308" lon="6.50005">
        <ele>287.5</ele>
        <time>2025-09-13T12:57:07Z</time>
      </trkpt>
      <trkpt lat="47.6431" lon="6.49996">
        <ele>287.5</ele>
        <time>2025-09-13T12:57:08Z</time>
      </trkpt>
      <trkpt lat="47.64312" lon="6.49987">
        <ele>287.5</ele>
        <time>2025-09-13T12:57:09Z</time>
      </trkpt>
      <trkpt lat="47.64314" lon="6.49978">
        <ele>287.5</ele>
        <time>2025-09-13T12:57:10Z</time>
      </trkpt>
      <trkpt lat="47.64315" lon="6.49969">
        <ele>287.5</ele>
        <time>2025-09-13T12:57:11Z</time>
      </trkpt>
      <trkpt lat="47.64318" lon="6.49958">
        <ele>287.5</ele>
        <time>2025-09-13T12:57:12Z</time>
      </trkpt>
      <trkpt lat="47.64319" lon="6.4995">
        <ele>287.5</ele>
        <time>2025-09-13T12:57:13Z</time>
      </trkpt>
      <trkpt lat="47.64321" lon="6.49938">
        <ele>287.5</ele>
        <time>2025-09-13T12:57:14Z</time>
      </trkpt>
      <trkpt lat="47.64322" lon="6.4993">
        <ele>287.5</ele>
        <time>2025-09-13T12:57:15Z</time>
      </trkpt>
      <trkpt lat="47.64323" lon="6.49921">
        <ele>287.5</ele>
        <time>2025-09-13T12:57:16Z</time>
      </trkpt>
      <trkpt lat="47.64324" lon="6.49911">
        <ele>287.5</ele>
        <time>2025-09-13T12:57:17Z</time>
      </trkpt>
      <trkpt lat="47.64325" lon="6.49902">
        <ele>287.4</ele>
        <time>2025-09-13T12:57:18Z</time>
      </trkpt>
      <trkpt lat="47.64326" lon="6.49893">
        <ele>287.4</ele>
        <time>2025-09-13T12:57:19Z</time>
      </trkpt>
      <trkpt lat="47.64326" lon="6.49884">
        <ele>287.4</ele>
        <time>2025-09-13T12:57:20Z</time>
      </trkpt>
      <trkpt lat="47.64327" lon="6.49875">
        <ele>287.3</ele>
        <time>2025-09-13T12:57:21Z</time>
      </trkpt>
      <trkpt lat="47.64327" lon="6.49865">
        <ele>287.3</ele>
        <time>2025-09-13T12:57:22Z</time>
      </trkpt>
      <trkpt lat="47.64326" lon="6.49855">
        <ele>287.2</ele>
        <time>2025-09-13T12:57:23Z</time>
      </trkpt>
      <trkpt lat="47.64326" lon="6.49846">
        <ele>287.2</ele>
        <time>2025-09-13T12:57:24Z</time>
      </trkpt>
      <trkpt lat="47.64325" lon="6.49836">
        <ele>287.2</ele>
        <time>2025-09-13T12:57:25Z</time>
      </trkpt>
      <trkpt lat="47.64324" lon="6.49826">
        <ele>287.1</ele>
        <time>2025-09-13T12:57:26Z</time>
      </trkpt>
      <trkpt lat="47.64323" lon="6.49816">
        <ele>287.1</ele>
        <time>2025-09-13T12:57:27Z</time>
      </trkpt>
      <trkpt lat="47.64322" lon="6.49807">
        <ele>287</ele>
        <time>2025-09-13T12:57:28Z</time>
      </trkpt>
      <trkpt lat="47.64321" lon="6.49797">
        <ele>287</ele>
        <time>2025-09-13T12:57:29Z</time>
      </trkpt>
      <trkpt lat="47.6432" lon="6.49788">
        <ele>286.9</ele>
        <time>2025-09-13T12:57:30Z</time>
      </trkpt>
      <trkpt lat="47.64319" lon="6.49779">
        <ele>286.9</ele>
        <time>2025-09-13T12:57:31Z</time>
      </trkpt>
      <trkpt lat="47.64318" lon="6.49769">
        <ele>286.8</ele>
        <time>2025-09-13T12:57:32Z</time>
      </trkpt>
      <trkpt lat="47.64317" lon="6.4976">
        <ele>286.8</ele>
        <time>2025-09-13T12:57:33Z</time>
      </trkpt>
      <trkpt lat="47.64316" lon="6.49749">
        <ele>286.7</ele>
        <time>2025-09-13T12:57:34Z</time>
      </trkpt>
      <trkpt lat="47.64314" lon="6.4974">
        <ele>286.7</ele>
        <time>2025-09-13T12:57:35Z</time>
      </trkpt>
      <trkpt lat="47.64314" lon="6.49731">
        <ele>286.6</ele>
        <time>2025-09-13T12:57:36Z</time>
      </trkpt>
      <trkpt lat="47.64313" lon="6.49721">
        <ele>286.6</ele>
        <time>2025-09-13T12:57:37Z</time>
      </trkpt>
      <trkpt lat="47.64312" lon="6.49711">
        <ele>286.6</ele>
        <time>2025-09-13T12:57:38Z</time>
      </trkpt>
      <trkpt lat="47.64311" lon="6.49702">
        <ele>286.6</ele>
        <time>2025-09-13T12:57:39Z</time>
      </trkpt>
      <trkpt lat="47.6431" lon="6.49693">
        <ele>286.5</ele>
        <time>2025-09-13T12:57:40Z</time>
      </trkpt>
      <trkpt lat="47.64309" lon="6.49683">
        <ele>286.4</ele>
        <time>2025-09-13T12:57:41Z</time>
      </trkpt>
      <trkpt lat="47.64307" lon="6.49674">
        <ele>286.4</ele>
        <time>2025-09-13T12:57:42Z</time>
      </trkpt>
      <trkpt lat="47.64306" lon="6.49665">
        <ele>286.4</ele>
        <time>2025-09-13T12:57:43Z</time>
      </trkpt>
      <trkpt lat="47.64305" lon="6.49655">
        <ele>286.3</ele>
        <time>2025-09-13T12:57:44Z</time>
      </trkpt>
      <trkpt lat="47.64304" lon="6.49646">
        <ele>286.3</ele>
        <time>2025-09-13T12:57:45Z</time>
      </trkpt>
      <trkpt lat="47.64302" lon="6.49636">
        <ele>286.3</ele>
        <time>2025-09-13T12:57:46Z</time>
      </trkpt>
      <trkpt lat="47.64301" lon="6.49627">
        <ele>286.3</ele>
        <time>2025-09-13T12:57:47Z</time>
      </trkpt>
      <trkpt lat="47.643" lon="6.49617">
        <ele>286.2</ele>
        <time>2025-09-13T12:57:48Z</time>
      </trkpt>
      <trkpt lat="47.64299" lon="6.49608">
        <ele>286.2</ele>
        <time>2025-09-13T12:57:49Z</time>
      </trkpt>
      <trkpt lat="47.64298" lon="6.496">
        <ele>286.2</ele>
        <time>2025-09-13T12:57:50Z</time>
      </trkpt>
      <trkpt lat="47.64297" lon="6.4959">
        <ele>286.2</ele>
        <time>2025-09-13T12:57:51Z</time>
      </trkpt>
      <trkpt lat="47.64296" lon="6.49581">
        <ele>286.1</ele>
        <time>2025-09-13T12:57:52Z</time>
      </trkpt>
      <trkpt lat="47.64295" lon="6.49572">
        <ele>286.1</ele>
        <time>2025-09-13T12:57:53Z</time>
      </trkpt>
      <trkpt lat="47.64294" lon="6.49563">
        <ele>286.1</ele>
        <time>2025-09-13T12:57:54Z</time>
      </trkpt>
      <trkpt lat="47.64293" lon="6.49554">
        <ele>286</ele>
        <time>2025-09-13T12:57:55Z</time>
      </trkpt>
      <trkpt lat="47.64291" lon="6.49545">
        <ele>286</ele>
        <time>2025-09-13T12:57:56Z</time>
      </trkpt>
      <trkpt lat="47.64291" lon="6.49535">
        <ele>285.9</ele>
        <time>2025-09-13T12:57:57Z</time>
      </trkpt>
      <trkpt lat="47.6429" lon="6.49526">
        <ele>285.9</ele>
        <time>2025-09-13T12:57:58Z</time>
      </trkpt>
      <trkpt lat="47.64289" lon="6.49516">
        <ele>285.8</ele>
        <time>2025-09-13T12:57:59Z</time>
      </trkpt>
      <trkpt lat="47.64289" lon="6.49506">
        <ele>285.8</ele>
        <time>2025-09-13T12:58:00Z</time>
      </trkpt>
      <trkpt lat="47.64287" lon="6.49497">
        <ele>285.8</ele>
        <time>2025-09-13T12:58:01Z</time>
      </trkpt>
      <trkpt lat="47.64286" lon="6.49487">
        <ele>285.7</ele>
        <time>2025-09-13T12:58:02Z</time>
      </trkpt>
      <trkpt lat="47.64285" lon="6.49478">
        <ele>285.7</ele>
        <time>2025-09-13T12:58:03Z</time>
      </trkpt>
      <trkpt lat="47.64285" lon="6.49469">
        <ele>285.7</ele>
        <time>2025-09-13T12:58:04Z</time>
      </trkpt>
      <trkpt lat="47.64284" lon="6.49459">
        <ele>285.7</ele>
        <time>2025-09-13T12:58:05Z</time>
      </trkpt>
      <trkpt lat="47.64284" lon="6.4945">
        <ele>285.7</ele>
        <time>2025-09-13T12:58:06Z</time>
      </trkpt>
      <trkpt lat="47.64283" lon="6.4944">
        <ele>285.7</ele>
        <time>2025-09-13T12:58:07Z</time>
      </trkpt>
      <trkpt lat="47.64282" lon="6.49431">
        <ele>285.6</ele>
        <time>2025-09-13T12:58:08Z</time>
      </trkpt>
      <trkpt lat="47.64281" lon="6.49422">
        <ele>285.6</ele>
        <time>2025-09-13T12:58:09Z</time>
      </trkpt>
      <trkpt lat="47.6428" lon="6.49402">
        <ele>285.5</ele>
        <time>2025-09-13T12:58:10Z</time>
      </trkpt>
      <trkpt lat="47.64279" lon="6.49393">
        <ele>285.5</ele>
        <time>2025-09-13T12:58:11Z</time>
      </trkpt>
      <trkpt lat="47.64278" lon="6.49384">
        <ele>285.5</ele>
        <time>2025-09-13T12:58:12Z</time>
      </trkpt>
      <trkpt lat="47.64277" lon="6.49375">
        <ele>285.5</ele>
        <time>2025-09-13T12:58:13Z</time>
      </trkpt>
      <trkpt lat="47.64276" lon="6.49365">
        <ele>285.4</ele>
        <time>2025-09-13T12:58:14Z</time>
      </trkpt>
      <trkpt lat="47.64276" lon="6.49356">
        <ele>285.4</ele>
        <time>2025-09-13T12:58:15Z</time>
      </trkpt>
      <trkpt lat="47.64275" lon="6.49346">
        <ele>285.3</ele>
        <time>2025-09-13T12:58:16Z</time>
      </trkpt>
      <trkpt lat="47.64274" lon="6.49337">
        <ele>285.3</ele>
        <time>2025-09-13T12:58:17Z</time>
      </trkpt>
      <trkpt lat="47.64273" lon="6.49328">
        <ele>285.3</ele>
        <time>2025-09-13T12:58:18Z</time>
      </trkpt>
      <trkpt lat="47.64272" lon="6.49318">
        <ele>285.3</ele>
        <time>2025-09-13T12:58:19Z</time>
      </trkpt>
      <trkpt lat="47.64271" lon="6.49308">
        <ele>285.2</ele>
        <time>2025-09-13T12:58:20Z</time>
      </trkpt>
      <trkpt lat="47.64271" lon="6.49299">
        <ele>285.2</ele>
        <time>2025-09-13T12:58:21Z</time>
      </trkpt>
      <trkpt lat="47.6427" lon="6.4929">
        <ele>285.2</ele>
        <time>2025-09-13T12:58:22Z</time>
      </trkpt>
      <trkpt lat="47.64269" lon="6.4928">
        <ele>285.2</ele>
        <time>2025-09-13T12:58:23Z</time>
      </trkpt>
      <trkpt lat="47.64269" lon="6.49271">
        <ele>285.2</ele>
        <time>2025-09-13T12:58:24Z</time>
      </trkpt>
      <trkpt lat="47.64268" lon="6.49262">
        <ele>285.2</ele>
        <time>2025-09-13T12:58:25Z</time>
      </trkpt>
      <trkpt lat="47.64267" lon="6.49252">
        <ele>285.2</ele>
        <time>2025-09-13T12:58:26Z</time>
      </trkpt>
      <trkpt lat="47.64266" lon="6.49243">
        <ele>285.2</ele>
        <time>2025-09-13T12:58:27Z</time>
      </trkpt>
      <trkpt lat="47.64265" lon="6.49234">
        <ele>285.2</ele>
        <time>2025-09-13T12:58:28Z</time>
      </trkpt>
      <trkpt lat="47.64265" lon="6.49224">
        <ele>285.2</ele>
        <time>2025-09-13T12:58:29Z</time>
      </trkpt>
      <trkpt lat="47.64264" lon="6.49215">
        <ele>285.2</ele>
        <time>2025-09-13T12:58:30Z</time>
      </trkpt>
      <trkpt lat="47.64263" lon="6.49206">
        <ele>285.2</ele>
        <time>2025-09-13T12:58:32Z</time>
      </trkpt>
      <trkpt lat="47.64262" lon="6.49197">
        <ele>285.2</ele>
        <time>2025-09-13T12:58:33Z</time>
      </trkpt>
      <trkpt lat="47.64262" lon="6.49187">
        <ele>285.2</ele>
        <time>2025-09-13T12:58:34Z</time>
      </trkpt>
      <trkpt lat="47.64261" lon="6.49178">
        <ele>285.2</ele>
        <time>2025-09-13T12:58:35Z</time>
      </trkpt>
      <trkpt lat="47.64261" lon="6.49169">
        <ele>285.3</ele>
        <time>2025-09-13T12:58:36Z</time>
      </trkpt>
      <trkpt lat="47.6426" lon="6.4916">
        <ele>285.3</ele>
        <time>2025-09-13T12:58:37Z</time>
      </trkpt>
      <trkpt lat="47.6426" lon="6.4915">
        <ele>285.3</ele>
        <time>2025-09-13T12:58:38Z</time>
      </trkpt>
      <trkpt lat="47.64259" lon="6.49142">
        <ele>285.4</ele>
        <time>2025-09-13T12:58:39Z</time>
      </trkpt>
      <trkpt lat="47.64258" lon="6.49133">
        <ele>285.5</ele>
        <time>2025-09-13T12:58:40Z</time>
      </trkpt>
      <trkpt lat="47.64256" lon="6.49125">
        <ele>285.5</ele>
        <time>2025-09-13T12:58:41Z</time>
      </trkpt>
      <trkpt lat="47.64255" lon="6.49118">
        <ele>285.6</ele>
        <time>2025-09-13T12:58:42Z</time>
      </trkpt>
      <trkpt lat="47.64252" lon="6.49112">
        <ele>285.6</ele>
        <time>2025-09-13T12:58:43Z</time>
      </trkpt>
      <trkpt lat="47.64247" lon="6.49107">
        <ele>285.5</ele>
        <time>2025-09-13T12:58:44Z</time>
      </trkpt>
      <trkpt lat="47.64241" lon="6.49105">
        <ele>285.4</ele>
        <time>2025-09-13T12:58:45Z</time>
      </trkpt>
      <trkpt lat="47.64235" lon="6.49105">
        <ele>285.4</ele>
        <time>2025-09-13T12:58:46Z</time>
      </trkpt>
      <trkpt lat="47.64228" lon="6.49108">
        <ele>285.3</ele>
        <time>2025-09-13T12:58:47Z</time>
      </trkpt>
      <trkpt lat="47.64222" lon="6.49108">
        <ele>285.2</ele>
        <time>2025-09-13T12:58:48Z</time>
      </trkpt>
      <trkpt lat="47.64216" lon="6.49108">
        <ele>285.1</ele>
        <time>2025-09-13T12:58:49Z</time>
      </trkpt>
      <trkpt lat="47.6421" lon="6.49107">
        <ele>285.1</ele>
        <time>2025-09-13T12:58:50Z</time>
      </trkpt>
      <trkpt lat="47.64204" lon="6.49106">
        <ele>285.1</ele>
        <time>2025-09-13T12:58:51Z</time>
      </trkpt>
      <trkpt lat="47.64198" lon="6.49103">
        <ele>285.1</ele>
        <time>2025-09-13T12:58:52Z</time>
      </trkpt>
      <trkpt lat="47.64194" lon="6.49099">
        <ele>285.2</ele>
        <time>2025-09-13T12:58:53Z</time>
      </trkpt>
      <trkpt lat="47.64191" lon="6.49093">
        <ele>285.2</ele>
        <time>2025-09-13T12:58:54Z</time>
      </trkpt>
      <trkpt lat="47.64194" lon="6.49085">
        <ele>285.2</ele>
        <time>2025-09-13T12:58:55Z</time>
      </trkpt>
      <trkpt lat="47.64199" lon="6.4908">
        <ele>285.2</ele>
        <time>2025-09-13T12:58:56Z</time>
      </trkpt>
      <trkpt lat="47.64206" lon="6.49079">
        <ele>285.3</ele>
        <time>2025-09-13T12:58:57Z</time>
      </trkpt>
      <trkpt lat="47.64213" lon="6.49079">
        <ele>285.3</ele>
        <time>2025-09-13T12:58:58Z</time>
      </trkpt>
      <trkpt lat="47.64218" lon="6.49077">
        <ele>285.3</ele>
        <time>2025-09-13T12:58:59Z</time>
      </trkpt>
      <trkpt lat="47.64223" lon="6.49075">
        <ele>285.4</ele>
        <time>2025-09-13T12:59:00Z</time>
      </trkpt>
      <trkpt lat="47.64228" lon="6.49073">
        <ele>285.4</ele>
        <time>2025-09-13T12:59:01Z</time>
      </trkpt>
      <trkpt lat="47.64233" lon="6.49068">
        <ele>285.5</ele>
        <time>2025-09-13T12:59:02Z</time>
      </trkpt>
      <trkpt lat="47.64238" lon="6.49062">
        <ele>285.6</ele>
        <time>2025-09-13T12:59:03Z</time>
      </trkpt>
      <trkpt lat="47.64243" lon="6.49058">
        <ele>285.6</ele>
        <time>2025-09-13T12:59:04Z</time>
      </trkpt>
      <trkpt lat="47.64247" lon="6.49054">
        <ele>285.7</ele>
        <time>2025-09-13T12:59:05Z</time>
      </trkpt>
      <trkpt lat="47.64253" lon="6.49049">
        <ele>285.8</ele>
        <time>2025-09-13T12:59:06Z</time>
      </trkpt>
      <trkpt lat="47.64257" lon="6.49045">
        <ele>285.9</ele>
        <time>2025-09-13T12:59:07Z</time>
      </trkpt>
      <trkpt lat="47.64261" lon="6.4904">
        <ele>285.9</ele>
        <time>2025-09-13T12:59:08Z</time>
      </trkpt>
      <trkpt lat="47.64265" lon="6.49034">
        <ele>286</ele>
        <time>2025-09-13T12:59:09Z</time>
      </trkpt>
      <trkpt lat="47.64269" lon="6.49029">
        <ele>286</ele>
        <time>2025-09-13T12:59:10Z</time>
      </trkpt>
      <trkpt lat="47.64273" lon="6.49023">
        <ele>286.1</ele>
        <time>2025-09-13T12:59:11Z</time>
      </trkpt>
      <trkpt lat="47.64277" lon="6.49018">
        <ele>286.1</ele>
        <time>2025-09-13T12:59:12Z</time>
      </trkpt>
      <trkpt lat="47.64282" lon="6.49013">
        <ele>286.1</ele>
        <time>2025-09-13T12:59:13Z</time>
      </trkpt>
      <trkpt lat="47.64286" lon="6.49008">
        <ele>286.2</ele>
        <time>2025-09-13T12:59:14Z</time>
      </trkpt>
      <trkpt lat="47.64291" lon="6.49003">
        <ele>286.2</ele>
        <time>2025-09-13T12:59:15Z</time>
      </trkpt>
      <trkpt lat="47.64295" lon="6.48996">
        <ele>286.2</ele>
        <time>2025-09-13T12:59:16Z</time>
      </trkpt>
      <trkpt lat="47.643" lon="6.48991">
        <ele>286.1</ele>
        <time>2025-09-13T12:59:17Z</time>
      </trkpt>
      <trkpt lat="47.64305" lon="6.48984">
        <ele>286.1</ele>
        <time>2025-09-13T12:59:18Z</time>
      </trkpt>
      <trkpt lat="47.6431" lon="6.48978">
        <ele>286.1</ele>
        <time>2025-09-13T12:59:19Z</time>
      </trkpt>
      <trkpt lat="47.64315" lon="6.48972">
        <ele>286</ele>
        <time>2025-09-13T12:59:20Z</time>
      </trkpt>
      <trkpt lat="47.6432" lon="6.48966">
        <ele>286</ele>
        <time>2025-09-13T12:59:21Z</time>
      </trkpt>
      <trkpt lat="47.64324" lon="6.48961">
        <ele>285.9</ele>
        <time>2025-09-13T12:59:22Z</time>
      </trkpt>
      <trkpt lat="47.64328" lon="6.48956">
        <ele>285.9</ele>
        <time>2025-09-13T12:59:23Z</time>
      </trkpt>
      <trkpt lat="47.64333" lon="6.4895">
        <ele>285.8</ele>
        <time>2025-09-13T12:59:24Z</time>
      </trkpt>
      <trkpt lat="47.64337" lon="6.48945">
        <ele>285.8</ele>
        <time>2025-09-13T12:59:25Z</time>
      </trkpt>
      <trkpt lat="47.64342" lon="6.48939">
        <ele>285.7</ele>
        <time>2025-09-13T12:59:26Z</time>
      </trkpt>
      <trkpt lat="47.64347" lon="6.48935">
        <ele>285.6</ele>
        <time>2025-09-13T12:59:27Z</time>
      </trkpt>
      <trkpt lat="47.64352" lon="6.4893">
        <ele>285.6</ele>
        <time>2025-09-13T12:59:28Z</time>
      </trkpt>
      <trkpt lat="47.64357" lon="6.48926">
        <ele>285.5</ele>
        <time>2025-09-13T12:59:29Z</time>
      </trkpt>
      <trkpt lat="47.64363" lon="6.48921">
        <ele>285.5</ele>
        <time>2025-09-13T12:59:30Z</time>
      </trkpt>
      <trkpt lat="47.64368" lon="6.48918">
        <ele>285.5</ele>
        <time>2025-09-13T12:59:31Z</time>
      </trkpt>
      <trkpt lat="47.64374" lon="6.48914">
        <ele>285.5</ele>
        <time>2025-09-13T12:59:32Z</time>
      </trkpt>
      <trkpt lat="47.6438" lon="6.48911">
        <ele>285.4</ele>
        <time>2025-09-13T12:59:33Z</time>
      </trkpt>
      <trkpt lat="47.64385" lon="6.48909">
        <ele>285.4</ele>
        <time>2025-09-13T12:59:34Z</time>
      </trkpt>
      <trkpt lat="47.64391" lon="6.48908">
        <ele>285.4</ele>
        <time>2025-09-13T12:59:35Z</time>
      </trkpt>
      <trkpt lat="47.64396" lon="6.48906">
        <ele>285.4</ele>
        <time>2025-09-13T12:59:36Z</time>
      </trkpt>
      <trkpt lat="47.64402" lon="6.48905">
        <ele>285.4</ele>
        <time>2025-09-13T12:59:37Z</time>
      </trkpt>
      <trkpt lat="47.64408" lon="6.48905">
        <ele>285.4</ele>
        <time>2025-09-13T12:59:38Z</time>
      </trkpt>
      <trkpt lat="47.64414" lon="6.48905">
        <ele>285.4</ele>
        <time>2025-09-13T12:59:39Z</time>
      </trkpt>
      <trkpt lat="47.64421" lon="6.48906">
        <ele>285.4</ele>
        <time>2025-09-13T12:59:40Z</time>
      </trkpt>
      <trkpt lat="47.64426" lon="6.48908">
        <ele>285.4</ele>
        <time>2025-09-13T12:59:41Z</time>
      </trkpt>
      <trkpt lat="47.64432" lon="6.4891">
        <ele>285.4</ele>
        <time>2025-09-13T12:59:42Z</time>
      </trkpt>
      <trkpt lat="47.64438" lon="6.48911">
        <ele>285.4</ele>
        <time>2025-09-13T12:59:43Z</time>
      </trkpt>
      <trkpt lat="47.64444" lon="6.48912">
        <ele>285.4</ele>
        <time>2025-09-13T12:59:44Z</time>
      </trkpt>
      <trkpt lat="47.6445" lon="6.48913">
        <ele>285.4</ele>
        <time>2025-09-13T12:59:45Z</time>
      </trkpt>
      <trkpt lat="47.64457" lon="6.48915">
        <ele>285.4</ele>
        <time>2025-09-13T12:59:46Z</time>
      </trkpt>
      <trkpt lat="47.64463" lon="6.48916">
        <ele>285.4</ele>
        <time>2025-09-13T12:59:47Z</time>
      </trkpt>
      <trkpt lat="47.64468" lon="6.48917">
        <ele>285.4</ele>
        <time>2025-09-13T12:59:48Z</time>
      </trkpt>
      <trkpt lat="47.64474" lon="6.48918">
        <ele>285.5</ele>
        <time>2025-09-13T12:59:49Z</time>
      </trkpt>
      <trkpt lat="47.64479" lon="6.48918">
        <ele>285.5</ele>
        <time>2025-09-13T12:59:50Z</time>
      </trkpt>
      <trkpt lat="47.64485" lon="6.4892">
        <ele>285.5</ele>
        <time>2025-09-13T12:59:51Z</time>
      </trkpt>
      <trkpt lat="47.64491" lon="6.4892">
        <ele>285.5</ele>
        <time>2025-09-13T12:59:52Z</time>
      </trkpt>
      <trkpt lat="47.64496" lon="6.48919">
        <ele>285.6</ele>
        <time>2025-09-13T12:59:53Z</time>
      </trkpt>
      <trkpt lat="47.645" lon="6.48913">
        <ele>285.6</ele>
        <time>2025-09-13T12:59:54Z</time>
      </trkpt>
      <trkpt lat="47.64503" lon="6.48905">
        <ele>285.5</ele>
        <time>2025-09-13T12:59:55Z</time>
      </trkpt>
      <trkpt lat="47.64505" lon="6.48897">
        <ele>285.5</ele>
        <time>2025-09-13T12:59:56Z</time>
      </trkpt>
      <trkpt lat="47.64507" lon="6.4889">
        <ele>285.4</ele>
        <time>2025-09-13T12:59:57Z</time>
      </trkpt>
      <trkpt lat="47.64509" lon="6.48884">
        <ele>285.4</ele>
        <time>2025-09-13T12:59:58Z</time>
      </trkpt>
      <trkpt lat="47.64512" lon="6.48879">
        <ele>285.4</ele>
        <time>2025-09-13T12:59:59Z</time>
      </trkpt>
      <trkpt lat="47.64515" lon="6.48872">
        <ele>285.4</ele>
        <time>2025-09-13T13:00:00Z</time>
      </trkpt>
      <trkpt lat="47.64518" lon="6.48866">
        <ele>285.4</ele>
        <time>2025-09-13T13:00:01Z</time>
      </trkpt>
      <trkpt lat="47.64522" lon="6.48859">
        <ele>285.4</ele>
        <time>2025-09-13T13:00:02Z</time>
      </trkpt>
      <trkpt lat="47.64524" lon="6.48853">
        <ele>285.4</ele>
        <time>2025-09-13T13:00:03Z</time>
      </trkpt>
      <trkpt lat="47.64527" lon="6.48848">
        <ele>285.5</ele>
        <time>2025-09-13T13:00:04Z</time>
      </trkpt>
      <trkpt lat="47.64529" lon="6.48841">
        <ele>285.5</ele>
        <time>2025-09-13T13:00:05Z</time>
      </trkpt>
      <trkpt lat="47.64532" lon="6.48836">
        <ele>285.5</ele>
        <time>2025-09-13T13:00:06Z</time>
      </trkpt>
      <trkpt lat="47.64534" lon="6.4883">
        <ele>285.5</ele>
        <time>2025-09-13T13:00:07Z</time>
      </trkpt>
      <trkpt lat="47.64537" lon="6.48824">
        <ele>285.5</ele>
        <time>2025-09-13T13:00:08Z</time>
      </trkpt>
      <trkpt lat="47.6454" lon="6.48818">
        <ele>285.5</ele>
        <time>2025-09-13T13:00:09Z</time>
      </trkpt>
      <trkpt lat="47.64543" lon="6.48812">
        <ele>285.4</ele>
        <time>2025-09-13T13:00:10Z</time>
      </trkpt>
      <trkpt lat="47.64545" lon="6.48805">
        <ele>285.4</ele>
        <time>2025-09-13T13:00:11Z</time>
      </trkpt>
      <trkpt lat="47.64547" lon="6.48799">
        <ele>285.4</ele>
        <time>2025-09-13T13:00:12Z</time>
      </trkpt>
      <trkpt lat="47.6455" lon="6.48793">
        <ele>285.4</ele>
        <time>2025-09-13T13:00:13Z</time>
      </trkpt>
      <trkpt lat="47.64552" lon="6.48786">
        <ele>285.4</ele>
        <time>2025-09-13T13:00:14Z</time>
      </trkpt>
      <trkpt lat="47.64556" lon="6.48779">
        <ele>285.4</ele>
        <time>2025-09-13T13:00:15Z</time>
      </trkpt>
      <trkpt lat="47.64558" lon="6.48772">
        <ele>285.4</ele>
        <time>2025-09-13T13:00:16Z</time>
      </trkpt>
      <trkpt lat="47.64561" lon="6.48766">
        <ele>285.4</ele>
        <time>2025-09-13T13:00:17Z</time>
      </trkpt>
      <trkpt lat="47.64563" lon="6.48759">
        <ele>285.4</ele>
        <time>2025-09-13T13:00:18Z</time>
      </trkpt>
      <trkpt lat="47.64565" lon="6.48752">
        <ele>285.5</ele>
        <time>2025-09-13T13:00:19Z</time>
      </trkpt>
      <trkpt lat="47.64568" lon="6.48745">
        <ele>285.5</ele>
        <time>2025-09-13T13:00:20Z</time>
      </trkpt>
      <trkpt lat="47.64571" lon="6.48738">
        <ele>285.5</ele>
        <time>2025-09-13T13:00:21Z</time>
      </trkpt>
      <trkpt lat="47.64573" lon="6.48732">
        <ele>285.6</ele>
        <time>2025-09-13T13:00:22Z</time>
      </trkpt>
      <trkpt lat="47.64576" lon="6.48725">
        <ele>285.6</ele>
        <time>2025-09-13T13:00:23Z</time>
      </trkpt>
      <trkpt lat="47.64578" lon="6.48719">
        <ele>285.6</ele>
        <time>2025-09-13T13:00:24Z</time>
      </trkpt>
      <trkpt lat="47.64581" lon="6.48712">
        <ele>285.7</ele>
        <time>2025-09-13T13:00:25Z</time>
      </trkpt>
      <trkpt lat="47.64583" lon="6.48705">
        <ele>285.7</ele>
        <time>2025-09-13T13:00:26Z</time>
      </trkpt>
      <trkpt lat="47.64585" lon="6.48698">
        <ele>285.8</ele>
        <time>2025-09-13T13:00:27Z</time>
      </trkpt>
      <trkpt lat="47.64588" lon="6.48691">
        <ele>285.9</ele>
        <time>2025-09-13T13:00:28Z</time>
      </trkpt>
      <trkpt lat="47.64591" lon="6.48684">
        <ele>285.9</ele>
        <time>2025-09-13T13:00:29Z</time>
      </trkpt>
      <trkpt lat="47.64593" lon="6.48677">
        <ele>286</ele>
        <time>2025-09-13T13:00:30Z</time>
      </trkpt>
      <trkpt lat="47.64596" lon="6.48671">
        <ele>286.1</ele>
        <time>2025-09-13T13:00:31Z</time>
      </trkpt>
      <trkpt lat="47.64598" lon="6.48664">
        <ele>286.2</ele>
        <time>2025-09-13T13:00:32Z</time>
      </trkpt>
      <trkpt lat="47.64601" lon="6.48657">
        <ele>286.3</ele>
        <time>2025-09-13T13:00:33Z</time>
      </trkpt>
      <trkpt lat="47.64603" lon="6.4865">
        <ele>286.4</ele>
        <time>2025-09-13T13:00:34Z</time>
      </trkpt>
      <trkpt lat="47.64606" lon="6.48644">
        <ele>286.5</ele>
        <time>2025-09-13T13:00:35Z</time>
      </trkpt>
      <trkpt lat="47.64608" lon="6.48637">
        <ele>286.7</ele>
        <time>2025-09-13T13:00:36Z</time>
      </trkpt>
      <trkpt lat="47.64611" lon="6.48632">
        <ele>286.8</ele>
        <time>2025-09-13T13:00:37Z</time>
      </trkpt>
      <trkpt lat="47.64613" lon="6.48624">
        <ele>287</ele>
        <time>2025-09-13T13:00:38Z</time>
      </trkpt>
      <trkpt lat="47.64615" lon="6.48618">
        <ele>287.1</ele>
        <time>2025-09-13T13:00:39Z</time>
      </trkpt>
      <trkpt lat="47.64618" lon="6.48611">
        <ele>287.3</ele>
        <time>2025-09-13T13:00:40Z</time>
      </trkpt>
      <trkpt lat="47.6462" lon="6.48606">
        <ele>287.4</ele>
        <time>2025-09-13T13:00:41Z</time>
      </trkpt>
      <trkpt lat="47.64622" lon="6.48599">
        <ele>287.6</ele>
        <time>2025-09-13T13:00:42Z</time>
      </trkpt>
      <trkpt lat="47.64624" lon="6.48593">
        <ele>287.7</ele>
        <time>2025-09-13T13:00:43Z</time>
      </trkpt>
      <trkpt lat="47.64626" lon="6.48588">
        <ele>287.9</ele>
        <time>2025-09-13T13:00:44Z</time>
      </trkpt>
      <trkpt lat="47.64628" lon="6.48582">
        <ele>288.1</ele>
        <time>2025-09-13T13:00:45Z</time>
      </trkpt>
      <trkpt lat="47.64631" lon="6.48576">
        <ele>288.3</ele>
        <time>2025-09-13T13:00:46Z</time>
      </trkpt>
      <trkpt lat="47.64633" lon="6.48571">
        <ele>288.5</ele>
        <time>2025-09-13T13:00:47Z</time>
      </trkpt>
      <trkpt lat="47.64635" lon="6.48565">
        <ele>288.7</ele>
        <time>2025-09-13T13:00:48Z</time>
      </trkpt>
      <trkpt lat="47.64638" lon="6.4856">
        <ele>288.9</ele>
        <time>2025-09-13T13:00:49Z</time>
      </trkpt>
      <trkpt lat="47.6464" lon="6.48554">
        <ele>289.1</ele>
        <time>2025-09-13T13:00:50Z</time>
      </trkpt>
      <trkpt lat="47.64642" lon="6.48548">
        <ele>289.3</ele>
        <time>2025-09-13T13:00:51Z</time>
      </trkpt>
      <trkpt lat="47.64644" lon="6.48541">
        <ele>289.6</ele>
        <time>2025-09-13T13:00:52Z</time>
      </trkpt>
      <trkpt lat="47.64646" lon="6.48536">
        <ele>289.8</ele>
        <time>2025-09-13T13:00:53Z</time>
      </trkpt>
      <trkpt lat="47.64649" lon="6.4853">
        <ele>290</ele>
        <time>2025-09-13T13:00:54Z</time>
      </trkpt>
      <trkpt lat="47.64651" lon="6.48524">
        <ele>290.2</ele>
        <time>2025-09-13T13:00:55Z</time>
      </trkpt>
      <trkpt lat="47.64653" lon="6.48518">
        <ele>290.5</ele>
        <time>2025-09-13T13:00:56Z</time>
      </trkpt>
      <trkpt lat="47.64655" lon="6.48513">
        <ele>290.7</ele>
        <time>2025-09-13T13:00:57Z</time>
      </trkpt>
      <trkpt lat="47.64657" lon="6.48507">
        <ele>291</ele>
        <time>2025-09-13T13:00:58Z</time>
      </trkpt>
      <trkpt lat="47.6466" lon="6.485">
        <ele>291.3</ele>
        <time>2025-09-13T13:00:59Z</time>
      </trkpt>
      <trkpt lat="47.64662" lon="6.48495">
        <ele>291.5</ele>
        <time>2025-09-13T13:01:00Z</time>
      </trkpt>
      <trkpt lat="47.64664" lon="6.48489">
        <ele>291.8</ele>
        <time>2025-09-13T13:01:01Z</time>
      </trkpt>
      <trkpt lat="47.64666" lon="6.48483">
        <ele>292</ele>
        <time>2025-09-13T13:01:02Z</time>
      </trkpt>
      <trkpt lat="47.64668" lon="6.48477">
        <ele>292.3</ele>
        <time>2025-09-13T13:01:03Z</time>
      </trkpt>
      <trkpt lat="47.6467" lon="6.48471">
        <ele>292.6</ele>
        <time>2025-09-13T13:01:04Z</time>
      </trkpt>
      <trkpt lat="47.64673" lon="6.48465">
        <ele>292.9</ele>
        <time>2025-09-13T13:01:05Z</time>
      </trkpt>
      <trkpt lat="47.64675" lon="6.48459">
        <ele>293.2</ele>
        <time>2025-09-13T13:01:06Z</time>
      </trkpt>
      <trkpt lat="47.64677" lon="6.48453">
        <ele>293.4</ele>
        <time>2025-09-13T13:01:07Z</time>
      </trkpt>
      <trkpt lat="47.6468" lon="6.48448">
        <ele>293.7</ele>
        <time>2025-09-13T13:01:08Z</time>
      </trkpt>
      <trkpt lat="47.64683" lon="6.48442">
        <ele>294</ele>
        <time>2025-09-13T13:01:09Z</time>
      </trkpt>
      <trkpt lat="47.64687" lon="6.48436">
        <ele>294.2</ele>
        <time>2025-09-13T13:01:10Z</time>
      </trkpt>
      <trkpt lat="47.6469" lon="6.48431">
        <ele>294.5</ele>
        <time>2025-09-13T13:01:11Z</time>
      </trkpt>
      <trkpt lat="47.64693" lon="6.48426">
        <ele>294.8</ele>
        <time>2025-09-13T13:01:12Z</time>
      </trkpt>
      <trkpt lat="47.64697" lon="6.4842">
        <ele>295</ele>
        <time>2025-09-13T13:01:13Z</time>
      </trkpt>
      <trkpt lat="47.647" lon="6.48415">
        <ele>295.3</ele>
        <time>2025-09-13T13:01:14Z</time>
      </trkpt>
      <trkpt lat="47.64704" lon="6.48412">
        <ele>295.5</ele>
        <time>2025-09-13T13:01:15Z</time>
      </trkpt>
      <trkpt lat="47.64708" lon="6.48407">
        <ele>295.8</ele>
        <time>2025-09-13T13:01:16Z</time>
      </trkpt>
      <trkpt lat="47.64713" lon="6.48403">
        <ele>296.1</ele>
        <time>2025-09-13T13:01:17Z</time>
      </trkpt>
      <trkpt lat="47.64718" lon="6.484">
        <ele>296.4</ele>
        <time>2025-09-13T13:01:18Z</time>
      </trkpt>
      <trkpt lat="47.64722" lon="6.48397">
        <ele>296.6</ele>
        <time>2025-09-13T13:01:19Z</time>
      </trkpt>
      <trkpt lat="47.64726" lon="6.48393">
        <ele>296.8</ele>
        <time>2025-09-13T13:01:20Z</time>
      </trkpt>
      <trkpt lat="47.6473" lon="6.48389">
        <ele>297</ele>
        <time>2025-09-13T13:01:21Z</time>
      </trkpt>
      <trkpt lat="47.64735" lon="6.48385">
        <ele>297.2</ele>
        <time>2025-09-13T13:01:22Z</time>
      </trkpt>
      <trkpt lat="47.64739" lon="6.48382">
        <ele>297.5</ele>
        <time>2025-09-13T13:01:23Z</time>
      </trkpt>
      <trkpt lat="47.64744" lon="6.48378">
        <ele>297.7</ele>
        <time>2025-09-13T13:01:24Z</time>
      </trkpt>
      <trkpt lat="47.64749" lon="6.48374">
        <ele>297.9</ele>
        <time>2025-09-13T13:01:25Z</time>
      </trkpt>
      <trkpt lat="47.64755" lon="6.48369">
        <ele>298.1</ele>
        <time>2025-09-13T13:01:26Z</time>
      </trkpt>
      <trkpt lat="47.64759" lon="6.48365">
        <ele>298.2</ele>
        <time>2025-09-13T13:01:27Z</time>
      </trkpt>
      <trkpt lat="47.64763" lon="6.48362">
        <ele>298.3</ele>
        <time>2025-09-13T13:01:28Z</time>
      </trkpt>
      <trkpt lat="47.64766" lon="6.48358">
        <ele>298.4</ele>
        <time>2025-09-13T13:01:29Z</time>
      </trkpt>
      <trkpt lat="47.6477" lon="6.48355">
        <ele>298.5</ele>
        <time>2025-09-13T13:01:30Z</time>
      </trkpt>
      <trkpt lat="47.64774" lon="6.48352">
        <ele>298.4</ele>
        <time>2025-09-13T13:01:31Z</time>
      </trkpt>
      <trkpt lat="47.64777" lon="6.48348">
        <ele>298.2</ele>
        <time>2025-09-13T13:01:32Z</time>
      </trkpt>
      <trkpt lat="47.6478" lon="6.48344">
        <ele>298.1</ele>
        <time>2025-09-13T13:01:33Z</time>
      </trkpt>
      <trkpt lat="47.64783" lon="6.48341">
        <ele>298</ele>
        <time>2025-09-13T13:01:34Z</time>
      </trkpt>
      <trkpt lat="47.64787" lon="6.48337">
        <ele>297.9</ele>
        <time>2025-09-13T13:01:35Z</time>
      </trkpt>
      <trkpt lat="47.64791" lon="6.48333">
        <ele>297.7</ele>
        <time>2025-09-13T13:01:36Z</time>
      </trkpt>
      <trkpt lat="47.64794" lon="6.48329">
        <ele>297.6</ele>
        <time>2025-09-13T13:01:37Z</time>
      </trkpt>
      <trkpt lat="47.64798" lon="6.48324">
        <ele>297.4</ele>
        <time>2025-09-13T13:01:38Z</time>
      </trkpt>
      <trkpt lat="47.64802" lon="6.48319">
        <ele>297.2</ele>
        <time>2025-09-13T13:01:39Z</time>
      </trkpt>
      <trkpt lat="47.64806" lon="6.48314">
        <ele>297</ele>
        <time>2025-09-13T13:01:40Z</time>
      </trkpt>
      <trkpt lat="47.64811" lon="6.48309">
        <ele>296.8</ele>
        <time>2025-09-13T13:01:41Z</time>
      </trkpt>
      <trkpt lat="47.64815" lon="6.48302">
        <ele>296.5</ele>
        <time>2025-09-13T13:01:42Z</time>
      </trkpt>
      <trkpt lat="47.64819" lon="6.48295">
        <ele>296.2</ele>
        <time>2025-09-13T13:01:43Z</time>
      </trkpt>
      <trkpt lat="47.64823" lon="6.48287">
        <ele>295.9</ele>
        <time>2025-09-13T13:01:44Z</time>
      </trkpt>
      <trkpt lat="47.64827" lon="6.4828">
        <ele>295.6</ele>
        <time>2025-09-13T13:01:45Z</time>
      </trkpt>
      <trkpt lat="47.6483" lon="6.48274">
        <ele>295.4</ele>
        <time>2025-09-13T13:01:46Z</time>
      </trkpt>
      <trkpt lat="47.64833" lon="6.48267">
        <ele>295.1</ele>
        <time>2025-09-13T13:01:47Z</time>
      </trkpt>
      <trkpt lat="47.64835" lon="6.4826">
        <ele>294.9</ele>
        <time>2025-09-13T13:01:48Z</time>
      </trkpt>
      <trkpt lat="47.64837" lon="6.48254">
        <ele>294.7</ele>
        <time>2025-09-13T13:01:49Z</time>
      </trkpt>
      <trkpt lat="47.6484" lon="6.48247">
        <ele>294.4</ele>
        <time>2025-09-13T13:01:50Z</time>
      </trkpt>
      <trkpt lat="47.64841" lon="6.48241">
        <ele>294.3</ele>
        <time>2025-09-13T13:01:51Z</time>
      </trkpt>
      <trkpt lat="47.64842" lon="6.48236">
        <ele>294.1</ele>
        <time>2025-09-13T13:01:52Z</time>
      </trkpt>
      <trkpt lat="47.64843" lon="6.48229">
        <ele>293.9</ele>
        <time>2025-09-13T13:01:53Z</time>
      </trkpt>
      <trkpt lat="47.64845" lon="6.48223">
        <ele>293.7</ele>
        <time>2025-09-13T13:01:54Z</time>
      </trkpt>
      <trkpt lat="47.64847" lon="6.48217">
        <ele>293.5</ele>
        <time>2025-09-13T13:01:55Z</time>
      </trkpt>
      <trkpt lat="47.64847" lon="6.48209">
        <ele>293.2</ele>
        <time>2025-09-13T13:01:56Z</time>
      </trkpt>
      <trkpt lat="47.64848" lon="6.48202">
        <ele>293</ele>
        <time>2025-09-13T13:01:57Z</time>
      </trkpt>
      <trkpt lat="47.64848" lon="6.48194">
        <ele>292.8</ele>
        <time>2025-09-13T13:01:58Z</time>
      </trkpt>
      <trkpt lat="47.64849" lon="6.48185">
        <ele>292.6</ele>
        <time>2025-09-13T13:01:59Z</time>
      </trkpt>
      <trkpt lat="47.64848" lon="6.48177">
        <ele>292.3</ele>
        <time>2025-09-13T13:02:00Z</time>
      </trkpt>
      <trkpt lat="47.64848" lon="6.48168">
        <ele>292.1</ele>
        <time>2025-09-13T13:02:01Z</time>
      </trkpt>
      <trkpt lat="47.64848" lon="6.4816">
        <ele>291.9</ele>
        <time>2025-09-13T13:02:02Z</time>
      </trkpt>
      <trkpt lat="47.64848" lon="6.4815">
        <ele>291.6</ele>
        <time>2025-09-13T13:02:03Z</time>
      </trkpt>
      <trkpt lat="47.64849" lon="6.4814">
        <ele>291.3</ele>
        <time>2025-09-13T13:02:04Z</time>
      </trkpt>
      <trkpt lat="47.64848" lon="6.48131">
        <ele>291.1</ele>
        <time>2025-09-13T13:02:05Z</time>
      </trkpt>
      <trkpt lat="47.64848" lon="6.48121">
        <ele>290.9</ele>
        <time>2025-09-13T13:02:06Z</time>
      </trkpt>
      <trkpt lat="47.64848" lon="6.48112">
        <ele>290.7</ele>
        <time>2025-09-13T13:02:07Z</time>
      </trkpt>
      <trkpt lat="47.64848" lon="6.48102">
        <ele>290.4</ele>
        <time>2025-09-13T13:02:08Z</time>
      </trkpt>
      <trkpt lat="47.64847" lon="6.48091">
        <ele>290.2</ele>
        <time>2025-09-13T13:02:09Z</time>
      </trkpt>
      <trkpt lat="47.64846" lon="6.48084">
        <ele>290</ele>
        <time>2025-09-13T13:02:10Z</time>
      </trkpt>
      <trkpt lat="47.64844" lon="6.48079">
        <ele>290</ele>
        <time>2025-09-13T13:02:11Z</time>
      </trkpt>
      <trkpt lat="47.64842" lon="6.48075">
        <ele>289.8</ele>
        <time>2025-09-13T13:02:12Z</time>
      </trkpt>
      <trkpt lat="47.64838" lon="6.48074">
        <ele>289.8</ele>
        <time>2025-09-13T13:02:13Z</time>
      </trkpt>
      <trkpt lat="47.64834" lon="6.48077">
        <ele>289.8</ele>
        <time>2025-09-13T13:02:14Z</time>
      </trkpt>
      <trkpt lat="47.6483" lon="6.4808">
        <ele>289.7</ele>
        <time>2025-09-13T13:02:15Z</time>
      </trkpt>
      <trkpt lat="47.64827" lon="6.48081">
        <ele>289.7</ele>
        <time>2025-09-13T13:02:16Z</time>
      </trkpt>
      <trkpt lat="47.64823" lon="6.48083">
        <ele>289.7</ele>
        <time>2025-09-13T13:02:17Z</time>
      </trkpt>
      <trkpt lat="47.64819" lon="6.48084">
        <ele>289.7</ele>
        <time>2025-09-13T13:02:18Z</time>
      </trkpt>
      <trkpt lat="47.64815" lon="6.48084">
        <ele>289.7</ele>
        <time>2025-09-13T13:02:19Z</time>
      </trkpt>
      <trkpt lat="47.6481" lon="6.48084">
        <ele>289.7</ele>
        <time>2025-09-13T13:02:20Z</time>
      </trkpt>
      <trkpt lat="47.64806" lon="6.48085">
        <ele>289.7</ele>
        <time>2025-09-13T13:02:21Z</time>
      </trkpt>
      <trkpt lat="47.64801" lon="6.48086">
        <ele>289.8</ele>
        <time>2025-09-13T13:02:22Z</time>
      </trkpt>
      <trkpt lat="47.64795" lon="6.48085">
        <ele>289.8</ele>
        <time>2025-09-13T13:02:23Z</time>
      </trkpt>
      <trkpt lat="47.6479" lon="6.48085">
        <ele>289.9</ele>
        <time>2025-09-13T13:02:24Z</time>
      </trkpt>
      <trkpt lat="47.64786" lon="6.48086">
        <ele>290</ele>
        <time>2025-09-13T13:02:25Z</time>
      </trkpt>
      <trkpt lat="47.64782" lon="6.48086">
        <ele>290</ele>
        <time>2025-09-13T13:02:26Z</time>
      </trkpt>
      <trkpt lat="47.64778" lon="6.48087">
        <ele>290.1</ele>
        <time>2025-09-13T13:02:27Z</time>
      </trkpt>
      <trkpt lat="47.64773" lon="6.48087">
        <ele>290.2</ele>
        <time>2025-09-13T13:02:28Z</time>
      </trkpt>
      <trkpt lat="47.64769" lon="6.48087">
        <ele>290.2</ele>
        <time>2025-09-13T13:02:29Z</time>
      </trkpt>
      <trkpt lat="47.64764" lon="6.48087">
        <ele>290.3</ele>
        <time>2025-09-13T13:02:30Z</time>
      </trkpt>
      <trkpt lat="47.64759" lon="6.48085">
        <ele>290.4</ele>
        <time>2025-09-13T13:02:31Z</time>
      </trkpt>
      <trkpt lat="47.64754" lon="6.48084">
        <ele>290.5</ele>
        <time>2025-09-13T13:02:32Z</time>
      </trkpt>
      <trkpt lat="47.6475" lon="6.48082">
        <ele>290.5</ele>
        <time>2025-09-13T13:02:33Z</time>
      </trkpt>
      <trkpt lat="47.64746" lon="6.48082">
        <ele>290.6</ele>
        <time>2025-09-13T13:02:34Z</time>
      </trkpt>
      <trkpt lat="47.64741" lon="6.48081">
        <ele>290.6</ele>
        <time>2025-09-13T13:02:35Z</time>
      </trkpt>
      <trkpt lat="47.64736" lon="6.4808">
        <ele>290.7</ele>
        <time>2025-09-13T13:02:36Z</time>
      </trkpt>
      <trkpt lat="47.64731" lon="6.48079">
        <ele>290.8</ele>
        <time>2025-09-13T13:02:37Z</time>
      </trkpt>
      <trkpt lat="47.64727" lon="6.48078">
        <ele>290.9</ele>
        <time>2025-09-13T13:02:38Z</time>
      </trkpt>
      <trkpt lat="47.64723" lon="6.48076">
        <ele>291</ele>
        <time>2025-09-13T13:02:39Z</time>
      </trkpt>
      <trkpt lat="47.64718" lon="6.48075">
        <ele>291.1</ele>
        <time>2025-09-13T13:02:40Z</time>
      </trkpt>
      <trkpt lat="47.64712" lon="6.48073">
        <ele>291.3</ele>
        <time>2025-09-13T13:02:41Z</time>
      </trkpt>
      <trkpt lat="47.64708" lon="6.4807">
        <ele>291.4</ele>
        <time>2025-09-13T13:02:42Z</time>
      </trkpt>
      <trkpt lat="47.64703" lon="6.48068">
        <ele>291.4</ele>
        <time>2025-09-13T13:02:43Z</time>
      </trkpt>
      <trkpt lat="47.64698" lon="6.48066">
        <ele>291.5</ele>
        <time>2025-09-13T13:02:44Z</time>
      </trkpt>
      <trkpt lat="47.64694" lon="6.48065">
        <ele>291.6</ele>
        <time>2025-09-13T13:02:45Z</time>
      </trkpt>
      <trkpt lat="47.64689" lon="6.48063">
        <ele>291.8</ele>
        <time>2025-09-13T13:02:46Z</time>
      </trkpt>
      <trkpt lat="47.64685" lon="6.48061">
        <ele>291.9</ele>
        <time>2025-09-13T13:02:47Z</time>
      </trkpt>
      <trkpt lat="47.6468" lon="6.48059">
        <ele>292.1</ele>
        <time>2025-09-13T13:02:48Z</time>
      </trkpt>
      <trkpt lat="47.64676" lon="6.48057">
        <ele>292.2</ele>
        <time>2025-09-13T13:02:49Z</time>
      </trkpt>
      <trkpt lat="47.64671" lon="6.48055">
        <ele>292.4</ele>
        <time>2025-09-13T13:02:50Z</time>
      </trkpt>
      <trkpt lat="47.64666" lon="6.48053">
        <ele>292.6</ele>
        <time>2025-09-13T13:02:51Z</time>
      </trkpt>
      <trkpt lat="47.64662" lon="6.48051">
        <ele>292.8</ele>
        <time>2025-09-13T13:02:52Z</time>
      </trkpt>
      <trkpt lat="47.64656" lon="6.4805">
        <ele>293.1</ele>
        <time>2025-09-13T13:02:53Z</time>
      </trkpt>
      <trkpt lat="47.64652" lon="6.48049">
        <ele>293.4</ele>
        <time>2025-09-13T13:02:54Z</time>
      </trkpt>
      <trkpt lat="47.64647" lon="6.48047">
        <ele>293.7</ele>
        <time>2025-09-13T13:02:55Z</time>
      </trkpt>
      <trkpt lat="47.64642" lon="6.48046">
        <ele>294</ele>
        <time>2025-09-13T13:02:56Z</time>
      </trkpt>
      <trkpt lat="47.64636" lon="6.48045">
        <ele>294.4</ele>
        <time>2025-09-13T13:02:57Z</time>
      </trkpt>
      <trkpt lat="47.64632" lon="6.48045">
        <ele>294.6</ele>
        <time>2025-09-13T13:02:58Z</time>
      </trkpt>
      <trkpt lat="47.64627" lon="6.48045">
        <ele>295</ele>
        <time>2025-09-13T13:02:59Z</time>
      </trkpt>
      <trkpt lat="47.64622" lon="6.48045">
        <ele>295.3</ele>
        <time>2025-09-13T13:03:00Z</time>
      </trkpt>
      <trkpt lat="47.64618" lon="6.48046">
        <ele>295.6</ele>
        <time>2025-09-13T13:03:01Z</time>
      </trkpt>
      <trkpt lat="47.64614" lon="6.48047">
        <ele>295.9</ele>
        <time>2025-09-13T13:03:02Z</time>
      </trkpt>
      <trkpt lat="47.64609" lon="6.48047">
        <ele>296.1</ele>
        <time>2025-09-13T13:03:03Z</time>
      </trkpt>
      <trkpt lat="47.64604" lon="6.48047">
        <ele>296.4</ele>
        <time>2025-09-13T13:03:04Z</time>
      </trkpt>
      <trkpt lat="47.646" lon="6.48047">
        <ele>296.7</ele>
        <time>2025-09-13T13:03:05Z</time>
      </trkpt>
      <trkpt lat="47.64596" lon="6.48047">
        <ele>296.9</ele>
        <time>2025-09-13T13:03:06Z</time>
      </trkpt>
      <trkpt lat="47.64591" lon="6.48048">
        <ele>297.2</ele>
        <time>2025-09-13T13:03:07Z</time>
      </trkpt>
      <trkpt lat="47.64586" lon="6.48049">
        <ele>297.4</ele>
        <time>2025-09-13T13:03:08Z</time>
      </trkpt>
      <trkpt lat="47.64582" lon="6.48051">
        <ele>297.6</ele>
        <time>2025-09-13T13:03:09Z</time>
      </trkpt>
      <trkpt lat="47.64577" lon="6.48053">
        <ele>297.9</ele>
        <time>2025-09-13T13:03:10Z</time>
      </trkpt>
      <trkpt lat="47.64573" lon="6.48054">
        <ele>298</ele>
        <time>2025-09-13T13:03:11Z</time>
      </trkpt>
      <trkpt lat="47.64568" lon="6.48057">
        <ele>298.2</ele>
        <time>2025-09-13T13:03:12Z</time>
      </trkpt>
      <trkpt lat="47.64563" lon="6.48058">
        <ele>298.4</ele>
        <time>2025-09-13T13:03:13Z</time>
      </trkpt>
      <trkpt lat="47.64559" lon="6.48059">
        <ele>298.6</ele>
        <time>2025-09-13T13:03:14Z</time>
      </trkpt>
      <trkpt lat="47.64554" lon="6.48061">
        <ele>298.7</ele>
        <time>2025-09-13T13:03:15Z</time>
      </trkpt>
      <trkpt lat="47.6455" lon="6.48063">
        <ele>298.9</ele>
        <time>2025-09-13T13:03:16Z</time>
      </trkpt>
      <trkpt lat="47.64545" lon="6.48065">
        <ele>299.1</ele>
        <time>2025-09-13T13:03:17Z</time>
      </trkpt>
      <trkpt lat="47.64541" lon="6.48067">
        <ele>299.2</ele>
        <time>2025-09-13T13:03:18Z</time>
      </trkpt>
      <trkpt lat="47.64537" lon="6.48068">
        <ele>299.3</ele>
        <time>2025-09-13T13:03:19Z</time>
      </trkpt>
      <trkpt lat="47.64532" lon="6.4807">
        <ele>299.5</ele>
        <time>2025-09-13T13:03:20Z</time>
      </trkpt>
      <trkpt lat="47.64527" lon="6.48071">
        <ele>299.7</ele>
        <time>2025-09-13T13:03:21Z</time>
      </trkpt>
      <trkpt lat="47.64522" lon="6.48073">
        <ele>299.8</ele>
        <time>2025-09-13T13:03:22Z</time>
      </trkpt>
      <trkpt lat="47.64518" lon="6.48075">
        <ele>300</ele>
        <time>2025-09-13T13:03:23Z</time>
      </trkpt>
      <trkpt lat="47.64513" lon="6.48077">
        <ele>300.2</ele>
        <time>2025-09-13T13:03:24Z</time>
      </trkpt>
      <trkpt lat="47.64508" lon="6.48079">
        <ele>300.3</ele>
        <time>2025-09-13T13:03:25Z</time>
      </trkpt>
      <trkpt lat="47.64503" lon="6.48081">
        <ele>300.5</ele>
        <time>2025-09-13T13:03:26Z</time>
      </trkpt>
      <trkpt lat="47.64498" lon="6.48082">
        <ele>300.6</ele>
        <time>2025-09-13T13:03:27Z</time>
      </trkpt>
      <trkpt lat="47.64492" lon="6.48084">
        <ele>300.8</ele>
        <time>2025-09-13T13:03:28Z</time>
      </trkpt>
      <trkpt lat="47.64488" lon="6.48086">
        <ele>300.9</ele>
        <time>2025-09-13T13:03:29Z</time>
      </trkpt>
      <trkpt lat="47.64483" lon="6.48088">
        <ele>301.1</ele>
        <time>2025-09-13T13:03:30Z</time>
      </trkpt>
      <trkpt lat="47.64478" lon="6.48091">
        <ele>301.2</ele>
        <time>2025-09-13T13:03:31Z</time>
      </trkpt>
      <trkpt lat="47.64471" lon="6.48095">
        <ele>301.4</ele>
        <time>2025-09-13T13:03:32Z</time>
      </trkpt>
      <trkpt lat="47.64467" lon="6.48098">
        <ele>301.6</ele>
        <time>2025-09-13T13:03:33Z</time>
      </trkpt>
      <trkpt lat="47.64463" lon="6.48099">
        <ele>301.7</ele>
        <time>2025-09-13T13:03:34Z</time>
      </trkpt>
      <trkpt lat="47.64459" lon="6.481">
        <ele>301.8</ele>
        <time>2025-09-13T13:03:35Z</time>
      </trkpt>
      <trkpt lat="47.64455" lon="6.48102">
        <ele>302</ele>
        <time>2025-09-13T13:03:36Z</time>
      </trkpt>
      <trkpt lat="47.6445" lon="6.48103">
        <ele>302.1</ele>
        <time>2025-09-13T13:03:37Z</time>
      </trkpt>
      <trkpt lat="47.64444" lon="6.48106">
        <ele>302.3</ele>
        <time>2025-09-13T13:03:38Z</time>
      </trkpt>
      <trkpt lat="47.64439" lon="6.48108">
        <ele>302.5</ele>
        <time>2025-09-13T13:03:39Z</time>
      </trkpt>
      <trkpt lat="47.64435" lon="6.48111">
        <ele>302.6</ele>
        <time>2025-09-13T13:03:40Z</time>
      </trkpt>
      <trkpt lat="47.6443" lon="6.48113">
        <ele>302.8</ele>
        <time>2025-09-13T13:03:41Z</time>
      </trkpt>
      <trkpt lat="47.64426" lon="6.48117">
        <ele>303</ele>
        <time>2025-09-13T13:03:42Z</time>
      </trkpt>
      <trkpt lat="47.64422" lon="6.48121">
        <ele>303.1</ele>
        <time>2025-09-13T13:03:43Z</time>
      </trkpt>
      <trkpt lat="47.64417" lon="6.48125">
        <ele>303.3</ele>
        <time>2025-09-13T13:03:44Z</time>
      </trkpt>
      <trkpt lat="47.64413" lon="6.48128">
        <ele>303.5</ele>
        <time>2025-09-13T13:03:45Z</time>
      </trkpt>
      <trkpt lat="47.64409" lon="6.48131">
        <ele>303.7</ele>
        <time>2025-09-13T13:03:46Z</time>
      </trkpt>
      <trkpt lat="47.64404" lon="6.48135">
        <ele>304</ele>
        <time>2025-09-13T13:03:47Z</time>
      </trkpt>
      <trkpt lat="47.644" lon="6.48139">
        <ele>304.3</ele>
        <time>2025-09-13T13:03:48Z</time>
      </trkpt>
      <trkpt lat="47.64396" lon="6.48143">
        <ele>304.5</ele>
        <time>2025-09-13T13:03:49Z</time>
      </trkpt>
      <trkpt lat="47.64392" lon="6.48146">
        <ele>304.8</ele>
        <time>2025-09-13T13:03:50Z</time>
      </trkpt>
      <trkpt lat="47.64388" lon="6.4815">
        <ele>305.1</ele>
        <time>2025-09-13T13:03:51Z</time>
      </trkpt>
      <trkpt lat="47.64384" lon="6.48151">
        <ele>305.3</ele>
        <time>2025-09-13T13:03:52Z</time>
      </trkpt>
      <trkpt lat="47.6438" lon="6.48155">
        <ele>305.6</ele>
        <time>2025-09-13T13:03:53Z</time>
      </trkpt>
      <trkpt lat="47.64376" lon="6.48161">
        <ele>305.9</ele>
        <time>2025-09-13T13:03:54Z</time>
      </trkpt>
      <trkpt lat="47.64372" lon="6.48164">
        <ele>306.1</ele>
        <time>2025-09-13T13:03:55Z</time>
      </trkpt>
      <trkpt lat="47.64369" lon="6.48167">
        <ele>306.3</ele>
        <time>2025-09-13T13:03:56Z</time>
      </trkpt>
      <trkpt lat="47.64364" lon="6.4817">
        <ele>306.5</ele>
        <time>2025-09-13T13:03:57Z</time>
      </trkpt>
      <trkpt lat="47.64361" lon="6.48173">
        <ele>306.7</ele>
        <time>2025-09-13T13:03:58Z</time>
      </trkpt>
      <trkpt lat="47.64356" lon="6.48177">
        <ele>306.9</ele>
        <time>2025-09-13T13:03:59Z</time>
      </trkpt>
      <trkpt lat="47.64351" lon="6.48179">
        <ele>307.1</ele>
        <time>2025-09-13T13:04:00Z</time>
      </trkpt>
      <trkpt lat="47.64347" lon="6.48181">
        <ele>307.3</ele>
        <time>2025-09-13T13:04:01Z</time>
      </trkpt>
      <trkpt lat="47.64341" lon="6.48183">
        <ele>307.5</ele>
        <time>2025-09-13T13:04:02Z</time>
      </trkpt>
      <trkpt lat="47.64336" lon="6.48185">
        <ele>307.7</ele>
        <time>2025-09-13T13:04:03Z</time>
      </trkpt>
      <trkpt lat="47.64331" lon="6.48187">
        <ele>308</ele>
        <time>2025-09-13T13:04:04Z</time>
      </trkpt>
      <trkpt lat="47.64326" lon="6.48188">
        <ele>308.2</ele>
        <time>2025-09-13T13:04:05Z</time>
      </trkpt>
      <trkpt lat="47.64319" lon="6.48187">
        <ele>308.6</ele>
        <time>2025-09-13T13:04:06Z</time>
      </trkpt>
      <trkpt lat="47.64315" lon="6.48188">
        <ele>308.8</ele>
        <time>2025-09-13T13:04:07Z</time>
      </trkpt>
      <trkpt lat="47.64311" lon="6.48186">
        <ele>309</ele>
        <time>2025-09-13T13:04:08Z</time>
      </trkpt>
      <trkpt lat="47.64307" lon="6.48185">
        <ele>309.1</ele>
        <time>2025-09-13T13:04:09Z</time>
      </trkpt>
      <trkpt lat="47.64303" lon="6.48187">
        <ele>309.3</ele>
        <time>2025-09-13T13:04:10Z</time>
      </trkpt>
      <trkpt lat="47.64298" lon="6.48186">
        <ele>309.5</ele>
        <time>2025-09-13T13:04:11Z</time>
      </trkpt>
      <trkpt lat="47.64291" lon="6.48184">
        <ele>309.8</ele>
        <time>2025-09-13T13:04:12Z</time>
      </trkpt>
      <trkpt lat="47.64285" lon="6.48183">
        <ele>309.9</ele>
        <time>2025-09-13T13:04:13Z</time>
      </trkpt>
      <trkpt lat="47.64279" lon="6.48181">
        <ele>310.1</ele>
        <time>2025-09-13T13:04:14Z</time>
      </trkpt>
      <trkpt lat="47.64274" lon="6.48183">
        <ele>310.2</ele>
        <time>2025-09-13T13:04:15Z</time>
      </trkpt>
      <trkpt lat="47.64269" lon="6.48182">
        <ele>310.3</ele>
        <time>2025-09-13T13:04:16Z</time>
      </trkpt>
      <trkpt lat="47.64265" lon="6.48182">
        <ele>310.3</ele>
        <time>2025-09-13T13:04:17Z</time>
      </trkpt>
      <trkpt lat="47.6426" lon="6.48182">
        <ele>310.4</ele>
        <time>2025-09-13T13:04:18Z</time>
      </trkpt>
      <trkpt lat="47.64255" lon="6.48182">
        <ele>310.4</ele>
        <time>2025-09-13T13:04:19Z</time>
      </trkpt>
      <trkpt lat="47.6425" lon="6.48181">
        <ele>310.5</ele>
        <time>2025-09-13T13:04:20Z</time>
      </trkpt>
      <trkpt lat="47.64246" lon="6.4818">
        <ele>310.5</ele>
        <time>2025-09-13T13:04:21Z</time>
      </trkpt>
      <trkpt lat="47.64241" lon="6.48179">
        <ele>310.5</ele>
        <time>2025-09-13T13:04:22Z</time>
      </trkpt>
      <trkpt lat="47.64237" lon="6.48179">
        <ele>310.5</ele>
        <time>2025-09-13T13:04:23Z</time>
      </trkpt>
      <trkpt lat="47.64232" lon="6.48177">
        <ele>310.5</ele>
        <time>2025-09-13T13:04:24Z</time>
      </trkpt>
      <trkpt lat="47.64227" lon="6.48176">
        <ele>310.5</ele>
        <time>2025-09-13T13:04:25Z</time>
      </trkpt>
      <trkpt lat="47.64222" lon="6.48174">
        <ele>310.5</ele>
        <time>2025-09-13T13:04:26Z</time>
      </trkpt>
      <trkpt lat="47.64216" lon="6.48171">
        <ele>310.5</ele>
        <time>2025-09-13T13:04:27Z</time>
      </trkpt>
      <trkpt lat="47.64212" lon="6.48169">
        <ele>310.4</ele>
        <time>2025-09-13T13:04:28Z</time>
      </trkpt>
      <trkpt lat="47.64207" lon="6.48167">
        <ele>310.4</ele>
        <time>2025-09-13T13:04:29Z</time>
      </trkpt>
      <trkpt lat="47.64202" lon="6.48166">
        <ele>310.3</ele>
        <time>2025-09-13T13:04:30Z</time>
      </trkpt>
      <trkpt lat="47.64197" lon="6.48164">
        <ele>310.2</ele>
        <time>2025-09-13T13:04:31Z</time>
      </trkpt>
      <trkpt lat="47.64192" lon="6.48163">
        <ele>310.2</ele>
        <time>2025-09-13T13:04:32Z</time>
      </trkpt>
      <trkpt lat="47.64187" lon="6.48161">
        <ele>310.1</ele>
        <time>2025-09-13T13:04:33Z</time>
      </trkpt>
      <trkpt lat="47.64182" lon="6.4816">
        <ele>310</ele>
        <time>2025-09-13T13:04:34Z</time>
      </trkpt>
      <trkpt lat="47.64177" lon="6.48158">
        <ele>309.9</ele>
        <time>2025-09-13T13:04:35Z</time>
      </trkpt>
      <trkpt lat="47.64172" lon="6.48156">
        <ele>309.8</ele>
        <time>2025-09-13T13:04:36Z</time>
      </trkpt>
      <trkpt lat="47.64167" lon="6.48154">
        <ele>309.7</ele>
        <time>2025-09-13T13:04:37Z</time>
      </trkpt>
      <trkpt lat="47.64162" lon="6.48153">
        <ele>309.6</ele>
        <time>2025-09-13T13:04:38Z</time>
      </trkpt>
      <trkpt lat="47.64156" lon="6.48151">
        <ele>309.5</ele>
        <time>2025-09-13T13:04:39Z</time>
      </trkpt>
      <trkpt lat="47.64152" lon="6.4815">
        <ele>309.5</ele>
        <time>2025-09-13T13:04:40Z</time>
      </trkpt>
      <trkpt lat="47.64147" lon="6.48147">
        <ele>309.4</ele>
        <time>2025-09-13T13:04:41Z</time>
      </trkpt>
      <trkpt lat="47.64142" lon="6.48146">
        <ele>309.4</ele>
        <time>2025-09-13T13:04:42Z</time>
      </trkpt>
      <trkpt lat="47.64138" lon="6.48144">
        <ele>309.4</ele>
        <time>2025-09-13T13:04:43Z</time>
      </trkpt>
      <trkpt lat="47.64133" lon="6.48143">
        <ele>309.3</ele>
        <time>2025-09-13T13:04:44Z</time>
      </trkpt>
      <trkpt lat="47.6413" lon="6.48141">
        <ele>309.3</ele>
        <time>2025-09-13T13:04:45Z</time>
      </trkpt>
      <trkpt lat="47.64124" lon="6.48139">
        <ele>309.3</ele>
        <time>2025-09-13T13:04:46Z</time>
      </trkpt>
      <trkpt lat="47.6412" lon="6.48138">
        <ele>309.3</ele>
        <time>2025-09-13T13:04:47Z</time>
      </trkpt>
      <trkpt lat="47.64116" lon="6.48136">
        <ele>309.3</ele>
        <time>2025-09-13T13:04:48Z</time>
      </trkpt>
      <trkpt lat="47.64112" lon="6.48134">
        <ele>309.3</ele>
        <time>2025-09-13T13:04:49Z</time>
      </trkpt>
      <trkpt lat="47.64107" lon="6.48132">
        <ele>309.2</ele>
        <time>2025-09-13T13:04:50Z</time>
      </trkpt>
      <trkpt lat="47.64103" lon="6.48131">
        <ele>309.2</ele>
        <time>2025-09-13T13:04:51Z</time>
      </trkpt>
      <trkpt lat="47.64099" lon="6.48129">
        <ele>309.1</ele>
        <time>2025-09-13T13:04:52Z</time>
      </trkpt>
      <trkpt lat="47.64094" lon="6.48128">
        <ele>309.1</ele>
        <time>2025-09-13T13:04:53Z</time>
      </trkpt>
      <trkpt lat="47.64089" lon="6.48126">
        <ele>309</ele>
        <time>2025-09-13T13:04:54Z</time>
      </trkpt>
      <trkpt lat="47.64084" lon="6.48124">
        <ele>309</ele>
        <time>2025-09-13T13:04:55Z</time>
      </trkpt>
      <trkpt lat="47.6408" lon="6.48123">
        <ele>308.9</ele>
        <time>2025-09-13T13:04:56Z</time>
      </trkpt>
      <trkpt lat="47.64075" lon="6.48121">
        <ele>308.9</ele>
        <time>2025-09-13T13:04:57Z</time>
      </trkpt>
      <trkpt lat="47.6407" lon="6.4812">
        <ele>308.8</ele>
        <time>2025-09-13T13:04:58Z</time>
      </trkpt>
      <trkpt lat="47.64065" lon="6.48118">
        <ele>308.8</ele>
        <time>2025-09-13T13:04:59Z</time>
      </trkpt>
      <trkpt lat="47.6406" lon="6.48117">
        <ele>308.8</ele>
        <time>2025-09-13T13:05:00Z</time>
      </trkpt>
      <trkpt lat="47.64055" lon="6.48115">
        <ele>308.7</ele>
        <time>2025-09-13T13:05:01Z</time>
      </trkpt>
      <trkpt lat="47.64051" lon="6.48114">
        <ele>308.7</ele>
        <time>2025-09-13T13:05:02Z</time>
      </trkpt>
      <trkpt lat="47.64046" lon="6.48112">
        <ele>308.7</ele>
        <time>2025-09-13T13:05:03Z</time>
      </trkpt>
      <trkpt lat="47.64041" lon="6.48111">
        <ele>308.7</ele>
        <time>2025-09-13T13:05:04Z</time>
      </trkpt>
      <trkpt lat="47.64036" lon="6.4811">
        <ele>308.7</ele>
        <time>2025-09-13T13:05:05Z</time>
      </trkpt>
      <trkpt lat="47.64032" lon="6.48108">
        <ele>308.7</ele>
        <time>2025-09-13T13:05:06Z</time>
      </trkpt>
      <trkpt lat="47.64027" lon="6.48105">
        <ele>308.7</ele>
        <time>2025-09-13T13:05:07Z</time>
      </trkpt>
      <trkpt lat="47.64022" lon="6.48103">
        <ele>308.7</ele>
        <time>2025-09-13T13:05:08Z</time>
      </trkpt>
      <trkpt lat="47.64017" lon="6.48102">
        <ele>308.7</ele>
        <time>2025-09-13T13:05:09Z</time>
      </trkpt>
      <trkpt lat="47.64013" lon="6.481">
        <ele>308.7</ele>
        <time>2025-09-13T13:05:10Z</time>
      </trkpt>
      <trkpt lat="47.64008" lon="6.48099">
        <ele>308.7</ele>
        <time>2025-09-13T13:05:11Z</time>
      </trkpt>
      <trkpt lat="47.64003" lon="6.48096">
        <ele>308.7</ele>
        <time>2025-09-13T13:05:12Z</time>
      </trkpt>
      <trkpt lat="47.63998" lon="6.48095">
        <ele>308.8</ele>
        <time>2025-09-13T13:05:13Z</time>
      </trkpt>
      <trkpt lat="47.63993" lon="6.48093">
        <ele>308.8</ele>
        <time>2025-09-13T13:05:14Z</time>
      </trkpt>
      <trkpt lat="47.63988" lon="6.48092">
        <ele>308.8</ele>
        <time>2025-09-13T13:05:15Z</time>
      </trkpt>
      <trkpt lat="47.63984" lon="6.4809">
        <ele>308.8</ele>
        <time>2025-09-13T13:05:16Z</time>
      </trkpt>
      <trkpt lat="47.63979" lon="6.48089">
        <ele>308.8</ele>
        <time>2025-09-13T13:05:17Z</time>
      </trkpt>
      <trkpt lat="47.63974" lon="6.48086">
        <ele>308.8</ele>
        <time>2025-09-13T13:05:18Z</time>
      </trkpt>
      <trkpt lat="47.63969" lon="6.48084">
        <ele>308.9</ele>
        <time>2025-09-13T13:05:19Z</time>
      </trkpt>
      <trkpt lat="47.63964" lon="6.48082">
        <ele>308.9</ele>
        <time>2025-09-13T13:05:20Z</time>
      </trkpt>
      <trkpt lat="47.63958" lon="6.4808">
        <ele>308.9</ele>
        <time>2025-09-13T13:05:21Z</time>
      </trkpt>
      <trkpt lat="47.63954" lon="6.48078">
        <ele>308.9</ele>
        <time>2025-09-13T13:05:22Z</time>
      </trkpt>
      <trkpt lat="47.63949" lon="6.48075">
        <ele>308.8</ele>
        <time>2025-09-13T13:05:23Z</time>
      </trkpt>
      <trkpt lat="47.63944" lon="6.48072">
        <ele>308.8</ele>
        <time>2025-09-13T13:05:24Z</time>
      </trkpt>
      <trkpt lat="47.63938" lon="6.48068">
        <ele>308.7</ele>
        <time>2025-09-13T13:05:25Z</time>
      </trkpt>
      <trkpt lat="47.63933" lon="6.48063">
        <ele>308.6</ele>
        <time>2025-09-13T13:05:26Z</time>
      </trkpt>
      <trkpt lat="47.63927" lon="6.48058">
        <ele>308.5</ele>
        <time>2025-09-13T13:05:27Z</time>
      </trkpt>
      <trkpt lat="47.63922" lon="6.48053">
        <ele>308.4</ele>
        <time>2025-09-13T13:05:28Z</time>
      </trkpt>
      <trkpt lat="47.63916" lon="6.48046">
        <ele>308.3</ele>
        <time>2025-09-13T13:05:29Z</time>
      </trkpt>
      <trkpt lat="47.63912" lon="6.48039">
        <ele>308.2</ele>
        <time>2025-09-13T13:05:30Z</time>
      </trkpt>
      <trkpt lat="47.63907" lon="6.48032">
        <ele>308.1</ele>
        <time>2025-09-13T13:05:31Z</time>
      </trkpt>
      <trkpt lat="47.63902" lon="6.48023">
        <ele>307.9</ele>
        <time>2025-09-13T13:05:32Z</time>
      </trkpt>
      <trkpt lat="47.63897" lon="6.48016">
        <ele>307.8</ele>
        <time>2025-09-13T13:05:33Z</time>
      </trkpt>
      <trkpt lat="47.63892" lon="6.48008">
        <ele>307.6</ele>
        <time>2025-09-13T13:05:34Z</time>
      </trkpt>
      <trkpt lat="47.63887" lon="6.48001">
        <ele>307.4</ele>
        <time>2025-09-13T13:05:35Z</time>
      </trkpt>
      <trkpt lat="47.63882" lon="6.47995">
        <ele>307.3</ele>
        <time>2025-09-13T13:05:36Z</time>
      </trkpt>
      <trkpt lat="47.63877" lon="6.47987">
        <ele>307.1</ele>
        <time>2025-09-13T13:05:37Z</time>
      </trkpt>
      <trkpt lat="47.63874" lon="6.4798">
        <ele>306.9</ele>
        <time>2025-09-13T13:05:38Z</time>
      </trkpt>
      <trkpt lat="47.63868" lon="6.47972">
        <ele>306.7</ele>
        <time>2025-09-13T13:05:39Z</time>
      </trkpt>
      <trkpt lat="47.63863" lon="6.47964">
        <ele>306.4</ele>
        <time>2025-09-13T13:05:40Z</time>
      </trkpt>
      <trkpt lat="47.63858" lon="6.47956">
        <ele>306.1</ele>
        <time>2025-09-13T13:05:41Z</time>
      </trkpt>
      <trkpt lat="47.63853" lon="6.4795">
        <ele>305.9</ele>
        <time>2025-09-13T13:05:42Z</time>
      </trkpt>
      <trkpt lat="47.63847" lon="6.47943">
        <ele>305.6</ele>
        <time>2025-09-13T13:05:43Z</time>
      </trkpt>
      <trkpt lat="47.63843" lon="6.47934">
        <ele>305.3</ele>
        <time>2025-09-13T13:05:44Z</time>
      </trkpt>
      <trkpt lat="47.63836" lon="6.47927">
        <ele>305</ele>
        <time>2025-09-13T13:05:45Z</time>
      </trkpt>
      <trkpt lat="47.63831" lon="6.47918">
        <ele>304.7</ele>
        <time>2025-09-13T13:05:46Z</time>
      </trkpt>
      <trkpt lat="47.63824" lon="6.47911">
        <ele>304.3</ele>
        <time>2025-09-13T13:05:47Z</time>
      </trkpt>
      <trkpt lat="47.6382" lon="6.479">
        <ele>304</ele>
        <time>2025-09-13T13:05:48Z</time>
      </trkpt>
      <trkpt lat="47.63814" lon="6.47891">
        <ele>303.6</ele>
        <time>2025-09-13T13:05:49Z</time>
      </trkpt>
      <trkpt lat="47.63808" lon="6.47882">
        <ele>303.3</ele>
        <time>2025-09-13T13:05:50Z</time>
      </trkpt>
      <trkpt lat="47.63802" lon="6.47873">
        <ele>302.9</ele>
        <time>2025-09-13T13:05:51Z</time>
      </trkpt>
      <trkpt lat="47.63795" lon="6.47864">
        <ele>302.6</ele>
        <time>2025-09-13T13:05:52Z</time>
      </trkpt>
      <trkpt lat="47.63789" lon="6.47856">
        <ele>302.3</ele>
        <time>2025-09-13T13:05:53Z</time>
      </trkpt>
      <trkpt lat="47.63783" lon="6.47846">
        <ele>302</ele>
        <time>2025-09-13T13:05:54Z</time>
      </trkpt>
      <trkpt lat="47.63778" lon="6.47837">
        <ele>301.7</ele>
        <time>2025-09-13T13:05:55Z</time>
      </trkpt>
      <trkpt lat="47.63772" lon="6.47828">
        <ele>301.5</ele>
        <time>2025-09-13T13:05:56Z</time>
      </trkpt>
      <trkpt lat="47.63765" lon="6.4782">
        <ele>301.2</ele>
        <time>2025-09-13T13:05:57Z</time>
      </trkpt>
      <trkpt lat="47.63761" lon="6.4781">
        <ele>300.9</ele>
        <time>2025-09-13T13:05:58Z</time>
      </trkpt>
      <trkpt lat="47.63755" lon="6.47801">
        <ele>300.7</ele>
        <time>2025-09-13T13:05:59Z</time>
      </trkpt>
      <trkpt lat="47.63749" lon="6.47792">
        <ele>300.4</ele>
        <time>2025-09-13T13:06:00Z</time>
      </trkpt>
      <trkpt lat="47.63744" lon="6.47784">
        <ele>300.1</ele>
        <time>2025-09-13T13:06:01Z</time>
      </trkpt>
      <trkpt lat="47.63738" lon="6.47777">
        <ele>299.9</ele>
        <time>2025-09-13T13:06:02Z</time>
      </trkpt>
      <trkpt lat="47.6373" lon="6.47769">
        <ele>299.6</ele>
        <time>2025-09-13T13:06:03Z</time>
      </trkpt>
      <trkpt lat="47.63726" lon="6.4776">
        <ele>299.4</ele>
        <time>2025-09-13T13:06:04Z</time>
      </trkpt>
      <trkpt lat="47.63721" lon="6.47752">
        <ele>299.3</ele>
        <time>2025-09-13T13:06:05Z</time>
      </trkpt>
      <trkpt lat="47.63715" lon="6.47742">
        <ele>299</ele>
        <time>2025-09-13T13:06:06Z</time>
      </trkpt>
      <trkpt lat="47.63709" lon="6.47732">
        <ele>298.7</ele>
        <time>2025-09-13T13:06:07Z</time>
      </trkpt>
      <trkpt lat="47.63703" lon="6.47724">
        <ele>298.4</ele>
        <time>2025-09-13T13:06:08Z</time>
      </trkpt>
      <trkpt lat="47.63698" lon="6.47714">
        <ele>298.1</ele>
        <time>2025-09-13T13:06:09Z</time>
      </trkpt>
      <trkpt lat="47.63691" lon="6.47706">
        <ele>297.8</ele>
        <time>2025-09-13T13:06:10Z</time>
      </trkpt>
      <trkpt lat="47.63685" lon="6.47697">
        <ele>297.5</ele>
        <time>2025-09-13T13:06:11Z</time>
      </trkpt>
      <trkpt lat="47.63679" lon="6.47688">
        <ele>297.3</ele>
        <time>2025-09-13T13:06:12Z</time>
      </trkpt>
      <trkpt lat="47.63673" lon="6.47678">
        <ele>296.9</ele>
        <time>2025-09-13T13:06:13Z</time>
      </trkpt>
      <trkpt lat="47.63667" lon="6.47669">
        <ele>296.6</ele>
        <time>2025-09-13T13:06:14Z</time>
      </trkpt>
      <trkpt lat="47.63661" lon="6.4766">
        <ele>296.2</ele>
        <time>2025-09-13T13:06:15Z</time>
      </trkpt>
      <trkpt lat="47.63655" lon="6.47653">
        <ele>295.8</ele>
        <time>2025-09-13T13:06:16Z</time>
      </trkpt>
      <trkpt lat="47.63648" lon="6.47645">
        <ele>295.5</ele>
        <time>2025-09-13T13:06:17Z</time>
      </trkpt>
      <trkpt lat="47.63641" lon="6.47638">
        <ele>295.2</ele>
        <time>2025-09-13T13:06:18Z</time>
      </trkpt>
      <trkpt lat="47.63634" lon="6.4763">
        <ele>294.9</ele>
        <time>2025-09-13T13:06:19Z</time>
      </trkpt>
      <trkpt lat="47.63627" lon="6.47623">
        <ele>294.7</ele>
        <time>2025-09-13T13:06:20Z</time>
      </trkpt>
      <trkpt lat="47.63619" lon="6.47617">
        <ele>294.4</ele>
        <time>2025-09-13T13:06:21Z</time>
      </trkpt>
      <trkpt lat="47.63611" lon="6.47611">
        <ele>294.2</ele>
        <time>2025-09-13T13:06:22Z</time>
      </trkpt>
      <trkpt lat="47.63604" lon="6.47606">
        <ele>294</ele>
        <time>2025-09-13T13:06:23Z</time>
      </trkpt>
      <trkpt lat="47.63596" lon="6.47601">
        <ele>293.7</ele>
        <time>2025-09-13T13:06:24Z</time>
      </trkpt>
      <trkpt lat="47.63589" lon="6.47595">
        <ele>293.4</ele>
        <time>2025-09-13T13:06:25Z</time>
      </trkpt>
      <trkpt lat="47.63582" lon="6.47589">
        <ele>293.1</ele>
        <time>2025-09-13T13:06:26Z</time>
      </trkpt>
      <trkpt lat="47.63575" lon="6.47584">
        <ele>292.8</ele>
        <time>2025-09-13T13:06:27Z</time>
      </trkpt>
      <trkpt lat="47.63568" lon="6.47577">
        <ele>292.5</ele>
        <time>2025-09-13T13:06:28Z</time>
      </trkpt>
      <trkpt lat="47.6356" lon="6.47573">
        <ele>292.1</ele>
        <time>2025-09-13T13:06:29Z</time>
      </trkpt>
      <trkpt lat="47.63552" lon="6.47568">
        <ele>291.7</ele>
        <time>2025-09-13T13:06:30Z</time>
      </trkpt>
      <trkpt lat="47.63546" lon="6.47563">
        <ele>291.3</ele>
        <time>2025-09-13T13:06:31Z</time>
      </trkpt>
      <trkpt lat="47.63538" lon="6.47557">
        <ele>290.8</ele>
        <time>2025-09-13T13:06:32Z</time>
      </trkpt>
      <trkpt lat="47.63531" lon="6.47551">
        <ele>290.4</ele>
        <time>2025-09-13T13:06:33Z</time>
      </trkpt>
      <trkpt lat="47.63522" lon="6.47546">
        <ele>289.8</ele>
        <time>2025-09-13T13:06:34Z</time>
      </trkpt>
      <trkpt lat="47.63514" lon="6.4754">
        <ele>289.3</ele>
        <time>2025-09-13T13:06:35Z</time>
      </trkpt>
      <trkpt lat="47.63506" lon="6.47535">
        <ele>288.7</ele>
        <time>2025-09-13T13:06:36Z</time>
      </trkpt>
      <trkpt lat="47.63497" lon="6.4753">
        <ele>288.2</ele>
        <time>2025-09-13T13:06:37Z</time>
      </trkpt>
      <trkpt lat="47.63488" lon="6.47524">
        <ele>287.6</ele>
        <time>2025-09-13T13:06:38Z</time>
      </trkpt>
      <trkpt lat="47.6348" lon="6.47519">
        <ele>287.1</ele>
        <time>2025-09-13T13:06:39Z</time>
      </trkpt>
      <trkpt lat="47.63471" lon="6.47514">
        <ele>286.5</ele>
        <time>2025-09-13T13:06:40Z</time>
      </trkpt>
      <trkpt lat="47.63462" lon="6.47508">
        <ele>285.8</ele>
        <time>2025-09-13T13:06:41Z</time>
      </trkpt>
      <trkpt lat="47.63452" lon="6.47503">
        <ele>285.2</ele>
        <time>2025-09-13T13:06:42Z</time>
      </trkpt>
      <trkpt lat="47.63444" lon="6.47496">
        <ele>284.5</ele>
        <time>2025-09-13T13:06:43Z</time>
      </trkpt>
      <trkpt lat="47.63434" lon="6.4749">
        <ele>283.9</ele>
        <time>2025-09-13T13:06:44Z</time>
      </trkpt>
      <trkpt lat="47.63425" lon="6.47486">
        <ele>283.3</ele>
        <time>2025-09-13T13:06:45Z</time>
      </trkpt>
      <trkpt lat="47.63415" lon="6.4748">
        <ele>282.8</ele>
        <time>2025-09-13T13:06:46Z</time>
      </trkpt>
      <trkpt lat="47.63406" lon="6.47474">
        <ele>282.3</ele>
        <time>2025-09-13T13:06:47Z</time>
      </trkpt>
      <trkpt lat="47.63396" lon="6.47471">
        <ele>281.9</ele>
        <time>2025-09-13T13:06:48Z</time>
      </trkpt>
      <trkpt lat="47.63386" lon="6.47469">
        <ele>281.5</ele>
        <time>2025-09-13T13:06:49Z</time>
      </trkpt>
      <trkpt lat="47.63376" lon="6.47468">
        <ele>281.3</ele>
        <time>2025-09-13T13:06:50Z</time>
      </trkpt>
      <trkpt lat="47.63366" lon="6.47468">
        <ele>281.1</ele>
        <time>2025-09-13T13:06:51Z</time>
      </trkpt>
      <trkpt lat="47.63356" lon="6.47463">
        <ele>281</ele>
        <time>2025-09-13T13:06:52Z</time>
      </trkpt>
      <trkpt lat="47.63348" lon="6.47455">
        <ele>281.1</ele>
        <time>2025-09-13T13:06:53Z</time>
      </trkpt>
      <trkpt lat="47.63342" lon="6.47444">
        <ele>281.2</ele>
        <time>2025-09-13T13:06:54Z</time>
      </trkpt>
      <trkpt lat="47.6334" lon="6.47436">
        <ele>281.2</ele>
        <time>2025-09-13T13:06:55Z</time>
      </trkpt>
      <trkpt lat="47.63337" lon="6.47427">
        <ele>281.3</ele>
        <time>2025-09-13T13:06:56Z</time>
      </trkpt>
      <trkpt lat="47.63334" lon="6.47419">
        <ele>281.2</ele>
        <time>2025-09-13T13:06:57Z</time>
      </trkpt>
      <trkpt lat="47.63331" lon="6.47411">
        <ele>281.2</ele>
        <time>2025-09-13T13:06:58Z</time>
      </trkpt>
      <trkpt lat="47.63327" lon="6.47404">
        <ele>281.1</ele>
        <time>2025-09-13T13:06:59Z</time>
      </trkpt>
      <trkpt lat="47.6332" lon="6.474">
        <ele>281.1</ele>
        <time>2025-09-13T13:07:00Z</time>
      </trkpt>
      <trkpt lat="47.63313" lon="6.47398">
        <ele>281</ele>
        <time>2025-09-13T13:07:01Z</time>
      </trkpt>
      <trkpt lat="47.63305" lon="6.47398">
        <ele>281</ele>
        <time>2025-09-13T13:07:02Z</time>
      </trkpt>
      <trkpt lat="47.63298" lon="6.474">
        <ele>280.9</ele>
        <time>2025-09-13T13:07:03Z</time>
      </trkpt>
      <trkpt lat="47.63291" lon="6.47403">
        <ele>280.9</ele>
        <time>2025-09-13T13:07:04Z</time>
      </trkpt>
      <trkpt lat="47.63284" lon="6.47406">
        <ele>280.8</ele>
        <time>2025-09-13T13:07:05Z</time>
      </trkpt>
      <trkpt lat="47.63277" lon="6.47407">
        <ele>280.8</ele>
        <time>2025-09-13T13:07:06Z</time>
      </trkpt>
      <trkpt lat="47.6327" lon="6.47409">
        <ele>280.8</ele>
        <time>2025-09-13T13:07:07Z</time>
      </trkpt>
      <trkpt lat="47.63264" lon="6.47411">
        <ele>280.7</ele>
        <time>2025-09-13T13:07:08Z</time>
      </trkpt>
      <trkpt lat="47.63258" lon="6.47413">
        <ele>280.7</ele>
        <time>2025-09-13T13:07:09Z</time>
      </trkpt>
      <trkpt lat="47.63252" lon="6.47416">
        <ele>280.7</ele>
        <time>2025-09-13T13:07:10Z</time>
      </trkpt>
      <trkpt lat="47.63245" lon="6.47417">
        <ele>280.6</ele>
        <time>2025-09-13T13:07:11Z</time>
      </trkpt>
      <trkpt lat="47.63239" lon="6.47418">
        <ele>280.6</ele>
        <time>2025-09-13T13:07:12Z</time>
      </trkpt>
      <trkpt lat="47.63232" lon="6.47417">
        <ele>280.5</ele>
        <time>2025-09-13T13:07:13Z</time>
      </trkpt>
      <trkpt lat="47.63225" lon="6.47413">
        <ele>280.5</ele>
        <time>2025-09-13T13:07:14Z</time>
      </trkpt>
      <trkpt lat="47.63218" lon="6.47407">
        <ele>280.4</ele>
        <time>2025-09-13T13:07:15Z</time>
      </trkpt>
      <trkpt lat="47.63214" lon="6.474">
        <ele>280.2</ele>
        <time>2025-09-13T13:07:16Z</time>
      </trkpt>
      <trkpt lat="47.63211" lon="6.47391">
        <ele>280.1</ele>
        <time>2025-09-13T13:07:17Z</time>
      </trkpt>
      <trkpt lat="47.63209" lon="6.47381">
        <ele>280</ele>
        <time>2025-09-13T13:07:18Z</time>
      </trkpt>
      <trkpt lat="47.63208" lon="6.4737">
        <ele>280</ele>
        <time>2025-09-13T13:07:19Z</time>
      </trkpt>
      <trkpt lat="47.63205" lon="6.4736">
        <ele>279.9</ele>
        <time>2025-09-13T13:07:20Z</time>
      </trkpt>
      <trkpt lat="47.63201" lon="6.47351">
        <ele>279.8</ele>
        <time>2025-09-13T13:07:21Z</time>
      </trkpt>
      <trkpt lat="47.63195" lon="6.47343">
        <ele>279.8</ele>
        <time>2025-09-13T13:07:22Z</time>
      </trkpt>
      <trkpt lat="47.63189" lon="6.47337">
        <ele>279.8</ele>
        <time>2025-09-13T13:07:23Z</time>
      </trkpt>
      <trkpt lat="47.63183" lon="6.47332">
        <ele>279.8</ele>
        <time>2025-09-13T13:07:24Z</time>
      </trkpt>
      <trkpt lat="47.63177" lon="6.47329">
        <ele>279.8</ele>
        <time>2025-09-13T13:07:25Z</time>
      </trkpt>
      <trkpt lat="47.6317" lon="6.47327">
        <ele>279.8</ele>
        <time>2025-09-13T13:07:26Z</time>
      </trkpt>
      <trkpt lat="47.63162" lon="6.47325">
        <ele>279.8</ele>
        <time>2025-09-13T13:07:27Z</time>
      </trkpt>
      <trkpt lat="47.63155" lon="6.47322">
        <ele>279.7</ele>
        <time>2025-09-13T13:07:28Z</time>
      </trkpt>
      <trkpt lat="47.63149" lon="6.4732">
        <ele>279.7</ele>
        <time>2025-09-13T13:07:29Z</time>
      </trkpt>
      <trkpt lat="47.63142" lon="6.47317">
        <ele>279.7</ele>
        <time>2025-09-13T13:07:30Z</time>
      </trkpt>
      <trkpt lat="47.63136" lon="6.47314">
        <ele>279.7</ele>
        <time>2025-09-13T13:07:31Z</time>
      </trkpt>
      <trkpt lat="47.6313" lon="6.47309">
        <ele>279.7</ele>
        <time>2025-09-13T13:07:32Z</time>
      </trkpt>
      <trkpt lat="47.63124" lon="6.47306">
        <ele>279.6</ele>
        <time>2025-09-13T13:07:33Z</time>
      </trkpt>
      <trkpt lat="47.63118" lon="6.47301">
        <ele>279.6</ele>
        <time>2025-09-13T13:07:34Z</time>
      </trkpt>
      <trkpt lat="47.63112" lon="6.47297">
        <ele>279.6</ele>
        <time>2025-09-13T13:07:35Z</time>
      </trkpt>
      <trkpt lat="47.63106" lon="6.47293">
        <ele>279.5</ele>
        <time>2025-09-13T13:07:36Z</time>
      </trkpt>
      <trkpt lat="47.631" lon="6.47288">
        <ele>279.5</ele>
        <time>2025-09-13T13:07:37Z</time>
      </trkpt>
      <trkpt lat="47.63093" lon="6.47282">
        <ele>279.5</ele>
        <time>2025-09-13T13:07:38Z</time>
      </trkpt>
      <trkpt lat="47.63088" lon="6.47277">
        <ele>279.4</ele>
        <time>2025-09-13T13:07:39Z</time>
      </trkpt>
      <trkpt lat="47.63082" lon="6.4727">
        <ele>279.4</ele>
        <time>2025-09-13T13:07:40Z</time>
      </trkpt>
      <trkpt lat="47.63077" lon="6.47263">
        <ele>279.4</ele>
        <time>2025-09-13T13:07:41Z</time>
      </trkpt>
      <trkpt lat="47.63073" lon="6.47256">
        <ele>279.3</ele>
        <time>2025-09-13T13:07:42Z</time>
      </trkpt>
      <trkpt lat="47.63068" lon="6.47248">
        <ele>279.3</ele>
        <time>2025-09-13T13:07:43Z</time>
      </trkpt>
      <trkpt lat="47.63064" lon="6.4724">
        <ele>279.2</ele>
        <time>2025-09-13T13:07:44Z</time>
      </trkpt>
      <trkpt lat="47.6306" lon="6.47232">
        <ele>279.2</ele>
        <time>2025-09-13T13:07:45Z</time>
      </trkpt>
      <trkpt lat="47.63057" lon="6.47224">
        <ele>279.1</ele>
        <time>2025-09-13T13:07:46Z</time>
      </trkpt>
      <trkpt lat="47.63052" lon="6.47217">
        <ele>279.1</ele>
        <time>2025-09-13T13:07:47Z</time>
      </trkpt>
      <trkpt lat="47.63048" lon="6.47209">
        <ele>279.1</ele>
        <time>2025-09-13T13:07:48Z</time>
      </trkpt>
      <trkpt lat="47.63044" lon="6.47201">
        <ele>279.1</ele>
        <time>2025-09-13T13:07:49Z</time>
      </trkpt>
      <trkpt lat="47.63039" lon="6.47195">
        <ele>279.1</ele>
        <time>2025-09-13T13:07:50Z</time>
      </trkpt>
      <trkpt lat="47.63035" lon="6.47188">
        <ele>279.1</ele>
        <time>2025-09-13T13:07:51Z</time>
      </trkpt>
      <trkpt lat="47.6303" lon="6.47183">
        <ele>279.1</ele>
        <time>2025-09-13T13:07:52Z</time>
      </trkpt>
      <trkpt lat="47.63026" lon="6.47178">
        <ele>279.1</ele>
        <time>2025-09-13T13:07:53Z</time>
      </trkpt>
      <trkpt lat="47.6302" lon="6.47173">
        <ele>279.1</ele>
        <time>2025-09-13T13:07:54Z</time>
      </trkpt>
      <trkpt lat="47.63016" lon="6.47168">
        <ele>279.1</ele>
        <time>2025-09-13T13:07:55Z</time>
      </trkpt>
      <trkpt lat="47.6301" lon="6.47163">
        <ele>279.1</ele>
        <time>2025-09-13T13:07:56Z</time>
      </trkpt>
      <trkpt lat="47.63006" lon="6.47158">
        <ele>279.1</ele>
        <time>2025-09-13T13:07:57Z</time>
      </trkpt>
      <trkpt lat="47.63" lon="6.47153">
        <ele>279.1</ele>
        <time>2025-09-13T13:07:58Z</time>
      </trkpt>
      <trkpt lat="47.62996" lon="6.47148">
        <ele>279.1</ele>
        <time>2025-09-13T13:07:59Z</time>
      </trkpt>
      <trkpt lat="47.62991" lon="6.47143">
        <ele>279.1</ele>
        <time>2025-09-13T13:08:00Z</time>
      </trkpt>
      <trkpt lat="47.62986" lon="6.47138">
        <ele>279.1</ele>
        <time>2025-09-13T13:08:01Z</time>
      </trkpt>
      <trkpt lat="47.62981" lon="6.47134">
        <ele>279.1</ele>
        <time>2025-09-13T13:08:02Z</time>
      </trkpt>
      <trkpt lat="47.62977" lon="6.47129">
        <ele>279</ele>
        <time>2025-09-13T13:08:03Z</time>
      </trkpt>
      <trkpt lat="47.62972" lon="6.47124">
        <ele>279</ele>
        <time>2025-09-13T13:08:04Z</time>
      </trkpt>
      <trkpt lat="47.62967" lon="6.47119">
        <ele>279</ele>
        <time>2025-09-13T13:08:05Z</time>
      </trkpt>
      <trkpt lat="47.62963" lon="6.47114">
        <ele>279</ele>
        <time>2025-09-13T13:08:06Z</time>
      </trkpt>
      <trkpt lat="47.62957" lon="6.47109">
        <ele>279</ele>
        <time>2025-09-13T13:08:07Z</time>
      </trkpt>
      <trkpt lat="47.62953" lon="6.47104">
        <ele>279</ele>
        <time>2025-09-13T13:08:08Z</time>
      </trkpt>
      <trkpt lat="47.62947" lon="6.47099">
        <ele>279</ele>
        <time>2025-09-13T13:08:09Z</time>
      </trkpt>
      <trkpt lat="47.62942" lon="6.47094">
        <ele>279</ele>
        <time>2025-09-13T13:08:10Z</time>
      </trkpt>
      <trkpt lat="47.62938" lon="6.47089">
        <ele>279</ele>
        <time>2025-09-13T13:08:11Z</time>
      </trkpt>
      <trkpt lat="47.62931" lon="6.47086">
        <ele>279</ele>
        <time>2025-09-13T13:08:12Z</time>
      </trkpt>
      <trkpt lat="47.62927" lon="6.47081">
        <ele>279</ele>
        <time>2025-09-13T13:08:13Z</time>
      </trkpt>
      <trkpt lat="47.62922" lon="6.47076">
        <ele>279</ele>
        <time>2025-09-13T13:08:14Z</time>
      </trkpt>
      <trkpt lat="47.62916" lon="6.47071">
        <ele>279</ele>
        <time>2025-09-13T13:08:15Z</time>
      </trkpt>
      <trkpt lat="47.6291" lon="6.47067">
        <ele>279</ele>
        <time>2025-09-13T13:08:16Z</time>
      </trkpt>
      <trkpt lat="47.62905" lon="6.47062">
        <ele>279</ele>
        <time>2025-09-13T13:08:17Z</time>
      </trkpt>
      <trkpt lat="47.629" lon="6.47057">
        <ele>278.9</ele>
        <time>2025-09-13T13:08:18Z</time>
      </trkpt>
      <trkpt lat="47.62894" lon="6.47051">
        <ele>278.9</ele>
        <time>2025-09-13T13:08:19Z</time>
      </trkpt>
      <trkpt lat="47.62889" lon="6.47047">
        <ele>278.9</ele>
        <time>2025-09-13T13:08:20Z</time>
      </trkpt>
      <trkpt lat="47.62884" lon="6.47042">
        <ele>278.9</ele>
        <time>2025-09-13T13:08:21Z</time>
      </trkpt>
      <trkpt lat="47.62879" lon="6.47038">
        <ele>278.8</ele>
        <time>2025-09-13T13:08:22Z</time>
      </trkpt>
      <trkpt lat="47.62874" lon="6.47032">
        <ele>278.8</ele>
        <time>2025-09-13T13:08:23Z</time>
      </trkpt>
      <trkpt lat="47.62868" lon="6.47028">
        <ele>278.8</ele>
        <time>2025-09-13T13:08:24Z</time>
      </trkpt>
      <trkpt lat="47.62863" lon="6.47023">
        <ele>278.8</ele>
        <time>2025-09-13T13:08:25Z</time>
      </trkpt>
      <trkpt lat="47.62857" lon="6.47018">
        <ele>278.8</ele>
        <time>2025-09-13T13:08:26Z</time>
      </trkpt>
      <trkpt lat="47.62851" lon="6.47013">
        <ele>278.8</ele>
        <time>2025-09-13T13:08:27Z</time>
      </trkpt>
      <trkpt lat="47.62846" lon="6.47008">
        <ele>278.8</ele>
        <time>2025-09-13T13:08:28Z</time>
      </trkpt>
      <trkpt lat="47.6284" lon="6.47002">
        <ele>278.8</ele>
        <time>2025-09-13T13:08:29Z</time>
      </trkpt>
      <trkpt lat="47.62836" lon="6.46997">
        <ele>278.8</ele>
        <time>2025-09-13T13:08:30Z</time>
      </trkpt>
      <trkpt lat="47.6283" lon="6.46992">
        <ele>278.8</ele>
        <time>2025-09-13T13:08:31Z</time>
      </trkpt>
      <trkpt lat="47.62824" lon="6.46987">
        <ele>278.7</ele>
        <time>2025-09-13T13:08:32Z</time>
      </trkpt>
      <trkpt lat="47.62818" lon="6.46982">
        <ele>278.7</ele>
        <time>2025-09-13T13:08:33Z</time>
      </trkpt>
      <trkpt lat="47.62813" lon="6.46976">
        <ele>278.7</ele>
        <time>2025-09-13T13:08:34Z</time>
      </trkpt>
      <trkpt lat="47.62808" lon="6.46971">
        <ele>278.7</ele>
        <time>2025-09-13T13:08:35Z</time>
      </trkpt>
      <trkpt lat="47.62802" lon="6.46966">
        <ele>278.7</ele>
        <time>2025-09-13T13:08:36Z</time>
      </trkpt>
      <trkpt lat="47.62797" lon="6.46961">
        <ele>278.7</ele>
        <time>2025-09-13T13:08:37Z</time>
      </trkpt>
      <trkpt lat="47.62791" lon="6.46956">
        <ele>278.6</ele>
        <time>2025-09-13T13:08:38Z</time>
      </trkpt>
      <trkpt lat="47.62785" lon="6.46951">
        <ele>278.6</ele>
        <time>2025-09-13T13:08:39Z</time>
      </trkpt>
      <trkpt lat="47.6278" lon="6.46945">
        <ele>278.6</ele>
        <time>2025-09-13T13:08:40Z</time>
      </trkpt>
      <trkpt lat="47.62774" lon="6.4694">
        <ele>278.6</ele>
        <time>2025-09-13T13:08:41Z</time>
      </trkpt>
      <trkpt lat="47.62768" lon="6.46936">
        <ele>278.6</ele>
        <time>2025-09-13T13:08:42Z</time>
      </trkpt>
      <trkpt lat="47.62762" lon="6.46932">
        <ele>278.6</ele>
        <time>2025-09-13T13:08:43Z</time>
      </trkpt>
      <trkpt lat="47.62757" lon="6.46927">
        <ele>278.5</ele>
        <time>2025-09-13T13:08:44Z</time>
      </trkpt>
      <trkpt lat="47.6275" lon="6.46922">
        <ele>278.5</ele>
        <time>2025-09-13T13:08:45Z</time>
      </trkpt>
      <trkpt lat="47.62744" lon="6.46918">
        <ele>278.5</ele>
        <time>2025-09-13T13:08:46Z</time>
      </trkpt>
      <trkpt lat="47.62738" lon="6.46914">
        <ele>278.5</ele>
        <time>2025-09-13T13:08:47Z</time>
      </trkpt>
      <trkpt lat="47.62733" lon="6.46909">
        <ele>278.5</ele>
        <time>2025-09-13T13:08:48Z</time>
      </trkpt>
      <trkpt lat="47.62727" lon="6.46905">
        <ele>278.5</ele>
        <time>2025-09-13T13:08:49Z</time>
      </trkpt>
      <trkpt lat="47.62721" lon="6.469">
        <ele>278.5</ele>
        <time>2025-09-13T13:08:50Z</time>
      </trkpt>
      <trkpt lat="47.62716" lon="6.46896">
        <ele>278.5</ele>
        <time>2025-09-13T13:08:51Z</time>
      </trkpt>
      <trkpt lat="47.62709" lon="6.46892">
        <ele>278.5</ele>
        <time>2025-09-13T13:08:52Z</time>
      </trkpt>
      <trkpt lat="47.62703" lon="6.46888">
        <ele>278.5</ele>
        <time>2025-09-13T13:08:53Z</time>
      </trkpt>
      <trkpt lat="47.62697" lon="6.46884">
        <ele>278.5</ele>
        <time>2025-09-13T13:08:54Z</time>
      </trkpt>
      <trkpt lat="47.62692" lon="6.4688">
        <ele>278.5</ele>
        <time>2025-09-13T13:08:55Z</time>
      </trkpt>
      <trkpt lat="47.62686" lon="6.46875">
        <ele>278.5</ele>
        <time>2025-09-13T13:08:56Z</time>
      </trkpt>
      <trkpt lat="47.62679" lon="6.4687">
        <ele>278.5</ele>
        <time>2025-09-13T13:08:57Z</time>
      </trkpt>
      <trkpt lat="47.62673" lon="6.46865">
        <ele>278.5</ele>
        <time>2025-09-13T13:08:58Z</time>
      </trkpt>
      <trkpt lat="47.62668" lon="6.46859">
        <ele>278.5</ele>
        <time>2025-09-13T13:08:59Z</time>
      </trkpt>
      <trkpt lat="47.62663" lon="6.46853">
        <ele>278.5</ele>
        <time>2025-09-13T13:09:00Z</time>
      </trkpt>
      <trkpt lat="47.62658" lon="6.46847">
        <ele>278.5</ele>
        <time>2025-09-13T13:09:01Z</time>
      </trkpt>
      <trkpt lat="47.62652" lon="6.4684">
        <ele>278.5</ele>
        <time>2025-09-13T13:09:02Z</time>
      </trkpt>
      <trkpt lat="47.62649" lon="6.46834">
        <ele>278.5</ele>
        <time>2025-09-13T13:09:03Z</time>
      </trkpt>
      <trkpt lat="47.62643" lon="6.46827">
        <ele>278.5</ele>
        <time>2025-09-13T13:09:04Z</time>
      </trkpt>
      <trkpt lat="47.62638" lon="6.46821">
        <ele>278.4</ele>
        <time>2025-09-13T13:09:05Z</time>
      </trkpt>
      <trkpt lat="47.62633" lon="6.46815">
        <ele>278.4</ele>
        <time>2025-09-13T13:09:06Z</time>
      </trkpt>
      <trkpt lat="47.62628" lon="6.46809">
        <ele>278.4</ele>
        <time>2025-09-13T13:09:07Z</time>
      </trkpt>
      <trkpt lat="47.62623" lon="6.46802">
        <ele>278.3</ele>
        <time>2025-09-13T13:09:08Z</time>
      </trkpt>
      <trkpt lat="47.62619" lon="6.46795">
        <ele>278.2</ele>
        <time>2025-09-13T13:09:09Z</time>
      </trkpt>
      <trkpt lat="47.62613" lon="6.46789">
        <ele>278.2</ele>
        <time>2025-09-13T13:09:10Z</time>
      </trkpt>
      <trkpt lat="47.62608" lon="6.46782">
        <ele>278.1</ele>
        <time>2025-09-13T13:09:11Z</time>
      </trkpt>
      <trkpt lat="47.62604" lon="6.46775">
        <ele>278.1</ele>
        <time>2025-09-13T13:09:12Z</time>
      </trkpt>
      <trkpt lat="47.62598" lon="6.46769">
        <ele>278.1</ele>
        <time>2025-09-13T13:09:13Z</time>
      </trkpt>
      <trkpt lat="47.62594" lon="6.46761">
        <ele>278.1</ele>
        <time>2025-09-13T13:09:14Z</time>
      </trkpt>
      <trkpt lat="47.62588" lon="6.46754">
        <ele>278.1</ele>
        <time>2025-09-13T13:09:15Z</time>
      </trkpt>
      <trkpt lat="47.62584" lon="6.46748">
        <ele>278.1</ele>
        <time>2025-09-13T13:09:16Z</time>
      </trkpt>
      <trkpt lat="47.62579" lon="6.46741">
        <ele>278.1</ele>
        <time>2025-09-13T13:09:17Z</time>
      </trkpt>
      <trkpt lat="47.62574" lon="6.46734">
        <ele>278</ele>
        <time>2025-09-13T13:09:18Z</time>
      </trkpt>
      <trkpt lat="47.62569" lon="6.46727">
        <ele>278</ele>
        <time>2025-09-13T13:09:19Z</time>
      </trkpt>
      <trkpt lat="47.62564" lon="6.4672">
        <ele>278</ele>
        <time>2025-09-13T13:09:20Z</time>
      </trkpt>
      <trkpt lat="47.6256" lon="6.46713">
        <ele>278</ele>
        <time>2025-09-13T13:09:21Z</time>
      </trkpt>
      <trkpt lat="47.62555" lon="6.46705">
        <ele>277.9</ele>
        <time>2025-09-13T13:09:22Z</time>
      </trkpt>
      <trkpt lat="47.62552" lon="6.46697">
        <ele>277.9</ele>
        <time>2025-09-13T13:09:23Z</time>
      </trkpt>
      <trkpt lat="47.62548" lon="6.46689">
        <ele>277.9</ele>
        <time>2025-09-13T13:09:24Z</time>
      </trkpt>
      <trkpt lat="47.62544" lon="6.46681">
        <ele>277.8</ele>
        <time>2025-09-13T13:09:25Z</time>
      </trkpt>
      <trkpt lat="47.62541" lon="6.46672">
        <ele>277.8</ele>
        <time>2025-09-13T13:09:26Z</time>
      </trkpt>
      <trkpt lat="47.62537" lon="6.46664">
        <ele>277.8</ele>
        <time>2025-09-13T13:09:27Z</time>
      </trkpt>
      <trkpt lat="47.62533" lon="6.46655">
        <ele>277.8</ele>
        <time>2025-09-13T13:09:28Z</time>
      </trkpt>
      <trkpt lat="47.6253" lon="6.46646">
        <ele>277.8</ele>
        <time>2025-09-13T13:09:29Z</time>
      </trkpt>
      <trkpt lat="47.62526" lon="6.46638">
        <ele>277.8</ele>
        <time>2025-09-13T13:09:30Z</time>
      </trkpt>
      <trkpt lat="47.62523" lon="6.46628">
        <ele>277.8</ele>
        <time>2025-09-13T13:09:31Z</time>
      </trkpt>
      <trkpt lat="47.62519" lon="6.4662">
        <ele>277.8</ele>
        <time>2025-09-13T13:09:32Z</time>
      </trkpt>
      <trkpt lat="47.62516" lon="6.46611">
        <ele>277.8</ele>
        <time>2025-09-13T13:09:33Z</time>
      </trkpt>
      <trkpt lat="47.62513" lon="6.46602">
        <ele>277.8</ele>
        <time>2025-09-13T13:09:34Z</time>
      </trkpt>
      <trkpt lat="47.6251" lon="6.46593">
        <ele>277.8</ele>
        <time>2025-09-13T13:09:35Z</time>
      </trkpt>
      <trkpt lat="47.62507" lon="6.46584">
        <ele>277.8</ele>
        <time>2025-09-13T13:09:36Z</time>
      </trkpt>
      <trkpt lat="47.62504" lon="6.46576">
        <ele>277.8</ele>
        <time>2025-09-13T13:09:37Z</time>
      </trkpt>
      <trkpt lat="47.62501" lon="6.46567">
        <ele>277.8</ele>
        <time>2025-09-13T13:09:38Z</time>
      </trkpt>
      <trkpt lat="47.62497" lon="6.46559">
        <ele>277.8</ele>
        <time>2025-09-13T13:09:39Z</time>
      </trkpt>
      <trkpt lat="47.62494" lon="6.4655">
        <ele>277.8</ele>
        <time>2025-09-13T13:09:40Z</time>
      </trkpt>
      <trkpt lat="47.62491" lon="6.46541">
        <ele>277.8</ele>
        <time>2025-09-13T13:09:41Z</time>
      </trkpt>
      <trkpt lat="47.62487" lon="6.46533">
        <ele>277.8</ele>
        <time>2025-09-13T13:09:42Z</time>
      </trkpt>
      <trkpt lat="47.62484" lon="6.46524">
        <ele>277.7</ele>
        <time>2025-09-13T13:09:43Z</time>
      </trkpt>
      <trkpt lat="47.6248" lon="6.46515">
        <ele>277.7</ele>
        <time>2025-09-13T13:09:44Z</time>
      </trkpt>
      <trkpt lat="47.62476" lon="6.46508">
        <ele>277.7</ele>
        <time>2025-09-13T13:09:45Z</time>
      </trkpt>
      <trkpt lat="47.62472" lon="6.465">
        <ele>277.7</ele>
        <time>2025-09-13T13:09:46Z</time>
      </trkpt>
      <trkpt lat="47.62468" lon="6.46492">
        <ele>277.7</ele>
        <time>2025-09-13T13:09:47Z</time>
      </trkpt>
      <trkpt lat="47.62464" lon="6.46485">
        <ele>277.7</ele>
        <time>2025-09-13T13:09:48Z</time>
      </trkpt>
      <trkpt lat="47.6246" lon="6.46477">
        <ele>277.7</ele>
        <time>2025-09-13T13:09:49Z</time>
      </trkpt>
      <trkpt lat="47.62456" lon="6.4647">
        <ele>277.7</ele>
        <time>2025-09-13T13:09:50Z</time>
      </trkpt>
      <trkpt lat="47.62451" lon="6.46463">
        <ele>277.7</ele>
        <time>2025-09-13T13:09:51Z</time>
      </trkpt>
      <trkpt lat="47.62446" lon="6.46455">
        <ele>277.7</ele>
        <time>2025-09-13T13:09:52Z</time>
      </trkpt>
      <trkpt lat="47.62441" lon="6.46449">
        <ele>277.8</ele>
        <time>2025-09-13T13:09:53Z</time>
      </trkpt>
      <trkpt lat="47.62437" lon="6.46441">
        <ele>277.8</ele>
        <time>2025-09-13T13:09:54Z</time>
      </trkpt>
      <trkpt lat="47.62433" lon="6.46434">
        <ele>277.8</ele>
        <time>2025-09-13T13:09:55Z</time>
      </trkpt>
      <trkpt lat="47.62428" lon="6.46427">
        <ele>277.9</ele>
        <time>2025-09-13T13:09:56Z</time>
      </trkpt>
      <trkpt lat="47.62424" lon="6.4642">
        <ele>277.9</ele>
        <time>2025-09-13T13:09:57Z</time>
      </trkpt>
      <trkpt lat="47.62422" lon="6.46415">
        <ele>277.9</ele>
        <time>2025-09-13T13:09:58Z</time>
      </trkpt>
      <trkpt lat="47.62421" lon="6.4641">
        <ele>277.9</ele>
        <time>2025-09-13T13:09:59Z</time>
      </trkpt>
      <trkpt lat="47.6242" lon="6.46405">
        <ele>277.8</ele>
        <time>2025-09-13T13:10:00Z</time>
      </trkpt>
      <trkpt lat="47.6242" lon="6.46399">
        <ele>277.7</ele>
        <time>2025-09-13T13:10:01Z</time>
      </trkpt>
      <trkpt lat="47.62421" lon="6.46391">
        <ele>277.6</ele>
        <time>2025-09-13T13:10:02Z</time>
      </trkpt>
      <trkpt lat="47.62423" lon="6.46383">
        <ele>277.5</ele>
        <time>2025-09-13T13:10:03Z</time>
      </trkpt>
      <trkpt lat="47.62423" lon="6.46375">
        <ele>277.4</ele>
        <time>2025-09-13T13:10:04Z</time>
      </trkpt>
      <trkpt lat="47.62424" lon="6.46366">
        <ele>277.3</ele>
        <time>2025-09-13T13:10:05Z</time>
      </trkpt>
      <trkpt lat="47.62424" lon="6.46358">
        <ele>277.2</ele>
        <time>2025-09-13T13:10:06Z</time>
      </trkpt>
      <trkpt lat="47.62425" lon="6.46349">
        <ele>277.2</ele>
        <time>2025-09-13T13:10:07Z</time>
      </trkpt>
      <trkpt lat="47.62426" lon="6.4634">
        <ele>277.1</ele>
        <time>2025-09-13T13:10:08Z</time>
      </trkpt>
      <trkpt lat="47.62426" lon="6.46331">
        <ele>277</ele>
        <time>2025-09-13T13:10:09Z</time>
      </trkpt>
      <trkpt lat="47.62427" lon="6.46321">
        <ele>277</ele>
        <time>2025-09-13T13:10:10Z</time>
      </trkpt>
      <trkpt lat="47.62427" lon="6.46312">
        <ele>276.9</ele>
        <time>2025-09-13T13:10:11Z</time>
      </trkpt>
      <trkpt lat="47.62428" lon="6.46302">
        <ele>276.8</ele>
        <time>2025-09-13T13:10:12Z</time>
      </trkpt>
      <trkpt lat="47.62428" lon="6.46293">
        <ele>276.8</ele>
        <time>2025-09-13T13:10:13Z</time>
      </trkpt>
      <trkpt lat="47.62429" lon="6.46284">
        <ele>276.7</ele>
        <time>2025-09-13T13:10:14Z</time>
      </trkpt>
      <trkpt lat="47.6243" lon="6.46274">
        <ele>276.7</ele>
        <time>2025-09-13T13:10:15Z</time>
      </trkpt>
      <trkpt lat="47.6243" lon="6.46265">
        <ele>276.6</ele>
        <time>2025-09-13T13:10:16Z</time>
      </trkpt>
      <trkpt lat="47.62431" lon="6.46256">
        <ele>276.6</ele>
        <time>2025-09-13T13:10:17Z</time>
      </trkpt>
      <trkpt lat="47.62431" lon="6.46247">
        <ele>276.5</ele>
        <time>2025-09-13T13:10:18Z</time>
      </trkpt>
      <trkpt lat="47.62432" lon="6.46238">
        <ele>276.5</ele>
        <time>2025-09-13T13:10:19Z</time>
      </trkpt>
      <trkpt lat="47.62433" lon="6.46228">
        <ele>276.5</ele>
        <time>2025-09-13T13:10:20Z</time>
      </trkpt>
      <trkpt lat="47.62433" lon="6.46219">
        <ele>276.4</ele>
        <time>2025-09-13T13:10:21Z</time>
      </trkpt>
      <trkpt lat="47.62434" lon="6.4621">
        <ele>276.4</ele>
        <time>2025-09-13T13:10:22Z</time>
      </trkpt>
      <trkpt lat="47.62434" lon="6.462">
        <ele>276.4</ele>
        <time>2025-09-13T13:10:23Z</time>
      </trkpt>
      <trkpt lat="47.62435" lon="6.4619">
        <ele>276.3</ele>
        <time>2025-09-13T13:10:24Z</time>
      </trkpt>
      <trkpt lat="47.62436" lon="6.4618">
        <ele>276.3</ele>
        <time>2025-09-13T13:10:25Z</time>
      </trkpt>
      <trkpt lat="47.62437" lon="6.46171">
        <ele>276.3</ele>
        <time>2025-09-13T13:10:26Z</time>
      </trkpt>
      <trkpt lat="47.62438" lon="6.46162">
        <ele>276.3</ele>
        <time>2025-09-13T13:10:27Z</time>
      </trkpt>
      <trkpt lat="47.62438" lon="6.46152">
        <ele>276.3</ele>
        <time>2025-09-13T13:10:28Z</time>
      </trkpt>
      <trkpt lat="47.62439" lon="6.46142">
        <ele>276.3</ele>
        <time>2025-09-13T13:10:29Z</time>
      </trkpt>
      <trkpt lat="47.6244" lon="6.46132">
        <ele>276.2</ele>
        <time>2025-09-13T13:10:30Z</time>
      </trkpt>
      <trkpt lat="47.62441" lon="6.46123">
        <ele>276.2</ele>
        <time>2025-09-13T13:10:31Z</time>
      </trkpt>
      <trkpt lat="47.62441" lon="6.46113">
        <ele>276.2</ele>
        <time>2025-09-13T13:10:32Z</time>
      </trkpt>
      <trkpt lat="47.62442" lon="6.46104">
        <ele>276.2</ele>
        <time>2025-09-13T13:10:33Z</time>
      </trkpt>
      <trkpt lat="47.62443" lon="6.46095">
        <ele>276.2</ele>
        <time>2025-09-13T13:10:34Z</time>
      </trkpt>
      <trkpt lat="47.62443" lon="6.46086">
        <ele>276.2</ele>
        <time>2025-09-13T13:10:35Z</time>
      </trkpt>
      <trkpt lat="47.62444" lon="6.46076">
        <ele>276.2</ele>
        <time>2025-09-13T13:10:36Z</time>
      </trkpt>
      <trkpt lat="47.62444" lon="6.46066">
        <ele>276.2</ele>
        <time>2025-09-13T13:10:37Z</time>
      </trkpt>
      <trkpt lat="47.62444" lon="6.46057">
        <ele>276.1</ele>
        <time>2025-09-13T13:10:38Z</time>
      </trkpt>
      <trkpt lat="47.62444" lon="6.46047">
        <ele>276.1</ele>
        <time>2025-09-13T13:10:39Z</time>
      </trkpt>
      <trkpt lat="47.62442" lon="6.46038">
        <ele>276.1</ele>
        <time>2025-09-13T13:10:40Z</time>
      </trkpt>
      <trkpt lat="47.6244" lon="6.46028">
        <ele>276</ele>
        <time>2025-09-13T13:10:41Z</time>
      </trkpt>
      <trkpt lat="47.62437" lon="6.4602">
        <ele>276</ele>
        <time>2025-09-13T13:10:42Z</time>
      </trkpt>
      <trkpt lat="47.62433" lon="6.46012">
        <ele>276</ele>
        <time>2025-09-13T13:10:43Z</time>
      </trkpt>
      <trkpt lat="47.62427" lon="6.46005">
        <ele>276</ele>
        <time>2025-09-13T13:10:44Z</time>
      </trkpt>
      <trkpt lat="47.62422" lon="6.46">
        <ele>275.9</ele>
        <time>2025-09-13T13:10:45Z</time>
      </trkpt>
      <trkpt lat="47.62409" lon="6.45992">
        <ele>275.9</ele>
        <time>2025-09-13T13:10:46Z</time>
      </trkpt>
      <trkpt lat="47.62403" lon="6.4599">
        <ele>275.8</ele>
        <time>2025-09-13T13:10:47Z</time>
      </trkpt>
      <trkpt lat="47.62396" lon="6.45988">
        <ele>275.8</ele>
        <time>2025-09-13T13:10:48Z</time>
      </trkpt>
      <trkpt lat="47.6239" lon="6.45986">
        <ele>275.8</ele>
        <time>2025-09-13T13:10:49Z</time>
      </trkpt>
      <trkpt lat="47.62383" lon="6.45985">
        <ele>275.8</ele>
        <time>2025-09-13T13:10:50Z</time>
      </trkpt>
      <trkpt lat="47.62376" lon="6.45983">
        <ele>275.7</ele>
        <time>2025-09-13T13:10:52Z</time>
      </trkpt>
      <trkpt lat="47.62364" lon="6.45977">
        <ele>275.7</ele>
        <time>2025-09-13T13:10:53Z</time>
      </trkpt>
      <trkpt lat="47.62357" lon="6.45971">
        <ele>275.6</ele>
        <time>2025-09-13T13:10:55Z</time>
      </trkpt>
      <trkpt lat="47.62351" lon="6.45965">
        <ele>275.7</ele>
        <time>2025-09-13T13:10:56Z</time>
      </trkpt>
      <trkpt lat="47.62345" lon="6.4596">
        <ele>275.7</ele>
        <time>2025-09-13T13:10:57Z</time>
      </trkpt>
      <trkpt lat="47.6234" lon="6.45953">
        <ele>275.7</ele>
        <time>2025-09-13T13:10:58Z</time>
      </trkpt>
      <trkpt lat="47.62332" lon="6.45939">
        <ele>275.8</ele>
        <time>2025-09-13T13:10:59Z</time>
      </trkpt>
      <trkpt lat="47.62328" lon="6.4593">
        <ele>275.8</ele>
        <time>2025-09-13T13:11:01Z</time>
      </trkpt>
      <trkpt lat="47.62326" lon="6.45922">
        <ele>275.8</ele>
        <time>2025-09-13T13:11:02Z</time>
      </trkpt>
      <trkpt lat="47.62323" lon="6.45912">
        <ele>275.8</ele>
        <time>2025-09-13T13:11:03Z</time>
      </trkpt>
      <trkpt lat="47.62321" lon="6.45905">
        <ele>275.9</ele>
        <time>2025-09-13T13:11:04Z</time>
      </trkpt>
      <trkpt lat="47.62318" lon="6.45895">
        <ele>275.9</ele>
        <time>2025-09-13T13:11:05Z</time>
      </trkpt>
      <trkpt lat="47.62316" lon="6.45885">
        <ele>275.9</ele>
        <time>2025-09-13T13:11:06Z</time>
      </trkpt>
      <trkpt lat="47.62314" lon="6.45876">
        <ele>275.9</ele>
        <time>2025-09-13T13:11:07Z</time>
      </trkpt>
      <trkpt lat="47.62312" lon="6.45866">
        <ele>275.9</ele>
        <time>2025-09-13T13:11:08Z</time>
      </trkpt>
      <trkpt lat="47.62311" lon="6.45856">
        <ele>275.9</ele>
        <time>2025-09-13T13:11:09Z</time>
      </trkpt>
      <trkpt lat="47.6231" lon="6.45848">
        <ele>276</ele>
        <time>2025-09-13T13:11:10Z</time>
      </trkpt>
      <trkpt lat="47.62309" lon="6.45836">
        <ele>276.1</ele>
        <time>2025-09-13T13:11:11Z</time>
      </trkpt>
      <trkpt lat="47.62309" lon="6.45827">
        <ele>276.1</ele>
        <time>2025-09-13T13:11:12Z</time>
      </trkpt>
      <trkpt lat="47.6231" lon="6.45817">
        <ele>276.2</ele>
        <time>2025-09-13T13:11:13Z</time>
      </trkpt>
      <trkpt lat="47.62311" lon="6.45807">
        <ele>276.2</ele>
        <time>2025-09-13T13:11:14Z</time>
      </trkpt>
      <trkpt lat="47.62312" lon="6.45799">
        <ele>276.3</ele>
        <time>2025-09-13T13:11:15Z</time>
      </trkpt>
      <trkpt lat="47.62314" lon="6.4579">
        <ele>276.4</ele>
        <time>2025-09-13T13:11:16Z</time>
      </trkpt>
      <trkpt lat="47.62316" lon="6.4578">
        <ele>276.4</ele>
        <time>2025-09-13T13:11:17Z</time>
      </trkpt>
      <trkpt lat="47.62318" lon="6.45772">
        <ele>276.5</ele>
        <time>2025-09-13T13:11:18Z</time>
      </trkpt>
      <trkpt lat="47.6232" lon="6.45764">
        <ele>276.6</ele>
        <time>2025-09-13T13:11:19Z</time>
      </trkpt>
      <trkpt lat="47.62322" lon="6.45756">
        <ele>276.6</ele>
        <time>2025-09-13T13:11:20Z</time>
      </trkpt>
      <trkpt lat="47.62324" lon="6.45749">
        <ele>276.7</ele>
        <time>2025-09-13T13:11:21Z</time>
      </trkpt>
      <trkpt lat="47.62326" lon="6.45742">
        <ele>276.7</ele>
        <time>2025-09-13T13:11:22Z</time>
      </trkpt>
      <trkpt lat="47.62329" lon="6.45734">
        <ele>276.7</ele>
        <time>2025-09-13T13:11:23Z</time>
      </trkpt>
      <trkpt lat="47.62331" lon="6.45727">
        <ele>276.7</ele>
        <time>2025-09-13T13:11:24Z</time>
      </trkpt>
      <trkpt lat="47.62333" lon="6.4572">
        <ele>276.6</ele>
        <time>2025-09-13T13:11:25Z</time>
      </trkpt>
      <trkpt lat="47.62335" lon="6.45712">
        <ele>276.6</ele>
        <time>2025-09-13T13:11:26Z</time>
      </trkpt>
      <trkpt lat="47.62337" lon="6.45705">
        <ele>276.5</ele>
        <time>2025-09-13T13:11:27Z</time>
      </trkpt>
      <trkpt lat="47.62339" lon="6.45698">
        <ele>276.4</ele>
        <time>2025-09-13T13:11:28Z</time>
      </trkpt>
      <trkpt lat="47.62342" lon="6.4569">
        <ele>276.4</ele>
        <time>2025-09-13T13:11:29Z</time>
      </trkpt>
      <trkpt lat="47.62344" lon="6.45683">
        <ele>276.3</ele>
        <time>2025-09-13T13:11:30Z</time>
      </trkpt>
      <trkpt lat="47.62346" lon="6.45673">
        <ele>276.3</ele>
        <time>2025-09-13T13:11:31Z</time>
      </trkpt>
      <trkpt lat="47.62347" lon="6.45663">
        <ele>276.2</ele>
        <time>2025-09-13T13:11:32Z</time>
      </trkpt>
      <trkpt lat="47.62347" lon="6.45653">
        <ele>276.1</ele>
        <time>2025-09-13T13:11:33Z</time>
      </trkpt>
      <trkpt lat="47.62347" lon="6.45644">
        <ele>276.1</ele>
        <time>2025-09-13T13:11:34Z</time>
      </trkpt>
      <trkpt lat="47.62346" lon="6.45635">
        <ele>276</ele>
        <time>2025-09-13T13:11:35Z</time>
      </trkpt>
      <trkpt lat="47.62345" lon="6.45625">
        <ele>275.9</ele>
        <time>2025-09-13T13:11:36Z</time>
      </trkpt>
      <trkpt lat="47.62343" lon="6.45616">
        <ele>275.8</ele>
        <time>2025-09-13T13:11:37Z</time>
      </trkpt>
      <trkpt lat="47.62342" lon="6.45609">
        <ele>275.8</ele>
        <time>2025-09-13T13:11:38Z</time>
      </trkpt>
      <trkpt lat="47.62339" lon="6.45601">
        <ele>275.7</ele>
        <time>2025-09-13T13:11:39Z</time>
      </trkpt>
      <trkpt lat="47.62338" lon="6.45592">
        <ele>275.6</ele>
        <time>2025-09-13T13:11:40Z</time>
      </trkpt>
      <trkpt lat="47.62335" lon="6.45583">
        <ele>275.6</ele>
        <time>2025-09-13T13:11:41Z</time>
      </trkpt>
      <trkpt lat="47.62333" lon="6.45575">
        <ele>275.5</ele>
        <time>2025-09-13T13:11:42Z</time>
      </trkpt>
      <trkpt lat="47.6233" lon="6.45567">
        <ele>275.4</ele>
        <time>2025-09-13T13:11:43Z</time>
      </trkpt>
      <trkpt lat="47.62329" lon="6.45558">
        <ele>275.4</ele>
        <time>2025-09-13T13:11:44Z</time>
      </trkpt>
      <trkpt lat="47.62327" lon="6.45549">
        <ele>275.4</ele>
        <time>2025-09-13T13:11:45Z</time>
      </trkpt>
      <trkpt lat="47.62325" lon="6.4554">
        <ele>275.4</ele>
        <time>2025-09-13T13:11:46Z</time>
      </trkpt>
      <trkpt lat="47.62323" lon="6.45531">
        <ele>275.4</ele>
        <time>2025-09-13T13:11:47Z</time>
      </trkpt>
      <trkpt lat="47.62321" lon="6.45522">
        <ele>275.4</ele>
        <time>2025-09-13T13:11:48Z</time>
      </trkpt>
      <trkpt lat="47.62319" lon="6.45514">
        <ele>275.4</ele>
        <time>2025-09-13T13:11:49Z</time>
      </trkpt>
      <trkpt lat="47.62317" lon="6.45505">
        <ele>275.4</ele>
        <time>2025-09-13T13:11:50Z</time>
      </trkpt>
      <trkpt lat="47.62316" lon="6.45496">
        <ele>275.3</ele>
        <time>2025-09-13T13:11:51Z</time>
      </trkpt>
      <trkpt lat="47.62314" lon="6.45488">
        <ele>275.3</ele>
        <time>2025-09-13T13:11:52Z</time>
      </trkpt>
      <trkpt lat="47.62312" lon="6.45479">
        <ele>275.3</ele>
        <time>2025-09-13T13:11:53Z</time>
      </trkpt>
      <trkpt lat="47.6231" lon="6.4547">
        <ele>275.3</ele>
        <time>2025-09-13T13:11:54Z</time>
      </trkpt>
      <trkpt lat="47.62308" lon="6.45462">
        <ele>275.3</ele>
        <time>2025-09-13T13:11:55Z</time>
      </trkpt>
      <trkpt lat="47.62306" lon="6.45453">
        <ele>275.3</ele>
        <time>2025-09-13T13:11:56Z</time>
      </trkpt>
      <trkpt lat="47.62305" lon="6.45445">
        <ele>275.4</ele>
        <time>2025-09-13T13:11:57Z</time>
      </trkpt>
      <trkpt lat="47.62303" lon="6.45437">
        <ele>275.4</ele>
        <time>2025-09-13T13:11:58Z</time>
      </trkpt>
      <trkpt lat="47.62301" lon="6.45428">
        <ele>275.5</ele>
        <time>2025-09-13T13:11:59Z</time>
      </trkpt>
      <trkpt lat="47.62299" lon="6.45421">
        <ele>275.6</ele>
        <time>2025-09-13T13:12:00Z</time>
      </trkpt>
      <trkpt lat="47.62298" lon="6.45413">
        <ele>275.6</ele>
        <time>2025-09-13T13:12:01Z</time>
      </trkpt>
      <trkpt lat="47.62297" lon="6.45404">
        <ele>275.6</ele>
        <time>2025-09-13T13:12:02Z</time>
      </trkpt>
      <trkpt lat="47.62295" lon="6.45396">
        <ele>275.7</ele>
        <time>2025-09-13T13:12:03Z</time>
      </trkpt>
      <trkpt lat="47.62292" lon="6.45389">
        <ele>275.7</ele>
        <time>2025-09-13T13:12:04Z</time>
      </trkpt>
      <trkpt lat="47.62289" lon="6.45382">
        <ele>275.7</ele>
        <time>2025-09-13T13:12:05Z</time>
      </trkpt>
      <trkpt lat="47.62285" lon="6.45375">
        <ele>275.7</ele>
        <time>2025-09-13T13:12:06Z</time>
      </trkpt>
      <trkpt lat="47.6228" lon="6.45369">
        <ele>275.7</ele>
        <time>2025-09-13T13:12:07Z</time>
      </trkpt>
      <trkpt lat="47.62276" lon="6.45363">
        <ele>275.7</ele>
        <time>2025-09-13T13:12:08Z</time>
      </trkpt>
      <trkpt lat="47.6227" lon="6.45358">
        <ele>275.7</ele>
        <time>2025-09-13T13:12:09Z</time>
      </trkpt>
      <trkpt lat="47.62265" lon="6.45353">
        <ele>275.7</ele>
        <time>2025-09-13T13:12:10Z</time>
      </trkpt>
      <trkpt lat="47.62261" lon="6.45347">
        <ele>275.7</ele>
        <time>2025-09-13T13:12:11Z</time>
      </trkpt>
      <trkpt lat="47.62255" lon="6.45344">
        <ele>275.7</ele>
        <time>2025-09-13T13:12:12Z</time>
      </trkpt>
      <trkpt lat="47.62251" lon="6.45339">
        <ele>275.7</ele>
        <time>2025-09-13T13:12:13Z</time>
      </trkpt>
      <trkpt lat="47.62246" lon="6.45336">
        <ele>275.7</ele>
        <time>2025-09-13T13:12:14Z</time>
      </trkpt>
      <trkpt lat="47.6224" lon="6.45333">
        <ele>275.7</ele>
        <time>2025-09-13T13:12:15Z</time>
      </trkpt>
      <trkpt lat="47.62235" lon="6.4533">
        <ele>275.6</ele>
        <time>2025-09-13T13:12:16Z</time>
      </trkpt>
      <trkpt lat="47.6223" lon="6.45327">
        <ele>275.6</ele>
        <time>2025-09-13T13:12:17Z</time>
      </trkpt>
      <trkpt lat="47.62224" lon="6.45324">
        <ele>275.6</ele>
        <time>2025-09-13T13:12:18Z</time>
      </trkpt>
      <trkpt lat="47.62219" lon="6.45321">
        <ele>275.6</ele>
        <time>2025-09-13T13:12:19Z</time>
      </trkpt>
      <trkpt lat="47.62213" lon="6.45317">
        <ele>275.5</ele>
        <time>2025-09-13T13:12:20Z</time>
      </trkpt>
      <trkpt lat="47.62208" lon="6.45314">
        <ele>275.5</ele>
        <time>2025-09-13T13:12:21Z</time>
      </trkpt>
      <trkpt lat="47.62203" lon="6.45312">
        <ele>275.5</ele>
        <time>2025-09-13T13:12:22Z</time>
      </trkpt>
      <trkpt lat="47.62196" lon="6.45316">
        <ele>275.4</ele>
        <time>2025-09-13T13:12:23Z</time>
      </trkpt>
      <trkpt lat="47.62188" lon="6.45322">
        <ele>275.3</ele>
        <time>2025-09-13T13:12:24Z</time>
      </trkpt>
      <trkpt lat="47.62184" lon="6.45326">
        <ele>275.2</ele>
        <time>2025-09-13T13:12:25Z</time>
      </trkpt>
      <trkpt lat="47.6218" lon="6.4533">
        <ele>275.2</ele>
        <time>2025-09-13T13:12:26Z</time>
      </trkpt>
      <trkpt lat="47.62174" lon="6.45332">
        <ele>275.1</ele>
        <time>2025-09-13T13:12:27Z</time>
      </trkpt>
      <trkpt lat="47.62169" lon="6.45333">
        <ele>275.1</ele>
        <time>2025-09-13T13:12:28Z</time>
      </trkpt>
      <trkpt lat="47.62163" lon="6.45335">
        <ele>275</ele>
        <time>2025-09-13T13:12:29Z</time>
      </trkpt>
      <trkpt lat="47.62158" lon="6.45335">
        <ele>275</ele>
        <time>2025-09-13T13:12:30Z</time>
      </trkpt>
      <trkpt lat="47.62152" lon="6.45334">
        <ele>274.9</ele>
        <time>2025-09-13T13:12:31Z</time>
      </trkpt>
      <trkpt lat="47.62144" lon="6.45335">
        <ele>275</ele>
        <time>2025-09-13T13:12:32Z</time>
      </trkpt>
      <trkpt lat="47.62137" lon="6.45331">
        <ele>275</ele>
        <time>2025-09-13T13:12:33Z</time>
      </trkpt>
      <trkpt lat="47.62132" lon="6.45329">
        <ele>274.9</ele>
        <time>2025-09-13T13:12:34Z</time>
      </trkpt>
      <trkpt lat="47.62125" lon="6.45328">
        <ele>274.9</ele>
        <time>2025-09-13T13:12:35Z</time>
      </trkpt>
      <trkpt lat="47.62119" lon="6.45328">
        <ele>274.9</ele>
        <time>2025-09-13T13:12:36Z</time>
      </trkpt>
      <trkpt lat="47.62115" lon="6.45328">
        <ele>274.9</ele>
        <time>2025-09-13T13:12:37Z</time>
      </trkpt>
      <trkpt lat="47.62108" lon="6.45328">
        <ele>274.9</ele>
        <time>2025-09-13T13:12:38Z</time>
      </trkpt>
      <trkpt lat="47.62101" lon="6.45328">
        <ele>274.9</ele>
        <time>2025-09-13T13:12:39Z</time>
      </trkpt>
      <trkpt lat="47.62095" lon="6.45329">
        <ele>274.9</ele>
        <time>2025-09-13T13:12:40Z</time>
      </trkpt>
      <trkpt lat="47.62089" lon="6.45329">
        <ele>274.9</ele>
        <time>2025-09-13T13:12:41Z</time>
      </trkpt>
      <trkpt lat="47.62082" lon="6.4533">
        <ele>274.9</ele>
        <time>2025-09-13T13:12:42Z</time>
      </trkpt>
      <trkpt lat="47.62077" lon="6.45331">
        <ele>274.9</ele>
        <time>2025-09-13T13:12:43Z</time>
      </trkpt>
      <trkpt lat="47.62071" lon="6.45331">
        <ele>274.8</ele>
        <time>2025-09-13T13:12:44Z</time>
      </trkpt>
      <trkpt lat="47.62065" lon="6.45331">
        <ele>274.8</ele>
        <time>2025-09-13T13:12:45Z</time>
      </trkpt>
      <trkpt lat="47.62058" lon="6.45332">
        <ele>274.8</ele>
        <time>2025-09-13T13:12:46Z</time>
      </trkpt>
      <trkpt lat="47.62052" lon="6.45331">
        <ele>274.8</ele>
        <time>2025-09-13T13:12:47Z</time>
      </trkpt>
      <trkpt lat="47.62046" lon="6.45331">
        <ele>274.8</ele>
        <time>2025-09-13T13:12:48Z</time>
      </trkpt>
      <trkpt lat="47.62041" lon="6.45331">
        <ele>274.8</ele>
        <time>2025-09-13T13:12:49Z</time>
      </trkpt>
      <trkpt lat="47.62035" lon="6.45331">
        <ele>274.8</ele>
        <time>2025-09-13T13:12:50Z</time>
      </trkpt>
      <trkpt lat="47.62029" lon="6.45332">
        <ele>274.8</ele>
        <time>2025-09-13T13:12:51Z</time>
      </trkpt>
      <trkpt lat="47.62017" lon="6.45331">
        <ele>274.8</ele>
        <time>2025-09-13T13:12:52Z</time>
      </trkpt>
      <trkpt lat="47.6201" lon="6.45331">
        <ele>274.8</ele>
        <time>2025-09-13T13:12:53Z</time>
      </trkpt>
      <trkpt lat="47.62004" lon="6.45332">
        <ele>274.8</ele>
        <time>2025-09-13T13:12:54Z</time>
      </trkpt>
      <trkpt lat="47.61997" lon="6.45332">
        <ele>274.8</ele>
        <time>2025-09-13T13:12:55Z</time>
      </trkpt>
      <trkpt lat="47.61991" lon="6.45331">
        <ele>274.8</ele>
        <time>2025-09-13T13:12:56Z</time>
      </trkpt>
      <trkpt lat="47.61985" lon="6.4533">
        <ele>274.7</ele>
        <time>2025-09-13T13:12:57Z</time>
      </trkpt>
      <trkpt lat="47.61979" lon="6.45329">
        <ele>274.7</ele>
        <time>2025-09-13T13:12:58Z</time>
      </trkpt>
      <trkpt lat="47.61973" lon="6.45329">
        <ele>274.7</ele>
        <time>2025-09-13T13:12:59Z</time>
      </trkpt>
      <trkpt lat="47.61967" lon="6.45329">
        <ele>274.7</ele>
        <time>2025-09-13T13:13:00Z</time>
      </trkpt>
      <trkpt lat="47.61961" lon="6.45329">
        <ele>274.7</ele>
        <time>2025-09-13T13:13:01Z</time>
      </trkpt>
      <trkpt lat="47.61956" lon="6.45329">
        <ele>274.6</ele>
        <time>2025-09-13T13:13:02Z</time>
      </trkpt>
      <trkpt lat="47.61948" lon="6.45329">
        <ele>274.6</ele>
        <time>2025-09-13T13:13:03Z</time>
      </trkpt>
      <trkpt lat="47.61942" lon="6.45329">
        <ele>274.5</ele>
        <time>2025-09-13T13:13:04Z</time>
      </trkpt>
      <trkpt lat="47.61936" lon="6.45329">
        <ele>274.5</ele>
        <time>2025-09-13T13:13:05Z</time>
      </trkpt>
      <trkpt lat="47.61929" lon="6.45329">
        <ele>274.5</ele>
        <time>2025-09-13T13:13:06Z</time>
      </trkpt>
      <trkpt lat="47.61922" lon="6.45329">
        <ele>274.5</ele>
        <time>2025-09-13T13:13:07Z</time>
      </trkpt>
      <trkpt lat="47.61916" lon="6.45329">
        <ele>274.5</ele>
        <time>2025-09-13T13:13:08Z</time>
      </trkpt>
      <trkpt lat="47.6191" lon="6.45329">
        <ele>274.5</ele>
        <time>2025-09-13T13:13:09Z</time>
      </trkpt>
      <trkpt lat="47.61904" lon="6.45329">
        <ele>274.5</ele>
        <time>2025-09-13T13:13:10Z</time>
      </trkpt>
      <trkpt lat="47.61897" lon="6.45329">
        <ele>274.5</ele>
        <time>2025-09-13T13:13:12Z</time>
      </trkpt>
      <trkpt lat="47.61891" lon="6.45329">
        <ele>274.5</ele>
        <time>2025-09-13T13:13:13Z</time>
      </trkpt>
      <trkpt lat="47.61885" lon="6.4533">
        <ele>274.5</ele>
        <time>2025-09-13T13:13:14Z</time>
      </trkpt>
      <trkpt lat="47.61878" lon="6.45331">
        <ele>274.5</ele>
        <time>2025-09-13T13:13:15Z</time>
      </trkpt>
      <trkpt lat="47.61872" lon="6.45332">
        <ele>274.4</ele>
        <time>2025-09-13T13:13:16Z</time>
      </trkpt>
      <trkpt lat="47.61866" lon="6.45333">
        <ele>274.4</ele>
        <time>2025-09-13T13:13:17Z</time>
      </trkpt>
      <trkpt lat="47.6186" lon="6.45335">
        <ele>274.4</ele>
        <time>2025-09-13T13:13:18Z</time>
      </trkpt>
      <trkpt lat="47.61854" lon="6.45337">
        <ele>274.4</ele>
        <time>2025-09-13T13:13:19Z</time>
      </trkpt>
      <trkpt lat="47.61848" lon="6.45339">
        <ele>274.4</ele>
        <time>2025-09-13T13:13:20Z</time>
      </trkpt>
      <trkpt lat="47.61842" lon="6.45341">
        <ele>274.4</ele>
        <time>2025-09-13T13:13:21Z</time>
      </trkpt>
      <trkpt lat="47.61836" lon="6.45344">
        <ele>274.4</ele>
        <time>2025-09-13T13:13:22Z</time>
      </trkpt>
      <trkpt lat="47.6183" lon="6.45346">
        <ele>274.4</ele>
        <time>2025-09-13T13:13:23Z</time>
      </trkpt>
      <trkpt lat="47.61824" lon="6.45349">
        <ele>274.4</ele>
        <time>2025-09-13T13:13:24Z</time>
      </trkpt>
      <trkpt lat="47.61818" lon="6.45351">
        <ele>274.4</ele>
        <time>2025-09-13T13:13:25Z</time>
      </trkpt>
      <trkpt lat="47.61812" lon="6.45353">
        <ele>274.3</ele>
        <time>2025-09-13T13:13:26Z</time>
      </trkpt>
      <trkpt lat="47.61806" lon="6.45356">
        <ele>274.3</ele>
        <time>2025-09-13T13:13:27Z</time>
      </trkpt>
      <trkpt lat="47.618" lon="6.45359">
        <ele>274.3</ele>
        <time>2025-09-13T13:13:28Z</time>
      </trkpt>
      <trkpt lat="47.61794" lon="6.45362">
        <ele>274.3</ele>
        <time>2025-09-13T13:13:29Z</time>
      </trkpt>
      <trkpt lat="47.61788" lon="6.45364">
        <ele>274.2</ele>
        <time>2025-09-13T13:13:30Z</time>
      </trkpt>
      <trkpt lat="47.61782" lon="6.45367">
        <ele>274.2</ele>
        <time>2025-09-13T13:13:31Z</time>
      </trkpt>
      <trkpt lat="47.61776" lon="6.45369">
        <ele>274.2</ele>
        <time>2025-09-13T13:13:32Z</time>
      </trkpt>
      <trkpt lat="47.6177" lon="6.45372">
        <ele>274.2</ele>
        <time>2025-09-13T13:13:33Z</time>
      </trkpt>
      <trkpt lat="47.61764" lon="6.45374">
        <ele>274.2</ele>
        <time>2025-09-13T13:13:34Z</time>
      </trkpt>
      <trkpt lat="47.61758" lon="6.45377">
        <ele>274.1</ele>
        <time>2025-09-13T13:13:35Z</time>
      </trkpt>
      <trkpt lat="47.61751" lon="6.45381">
        <ele>274.1</ele>
        <time>2025-09-13T13:13:36Z</time>
      </trkpt>
      <trkpt lat="47.61745" lon="6.45386">
        <ele>274.1</ele>
        <time>2025-09-13T13:13:37Z</time>
      </trkpt>
      <trkpt lat="47.61741" lon="6.45391">
        <ele>274.1</ele>
        <time>2025-09-13T13:13:38Z</time>
      </trkpt>
      <trkpt lat="47.61736" lon="6.45397">
        <ele>274.1</ele>
        <time>2025-09-13T13:13:39Z</time>
      </trkpt>
      <trkpt lat="47.61731" lon="6.45404">
        <ele>274.1</ele>
        <time>2025-09-13T13:13:40Z</time>
      </trkpt>
      <trkpt lat="47.61727" lon="6.4541">
        <ele>274.1</ele>
        <time>2025-09-13T13:13:41Z</time>
      </trkpt>
      <trkpt lat="47.61722" lon="6.45417">
        <ele>274.1</ele>
        <time>2025-09-13T13:13:42Z</time>
      </trkpt>
      <trkpt lat="47.61718" lon="6.45424">
        <ele>274.1</ele>
        <time>2025-09-13T13:13:43Z</time>
      </trkpt>
      <trkpt lat="47.61713" lon="6.45431">
        <ele>274.1</ele>
        <time>2025-09-13T13:13:44Z</time>
      </trkpt>
      <trkpt lat="47.6171" lon="6.45438">
        <ele>274.1</ele>
        <time>2025-09-13T13:13:45Z</time>
      </trkpt>
      <trkpt lat="47.61705" lon="6.45444">
        <ele>274.1</ele>
        <time>2025-09-13T13:13:46Z</time>
      </trkpt>
      <trkpt lat="47.61701" lon="6.4545">
        <ele>274.1</ele>
        <time>2025-09-13T13:13:47Z</time>
      </trkpt>
      <trkpt lat="47.61697" lon="6.45456">
        <ele>274.1</ele>
        <time>2025-09-13T13:13:48Z</time>
      </trkpt>
      <trkpt lat="47.61692" lon="6.45463">
        <ele>274.1</ele>
        <time>2025-09-13T13:13:49Z</time>
      </trkpt>
      <trkpt lat="47.61687" lon="6.4547">
        <ele>274.1</ele>
        <time>2025-09-13T13:13:50Z</time>
      </trkpt>
      <trkpt lat="47.61682" lon="6.45477">
        <ele>274.1</ele>
        <time>2025-09-13T13:13:51Z</time>
      </trkpt>
      <trkpt lat="47.61677" lon="6.45483">
        <ele>274.1</ele>
        <time>2025-09-13T13:13:52Z</time>
      </trkpt>
      <trkpt lat="47.61672" lon="6.45489">
        <ele>274.1</ele>
        <time>2025-09-13T13:13:53Z</time>
      </trkpt>
      <trkpt lat="47.61666" lon="6.45494">
        <ele>274.1</ele>
        <time>2025-09-13T13:13:54Z</time>
      </trkpt>
      <trkpt lat="47.61661" lon="6.45499">
        <ele>274.1</ele>
        <time>2025-09-13T13:13:55Z</time>
      </trkpt>
      <trkpt lat="47.61654" lon="6.45503">
        <ele>274.1</ele>
        <time>2025-09-13T13:13:56Z</time>
      </trkpt>
      <trkpt lat="47.61648" lon="6.45506">
        <ele>274.1</ele>
        <time>2025-09-13T13:13:57Z</time>
      </trkpt>
      <trkpt lat="47.61642" lon="6.45506">
        <ele>274.1</ele>
        <time>2025-09-13T13:13:58Z</time>
      </trkpt>
      <trkpt lat="47.61635" lon="6.45503">
        <ele>274</ele>
        <time>2025-09-13T13:13:59Z</time>
      </trkpt>
      <trkpt lat="47.61628" lon="6.455">
        <ele>274</ele>
        <time>2025-09-13T13:14:00Z</time>
      </trkpt>
      <trkpt lat="47.61622" lon="6.45494">
        <ele>274</ele>
        <time>2025-09-13T13:14:01Z</time>
      </trkpt>
      <trkpt lat="47.61617" lon="6.45489">
        <ele>274</ele>
        <time>2025-09-13T13:14:02Z</time>
      </trkpt>
      <trkpt lat="47.61612" lon="6.45485">
        <ele>274</ele>
        <time>2025-09-13T13:14:03Z</time>
      </trkpt>
      <trkpt lat="47.61606" lon="6.45481">
        <ele>274</ele>
        <time>2025-09-13T13:14:04Z</time>
      </trkpt>
      <trkpt lat="47.616" lon="6.45476">
        <ele>274</ele>
        <time>2025-09-13T13:14:05Z</time>
      </trkpt>
      <trkpt lat="47.61594" lon="6.45472">
        <ele>274</ele>
        <time>2025-09-13T13:14:06Z</time>
      </trkpt>
      <trkpt lat="47.61588" lon="6.45468">
        <ele>274</ele>
        <time>2025-09-13T13:14:07Z</time>
      </trkpt>
      <trkpt lat="47.61581" lon="6.45464">
        <ele>274</ele>
        <time>2025-09-13T13:14:08Z</time>
      </trkpt>
      <trkpt lat="47.61576" lon="6.45461">
        <ele>273.9</ele>
        <time>2025-09-13T13:14:09Z</time>
      </trkpt>
      <trkpt lat="47.6157" lon="6.45458">
        <ele>273.9</ele>
        <time>2025-09-13T13:14:10Z</time>
      </trkpt>
      <trkpt lat="47.61564" lon="6.45455">
        <ele>273.9</ele>
        <time>2025-09-13T13:14:11Z</time>
      </trkpt>
      <trkpt lat="47.61559" lon="6.45453">
        <ele>273.9</ele>
        <time>2025-09-13T13:14:12Z</time>
      </trkpt>
      <trkpt lat="47.61552" lon="6.45451">
        <ele>273.9</ele>
        <time>2025-09-13T13:14:13Z</time>
      </trkpt>
      <trkpt lat="47.61547" lon="6.45448">
        <ele>273.9</ele>
        <time>2025-09-13T13:14:14Z</time>
      </trkpt>
      <trkpt lat="47.61541" lon="6.45446">
        <ele>273.9</ele>
        <time>2025-09-13T13:14:15Z</time>
      </trkpt>
      <trkpt lat="47.61536" lon="6.45444">
        <ele>273.9</ele>
        <time>2025-09-13T13:14:16Z</time>
      </trkpt>
      <trkpt lat="47.6153" lon="6.45443">
        <ele>273.9</ele>
        <time>2025-09-13T13:14:17Z</time>
      </trkpt>
      <trkpt lat="47.61523" lon="6.45442">
        <ele>273.9</ele>
        <time>2025-09-13T13:14:18Z</time>
      </trkpt>
      <trkpt lat="47.61518" lon="6.45442">
        <ele>273.9</ele>
        <time>2025-09-13T13:14:19Z</time>
      </trkpt>
      <trkpt lat="47.61512" lon="6.45444">
        <ele>273.8</ele>
        <time>2025-09-13T13:14:20Z</time>
      </trkpt>
      <trkpt lat="47.61507" lon="6.4545">
        <ele>273.8</ele>
        <time>2025-09-13T13:14:21Z</time>
      </trkpt>
      <trkpt lat="47.61505" lon="6.45456">
        <ele>273.7</ele>
        <time>2025-09-13T13:14:22Z</time>
      </trkpt>
      <trkpt lat="47.61502" lon="6.45463">
        <ele>273.7</ele>
        <time>2025-09-13T13:14:23Z</time>
      </trkpt>
      <trkpt lat="47.615" lon="6.45471">
        <ele>273.7</ele>
        <time>2025-09-13T13:14:24Z</time>
      </trkpt>
      <trkpt lat="47.61495" lon="6.45476">
        <ele>273.6</ele>
        <time>2025-09-13T13:14:25Z</time>
      </trkpt>
      <trkpt lat="47.61491" lon="6.4548">
        <ele>273.6</ele>
        <time>2025-09-13T13:14:26Z</time>
      </trkpt>
      <trkpt lat="47.61486" lon="6.45481">
        <ele>273.6</ele>
        <time>2025-09-13T13:14:27Z</time>
      </trkpt>
      <trkpt lat="47.6148" lon="6.45478">
        <ele>273.5</ele>
        <time>2025-09-13T13:14:28Z</time>
      </trkpt>
      <trkpt lat="47.61475" lon="6.45476">
        <ele>273.5</ele>
        <time>2025-09-13T13:14:29Z</time>
      </trkpt>
      <trkpt lat="47.61469" lon="6.45473">
        <ele>273.5</ele>
        <time>2025-09-13T13:14:30Z</time>
      </trkpt>
      <trkpt lat="47.61463" lon="6.45471">
        <ele>273.5</ele>
        <time>2025-09-13T13:14:31Z</time>
      </trkpt>
      <trkpt lat="47.61458" lon="6.45469">
        <ele>273.6</ele>
        <time>2025-09-13T13:14:32Z</time>
      </trkpt>
      <trkpt lat="47.61453" lon="6.45467">
        <ele>273.6</ele>
        <time>2025-09-13T13:14:33Z</time>
      </trkpt>
      <trkpt lat="47.61448" lon="6.45466">
        <ele>273.6</ele>
        <time>2025-09-13T13:14:34Z</time>
      </trkpt>
      <trkpt lat="47.61444" lon="6.45465">
        <ele>273.6</ele>
        <time>2025-09-13T13:14:35Z</time>
      </trkpt>
      <trkpt lat="47.61438" lon="6.45465">
        <ele>273.7</ele>
        <time>2025-09-13T13:14:36Z</time>
      </trkpt>
      <trkpt lat="47.61434" lon="6.45465">
        <ele>273.7</ele>
        <time>2025-09-13T13:14:37Z</time>
      </trkpt>
      <trkpt lat="47.6143" lon="6.45465">
        <ele>273.7</ele>
        <time>2025-09-13T13:14:38Z</time>
      </trkpt>
      <trkpt lat="47.61425" lon="6.45466">
        <ele>273.7</ele>
        <time>2025-09-13T13:14:39Z</time>
      </trkpt>
      <trkpt lat="47.6142" lon="6.45468">
        <ele>273.7</ele>
        <time>2025-09-13T13:14:40Z</time>
      </trkpt>
      <trkpt lat="47.61417" lon="6.45469">
        <ele>273.7</ele>
        <time>2025-09-13T13:14:41Z</time>
      </trkpt>
      <trkpt lat="47.61413" lon="6.4547">
        <ele>273.8</ele>
        <time>2025-09-13T13:14:42Z</time>
      </trkpt>
      <trkpt lat="47.61408" lon="6.4547">
        <ele>273.8</ele>
        <time>2025-09-13T13:14:43Z</time>
      </trkpt>
      <trkpt lat="47.61403" lon="6.45471">
        <ele>273.8</ele>
        <time>2025-09-13T13:14:44Z</time>
      </trkpt>
      <trkpt lat="47.61397" lon="6.45472">
        <ele>273.9</ele>
        <time>2025-09-13T13:14:45Z</time>
      </trkpt>
      <trkpt lat="47.61392" lon="6.45472">
        <ele>273.9</ele>
        <time>2025-09-13T13:14:46Z</time>
      </trkpt>
      <trkpt lat="47.61387" lon="6.45473">
        <ele>273.9</ele>
        <time>2025-09-13T13:14:47Z</time>
      </trkpt>
      <trkpt lat="47.61383" lon="6.45478">
        <ele>273.9</ele>
        <time>2025-09-13T13:14:48Z</time>
      </trkpt>
      <trkpt lat="47.61382" lon="6.45486">
        <ele>273.9</ele>
        <time>2025-09-13T13:14:49Z</time>
      </trkpt>
      <trkpt lat="47.61381" lon="6.45492">
        <ele>273.9</ele>
        <time>2025-09-13T13:14:50Z</time>
      </trkpt>
      <trkpt lat="47.61381" lon="6.45499">
        <ele>274</ele>
        <time>2025-09-13T13:14:51Z</time>
      </trkpt>
      <trkpt lat="47.6138" lon="6.45505">
        <ele>274</ele>
        <time>2025-09-13T13:14:52Z</time>
      </trkpt>
      <trkpt lat="47.6138" lon="6.45511">
        <ele>274</ele>
        <time>2025-09-13T13:14:53Z</time>
      </trkpt>
      <trkpt lat="47.61379" lon="6.45517">
        <ele>274</ele>
        <time>2025-09-13T13:14:54Z</time>
      </trkpt>
      <trkpt lat="47.61378" lon="6.45524">
        <ele>274</ele>
        <time>2025-09-13T13:14:55Z</time>
      </trkpt>
      <trkpt lat="47.61377" lon="6.45531">
        <ele>274</ele>
        <time>2025-09-13T13:14:56Z</time>
      </trkpt>
      <trkpt lat="47.61376" lon="6.45537">
        <ele>274</ele>
        <time>2025-09-13T13:14:57Z</time>
      </trkpt>
      <trkpt lat="47.61375" lon="6.45545">
        <ele>274</ele>
        <time>2025-09-13T13:14:58Z</time>
      </trkpt>
      <trkpt lat="47.61374" lon="6.45553">
        <ele>274</ele>
        <time>2025-09-13T13:14:59Z</time>
      </trkpt>
      <trkpt lat="47.61373" lon="6.45561">
        <ele>274</ele>
        <time>2025-09-13T13:15:00Z</time>
      </trkpt>
      <trkpt lat="47.61372" lon="6.45568">
        <ele>273.9</ele>
        <time>2025-09-13T13:15:01Z</time>
      </trkpt>
      <trkpt lat="47.61371" lon="6.45575">
        <ele>273.9</ele>
        <time>2025-09-13T13:15:02Z</time>
      </trkpt>
      <trkpt lat="47.6137" lon="6.45584">
        <ele>273.9</ele>
        <time>2025-09-13T13:15:03Z</time>
      </trkpt>
      <trkpt lat="47.6137" lon="6.45593">
        <ele>273.8</ele>
        <time>2025-09-13T13:15:04Z</time>
      </trkpt>
      <trkpt lat="47.61368" lon="6.456">
        <ele>273.8</ele>
        <time>2025-09-13T13:15:05Z</time>
      </trkpt>
      <trkpt lat="47.61367" lon="6.45608">
        <ele>273.7</ele>
        <time>2025-09-13T13:15:06Z</time>
      </trkpt>
      <trkpt lat="47.61366" lon="6.45618">
        <ele>273.6</ele>
        <time>2025-09-13T13:15:07Z</time>
      </trkpt>
      <trkpt lat="47.61365" lon="6.45627">
        <ele>273.6</ele>
        <time>2025-09-13T13:15:08Z</time>
      </trkpt>
      <trkpt lat="47.61363" lon="6.45638">
        <ele>273.4</ele>
        <time>2025-09-13T13:15:09Z</time>
      </trkpt>
      <trkpt lat="47.61362" lon="6.45648">
        <ele>273.2</ele>
        <time>2025-09-13T13:15:10Z</time>
      </trkpt>
      <trkpt lat="47.61361" lon="6.45658">
        <ele>273.1</ele>
        <time>2025-09-13T13:15:11Z</time>
      </trkpt>
      <trkpt lat="47.6136" lon="6.45668">
        <ele>273.1</ele>
        <time>2025-09-13T13:15:12Z</time>
      </trkpt>
      <trkpt lat="47.61359" lon="6.45677">
        <ele>273</ele>
        <time>2025-09-13T13:15:13Z</time>
      </trkpt>
      <trkpt lat="47.61357" lon="6.45687">
        <ele>273</ele>
        <time>2025-09-13T13:15:14Z</time>
      </trkpt>
      <trkpt lat="47.61356" lon="6.45696">
        <ele>272.9</ele>
        <time>2025-09-13T13:15:15Z</time>
      </trkpt>
      <trkpt lat="47.61353" lon="6.45704">
        <ele>272.9</ele>
        <time>2025-09-13T13:15:16Z</time>
      </trkpt>
      <trkpt lat="47.61351" lon="6.45713">
        <ele>272.9</ele>
        <time>2025-09-13T13:15:17Z</time>
      </trkpt>
      <trkpt lat="47.61349" lon="6.45721">
        <ele>272.9</ele>
        <time>2025-09-13T13:15:18Z</time>
      </trkpt>
      <trkpt lat="47.61347" lon="6.4573">
        <ele>272.9</ele>
        <time>2025-09-13T13:15:19Z</time>
      </trkpt>
      <trkpt lat="47.61345" lon="6.45737">
        <ele>272.9</ele>
        <time>2025-09-13T13:15:20Z</time>
      </trkpt>
      <trkpt lat="47.61342" lon="6.45745">
        <ele>272.9</ele>
        <time>2025-09-13T13:15:21Z</time>
      </trkpt>
      <trkpt lat="47.61339" lon="6.45753">
        <ele>273</ele>
        <time>2025-09-13T13:15:22Z</time>
      </trkpt>
      <trkpt lat="47.61336" lon="6.45761">
        <ele>273</ele>
        <time>2025-09-13T13:15:23Z</time>
      </trkpt>
      <trkpt lat="47.61333" lon="6.45769">
        <ele>273.1</ele>
        <time>2025-09-13T13:15:24Z</time>
      </trkpt>
      <trkpt lat="47.61329" lon="6.45776">
        <ele>273.3</ele>
        <time>2025-09-13T13:15:25Z</time>
      </trkpt>
      <trkpt lat="47.61325" lon="6.45783">
        <ele>273.4</ele>
        <time>2025-09-13T13:15:26Z</time>
      </trkpt>
      <trkpt lat="47.61321" lon="6.45788">
        <ele>273.5</ele>
        <time>2025-09-13T13:15:27Z</time>
      </trkpt>
      <trkpt lat="47.61316" lon="6.45792">
        <ele>273.6</ele>
        <time>2025-09-13T13:15:28Z</time>
      </trkpt>
      <trkpt lat="47.6131" lon="6.45794">
        <ele>273.8</ele>
        <time>2025-09-13T13:15:29Z</time>
      </trkpt>
      <trkpt lat="47.61304" lon="6.45794">
        <ele>273.9</ele>
        <time>2025-09-13T13:15:30Z</time>
      </trkpt>
      <trkpt lat="47.61299" lon="6.45793">
        <ele>273.9</ele>
        <time>2025-09-13T13:15:31Z</time>
      </trkpt>
      <trkpt lat="47.61293" lon="6.45789">
        <ele>274</ele>
        <time>2025-09-13T13:15:32Z</time>
      </trkpt>
      <trkpt lat="47.61288" lon="6.45784">
        <ele>274</ele>
        <time>2025-09-13T13:15:33Z</time>
      </trkpt>
      <trkpt lat="47.61283" lon="6.45779">
        <ele>274</ele>
        <time>2025-09-13T13:15:34Z</time>
      </trkpt>
      <trkpt lat="47.61279" lon="6.45774">
        <ele>274</ele>
        <time>2025-09-13T13:15:35Z</time>
      </trkpt>
      <trkpt lat="47.61274" lon="6.45769">
        <ele>274</ele>
        <time>2025-09-13T13:15:36Z</time>
      </trkpt>
      <trkpt lat="47.61269" lon="6.45764">
        <ele>274</ele>
        <time>2025-09-13T13:15:37Z</time>
      </trkpt>
      <trkpt lat="47.61265" lon="6.45759">
        <ele>274</ele>
        <time>2025-09-13T13:15:38Z</time>
      </trkpt>
      <trkpt lat="47.61259" lon="6.45753">
        <ele>274</ele>
        <time>2025-09-13T13:15:39Z</time>
      </trkpt>
      <trkpt lat="47.61254" lon="6.45748">
        <ele>274</ele>
        <time>2025-09-13T13:15:40Z</time>
      </trkpt>
      <trkpt lat="47.61249" lon="6.45743">
        <ele>274</ele>
        <time>2025-09-13T13:15:41Z</time>
      </trkpt>
      <trkpt lat="47.61243" lon="6.45739">
        <ele>274</ele>
        <time>2025-09-13T13:15:42Z</time>
      </trkpt>
      <trkpt lat="47.61238" lon="6.45733">
        <ele>273.9</ele>
        <time>2025-09-13T13:15:43Z</time>
      </trkpt>
      <trkpt lat="47.61233" lon="6.45729">
        <ele>273.9</ele>
        <time>2025-09-13T13:15:44Z</time>
      </trkpt>
      <trkpt lat="47.61227" lon="6.45725">
        <ele>273.8</ele>
        <time>2025-09-13T13:15:45Z</time>
      </trkpt>
      <trkpt lat="47.61221" lon="6.4572">
        <ele>273.7</ele>
        <time>2025-09-13T13:15:46Z</time>
      </trkpt>
      <trkpt lat="47.61215" lon="6.45716">
        <ele>273.6</ele>
        <time>2025-09-13T13:15:47Z</time>
      </trkpt>
      <trkpt lat="47.61209" lon="6.45712">
        <ele>273.5</ele>
        <time>2025-09-13T13:15:48Z</time>
      </trkpt>
      <trkpt lat="47.61203" lon="6.45707">
        <ele>273.5</ele>
        <time>2025-09-13T13:15:49Z</time>
      </trkpt>
      <trkpt lat="47.61198" lon="6.45702">
        <ele>273.4</ele>
        <time>2025-09-13T13:15:50Z</time>
      </trkpt>
      <trkpt lat="47.61192" lon="6.45698">
        <ele>273.4</ele>
        <time>2025-09-13T13:15:51Z</time>
      </trkpt>
      <trkpt lat="47.61184" lon="6.45694">
        <ele>273.4</ele>
        <time>2025-09-13T13:15:52Z</time>
      </trkpt>
      <trkpt lat="47.61179" lon="6.4569">
        <ele>273.4</ele>
        <time>2025-09-13T13:15:53Z</time>
      </trkpt>
      <trkpt lat="47.61173" lon="6.45686">
        <ele>273.4</ele>
        <time>2025-09-13T13:15:54Z</time>
      </trkpt>
      <trkpt lat="47.61167" lon="6.45682">
        <ele>273.4</ele>
        <time>2025-09-13T13:15:55Z</time>
      </trkpt>
      <trkpt lat="47.61162" lon="6.45677">
        <ele>273.5</ele>
        <time>2025-09-13T13:15:56Z</time>
      </trkpt>
      <trkpt lat="47.61156" lon="6.45673">
        <ele>273.6</ele>
        <time>2025-09-13T13:15:57Z</time>
      </trkpt>
      <trkpt lat="47.6115" lon="6.4567">
        <ele>273.6</ele>
        <time>2025-09-13T13:15:58Z</time>
      </trkpt>
      <trkpt lat="47.61144" lon="6.45667">
        <ele>273.6</ele>
        <time>2025-09-13T13:15:59Z</time>
      </trkpt>
      <trkpt lat="47.61138" lon="6.45664">
        <ele>273.6</ele>
        <time>2025-09-13T13:16:00Z</time>
      </trkpt>
      <trkpt lat="47.61133" lon="6.4566">
        <ele>273.6</ele>
        <time>2025-09-13T13:16:01Z</time>
      </trkpt>
      <trkpt lat="47.61127" lon="6.45657">
        <ele>273.6</ele>
        <time>2025-09-13T13:16:02Z</time>
      </trkpt>
      <trkpt lat="47.6112" lon="6.45653">
        <ele>273.5</ele>
        <time>2025-09-13T13:16:03Z</time>
      </trkpt>
      <trkpt lat="47.61115" lon="6.45648">
        <ele>273.5</ele>
        <time>2025-09-13T13:16:04Z</time>
      </trkpt>
      <trkpt lat="47.6111" lon="6.45644">
        <ele>273.5</ele>
        <time>2025-09-13T13:16:05Z</time>
      </trkpt>
      <trkpt lat="47.61104" lon="6.45639">
        <ele>273.4</ele>
        <time>2025-09-13T13:16:06Z</time>
      </trkpt>
      <trkpt lat="47.61099" lon="6.45633">
        <ele>273.4</ele>
        <time>2025-09-13T13:16:07Z</time>
      </trkpt>
      <trkpt lat="47.61093" lon="6.45629">
        <ele>273.4</ele>
        <time>2025-09-13T13:16:08Z</time>
      </trkpt>
      <trkpt lat="47.61088" lon="6.45624">
        <ele>273.4</ele>
        <time>2025-09-13T13:16:09Z</time>
      </trkpt>
      <trkpt lat="47.61082" lon="6.4562">
        <ele>273.4</ele>
        <time>2025-09-13T13:16:10Z</time>
      </trkpt>
      <trkpt lat="47.61077" lon="6.45615">
        <ele>273.4</ele>
        <time>2025-09-13T13:16:11Z</time>
      </trkpt>
      <trkpt lat="47.61072" lon="6.4561">
        <ele>273.4</ele>
        <time>2025-09-13T13:16:12Z</time>
      </trkpt>
      <trkpt lat="47.61065" lon="6.45606">
        <ele>273.4</ele>
        <time>2025-09-13T13:16:13Z</time>
      </trkpt>
      <trkpt lat="47.61061" lon="6.45602">
        <ele>273.3</ele>
        <time>2025-09-13T13:16:14Z</time>
      </trkpt>
      <trkpt lat="47.61054" lon="6.45597">
        <ele>273.3</ele>
        <time>2025-09-13T13:16:15Z</time>
      </trkpt>
      <trkpt lat="47.6105" lon="6.45592">
        <ele>273.2</ele>
        <time>2025-09-13T13:16:16Z</time>
      </trkpt>
      <trkpt lat="47.61043" lon="6.45588">
        <ele>273.2</ele>
        <time>2025-09-13T13:16:17Z</time>
      </trkpt>
      <trkpt lat="47.61037" lon="6.45583">
        <ele>273.1</ele>
        <time>2025-09-13T13:16:18Z</time>
      </trkpt>
      <trkpt lat="47.61032" lon="6.45579">
        <ele>273.1</ele>
        <time>2025-09-13T13:16:19Z</time>
      </trkpt>
      <trkpt lat="47.61026" lon="6.45575">
        <ele>273</ele>
        <time>2025-09-13T13:16:20Z</time>
      </trkpt>
      <trkpt lat="47.6102" lon="6.4557">
        <ele>273</ele>
        <time>2025-09-13T13:16:21Z</time>
      </trkpt>
      <trkpt lat="47.61014" lon="6.45565">
        <ele>272.9</ele>
        <time>2025-09-13T13:16:22Z</time>
      </trkpt>
      <trkpt lat="47.61009" lon="6.45561">
        <ele>272.8</ele>
        <time>2025-09-13T13:16:23Z</time>
      </trkpt>
      <trkpt lat="47.61003" lon="6.45556">
        <ele>272.7</ele>
        <time>2025-09-13T13:16:24Z</time>
      </trkpt>
      <trkpt lat="47.60997" lon="6.45552">
        <ele>272.6</ele>
        <time>2025-09-13T13:16:25Z</time>
      </trkpt>
      <trkpt lat="47.60992" lon="6.45547">
        <ele>272.5</ele>
        <time>2025-09-13T13:16:26Z</time>
      </trkpt>
      <trkpt lat="47.60986" lon="6.45543">
        <ele>272.5</ele>
        <time>2025-09-13T13:16:27Z</time>
      </trkpt>
      <trkpt lat="47.6098" lon="6.45537">
        <ele>272.4</ele>
        <time>2025-09-13T13:16:28Z</time>
      </trkpt>
      <trkpt lat="47.60974" lon="6.45533">
        <ele>272.4</ele>
        <time>2025-09-13T13:16:29Z</time>
      </trkpt>
      <trkpt lat="47.60969" lon="6.45528">
        <ele>272.3</ele>
        <time>2025-09-13T13:16:30Z</time>
      </trkpt>
      <trkpt lat="47.60962" lon="6.45522">
        <ele>272.3</ele>
        <time>2025-09-13T13:16:31Z</time>
      </trkpt>
      <trkpt lat="47.60957" lon="6.45517">
        <ele>272.3</ele>
        <time>2025-09-13T13:16:32Z</time>
      </trkpt>
      <trkpt lat="47.60951" lon="6.45512">
        <ele>272.3</ele>
        <time>2025-09-13T13:16:33Z</time>
      </trkpt>
      <trkpt lat="47.60945" lon="6.45507">
        <ele>272.3</ele>
        <time>2025-09-13T13:16:34Z</time>
      </trkpt>
      <trkpt lat="47.60941" lon="6.45502">
        <ele>272.3</ele>
        <time>2025-09-13T13:16:35Z</time>
      </trkpt>
      <trkpt lat="47.60935" lon="6.45497">
        <ele>272.3</ele>
        <time>2025-09-13T13:16:36Z</time>
      </trkpt>
      <trkpt lat="47.60929" lon="6.45492">
        <ele>272.3</ele>
        <time>2025-09-13T13:16:37Z</time>
      </trkpt>
      <trkpt lat="47.60924" lon="6.45487">
        <ele>272.3</ele>
        <time>2025-09-13T13:16:38Z</time>
      </trkpt>
      <trkpt lat="47.60919" lon="6.45482">
        <ele>272.3</ele>
        <time>2025-09-13T13:16:39Z</time>
      </trkpt>
      <trkpt lat="47.60914" lon="6.45477">
        <ele>272.3</ele>
        <time>2025-09-13T13:16:40Z</time>
      </trkpt>
      <trkpt lat="47.60909" lon="6.45471">
        <ele>272.3</ele>
        <time>2025-09-13T13:16:41Z</time>
      </trkpt>
      <trkpt lat="47.60903" lon="6.45466">
        <ele>272.3</ele>
        <time>2025-09-13T13:16:42Z</time>
      </trkpt>
      <trkpt lat="47.60897" lon="6.45461">
        <ele>272.4</ele>
        <time>2025-09-13T13:16:43Z</time>
      </trkpt>
      <trkpt lat="47.60893" lon="6.45456">
        <ele>272.5</ele>
        <time>2025-09-13T13:16:44Z</time>
      </trkpt>
      <trkpt lat="47.60887" lon="6.45451">
        <ele>272.6</ele>
        <time>2025-09-13T13:16:45Z</time>
      </trkpt>
      <trkpt lat="47.60883" lon="6.45446">
        <ele>272.7</ele>
        <time>2025-09-13T13:16:46Z</time>
      </trkpt>
      <trkpt lat="47.60877" lon="6.45441">
        <ele>272.8</ele>
        <time>2025-09-13T13:16:47Z</time>
      </trkpt>
      <trkpt lat="47.60873" lon="6.45437">
        <ele>272.9</ele>
        <time>2025-09-13T13:16:48Z</time>
      </trkpt>
      <trkpt lat="47.60868" lon="6.45432">
        <ele>273.1</ele>
        <time>2025-09-13T13:16:49Z</time>
      </trkpt>
      <trkpt lat="47.60863" lon="6.45427">
        <ele>273.2</ele>
        <time>2025-09-13T13:16:50Z</time>
      </trkpt>
      <trkpt lat="47.60857" lon="6.45423">
        <ele>273.4</ele>
        <time>2025-09-13T13:16:51Z</time>
      </trkpt>
      <trkpt lat="47.60853" lon="6.45418">
        <ele>273.5</ele>
        <time>2025-09-13T13:16:52Z</time>
      </trkpt>
      <trkpt lat="47.60848" lon="6.45414">
        <ele>273.7</ele>
        <time>2025-09-13T13:16:53Z</time>
      </trkpt>
      <trkpt lat="47.60842" lon="6.4541">
        <ele>273.9</ele>
        <time>2025-09-13T13:16:54Z</time>
      </trkpt>
      <trkpt lat="47.60837" lon="6.45405">
        <ele>274</ele>
        <time>2025-09-13T13:16:55Z</time>
      </trkpt>
      <trkpt lat="47.60832" lon="6.45401">
        <ele>274.2</ele>
        <time>2025-09-13T13:16:56Z</time>
      </trkpt>
      <trkpt lat="47.60827" lon="6.45397">
        <ele>274.4</ele>
        <time>2025-09-13T13:16:57Z</time>
      </trkpt>
      <trkpt lat="47.60822" lon="6.45394">
        <ele>274.6</ele>
        <time>2025-09-13T13:16:58Z</time>
      </trkpt>
      <trkpt lat="47.60816" lon="6.4539">
        <ele>274.8</ele>
        <time>2025-09-13T13:16:59Z</time>
      </trkpt>
      <trkpt lat="47.60812" lon="6.45387">
        <ele>274.9</ele>
        <time>2025-09-13T13:17:00Z</time>
      </trkpt>
      <trkpt lat="47.60808" lon="6.45384">
        <ele>275.1</ele>
        <time>2025-09-13T13:17:01Z</time>
      </trkpt>
      <trkpt lat="47.60803" lon="6.45381">
        <ele>275.2</ele>
        <time>2025-09-13T13:17:02Z</time>
      </trkpt>
      <trkpt lat="47.60798" lon="6.45378">
        <ele>275.4</ele>
        <time>2025-09-13T13:17:03Z</time>
      </trkpt>
      <trkpt lat="47.60794" lon="6.45375">
        <ele>275.5</ele>
        <time>2025-09-13T13:17:04Z</time>
      </trkpt>
      <trkpt lat="47.60788" lon="6.45371">
        <ele>275.6</ele>
        <time>2025-09-13T13:17:05Z</time>
      </trkpt>
      <trkpt lat="47.60781" lon="6.45367">
        <ele>275.7</ele>
        <time>2025-09-13T13:17:06Z</time>
      </trkpt>
      <trkpt lat="47.60777" lon="6.45363">
        <ele>275.7</ele>
        <time>2025-09-13T13:17:07Z</time>
      </trkpt>
      <trkpt lat="47.60782" lon="6.45364">
        <ele>275.8</ele>
        <time>2025-09-13T13:17:08Z</time>
      </trkpt>
      <trkpt lat="47.60779" lon="6.45362">
        <ele>275.8</ele>
        <time>2025-09-13T13:17:09Z</time>
      </trkpt>
      <trkpt lat="47.60778" lon="6.45362">
        <ele>275.8</ele>
        <time>2025-09-13T13:17:10Z</time>
      </trkpt>
      <trkpt lat="47.60774" lon="6.45356">
        <ele>275.9</ele>
        <time>2025-09-13T13:17:11Z</time>
      </trkpt>
      <trkpt lat="47.60773" lon="6.45352">
        <ele>275.9</ele>
        <time>2025-09-13T13:17:12Z</time>
      </trkpt>
      <trkpt lat="47.60769" lon="6.45349">
        <ele>275.9</ele>
        <time>2025-09-13T13:17:13Z</time>
      </trkpt>
      <trkpt lat="47.60763" lon="6.45346">
        <ele>275.8</ele>
        <time>2025-09-13T13:17:14Z</time>
      </trkpt>
      <trkpt lat="47.60757" lon="6.45341">
        <ele>275.8</ele>
        <time>2025-09-13T13:17:15Z</time>
      </trkpt>
      <trkpt lat="47.6075" lon="6.45335">
        <ele>275.7</ele>
        <time>2025-09-13T13:17:16Z</time>
      </trkpt>
      <trkpt lat="47.60746" lon="6.45335">
        <ele>275.7</ele>
        <time>2025-09-13T13:17:17Z</time>
      </trkpt>
      <trkpt lat="47.60742" lon="6.45333">
        <ele>275.7</ele>
        <time>2025-09-13T13:17:18Z</time>
      </trkpt>
      <trkpt lat="47.6074" lon="6.45331">
        <ele>275.7</ele>
        <time>2025-09-13T13:17:19Z</time>
      </trkpt>
      <trkpt lat="47.60735" lon="6.45326">
        <ele>275.6</ele>
        <time>2025-09-13T13:17:20Z</time>
      </trkpt>
      <trkpt lat="47.60731" lon="6.45323">
        <ele>275.6</ele>
        <time>2025-09-13T13:17:21Z</time>
      </trkpt>
      <trkpt lat="47.60729" lon="6.45322">
        <ele>275.6</ele>
        <time>2025-09-13T13:17:22Z</time>
      </trkpt>
      <trkpt lat="47.60723" lon="6.45316">
        <ele>275.6</ele>
        <time>2025-09-13T13:17:23Z</time>
      </trkpt>
      <trkpt lat="47.60713" lon="6.4531">
        <ele>275.6</ele>
        <time>2025-09-13T13:17:24Z</time>
      </trkpt>
      <trkpt lat="47.60704" lon="6.45305">
        <ele>275.7</ele>
        <time>2025-09-13T13:17:25Z</time>
      </trkpt>
      <trkpt lat="47.60693" lon="6.45301">
        <ele>275.7</ele>
        <time>2025-09-13T13:17:26Z</time>
      </trkpt>
      <trkpt lat="47.60684" lon="6.45296">
        <ele>275.7</ele>
        <time>2025-09-13T13:17:27Z</time>
      </trkpt>
      <trkpt lat="47.60678" lon="6.45291">
        <ele>275.7</ele>
        <time>2025-09-13T13:17:28Z</time>
      </trkpt>
      <trkpt lat="47.60671" lon="6.45287">
        <ele>275.7</ele>
        <time>2025-09-13T13:17:29Z</time>
      </trkpt>
      <trkpt lat="47.60664" lon="6.45283">
        <ele>275.8</ele>
        <time>2025-09-13T13:17:30Z</time>
      </trkpt>
      <trkpt lat="47.60657" lon="6.45278">
        <ele>275.8</ele>
        <time>2025-09-13T13:17:31Z</time>
      </trkpt>
      <trkpt lat="47.60651" lon="6.45274">
        <ele>275.8</ele>
        <time>2025-09-13T13:17:32Z</time>
      </trkpt>
      <trkpt lat="47.60645" lon="6.45269">
        <ele>275.8</ele>
        <time>2025-09-13T13:17:33Z</time>
      </trkpt>
      <trkpt lat="47.60639" lon="6.45265">
        <ele>275.8</ele>
        <time>2025-09-13T13:17:34Z</time>
      </trkpt>
      <trkpt lat="47.60632" lon="6.45261">
        <ele>275.9</ele>
        <time>2025-09-13T13:17:35Z</time>
      </trkpt>
      <trkpt lat="47.60625" lon="6.45258">
        <ele>275.9</ele>
        <time>2025-09-13T13:17:36Z</time>
      </trkpt>
      <trkpt lat="47.60618" lon="6.45254">
        <ele>275.9</ele>
        <time>2025-09-13T13:17:37Z</time>
      </trkpt>
      <trkpt lat="47.60611" lon="6.4525">
        <ele>275.9</ele>
        <time>2025-09-13T13:17:38Z</time>
      </trkpt>
      <trkpt lat="47.60604" lon="6.45246">
        <ele>275.9</ele>
        <time>2025-09-13T13:17:39Z</time>
      </trkpt>
      <trkpt lat="47.60598" lon="6.45242">
        <ele>275.9</ele>
        <time>2025-09-13T13:17:40Z</time>
      </trkpt>
      <trkpt lat="47.60592" lon="6.45239">
        <ele>276</ele>
        <time>2025-09-13T13:17:41Z</time>
      </trkpt>
      <trkpt lat="47.60586" lon="6.45235">
        <ele>276</ele>
        <time>2025-09-13T13:17:42Z</time>
      </trkpt>
      <trkpt lat="47.60581" lon="6.45233">
        <ele>276</ele>
        <time>2025-09-13T13:17:43Z</time>
      </trkpt>
      <trkpt lat="47.60574" lon="6.45229">
        <ele>276</ele>
        <time>2025-09-13T13:17:44Z</time>
      </trkpt>
      <trkpt lat="47.60568" lon="6.45227">
        <ele>276.1</ele>
        <time>2025-09-13T13:17:45Z</time>
      </trkpt>
      <trkpt lat="47.60562" lon="6.45224">
        <ele>276.1</ele>
        <time>2025-09-13T13:17:46Z</time>
      </trkpt>
      <trkpt lat="47.60556" lon="6.45222">
        <ele>276.1</ele>
        <time>2025-09-13T13:17:47Z</time>
      </trkpt>
      <trkpt lat="47.60551" lon="6.45219">
        <ele>276.2</ele>
        <time>2025-09-13T13:17:48Z</time>
      </trkpt>
      <trkpt lat="47.60545" lon="6.45217">
        <ele>276.2</ele>
        <time>2025-09-13T13:17:49Z</time>
      </trkpt>
      <trkpt lat="47.60539" lon="6.45215">
        <ele>276.3</ele>
        <time>2025-09-13T13:17:50Z</time>
      </trkpt>
      <trkpt lat="47.60533" lon="6.45213">
        <ele>276.3</ele>
        <time>2025-09-13T13:17:51Z</time>
      </trkpt>
      <trkpt lat="47.60527" lon="6.45211">
        <ele>276.2</ele>
        <time>2025-09-13T13:17:52Z</time>
      </trkpt>
      <trkpt lat="47.60521" lon="6.45209">
        <ele>276.2</ele>
        <time>2025-09-13T13:17:53Z</time>
      </trkpt>
      <trkpt lat="47.60515" lon="6.45207">
        <ele>276.1</ele>
        <time>2025-09-13T13:17:54Z</time>
      </trkpt>
      <trkpt lat="47.60509" lon="6.45206">
        <ele>276</ele>
        <time>2025-09-13T13:17:55Z</time>
      </trkpt>
      <trkpt lat="47.60503" lon="6.45205">
        <ele>275.9</ele>
        <time>2025-09-13T13:17:56Z</time>
      </trkpt>
      <trkpt lat="47.60496" lon="6.45203">
        <ele>275.8</ele>
        <time>2025-09-13T13:17:57Z</time>
      </trkpt>
      <trkpt lat="47.6049" lon="6.45201">
        <ele>275.7</ele>
        <time>2025-09-13T13:17:58Z</time>
      </trkpt>
      <trkpt lat="47.60484" lon="6.45198">
        <ele>275.6</ele>
        <time>2025-09-13T13:17:59Z</time>
      </trkpt>
      <trkpt lat="47.60478" lon="6.45197">
        <ele>275.6</ele>
        <time>2025-09-13T13:18:00Z</time>
      </trkpt>
      <trkpt lat="47.60471" lon="6.45195">
        <ele>275.5</ele>
        <time>2025-09-13T13:18:01Z</time>
      </trkpt>
      <trkpt lat="47.60464" lon="6.45194">
        <ele>275.4</ele>
        <time>2025-09-13T13:18:02Z</time>
      </trkpt>
      <trkpt lat="47.60458" lon="6.45192">
        <ele>275.4</ele>
        <time>2025-09-13T13:18:03Z</time>
      </trkpt>
      <trkpt lat="47.60451" lon="6.4519">
        <ele>275.4</ele>
        <time>2025-09-13T13:18:04Z</time>
      </trkpt>
      <trkpt lat="47.60446" lon="6.45189">
        <ele>275.3</ele>
        <time>2025-09-13T13:18:05Z</time>
      </trkpt>
      <trkpt lat="47.6044" lon="6.45187">
        <ele>275.3</ele>
        <time>2025-09-13T13:18:06Z</time>
      </trkpt>
      <trkpt lat="47.60433" lon="6.45186">
        <ele>275.2</ele>
        <time>2025-09-13T13:18:07Z</time>
      </trkpt>
      <trkpt lat="47.60427" lon="6.45184">
        <ele>275.1</ele>
        <time>2025-09-13T13:18:08Z</time>
      </trkpt>
      <trkpt lat="47.6042" lon="6.45182">
        <ele>275.1</ele>
        <time>2025-09-13T13:18:09Z</time>
      </trkpt>
      <trkpt lat="47.60414" lon="6.45181">
        <ele>275</ele>
        <time>2025-09-13T13:18:10Z</time>
      </trkpt>
      <trkpt lat="47.60408" lon="6.45179">
        <ele>274.9</ele>
        <time>2025-09-13T13:18:11Z</time>
      </trkpt>
      <trkpt lat="47.60402" lon="6.45178">
        <ele>274.8</ele>
        <time>2025-09-13T13:18:12Z</time>
      </trkpt>
      <trkpt lat="47.60395" lon="6.45176">
        <ele>274.8</ele>
        <time>2025-09-13T13:18:13Z</time>
      </trkpt>
      <trkpt lat="47.60388" lon="6.45174">
        <ele>274.7</ele>
        <time>2025-09-13T13:18:14Z</time>
      </trkpt>
      <trkpt lat="47.60382" lon="6.45172">
        <ele>274.6</ele>
        <time>2025-09-13T13:18:15Z</time>
      </trkpt>
      <trkpt lat="47.60375" lon="6.45169">
        <ele>274.6</ele>
        <time>2025-09-13T13:18:16Z</time>
      </trkpt>
      <trkpt lat="47.60369" lon="6.45166">
        <ele>274.5</ele>
        <time>2025-09-13T13:18:17Z</time>
      </trkpt>
      <trkpt lat="47.60363" lon="6.45164">
        <ele>274.4</ele>
        <time>2025-09-13T13:18:18Z</time>
      </trkpt>
      <trkpt lat="47.60357" lon="6.4516">
        <ele>274.4</ele>
        <time>2025-09-13T13:18:19Z</time>
      </trkpt>
      <trkpt lat="47.60351" lon="6.45156">
        <ele>274.3</ele>
        <time>2025-09-13T13:18:20Z</time>
      </trkpt>
      <trkpt lat="47.60345" lon="6.45153">
        <ele>274.3</ele>
        <time>2025-09-13T13:18:21Z</time>
      </trkpt>
      <trkpt lat="47.6034" lon="6.45148">
        <ele>274.2</ele>
        <time>2025-09-13T13:18:22Z</time>
      </trkpt>
      <trkpt lat="47.60334" lon="6.45144">
        <ele>274.1</ele>
        <time>2025-09-13T13:18:23Z</time>
      </trkpt>
      <trkpt lat="47.60328" lon="6.4514">
        <ele>274</ele>
        <time>2025-09-13T13:18:24Z</time>
      </trkpt>
      <trkpt lat="47.60322" lon="6.45135">
        <ele>273.9</ele>
        <time>2025-09-13T13:18:25Z</time>
      </trkpt>
      <trkpt lat="47.60317" lon="6.4513">
        <ele>273.8</ele>
        <time>2025-09-13T13:18:26Z</time>
      </trkpt>
      <trkpt lat="47.60311" lon="6.45124">
        <ele>273.7</ele>
        <time>2025-09-13T13:18:27Z</time>
      </trkpt>
      <trkpt lat="47.60305" lon="6.45119">
        <ele>273.6</ele>
        <time>2025-09-13T13:18:28Z</time>
      </trkpt>
      <trkpt lat="47.603" lon="6.45113">
        <ele>273.5</ele>
        <time>2025-09-13T13:18:29Z</time>
      </trkpt>
      <trkpt lat="47.60295" lon="6.45107">
        <ele>273.5</ele>
        <time>2025-09-13T13:18:30Z</time>
      </trkpt>
      <trkpt lat="47.6029" lon="6.45101">
        <ele>273.4</ele>
        <time>2025-09-13T13:18:31Z</time>
      </trkpt>
      <trkpt lat="47.60285" lon="6.45095">
        <ele>273.4</ele>
        <time>2025-09-13T13:18:32Z</time>
      </trkpt>
      <trkpt lat="47.6028" lon="6.45089">
        <ele>273.3</ele>
        <time>2025-09-13T13:18:33Z</time>
      </trkpt>
      <trkpt lat="47.60275" lon="6.45083">
        <ele>273.3</ele>
        <time>2025-09-13T13:18:34Z</time>
      </trkpt>
      <trkpt lat="47.60269" lon="6.45077">
        <ele>273.2</ele>
        <time>2025-09-13T13:18:35Z</time>
      </trkpt>
      <trkpt lat="47.60264" lon="6.45071">
        <ele>273.1</ele>
        <time>2025-09-13T13:18:36Z</time>
      </trkpt>
      <trkpt lat="47.60258" lon="6.45065">
        <ele>273</ele>
        <time>2025-09-13T13:18:37Z</time>
      </trkpt>
      <trkpt lat="47.60253" lon="6.45059">
        <ele>272.9</ele>
        <time>2025-09-13T13:18:38Z</time>
      </trkpt>
      <trkpt lat="47.60248" lon="6.45053">
        <ele>272.9</ele>
        <time>2025-09-13T13:18:39Z</time>
      </trkpt>
      <trkpt lat="47.60243" lon="6.45046">
        <ele>272.8</ele>
        <time>2025-09-13T13:18:40Z</time>
      </trkpt>
      <trkpt lat="47.60237" lon="6.4504">
        <ele>272.8</ele>
        <time>2025-09-13T13:18:41Z</time>
      </trkpt>
      <trkpt lat="47.60231" lon="6.45033">
        <ele>272.7</ele>
        <time>2025-09-13T13:18:42Z</time>
      </trkpt>
      <trkpt lat="47.60226" lon="6.45027">
        <ele>272.6</ele>
        <time>2025-09-13T13:18:43Z</time>
      </trkpt>
      <trkpt lat="47.60221" lon="6.4502">
        <ele>272.6</ele>
        <time>2025-09-13T13:18:44Z</time>
      </trkpt>
      <trkpt lat="47.60216" lon="6.45014">
        <ele>272.5</ele>
        <time>2025-09-13T13:18:45Z</time>
      </trkpt>
      <trkpt lat="47.6021" lon="6.45008">
        <ele>272.4</ele>
        <time>2025-09-13T13:18:46Z</time>
      </trkpt>
      <trkpt lat="47.60205" lon="6.45002">
        <ele>272.3</ele>
        <time>2025-09-13T13:18:47Z</time>
      </trkpt>
      <trkpt lat="47.602" lon="6.44995">
        <ele>272.3</ele>
        <time>2025-09-13T13:18:48Z</time>
      </trkpt>
      <trkpt lat="47.60195" lon="6.44989">
        <ele>272.3</ele>
        <time>2025-09-13T13:18:49Z</time>
      </trkpt>
      <trkpt lat="47.60189" lon="6.44983">
        <ele>272.2</ele>
        <time>2025-09-13T13:18:50Z</time>
      </trkpt>
      <trkpt lat="47.60184" lon="6.44977">
        <ele>272.2</ele>
        <time>2025-09-13T13:18:51Z</time>
      </trkpt>
      <trkpt lat="47.60179" lon="6.44971">
        <ele>272.1</ele>
        <time>2025-09-13T13:18:52Z</time>
      </trkpt>
      <trkpt lat="47.60174" lon="6.44965">
        <ele>272.1</ele>
        <time>2025-09-13T13:18:53Z</time>
      </trkpt>
      <trkpt lat="47.60169" lon="6.44958">
        <ele>272</ele>
        <time>2025-09-13T13:18:54Z</time>
      </trkpt>
      <trkpt lat="47.60164" lon="6.44953">
        <ele>271.9</ele>
        <time>2025-09-13T13:18:55Z</time>
      </trkpt>
      <trkpt lat="47.60159" lon="6.44947">
        <ele>271.9</ele>
        <time>2025-09-13T13:18:56Z</time>
      </trkpt>
      <trkpt lat="47.60153" lon="6.4494">
        <ele>271.9</ele>
        <time>2025-09-13T13:18:57Z</time>
      </trkpt>
      <trkpt lat="47.60148" lon="6.44934">
        <ele>271.8</ele>
        <time>2025-09-13T13:18:58Z</time>
      </trkpt>
      <trkpt lat="47.60143" lon="6.44928">
        <ele>271.8</ele>
        <time>2025-09-13T13:18:59Z</time>
      </trkpt>
      <trkpt lat="47.60137" lon="6.44922">
        <ele>271.8</ele>
        <time>2025-09-13T13:19:00Z</time>
      </trkpt>
      <trkpt lat="47.60132" lon="6.44916">
        <ele>271.7</ele>
        <time>2025-09-13T13:19:01Z</time>
      </trkpt>
      <trkpt lat="47.60127" lon="6.44909">
        <ele>271.7</ele>
        <time>2025-09-13T13:19:02Z</time>
      </trkpt>
      <trkpt lat="47.60121" lon="6.44903">
        <ele>271.7</ele>
        <time>2025-09-13T13:19:03Z</time>
      </trkpt>
      <trkpt lat="47.60117" lon="6.44897">
        <ele>271.7</ele>
        <time>2025-09-13T13:19:04Z</time>
      </trkpt>
      <trkpt lat="47.60111" lon="6.4489">
        <ele>271.7</ele>
        <time>2025-09-13T13:19:05Z</time>
      </trkpt>
      <trkpt lat="47.60106" lon="6.44885">
        <ele>271.7</ele>
        <time>2025-09-13T13:19:06Z</time>
      </trkpt>
      <trkpt lat="47.60101" lon="6.44878">
        <ele>271.7</ele>
        <time>2025-09-13T13:19:07Z</time>
      </trkpt>
      <trkpt lat="47.60096" lon="6.44872">
        <ele>271.7</ele>
        <time>2025-09-13T13:19:08Z</time>
      </trkpt>
      <trkpt lat="47.6009" lon="6.44866">
        <ele>271.6</ele>
        <time>2025-09-13T13:19:09Z</time>
      </trkpt>
      <trkpt lat="47.60085" lon="6.44861">
        <ele>271.6</ele>
        <time>2025-09-13T13:19:10Z</time>
      </trkpt>
      <trkpt lat="47.6008" lon="6.44854">
        <ele>271.6</ele>
        <time>2025-09-13T13:19:11Z</time>
      </trkpt>
      <trkpt lat="47.60075" lon="6.44848">
        <ele>271.5</ele>
        <time>2025-09-13T13:19:12Z</time>
      </trkpt>
      <trkpt lat="47.6007" lon="6.44842">
        <ele>271.5</ele>
        <time>2025-09-13T13:19:13Z</time>
      </trkpt>
      <trkpt lat="47.60064" lon="6.44836">
        <ele>271.5</ele>
        <time>2025-09-13T13:19:14Z</time>
      </trkpt>
      <trkpt lat="47.60059" lon="6.44829">
        <ele>271.4</ele>
        <time>2025-09-13T13:19:15Z</time>
      </trkpt>
      <trkpt lat="47.60054" lon="6.44823">
        <ele>271.4</ele>
        <time>2025-09-13T13:19:16Z</time>
      </trkpt>
      <trkpt lat="47.60048" lon="6.44818">
        <ele>271.3</ele>
        <time>2025-09-13T13:19:17Z</time>
      </trkpt>
      <trkpt lat="47.60042" lon="6.44812">
        <ele>271.2</ele>
        <time>2025-09-13T13:19:18Z</time>
      </trkpt>
      <trkpt lat="47.60036" lon="6.44805">
        <ele>271.2</ele>
        <time>2025-09-13T13:19:19Z</time>
      </trkpt>
      <trkpt lat="47.60031" lon="6.44798">
        <ele>271.1</ele>
        <time>2025-09-13T13:19:20Z</time>
      </trkpt>
      <trkpt lat="47.60025" lon="6.44792">
        <ele>271.1</ele>
        <time>2025-09-13T13:19:21Z</time>
      </trkpt>
      <trkpt lat="47.60021" lon="6.44785">
        <ele>271.1</ele>
        <time>2025-09-13T13:19:22Z</time>
      </trkpt>
      <trkpt lat="47.60015" lon="6.44779">
        <ele>271.1</ele>
        <time>2025-09-13T13:19:23Z</time>
      </trkpt>
      <trkpt lat="47.6001" lon="6.44773">
        <ele>271.1</ele>
        <time>2025-09-13T13:19:24Z</time>
      </trkpt>
      <trkpt lat="47.60004" lon="6.44767">
        <ele>271.1</ele>
        <time>2025-09-13T13:19:25Z</time>
      </trkpt>
      <trkpt lat="47.59998" lon="6.44762">
        <ele>271.1</ele>
        <time>2025-09-13T13:19:26Z</time>
      </trkpt>
      <trkpt lat="47.59993" lon="6.44758">
        <ele>271.2</ele>
        <time>2025-09-13T13:19:27Z</time>
      </trkpt>
      <trkpt lat="47.59986" lon="6.44755">
        <ele>271.2</ele>
        <time>2025-09-13T13:19:28Z</time>
      </trkpt>
      <trkpt lat="47.5998" lon="6.44752">
        <ele>271.2</ele>
        <time>2025-09-13T13:19:29Z</time>
      </trkpt>
      <trkpt lat="47.59973" lon="6.4475">
        <ele>271.1</ele>
        <time>2025-09-13T13:19:30Z</time>
      </trkpt>
      <trkpt lat="47.59966" lon="6.44749">
        <ele>271.1</ele>
        <time>2025-09-13T13:19:31Z</time>
      </trkpt>
      <trkpt lat="47.59959" lon="6.4475">
        <ele>271.1</ele>
        <time>2025-09-13T13:19:32Z</time>
      </trkpt>
      <trkpt lat="47.59953" lon="6.44751">
        <ele>271.2</ele>
        <time>2025-09-13T13:19:33Z</time>
      </trkpt>
      <trkpt lat="47.59945" lon="6.44757">
        <ele>271.2</ele>
        <time>2025-09-13T13:19:34Z</time>
      </trkpt>
      <trkpt lat="47.59939" lon="6.44762">
        <ele>271.2</ele>
        <time>2025-09-13T13:19:35Z</time>
      </trkpt>
      <trkpt lat="47.59934" lon="6.44769">
        <ele>271.3</ele>
        <time>2025-09-13T13:19:36Z</time>
      </trkpt>
      <trkpt lat="47.5993" lon="6.44774">
        <ele>271.3</ele>
        <time>2025-09-13T13:19:37Z</time>
      </trkpt>
      <trkpt lat="47.59926" lon="6.44781">
        <ele>271.4</ele>
        <time>2025-09-13T13:19:38Z</time>
      </trkpt>
      <trkpt lat="47.59923" lon="6.44787">
        <ele>271.4</ele>
        <time>2025-09-13T13:19:39Z</time>
      </trkpt>
      <trkpt lat="47.59919" lon="6.44793">
        <ele>271.5</ele>
        <time>2025-09-13T13:19:40Z</time>
      </trkpt>
      <trkpt lat="47.59915" lon="6.44799">
        <ele>271.6</ele>
        <time>2025-09-13T13:19:41Z</time>
      </trkpt>
      <trkpt lat="47.5991" lon="6.44805">
        <ele>271.7</ele>
        <time>2025-09-13T13:19:42Z</time>
      </trkpt>
      <trkpt lat="47.59906" lon="6.44809">
        <ele>271.8</ele>
        <time>2025-09-13T13:19:43Z</time>
      </trkpt>
      <trkpt lat="47.59901" lon="6.44813">
        <ele>271.9</ele>
        <time>2025-09-13T13:19:44Z</time>
      </trkpt>
      <trkpt lat="47.59897" lon="6.44816">
        <ele>271.9</ele>
        <time>2025-09-13T13:19:45Z</time>
      </trkpt>
      <trkpt lat="47.59892" lon="6.44818">
        <ele>272</ele>
        <time>2025-09-13T13:19:46Z</time>
      </trkpt>
      <trkpt lat="47.59886" lon="6.4482">
        <ele>272.1</ele>
        <time>2025-09-13T13:19:47Z</time>
      </trkpt>
      <trkpt lat="47.59881" lon="6.4482">
        <ele>272.1</ele>
        <time>2025-09-13T13:19:48Z</time>
      </trkpt>
      <trkpt lat="47.59875" lon="6.4482">
        <ele>272.1</ele>
        <time>2025-09-13T13:19:49Z</time>
      </trkpt>
      <trkpt lat="47.59869" lon="6.4482">
        <ele>272.1</ele>
        <time>2025-09-13T13:19:50Z</time>
      </trkpt>
      <trkpt lat="47.59863" lon="6.44818">
        <ele>272.1</ele>
        <time>2025-09-13T13:19:51Z</time>
      </trkpt>
      <trkpt lat="47.59857" lon="6.44817">
        <ele>272.1</ele>
        <time>2025-09-13T13:19:52Z</time>
      </trkpt>
      <trkpt lat="47.59851" lon="6.44816">
        <ele>272.1</ele>
        <time>2025-09-13T13:19:53Z</time>
      </trkpt>
      <trkpt lat="47.59846" lon="6.44815">
        <ele>272.2</ele>
        <time>2025-09-13T13:19:54Z</time>
      </trkpt>
      <trkpt lat="47.5984" lon="6.44816">
        <ele>272.2</ele>
        <time>2025-09-13T13:19:55Z</time>
      </trkpt>
      <trkpt lat="47.59833" lon="6.44815">
        <ele>272.3</ele>
        <time>2025-09-13T13:19:56Z</time>
      </trkpt>
      <trkpt lat="47.59827" lon="6.44815">
        <ele>272.4</ele>
        <time>2025-09-13T13:19:57Z</time>
      </trkpt>
      <trkpt lat="47.59821" lon="6.44814">
        <ele>272.4</ele>
        <time>2025-09-13T13:19:58Z</time>
      </trkpt>
      <trkpt lat="47.59814" lon="6.44813">
        <ele>272.6</ele>
        <time>2025-09-13T13:19:59Z</time>
      </trkpt>
      <trkpt lat="47.59809" lon="6.44813">
        <ele>272.7</ele>
        <time>2025-09-13T13:20:00Z</time>
      </trkpt>
      <trkpt lat="47.59803" lon="6.44812">
        <ele>272.8</ele>
        <time>2025-09-13T13:20:01Z</time>
      </trkpt>
      <trkpt lat="47.59797" lon="6.44812">
        <ele>272.9</ele>
        <time>2025-09-13T13:20:02Z</time>
      </trkpt>
      <trkpt lat="47.59791" lon="6.44812">
        <ele>273</ele>
        <time>2025-09-13T13:20:03Z</time>
      </trkpt>
      <trkpt lat="47.59786" lon="6.44811">
        <ele>273.1</ele>
        <time>2025-09-13T13:20:04Z</time>
      </trkpt>
      <trkpt lat="47.59781" lon="6.4481">
        <ele>273.2</ele>
        <time>2025-09-13T13:20:05Z</time>
      </trkpt>
      <trkpt lat="47.59776" lon="6.4481">
        <ele>273.3</ele>
        <time>2025-09-13T13:20:06Z</time>
      </trkpt>
      <trkpt lat="47.5977" lon="6.44809">
        <ele>273.4</ele>
        <time>2025-09-13T13:20:07Z</time>
      </trkpt>
      <trkpt lat="47.59765" lon="6.44808">
        <ele>273.5</ele>
        <time>2025-09-13T13:20:08Z</time>
      </trkpt>
      <trkpt lat="47.59759" lon="6.44809">
        <ele>273.6</ele>
        <time>2025-09-13T13:20:09Z</time>
      </trkpt>
      <trkpt lat="47.59754" lon="6.44808">
        <ele>273.7</ele>
        <time>2025-09-13T13:20:10Z</time>
      </trkpt>
      <trkpt lat="47.59748" lon="6.44808">
        <ele>273.8</ele>
        <time>2025-09-13T13:20:11Z</time>
      </trkpt>
      <trkpt lat="47.59742" lon="6.44806">
        <ele>273.8</ele>
        <time>2025-09-13T13:20:12Z</time>
      </trkpt>
      <trkpt lat="47.59737" lon="6.44806">
        <ele>273.9</ele>
        <time>2025-09-13T13:20:13Z</time>
      </trkpt>
      <trkpt lat="47.59731" lon="6.44805">
        <ele>273.9</ele>
        <time>2025-09-13T13:20:14Z</time>
      </trkpt>
      <trkpt lat="47.59725" lon="6.44805">
        <ele>274</ele>
        <time>2025-09-13T13:20:15Z</time>
      </trkpt>
      <trkpt lat="47.59719" lon="6.44805">
        <ele>274</ele>
        <time>2025-09-13T13:20:16Z</time>
      </trkpt>
      <trkpt lat="47.59713" lon="6.44804">
        <ele>274</ele>
        <time>2025-09-13T13:20:17Z</time>
      </trkpt>
      <trkpt lat="47.59706" lon="6.44803">
        <ele>274</ele>
        <time>2025-09-13T13:20:18Z</time>
      </trkpt>
      <trkpt lat="47.597" lon="6.44803">
        <ele>273.9</ele>
        <time>2025-09-13T13:20:19Z</time>
      </trkpt>
      <trkpt lat="47.59694" lon="6.44802">
        <ele>273.9</ele>
        <time>2025-09-13T13:20:20Z</time>
      </trkpt>
      <trkpt lat="47.59688" lon="6.44801">
        <ele>273.9</ele>
        <time>2025-09-13T13:20:21Z</time>
      </trkpt>
      <trkpt lat="47.59682" lon="6.44801">
        <ele>273.9</ele>
        <time>2025-09-13T13:20:22Z</time>
      </trkpt>
      <trkpt lat="47.59675" lon="6.44801">
        <ele>273.9</ele>
        <time>2025-09-13T13:20:23Z</time>
      </trkpt>
      <trkpt lat="47.59669" lon="6.44801">
        <ele>273.9</ele>
        <time>2025-09-13T13:20:24Z</time>
      </trkpt>
      <trkpt lat="47.59663" lon="6.448">
        <ele>273.9</ele>
        <time>2025-09-13T13:20:25Z</time>
      </trkpt>
      <trkpt lat="47.59656" lon="6.44799">
        <ele>273.9</ele>
        <time>2025-09-13T13:20:26Z</time>
      </trkpt>
      <trkpt lat="47.59651" lon="6.44799">
        <ele>273.9</ele>
        <time>2025-09-13T13:20:27Z</time>
      </trkpt>
      <trkpt lat="47.59644" lon="6.44798">
        <ele>273.9</ele>
        <time>2025-09-13T13:20:28Z</time>
      </trkpt>
      <trkpt lat="47.59638" lon="6.44798">
        <ele>273.9</ele>
        <time>2025-09-13T13:20:29Z</time>
      </trkpt>
      <trkpt lat="47.59632" lon="6.44797">
        <ele>273.9</ele>
        <time>2025-09-13T13:20:30Z</time>
      </trkpt>
      <trkpt lat="47.59627" lon="6.44797">
        <ele>273.9</ele>
        <time>2025-09-13T13:20:31Z</time>
      </trkpt>
      <trkpt lat="47.5962" lon="6.44796">
        <ele>273.8</ele>
        <time>2025-09-13T13:20:32Z</time>
      </trkpt>
      <trkpt lat="47.59614" lon="6.44796">
        <ele>273.7</ele>
        <time>2025-09-13T13:20:33Z</time>
      </trkpt>
      <trkpt lat="47.59608" lon="6.44796">
        <ele>273.7</ele>
        <time>2025-09-13T13:20:34Z</time>
      </trkpt>
      <trkpt lat="47.59601" lon="6.44796">
        <ele>273.6</ele>
        <time>2025-09-13T13:20:35Z</time>
      </trkpt>
      <trkpt lat="47.59594" lon="6.44796">
        <ele>273.6</ele>
        <time>2025-09-13T13:20:36Z</time>
      </trkpt>
      <trkpt lat="47.59587" lon="6.44796">
        <ele>273.5</ele>
        <time>2025-09-13T13:20:37Z</time>
      </trkpt>
      <trkpt lat="47.5958" lon="6.44794">
        <ele>273.5</ele>
        <time>2025-09-13T13:20:38Z</time>
      </trkpt>
      <trkpt lat="47.59574" lon="6.44793">
        <ele>273.5</ele>
        <time>2025-09-13T13:20:39Z</time>
      </trkpt>
      <trkpt lat="47.59568" lon="6.44793">
        <ele>273.5</ele>
        <time>2025-09-13T13:20:40Z</time>
      </trkpt>
      <trkpt lat="47.59562" lon="6.44793">
        <ele>273.5</ele>
        <time>2025-09-13T13:20:41Z</time>
      </trkpt>
      <trkpt lat="47.59555" lon="6.44791">
        <ele>273.5</ele>
        <time>2025-09-13T13:20:42Z</time>
      </trkpt>
      <trkpt lat="47.5955" lon="6.44791">
        <ele>273.5</ele>
        <time>2025-09-13T13:20:43Z</time>
      </trkpt>
      <trkpt lat="47.59543" lon="6.4479">
        <ele>273.5</ele>
        <time>2025-09-13T13:20:44Z</time>
      </trkpt>
      <trkpt lat="47.59538" lon="6.4479">
        <ele>273.4</ele>
        <time>2025-09-13T13:20:45Z</time>
      </trkpt>
      <trkpt lat="47.59532" lon="6.44789">
        <ele>273.4</ele>
        <time>2025-09-13T13:20:46Z</time>
      </trkpt>
      <trkpt lat="47.59526" lon="6.44788">
        <ele>273.4</ele>
        <time>2025-09-13T13:20:47Z</time>
      </trkpt>
      <trkpt lat="47.59519" lon="6.4479">
        <ele>273.3</ele>
        <time>2025-09-13T13:20:48Z</time>
      </trkpt>
      <trkpt lat="47.59513" lon="6.44788">
        <ele>273.3</ele>
        <time>2025-09-13T13:20:49Z</time>
      </trkpt>
      <trkpt lat="47.59507" lon="6.44787">
        <ele>273.3</ele>
        <time>2025-09-13T13:20:50Z</time>
      </trkpt>
      <trkpt lat="47.595" lon="6.44789">
        <ele>273.3</ele>
        <time>2025-09-13T13:20:51Z</time>
      </trkpt>
      <trkpt lat="47.59494" lon="6.44788">
        <ele>273.3</ele>
        <time>2025-09-13T13:20:52Z</time>
      </trkpt>
      <trkpt lat="47.59488" lon="6.44788">
        <ele>273.3</ele>
        <time>2025-09-13T13:20:53Z</time>
      </trkpt>
      <trkpt lat="47.59482" lon="6.44786">
        <ele>273.4</ele>
        <time>2025-09-13T13:20:54Z</time>
      </trkpt>
      <trkpt lat="47.59476" lon="6.44785">
        <ele>273.4</ele>
        <time>2025-09-13T13:20:55Z</time>
      </trkpt>
      <trkpt lat="47.59469" lon="6.44785">
        <ele>273.4</ele>
        <time>2025-09-13T13:20:56Z</time>
      </trkpt>
      <trkpt lat="47.59463" lon="6.44785">
        <ele>273.4</ele>
        <time>2025-09-13T13:20:57Z</time>
      </trkpt>
      <trkpt lat="47.59458" lon="6.44782">
        <ele>273.4</ele>
        <time>2025-09-13T13:20:58Z</time>
      </trkpt>
      <trkpt lat="47.59454" lon="6.44778">
        <ele>273.3</ele>
        <time>2025-09-13T13:20:59Z</time>
      </trkpt>
      <trkpt lat="47.59448" lon="6.44773">
        <ele>273.3</ele>
        <time>2025-09-13T13:21:00Z</time>
      </trkpt>
      <trkpt lat="47.59443" lon="6.44769">
        <ele>273.3</ele>
        <time>2025-09-13T13:21:01Z</time>
      </trkpt>
      <trkpt lat="47.59438" lon="6.44764">
        <ele>273.2</ele>
        <time>2025-09-13T13:21:02Z</time>
      </trkpt>
      <trkpt lat="47.59434" lon="6.44756">
        <ele>273.1</ele>
        <time>2025-09-13T13:21:03Z</time>
      </trkpt>
      <trkpt lat="47.5943" lon="6.44749">
        <ele>273</ele>
        <time>2025-09-13T13:21:04Z</time>
      </trkpt>
      <trkpt lat="47.59425" lon="6.44743">
        <ele>272.8</ele>
        <time>2025-09-13T13:21:05Z</time>
      </trkpt>
      <trkpt lat="47.59421" lon="6.44735">
        <ele>272.7</ele>
        <time>2025-09-13T13:21:06Z</time>
      </trkpt>
      <trkpt lat="47.59416" lon="6.44728">
        <ele>272.5</ele>
        <time>2025-09-13T13:21:07Z</time>
      </trkpt>
      <trkpt lat="47.59412" lon="6.4472">
        <ele>272.3</ele>
        <time>2025-09-13T13:21:08Z</time>
      </trkpt>
      <trkpt lat="47.59408" lon="6.44713">
        <ele>272.1</ele>
        <time>2025-09-13T13:21:09Z</time>
      </trkpt>
      <trkpt lat="47.59404" lon="6.44705">
        <ele>271.9</ele>
        <time>2025-09-13T13:21:10Z</time>
      </trkpt>
      <trkpt lat="47.59401" lon="6.44696">
        <ele>271.8</ele>
        <time>2025-09-13T13:21:11Z</time>
      </trkpt>
      <trkpt lat="47.59396" lon="6.44688">
        <ele>271.6</ele>
        <time>2025-09-13T13:21:12Z</time>
      </trkpt>
      <trkpt lat="47.59391" lon="6.44682">
        <ele>271.4</ele>
        <time>2025-09-13T13:21:13Z</time>
      </trkpt>
      <trkpt lat="47.59386" lon="6.44679">
        <ele>271.2</ele>
        <time>2025-09-13T13:21:14Z</time>
      </trkpt>
      <trkpt lat="47.59378" lon="6.4468">
        <ele>271.1</ele>
        <time>2025-09-13T13:21:15Z</time>
      </trkpt>
      <trkpt lat="47.59372" lon="6.44683">
        <ele>271</ele>
        <time>2025-09-13T13:21:16Z</time>
      </trkpt>
      <trkpt lat="47.59366" lon="6.44685">
        <ele>270.9</ele>
        <time>2025-09-13T13:21:17Z</time>
      </trkpt>
      <trkpt lat="47.5936" lon="6.44688">
        <ele>270.8</ele>
        <time>2025-09-13T13:21:18Z</time>
      </trkpt>
      <trkpt lat="47.59353" lon="6.4469">
        <ele>270.8</ele>
        <time>2025-09-13T13:21:19Z</time>
      </trkpt>
      <trkpt lat="47.59347" lon="6.44692">
        <ele>270.7</ele>
        <time>2025-09-13T13:21:20Z</time>
      </trkpt>
      <trkpt lat="47.5934" lon="6.44694">
        <ele>270.7</ele>
        <time>2025-09-13T13:21:21Z</time>
      </trkpt>
      <trkpt lat="47.59335" lon="6.44697">
        <ele>270.7</ele>
        <time>2025-09-13T13:21:22Z</time>
      </trkpt>
      <trkpt lat="47.59329" lon="6.44699">
        <ele>270.7</ele>
        <time>2025-09-13T13:21:23Z</time>
      </trkpt>
      <trkpt lat="47.59322" lon="6.44701">
        <ele>270.8</ele>
        <time>2025-09-13T13:21:24Z</time>
      </trkpt>
      <trkpt lat="47.59317" lon="6.44704">
        <ele>270.8</ele>
        <time>2025-09-13T13:21:25Z</time>
      </trkpt>
      <trkpt lat="47.59311" lon="6.44706">
        <ele>270.9</ele>
        <time>2025-09-13T13:21:26Z</time>
      </trkpt>
      <trkpt lat="47.59305" lon="6.44708">
        <ele>270.9</ele>
        <time>2025-09-13T13:21:27Z</time>
      </trkpt>
      <trkpt lat="47.59298" lon="6.44711">
        <ele>271</ele>
        <time>2025-09-13T13:21:28Z</time>
      </trkpt>
      <trkpt lat="47.59293" lon="6.44714">
        <ele>271</ele>
        <time>2025-09-13T13:21:29Z</time>
      </trkpt>
      <trkpt lat="47.59286" lon="6.44716">
        <ele>271.1</ele>
        <time>2025-09-13T13:21:30Z</time>
      </trkpt>
      <trkpt lat="47.59281" lon="6.44718">
        <ele>271.1</ele>
        <time>2025-09-13T13:21:31Z</time>
      </trkpt>
      <trkpt lat="47.59275" lon="6.44721">
        <ele>271.2</ele>
        <time>2025-09-13T13:21:32Z</time>
      </trkpt>
      <trkpt lat="47.59269" lon="6.44725">
        <ele>271.3</ele>
        <time>2025-09-13T13:21:33Z</time>
      </trkpt>
      <trkpt lat="47.59264" lon="6.44729">
        <ele>271.3</ele>
        <time>2025-09-13T13:21:34Z</time>
      </trkpt>
      <trkpt lat="47.59259" lon="6.44733">
        <ele>271.4</ele>
        <time>2025-09-13T13:21:35Z</time>
      </trkpt>
      <trkpt lat="47.59254" lon="6.44739">
        <ele>271.5</ele>
        <time>2025-09-13T13:21:36Z</time>
      </trkpt>
      <trkpt lat="47.5925" lon="6.44746">
        <ele>271.6</ele>
        <time>2025-09-13T13:21:37Z</time>
      </trkpt>
      <trkpt lat="47.59246" lon="6.44753">
        <ele>271.6</ele>
        <time>2025-09-13T13:21:38Z</time>
      </trkpt>
      <trkpt lat="47.59244" lon="6.44762">
        <ele>271.7</ele>
        <time>2025-09-13T13:21:39Z</time>
      </trkpt>
      <trkpt lat="47.59242" lon="6.4477">
        <ele>271.8</ele>
        <time>2025-09-13T13:21:40Z</time>
      </trkpt>
      <trkpt lat="47.59241" lon="6.44779">
        <ele>272</ele>
        <time>2025-09-13T13:21:41Z</time>
      </trkpt>
      <trkpt lat="47.59241" lon="6.44788">
        <ele>272.1</ele>
        <time>2025-09-13T13:21:42Z</time>
      </trkpt>
      <trkpt lat="47.5924" lon="6.44796">
        <ele>272.2</ele>
        <time>2025-09-13T13:21:43Z</time>
      </trkpt>
      <trkpt lat="47.5924" lon="6.44804">
        <ele>272.3</ele>
        <time>2025-09-13T13:21:44Z</time>
      </trkpt>
      <trkpt lat="47.59239" lon="6.44812">
        <ele>272.3</ele>
        <time>2025-09-13T13:21:45Z</time>
      </trkpt>
      <trkpt lat="47.59236" lon="6.44818">
        <ele>272.4</ele>
        <time>2025-09-13T13:21:46Z</time>
      </trkpt>
      <trkpt lat="47.59234" lon="6.44825">
        <ele>272.5</ele>
        <time>2025-09-13T13:21:47Z</time>
      </trkpt>
      <trkpt lat="47.59231" lon="6.44832">
        <ele>272.5</ele>
        <time>2025-09-13T13:21:48Z</time>
      </trkpt>
      <trkpt lat="47.59228" lon="6.44837">
        <ele>272.5</ele>
        <time>2025-09-13T13:21:49Z</time>
      </trkpt>
      <trkpt lat="47.59224" lon="6.44842">
        <ele>272.5</ele>
        <time>2025-09-13T13:21:50Z</time>
      </trkpt>
      <trkpt lat="47.59221" lon="6.44847">
        <ele>272.5</ele>
        <time>2025-09-13T13:21:51Z</time>
      </trkpt>
      <trkpt lat="47.59217" lon="6.44852">
        <ele>272.5</ele>
        <time>2025-09-13T13:21:52Z</time>
      </trkpt>
      <trkpt lat="47.59213" lon="6.44857">
        <ele>272.6</ele>
        <time>2025-09-13T13:21:53Z</time>
      </trkpt>
      <trkpt lat="47.59209" lon="6.44861">
        <ele>272.6</ele>
        <time>2025-09-13T13:21:54Z</time>
      </trkpt>
      <trkpt lat="47.59206" lon="6.44865">
        <ele>272.6</ele>
        <time>2025-09-13T13:21:55Z</time>
      </trkpt>
      <trkpt lat="47.59202" lon="6.44869">
        <ele>272.6</ele>
        <time>2025-09-13T13:21:56Z</time>
      </trkpt>
      <trkpt lat="47.59197" lon="6.44871">
        <ele>272.5</ele>
        <time>2025-09-13T13:21:57Z</time>
      </trkpt>
      <trkpt lat="47.59193" lon="6.44874">
        <ele>272.5</ele>
        <time>2025-09-13T13:21:58Z</time>
      </trkpt>
      <trkpt lat="47.59189" lon="6.44875">
        <ele>272.5</ele>
        <time>2025-09-13T13:21:59Z</time>
      </trkpt>
      <trkpt lat="47.59183" lon="6.44877">
        <ele>272.5</ele>
        <time>2025-09-13T13:22:00Z</time>
      </trkpt>
      <trkpt lat="47.59178" lon="6.44878">
        <ele>272.5</ele>
        <time>2025-09-13T13:22:01Z</time>
      </trkpt>
      <trkpt lat="47.59173" lon="6.4488">
        <ele>272.5</ele>
        <time>2025-09-13T13:22:02Z</time>
      </trkpt>
      <trkpt lat="47.59168" lon="6.44882">
        <ele>272.5</ele>
        <time>2025-09-13T13:22:03Z</time>
      </trkpt>
      <trkpt lat="47.59163" lon="6.44884">
        <ele>272.5</ele>
        <time>2025-09-13T13:22:04Z</time>
      </trkpt>
      <trkpt lat="47.59158" lon="6.44886">
        <ele>272.6</ele>
        <time>2025-09-13T13:22:05Z</time>
      </trkpt>
      <trkpt lat="47.59153" lon="6.44888">
        <ele>272.6</ele>
        <time>2025-09-13T13:22:06Z</time>
      </trkpt>
      <trkpt lat="47.59148" lon="6.4489">
        <ele>272.7</ele>
        <time>2025-09-13T13:22:07Z</time>
      </trkpt>
      <trkpt lat="47.59143" lon="6.44891">
        <ele>272.7</ele>
        <time>2025-09-13T13:22:08Z</time>
      </trkpt>
      <trkpt lat="47.59139" lon="6.44893">
        <ele>272.8</ele>
        <time>2025-09-13T13:22:09Z</time>
      </trkpt>
      <trkpt lat="47.59134" lon="6.44894">
        <ele>272.8</ele>
        <time>2025-09-13T13:22:10Z</time>
      </trkpt>
      <trkpt lat="47.59129" lon="6.44896">
        <ele>272.8</ele>
        <time>2025-09-13T13:22:11Z</time>
      </trkpt>
      <trkpt lat="47.59124" lon="6.44898">
        <ele>272.9</ele>
        <time>2025-09-13T13:22:12Z</time>
      </trkpt>
      <trkpt lat="47.59118" lon="6.449">
        <ele>272.9</ele>
        <time>2025-09-13T13:22:13Z</time>
      </trkpt>
      <trkpt lat="47.59112" lon="6.449">
        <ele>272.9</ele>
        <time>2025-09-13T13:22:14Z</time>
      </trkpt>
      <trkpt lat="47.59107" lon="6.44901">
        <ele>273</ele>
        <time>2025-09-13T13:22:15Z</time>
      </trkpt>
      <trkpt lat="47.59101" lon="6.44899">
        <ele>273.1</ele>
        <time>2025-09-13T13:22:16Z</time>
      </trkpt>
      <trkpt lat="47.59097" lon="6.44897">
        <ele>273.1</ele>
        <time>2025-09-13T13:22:17Z</time>
      </trkpt>
      <trkpt lat="47.59092" lon="6.44893">
        <ele>273.1</ele>
        <time>2025-09-13T13:22:18Z</time>
      </trkpt>
      <trkpt lat="47.59088" lon="6.44888">
        <ele>273.1</ele>
        <time>2025-09-13T13:22:19Z</time>
      </trkpt>
      <trkpt lat="47.59084" lon="6.44883">
        <ele>273.1</ele>
        <time>2025-09-13T13:22:20Z</time>
      </trkpt>
      <trkpt lat="47.59081" lon="6.44877">
        <ele>273.1</ele>
        <time>2025-09-13T13:22:21Z</time>
      </trkpt>
      <trkpt lat="47.59078" lon="6.4487">
        <ele>273.1</ele>
        <time>2025-09-13T13:22:22Z</time>
      </trkpt>
      <trkpt lat="47.59075" lon="6.44864">
        <ele>273.1</ele>
        <time>2025-09-13T13:22:23Z</time>
      </trkpt>
      <trkpt lat="47.59071" lon="6.44857">
        <ele>273.2</ele>
        <time>2025-09-13T13:22:24Z</time>
      </trkpt>
      <trkpt lat="47.59068" lon="6.44852">
        <ele>273.2</ele>
        <time>2025-09-13T13:22:25Z</time>
      </trkpt>
      <trkpt lat="47.59064" lon="6.44846">
        <ele>273.2</ele>
        <time>2025-09-13T13:22:26Z</time>
      </trkpt>
      <trkpt lat="47.5906" lon="6.44841">
        <ele>273.2</ele>
        <time>2025-09-13T13:22:27Z</time>
      </trkpt>
      <trkpt lat="47.59056" lon="6.44836">
        <ele>273.2</ele>
        <time>2025-09-13T13:22:28Z</time>
      </trkpt>
      <trkpt lat="47.59052" lon="6.44832">
        <ele>273.2</ele>
        <time>2025-09-13T13:22:29Z</time>
      </trkpt>
      <trkpt lat="47.59048" lon="6.44827">
        <ele>273.2</ele>
        <time>2025-09-13T13:22:30Z</time>
      </trkpt>
      <trkpt lat="47.59044" lon="6.44823">
        <ele>273.2</ele>
        <time>2025-09-13T13:22:31Z</time>
      </trkpt>
      <trkpt lat="47.59039" lon="6.44818">
        <ele>273.2</ele>
        <time>2025-09-13T13:22:32Z</time>
      </trkpt>
      <trkpt lat="47.59035" lon="6.44813">
        <ele>273.1</ele>
        <time>2025-09-13T13:22:33Z</time>
      </trkpt>
      <trkpt lat="47.59031" lon="6.44808">
        <ele>273.1</ele>
        <time>2025-09-13T13:22:34Z</time>
      </trkpt>
      <trkpt lat="47.59027" lon="6.44803">
        <ele>273.1</ele>
        <time>2025-09-13T13:22:35Z</time>
      </trkpt>
      <trkpt lat="47.59022" lon="6.44797">
        <ele>273</ele>
        <time>2025-09-13T13:22:36Z</time>
      </trkpt>
      <trkpt lat="47.59018" lon="6.44792">
        <ele>273</ele>
        <time>2025-09-13T13:22:37Z</time>
      </trkpt>
      <trkpt lat="47.59013" lon="6.44786">
        <ele>273</ele>
        <time>2025-09-13T13:22:38Z</time>
      </trkpt>
      <trkpt lat="47.59009" lon="6.44781">
        <ele>272.9</ele>
        <time>2025-09-13T13:22:39Z</time>
      </trkpt>
      <trkpt lat="47.59004" lon="6.44776">
        <ele>272.9</ele>
        <time>2025-09-13T13:22:40Z</time>
      </trkpt>
      <trkpt lat="47.58999" lon="6.44771">
        <ele>272.9</ele>
        <time>2025-09-13T13:22:41Z</time>
      </trkpt>
      <trkpt lat="47.58994" lon="6.44767">
        <ele>272.9</ele>
        <time>2025-09-13T13:22:42Z</time>
      </trkpt>
      <trkpt lat="47.58989" lon="6.44762">
        <ele>272.8</ele>
        <time>2025-09-13T13:22:43Z</time>
      </trkpt>
      <trkpt lat="47.58984" lon="6.44759">
        <ele>272.8</ele>
        <time>2025-09-13T13:22:44Z</time>
      </trkpt>
      <trkpt lat="47.58979" lon="6.44756">
        <ele>272.8</ele>
        <time>2025-09-13T13:22:45Z</time>
      </trkpt>
      <trkpt lat="47.58974" lon="6.44753">
        <ele>272.7</ele>
        <time>2025-09-13T13:22:46Z</time>
      </trkpt>
      <trkpt lat="47.58968" lon="6.4475">
        <ele>272.7</ele>
        <time>2025-09-13T13:22:47Z</time>
      </trkpt>
      <trkpt lat="47.58964" lon="6.44746">
        <ele>272.8</ele>
        <time>2025-09-13T13:22:48Z</time>
      </trkpt>
      <trkpt lat="47.58961" lon="6.44743">
        <ele>272.8</ele>
        <time>2025-09-13T13:22:49Z</time>
      </trkpt>
      <trkpt lat="47.58959" lon="6.44735">
        <ele>272.8</ele>
        <time>2025-09-13T13:22:50Z</time>
      </trkpt>
      <trkpt lat="47.58956" lon="6.4473">
        <ele>272.8</ele>
        <time>2025-09-13T13:22:51Z</time>
      </trkpt>
      <trkpt lat="47.5895" lon="6.44729">
        <ele>272.9</ele>
        <time>2025-09-13T13:22:52Z</time>
      </trkpt>
      <trkpt lat="47.58944" lon="6.4473">
        <ele>272.9</ele>
        <time>2025-09-13T13:22:53Z</time>
      </trkpt>
      <trkpt lat="47.58939" lon="6.44734">
        <ele>272.9</ele>
        <time>2025-09-13T13:22:54Z</time>
      </trkpt>
      <trkpt lat="47.58934" lon="6.44738">
        <ele>273</ele>
        <time>2025-09-13T13:22:55Z</time>
      </trkpt>
      <trkpt lat="47.58928" lon="6.4474">
        <ele>273</ele>
        <time>2025-09-13T13:22:56Z</time>
      </trkpt>
      <trkpt lat="47.58924" lon="6.44742">
        <ele>273.1</ele>
        <time>2025-09-13T13:22:57Z</time>
      </trkpt>
      <trkpt lat="47.58919" lon="6.44743">
        <ele>273.1</ele>
        <time>2025-09-13T13:22:58Z</time>
      </trkpt>
      <trkpt lat="47.58914" lon="6.44745">
        <ele>273.2</ele>
        <time>2025-09-13T13:22:59Z</time>
      </trkpt>
      <trkpt lat="47.58909" lon="6.44746">
        <ele>273.3</ele>
        <time>2025-09-13T13:23:00Z</time>
      </trkpt>
      <trkpt lat="47.58904" lon="6.44747">
        <ele>273.5</ele>
        <time>2025-09-13T13:23:01Z</time>
      </trkpt>
      <trkpt lat="47.589" lon="6.44749">
        <ele>273.8</ele>
        <time>2025-09-13T13:23:02Z</time>
      </trkpt>
      <trkpt lat="47.58898" lon="6.44752">
        <ele>273.9</ele>
        <time>2025-09-13T13:23:03Z</time>
      </trkpt>
      <trkpt lat="47.58894" lon="6.44754">
        <ele>274.2</ele>
        <time>2025-09-13T13:23:04Z</time>
      </trkpt>
      <trkpt lat="47.5889" lon="6.44757">
        <ele>274.5</ele>
        <time>2025-09-13T13:23:05Z</time>
      </trkpt>
      <trkpt lat="47.58886" lon="6.4476">
        <ele>274.8</ele>
        <time>2025-09-13T13:23:06Z</time>
      </trkpt>
      <trkpt lat="47.58882" lon="6.44762">
        <ele>275.1</ele>
        <time>2025-09-13T13:23:07Z</time>
      </trkpt>
      <trkpt lat="47.58878" lon="6.44765">
        <ele>275.3</ele>
        <time>2025-09-13T13:23:08Z</time>
      </trkpt>
      <trkpt lat="47.58875" lon="6.44768">
        <ele>275.6</ele>
        <time>2025-09-13T13:23:09Z</time>
      </trkpt>
      <trkpt lat="47.58872" lon="6.44771">
        <ele>275.9</ele>
        <time>2025-09-13T13:23:10Z</time>
      </trkpt>
      <trkpt lat="47.58868" lon="6.44773">
        <ele>276.1</ele>
        <time>2025-09-13T13:23:11Z</time>
      </trkpt>
      <trkpt lat="47.58865" lon="6.44775">
        <ele>276.4</ele>
        <time>2025-09-13T13:23:12Z</time>
      </trkpt>
      <trkpt lat="47.58861" lon="6.44776">
        <ele>276.7</ele>
        <time>2025-09-13T13:23:13Z</time>
      </trkpt>
      <trkpt lat="47.58857" lon="6.44776">
        <ele>277</ele>
        <time>2025-09-13T13:23:14Z</time>
      </trkpt>
      <trkpt lat="47.58853" lon="6.44778">
        <ele>277.3</ele>
        <time>2025-09-13T13:23:15Z</time>
      </trkpt>
      <trkpt lat="47.58849" lon="6.4478">
        <ele>277.6</ele>
        <time>2025-09-13T13:23:16Z</time>
      </trkpt>
      <trkpt lat="47.58846" lon="6.44781">
        <ele>277.8</ele>
        <time>2025-09-13T13:23:17Z</time>
      </trkpt>
      <trkpt lat="47.58842" lon="6.44783">
        <ele>278.1</ele>
        <time>2025-09-13T13:23:18Z</time>
      </trkpt>
      <trkpt lat="47.58838" lon="6.44785">
        <ele>278.4</ele>
        <time>2025-09-13T13:23:19Z</time>
      </trkpt>
      <trkpt lat="47.58835" lon="6.44787">
        <ele>278.7</ele>
        <time>2025-09-13T13:23:20Z</time>
      </trkpt>
      <trkpt lat="47.5883" lon="6.44787">
        <ele>278.9</ele>
        <time>2025-09-13T13:23:21Z</time>
      </trkpt>
      <trkpt lat="47.58831" lon="6.44789">
        <ele>279</ele>
        <time>2025-09-13T13:23:22Z</time>
      </trkpt>
      <trkpt lat="47.58829" lon="6.44791">
        <ele>279.2</ele>
        <time>2025-09-13T13:23:23Z</time>
      </trkpt>
      <trkpt lat="47.58826" lon="6.44792">
        <ele>279.4</ele>
        <time>2025-09-13T13:23:24Z</time>
      </trkpt>
      <trkpt lat="47.58821" lon="6.44793">
        <ele>279.7</ele>
        <time>2025-09-13T13:23:25Z</time>
      </trkpt>
      <trkpt lat="47.58816" lon="6.44795">
        <ele>280</ele>
        <time>2025-09-13T13:23:26Z</time>
      </trkpt>
      <trkpt lat="47.5881" lon="6.44796">
        <ele>280.3</ele>
        <time>2025-09-13T13:23:27Z</time>
      </trkpt>
      <trkpt lat="47.58806" lon="6.44797">
        <ele>280.5</ele>
        <time>2025-09-13T13:23:28Z</time>
      </trkpt>
      <trkpt lat="47.58802" lon="6.44798">
        <ele>280.8</ele>
        <time>2025-09-13T13:23:29Z</time>
      </trkpt>
      <trkpt lat="47.58797" lon="6.448">
        <ele>281</ele>
        <time>2025-09-13T13:23:30Z</time>
      </trkpt>
      <trkpt lat="47.58793" lon="6.44802">
        <ele>281.3</ele>
        <time>2025-09-13T13:23:31Z</time>
      </trkpt>
      <trkpt lat="47.58789" lon="6.44802">
        <ele>281.5</ele>
        <time>2025-09-13T13:23:32Z</time>
      </trkpt>
      <trkpt lat="47.58784" lon="6.44804">
        <ele>281.8</ele>
        <time>2025-09-13T13:23:33Z</time>
      </trkpt>
      <trkpt lat="47.5878" lon="6.44805">
        <ele>282</ele>
        <time>2025-09-13T13:23:34Z</time>
      </trkpt>
      <trkpt lat="47.58776" lon="6.44808">
        <ele>282.2</ele>
        <time>2025-09-13T13:23:35Z</time>
      </trkpt>
      <trkpt lat="47.58773" lon="6.44812">
        <ele>282.6</ele>
        <time>2025-09-13T13:23:36Z</time>
      </trkpt>
      <trkpt lat="47.5877" lon="6.44817">
        <ele>283</ele>
        <time>2025-09-13T13:23:37Z</time>
      </trkpt>
      <trkpt lat="47.58767" lon="6.44822">
        <ele>283.5</ele>
        <time>2025-09-13T13:23:38Z</time>
      </trkpt>
      <trkpt lat="47.58765" lon="6.44826">
        <ele>283.9</ele>
        <time>2025-09-13T13:23:39Z</time>
      </trkpt>
      <trkpt lat="47.58762" lon="6.44831">
        <ele>284.4</ele>
        <time>2025-09-13T13:23:40Z</time>
      </trkpt>
      <trkpt lat="47.5876" lon="6.44836">
        <ele>284.8</ele>
        <time>2025-09-13T13:23:41Z</time>
      </trkpt>
      <trkpt lat="47.58758" lon="6.44841">
        <ele>285.3</ele>
        <time>2025-09-13T13:23:42Z</time>
      </trkpt>
      <trkpt lat="47.58756" lon="6.44847">
        <ele>285.8</ele>
        <time>2025-09-13T13:23:43Z</time>
      </trkpt>
      <trkpt lat="47.58753" lon="6.44851">
        <ele>286.2</ele>
        <time>2025-09-13T13:23:44Z</time>
      </trkpt>
      <trkpt lat="47.58751" lon="6.44857">
        <ele>286.7</ele>
        <time>2025-09-13T13:23:45Z</time>
      </trkpt>
      <trkpt lat="47.58749" lon="6.44862">
        <ele>287.1</ele>
        <time>2025-09-13T13:23:46Z</time>
      </trkpt>
      <trkpt lat="47.58748" lon="6.44867">
        <ele>287.4</ele>
        <time>2025-09-13T13:23:47Z</time>
      </trkpt>
      <trkpt lat="47.58745" lon="6.44873">
        <ele>287.8</ele>
        <time>2025-09-13T13:23:48Z</time>
      </trkpt>
      <trkpt lat="47.58744" lon="6.44878">
        <ele>288.1</ele>
        <time>2025-09-13T13:23:49Z</time>
      </trkpt>
      <trkpt lat="47.58742" lon="6.44884">
        <ele>288.3</ele>
        <time>2025-09-13T13:23:50Z</time>
      </trkpt>
      <trkpt lat="47.5874" lon="6.4489">
        <ele>288.6</ele>
        <time>2025-09-13T13:23:51Z</time>
      </trkpt>
      <trkpt lat="47.58738" lon="6.44895">
        <ele>288.8</ele>
        <time>2025-09-13T13:23:52Z</time>
      </trkpt>
      <trkpt lat="47.58737" lon="6.44902">
        <ele>289</ele>
        <time>2025-09-13T13:23:53Z</time>
      </trkpt>
      <trkpt lat="47.58735" lon="6.44909">
        <ele>289.2</ele>
        <time>2025-09-13T13:23:54Z</time>
      </trkpt>
      <trkpt lat="47.58734" lon="6.44916">
        <ele>289.4</ele>
        <time>2025-09-13T13:23:55Z</time>
      </trkpt>
      <trkpt lat="47.58733" lon="6.44922">
        <ele>289.6</ele>
        <time>2025-09-13T13:23:56Z</time>
      </trkpt>
      <trkpt lat="47.58731" lon="6.44927">
        <ele>289.8</ele>
        <time>2025-09-13T13:23:57Z</time>
      </trkpt>
      <trkpt lat="47.58731" lon="6.44933">
        <ele>289.9</ele>
        <time>2025-09-13T13:23:58Z</time>
      </trkpt>
      <trkpt lat="47.58731" lon="6.44937">
        <ele>290</ele>
        <time>2025-09-13T13:23:59Z</time>
      </trkpt>
      <trkpt lat="47.58731" lon="6.44941">
        <ele>290.1</ele>
        <time>2025-09-13T13:24:00Z</time>
      </trkpt>
      <trkpt lat="47.58731" lon="6.44947">
        <ele>290.2</ele>
        <time>2025-09-13T13:24:01Z</time>
      </trkpt>
      <trkpt lat="47.58731" lon="6.44948">
        <ele>290.2</ele>
        <time>2025-09-13T13:24:02Z</time>
      </trkpt>
      <trkpt lat="47.58732" lon="6.44953">
        <ele>290.3</ele>
        <time>2025-09-13T13:24:03Z</time>
      </trkpt>
      <trkpt lat="47.58732" lon="6.44954">
        <ele>290.3</ele>
        <time>2025-09-13T13:24:04Z</time>
      </trkpt>
      <trkpt lat="47.58733" lon="6.44959">
        <ele>290.4</ele>
        <time>2025-09-13T13:24:05Z</time>
      </trkpt>
      <trkpt lat="47.58733" lon="6.44961">
        <ele>290.4</ele>
        <time>2025-09-13T13:24:06Z</time>
      </trkpt>
      <trkpt lat="47.58734" lon="6.44966">
        <ele>290.4</ele>
        <time>2025-09-13T13:24:07Z</time>
      </trkpt>
      <trkpt lat="47.58734" lon="6.44969">
        <ele>290.4</ele>
        <time>2025-09-13T13:24:08Z</time>
      </trkpt>
      <trkpt lat="47.58735" lon="6.44975">
        <ele>290.4</ele>
        <time>2025-09-13T13:24:09Z</time>
      </trkpt>
      <trkpt lat="47.58735" lon="6.44977">
        <ele>290.4</ele>
        <time>2025-09-13T13:24:10Z</time>
      </trkpt>
      <trkpt lat="47.58735" lon="6.44982">
        <ele>290.4</ele>
        <time>2025-09-13T13:24:11Z</time>
      </trkpt>
      <trkpt lat="47.58736" lon="6.44988">
        <ele>290.4</ele>
        <time>2025-09-13T13:24:12Z</time>
      </trkpt>
      <trkpt lat="47.58737" lon="6.44992">
        <ele>290.4</ele>
        <time>2025-09-13T13:24:13Z</time>
      </trkpt>
      <trkpt lat="47.58738" lon="6.44998">
        <ele>290.3</ele>
        <time>2025-09-13T13:24:14Z</time>
      </trkpt>
      <trkpt lat="47.58739" lon="6.45003">
        <ele>290.3</ele>
        <time>2025-09-13T13:24:15Z</time>
      </trkpt>
      <trkpt lat="47.5874" lon="6.45009">
        <ele>290.3</ele>
        <time>2025-09-13T13:24:16Z</time>
      </trkpt>
      <trkpt lat="47.58741" lon="6.45015">
        <ele>290.2</ele>
        <time>2025-09-13T13:24:17Z</time>
      </trkpt>
      <trkpt lat="47.58742" lon="6.45021">
        <ele>290.2</ele>
        <time>2025-09-13T13:24:18Z</time>
      </trkpt>
      <trkpt lat="47.58743" lon="6.45027">
        <ele>290.2</ele>
        <time>2025-09-13T13:24:19Z</time>
      </trkpt>
      <trkpt lat="47.58744" lon="6.45034">
        <ele>290.2</ele>
        <time>2025-09-13T13:24:20Z</time>
      </trkpt>
      <trkpt lat="47.58745" lon="6.4504">
        <ele>290.2</ele>
        <time>2025-09-13T13:24:21Z</time>
      </trkpt>
      <trkpt lat="47.58744" lon="6.45048">
        <ele>290.2</ele>
        <time>2025-09-13T13:24:22Z</time>
      </trkpt>
      <trkpt lat="47.58744" lon="6.45055">
        <ele>290.2</ele>
        <time>2025-09-13T13:24:23Z</time>
      </trkpt>
      <trkpt lat="47.58744" lon="6.45063">
        <ele>290.3</ele>
        <time>2025-09-13T13:24:24Z</time>
      </trkpt>
      <trkpt lat="47.58743" lon="6.45069">
        <ele>290.3</ele>
        <time>2025-09-13T13:24:25Z</time>
      </trkpt>
      <trkpt lat="47.58742" lon="6.45076">
        <ele>290.4</ele>
        <time>2025-09-13T13:24:26Z</time>
      </trkpt>
      <trkpt lat="47.58741" lon="6.45082">
        <ele>290.5</ele>
        <time>2025-09-13T13:24:27Z</time>
      </trkpt>
      <trkpt lat="47.5874" lon="6.45089">
        <ele>290.6</ele>
        <time>2025-09-13T13:24:28Z</time>
      </trkpt>
      <trkpt lat="47.58738" lon="6.45095">
        <ele>290.7</ele>
        <time>2025-09-13T13:24:29Z</time>
      </trkpt>
      <trkpt lat="47.58737" lon="6.45102">
        <ele>290.9</ele>
        <time>2025-09-13T13:24:30Z</time>
      </trkpt>
      <trkpt lat="47.58735" lon="6.45109">
        <ele>291.1</ele>
        <time>2025-09-13T13:24:31Z</time>
      </trkpt>
      <trkpt lat="47.58733" lon="6.45115">
        <ele>291.4</ele>
        <time>2025-09-13T13:24:32Z</time>
      </trkpt>
      <trkpt lat="47.58731" lon="6.45121">
        <ele>291.6</ele>
        <time>2025-09-13T13:24:33Z</time>
      </trkpt>
      <trkpt lat="47.58729" lon="6.45126">
        <ele>291.9</ele>
        <time>2025-09-13T13:24:34Z</time>
      </trkpt>
      <trkpt lat="47.58727" lon="6.45131">
        <ele>292.1</ele>
        <time>2025-09-13T13:24:35Z</time>
      </trkpt>
      <trkpt lat="47.58724" lon="6.45136">
        <ele>292.3</ele>
        <time>2025-09-13T13:24:36Z</time>
      </trkpt>
      <trkpt lat="47.58723" lon="6.4514">
        <ele>292.5</ele>
        <time>2025-09-13T13:24:37Z</time>
      </trkpt>
      <trkpt lat="47.5872" lon="6.45145">
        <ele>292.7</ele>
        <time>2025-09-13T13:24:38Z</time>
      </trkpt>
      <trkpt lat="47.58717" lon="6.45149">
        <ele>292.9</ele>
        <time>2025-09-13T13:24:39Z</time>
      </trkpt>
      <trkpt lat="47.58713" lon="6.45153">
        <ele>293</ele>
        <time>2025-09-13T13:24:40Z</time>
      </trkpt>
      <trkpt lat="47.5871" lon="6.45157">
        <ele>293.1</ele>
        <time>2025-09-13T13:24:41Z</time>
      </trkpt>
      <trkpt lat="47.58707" lon="6.4516">
        <ele>293.3</ele>
        <time>2025-09-13T13:24:42Z</time>
      </trkpt>
      <trkpt lat="47.58704" lon="6.45164">
        <ele>293.4</ele>
        <time>2025-09-13T13:24:43Z</time>
      </trkpt>
      <trkpt lat="47.587" lon="6.45168">
        <ele>293.4</ele>
        <time>2025-09-13T13:24:44Z</time>
      </trkpt>
      <trkpt lat="47.58696" lon="6.45172">
        <ele>293.5</ele>
        <time>2025-09-13T13:24:45Z</time>
      </trkpt>
      <trkpt lat="47.58692" lon="6.45176">
        <ele>293.5</ele>
        <time>2025-09-13T13:24:46Z</time>
      </trkpt>
      <trkpt lat="47.58689" lon="6.45178">
        <ele>293.5</ele>
        <time>2025-09-13T13:24:47Z</time>
      </trkpt>
      <trkpt lat="47.58686" lon="6.45181">
        <ele>293.5</ele>
        <time>2025-09-13T13:24:48Z</time>
      </trkpt>
      <trkpt lat="47.58682" lon="6.45185">
        <ele>293.4</ele>
        <time>2025-09-13T13:24:49Z</time>
      </trkpt>
      <trkpt lat="47.58679" lon="6.45189">
        <ele>293.4</ele>
        <time>2025-09-13T13:24:50Z</time>
      </trkpt>
      <trkpt lat="47.58675" lon="6.45193">
        <ele>293.3</ele>
        <time>2025-09-13T13:24:51Z</time>
      </trkpt>
      <trkpt lat="47.58671" lon="6.45197">
        <ele>293.1</ele>
        <time>2025-09-13T13:24:52Z</time>
      </trkpt>
      <trkpt lat="47.58668" lon="6.45201">
        <ele>293</ele>
        <time>2025-09-13T13:24:53Z</time>
      </trkpt>
      <trkpt lat="47.58664" lon="6.45207">
        <ele>292.8</ele>
        <time>2025-09-13T13:24:54Z</time>
      </trkpt>
      <trkpt lat="47.58661" lon="6.45211">
        <ele>292.7</ele>
        <time>2025-09-13T13:24:55Z</time>
      </trkpt>
      <trkpt lat="47.58656" lon="6.45217">
        <ele>292.5</ele>
        <time>2025-09-13T13:24:56Z</time>
      </trkpt>
      <trkpt lat="47.58652" lon="6.45223">
        <ele>292.3</ele>
        <time>2025-09-13T13:24:57Z</time>
      </trkpt>
      <trkpt lat="47.58649" lon="6.4523">
        <ele>292.1</ele>
        <time>2025-09-13T13:24:58Z</time>
      </trkpt>
      <trkpt lat="47.58645" lon="6.45236">
        <ele>292</ele>
        <time>2025-09-13T13:24:59Z</time>
      </trkpt>
      <trkpt lat="47.58642" lon="6.45243">
        <ele>291.9</ele>
        <time>2025-09-13T13:25:00Z</time>
      </trkpt>
      <trkpt lat="47.58638" lon="6.4525">
        <ele>291.9</ele>
        <time>2025-09-13T13:25:01Z</time>
      </trkpt>
      <trkpt lat="47.58635" lon="6.45257">
        <ele>291.9</ele>
        <time>2025-09-13T13:25:02Z</time>
      </trkpt>
      <trkpt lat="47.58632" lon="6.45264">
        <ele>291.8</ele>
        <time>2025-09-13T13:25:03Z</time>
      </trkpt>
      <trkpt lat="47.58629" lon="6.45271">
        <ele>291.8</ele>
        <time>2025-09-13T13:25:04Z</time>
      </trkpt>
      <trkpt lat="47.58626" lon="6.45279">
        <ele>291.9</ele>
        <time>2025-09-13T13:25:05Z</time>
      </trkpt>
      <trkpt lat="47.58624" lon="6.45286">
        <ele>291.9</ele>
        <time>2025-09-13T13:25:06Z</time>
      </trkpt>
      <trkpt lat="47.58621" lon="6.45293">
        <ele>292</ele>
        <time>2025-09-13T13:25:07Z</time>
      </trkpt>
      <trkpt lat="47.58619" lon="6.45301">
        <ele>292.2</ele>
        <time>2025-09-13T13:25:08Z</time>
      </trkpt>
      <trkpt lat="47.58616" lon="6.45308">
        <ele>292.4</ele>
        <time>2025-09-13T13:25:09Z</time>
      </trkpt>
      <trkpt lat="47.58614" lon="6.45315">
        <ele>292.7</ele>
        <time>2025-09-13T13:25:10Z</time>
      </trkpt>
      <trkpt lat="47.58611" lon="6.45323">
        <ele>293.1</ele>
        <time>2025-09-13T13:25:11Z</time>
      </trkpt>
      <trkpt lat="47.58609" lon="6.45329">
        <ele>293.5</ele>
        <time>2025-09-13T13:25:12Z</time>
      </trkpt>
      <trkpt lat="47.58607" lon="6.45336">
        <ele>293.9</ele>
        <time>2025-09-13T13:25:13Z</time>
      </trkpt>
      <trkpt lat="47.58605" lon="6.45342">
        <ele>294.3</ele>
        <time>2025-09-13T13:25:14Z</time>
      </trkpt>
      <trkpt lat="47.58603" lon="6.45349">
        <ele>294.7</ele>
        <time>2025-09-13T13:25:15Z</time>
      </trkpt>
      <trkpt lat="47.58601" lon="6.45355">
        <ele>295.1</ele>
        <time>2025-09-13T13:25:16Z</time>
      </trkpt>
      <trkpt lat="47.58599" lon="6.45361">
        <ele>295.6</ele>
        <time>2025-09-13T13:25:17Z</time>
      </trkpt>
      <trkpt lat="47.58597" lon="6.45367">
        <ele>296.1</ele>
        <time>2025-09-13T13:25:18Z</time>
      </trkpt>
      <trkpt lat="47.58596" lon="6.45373">
        <ele>296.5</ele>
        <time>2025-09-13T13:25:19Z</time>
      </trkpt>
      <trkpt lat="47.58594" lon="6.4538">
        <ele>297</ele>
        <time>2025-09-13T13:25:20Z</time>
      </trkpt>
      <trkpt lat="47.58592" lon="6.45387">
        <ele>297.4</ele>
        <time>2025-09-13T13:25:21Z</time>
      </trkpt>
      <trkpt lat="47.58591" lon="6.45394">
        <ele>297.8</ele>
        <time>2025-09-13T13:25:22Z</time>
      </trkpt>
      <trkpt lat="47.58589" lon="6.454">
        <ele>298</ele>
        <time>2025-09-13T13:25:23Z</time>
      </trkpt>
      <trkpt lat="47.58587" lon="6.45407">
        <ele>298.2</ele>
        <time>2025-09-13T13:25:24Z</time>
      </trkpt>
      <trkpt lat="47.58583" lon="6.45414">
        <ele>298.3</ele>
        <time>2025-09-13T13:25:25Z</time>
      </trkpt>
      <trkpt lat="47.5858" lon="6.45421">
        <ele>298.5</ele>
        <time>2025-09-13T13:25:26Z</time>
      </trkpt>
      <trkpt lat="47.58576" lon="6.45427">
        <ele>298.6</ele>
        <time>2025-09-13T13:25:27Z</time>
      </trkpt>
      <trkpt lat="47.58573" lon="6.45434">
        <ele>298.7</ele>
        <time>2025-09-13T13:25:28Z</time>
      </trkpt>
      <trkpt lat="47.58569" lon="6.45441">
        <ele>298.9</ele>
        <time>2025-09-13T13:25:29Z</time>
      </trkpt>
      <trkpt lat="47.58565" lon="6.45446">
        <ele>299.2</ele>
        <time>2025-09-13T13:25:30Z</time>
      </trkpt>
      <trkpt lat="47.5856" lon="6.45451">
        <ele>299.5</ele>
        <time>2025-09-13T13:25:31Z</time>
      </trkpt>
      <trkpt lat="47.58556" lon="6.45457">
        <ele>299.7</ele>
        <time>2025-09-13T13:25:32Z</time>
      </trkpt>
      <trkpt lat="47.58552" lon="6.45461">
        <ele>299.9</ele>
        <time>2025-09-13T13:25:33Z</time>
      </trkpt>
      <trkpt lat="47.58548" lon="6.45465">
        <ele>300.1</ele>
        <time>2025-09-13T13:25:34Z</time>
      </trkpt>
      <trkpt lat="47.58545" lon="6.45469">
        <ele>300.2</ele>
        <time>2025-09-13T13:25:35Z</time>
      </trkpt>
      <trkpt lat="47.58541" lon="6.45473">
        <ele>300.3</ele>
        <time>2025-09-13T13:25:36Z</time>
      </trkpt>
      <trkpt lat="47.58537" lon="6.45478">
        <ele>300.3</ele>
        <time>2025-09-13T13:25:37Z</time>
      </trkpt>
      <trkpt lat="47.58534" lon="6.45482">
        <ele>300.3</ele>
        <time>2025-09-13T13:25:38Z</time>
      </trkpt>
      <trkpt lat="47.5853" lon="6.45486">
        <ele>300.3</ele>
        <time>2025-09-13T13:25:39Z</time>
      </trkpt>
      <trkpt lat="47.58527" lon="6.4549">
        <ele>300.3</ele>
        <time>2025-09-13T13:25:40Z</time>
      </trkpt>
      <trkpt lat="47.58523" lon="6.45495">
        <ele>300.3</ele>
        <time>2025-09-13T13:25:41Z</time>
      </trkpt>
      <trkpt lat="47.58519" lon="6.455">
        <ele>300.2</ele>
        <time>2025-09-13T13:25:42Z</time>
      </trkpt>
      <trkpt lat="47.58515" lon="6.45505">
        <ele>300.2</ele>
        <time>2025-09-13T13:25:43Z</time>
      </trkpt>
      <trkpt lat="47.58511" lon="6.45509">
        <ele>300.2</ele>
        <time>2025-09-13T13:25:44Z</time>
      </trkpt>
      <trkpt lat="47.58507" lon="6.45514">
        <ele>300.2</ele>
        <time>2025-09-13T13:25:45Z</time>
      </trkpt>
      <trkpt lat="47.58503" lon="6.45518">
        <ele>300.2</ele>
        <time>2025-09-13T13:25:46Z</time>
      </trkpt>
      <trkpt lat="47.585" lon="6.45522">
        <ele>300.2</ele>
        <time>2025-09-13T13:25:47Z</time>
      </trkpt>
      <trkpt lat="47.58496" lon="6.45527">
        <ele>300.2</ele>
        <time>2025-09-13T13:25:48Z</time>
      </trkpt>
      <trkpt lat="47.58492" lon="6.45531">
        <ele>300.2</ele>
        <time>2025-09-13T13:25:49Z</time>
      </trkpt>
      <trkpt lat="47.58488" lon="6.45537">
        <ele>300.1</ele>
        <time>2025-09-13T13:25:50Z</time>
      </trkpt>
      <trkpt lat="47.58484" lon="6.45542">
        <ele>300.1</ele>
        <time>2025-09-13T13:25:51Z</time>
      </trkpt>
      <trkpt lat="47.5848" lon="6.45546">
        <ele>300.1</ele>
        <time>2025-09-13T13:25:52Z</time>
      </trkpt>
      <trkpt lat="47.58476" lon="6.45552">
        <ele>300</ele>
        <time>2025-09-13T13:25:53Z</time>
      </trkpt>
      <trkpt lat="47.58473" lon="6.45556">
        <ele>300</ele>
        <time>2025-09-13T13:25:54Z</time>
      </trkpt>
      <trkpt lat="47.58469" lon="6.45561">
        <ele>300</ele>
        <time>2025-09-13T13:25:55Z</time>
      </trkpt>
      <trkpt lat="47.58465" lon="6.45566">
        <ele>300</ele>
        <time>2025-09-13T13:25:56Z</time>
      </trkpt>
      <trkpt lat="47.58462" lon="6.45571">
        <ele>299.9</ele>
        <time>2025-09-13T13:25:57Z</time>
      </trkpt>
      <trkpt lat="47.58457" lon="6.45576">
        <ele>299.8</ele>
        <time>2025-09-13T13:25:58Z</time>
      </trkpt>
      <trkpt lat="47.58453" lon="6.45581">
        <ele>299.7</ele>
        <time>2025-09-13T13:25:59Z</time>
      </trkpt>
      <trkpt lat="47.58449" lon="6.45585">
        <ele>299.6</ele>
        <time>2025-09-13T13:26:00Z</time>
      </trkpt>
      <trkpt lat="47.58444" lon="6.45591">
        <ele>299.5</ele>
        <time>2025-09-13T13:26:01Z</time>
      </trkpt>
      <trkpt lat="47.5844" lon="6.45595">
        <ele>299.5</ele>
        <time>2025-09-13T13:26:02Z</time>
      </trkpt>
      <trkpt lat="47.58441" lon="6.45594">
        <ele>299.5</ele>
        <time>2025-09-13T13:26:03Z</time>
      </trkpt>
      <trkpt lat="47.58437" lon="6.45598">
        <ele>299.4</ele>
        <time>2025-09-13T13:26:04Z</time>
      </trkpt>
      <trkpt lat="47.58434" lon="6.45602">
        <ele>299.4</ele>
        <time>2025-09-13T13:26:05Z</time>
      </trkpt>
      <trkpt lat="47.58432" lon="6.45603">
        <ele>299.4</ele>
        <time>2025-09-13T13:26:06Z</time>
      </trkpt>
      <trkpt lat="47.58426" lon="6.4561">
        <ele>299.4</ele>
        <time>2025-09-13T13:26:07Z</time>
      </trkpt>
      <trkpt lat="47.58419" lon="6.45616">
        <ele>299.3</ele>
        <time>2025-09-13T13:26:08Z</time>
      </trkpt>
      <trkpt lat="47.58412" lon="6.45621">
        <ele>299.3</ele>
        <time>2025-09-13T13:26:09Z</time>
      </trkpt>
      <trkpt lat="47.58405" lon="6.45628">
        <ele>299.2</ele>
        <time>2025-09-13T13:26:10Z</time>
      </trkpt>
      <trkpt lat="47.58399" lon="6.4563">
        <ele>299.2</ele>
        <time>2025-09-13T13:26:11Z</time>
      </trkpt>
      <trkpt lat="47.58393" lon="6.45635">
        <ele>299.1</ele>
        <time>2025-09-13T13:26:12Z</time>
      </trkpt>
      <trkpt lat="47.58388" lon="6.4564">
        <ele>299.1</ele>
        <time>2025-09-13T13:26:13Z</time>
      </trkpt>
      <trkpt lat="47.58383" lon="6.45645">
        <ele>299</ele>
        <time>2025-09-13T13:26:14Z</time>
      </trkpt>
      <trkpt lat="47.58379" lon="6.45649">
        <ele>298.9</ele>
        <time>2025-09-13T13:26:15Z</time>
      </trkpt>
      <trkpt lat="47.58373" lon="6.45652">
        <ele>298.7</ele>
        <time>2025-09-13T13:26:16Z</time>
      </trkpt>
      <trkpt lat="47.58369" lon="6.45656">
        <ele>298.5</ele>
        <time>2025-09-13T13:26:17Z</time>
      </trkpt>
      <trkpt lat="47.58365" lon="6.4566">
        <ele>298.3</ele>
        <time>2025-09-13T13:26:18Z</time>
      </trkpt>
      <trkpt lat="47.58359" lon="6.45667">
        <ele>297.9</ele>
        <time>2025-09-13T13:26:19Z</time>
      </trkpt>
      <trkpt lat="47.58354" lon="6.45674">
        <ele>297.5</ele>
        <time>2025-09-13T13:26:20Z</time>
      </trkpt>
      <trkpt lat="47.5835" lon="6.45682">
        <ele>297.1</ele>
        <time>2025-09-13T13:26:21Z</time>
      </trkpt>
      <trkpt lat="47.58343" lon="6.45691">
        <ele>296.6</ele>
        <time>2025-09-13T13:26:22Z</time>
      </trkpt>
      <trkpt lat="47.58339" lon="6.45698">
        <ele>296.2</ele>
        <time>2025-09-13T13:26:23Z</time>
      </trkpt>
      <trkpt lat="47.58336" lon="6.45711">
        <ele>295.8</ele>
        <time>2025-09-13T13:26:24Z</time>
      </trkpt>
      <trkpt lat="47.58333" lon="6.45721">
        <ele>295.6</ele>
        <time>2025-09-13T13:26:25Z</time>
      </trkpt>
      <trkpt lat="47.58333" lon="6.45732">
        <ele>295.4</ele>
        <time>2025-09-13T13:26:26Z</time>
      </trkpt>
      <trkpt lat="47.58332" lon="6.45741">
        <ele>295.3</ele>
        <time>2025-09-13T13:26:27Z</time>
      </trkpt>
      <trkpt lat="47.58332" lon="6.45752">
        <ele>295.4</ele>
        <time>2025-09-13T13:26:28Z</time>
      </trkpt>
      <trkpt lat="47.58334" lon="6.45763">
        <ele>295.6</ele>
        <time>2025-09-13T13:26:29Z</time>
      </trkpt>
      <trkpt lat="47.58334" lon="6.45775">
        <ele>295.9</ele>
        <time>2025-09-13T13:26:30Z</time>
      </trkpt>
      <trkpt lat="47.58331" lon="6.45783">
        <ele>296.2</ele>
        <time>2025-09-13T13:26:31Z</time>
      </trkpt>
      <trkpt lat="47.58325" lon="6.4579">
        <ele>296.6</ele>
        <time>2025-09-13T13:26:32Z</time>
      </trkpt>
      <trkpt lat="47.58321" lon="6.45795">
        <ele>296.9</ele>
        <time>2025-09-13T13:26:33Z</time>
      </trkpt>
      <trkpt lat="47.5832" lon="6.45801">
        <ele>297.1</ele>
        <time>2025-09-13T13:26:34Z</time>
      </trkpt>
      <trkpt lat="47.58314" lon="6.45803">
        <ele>297.3</ele>
        <time>2025-09-13T13:26:35Z</time>
      </trkpt>
      <trkpt lat="47.58309" lon="6.45803">
        <ele>297.6</ele>
        <time>2025-09-13T13:26:36Z</time>
      </trkpt>
      <trkpt lat="47.58304" lon="6.45803">
        <ele>297.7</ele>
        <time>2025-09-13T13:26:37Z</time>
      </trkpt>
      <trkpt lat="47.58302" lon="6.45807">
        <ele>297.8</ele>
        <time>2025-09-13T13:26:38Z</time>
      </trkpt>
      <trkpt lat="47.58298" lon="6.4581">
        <ele>297.9</ele>
        <time>2025-09-13T13:26:39Z</time>
      </trkpt>
      <trkpt lat="47.58296" lon="6.45815">
        <ele>298</ele>
        <time>2025-09-13T13:26:40Z</time>
      </trkpt>
      <trkpt lat="47.58294" lon="6.45821">
        <ele>298.1</ele>
        <time>2025-09-13T13:26:41Z</time>
      </trkpt>
      <trkpt lat="47.58292" lon="6.45828">
        <ele>298.2</ele>
        <time>2025-09-13T13:26:42Z</time>
      </trkpt>
      <trkpt lat="47.58291" lon="6.45835">
        <ele>298.3</ele>
        <time>2025-09-13T13:26:43Z</time>
      </trkpt>
      <trkpt lat="47.58293" lon="6.45843">
        <ele>298.5</ele>
        <time>2025-09-13T13:26:44Z</time>
      </trkpt>
      <trkpt lat="47.58295" lon="6.4585">
        <ele>298.7</ele>
        <time>2025-09-13T13:26:45Z</time>
      </trkpt>
      <trkpt lat="47.58297" lon="6.45855">
        <ele>298.9</ele>
        <time>2025-09-13T13:26:46Z</time>
      </trkpt>
      <trkpt lat="47.583" lon="6.4586">
        <ele>299.1</ele>
        <time>2025-09-13T13:26:47Z</time>
      </trkpt>
      <trkpt lat="47.58301" lon="6.45865">
        <ele>299.3</ele>
        <time>2025-09-13T13:26:48Z</time>
      </trkpt>
      <trkpt lat="47.58301" lon="6.45868">
        <ele>299.4</ele>
        <time>2025-09-13T13:26:49Z</time>
      </trkpt>
      <trkpt lat="47.58305" lon="6.45875">
        <ele>299.7</ele>
        <time>2025-09-13T13:26:50Z</time>
      </trkpt>
      <trkpt lat="47.58308" lon="6.45881">
        <ele>299.9</ele>
        <time>2025-09-13T13:26:51Z</time>
      </trkpt>
      <trkpt lat="47.58309" lon="6.45887">
        <ele>300.1</ele>
        <time>2025-09-13T13:26:52Z</time>
      </trkpt>
      <trkpt lat="47.58311" lon="6.45894">
        <ele>300.4</ele>
        <time>2025-09-13T13:26:53Z</time>
      </trkpt>
      <trkpt lat="47.58313" lon="6.45901">
        <ele>300.7</ele>
        <time>2025-09-13T13:26:54Z</time>
      </trkpt>
      <trkpt lat="47.58315" lon="6.45907">
        <ele>300.9</ele>
        <time>2025-09-13T13:26:55Z</time>
      </trkpt>
      <trkpt lat="47.58317" lon="6.45914">
        <ele>301.2</ele>
        <time>2025-09-13T13:26:56Z</time>
      </trkpt>
      <trkpt lat="47.58318" lon="6.4592">
        <ele>301.6</ele>
        <time>2025-09-13T13:26:57Z</time>
      </trkpt>
      <trkpt lat="47.5832" lon="6.45926">
        <ele>301.9</ele>
        <time>2025-09-13T13:26:58Z</time>
      </trkpt>
      <trkpt lat="47.58322" lon="6.45933">
        <ele>302.2</ele>
        <time>2025-09-13T13:26:59Z</time>
      </trkpt>
      <trkpt lat="47.58323" lon="6.45939">
        <ele>302.5</ele>
        <time>2025-09-13T13:27:00Z</time>
      </trkpt>
      <trkpt lat="47.58322" lon="6.4594">
        <ele>302.6</ele>
        <time>2025-09-13T13:27:01Z</time>
      </trkpt>
      <trkpt lat="47.58322" lon="6.45943">
        <ele>302.8</ele>
        <time>2025-09-13T13:27:02Z</time>
      </trkpt>
      <trkpt lat="47.58323" lon="6.45945">
        <ele>302.9</ele>
        <time>2025-09-13T13:27:03Z</time>
      </trkpt>
      <trkpt lat="47.58326" lon="6.4595">
        <ele>303.1</ele>
        <time>2025-09-13T13:27:04Z</time>
      </trkpt>
      <trkpt lat="47.58329" lon="6.4596">
        <ele>303.5</ele>
        <time>2025-09-13T13:27:05Z</time>
      </trkpt>
      <trkpt lat="47.58332" lon="6.45969">
        <ele>303.8</ele>
        <time>2025-09-13T13:27:06Z</time>
      </trkpt>
      <trkpt lat="47.58334" lon="6.45978">
        <ele>303.9</ele>
        <time>2025-09-13T13:27:07Z</time>
      </trkpt>
      <trkpt lat="47.58336" lon="6.45986">
        <ele>303.9</ele>
        <time>2025-09-13T13:27:08Z</time>
      </trkpt>
      <trkpt lat="47.58337" lon="6.45995">
        <ele>303.9</ele>
        <time>2025-09-13T13:27:09Z</time>
      </trkpt>
      <trkpt lat="47.58338" lon="6.46003">
        <ele>303.8</ele>
        <time>2025-09-13T13:27:10Z</time>
      </trkpt>
      <trkpt lat="47.5834" lon="6.46012">
        <ele>303.6</ele>
        <time>2025-09-13T13:27:11Z</time>
      </trkpt>
      <trkpt lat="47.58342" lon="6.46021">
        <ele>303.5</ele>
        <time>2025-09-13T13:27:12Z</time>
      </trkpt>
      <trkpt lat="47.58344" lon="6.46034">
        <ele>303.3</ele>
        <time>2025-09-13T13:27:13Z</time>
      </trkpt>
      <trkpt lat="47.58345" lon="6.46044">
        <ele>303.3</ele>
        <time>2025-09-13T13:27:14Z</time>
      </trkpt>
      <trkpt lat="47.58345" lon="6.46054">
        <ele>303.4</ele>
        <time>2025-09-13T13:27:15Z</time>
      </trkpt>
      <trkpt lat="47.58344" lon="6.46063">
        <ele>303.6</ele>
        <time>2025-09-13T13:27:16Z</time>
      </trkpt>
      <trkpt lat="47.58343" lon="6.46071">
        <ele>303.8</ele>
        <time>2025-09-13T13:27:17Z</time>
      </trkpt>
      <trkpt lat="47.58341" lon="6.46079">
        <ele>304</ele>
        <time>2025-09-13T13:27:18Z</time>
      </trkpt>
      <trkpt lat="47.5834" lon="6.46088">
        <ele>304.2</ele>
        <time>2025-09-13T13:27:19Z</time>
      </trkpt>
      <trkpt lat="47.58338" lon="6.46095">
        <ele>304.5</ele>
        <time>2025-09-13T13:27:20Z</time>
      </trkpt>
      <trkpt lat="47.58336" lon="6.46102">
        <ele>304.7</ele>
        <time>2025-09-13T13:27:21Z</time>
      </trkpt>
      <trkpt lat="47.58334" lon="6.4611">
        <ele>304.9</ele>
        <time>2025-09-13T13:27:22Z</time>
      </trkpt>
      <trkpt lat="47.58332" lon="6.46117">
        <ele>305.1</ele>
        <time>2025-09-13T13:27:23Z</time>
      </trkpt>
      <trkpt lat="47.58329" lon="6.46124">
        <ele>305.3</ele>
        <time>2025-09-13T13:27:24Z</time>
      </trkpt>
      <trkpt lat="47.58326" lon="6.46132">
        <ele>305.4</ele>
        <time>2025-09-13T13:27:25Z</time>
      </trkpt>
      <trkpt lat="47.58324" lon="6.4614">
        <ele>305.4</ele>
        <time>2025-09-13T13:27:26Z</time>
      </trkpt>
      <trkpt lat="47.58321" lon="6.46148">
        <ele>305.4</ele>
        <time>2025-09-13T13:27:27Z</time>
      </trkpt>
      <trkpt lat="47.58319" lon="6.46156">
        <ele>305.3</ele>
        <time>2025-09-13T13:27:28Z</time>
      </trkpt>
      <trkpt lat="47.58318" lon="6.46165">
        <ele>305.1</ele>
        <time>2025-09-13T13:27:29Z</time>
      </trkpt>
      <trkpt lat="47.58316" lon="6.46174">
        <ele>304.9</ele>
        <time>2025-09-13T13:27:30Z</time>
      </trkpt>
      <trkpt lat="47.58315" lon="6.46183">
        <ele>304.5</ele>
        <time>2025-09-13T13:27:31Z</time>
      </trkpt>
      <trkpt lat="47.58314" lon="6.46193">
        <ele>304</ele>
        <time>2025-09-13T13:27:32Z</time>
      </trkpt>
      <trkpt lat="47.58312" lon="6.46204">
        <ele>303.5</ele>
        <time>2025-09-13T13:27:33Z</time>
      </trkpt>
      <trkpt lat="47.58311" lon="6.46215">
        <ele>302.8</ele>
        <time>2025-09-13T13:27:34Z</time>
      </trkpt>
      <trkpt lat="47.58309" lon="6.46227">
        <ele>302.1</ele>
        <time>2025-09-13T13:27:35Z</time>
      </trkpt>
      <trkpt lat="47.58307" lon="6.46239">
        <ele>301.3</ele>
        <time>2025-09-13T13:27:36Z</time>
      </trkpt>
      <trkpt lat="47.58303" lon="6.46252">
        <ele>300.4</ele>
        <time>2025-09-13T13:27:37Z</time>
      </trkpt>
      <trkpt lat="47.58299" lon="6.46265">
        <ele>299.6</ele>
        <time>2025-09-13T13:27:38Z</time>
      </trkpt>
      <trkpt lat="47.58295" lon="6.46278">
        <ele>298.7</ele>
        <time>2025-09-13T13:27:39Z</time>
      </trkpt>
      <trkpt lat="47.58291" lon="6.46293">
        <ele>297.9</ele>
        <time>2025-09-13T13:27:40Z</time>
      </trkpt>
      <trkpt lat="47.58287" lon="6.46307">
        <ele>297.4</ele>
        <time>2025-09-13T13:27:41Z</time>
      </trkpt>
      <trkpt lat="47.58283" lon="6.4632">
        <ele>296.9</ele>
        <time>2025-09-13T13:27:42Z</time>
      </trkpt>
      <trkpt lat="47.5828" lon="6.46334">
        <ele>296.5</ele>
        <time>2025-09-13T13:27:43Z</time>
      </trkpt>
      <trkpt lat="47.58276" lon="6.46348">
        <ele>296.1</ele>
        <time>2025-09-13T13:27:44Z</time>
      </trkpt>
      <trkpt lat="47.58272" lon="6.46361">
        <ele>295.6</ele>
        <time>2025-09-13T13:27:45Z</time>
      </trkpt>
      <trkpt lat="47.58268" lon="6.46374">
        <ele>295.1</ele>
        <time>2025-09-13T13:27:46Z</time>
      </trkpt>
      <trkpt lat="47.58263" lon="6.46387">
        <ele>294.6</ele>
        <time>2025-09-13T13:27:47Z</time>
      </trkpt>
      <trkpt lat="47.58257" lon="6.464">
        <ele>294.1</ele>
        <time>2025-09-13T13:27:48Z</time>
      </trkpt>
      <trkpt lat="47.58251" lon="6.46412">
        <ele>293.7</ele>
        <time>2025-09-13T13:27:49Z</time>
      </trkpt>
      <trkpt lat="47.58246" lon="6.46424">
        <ele>293.2</ele>
        <time>2025-09-13T13:27:50Z</time>
      </trkpt>
      <trkpt lat="47.5824" lon="6.46436">
        <ele>292.8</ele>
        <time>2025-09-13T13:27:51Z</time>
      </trkpt>
      <trkpt lat="47.58234" lon="6.46449">
        <ele>292.4</ele>
        <time>2025-09-13T13:27:52Z</time>
      </trkpt>
      <trkpt lat="47.58229" lon="6.4646">
        <ele>292</ele>
        <time>2025-09-13T13:27:53Z</time>
      </trkpt>
      <trkpt lat="47.58223" lon="6.46473">
        <ele>291.6</ele>
        <time>2025-09-13T13:27:54Z</time>
      </trkpt>
      <trkpt lat="47.58218" lon="6.46485">
        <ele>291.3</ele>
        <time>2025-09-13T13:27:55Z</time>
      </trkpt>
      <trkpt lat="47.58213" lon="6.46498">
        <ele>290.9</ele>
        <time>2025-09-13T13:27:56Z</time>
      </trkpt>
      <trkpt lat="47.58208" lon="6.4651">
        <ele>290.6</ele>
        <time>2025-09-13T13:27:57Z</time>
      </trkpt>
      <trkpt lat="47.58204" lon="6.46522">
        <ele>290.4</ele>
        <time>2025-09-13T13:27:58Z</time>
      </trkpt>
      <trkpt lat="47.58198" lon="6.46534">
        <ele>290.2</ele>
        <time>2025-09-13T13:27:59Z</time>
      </trkpt>
      <trkpt lat="47.58193" lon="6.46545">
        <ele>290.1</ele>
        <time>2025-09-13T13:28:00Z</time>
      </trkpt>
      <trkpt lat="47.58189" lon="6.46557">
        <ele>290</ele>
        <time>2025-09-13T13:28:01Z</time>
      </trkpt>
      <trkpt lat="47.58184" lon="6.46567">
        <ele>289.9</ele>
        <time>2025-09-13T13:28:02Z</time>
      </trkpt>
      <trkpt lat="47.58179" lon="6.46578">
        <ele>289.8</ele>
        <time>2025-09-13T13:28:03Z</time>
      </trkpt>
      <trkpt lat="47.58175" lon="6.46589">
        <ele>289.7</ele>
        <time>2025-09-13T13:28:04Z</time>
      </trkpt>
      <trkpt lat="47.5817" lon="6.46599">
        <ele>289.6</ele>
        <time>2025-09-13T13:28:05Z</time>
      </trkpt>
      <trkpt lat="47.58166" lon="6.46609">
        <ele>289.5</ele>
        <time>2025-09-13T13:28:06Z</time>
      </trkpt>
      <trkpt lat="47.58161" lon="6.46618">
        <ele>289.4</ele>
        <time>2025-09-13T13:28:07Z</time>
      </trkpt>
      <trkpt lat="47.58156" lon="6.46627">
        <ele>289.3</ele>
        <time>2025-09-13T13:28:08Z</time>
      </trkpt>
      <trkpt lat="47.5815" lon="6.46635">
        <ele>289.2</ele>
        <time>2025-09-13T13:28:09Z</time>
      </trkpt>
      <trkpt lat="47.58144" lon="6.46642">
        <ele>289</ele>
        <time>2025-09-13T13:28:10Z</time>
      </trkpt>
      <trkpt lat="47.58138" lon="6.46649">
        <ele>288.9</ele>
        <time>2025-09-13T13:28:11Z</time>
      </trkpt>
      <trkpt lat="47.58132" lon="6.46654">
        <ele>288.7</ele>
        <time>2025-09-13T13:28:12Z</time>
      </trkpt>
      <trkpt lat="47.58125" lon="6.4666">
        <ele>288.6</ele>
        <time>2025-09-13T13:28:13Z</time>
      </trkpt>
      <trkpt lat="47.58119" lon="6.46665">
        <ele>288.5</ele>
        <time>2025-09-13T13:28:14Z</time>
      </trkpt>
      <trkpt lat="47.58112" lon="6.46669">
        <ele>288.4</ele>
        <time>2025-09-13T13:28:15Z</time>
      </trkpt>
      <trkpt lat="47.58104" lon="6.46674">
        <ele>288.2</ele>
        <time>2025-09-13T13:28:16Z</time>
      </trkpt>
      <trkpt lat="47.58096" lon="6.46678">
        <ele>288</ele>
        <time>2025-09-13T13:28:17Z</time>
      </trkpt>
      <trkpt lat="47.58088" lon="6.46683">
        <ele>287.9</ele>
        <time>2025-09-13T13:28:18Z</time>
      </trkpt>
      <trkpt lat="47.5808" lon="6.46689">
        <ele>287.7</ele>
        <time>2025-09-13T13:28:19Z</time>
      </trkpt>
      <trkpt lat="47.58073" lon="6.46696">
        <ele>287.4</ele>
        <time>2025-09-13T13:28:20Z</time>
      </trkpt>
      <trkpt lat="47.58068" lon="6.46706">
        <ele>287</ele>
        <time>2025-09-13T13:28:21Z</time>
      </trkpt>
      <trkpt lat="47.58066" lon="6.4672">
        <ele>286.3</ele>
        <time>2025-09-13T13:28:22Z</time>
      </trkpt>
      <trkpt lat="47.58066" lon="6.46734">
        <ele>285.5</ele>
        <time>2025-09-13T13:28:23Z</time>
      </trkpt>
      <trkpt lat="47.58067" lon="6.46749">
        <ele>284.7</ele>
        <time>2025-09-13T13:28:24Z</time>
      </trkpt>
      <trkpt lat="47.58069" lon="6.46764">
        <ele>283.9</ele>
        <time>2025-09-13T13:28:25Z</time>
      </trkpt>
      <trkpt lat="47.58071" lon="6.46779">
        <ele>283</ele>
        <time>2025-09-13T13:28:26Z</time>
      </trkpt>
      <trkpt lat="47.58073" lon="6.46794">
        <ele>282.3</ele>
        <time>2025-09-13T13:28:27Z</time>
      </trkpt>
      <trkpt lat="47.58075" lon="6.4681">
        <ele>281.5</ele>
        <time>2025-09-13T13:28:28Z</time>
      </trkpt>
      <trkpt lat="47.58077" lon="6.46826">
        <ele>280.8</ele>
        <time>2025-09-13T13:28:29Z</time>
      </trkpt>
      <trkpt lat="47.58079" lon="6.46842">
        <ele>280.1</ele>
        <time>2025-09-13T13:28:30Z</time>
      </trkpt>
      <trkpt lat="47.58079" lon="6.46858">
        <ele>279.6</ele>
        <time>2025-09-13T13:28:31Z</time>
      </trkpt>
      <trkpt lat="47.58078" lon="6.46876">
        <ele>279.1</ele>
        <time>2025-09-13T13:28:32Z</time>
      </trkpt>
      <trkpt lat="47.58073" lon="6.46891">
        <ele>278.9</ele>
        <time>2025-09-13T13:28:33Z</time>
      </trkpt>
      <trkpt lat="47.58067" lon="6.46905">
        <ele>278.8</ele>
        <time>2025-09-13T13:28:34Z</time>
      </trkpt>
      <trkpt lat="47.58061" lon="6.46918">
        <ele>278.7</ele>
        <time>2025-09-13T13:28:35Z</time>
      </trkpt>
      <trkpt lat="47.58056" lon="6.4693">
        <ele>278.6</ele>
        <time>2025-09-13T13:28:36Z</time>
      </trkpt>
      <trkpt lat="47.58051" lon="6.46942">
        <ele>278.5</ele>
        <time>2025-09-13T13:28:37Z</time>
      </trkpt>
      <trkpt lat="47.58046" lon="6.46955">
        <ele>278.4</ele>
        <time>2025-09-13T13:28:38Z</time>
      </trkpt>
      <trkpt lat="47.58042" lon="6.46966">
        <ele>278.5</ele>
        <time>2025-09-13T13:28:39Z</time>
      </trkpt>
      <trkpt lat="47.58038" lon="6.46979">
        <ele>278.6</ele>
        <time>2025-09-13T13:28:40Z</time>
      </trkpt>
      <trkpt lat="47.58034" lon="6.4699">
        <ele>278.8</ele>
        <time>2025-09-13T13:28:41Z</time>
      </trkpt>
      <trkpt lat="47.5803" lon="6.47">
        <ele>278.9</ele>
        <time>2025-09-13T13:28:42Z</time>
      </trkpt>
      <trkpt lat="47.58024" lon="6.47008">
        <ele>278.9</ele>
        <time>2025-09-13T13:28:43Z</time>
      </trkpt>
      <trkpt lat="47.58018" lon="6.47014">
        <ele>278.9</ele>
        <time>2025-09-13T13:28:44Z</time>
      </trkpt>
      <trkpt lat="47.58012" lon="6.47021">
        <ele>278.7</ele>
        <time>2025-09-13T13:28:45Z</time>
      </trkpt>
      <trkpt lat="47.58007" lon="6.47029">
        <ele>278.4</ele>
        <time>2025-09-13T13:28:46Z</time>
      </trkpt>
      <trkpt lat="47.58002" lon="6.47039">
        <ele>278</ele>
        <time>2025-09-13T13:28:47Z</time>
      </trkpt>
      <trkpt lat="47.58001" lon="6.47051">
        <ele>277.3</ele>
        <time>2025-09-13T13:28:48Z</time>
      </trkpt>
      <trkpt lat="47.58002" lon="6.47064">
        <ele>276.5</ele>
        <time>2025-09-13T13:28:49Z</time>
      </trkpt>
      <trkpt lat="47.58003" lon="6.47077">
        <ele>275.8</ele>
        <time>2025-09-13T13:28:50Z</time>
      </trkpt>
      <trkpt lat="47.58006" lon="6.47091">
        <ele>275.2</ele>
        <time>2025-09-13T13:28:51Z</time>
      </trkpt>
      <trkpt lat="47.58007" lon="6.47102">
        <ele>274.8</ele>
        <time>2025-09-13T13:28:52Z</time>
      </trkpt>
      <trkpt lat="47.58008" lon="6.47111">
        <ele>274.6</ele>
        <time>2025-09-13T13:28:53Z</time>
      </trkpt>
      <trkpt lat="47.58007" lon="6.47117">
        <ele>274.5</ele>
        <time>2025-09-13T13:28:54Z</time>
      </trkpt>
      <trkpt lat="47.58005" lon="6.47122">
        <ele>274.4</ele>
        <time>2025-09-13T13:28:55Z</time>
      </trkpt>
      <trkpt lat="47.58001" lon="6.47126">
        <ele>274.3</ele>
        <time>2025-09-13T13:28:56Z</time>
      </trkpt>
      <trkpt lat="47.57996" lon="6.47128">
        <ele>274.3</ele>
        <time>2025-09-13T13:28:57Z</time>
      </trkpt>
      <trkpt lat="47.57991" lon="6.47128">
        <ele>274.3</ele>
        <time>2025-09-13T13:28:58Z</time>
      </trkpt>
      <trkpt lat="47.57984" lon="6.47127">
        <ele>274.2</ele>
        <time>2025-09-13T13:28:59Z</time>
      </trkpt>
      <trkpt lat="47.5798" lon="6.47129">
        <ele>274.2</ele>
        <time>2025-09-13T13:29:00Z</time>
      </trkpt>
      <trkpt lat="47.57974" lon="6.47129">
        <ele>274.2</ele>
        <time>2025-09-13T13:29:01Z</time>
      </trkpt>
      <trkpt lat="47.57968" lon="6.4713">
        <ele>274.2</ele>
        <time>2025-09-13T13:29:02Z</time>
      </trkpt>
      <trkpt lat="47.57962" lon="6.47131">
        <ele>274.1</ele>
        <time>2025-09-13T13:29:03Z</time>
      </trkpt>
      <trkpt lat="47.57956" lon="6.47132">
        <ele>274.1</ele>
        <time>2025-09-13T13:29:04Z</time>
      </trkpt>
      <trkpt lat="47.57951" lon="6.47133">
        <ele>274.1</ele>
        <time>2025-09-13T13:29:05Z</time>
      </trkpt>
      <trkpt lat="47.57945" lon="6.47132">
        <ele>274</ele>
        <time>2025-09-13T13:29:06Z</time>
      </trkpt>
      <trkpt lat="47.57939" lon="6.47132">
        <ele>274</ele>
        <time>2025-09-13T13:29:07Z</time>
      </trkpt>
      <trkpt lat="47.57934" lon="6.47133">
        <ele>274</ele>
        <time>2025-09-13T13:29:08Z</time>
      </trkpt>
      <trkpt lat="47.57927" lon="6.47134">
        <ele>273.9</ele>
        <time>2025-09-13T13:29:09Z</time>
      </trkpt>
      <trkpt lat="47.57921" lon="6.47134">
        <ele>273.9</ele>
        <time>2025-09-13T13:29:10Z</time>
      </trkpt>
      <trkpt lat="47.57915" lon="6.47133">
        <ele>273.8</ele>
        <time>2025-09-13T13:29:11Z</time>
      </trkpt>
      <trkpt lat="47.57909" lon="6.47134">
        <ele>273.8</ele>
        <time>2025-09-13T13:29:12Z</time>
      </trkpt>
      <trkpt lat="47.57902" lon="6.47134">
        <ele>273.7</ele>
        <time>2025-09-13T13:29:13Z</time>
      </trkpt>
      <trkpt lat="47.57896" lon="6.47135">
        <ele>273.7</ele>
        <time>2025-09-13T13:29:14Z</time>
      </trkpt>
      <trkpt lat="47.57889" lon="6.47134">
        <ele>273.7</ele>
        <time>2025-09-13T13:29:15Z</time>
      </trkpt>
      <trkpt lat="47.57883" lon="6.47135">
        <ele>273.7</ele>
        <time>2025-09-13T13:29:16Z</time>
      </trkpt>
      <trkpt lat="47.57877" lon="6.47135">
        <ele>273.7</ele>
        <time>2025-09-13T13:29:17Z</time>
      </trkpt>
      <trkpt lat="47.57871" lon="6.47134">
        <ele>273.7</ele>
        <time>2025-09-13T13:29:18Z</time>
      </trkpt>
      <trkpt lat="47.57866" lon="6.47135">
        <ele>273.6</ele>
        <time>2025-09-13T13:29:19Z</time>
      </trkpt>
      <trkpt lat="47.5786" lon="6.47135">
        <ele>273.6</ele>
        <time>2025-09-13T13:29:20Z</time>
      </trkpt>
      <trkpt lat="47.57854" lon="6.47135">
        <ele>273.6</ele>
        <time>2025-09-13T13:29:21Z</time>
      </trkpt>
      <trkpt lat="47.57849" lon="6.47136">
        <ele>273.5</ele>
        <time>2025-09-13T13:29:22Z</time>
      </trkpt>
      <trkpt lat="47.57843" lon="6.47135">
        <ele>273.5</ele>
        <time>2025-09-13T13:29:23Z</time>
      </trkpt>
      <trkpt lat="47.57838" lon="6.47135">
        <ele>273.5</ele>
        <time>2025-09-13T13:29:24Z</time>
      </trkpt>
      <trkpt lat="47.57832" lon="6.47136">
        <ele>273.4</ele>
        <time>2025-09-13T13:29:25Z</time>
      </trkpt>
      <trkpt lat="47.57825" lon="6.47136">
        <ele>273.4</ele>
        <time>2025-09-13T13:29:26Z</time>
      </trkpt>
      <trkpt lat="47.5782" lon="6.47136">
        <ele>273.3</ele>
        <time>2025-09-13T13:29:27Z</time>
      </trkpt>
      <trkpt lat="47.57814" lon="6.47136">
        <ele>273.2</ele>
        <time>2025-09-13T13:29:28Z</time>
      </trkpt>
      <trkpt lat="47.57807" lon="6.47136">
        <ele>273.2</ele>
        <time>2025-09-13T13:29:29Z</time>
      </trkpt>
      <trkpt lat="47.57802" lon="6.47136">
        <ele>273.1</ele>
        <time>2025-09-13T13:29:30Z</time>
      </trkpt>
      <trkpt lat="47.57796" lon="6.47136">
        <ele>273</ele>
        <time>2025-09-13T13:29:31Z</time>
      </trkpt>
      <trkpt lat="47.57788" lon="6.47136">
        <ele>272.9</ele>
        <time>2025-09-13T13:29:32Z</time>
      </trkpt>
      <trkpt lat="47.57783" lon="6.47136">
        <ele>272.9</ele>
        <time>2025-09-13T13:29:33Z</time>
      </trkpt>
      <trkpt lat="47.57777" lon="6.47137">
        <ele>272.8</ele>
        <time>2025-09-13T13:29:34Z</time>
      </trkpt>
      <trkpt lat="47.57772" lon="6.47137">
        <ele>272.7</ele>
        <time>2025-09-13T13:29:35Z</time>
      </trkpt>
      <trkpt lat="47.57767" lon="6.47137">
        <ele>272.6</ele>
        <time>2025-09-13T13:29:36Z</time>
      </trkpt>
      <trkpt lat="47.57761" lon="6.47137">
        <ele>272.5</ele>
        <time>2025-09-13T13:29:37Z</time>
      </trkpt>
      <trkpt lat="47.57754" lon="6.47138">
        <ele>272.4</ele>
        <time>2025-09-13T13:29:38Z</time>
      </trkpt>
      <trkpt lat="47.57744" lon="6.47138">
        <ele>272.2</ele>
        <time>2025-09-13T13:29:39Z</time>
      </trkpt>
      <trkpt lat="47.57737" lon="6.47138">
        <ele>272.2</ele>
        <time>2025-09-13T13:29:40Z</time>
      </trkpt>
      <trkpt lat="47.57731" lon="6.47138">
        <ele>272.1</ele>
        <time>2025-09-13T13:29:41Z</time>
      </trkpt>
      <trkpt lat="47.57725" lon="6.47138">
        <ele>272</ele>
        <time>2025-09-13T13:29:42Z</time>
      </trkpt>
      <trkpt lat="47.57719" lon="6.47138">
        <ele>271.9</ele>
        <time>2025-09-13T13:29:43Z</time>
      </trkpt>
      <trkpt lat="47.57713" lon="6.47139">
        <ele>271.8</ele>
        <time>2025-09-13T13:29:44Z</time>
      </trkpt>
      <trkpt lat="47.57706" lon="6.4714">
        <ele>271.7</ele>
        <time>2025-09-13T13:29:45Z</time>
      </trkpt>
      <trkpt lat="47.57702" lon="6.4714">
        <ele>271.7</ele>
        <time>2025-09-13T13:29:46Z</time>
      </trkpt>
      <trkpt lat="47.57695" lon="6.47139">
        <ele>271.6</ele>
        <time>2025-09-13T13:29:47Z</time>
      </trkpt>
      <trkpt lat="47.57689" lon="6.47139">
        <ele>271.6</ele>
        <time>2025-09-13T13:29:48Z</time>
      </trkpt>
      <trkpt lat="47.57683" lon="6.47139">
        <ele>271.6</ele>
        <time>2025-09-13T13:29:49Z</time>
      </trkpt>
      <trkpt lat="47.57676" lon="6.47139">
        <ele>271.5</ele>
        <time>2025-09-13T13:29:50Z</time>
      </trkpt>
      <trkpt lat="47.5767" lon="6.47138">
        <ele>271.5</ele>
        <time>2025-09-13T13:29:51Z</time>
      </trkpt>
      <trkpt lat="47.57664" lon="6.47138">
        <ele>271.5</ele>
        <time>2025-09-13T13:29:52Z</time>
      </trkpt>
      <trkpt lat="47.57657" lon="6.47138">
        <ele>271.4</ele>
        <time>2025-09-13T13:29:53Z</time>
      </trkpt>
      <trkpt lat="47.57651" lon="6.47138">
        <ele>271.4</ele>
        <time>2025-09-13T13:29:54Z</time>
      </trkpt>
      <trkpt lat="47.57644" lon="6.47138">
        <ele>271.3</ele>
        <time>2025-09-13T13:29:55Z</time>
      </trkpt>
      <trkpt lat="47.57637" lon="6.47137">
        <ele>271.3</ele>
        <time>2025-09-13T13:29:56Z</time>
      </trkpt>
      <trkpt lat="47.57631" lon="6.47135">
        <ele>271.2</ele>
        <time>2025-09-13T13:29:57Z</time>
      </trkpt>
      <trkpt lat="47.57625" lon="6.47133">
        <ele>271.2</ele>
        <time>2025-09-13T13:29:58Z</time>
      </trkpt>
      <trkpt lat="47.5762" lon="6.47129">
        <ele>271.1</ele>
        <time>2025-09-13T13:29:59Z</time>
      </trkpt>
      <trkpt lat="47.57614" lon="6.47127">
        <ele>271.1</ele>
        <time>2025-09-13T13:30:00Z</time>
      </trkpt>
      <trkpt lat="47.57608" lon="6.47124">
        <ele>271</ele>
        <time>2025-09-13T13:30:01Z</time>
      </trkpt>
      <trkpt lat="47.57603" lon="6.47125">
        <ele>270.9</ele>
        <time>2025-09-13T13:30:02Z</time>
      </trkpt>
      <trkpt lat="47.57598" lon="6.47129">
        <ele>270.7</ele>
        <time>2025-09-13T13:30:03Z</time>
      </trkpt>
      <trkpt lat="47.57595" lon="6.47135">
        <ele>270.6</ele>
        <time>2025-09-13T13:30:04Z</time>
      </trkpt>
      <trkpt lat="47.5759" lon="6.47138">
        <ele>270.5</ele>
        <time>2025-09-13T13:30:05Z</time>
      </trkpt>
      <trkpt lat="47.57584" lon="6.47137">
        <ele>270.4</ele>
        <time>2025-09-13T13:30:06Z</time>
      </trkpt>
      <trkpt lat="47.57579" lon="6.47136">
        <ele>270.3</ele>
        <time>2025-09-13T13:30:07Z</time>
      </trkpt>
      <trkpt lat="47.57573" lon="6.47135">
        <ele>270.3</ele>
        <time>2025-09-13T13:30:08Z</time>
      </trkpt>
      <trkpt lat="47.57567" lon="6.47135">
        <ele>270.2</ele>
        <time>2025-09-13T13:30:09Z</time>
      </trkpt>
      <trkpt lat="47.57561" lon="6.47134">
        <ele>270.1</ele>
        <time>2025-09-13T13:30:10Z</time>
      </trkpt>
      <trkpt lat="47.57555" lon="6.47135">
        <ele>270</ele>
        <time>2025-09-13T13:30:11Z</time>
      </trkpt>
      <trkpt lat="47.57549" lon="6.47138">
        <ele>270</ele>
        <time>2025-09-13T13:30:12Z</time>
      </trkpt>
      <trkpt lat="47.57543" lon="6.47143">
        <ele>269.9</ele>
        <time>2025-09-13T13:30:13Z</time>
      </trkpt>
      <trkpt lat="47.57539" lon="6.4715">
        <ele>269.9</ele>
        <time>2025-09-13T13:30:14Z</time>
      </trkpt>
      <trkpt lat="47.57535" lon="6.47157">
        <ele>269.9</ele>
        <time>2025-09-13T13:30:15Z</time>
      </trkpt>
      <trkpt lat="47.57532" lon="6.47165">
        <ele>269.8</ele>
        <time>2025-09-13T13:30:16Z</time>
      </trkpt>
      <trkpt lat="47.57528" lon="6.47173">
        <ele>269.8</ele>
        <time>2025-09-13T13:30:17Z</time>
      </trkpt>
      <trkpt lat="47.57525" lon="6.47181">
        <ele>269.8</ele>
        <time>2025-09-13T13:30:18Z</time>
      </trkpt>
      <trkpt lat="47.57522" lon="6.47189">
        <ele>269.8</ele>
        <time>2025-09-13T13:30:19Z</time>
      </trkpt>
      <trkpt lat="47.57518" lon="6.47197">
        <ele>269.8</ele>
        <time>2025-09-13T13:30:20Z</time>
      </trkpt>
      <trkpt lat="47.57514" lon="6.47205">
        <ele>269.7</ele>
        <time>2025-09-13T13:30:21Z</time>
      </trkpt>
      <trkpt lat="47.5751" lon="6.47213">
        <ele>269.7</ele>
        <time>2025-09-13T13:30:22Z</time>
      </trkpt>
      <trkpt lat="47.57506" lon="6.47219">
        <ele>269.7</ele>
        <time>2025-09-13T13:30:23Z</time>
      </trkpt>
      <trkpt lat="47.57502" lon="6.47224">
        <ele>269.7</ele>
        <time>2025-09-13T13:30:24Z</time>
      </trkpt>
      <trkpt lat="47.57496" lon="6.47228">
        <ele>269.6</ele>
        <time>2025-09-13T13:30:25Z</time>
      </trkpt>
      <trkpt lat="47.5749" lon="6.47231">
        <ele>269.6</ele>
        <time>2025-09-13T13:30:26Z</time>
      </trkpt>
      <trkpt lat="47.57483" lon="6.47232">
        <ele>269.6</ele>
        <time>2025-09-13T13:30:27Z</time>
      </trkpt>
      <trkpt lat="47.57477" lon="6.47232">
        <ele>269.6</ele>
        <time>2025-09-13T13:30:28Z</time>
      </trkpt>
      <trkpt lat="47.57471" lon="6.47231">
        <ele>269.7</ele>
        <time>2025-09-13T13:30:29Z</time>
      </trkpt>
      <trkpt lat="47.57465" lon="6.4723">
        <ele>269.7</ele>
        <time>2025-09-13T13:30:30Z</time>
      </trkpt>
      <trkpt lat="47.57459" lon="6.4723">
        <ele>269.7</ele>
        <time>2025-09-13T13:30:31Z</time>
      </trkpt>
      <trkpt lat="47.57454" lon="6.47228">
        <ele>269.7</ele>
        <time>2025-09-13T13:30:32Z</time>
      </trkpt>
      <trkpt lat="47.57448" lon="6.47228">
        <ele>269.7</ele>
        <time>2025-09-13T13:30:33Z</time>
      </trkpt>
      <trkpt lat="47.57443" lon="6.47229">
        <ele>269.7</ele>
        <time>2025-09-13T13:30:34Z</time>
      </trkpt>
      <trkpt lat="47.57436" lon="6.4723">
        <ele>269.7</ele>
        <time>2025-09-13T13:30:35Z</time>
      </trkpt>
      <trkpt lat="47.57431" lon="6.47232">
        <ele>269.7</ele>
        <time>2025-09-13T13:30:36Z</time>
      </trkpt>
      <trkpt lat="47.57425" lon="6.47234">
        <ele>269.7</ele>
        <time>2025-09-13T13:30:37Z</time>
      </trkpt>
      <trkpt lat="47.5742" lon="6.47236">
        <ele>269.6</ele>
        <time>2025-09-13T13:30:38Z</time>
      </trkpt>
      <trkpt lat="47.57413" lon="6.47239">
        <ele>269.6</ele>
        <time>2025-09-13T13:30:39Z</time>
      </trkpt>
      <trkpt lat="47.57408" lon="6.47243">
        <ele>269.5</ele>
        <time>2025-09-13T13:30:40Z</time>
      </trkpt>
      <trkpt lat="47.57403" lon="6.47247">
        <ele>269.4</ele>
        <time>2025-09-13T13:30:41Z</time>
      </trkpt>
      <trkpt lat="47.57397" lon="6.47251">
        <ele>269.3</ele>
        <time>2025-09-13T13:30:42Z</time>
      </trkpt>
      <trkpt lat="47.57391" lon="6.47255">
        <ele>269.2</ele>
        <time>2025-09-13T13:30:43Z</time>
      </trkpt>
      <trkpt lat="47.57386" lon="6.47258">
        <ele>269.1</ele>
        <time>2025-09-13T13:30:44Z</time>
      </trkpt>
      <trkpt lat="47.5738" lon="6.47262">
        <ele>269</ele>
        <time>2025-09-13T13:30:45Z</time>
      </trkpt>
      <trkpt lat="47.57373" lon="6.47265">
        <ele>268.9</ele>
        <time>2025-09-13T13:30:46Z</time>
      </trkpt>
      <trkpt lat="47.57366" lon="6.47267">
        <ele>268.8</ele>
        <time>2025-09-13T13:30:47Z</time>
      </trkpt>
      <trkpt lat="47.57359" lon="6.47267">
        <ele>268.8</ele>
        <time>2025-09-13T13:30:48Z</time>
      </trkpt>
      <trkpt lat="47.57353" lon="6.47266">
        <ele>268.8</ele>
        <time>2025-09-13T13:30:49Z</time>
      </trkpt>
      <trkpt lat="47.57346" lon="6.47263">
        <ele>268.7</ele>
        <time>2025-09-13T13:30:50Z</time>
      </trkpt>
      <trkpt lat="47.57339" lon="6.4726">
        <ele>268.7</ele>
        <time>2025-09-13T13:30:51Z</time>
      </trkpt>
      <trkpt lat="47.57332" lon="6.47258">
        <ele>268.6</ele>
        <time>2025-09-13T13:30:52Z</time>
      </trkpt>
      <trkpt lat="47.57326" lon="6.47256">
        <ele>268.6</ele>
        <time>2025-09-13T13:30:53Z</time>
      </trkpt>
      <trkpt lat="47.57319" lon="6.47254">
        <ele>268.6</ele>
        <time>2025-09-13T13:30:54Z</time>
      </trkpt>
      <trkpt lat="47.57313" lon="6.47252">
        <ele>268.5</ele>
        <time>2025-09-13T13:30:55Z</time>
      </trkpt>
      <trkpt lat="47.57307" lon="6.4725">
        <ele>268.5</ele>
        <time>2025-09-13T13:30:56Z</time>
      </trkpt>
      <trkpt lat="47.57302" lon="6.47248">
        <ele>268.5</ele>
        <time>2025-09-13T13:30:57Z</time>
      </trkpt>
      <trkpt lat="47.57295" lon="6.47245">
        <ele>268.5</ele>
        <time>2025-09-13T13:30:58Z</time>
      </trkpt>
      <trkpt lat="47.57289" lon="6.47243">
        <ele>268.4</ele>
        <time>2025-09-13T13:30:59Z</time>
      </trkpt>
      <trkpt lat="47.57283" lon="6.47241">
        <ele>268.4</ele>
        <time>2025-09-13T13:31:00Z</time>
      </trkpt>
      <trkpt lat="47.57276" lon="6.47239">
        <ele>268.4</ele>
        <time>2025-09-13T13:31:01Z</time>
      </trkpt>
      <trkpt lat="47.5727" lon="6.47237">
        <ele>268.4</ele>
        <time>2025-09-13T13:31:02Z</time>
      </trkpt>
      <trkpt lat="47.57265" lon="6.47235">
        <ele>268.4</ele>
        <time>2025-09-13T13:31:03Z</time>
      </trkpt>
      <trkpt lat="47.57258" lon="6.47233">
        <ele>268.4</ele>
        <time>2025-09-13T13:31:04Z</time>
      </trkpt>
      <trkpt lat="47.57252" lon="6.47231">
        <ele>268.4</ele>
        <time>2025-09-13T13:31:05Z</time>
      </trkpt>
      <trkpt lat="47.57246" lon="6.47228">
        <ele>268.4</ele>
        <time>2025-09-13T13:31:06Z</time>
      </trkpt>
      <trkpt lat="47.57239" lon="6.47226">
        <ele>268.4</ele>
        <time>2025-09-13T13:31:07Z</time>
      </trkpt>
      <trkpt lat="47.57234" lon="6.47223">
        <ele>268.4</ele>
        <time>2025-09-13T13:31:08Z</time>
      </trkpt>
      <trkpt lat="47.57228" lon="6.4722">
        <ele>268.4</ele>
        <time>2025-09-13T13:31:09Z</time>
      </trkpt>
      <trkpt lat="47.57222" lon="6.47218">
        <ele>268.3</ele>
        <time>2025-09-13T13:31:10Z</time>
      </trkpt>
      <trkpt lat="47.57216" lon="6.47215">
        <ele>268.3</ele>
        <time>2025-09-13T13:31:11Z</time>
      </trkpt>
      <trkpt lat="47.57209" lon="6.47213">
        <ele>268.3</ele>
        <time>2025-09-13T13:31:12Z</time>
      </trkpt>
      <trkpt lat="47.57204" lon="6.4721">
        <ele>268.3</ele>
        <time>2025-09-13T13:31:13Z</time>
      </trkpt>
      <trkpt lat="47.57198" lon="6.47208">
        <ele>268.3</ele>
        <time>2025-09-13T13:31:14Z</time>
      </trkpt>
      <trkpt lat="47.57192" lon="6.47205">
        <ele>268.4</ele>
        <time>2025-09-13T13:31:15Z</time>
      </trkpt>
      <trkpt lat="47.57186" lon="6.47203">
        <ele>268.4</ele>
        <time>2025-09-13T13:31:16Z</time>
      </trkpt>
      <trkpt lat="47.57181" lon="6.472">
        <ele>268.5</ele>
        <time>2025-09-13T13:31:17Z</time>
      </trkpt>
      <trkpt lat="47.57175" lon="6.47198">
        <ele>268.5</ele>
        <time>2025-09-13T13:31:18Z</time>
      </trkpt>
      <trkpt lat="47.5717" lon="6.47195">
        <ele>268.6</ele>
        <time>2025-09-13T13:31:19Z</time>
      </trkpt>
      <trkpt lat="47.57164" lon="6.47193">
        <ele>268.7</ele>
        <time>2025-09-13T13:31:20Z</time>
      </trkpt>
      <trkpt lat="47.57158" lon="6.4719">
        <ele>268.7</ele>
        <time>2025-09-13T13:31:21Z</time>
      </trkpt>
      <trkpt lat="47.57153" lon="6.47188">
        <ele>268.8</ele>
        <time>2025-09-13T13:31:22Z</time>
      </trkpt>
      <trkpt lat="47.57148" lon="6.47186">
        <ele>268.8</ele>
        <time>2025-09-13T13:31:23Z</time>
      </trkpt>
      <trkpt lat="47.57142" lon="6.47183">
        <ele>268.8</ele>
        <time>2025-09-13T13:31:24Z</time>
      </trkpt>
      <trkpt lat="47.57136" lon="6.47181">
        <ele>268.8</ele>
        <time>2025-09-13T13:31:25Z</time>
      </trkpt>
      <trkpt lat="47.5713" lon="6.47178">
        <ele>268.8</ele>
        <time>2025-09-13T13:31:26Z</time>
      </trkpt>
      <trkpt lat="47.57124" lon="6.47176">
        <ele>268.7</ele>
        <time>2025-09-13T13:31:27Z</time>
      </trkpt>
      <trkpt lat="47.57119" lon="6.47173">
        <ele>268.6</ele>
        <time>2025-09-13T13:31:28Z</time>
      </trkpt>
      <trkpt lat="47.57112" lon="6.4717">
        <ele>268.5</ele>
        <time>2025-09-13T13:31:29Z</time>
      </trkpt>
      <trkpt lat="47.57105" lon="6.47167">
        <ele>268.4</ele>
        <time>2025-09-13T13:31:30Z</time>
      </trkpt>
      <trkpt lat="47.57099" lon="6.47164">
        <ele>268.4</ele>
        <time>2025-09-13T13:31:31Z</time>
      </trkpt>
      <trkpt lat="47.57093" lon="6.47161">
        <ele>268.3</ele>
        <time>2025-09-13T13:31:32Z</time>
      </trkpt>
      <trkpt lat="47.57087" lon="6.47158">
        <ele>268.3</ele>
        <time>2025-09-13T13:31:33Z</time>
      </trkpt>
      <trkpt lat="47.5708" lon="6.47155">
        <ele>268.3</ele>
        <time>2025-09-13T13:31:34Z</time>
      </trkpt>
      <trkpt lat="47.57075" lon="6.47152">
        <ele>268.3</ele>
        <time>2025-09-13T13:31:35Z</time>
      </trkpt>
      <trkpt lat="47.57068" lon="6.4715">
        <ele>268.4</ele>
        <time>2025-09-13T13:31:36Z</time>
      </trkpt>
      <trkpt lat="47.57062" lon="6.47148">
        <ele>268.4</ele>
        <time>2025-09-13T13:31:37Z</time>
      </trkpt>
      <trkpt lat="47.57056" lon="6.47147">
        <ele>268.5</ele>
        <time>2025-09-13T13:31:38Z</time>
      </trkpt>
      <trkpt lat="47.57049" lon="6.47146">
        <ele>268.5</ele>
        <time>2025-09-13T13:31:39Z</time>
      </trkpt>
      <trkpt lat="47.57043" lon="6.47146">
        <ele>268.5</ele>
        <time>2025-09-13T13:31:40Z</time>
      </trkpt>
      <trkpt lat="47.57037" lon="6.47146">
        <ele>268.5</ele>
        <time>2025-09-13T13:31:41Z</time>
      </trkpt>
      <trkpt lat="47.57032" lon="6.47146">
        <ele>268.7</ele>
        <time>2025-09-13T13:31:42Z</time>
      </trkpt>
      <trkpt lat="47.57025" lon="6.47143">
        <ele>268.8</ele>
        <time>2025-09-13T13:31:43Z</time>
      </trkpt>
      <trkpt lat="47.5702" lon="6.47139">
        <ele>269</ele>
        <time>2025-09-13T13:31:44Z</time>
      </trkpt>
      <trkpt lat="47.57015" lon="6.47133">
        <ele>269.2</ele>
        <time>2025-09-13T13:31:45Z</time>
      </trkpt>
      <trkpt lat="47.57011" lon="6.47128">
        <ele>269.4</ele>
        <time>2025-09-13T13:31:46Z</time>
      </trkpt>
      <trkpt lat="47.57007" lon="6.47121">
        <ele>269.6</ele>
        <time>2025-09-13T13:31:47Z</time>
      </trkpt>
      <trkpt lat="47.57004" lon="6.47116">
        <ele>269.7</ele>
        <time>2025-09-13T13:31:48Z</time>
      </trkpt>
      <trkpt lat="47.57" lon="6.47109">
        <ele>269.9</ele>
        <time>2025-09-13T13:31:49Z</time>
      </trkpt>
      <trkpt lat="47.56996" lon="6.47103">
        <ele>270.1</ele>
        <time>2025-09-13T13:31:50Z</time>
      </trkpt>
      <trkpt lat="47.56993" lon="6.47098">
        <ele>270.3</ele>
        <time>2025-09-13T13:31:51Z</time>
      </trkpt>
      <trkpt lat="47.56989" lon="6.47092">
        <ele>270.5</ele>
        <time>2025-09-13T13:31:52Z</time>
      </trkpt>
      <trkpt lat="47.56986" lon="6.47086">
        <ele>270.6</ele>
        <time>2025-09-13T13:31:53Z</time>
      </trkpt>
      <trkpt lat="47.56982" lon="6.4708">
        <ele>270.8</ele>
        <time>2025-09-13T13:31:54Z</time>
      </trkpt>
      <trkpt lat="47.56979" lon="6.47076">
        <ele>271</ele>
        <time>2025-09-13T13:31:55Z</time>
      </trkpt>
      <trkpt lat="47.56975" lon="6.47071">
        <ele>271.2</ele>
        <time>2025-09-13T13:31:56Z</time>
      </trkpt>
      <trkpt lat="47.56971" lon="6.47066">
        <ele>271.3</ele>
        <time>2025-09-13T13:31:57Z</time>
      </trkpt>
      <trkpt lat="47.56972" lon="6.47062">
        <ele>271.4</ele>
        <time>2025-09-13T13:31:58Z</time>
      </trkpt>
      <trkpt lat="47.5697" lon="6.47059">
        <ele>271.5</ele>
        <time>2025-09-13T13:31:59Z</time>
      </trkpt>
      <trkpt lat="47.56965" lon="6.47052">
        <ele>271.6</ele>
        <time>2025-09-13T13:32:00Z</time>
      </trkpt>
      <trkpt lat="47.56963" lon="6.47047">
        <ele>271.7</ele>
        <time>2025-09-13T13:32:01Z</time>
      </trkpt>
      <trkpt lat="47.56958" lon="6.47044">
        <ele>271.7</ele>
        <time>2025-09-13T13:32:02Z</time>
      </trkpt>
      <trkpt lat="47.56956" lon="6.47041">
        <ele>271.7</ele>
        <time>2025-09-13T13:32:03Z</time>
      </trkpt>
      <trkpt lat="47.56952" lon="6.47034">
        <ele>271.8</ele>
        <time>2025-09-13T13:32:04Z</time>
      </trkpt>
      <trkpt lat="47.5695" lon="6.47029">
        <ele>271.8</ele>
        <time>2025-09-13T13:32:05Z</time>
      </trkpt>
      <trkpt lat="47.56948" lon="6.47027">
        <ele>271.8</ele>
        <time>2025-09-13T13:32:06Z</time>
      </trkpt>
      <trkpt lat="47.56942" lon="6.47017">
        <ele>271.8</ele>
        <time>2025-09-13T13:32:08Z</time>
      </trkpt>
      <trkpt lat="47.56935" lon="6.47008">
        <ele>271.9</ele>
        <time>2025-09-13T13:32:09Z</time>
      </trkpt>
      <trkpt lat="47.5693" lon="6.47002">
        <ele>271.9</ele>
        <time>2025-09-13T13:32:10Z</time>
      </trkpt>
      <trkpt lat="47.56924" lon="6.46996">
        <ele>271.9</ele>
        <time>2025-09-13T13:32:11Z</time>
      </trkpt>
      <trkpt lat="47.56919" lon="6.46991">
        <ele>271.9</ele>
        <time>2025-09-13T13:32:12Z</time>
      </trkpt>
      <trkpt lat="47.56915" lon="6.46985">
        <ele>271.9</ele>
        <time>2025-09-13T13:32:13Z</time>
      </trkpt>
      <trkpt lat="47.5691" lon="6.46979">
        <ele>271.9</ele>
        <time>2025-09-13T13:32:14Z</time>
      </trkpt>
      <trkpt lat="47.56905" lon="6.46974">
        <ele>272</ele>
        <time>2025-09-13T13:32:15Z</time>
      </trkpt>
      <trkpt lat="47.56901" lon="6.46967">
        <ele>272</ele>
        <time>2025-09-13T13:32:16Z</time>
      </trkpt>
      <trkpt lat="47.56897" lon="6.46962">
        <ele>272</ele>
        <time>2025-09-13T13:32:17Z</time>
      </trkpt>
      <trkpt lat="47.56893" lon="6.46957">
        <ele>272.1</ele>
        <time>2025-09-13T13:32:18Z</time>
      </trkpt>
      <trkpt lat="47.56889" lon="6.46951">
        <ele>272.1</ele>
        <time>2025-09-13T13:32:19Z</time>
      </trkpt>
      <trkpt lat="47.56884" lon="6.46945">
        <ele>272.2</ele>
        <time>2025-09-13T13:32:20Z</time>
      </trkpt>
      <trkpt lat="47.5688" lon="6.4694">
        <ele>272.2</ele>
        <time>2025-09-13T13:32:21Z</time>
      </trkpt>
      <trkpt lat="47.56881" lon="6.46939">
        <ele>272.2</ele>
        <time>2025-09-13T13:32:22Z</time>
      </trkpt>
      <trkpt lat="47.56879" lon="6.46935">
        <ele>272.2</ele>
        <time>2025-09-13T13:32:23Z</time>
      </trkpt>
      <trkpt lat="47.56877" lon="6.46931">
        <ele>272.3</ele>
        <time>2025-09-13T13:32:24Z</time>
      </trkpt>
      <trkpt lat="47.56876" lon="6.4693">
        <ele>272.3</ele>
        <time>2025-09-13T13:32:25Z</time>
      </trkpt>
      <trkpt lat="47.56875" lon="6.46926">
        <ele>272.3</ele>
        <time>2025-09-13T13:32:26Z</time>
      </trkpt>
      <trkpt lat="47.56872" lon="6.46921">
        <ele>272.4</ele>
        <time>2025-09-13T13:32:27Z</time>
      </trkpt>
      <trkpt lat="47.5687" lon="6.46917">
        <ele>272.4</ele>
        <time>2025-09-13T13:32:28Z</time>
      </trkpt>
      <trkpt lat="47.56868" lon="6.46913">
        <ele>272.5</ele>
        <time>2025-09-13T13:32:29Z</time>
      </trkpt>
      <trkpt lat="47.56866" lon="6.46907">
        <ele>272.5</ele>
        <time>2025-09-13T13:32:30Z</time>
      </trkpt>
      <trkpt lat="47.56863" lon="6.46903">
        <ele>272.6</ele>
        <time>2025-09-13T13:32:31Z</time>
      </trkpt>
      <trkpt lat="47.5686" lon="6.46899">
        <ele>272.7</ele>
        <time>2025-09-13T13:32:32Z</time>
      </trkpt>
      <trkpt lat="47.56856" lon="6.46898">
        <ele>272.8</ele>
        <time>2025-09-13T13:32:33Z</time>
      </trkpt>
      <trkpt lat="47.56851" lon="6.46899">
        <ele>272.9</ele>
        <time>2025-09-13T13:32:34Z</time>
      </trkpt>
      <trkpt lat="47.56847" lon="6.46899">
        <ele>273</ele>
        <time>2025-09-13T13:32:35Z</time>
      </trkpt>
      <trkpt lat="47.56844" lon="6.46901">
        <ele>273.1</ele>
        <time>2025-09-13T13:32:36Z</time>
      </trkpt>
      <trkpt lat="47.5684" lon="6.46904">
        <ele>273.2</ele>
        <time>2025-09-13T13:32:37Z</time>
      </trkpt>
      <trkpt lat="47.56837" lon="6.46908">
        <ele>273.3</ele>
        <time>2025-09-13T13:32:38Z</time>
      </trkpt>
      <trkpt lat="47.56833" lon="6.46909">
        <ele>273.4</ele>
        <time>2025-09-13T13:32:39Z</time>
      </trkpt>
      <trkpt lat="47.56827" lon="6.46913">
        <ele>273.6</ele>
        <time>2025-09-13T13:32:40Z</time>
      </trkpt>
      <trkpt lat="47.5682" lon="6.46919">
        <ele>273.8</ele>
        <time>2025-09-13T13:32:41Z</time>
      </trkpt>
      <trkpt lat="47.56814" lon="6.46925">
        <ele>273.9</ele>
        <time>2025-09-13T13:32:42Z</time>
      </trkpt>
      <trkpt lat="47.56808" lon="6.4693">
        <ele>274</ele>
        <time>2025-09-13T13:32:43Z</time>
      </trkpt>
      <trkpt lat="47.56802" lon="6.46934">
        <ele>273.9</ele>
        <time>2025-09-13T13:32:44Z</time>
      </trkpt>
      <trkpt lat="47.56796" lon="6.46938">
        <ele>273.9</ele>
        <time>2025-09-13T13:32:45Z</time>
      </trkpt>
      <trkpt lat="47.5679" lon="6.46942">
        <ele>273.8</ele>
        <time>2025-09-13T13:32:46Z</time>
      </trkpt>
      <trkpt lat="47.56784" lon="6.46947">
        <ele>273.7</ele>
        <time>2025-09-13T13:32:47Z</time>
      </trkpt>
      <trkpt lat="47.56777" lon="6.46952">
        <ele>273.7</ele>
        <time>2025-09-13T13:32:48Z</time>
      </trkpt>
      <trkpt lat="47.5677" lon="6.46954">
        <ele>273.6</ele>
        <time>2025-09-13T13:32:49Z</time>
      </trkpt>
      <trkpt lat="47.56763" lon="6.46956">
        <ele>273.6</ele>
        <time>2025-09-13T13:32:50Z</time>
      </trkpt>
      <trkpt lat="47.56756" lon="6.46957">
        <ele>273.6</ele>
        <time>2025-09-13T13:32:51Z</time>
      </trkpt>
      <trkpt lat="47.56749" lon="6.46958">
        <ele>273.6</ele>
        <time>2025-09-13T13:32:52Z</time>
      </trkpt>
      <trkpt lat="47.56743" lon="6.46958">
        <ele>273.6</ele>
        <time>2025-09-13T13:32:53Z</time>
      </trkpt>
      <trkpt lat="47.56737" lon="6.46957">
        <ele>273.6</ele>
        <time>2025-09-13T13:32:54Z</time>
      </trkpt>
      <trkpt lat="47.56731" lon="6.46956">
        <ele>273.6</ele>
        <time>2025-09-13T13:32:55Z</time>
      </trkpt>
      <trkpt lat="47.56725" lon="6.46955">
        <ele>273.6</ele>
        <time>2025-09-13T13:32:56Z</time>
      </trkpt>
      <trkpt lat="47.5672" lon="6.46953">
        <ele>273.6</ele>
        <time>2025-09-13T13:32:57Z</time>
      </trkpt>
      <trkpt lat="47.56713" lon="6.46951">
        <ele>273.6</ele>
        <time>2025-09-13T13:32:58Z</time>
      </trkpt>
      <trkpt lat="47.56707" lon="6.46948">
        <ele>273.6</ele>
        <time>2025-09-13T13:32:59Z</time>
      </trkpt>
      <trkpt lat="47.56703" lon="6.46945">
        <ele>273.6</ele>
        <time>2025-09-13T13:33:00Z</time>
      </trkpt>
      <trkpt lat="47.56697" lon="6.46942">
        <ele>273.6</ele>
        <time>2025-09-13T13:33:01Z</time>
      </trkpt>
      <trkpt lat="47.56692" lon="6.46939">
        <ele>273.7</ele>
        <time>2025-09-13T13:33:02Z</time>
      </trkpt>
      <trkpt lat="47.56687" lon="6.46935">
        <ele>273.7</ele>
        <time>2025-09-13T13:33:03Z</time>
      </trkpt>
      <trkpt lat="47.56681" lon="6.46931">
        <ele>273.8</ele>
        <time>2025-09-13T13:33:04Z</time>
      </trkpt>
      <trkpt lat="47.56677" lon="6.46927">
        <ele>273.8</ele>
        <time>2025-09-13T13:33:05Z</time>
      </trkpt>
      <trkpt lat="47.56672" lon="6.46924">
        <ele>273.9</ele>
        <time>2025-09-13T13:33:06Z</time>
      </trkpt>
      <trkpt lat="47.56667" lon="6.4692">
        <ele>273.9</ele>
        <time>2025-09-13T13:33:07Z</time>
      </trkpt>
      <trkpt lat="47.56662" lon="6.46916">
        <ele>274</ele>
        <time>2025-09-13T13:33:08Z</time>
      </trkpt>
      <trkpt lat="47.56657" lon="6.46912">
        <ele>274.2</ele>
        <time>2025-09-13T13:33:09Z</time>
      </trkpt>
      <trkpt lat="47.56652" lon="6.46909">
        <ele>274.3</ele>
        <time>2025-09-13T13:33:10Z</time>
      </trkpt>
      <trkpt lat="47.56648" lon="6.46905">
        <ele>274.4</ele>
        <time>2025-09-13T13:33:11Z</time>
      </trkpt>
      <trkpt lat="47.56644" lon="6.469">
        <ele>274.5</ele>
        <time>2025-09-13T13:33:12Z</time>
      </trkpt>
      <trkpt lat="47.56639" lon="6.46897">
        <ele>274.7</ele>
        <time>2025-09-13T13:33:13Z</time>
      </trkpt>
      <trkpt lat="47.56634" lon="6.46893">
        <ele>274.8</ele>
        <time>2025-09-13T13:33:14Z</time>
      </trkpt>
      <trkpt lat="47.5663" lon="6.46889">
        <ele>275</ele>
        <time>2025-09-13T13:33:15Z</time>
      </trkpt>
      <trkpt lat="47.56626" lon="6.46885">
        <ele>275.1</ele>
        <time>2025-09-13T13:33:16Z</time>
      </trkpt>
      <trkpt lat="47.56623" lon="6.46882">
        <ele>275.3</ele>
        <time>2025-09-13T13:33:17Z</time>
      </trkpt>
      <trkpt lat="47.56618" lon="6.46878">
        <ele>275.4</ele>
        <time>2025-09-13T13:33:18Z</time>
      </trkpt>
      <trkpt lat="47.56613" lon="6.46875">
        <ele>275.6</ele>
        <time>2025-09-13T13:33:19Z</time>
      </trkpt>
      <trkpt lat="47.5661" lon="6.46872">
        <ele>275.7</ele>
        <time>2025-09-13T13:33:20Z</time>
      </trkpt>
      <trkpt lat="47.56606" lon="6.46868">
        <ele>275.9</ele>
        <time>2025-09-13T13:33:21Z</time>
      </trkpt>
      <trkpt lat="47.56601" lon="6.46865">
        <ele>276</ele>
        <time>2025-09-13T13:33:22Z</time>
      </trkpt>
      <trkpt lat="47.56597" lon="6.46861">
        <ele>276.2</ele>
        <time>2025-09-13T13:33:23Z</time>
      </trkpt>
      <trkpt lat="47.56593" lon="6.46857">
        <ele>276.3</ele>
        <time>2025-09-13T13:33:24Z</time>
      </trkpt>
      <trkpt lat="47.56589" lon="6.46854">
        <ele>276.4</ele>
        <time>2025-09-13T13:33:25Z</time>
      </trkpt>
      <trkpt lat="47.56585" lon="6.4685">
        <ele>276.5</ele>
        <time>2025-09-13T13:33:26Z</time>
      </trkpt>
      <trkpt lat="47.56581" lon="6.46846">
        <ele>276.7</ele>
        <time>2025-09-13T13:33:27Z</time>
      </trkpt>
      <trkpt lat="47.56577" lon="6.46842">
        <ele>276.8</ele>
        <time>2025-09-13T13:33:28Z</time>
      </trkpt>
      <trkpt lat="47.56574" lon="6.46839">
        <ele>276.9</ele>
        <time>2025-09-13T13:33:29Z</time>
      </trkpt>
      <trkpt lat="47.5657" lon="6.46834">
        <ele>277</ele>
        <time>2025-09-13T13:33:30Z</time>
      </trkpt>
      <trkpt lat="47.56567" lon="6.4683">
        <ele>277.1</ele>
        <time>2025-09-13T13:33:31Z</time>
      </trkpt>
      <trkpt lat="47.56562" lon="6.46826">
        <ele>277.3</ele>
        <time>2025-09-13T13:33:32Z</time>
      </trkpt>
      <trkpt lat="47.56563" lon="6.46824">
        <ele>277.3</ele>
        <time>2025-09-13T13:33:33Z</time>
      </trkpt>
      <trkpt lat="47.56561" lon="6.46821">
        <ele>277.4</ele>
        <time>2025-09-13T13:33:34Z</time>
      </trkpt>
      <trkpt lat="47.56559" lon="6.46818">
        <ele>277.5</ele>
        <time>2025-09-13T13:33:35Z</time>
      </trkpt>
      <trkpt lat="47.56556" lon="6.46813">
        <ele>277.6</ele>
        <time>2025-09-13T13:33:36Z</time>
      </trkpt>
      <trkpt lat="47.5655" lon="6.46805">
        <ele>277.7</ele>
        <time>2025-09-13T13:33:37Z</time>
      </trkpt>
      <trkpt lat="47.56545" lon="6.46801">
        <ele>277.8</ele>
        <time>2025-09-13T13:33:38Z</time>
      </trkpt>
      <trkpt lat="47.56541" lon="6.46796">
        <ele>277.9</ele>
        <time>2025-09-13T13:33:39Z</time>
      </trkpt>
      <trkpt lat="47.56537" lon="6.46791">
        <ele>278</ele>
        <time>2025-09-13T13:33:40Z</time>
      </trkpt>
      <trkpt lat="47.56533" lon="6.46786">
        <ele>278.1</ele>
        <time>2025-09-13T13:33:41Z</time>
      </trkpt>
      <trkpt lat="47.56529" lon="6.46781">
        <ele>278.1</ele>
        <time>2025-09-13T13:33:42Z</time>
      </trkpt>
      <trkpt lat="47.56525" lon="6.46776">
        <ele>278.1</ele>
        <time>2025-09-13T13:33:43Z</time>
      </trkpt>
      <trkpt lat="47.5652" lon="6.46772">
        <ele>278.2</ele>
        <time>2025-09-13T13:33:44Z</time>
      </trkpt>
      <trkpt lat="47.56515" lon="6.46767">
        <ele>278.2</ele>
        <time>2025-09-13T13:33:45Z</time>
      </trkpt>
      <trkpt lat="47.56511" lon="6.46762">
        <ele>278.2</ele>
        <time>2025-09-13T13:33:46Z</time>
      </trkpt>
      <trkpt lat="47.56505" lon="6.46758">
        <ele>278.2</ele>
        <time>2025-09-13T13:33:47Z</time>
      </trkpt>
      <trkpt lat="47.565" lon="6.46753">
        <ele>278.2</ele>
        <time>2025-09-13T13:33:48Z</time>
      </trkpt>
      <trkpt lat="47.56495" lon="6.46749">
        <ele>278.2</ele>
        <time>2025-09-13T13:33:49Z</time>
      </trkpt>
      <trkpt lat="47.5649" lon="6.46746">
        <ele>278.1</ele>
        <time>2025-09-13T13:33:50Z</time>
      </trkpt>
      <trkpt lat="47.56485" lon="6.46742">
        <ele>278.1</ele>
        <time>2025-09-13T13:33:51Z</time>
      </trkpt>
      <trkpt lat="47.5648" lon="6.46738">
        <ele>278.1</ele>
        <time>2025-09-13T13:33:52Z</time>
      </trkpt>
      <trkpt lat="47.56474" lon="6.46734">
        <ele>278</ele>
        <time>2025-09-13T13:33:53Z</time>
      </trkpt>
      <trkpt lat="47.56468" lon="6.46729">
        <ele>278</ele>
        <time>2025-09-13T13:33:54Z</time>
      </trkpt>
      <trkpt lat="47.56463" lon="6.46725">
        <ele>277.9</ele>
        <time>2025-09-13T13:33:55Z</time>
      </trkpt>
      <trkpt lat="47.56458" lon="6.4672">
        <ele>277.9</ele>
        <time>2025-09-13T13:33:56Z</time>
      </trkpt>
      <trkpt lat="47.56452" lon="6.46716">
        <ele>277.9</ele>
        <time>2025-09-13T13:33:57Z</time>
      </trkpt>
      <trkpt lat="47.56448" lon="6.46712">
        <ele>277.9</ele>
        <time>2025-09-13T13:33:58Z</time>
      </trkpt>
      <trkpt lat="47.56442" lon="6.46707">
        <ele>277.8</ele>
        <time>2025-09-13T13:33:59Z</time>
      </trkpt>
      <trkpt lat="47.56437" lon="6.46702">
        <ele>277.8</ele>
        <time>2025-09-13T13:34:00Z</time>
      </trkpt>
      <trkpt lat="47.56432" lon="6.46697">
        <ele>277.8</ele>
        <time>2025-09-13T13:34:01Z</time>
      </trkpt>
      <trkpt lat="47.56427" lon="6.46692">
        <ele>277.7</ele>
        <time>2025-09-13T13:34:02Z</time>
      </trkpt>
      <trkpt lat="47.56422" lon="6.46687">
        <ele>277.6</ele>
        <time>2025-09-13T13:34:03Z</time>
      </trkpt>
      <trkpt lat="47.56417" lon="6.46683">
        <ele>277.5</ele>
        <time>2025-09-13T13:34:04Z</time>
      </trkpt>
      <trkpt lat="47.56411" lon="6.46677">
        <ele>277.4</ele>
        <time>2025-09-13T13:34:05Z</time>
      </trkpt>
      <trkpt lat="47.56406" lon="6.46673">
        <ele>277.2</ele>
        <time>2025-09-13T13:34:06Z</time>
      </trkpt>
      <trkpt lat="47.56401" lon="6.46668">
        <ele>277.1</ele>
        <time>2025-09-13T13:34:07Z</time>
      </trkpt>
      <trkpt lat="47.56395" lon="6.46663">
        <ele>276.9</ele>
        <time>2025-09-13T13:34:08Z</time>
      </trkpt>
      <trkpt lat="47.56391" lon="6.46657">
        <ele>276.7</ele>
        <time>2025-09-13T13:34:09Z</time>
      </trkpt>
      <trkpt lat="47.56385" lon="6.46651">
        <ele>276.5</ele>
        <time>2025-09-13T13:34:10Z</time>
      </trkpt>
      <trkpt lat="47.56378" lon="6.46645">
        <ele>276.3</ele>
        <time>2025-09-13T13:34:11Z</time>
      </trkpt>
      <trkpt lat="47.56372" lon="6.46639">
        <ele>276.2</ele>
        <time>2025-09-13T13:34:12Z</time>
      </trkpt>
      <trkpt lat="47.56366" lon="6.46633">
        <ele>276</ele>
        <time>2025-09-13T13:34:13Z</time>
      </trkpt>
      <trkpt lat="47.5636" lon="6.46627">
        <ele>275.9</ele>
        <time>2025-09-13T13:34:14Z</time>
      </trkpt>
      <trkpt lat="47.56355" lon="6.4662">
        <ele>275.7</ele>
        <time>2025-09-13T13:34:15Z</time>
      </trkpt>
      <trkpt lat="47.56349" lon="6.46614">
        <ele>275.6</ele>
        <time>2025-09-13T13:34:16Z</time>
      </trkpt>
      <trkpt lat="47.56344" lon="6.46609">
        <ele>275.5</ele>
        <time>2025-09-13T13:34:17Z</time>
      </trkpt>
      <trkpt lat="47.56337" lon="6.46603">
        <ele>275.4</ele>
        <time>2025-09-13T13:34:18Z</time>
      </trkpt>
      <trkpt lat="47.56332" lon="6.46598">
        <ele>275.3</ele>
        <time>2025-09-13T13:34:19Z</time>
      </trkpt>
      <trkpt lat="47.56326" lon="6.46592">
        <ele>275.3</ele>
        <time>2025-09-13T13:34:20Z</time>
      </trkpt>
      <trkpt lat="47.56321" lon="6.46585">
        <ele>275.2</ele>
        <time>2025-09-13T13:34:21Z</time>
      </trkpt>
      <trkpt lat="47.56314" lon="6.4658">
        <ele>275.1</ele>
        <time>2025-09-13T13:34:22Z</time>
      </trkpt>
      <trkpt lat="47.56309" lon="6.46573">
        <ele>275</ele>
        <time>2025-09-13T13:34:23Z</time>
      </trkpt>
      <trkpt lat="47.56303" lon="6.46567">
        <ele>275</ele>
        <time>2025-09-13T13:34:24Z</time>
      </trkpt>
      <trkpt lat="47.56297" lon="6.46561">
        <ele>274.9</ele>
        <time>2025-09-13T13:34:25Z</time>
      </trkpt>
      <trkpt lat="47.56292" lon="6.46555">
        <ele>274.9</ele>
        <time>2025-09-13T13:34:26Z</time>
      </trkpt>
      <trkpt lat="47.56286" lon="6.4655">
        <ele>274.9</ele>
        <time>2025-09-13T13:34:27Z</time>
      </trkpt>
      <trkpt lat="47.56281" lon="6.46545">
        <ele>275</ele>
        <time>2025-09-13T13:34:28Z</time>
      </trkpt>
      <trkpt lat="47.56275" lon="6.46539">
        <ele>275</ele>
        <time>2025-09-13T13:34:29Z</time>
      </trkpt>
      <trkpt lat="47.5627" lon="6.46533">
        <ele>275</ele>
        <time>2025-09-13T13:34:30Z</time>
      </trkpt>
      <trkpt lat="47.56264" lon="6.46528">
        <ele>275</ele>
        <time>2025-09-13T13:34:31Z</time>
      </trkpt>
      <trkpt lat="47.56259" lon="6.46522">
        <ele>275</ele>
        <time>2025-09-13T13:34:32Z</time>
      </trkpt>
      <trkpt lat="47.56249" lon="6.46512">
        <ele>275</ele>
        <time>2025-09-13T13:34:33Z</time>
      </trkpt>
      <trkpt lat="47.56238" lon="6.46501">
        <ele>275</ele>
        <time>2025-09-13T13:34:35Z</time>
      </trkpt>
      <trkpt lat="47.56227" lon="6.46491">
        <ele>275</ele>
        <time>2025-09-13T13:34:37Z</time>
      </trkpt>
      <trkpt lat="47.56221" lon="6.46486">
        <ele>275.1</ele>
        <time>2025-09-13T13:34:38Z</time>
      </trkpt>
      <trkpt lat="47.5621" lon="6.46476">
        <ele>275.2</ele>
        <time>2025-09-13T13:34:40Z</time>
      </trkpt>
      <trkpt lat="47.56205" lon="6.46472">
        <ele>275.2</ele>
        <time>2025-09-13T13:34:41Z</time>
      </trkpt>
      <trkpt lat="47.562" lon="6.46468">
        <ele>275.3</ele>
        <time>2025-09-13T13:34:42Z</time>
      </trkpt>
      <trkpt lat="47.56194" lon="6.46463">
        <ele>275.3</ele>
        <time>2025-09-13T13:34:43Z</time>
      </trkpt>
      <trkpt lat="47.56189" lon="6.4646">
        <ele>275.4</ele>
        <time>2025-09-13T13:34:44Z</time>
      </trkpt>
      <trkpt lat="47.56184" lon="6.46456">
        <ele>275.4</ele>
        <time>2025-09-13T13:34:46Z</time>
      </trkpt>
      <trkpt lat="47.56178" lon="6.46453">
        <ele>275.5</ele>
        <time>2025-09-13T13:34:47Z</time>
      </trkpt>
      <trkpt lat="47.56173" lon="6.46449">
        <ele>275.5</ele>
        <time>2025-09-13T13:34:48Z</time>
      </trkpt>
      <trkpt lat="47.56167" lon="6.46446">
        <ele>275.6</ele>
        <time>2025-09-13T13:34:49Z</time>
      </trkpt>
      <trkpt lat="47.56162" lon="6.46442">
        <ele>275.6</ele>
        <time>2025-09-13T13:34:50Z</time>
      </trkpt>
      <trkpt lat="47.56157" lon="6.46438">
        <ele>275.7</ele>
        <time>2025-09-13T13:34:51Z</time>
      </trkpt>
      <trkpt lat="47.56152" lon="6.46434">
        <ele>275.8</ele>
        <time>2025-09-13T13:34:52Z</time>
      </trkpt>
      <trkpt lat="47.56147" lon="6.46431">
        <ele>275.8</ele>
        <time>2025-09-13T13:34:53Z</time>
      </trkpt>
      <trkpt lat="47.56142" lon="6.46428">
        <ele>275.9</ele>
        <time>2025-09-13T13:34:54Z</time>
      </trkpt>
      <trkpt lat="47.56137" lon="6.46425">
        <ele>275.9</ele>
        <time>2025-09-13T13:34:55Z</time>
      </trkpt>
      <trkpt lat="47.56132" lon="6.46422">
        <ele>276</ele>
        <time>2025-09-13T13:34:56Z</time>
      </trkpt>
      <trkpt lat="47.56126" lon="6.46418">
        <ele>276</ele>
        <time>2025-09-13T13:34:57Z</time>
      </trkpt>
      <trkpt lat="47.56121" lon="6.46414">
        <ele>276.1</ele>
        <time>2025-09-13T13:34:58Z</time>
      </trkpt>
      <trkpt lat="47.56115" lon="6.46411">
        <ele>276.1</ele>
        <time>2025-09-13T13:34:59Z</time>
      </trkpt>
      <trkpt lat="47.5611" lon="6.46408">
        <ele>276.1</ele>
        <time>2025-09-13T13:35:00Z</time>
      </trkpt>
      <trkpt lat="47.56106" lon="6.46404">
        <ele>276.2</ele>
        <time>2025-09-13T13:35:01Z</time>
      </trkpt>
      <trkpt lat="47.56101" lon="6.46401">
        <ele>276.2</ele>
        <time>2025-09-13T13:35:02Z</time>
      </trkpt>
      <trkpt lat="47.56096" lon="6.46398">
        <ele>276.3</ele>
        <time>2025-09-13T13:35:03Z</time>
      </trkpt>
      <trkpt lat="47.56091" lon="6.46395">
        <ele>276.4</ele>
        <time>2025-09-13T13:35:04Z</time>
      </trkpt>
      <trkpt lat="47.56086" lon="6.46391">
        <ele>276.5</ele>
        <time>2025-09-13T13:35:05Z</time>
      </trkpt>
      <trkpt lat="47.56081" lon="6.46387">
        <ele>276.6</ele>
        <time>2025-09-13T13:35:06Z</time>
      </trkpt>
      <trkpt lat="47.56076" lon="6.46384">
        <ele>276.7</ele>
        <time>2025-09-13T13:35:07Z</time>
      </trkpt>
      <trkpt lat="47.56071" lon="6.4638">
        <ele>276.8</ele>
        <time>2025-09-13T13:35:08Z</time>
      </trkpt>
      <trkpt lat="47.56066" lon="6.46377">
        <ele>276.9</ele>
        <time>2025-09-13T13:35:09Z</time>
      </trkpt>
      <trkpt lat="47.56062" lon="6.46375">
        <ele>277</ele>
        <time>2025-09-13T13:35:10Z</time>
      </trkpt>
      <trkpt lat="47.56057" lon="6.46371">
        <ele>277.2</ele>
        <time>2025-09-13T13:35:11Z</time>
      </trkpt>
      <trkpt lat="47.56052" lon="6.46368">
        <ele>277.3</ele>
        <time>2025-09-13T13:35:12Z</time>
      </trkpt>
      <trkpt lat="47.56048" lon="6.46364">
        <ele>277.5</ele>
        <time>2025-09-13T13:35:13Z</time>
      </trkpt>
      <trkpt lat="47.56043" lon="6.46361">
        <ele>277.6</ele>
        <time>2025-09-13T13:35:14Z</time>
      </trkpt>
      <trkpt lat="47.56038" lon="6.46358">
        <ele>277.8</ele>
        <time>2025-09-13T13:35:15Z</time>
      </trkpt>
      <trkpt lat="47.5604" lon="6.46358">
        <ele>277.8</ele>
        <time>2025-09-13T13:35:16Z</time>
      </trkpt>
      <trkpt lat="47.56036" lon="6.46354">
        <ele>278</ele>
        <time>2025-09-13T13:35:17Z</time>
      </trkpt>
      <trkpt lat="47.5603" lon="6.46351">
        <ele>278.2</ele>
        <time>2025-09-13T13:35:18Z</time>
      </trkpt>
      <trkpt lat="47.56024" lon="6.46347">
        <ele>278.4</ele>
        <time>2025-09-13T13:35:19Z</time>
      </trkpt>
      <trkpt lat="47.56018" lon="6.46344">
        <ele>278.6</ele>
        <time>2025-09-13T13:35:20Z</time>
      </trkpt>
      <trkpt lat="47.56013" lon="6.46341">
        <ele>278.7</ele>
        <time>2025-09-13T13:35:21Z</time>
      </trkpt>
      <trkpt lat="47.56009" lon="6.46337">
        <ele>278.9</ele>
        <time>2025-09-13T13:35:22Z</time>
      </trkpt>
      <trkpt lat="47.56004" lon="6.46334">
        <ele>279.1</ele>
        <time>2025-09-13T13:35:23Z</time>
      </trkpt>
      <trkpt lat="47.55999" lon="6.46331">
        <ele>279.3</ele>
        <time>2025-09-13T13:35:24Z</time>
      </trkpt>
      <trkpt lat="47.55994" lon="6.46328">
        <ele>279.5</ele>
        <time>2025-09-13T13:35:25Z</time>
      </trkpt>
      <trkpt lat="47.55989" lon="6.46325">
        <ele>279.8</ele>
        <time>2025-09-13T13:35:26Z</time>
      </trkpt>
      <trkpt lat="47.55984" lon="6.46322">
        <ele>280</ele>
        <time>2025-09-13T13:35:27Z</time>
      </trkpt>
      <trkpt lat="47.55981" lon="6.46319">
        <ele>280.2</ele>
        <time>2025-09-13T13:35:28Z</time>
      </trkpt>
      <trkpt lat="47.55977" lon="6.46316">
        <ele>280.4</ele>
        <time>2025-09-13T13:35:29Z</time>
      </trkpt>
      <trkpt lat="47.55973" lon="6.46313">
        <ele>280.6</ele>
        <time>2025-09-13T13:35:30Z</time>
      </trkpt>
      <trkpt lat="47.55969" lon="6.4631">
        <ele>280.9</ele>
        <time>2025-09-13T13:35:31Z</time>
      </trkpt>
      <trkpt lat="47.55965" lon="6.46308">
        <ele>281.1</ele>
        <time>2025-09-13T13:35:32Z</time>
      </trkpt>
      <trkpt lat="47.55961" lon="6.46305">
        <ele>281.2</ele>
        <time>2025-09-13T13:35:33Z</time>
      </trkpt>
      <trkpt lat="47.55957" lon="6.46302">
        <ele>281.4</ele>
        <time>2025-09-13T13:35:34Z</time>
      </trkpt>
      <trkpt lat="47.55953" lon="6.46299">
        <ele>281.7</ele>
        <time>2025-09-13T13:35:35Z</time>
      </trkpt>
      <trkpt lat="47.55949" lon="6.46296">
        <ele>281.9</ele>
        <time>2025-09-13T13:35:36Z</time>
      </trkpt>
      <trkpt lat="47.55945" lon="6.46294">
        <ele>282.1</ele>
        <time>2025-09-13T13:35:37Z</time>
      </trkpt>
      <trkpt lat="47.55941" lon="6.46291">
        <ele>282.4</ele>
        <time>2025-09-13T13:35:38Z</time>
      </trkpt>
      <trkpt lat="47.55937" lon="6.46289">
        <ele>282.6</ele>
        <time>2025-09-13T13:35:39Z</time>
      </trkpt>
      <trkpt lat="47.55932" lon="6.46286">
        <ele>282.9</ele>
        <time>2025-09-13T13:35:40Z</time>
      </trkpt>
      <trkpt lat="47.55928" lon="6.46284">
        <ele>283.1</ele>
        <time>2025-09-13T13:35:41Z</time>
      </trkpt>
      <trkpt lat="47.55924" lon="6.46283">
        <ele>283.3</ele>
        <time>2025-09-13T13:35:42Z</time>
      </trkpt>
      <trkpt lat="47.5592" lon="6.46282">
        <ele>283.5</ele>
        <time>2025-09-13T13:35:43Z</time>
      </trkpt>
      <trkpt lat="47.55916" lon="6.46281">
        <ele>283.7</ele>
        <time>2025-09-13T13:35:44Z</time>
      </trkpt>
      <trkpt lat="47.55911" lon="6.46281">
        <ele>283.9</ele>
        <time>2025-09-13T13:35:45Z</time>
      </trkpt>
      <trkpt lat="47.55906" lon="6.4628">
        <ele>284.2</ele>
        <time>2025-09-13T13:35:46Z</time>
      </trkpt>
      <trkpt lat="47.55901" lon="6.46281">
        <ele>284.4</ele>
        <time>2025-09-13T13:35:47Z</time>
      </trkpt>
      <trkpt lat="47.55898" lon="6.46282">
        <ele>284.6</ele>
        <time>2025-09-13T13:35:48Z</time>
      </trkpt>
      <trkpt lat="47.55893" lon="6.46283">
        <ele>284.9</ele>
        <time>2025-09-13T13:35:49Z</time>
      </trkpt>
      <trkpt lat="47.5589" lon="6.46285">
        <ele>285.1</ele>
        <time>2025-09-13T13:35:50Z</time>
      </trkpt>
      <trkpt lat="47.55886" lon="6.46287">
        <ele>285.3</ele>
        <time>2025-09-13T13:35:51Z</time>
      </trkpt>
      <trkpt lat="47.55881" lon="6.46288">
        <ele>285.6</ele>
        <time>2025-09-13T13:35:52Z</time>
      </trkpt>
      <trkpt lat="47.55877" lon="6.46289">
        <ele>285.8</ele>
        <time>2025-09-13T13:35:53Z</time>
      </trkpt>
      <trkpt lat="47.55873" lon="6.46291">
        <ele>286</ele>
        <time>2025-09-13T13:35:54Z</time>
      </trkpt>
      <trkpt lat="47.55869" lon="6.46292">
        <ele>286.2</ele>
        <time>2025-09-13T13:35:55Z</time>
      </trkpt>
      <trkpt lat="47.55865" lon="6.46293">
        <ele>286.5</ele>
        <time>2025-09-13T13:35:56Z</time>
      </trkpt>
      <trkpt lat="47.55861" lon="6.46295">
        <ele>286.7</ele>
        <time>2025-09-13T13:35:57Z</time>
      </trkpt>
      <trkpt lat="47.55857" lon="6.46297">
        <ele>286.9</ele>
        <time>2025-09-13T13:35:58Z</time>
      </trkpt>
      <trkpt lat="47.55852" lon="6.46297">
        <ele>287.1</ele>
        <time>2025-09-13T13:35:59Z</time>
      </trkpt>
      <trkpt lat="47.55847" lon="6.46299">
        <ele>287.4</ele>
        <time>2025-09-13T13:36:00Z</time>
      </trkpt>
      <trkpt lat="47.55843" lon="6.46301">
        <ele>287.7</ele>
        <time>2025-09-13T13:36:01Z</time>
      </trkpt>
      <trkpt lat="47.55838" lon="6.46302">
        <ele>288</ele>
        <time>2025-09-13T13:36:02Z</time>
      </trkpt>
      <trkpt lat="47.55834" lon="6.46303">
        <ele>288.2</ele>
        <time>2025-09-13T13:36:03Z</time>
      </trkpt>
      <trkpt lat="47.55829" lon="6.46305">
        <ele>288.5</ele>
        <time>2025-09-13T13:36:04Z</time>
      </trkpt>
      <trkpt lat="47.55823" lon="6.46306">
        <ele>288.8</ele>
        <time>2025-09-13T13:36:05Z</time>
      </trkpt>
      <trkpt lat="47.55817" lon="6.46308">
        <ele>289.2</ele>
        <time>2025-09-13T13:36:06Z</time>
      </trkpt>
      <trkpt lat="47.55812" lon="6.4631">
        <ele>289.5</ele>
        <time>2025-09-13T13:36:07Z</time>
      </trkpt>
      <trkpt lat="47.55807" lon="6.46312">
        <ele>289.8</ele>
        <time>2025-09-13T13:36:08Z</time>
      </trkpt>
      <trkpt lat="47.55802" lon="6.46314">
        <ele>290.1</ele>
        <time>2025-09-13T13:36:09Z</time>
      </trkpt>
      <trkpt lat="47.55798" lon="6.46315">
        <ele>290.3</ele>
        <time>2025-09-13T13:36:10Z</time>
      </trkpt>
      <trkpt lat="47.55793" lon="6.46317">
        <ele>290.6</ele>
        <time>2025-09-13T13:36:11Z</time>
      </trkpt>
      <trkpt lat="47.55788" lon="6.46319">
        <ele>290.8</ele>
        <time>2025-09-13T13:36:12Z</time>
      </trkpt>
      <trkpt lat="47.55783" lon="6.46321">
        <ele>291</ele>
        <time>2025-09-13T13:36:13Z</time>
      </trkpt>
      <trkpt lat="47.55779" lon="6.46323">
        <ele>291.2</ele>
        <time>2025-09-13T13:36:14Z</time>
      </trkpt>
      <trkpt lat="47.55775" lon="6.46326">
        <ele>291.4</ele>
        <time>2025-09-13T13:36:15Z</time>
      </trkpt>
      <trkpt lat="47.55771" lon="6.46329">
        <ele>291.6</ele>
        <time>2025-09-13T13:36:16Z</time>
      </trkpt>
      <trkpt lat="47.55766" lon="6.46331">
        <ele>291.8</ele>
        <time>2025-09-13T13:36:17Z</time>
      </trkpt>
      <trkpt lat="47.55761" lon="6.46335">
        <ele>292</ele>
        <time>2025-09-13T13:36:18Z</time>
      </trkpt>
      <trkpt lat="47.55757" lon="6.46337">
        <ele>292.2</ele>
        <time>2025-09-13T13:36:19Z</time>
      </trkpt>
      <trkpt lat="47.55752" lon="6.4634">
        <ele>292.4</ele>
        <time>2025-09-13T13:36:20Z</time>
      </trkpt>
      <trkpt lat="47.55748" lon="6.46344">
        <ele>292.6</ele>
        <time>2025-09-13T13:36:21Z</time>
      </trkpt>
      <trkpt lat="47.55744" lon="6.46347">
        <ele>292.8</ele>
        <time>2025-09-13T13:36:22Z</time>
      </trkpt>
      <trkpt lat="47.55739" lon="6.46351">
        <ele>293</ele>
        <time>2025-09-13T13:36:23Z</time>
      </trkpt>
      <trkpt lat="47.55735" lon="6.46354">
        <ele>293.2</ele>
        <time>2025-09-13T13:36:24Z</time>
      </trkpt>
      <trkpt lat="47.55731" lon="6.46357">
        <ele>293.3</ele>
        <time>2025-09-13T13:36:25Z</time>
      </trkpt>
      <trkpt lat="47.55726" lon="6.4636">
        <ele>293.5</ele>
        <time>2025-09-13T13:36:26Z</time>
      </trkpt>
      <trkpt lat="47.55721" lon="6.46363">
        <ele>293.7</ele>
        <time>2025-09-13T13:36:27Z</time>
      </trkpt>
      <trkpt lat="47.55717" lon="6.46366">
        <ele>293.9</ele>
        <time>2025-09-13T13:36:28Z</time>
      </trkpt>
      <trkpt lat="47.55713" lon="6.46369">
        <ele>294.1</ele>
        <time>2025-09-13T13:36:29Z</time>
      </trkpt>
      <trkpt lat="47.55708" lon="6.46372">
        <ele>294.2</ele>
        <time>2025-09-13T13:36:30Z</time>
      </trkpt>
      <trkpt lat="47.55704" lon="6.46375">
        <ele>294.4</ele>
        <time>2025-09-13T13:36:31Z</time>
      </trkpt>
      <trkpt lat="47.55699" lon="6.46377">
        <ele>294.5</ele>
        <time>2025-09-13T13:36:32Z</time>
      </trkpt>
      <trkpt lat="47.55695" lon="6.46379">
        <ele>294.6</ele>
        <time>2025-09-13T13:36:33Z</time>
      </trkpt>
      <trkpt lat="47.5569" lon="6.4638">
        <ele>294.7</ele>
        <time>2025-09-13T13:36:34Z</time>
      </trkpt>
      <trkpt lat="47.55685" lon="6.46382">
        <ele>294.7</ele>
        <time>2025-09-13T13:36:35Z</time>
      </trkpt>
      <trkpt lat="47.5568" lon="6.46382">
        <ele>294.8</ele>
        <time>2025-09-13T13:36:36Z</time>
      </trkpt>
      <trkpt lat="47.55676" lon="6.46383">
        <ele>294.9</ele>
        <time>2025-09-13T13:36:37Z</time>
      </trkpt>
      <trkpt lat="47.55671" lon="6.46382">
        <ele>295</ele>
        <time>2025-09-13T13:36:38Z</time>
      </trkpt>
      <trkpt lat="47.55667" lon="6.46381">
        <ele>295.1</ele>
        <time>2025-09-13T13:36:39Z</time>
      </trkpt>
      <trkpt lat="47.55662" lon="6.46379">
        <ele>295.2</ele>
        <time>2025-09-13T13:36:40Z</time>
      </trkpt>
      <trkpt lat="47.55658" lon="6.46376">
        <ele>295.3</ele>
        <time>2025-09-13T13:36:41Z</time>
      </trkpt>
      <trkpt lat="47.55652" lon="6.46375">
        <ele>295.4</ele>
        <time>2025-09-13T13:36:42Z</time>
      </trkpt>
      <trkpt lat="47.55649" lon="6.46372">
        <ele>295.6</ele>
        <time>2025-09-13T13:36:43Z</time>
      </trkpt>
      <trkpt lat="47.55645" lon="6.46369">
        <ele>295.7</ele>
        <time>2025-09-13T13:36:44Z</time>
      </trkpt>
      <trkpt lat="47.55643" lon="6.46366">
        <ele>295.8</ele>
        <time>2025-09-13T13:36:45Z</time>
      </trkpt>
      <trkpt lat="47.55639" lon="6.46363">
        <ele>295.9</ele>
        <time>2025-09-13T13:36:46Z</time>
      </trkpt>
      <trkpt lat="47.55635" lon="6.4636">
        <ele>296</ele>
        <time>2025-09-13T13:36:47Z</time>
      </trkpt>
      <trkpt lat="47.55631" lon="6.46357">
        <ele>296.1</ele>
        <time>2025-09-13T13:36:48Z</time>
      </trkpt>
      <trkpt lat="47.5563" lon="6.46353">
        <ele>296.2</ele>
        <time>2025-09-13T13:36:49Z</time>
      </trkpt>
      <trkpt lat="47.55627" lon="6.46351">
        <ele>296.3</ele>
        <time>2025-09-13T13:36:50Z</time>
      </trkpt>
      <trkpt lat="47.55621" lon="6.46347">
        <ele>296.5</ele>
        <time>2025-09-13T13:36:51Z</time>
      </trkpt>
      <trkpt lat="47.55617" lon="6.46344">
        <ele>296.6</ele>
        <time>2025-09-13T13:36:52Z</time>
      </trkpt>
      <trkpt lat="47.55613" lon="6.46341">
        <ele>296.7</ele>
        <time>2025-09-13T13:36:53Z</time>
      </trkpt>
      <trkpt lat="47.55609" lon="6.46338">
        <ele>296.9</ele>
        <time>2025-09-13T13:36:54Z</time>
      </trkpt>
      <trkpt lat="47.55605" lon="6.46335">
        <ele>297.1</ele>
        <time>2025-09-13T13:36:55Z</time>
      </trkpt>
      <trkpt lat="47.55601" lon="6.46333">
        <ele>297.2</ele>
        <time>2025-09-13T13:36:56Z</time>
      </trkpt>
      <trkpt lat="47.55598" lon="6.4633">
        <ele>297.4</ele>
        <time>2025-09-13T13:36:57Z</time>
      </trkpt>
      <trkpt lat="47.55594" lon="6.46328">
        <ele>297.6</ele>
        <time>2025-09-13T13:36:58Z</time>
      </trkpt>
      <trkpt lat="47.5559" lon="6.46326">
        <ele>297.7</ele>
        <time>2025-09-13T13:36:59Z</time>
      </trkpt>
      <trkpt lat="47.55586" lon="6.46324">
        <ele>297.9</ele>
        <time>2025-09-13T13:37:00Z</time>
      </trkpt>
      <trkpt lat="47.55581" lon="6.46323">
        <ele>298.1</ele>
        <time>2025-09-13T13:37:01Z</time>
      </trkpt>
      <trkpt lat="47.55577" lon="6.46322">
        <ele>298.3</ele>
        <time>2025-09-13T13:37:02Z</time>
      </trkpt>
      <trkpt lat="47.55572" lon="6.46321">
        <ele>298.5</ele>
        <time>2025-09-13T13:37:03Z</time>
      </trkpt>
      <trkpt lat="47.55568" lon="6.4632">
        <ele>298.6</ele>
        <time>2025-09-13T13:37:04Z</time>
      </trkpt>
      <trkpt lat="47.55564" lon="6.4632">
        <ele>298.8</ele>
        <time>2025-09-13T13:37:05Z</time>
      </trkpt>
      <trkpt lat="47.55559" lon="6.46319">
        <ele>299</ele>
        <time>2025-09-13T13:37:06Z</time>
      </trkpt>
      <trkpt lat="47.55555" lon="6.46318">
        <ele>299.2</ele>
        <time>2025-09-13T13:37:07Z</time>
      </trkpt>
      <trkpt lat="47.55551" lon="6.46318">
        <ele>299.3</ele>
        <time>2025-09-13T13:37:08Z</time>
      </trkpt>
      <trkpt lat="47.55546" lon="6.46318">
        <ele>299.5</ele>
        <time>2025-09-13T13:37:09Z</time>
      </trkpt>
      <trkpt lat="47.55542" lon="6.46318">
        <ele>299.6</ele>
        <time>2025-09-13T13:37:10Z</time>
      </trkpt>
      <trkpt lat="47.55538" lon="6.46317">
        <ele>299.8</ele>
        <time>2025-09-13T13:37:11Z</time>
      </trkpt>
      <trkpt lat="47.55533" lon="6.46317">
        <ele>299.9</ele>
        <time>2025-09-13T13:37:12Z</time>
      </trkpt>
      <trkpt lat="47.55529" lon="6.46316">
        <ele>300.1</ele>
        <time>2025-09-13T13:37:13Z</time>
      </trkpt>
      <trkpt lat="47.55525" lon="6.46316">
        <ele>300.2</ele>
        <time>2025-09-13T13:37:14Z</time>
      </trkpt>
      <trkpt lat="47.5552" lon="6.46316">
        <ele>300.3</ele>
        <time>2025-09-13T13:37:15Z</time>
      </trkpt>
      <trkpt lat="47.55516" lon="6.46315">
        <ele>300.4</ele>
        <time>2025-09-13T13:37:16Z</time>
      </trkpt>
      <trkpt lat="47.55512" lon="6.46315">
        <ele>300.5</ele>
        <time>2025-09-13T13:37:17Z</time>
      </trkpt>
      <trkpt lat="47.55507" lon="6.46315">
        <ele>300.5</ele>
        <time>2025-09-13T13:37:18Z</time>
      </trkpt>
      <trkpt lat="47.55502" lon="6.46314">
        <ele>300.6</ele>
        <time>2025-09-13T13:37:19Z</time>
      </trkpt>
      <trkpt lat="47.55498" lon="6.46313">
        <ele>300.6</ele>
        <time>2025-09-13T13:37:20Z</time>
      </trkpt>
      <trkpt lat="47.55493" lon="6.46313">
        <ele>300.7</ele>
        <time>2025-09-13T13:37:21Z</time>
      </trkpt>
      <trkpt lat="47.55488" lon="6.46312">
        <ele>300.7</ele>
        <time>2025-09-13T13:37:22Z</time>
      </trkpt>
      <trkpt lat="47.55483" lon="6.46311">
        <ele>300.7</ele>
        <time>2025-09-13T13:37:23Z</time>
      </trkpt>
      <trkpt lat="47.55479" lon="6.4631">
        <ele>300.7</ele>
        <time>2025-09-13T13:37:24Z</time>
      </trkpt>
      <trkpt lat="47.55473" lon="6.46308">
        <ele>300.7</ele>
        <time>2025-09-13T13:37:25Z</time>
      </trkpt>
      <trkpt lat="47.55469" lon="6.46307">
        <ele>300.7</ele>
        <time>2025-09-13T13:37:26Z</time>
      </trkpt>
      <trkpt lat="47.55464" lon="6.46305">
        <ele>300.7</ele>
        <time>2025-09-13T13:37:27Z</time>
      </trkpt>
      <trkpt lat="47.55459" lon="6.46304">
        <ele>300.6</ele>
        <time>2025-09-13T13:37:28Z</time>
      </trkpt>
      <trkpt lat="47.55453" lon="6.46303">
        <ele>300.6</ele>
        <time>2025-09-13T13:37:29Z</time>
      </trkpt>
      <trkpt lat="47.55448" lon="6.46302">
        <ele>300.4</ele>
        <time>2025-09-13T13:37:30Z</time>
      </trkpt>
      <trkpt lat="47.55443" lon="6.463">
        <ele>300.3</ele>
        <time>2025-09-13T13:37:31Z</time>
      </trkpt>
      <trkpt lat="47.55437" lon="6.46298">
        <ele>300.1</ele>
        <time>2025-09-13T13:37:32Z</time>
      </trkpt>
      <trkpt lat="47.55432" lon="6.46297">
        <ele>299.9</ele>
        <time>2025-09-13T13:37:33Z</time>
      </trkpt>
      <trkpt lat="47.55425" lon="6.46295">
        <ele>299.5</ele>
        <time>2025-09-13T13:37:34Z</time>
      </trkpt>
      <trkpt lat="47.5542" lon="6.46293">
        <ele>299.3</ele>
        <time>2025-09-13T13:37:35Z</time>
      </trkpt>
      <trkpt lat="47.55414" lon="6.46291">
        <ele>298.9</ele>
        <time>2025-09-13T13:37:36Z</time>
      </trkpt>
      <trkpt lat="47.55407" lon="6.4629">
        <ele>298.4</ele>
        <time>2025-09-13T13:37:37Z</time>
      </trkpt>
      <trkpt lat="47.55401" lon="6.46288">
        <ele>298</ele>
        <time>2025-09-13T13:37:38Z</time>
      </trkpt>
      <trkpt lat="47.55394" lon="6.46286">
        <ele>297.5</ele>
        <time>2025-09-13T13:37:39Z</time>
      </trkpt>
      <trkpt lat="47.55387" lon="6.46285">
        <ele>296.9</ele>
        <time>2025-09-13T13:37:40Z</time>
      </trkpt>
      <trkpt lat="47.55381" lon="6.46284">
        <ele>296.3</ele>
        <time>2025-09-13T13:37:41Z</time>
      </trkpt>
      <trkpt lat="47.55372" lon="6.46283">
        <ele>295.6</ele>
        <time>2025-09-13T13:37:42Z</time>
      </trkpt>
      <trkpt lat="47.55364" lon="6.46283">
        <ele>294.9</ele>
        <time>2025-09-13T13:37:43Z</time>
      </trkpt>
      <trkpt lat="47.55355" lon="6.46284">
        <ele>294.2</ele>
        <time>2025-09-13T13:37:44Z</time>
      </trkpt>
      <trkpt lat="47.55346" lon="6.46287">
        <ele>293.4</ele>
        <time>2025-09-13T13:37:45Z</time>
      </trkpt>
      <trkpt lat="47.55338" lon="6.46291">
        <ele>292.8</ele>
        <time>2025-09-13T13:37:46Z</time>
      </trkpt>
      <trkpt lat="47.5533" lon="6.46297">
        <ele>292.1</ele>
        <time>2025-09-13T13:37:47Z</time>
      </trkpt>
      <trkpt lat="47.55321" lon="6.46302">
        <ele>291.5</ele>
        <time>2025-09-13T13:37:48Z</time>
      </trkpt>
      <trkpt lat="47.55311" lon="6.46307">
        <ele>290.9</ele>
        <time>2025-09-13T13:37:49Z</time>
      </trkpt>
      <trkpt lat="47.55301" lon="6.46312">
        <ele>290.4</ele>
        <time>2025-09-13T13:37:50Z</time>
      </trkpt>
      <trkpt lat="47.55293" lon="6.46318">
        <ele>289.8</ele>
        <time>2025-09-13T13:37:51Z</time>
      </trkpt>
      <trkpt lat="47.55283" lon="6.46323">
        <ele>289.3</ele>
        <time>2025-09-13T13:37:52Z</time>
      </trkpt>
      <trkpt lat="47.55275" lon="6.46328">
        <ele>288.8</ele>
        <time>2025-09-13T13:37:53Z</time>
      </trkpt>
      <trkpt lat="47.55266" lon="6.46333">
        <ele>288.3</ele>
        <time>2025-09-13T13:37:54Z</time>
      </trkpt>
      <trkpt lat="47.55257" lon="6.46339">
        <ele>287.9</ele>
        <time>2025-09-13T13:37:55Z</time>
      </trkpt>
      <trkpt lat="47.55248" lon="6.46344">
        <ele>287.4</ele>
        <time>2025-09-13T13:37:56Z</time>
      </trkpt>
      <trkpt lat="47.55239" lon="6.46349">
        <ele>287</ele>
        <time>2025-09-13T13:37:57Z</time>
      </trkpt>
      <trkpt lat="47.5523" lon="6.46355">
        <ele>286.5</ele>
        <time>2025-09-13T13:37:58Z</time>
      </trkpt>
      <trkpt lat="47.55221" lon="6.4636">
        <ele>286</ele>
        <time>2025-09-13T13:37:59Z</time>
      </trkpt>
      <trkpt lat="47.55213" lon="6.46365">
        <ele>285.6</ele>
        <time>2025-09-13T13:38:00Z</time>
      </trkpt>
      <trkpt lat="47.55203" lon="6.46369">
        <ele>285.1</ele>
        <time>2025-09-13T13:38:01Z</time>
      </trkpt>
      <trkpt lat="47.55194" lon="6.46369">
        <ele>284.7</ele>
        <time>2025-09-13T13:38:02Z</time>
      </trkpt>
      <trkpt lat="47.55184" lon="6.46366">
        <ele>284.5</ele>
        <time>2025-09-13T13:38:03Z</time>
      </trkpt>
      <trkpt lat="47.55175" lon="6.46361">
        <ele>284.3</ele>
        <time>2025-09-13T13:38:04Z</time>
      </trkpt>
      <trkpt lat="47.55168" lon="6.46354">
        <ele>284.2</ele>
        <time>2025-09-13T13:38:05Z</time>
      </trkpt>
      <trkpt lat="47.5516" lon="6.46347">
        <ele>284.1</ele>
        <time>2025-09-13T13:38:06Z</time>
      </trkpt>
      <trkpt lat="47.55154" lon="6.4634">
        <ele>284.1</ele>
        <time>2025-09-13T13:38:07Z</time>
      </trkpt>
      <trkpt lat="47.55147" lon="6.46333">
        <ele>284</ele>
        <time>2025-09-13T13:38:08Z</time>
      </trkpt>
      <trkpt lat="47.5514" lon="6.46327">
        <ele>284</ele>
        <time>2025-09-13T13:38:09Z</time>
      </trkpt>
      <trkpt lat="47.55135" lon="6.46321">
        <ele>284</ele>
        <time>2025-09-13T13:38:10Z</time>
      </trkpt>
      <trkpt lat="47.55129" lon="6.46315">
        <ele>284</ele>
        <time>2025-09-13T13:38:11Z</time>
      </trkpt>
      <trkpt lat="47.55123" lon="6.46309">
        <ele>284</ele>
        <time>2025-09-13T13:38:12Z</time>
      </trkpt>
      <trkpt lat="47.55117" lon="6.46304">
        <ele>284.1</ele>
        <time>2025-09-13T13:38:13Z</time>
      </trkpt>
      <trkpt lat="47.55111" lon="6.46301">
        <ele>284.1</ele>
        <time>2025-09-13T13:38:14Z</time>
      </trkpt>
      <trkpt lat="47.55104" lon="6.46299">
        <ele>284.1</ele>
        <time>2025-09-13T13:38:15Z</time>
      </trkpt>
      <trkpt lat="47.55097" lon="6.46301">
        <ele>284.1</ele>
        <time>2025-09-13T13:38:16Z</time>
      </trkpt>
      <trkpt lat="47.55091" lon="6.46304">
        <ele>284</ele>
        <time>2025-09-13T13:38:17Z</time>
      </trkpt>
      <trkpt lat="47.55085" lon="6.46307">
        <ele>284</ele>
        <time>2025-09-13T13:38:18Z</time>
      </trkpt>
      <trkpt lat="47.5508" lon="6.46309">
        <ele>284</ele>
        <time>2025-09-13T13:38:19Z</time>
      </trkpt>
      <trkpt lat="47.55073" lon="6.46312">
        <ele>283.9</ele>
        <time>2025-09-13T13:38:20Z</time>
      </trkpt>
      <trkpt lat="47.55067" lon="6.46313">
        <ele>283.9</ele>
        <time>2025-09-13T13:38:21Z</time>
      </trkpt>
      <trkpt lat="47.55061" lon="6.46314">
        <ele>283.9</ele>
        <time>2025-09-13T13:38:22Z</time>
      </trkpt>
      <trkpt lat="47.55053" lon="6.46313">
        <ele>284</ele>
        <time>2025-09-13T13:38:23Z</time>
      </trkpt>
      <trkpt lat="47.55048" lon="6.46311">
        <ele>284</ele>
        <time>2025-09-13T13:38:24Z</time>
      </trkpt>
      <trkpt lat="47.55042" lon="6.46308">
        <ele>284</ele>
        <time>2025-09-13T13:38:25Z</time>
      </trkpt>
      <trkpt lat="47.55036" lon="6.46304">
        <ele>284.1</ele>
        <time>2025-09-13T13:38:26Z</time>
      </trkpt>
      <trkpt lat="47.55031" lon="6.46299">
        <ele>284.1</ele>
        <time>2025-09-13T13:38:27Z</time>
      </trkpt>
      <trkpt lat="47.55027" lon="6.46293">
        <ele>284.1</ele>
        <time>2025-09-13T13:38:28Z</time>
      </trkpt>
      <trkpt lat="47.55023" lon="6.46285">
        <ele>284.2</ele>
        <time>2025-09-13T13:38:29Z</time>
      </trkpt>
      <trkpt lat="47.55021" lon="6.46277">
        <ele>284.3</ele>
        <time>2025-09-13T13:38:30Z</time>
      </trkpt>
      <trkpt lat="47.5502" lon="6.4627">
        <ele>284.4</ele>
        <time>2025-09-13T13:38:31Z</time>
      </trkpt>
      <trkpt lat="47.55016" lon="6.46265">
        <ele>284.4</ele>
        <time>2025-09-13T13:38:32Z</time>
      </trkpt>
      <trkpt lat="47.55012" lon="6.46259">
        <ele>284.6</ele>
        <time>2025-09-13T13:38:33Z</time>
      </trkpt>
      <trkpt lat="47.55008" lon="6.46259">
        <ele>284.6</ele>
        <time>2025-09-13T13:38:34Z</time>
      </trkpt>
      <trkpt lat="47.55004" lon="6.46257">
        <ele>284.8</ele>
        <time>2025-09-13T13:38:35Z</time>
      </trkpt>
      <trkpt lat="47.55" lon="6.46259">
        <ele>284.9</ele>
        <time>2025-09-13T13:38:36Z</time>
      </trkpt>
      <trkpt lat="47.54995" lon="6.46264">
        <ele>285.1</ele>
        <time>2025-09-13T13:38:37Z</time>
      </trkpt>
      <trkpt lat="47.54993" lon="6.46271">
        <ele>285.3</ele>
        <time>2025-09-13T13:38:38Z</time>
      </trkpt>
      <trkpt lat="47.54991" lon="6.46277">
        <ele>285.5</ele>
        <time>2025-09-13T13:38:39Z</time>
      </trkpt>
      <trkpt lat="47.54988" lon="6.46282">
        <ele>285.7</ele>
        <time>2025-09-13T13:38:40Z</time>
      </trkpt>
      <trkpt lat="47.54985" lon="6.46287">
        <ele>285.9</ele>
        <time>2025-09-13T13:38:41Z</time>
      </trkpt>
      <trkpt lat="47.54983" lon="6.46292">
        <ele>286.1</ele>
        <time>2025-09-13T13:38:42Z</time>
      </trkpt>
      <trkpt lat="47.54981" lon="6.46298">
        <ele>286.4</ele>
        <time>2025-09-13T13:38:43Z</time>
      </trkpt>
      <trkpt lat="47.54978" lon="6.46303">
        <ele>286.6</ele>
        <time>2025-09-13T13:38:44Z</time>
      </trkpt>
      <trkpt lat="47.54975" lon="6.46308">
        <ele>286.9</ele>
        <time>2025-09-13T13:38:45Z</time>
      </trkpt>
      <trkpt lat="47.54973" lon="6.46313">
        <ele>287.1</ele>
        <time>2025-09-13T13:38:46Z</time>
      </trkpt>
      <trkpt lat="47.5497" lon="6.46317">
        <ele>287.4</ele>
        <time>2025-09-13T13:38:47Z</time>
      </trkpt>
      <trkpt lat="47.54969" lon="6.46322">
        <ele>287.7</ele>
        <time>2025-09-13T13:38:48Z</time>
      </trkpt>
      <trkpt lat="47.54965" lon="6.46326">
        <ele>288</ele>
        <time>2025-09-13T13:38:49Z</time>
      </trkpt>
      <trkpt lat="47.54962" lon="6.4633">
        <ele>288.3</ele>
        <time>2025-09-13T13:38:50Z</time>
      </trkpt>
      <trkpt lat="47.54962" lon="6.46331">
        <ele>288.3</ele>
        <time>2025-09-13T13:38:51Z</time>
      </trkpt>
      <trkpt lat="47.5496" lon="6.46334">
        <ele>288.6</ele>
        <time>2025-09-13T13:38:52Z</time>
      </trkpt>
      <trkpt lat="47.54957" lon="6.46337">
        <ele>288.9</ele>
        <time>2025-09-13T13:38:53Z</time>
      </trkpt>
      <trkpt lat="47.54955" lon="6.46338">
        <ele>289</ele>
        <time>2025-09-13T13:38:54Z</time>
      </trkpt>
      <trkpt lat="47.54951" lon="6.46341">
        <ele>289.4</ele>
        <time>2025-09-13T13:38:55Z</time>
      </trkpt>
      <trkpt lat="47.5495" lon="6.46342">
        <ele>289.5</ele>
        <time>2025-09-13T13:38:56Z</time>
      </trkpt>
      <trkpt lat="47.54945" lon="6.46345">
        <ele>290</ele>
        <time>2025-09-13T13:38:57Z</time>
      </trkpt>
      <trkpt lat="47.54942" lon="6.46346">
        <ele>290.3</ele>
        <time>2025-09-13T13:38:58Z</time>
      </trkpt>
      <trkpt lat="47.54938" lon="6.46349">
        <ele>290.6</ele>
        <time>2025-09-13T13:38:59Z</time>
      </trkpt>
      <trkpt lat="47.54935" lon="6.46352">
        <ele>290.9</ele>
        <time>2025-09-13T13:39:00Z</time>
      </trkpt>
      <trkpt lat="47.54931" lon="6.46354">
        <ele>291.2</ele>
        <time>2025-09-13T13:39:01Z</time>
      </trkpt>
      <trkpt lat="47.54928" lon="6.46358">
        <ele>291.6</ele>
        <time>2025-09-13T13:39:02Z</time>
      </trkpt>
      <trkpt lat="47.54923" lon="6.46359">
        <ele>292</ele>
        <time>2025-09-13T13:39:03Z</time>
      </trkpt>
      <trkpt lat="47.5492" lon="6.46362">
        <ele>292.3</ele>
        <time>2025-09-13T13:39:04Z</time>
      </trkpt>
      <trkpt lat="47.54913" lon="6.46366">
        <ele>292.8</ele>
        <time>2025-09-13T13:39:05Z</time>
      </trkpt>
      <trkpt lat="47.54908" lon="6.4637">
        <ele>293.3</ele>
        <time>2025-09-13T13:39:06Z</time>
      </trkpt>
      <trkpt lat="47.54905" lon="6.46374">
        <ele>293.6</ele>
        <time>2025-09-13T13:39:07Z</time>
      </trkpt>
      <trkpt lat="47.54902" lon="6.46378">
        <ele>293.9</ele>
        <time>2025-09-13T13:39:08Z</time>
      </trkpt>
      <trkpt lat="47.549" lon="6.46383">
        <ele>293.8</ele>
        <time>2025-09-13T13:39:09Z</time>
      </trkpt>
      <trkpt lat="47.54903" lon="6.46389">
        <ele>293.7</ele>
        <time>2025-09-13T13:39:10Z</time>
      </trkpt>
      <trkpt lat="47.54907" lon="6.46395">
        <ele>293.6</ele>
        <time>2025-09-13T13:39:11Z</time>
      </trkpt>
      <trkpt lat="47.5491" lon="6.46401">
        <ele>293.5</ele>
        <time>2025-09-13T13:39:12Z</time>
      </trkpt>
      <trkpt lat="47.54912" lon="6.46407">
        <ele>293.4</ele>
        <time>2025-09-13T13:39:13Z</time>
      </trkpt>
      <trkpt lat="47.54915" lon="6.46414">
        <ele>293.3</ele>
        <time>2025-09-13T13:39:14Z</time>
      </trkpt>
      <trkpt lat="47.54918" lon="6.4642">
        <ele>293.1</ele>
        <time>2025-09-13T13:39:15Z</time>
      </trkpt>
      <trkpt lat="47.5492" lon="6.46427">
        <ele>293</ele>
        <time>2025-09-13T13:39:16Z</time>
      </trkpt>
      <trkpt lat="47.54922" lon="6.46434">
        <ele>292.9</ele>
        <time>2025-09-13T13:39:17Z</time>
      </trkpt>
      <trkpt lat="47.54924" lon="6.46441">
        <ele>292.8</ele>
        <time>2025-09-13T13:39:18Z</time>
      </trkpt>
      <trkpt lat="47.54927" lon="6.46449">
        <ele>292.7</ele>
        <time>2025-09-13T13:39:19Z</time>
      </trkpt>
      <trkpt lat="47.54929" lon="6.46456">
        <ele>292.5</ele>
        <time>2025-09-13T13:39:20Z</time>
      </trkpt>
      <trkpt lat="47.54931" lon="6.46464">
        <ele>292.4</ele>
        <time>2025-09-13T13:39:21Z</time>
      </trkpt>
      <trkpt lat="47.54933" lon="6.46472">
        <ele>292.3</ele>
        <time>2025-09-13T13:39:22Z</time>
      </trkpt>
      <trkpt lat="47.54935" lon="6.4648">
        <ele>292.2</ele>
        <time>2025-09-13T13:39:23Z</time>
      </trkpt>
      <trkpt lat="47.54938" lon="6.46487">
        <ele>292.1</ele>
        <time>2025-09-13T13:39:24Z</time>
      </trkpt>
      <trkpt lat="47.54939" lon="6.46495">
        <ele>292</ele>
        <time>2025-09-13T13:39:25Z</time>
      </trkpt>
      <trkpt lat="47.54941" lon="6.46504">
        <ele>292</ele>
        <time>2025-09-13T13:39:26Z</time>
      </trkpt>
      <trkpt lat="47.54943" lon="6.46513">
        <ele>291.9</ele>
        <time>2025-09-13T13:39:27Z</time>
      </trkpt>
      <trkpt lat="47.54945" lon="6.4652">
        <ele>291.9</ele>
        <time>2025-09-13T13:39:28Z</time>
      </trkpt>
      <trkpt lat="47.54947" lon="6.46528">
        <ele>291.9</ele>
        <time>2025-09-13T13:39:29Z</time>
      </trkpt>
      <trkpt lat="47.5495" lon="6.46536">
        <ele>291.8</ele>
        <time>2025-09-13T13:39:30Z</time>
      </trkpt>
      <trkpt lat="47.54952" lon="6.46546">
        <ele>291.7</ele>
        <time>2025-09-13T13:39:31Z</time>
      </trkpt>
      <trkpt lat="47.54955" lon="6.46555">
        <ele>291.7</ele>
        <time>2025-09-13T13:39:32Z</time>
      </trkpt>
      <trkpt lat="47.54957" lon="6.46565">
        <ele>291.6</ele>
        <time>2025-09-13T13:39:33Z</time>
      </trkpt>
      <trkpt lat="47.5496" lon="6.46574">
        <ele>291.6</ele>
        <time>2025-09-13T13:39:34Z</time>
      </trkpt>
      <trkpt lat="47.54962" lon="6.46583">
        <ele>291.6</ele>
        <time>2025-09-13T13:39:35Z</time>
      </trkpt>
      <trkpt lat="47.54964" lon="6.46588">
        <ele>291.6</ele>
        <time>2025-09-13T13:39:36Z</time>
      </trkpt>
      <trkpt lat="47.54967" lon="6.46598">
        <ele>291.5</ele>
        <time>2025-09-13T13:39:37Z</time>
      </trkpt>
      <trkpt lat="47.54969" lon="6.46607">
        <ele>291.5</ele>
        <time>2025-09-13T13:39:38Z</time>
      </trkpt>
      <trkpt lat="47.5497" lon="6.46615">
        <ele>291.4</ele>
        <time>2025-09-13T13:39:39Z</time>
      </trkpt>
      <trkpt lat="47.54973" lon="6.46626">
        <ele>291.4</ele>
        <time>2025-09-13T13:39:40Z</time>
      </trkpt>
      <trkpt lat="47.54976" lon="6.46636">
        <ele>291.3</ele>
        <time>2025-09-13T13:39:41Z</time>
      </trkpt>
      <trkpt lat="47.54978" lon="6.46645">
        <ele>291.3</ele>
        <time>2025-09-13T13:39:42Z</time>
      </trkpt>
      <trkpt lat="47.5498" lon="6.46654">
        <ele>291.2</ele>
        <time>2025-09-13T13:39:43Z</time>
      </trkpt>
      <trkpt lat="47.54982" lon="6.46663">
        <ele>291.1</ele>
        <time>2025-09-13T13:39:44Z</time>
      </trkpt>
      <trkpt lat="47.54983" lon="6.46672">
        <ele>291</ele>
        <time>2025-09-13T13:39:45Z</time>
      </trkpt>
      <trkpt lat="47.54985" lon="6.46681">
        <ele>290.9</ele>
        <time>2025-09-13T13:39:46Z</time>
      </trkpt>
      <trkpt lat="47.54986" lon="6.4669">
        <ele>290.8</ele>
        <time>2025-09-13T13:39:47Z</time>
      </trkpt>
      <trkpt lat="47.54987" lon="6.467">
        <ele>290.8</ele>
        <time>2025-09-13T13:39:48Z</time>
      </trkpt>
      <trkpt lat="47.54988" lon="6.46709">
        <ele>290.7</ele>
        <time>2025-09-13T13:39:49Z</time>
      </trkpt>
      <trkpt lat="47.54989" lon="6.46719">
        <ele>290.6</ele>
        <time>2025-09-13T13:39:50Z</time>
      </trkpt>
      <trkpt lat="47.5499" lon="6.46729">
        <ele>290.5</ele>
        <time>2025-09-13T13:39:51Z</time>
      </trkpt>
      <trkpt lat="47.54992" lon="6.46738">
        <ele>290.4</ele>
        <time>2025-09-13T13:39:52Z</time>
      </trkpt>
      <trkpt lat="47.54992" lon="6.46748">
        <ele>290.2</ele>
        <time>2025-09-13T13:39:53Z</time>
      </trkpt>
      <trkpt lat="47.54993" lon="6.46758">
        <ele>290</ele>
        <time>2025-09-13T13:39:54Z</time>
      </trkpt>
      <trkpt lat="47.54993" lon="6.46768">
        <ele>289.8</ele>
        <time>2025-09-13T13:39:55Z</time>
      </trkpt>
      <trkpt lat="47.54994" lon="6.4678">
        <ele>289.4</ele>
        <time>2025-09-13T13:39:56Z</time>
      </trkpt>
      <trkpt lat="47.54995" lon="6.4679">
        <ele>289.1</ele>
        <time>2025-09-13T13:39:57Z</time>
      </trkpt>
      <trkpt lat="47.54996" lon="6.46802">
        <ele>288.7</ele>
        <time>2025-09-13T13:39:58Z</time>
      </trkpt>
      <trkpt lat="47.54996" lon="6.46814">
        <ele>288.2</ele>
        <time>2025-09-13T13:39:59Z</time>
      </trkpt>
      <trkpt lat="47.54997" lon="6.46825">
        <ele>287.6</ele>
        <time>2025-09-13T13:40:00Z</time>
      </trkpt>
      <trkpt lat="47.54997" lon="6.46837">
        <ele>287</ele>
        <time>2025-09-13T13:40:01Z</time>
      </trkpt>
      <trkpt lat="47.54997" lon="6.46849">
        <ele>286.4</ele>
        <time>2025-09-13T13:40:02Z</time>
      </trkpt>
      <trkpt lat="47.54998" lon="6.46862">
        <ele>285.5</ele>
        <time>2025-09-13T13:40:03Z</time>
      </trkpt>
      <trkpt lat="47.54999" lon="6.46876">
        <ele>284.6</ele>
        <time>2025-09-13T13:40:04Z</time>
      </trkpt>
      <trkpt lat="47.54999" lon="6.46891">
        <ele>283.7</ele>
        <time>2025-09-13T13:40:05Z</time>
      </trkpt>
      <trkpt lat="47.55" lon="6.46906">
        <ele>282.7</ele>
        <time>2025-09-13T13:40:06Z</time>
      </trkpt>
      <trkpt lat="47.55" lon="6.46921">
        <ele>281.6</ele>
        <time>2025-09-13T13:40:07Z</time>
      </trkpt>
      <trkpt lat="47.55001" lon="6.46938">
        <ele>280.6</ele>
        <time>2025-09-13T13:40:08Z</time>
      </trkpt>
      <trkpt lat="47.55001" lon="6.46955">
        <ele>279.6</ele>
        <time>2025-09-13T13:40:09Z</time>
      </trkpt>
      <trkpt lat="47.55002" lon="6.46973">
        <ele>278.8</ele>
        <time>2025-09-13T13:40:10Z</time>
      </trkpt>
      <trkpt lat="47.55003" lon="6.46989">
        <ele>278.3</ele>
        <time>2025-09-13T13:40:11Z</time>
      </trkpt>
      <trkpt lat="47.55004" lon="6.47005">
        <ele>278</ele>
        <time>2025-09-13T13:40:12Z</time>
      </trkpt>
      <trkpt lat="47.55009" lon="6.47021">
        <ele>277.8</ele>
        <time>2025-09-13T13:40:13Z</time>
      </trkpt>
      <trkpt lat="47.55014" lon="6.47034">
        <ele>277.8</ele>
        <time>2025-09-13T13:40:14Z</time>
      </trkpt>
      <trkpt lat="47.55021" lon="6.47046">
        <ele>277.9</ele>
        <time>2025-09-13T13:40:15Z</time>
      </trkpt>
      <trkpt lat="47.55028" lon="6.47055">
        <ele>278</ele>
        <time>2025-09-13T13:40:16Z</time>
      </trkpt>
      <trkpt lat="47.55038" lon="6.47062">
        <ele>278.1</ele>
        <time>2025-09-13T13:40:17Z</time>
      </trkpt>
      <trkpt lat="47.55046" lon="6.47066">
        <ele>278.1</ele>
        <time>2025-09-13T13:40:18Z</time>
      </trkpt>
      <trkpt lat="47.55054" lon="6.47072">
        <ele>278.2</ele>
        <time>2025-09-13T13:40:19Z</time>
      </trkpt>
      <trkpt lat="47.55062" lon="6.47078">
        <ele>278.3</ele>
        <time>2025-09-13T13:40:20Z</time>
      </trkpt>
      <trkpt lat="47.55069" lon="6.47083">
        <ele>278.3</ele>
        <time>2025-09-13T13:40:21Z</time>
      </trkpt>
      <trkpt lat="47.55077" lon="6.47089">
        <ele>278.5</ele>
        <time>2025-09-13T13:40:22Z</time>
      </trkpt>
      <trkpt lat="47.55084" lon="6.47095">
        <ele>278.7</ele>
        <time>2025-09-13T13:40:23Z</time>
      </trkpt>
      <trkpt lat="47.55091" lon="6.471">
        <ele>278.9</ele>
        <time>2025-09-13T13:40:24Z</time>
      </trkpt>
      <trkpt lat="47.55098" lon="6.47105">
        <ele>279.2</ele>
        <time>2025-09-13T13:40:25Z</time>
      </trkpt>
      <trkpt lat="47.55105" lon="6.4711">
        <ele>279.5</ele>
        <time>2025-09-13T13:40:26Z</time>
      </trkpt>
      <trkpt lat="47.55111" lon="6.47115">
        <ele>279.9</ele>
        <time>2025-09-13T13:40:27Z</time>
      </trkpt>
      <trkpt lat="47.55118" lon="6.4712">
        <ele>280.2</ele>
        <time>2025-09-13T13:40:28Z</time>
      </trkpt>
      <trkpt lat="47.55125" lon="6.47124">
        <ele>280.4</ele>
        <time>2025-09-13T13:40:29Z</time>
      </trkpt>
      <trkpt lat="47.55131" lon="6.47128">
        <ele>280.6</ele>
        <time>2025-09-13T13:40:30Z</time>
      </trkpt>
      <trkpt lat="47.55137" lon="6.47132">
        <ele>280.8</ele>
        <time>2025-09-13T13:40:31Z</time>
      </trkpt>
      <trkpt lat="47.55142" lon="6.47137">
        <ele>280.8</ele>
        <time>2025-09-13T13:40:32Z</time>
      </trkpt>
      <trkpt lat="47.55148" lon="6.4714">
        <ele>280.9</ele>
        <time>2025-09-13T13:40:33Z</time>
      </trkpt>
      <trkpt lat="47.55154" lon="6.47143">
        <ele>280.8</ele>
        <time>2025-09-13T13:40:34Z</time>
      </trkpt>
      <trkpt lat="47.5516" lon="6.47147">
        <ele>280.8</ele>
        <time>2025-09-13T13:40:35Z</time>
      </trkpt>
      <trkpt lat="47.55165" lon="6.47151">
        <ele>280.7</ele>
        <time>2025-09-13T13:40:36Z</time>
      </trkpt>
      <trkpt lat="47.55171" lon="6.47156">
        <ele>280.6</ele>
        <time>2025-09-13T13:40:37Z</time>
      </trkpt>
      <trkpt lat="47.55177" lon="6.4716">
        <ele>280.4</ele>
        <time>2025-09-13T13:40:38Z</time>
      </trkpt>
      <trkpt lat="47.55184" lon="6.47166">
        <ele>280.3</ele>
        <time>2025-09-13T13:40:39Z</time>
      </trkpt>
      <trkpt lat="47.55191" lon="6.4717">
        <ele>280.1</ele>
        <time>2025-09-13T13:40:40Z</time>
      </trkpt>
      <trkpt lat="47.55198" lon="6.47174">
        <ele>279.9</ele>
        <time>2025-09-13T13:40:41Z</time>
      </trkpt>
      <trkpt lat="47.55204" lon="6.47179">
        <ele>279.8</ele>
        <time>2025-09-13T13:40:42Z</time>
      </trkpt>
      <trkpt lat="47.55211" lon="6.47184">
        <ele>279.7</ele>
        <time>2025-09-13T13:40:43Z</time>
      </trkpt>
      <trkpt lat="47.55217" lon="6.47189">
        <ele>279.6</ele>
        <time>2025-09-13T13:40:44Z</time>
      </trkpt>
      <trkpt lat="47.55224" lon="6.47193">
        <ele>279.4</ele>
        <time>2025-09-13T13:40:45Z</time>
      </trkpt>
      <trkpt lat="47.5523" lon="6.47198">
        <ele>279.2</ele>
        <time>2025-09-13T13:40:46Z</time>
      </trkpt>
      <trkpt lat="47.55237" lon="6.47203">
        <ele>279</ele>
        <time>2025-09-13T13:40:47Z</time>
      </trkpt>
      <trkpt lat="47.55243" lon="6.47209">
        <ele>278.8</ele>
        <time>2025-09-13T13:40:48Z</time>
      </trkpt>
      <trkpt lat="47.5525" lon="6.47215">
        <ele>278.5</ele>
        <time>2025-09-13T13:40:49Z</time>
      </trkpt>
      <trkpt lat="47.55256" lon="6.47222">
        <ele>278.2</ele>
        <time>2025-09-13T13:40:50Z</time>
      </trkpt>
      <trkpt lat="47.55263" lon="6.47229">
        <ele>278</ele>
        <time>2025-09-13T13:40:51Z</time>
      </trkpt>
      <trkpt lat="47.55268" lon="6.47237">
        <ele>277.9</ele>
        <time>2025-09-13T13:40:52Z</time>
      </trkpt>
      <trkpt lat="47.55274" lon="6.47245">
        <ele>277.9</ele>
        <time>2025-09-13T13:40:53Z</time>
      </trkpt>
      <trkpt lat="47.55279" lon="6.47254">
        <ele>277.8</ele>
        <time>2025-09-13T13:40:54Z</time>
      </trkpt>
      <trkpt lat="47.55284" lon="6.47262">
        <ele>277.8</ele>
        <time>2025-09-13T13:40:55Z</time>
      </trkpt>
      <trkpt lat="47.55288" lon="6.47271">
        <ele>277.8</ele>
        <time>2025-09-13T13:40:56Z</time>
      </trkpt>
      <trkpt lat="47.55292" lon="6.4728">
        <ele>277.8</ele>
        <time>2025-09-13T13:40:57Z</time>
      </trkpt>
      <trkpt lat="47.55296" lon="6.47288">
        <ele>277.9</ele>
        <time>2025-09-13T13:40:58Z</time>
      </trkpt>
      <trkpt lat="47.55301" lon="6.47297">
        <ele>277.9</ele>
        <time>2025-09-13T13:40:59Z</time>
      </trkpt>
      <trkpt lat="47.55305" lon="6.47306">
        <ele>278</ele>
        <time>2025-09-13T13:41:00Z</time>
      </trkpt>
      <trkpt lat="47.55308" lon="6.47314">
        <ele>278.1</ele>
        <time>2025-09-13T13:41:01Z</time>
      </trkpt>
      <trkpt lat="47.55312" lon="6.47324">
        <ele>278.3</ele>
        <time>2025-09-13T13:41:02Z</time>
      </trkpt>
      <trkpt lat="47.55315" lon="6.47333">
        <ele>278.5</ele>
        <time>2025-09-13T13:41:03Z</time>
      </trkpt>
      <trkpt lat="47.55318" lon="6.47343">
        <ele>278.7</ele>
        <time>2025-09-13T13:41:04Z</time>
      </trkpt>
      <trkpt lat="47.5532" lon="6.47352">
        <ele>278.9</ele>
        <time>2025-09-13T13:41:05Z</time>
      </trkpt>
      <trkpt lat="47.55322" lon="6.47362">
        <ele>279.1</ele>
        <time>2025-09-13T13:41:06Z</time>
      </trkpt>
      <trkpt lat="47.55323" lon="6.47372">
        <ele>279.2</ele>
        <time>2025-09-13T13:41:07Z</time>
      </trkpt>
      <trkpt lat="47.55325" lon="6.47381">
        <ele>279.3</ele>
        <time>2025-09-13T13:41:08Z</time>
      </trkpt>
      <trkpt lat="47.55326" lon="6.47391">
        <ele>279.3</ele>
        <time>2025-09-13T13:41:09Z</time>
      </trkpt>
      <trkpt lat="47.55327" lon="6.474">
        <ele>279.3</ele>
        <time>2025-09-13T13:41:10Z</time>
      </trkpt>
      <trkpt lat="47.55329" lon="6.47409">
        <ele>279.3</ele>
        <time>2025-09-13T13:41:11Z</time>
      </trkpt>
      <trkpt lat="47.55332" lon="6.47419">
        <ele>279.2</ele>
        <time>2025-09-13T13:41:12Z</time>
      </trkpt>
      <trkpt lat="47.55332" lon="6.47428">
        <ele>279.1</ele>
        <time>2025-09-13T13:41:13Z</time>
      </trkpt>
      <trkpt lat="47.55334" lon="6.47439">
        <ele>278.9</ele>
        <time>2025-09-13T13:41:14Z</time>
      </trkpt>
      <trkpt lat="47.55336" lon="6.47448">
        <ele>278.7</ele>
        <time>2025-09-13T13:41:15Z</time>
      </trkpt>
      <trkpt lat="47.55338" lon="6.47458">
        <ele>278.6</ele>
        <time>2025-09-13T13:41:16Z</time>
      </trkpt>
      <trkpt lat="47.55341" lon="6.47467">
        <ele>278.4</ele>
        <time>2025-09-13T13:41:17Z</time>
      </trkpt>
      <trkpt lat="47.55343" lon="6.47477">
        <ele>278.2</ele>
        <time>2025-09-13T13:41:18Z</time>
      </trkpt>
      <trkpt lat="47.55346" lon="6.47486">
        <ele>278</ele>
        <time>2025-09-13T13:41:19Z</time>
      </trkpt>
      <trkpt lat="47.5535" lon="6.47496">
        <ele>277.9</ele>
        <time>2025-09-13T13:41:20Z</time>
      </trkpt>
      <trkpt lat="47.55353" lon="6.47505">
        <ele>277.7</ele>
        <time>2025-09-13T13:41:21Z</time>
      </trkpt>
      <trkpt lat="47.55357" lon="6.47516">
        <ele>277.6</ele>
        <time>2025-09-13T13:41:22Z</time>
      </trkpt>
      <trkpt lat="47.55359" lon="6.47525">
        <ele>277.6</ele>
        <time>2025-09-13T13:41:23Z</time>
      </trkpt>
      <trkpt lat="47.55363" lon="6.47535">
        <ele>277.5</ele>
        <time>2025-09-13T13:41:24Z</time>
      </trkpt>
      <trkpt lat="47.55367" lon="6.47546">
        <ele>277.5</ele>
        <time>2025-09-13T13:41:25Z</time>
      </trkpt>
      <trkpt lat="47.55369" lon="6.47555">
        <ele>277.5</ele>
        <time>2025-09-13T13:41:26Z</time>
      </trkpt>
      <trkpt lat="47.55373" lon="6.47566">
        <ele>277.5</ele>
        <time>2025-09-13T13:41:27Z</time>
      </trkpt>
      <trkpt lat="47.55375" lon="6.47573">
        <ele>277.5</ele>
        <time>2025-09-13T13:41:28Z</time>
      </trkpt>
      <trkpt lat="47.55379" lon="6.47583">
        <ele>277.5</ele>
        <time>2025-09-13T13:41:29Z</time>
      </trkpt>
      <trkpt lat="47.55383" lon="6.47593">
        <ele>277.5</ele>
        <time>2025-09-13T13:41:30Z</time>
      </trkpt>
      <trkpt lat="47.55387" lon="6.47601">
        <ele>277.6</ele>
        <time>2025-09-13T13:41:31Z</time>
      </trkpt>
      <trkpt lat="47.5539" lon="6.47611">
        <ele>277.6</ele>
        <time>2025-09-13T13:41:32Z</time>
      </trkpt>
      <trkpt lat="47.55394" lon="6.4762">
        <ele>277.7</ele>
        <time>2025-09-13T13:41:33Z</time>
      </trkpt>
      <trkpt lat="47.55399" lon="6.47628">
        <ele>277.8</ele>
        <time>2025-09-13T13:41:34Z</time>
      </trkpt>
      <trkpt lat="47.55403" lon="6.47637">
        <ele>277.9</ele>
        <time>2025-09-13T13:41:35Z</time>
      </trkpt>
      <trkpt lat="47.55407" lon="6.47644">
        <ele>277.9</ele>
        <time>2025-09-13T13:41:36Z</time>
      </trkpt>
      <trkpt lat="47.55411" lon="6.47654">
        <ele>278</ele>
        <time>2025-09-13T13:41:37Z</time>
      </trkpt>
      <trkpt lat="47.55414" lon="6.47661">
        <ele>278.1</ele>
        <time>2025-09-13T13:41:38Z</time>
      </trkpt>
      <trkpt lat="47.55418" lon="6.47669">
        <ele>278.2</ele>
        <time>2025-09-13T13:41:39Z</time>
      </trkpt>
      <trkpt lat="47.55422" lon="6.47676">
        <ele>278.3</ele>
        <time>2025-09-13T13:41:40Z</time>
      </trkpt>
      <trkpt lat="47.55425" lon="6.47683">
        <ele>278.4</ele>
        <time>2025-09-13T13:41:41Z</time>
      </trkpt>
      <trkpt lat="47.5543" lon="6.47691">
        <ele>278.5</ele>
        <time>2025-09-13T13:41:42Z</time>
      </trkpt>
      <trkpt lat="47.55434" lon="6.47698">
        <ele>278.6</ele>
        <time>2025-09-13T13:41:43Z</time>
      </trkpt>
      <trkpt lat="47.55438" lon="6.47706">
        <ele>278.8</ele>
        <time>2025-09-13T13:41:44Z</time>
      </trkpt>
      <trkpt lat="47.55442" lon="6.47713">
        <ele>278.9</ele>
        <time>2025-09-13T13:41:45Z</time>
      </trkpt>
      <trkpt lat="47.55446" lon="6.47722">
        <ele>279</ele>
        <time>2025-09-13T13:41:46Z</time>
      </trkpt>
      <trkpt lat="47.5545" lon="6.47731">
        <ele>279.1</ele>
        <time>2025-09-13T13:41:47Z</time>
      </trkpt>
      <trkpt lat="47.55453" lon="6.47738">
        <ele>279.2</ele>
        <time>2025-09-13T13:41:48Z</time>
      </trkpt>
      <trkpt lat="47.55457" lon="6.47746">
        <ele>279.3</ele>
        <time>2025-09-13T13:41:49Z</time>
      </trkpt>
      <trkpt lat="47.55461" lon="6.47753">
        <ele>279.4</ele>
        <time>2025-09-13T13:41:50Z</time>
      </trkpt>
      <trkpt lat="47.55464" lon="6.47761">
        <ele>279.6</ele>
        <time>2025-09-13T13:41:51Z</time>
      </trkpt>
      <trkpt lat="47.55469" lon="6.47769">
        <ele>279.7</ele>
        <time>2025-09-13T13:41:52Z</time>
      </trkpt>
      <trkpt lat="47.55472" lon="6.47775">
        <ele>279.8</ele>
        <time>2025-09-13T13:41:53Z</time>
      </trkpt>
      <trkpt lat="47.55476" lon="6.47782">
        <ele>279.9</ele>
        <time>2025-09-13T13:41:54Z</time>
      </trkpt>
      <trkpt lat="47.5548" lon="6.4779">
        <ele>280</ele>
        <time>2025-09-13T13:41:55Z</time>
      </trkpt>
      <trkpt lat="47.55485" lon="6.47798">
        <ele>280.2</ele>
        <time>2025-09-13T13:41:56Z</time>
      </trkpt>
      <trkpt lat="47.55488" lon="6.47804">
        <ele>280.3</ele>
        <time>2025-09-13T13:41:57Z</time>
      </trkpt>
      <trkpt lat="47.55492" lon="6.47812">
        <ele>280.4</ele>
        <time>2025-09-13T13:41:58Z</time>
      </trkpt>
      <trkpt lat="47.55496" lon="6.47819">
        <ele>280.5</ele>
        <time>2025-09-13T13:41:59Z</time>
      </trkpt>
      <trkpt lat="47.555" lon="6.47826">
        <ele>280.5</ele>
        <time>2025-09-13T13:42:00Z</time>
      </trkpt>
      <trkpt lat="47.55504" lon="6.47833">
        <ele>280.6</ele>
        <time>2025-09-13T13:42:01Z</time>
      </trkpt>
      <trkpt lat="47.55509" lon="6.47841">
        <ele>280.7</ele>
        <time>2025-09-13T13:42:02Z</time>
      </trkpt>
      <trkpt lat="47.55513" lon="6.47847">
        <ele>280.7</ele>
        <time>2025-09-13T13:42:03Z</time>
      </trkpt>
      <trkpt lat="47.55518" lon="6.47854">
        <ele>280.7</ele>
        <time>2025-09-13T13:42:04Z</time>
      </trkpt>
      <trkpt lat="47.55523" lon="6.47861">
        <ele>280.6</ele>
        <time>2025-09-13T13:42:05Z</time>
      </trkpt>
      <trkpt lat="47.55527" lon="6.47868">
        <ele>280.5</ele>
        <time>2025-09-13T13:42:06Z</time>
      </trkpt>
      <trkpt lat="47.55532" lon="6.47876">
        <ele>280.3</ele>
        <time>2025-09-13T13:42:07Z</time>
      </trkpt>
      <trkpt lat="47.55537" lon="6.47882">
        <ele>280.2</ele>
        <time>2025-09-13T13:42:08Z</time>
      </trkpt>
      <trkpt lat="47.55541" lon="6.47889">
        <ele>280.1</ele>
        <time>2025-09-13T13:42:09Z</time>
      </trkpt>
      <trkpt lat="47.55547" lon="6.47895">
        <ele>280</ele>
        <time>2025-09-13T13:42:10Z</time>
      </trkpt>
      <trkpt lat="47.55552" lon="6.47902">
        <ele>279.8</ele>
        <time>2025-09-13T13:42:11Z</time>
      </trkpt>
      <trkpt lat="47.55558" lon="6.47908">
        <ele>279.7</ele>
        <time>2025-09-13T13:42:12Z</time>
      </trkpt>
      <trkpt lat="47.55563" lon="6.47915">
        <ele>279.5</ele>
        <time>2025-09-13T13:42:13Z</time>
      </trkpt>
      <trkpt lat="47.55569" lon="6.4792">
        <ele>279.4</ele>
        <time>2025-09-13T13:42:14Z</time>
      </trkpt>
      <trkpt lat="47.55575" lon="6.47926">
        <ele>279.3</ele>
        <time>2025-09-13T13:42:15Z</time>
      </trkpt>
      <trkpt lat="47.55582" lon="6.47931">
        <ele>279.1</ele>
        <time>2025-09-13T13:42:16Z</time>
      </trkpt>
      <trkpt lat="47.55588" lon="6.47936">
        <ele>278.9</ele>
        <time>2025-09-13T13:42:17Z</time>
      </trkpt>
      <trkpt lat="47.55594" lon="6.47943">
        <ele>278.8</ele>
        <time>2025-09-13T13:42:18Z</time>
      </trkpt>
      <trkpt lat="47.556" lon="6.4795">
        <ele>278.6</ele>
        <time>2025-09-13T13:42:19Z</time>
      </trkpt>
      <trkpt lat="47.55606" lon="6.47957">
        <ele>278.4</ele>
        <time>2025-09-13T13:42:20Z</time>
      </trkpt>
      <trkpt lat="47.55612" lon="6.47963">
        <ele>278.3</ele>
        <time>2025-09-13T13:42:21Z</time>
      </trkpt>
      <trkpt lat="47.55618" lon="6.47971">
        <ele>278.1</ele>
        <time>2025-09-13T13:42:22Z</time>
      </trkpt>
      <trkpt lat="47.55624" lon="6.47978">
        <ele>278</ele>
        <time>2025-09-13T13:42:23Z</time>
      </trkpt>
      <trkpt lat="47.55629" lon="6.47987">
        <ele>277.8</ele>
        <time>2025-09-13T13:42:24Z</time>
      </trkpt>
      <trkpt lat="47.55635" lon="6.47994">
        <ele>277.7</ele>
        <time>2025-09-13T13:42:25Z</time>
      </trkpt>
      <trkpt lat="47.55637" lon="6.48">
        <ele>277.7</ele>
        <time>2025-09-13T13:42:26Z</time>
      </trkpt>
      <trkpt lat="47.55635" lon="6.48006">
        <ele>277.4</ele>
        <time>2025-09-13T13:42:27Z</time>
      </trkpt>
      <trkpt lat="47.5563" lon="6.48011">
        <ele>277</ele>
        <time>2025-09-13T13:42:28Z</time>
      </trkpt>
      <trkpt lat="47.55624" lon="6.48012">
        <ele>276.6</ele>
        <time>2025-09-13T13:42:29Z</time>
      </trkpt>
      <trkpt lat="47.55617" lon="6.48012">
        <ele>276.2</ele>
        <time>2025-09-13T13:42:30Z</time>
      </trkpt>
      <trkpt lat="47.55611" lon="6.48012">
        <ele>275.8</ele>
        <time>2025-09-13T13:42:31Z</time>
      </trkpt>
      <trkpt lat="47.55605" lon="6.48014">
        <ele>275.6</ele>
        <time>2025-09-13T13:42:32Z</time>
      </trkpt>
      <trkpt lat="47.55598" lon="6.48015">
        <ele>275.4</ele>
        <time>2025-09-13T13:42:33Z</time>
      </trkpt>
      <trkpt lat="47.55591" lon="6.48013">
        <ele>275.4</ele>
        <time>2025-09-13T13:42:34Z</time>
      </trkpt>
      <trkpt lat="47.55585" lon="6.4801">
        <ele>275.3</ele>
        <time>2025-09-13T13:42:35Z</time>
      </trkpt>
      <trkpt lat="47.5558" lon="6.48008">
        <ele>275.2</ele>
        <time>2025-09-13T13:42:36Z</time>
      </trkpt>
      <trkpt lat="47.55573" lon="6.48005">
        <ele>275.1</ele>
        <time>2025-09-13T13:42:37Z</time>
      </trkpt>
      <trkpt lat="47.55568" lon="6.48002">
        <ele>275.1</ele>
        <time>2025-09-13T13:42:38Z</time>
      </trkpt>
      <trkpt lat="47.55563" lon="6.47999">
        <ele>275</ele>
        <time>2025-09-13T13:42:39Z</time>
      </trkpt>
      <trkpt lat="47.55557" lon="6.47996">
        <ele>275</ele>
        <time>2025-09-13T13:42:40Z</time>
      </trkpt>
      <trkpt lat="47.55551" lon="6.47994">
        <ele>275</ele>
        <time>2025-09-13T13:42:41Z</time>
      </trkpt>
      <trkpt lat="47.55544" lon="6.47992">
        <ele>275.1</ele>
        <time>2025-09-13T13:42:42Z</time>
      </trkpt>
      <trkpt lat="47.55539" lon="6.47991">
        <ele>275.1</ele>
        <time>2025-09-13T13:42:43Z</time>
      </trkpt>
      <trkpt lat="47.55534" lon="6.47989">
        <ele>275.1</ele>
        <time>2025-09-13T13:42:44Z</time>
      </trkpt>
      <trkpt lat="47.55527" lon="6.47988">
        <ele>275.2</ele>
        <time>2025-09-13T13:42:45Z</time>
      </trkpt>
      <trkpt lat="47.55522" lon="6.47987">
        <ele>275.2</ele>
        <time>2025-09-13T13:42:46Z</time>
      </trkpt>
      <trkpt lat="47.55515" lon="6.47988">
        <ele>275.3</ele>
        <time>2025-09-13T13:42:47Z</time>
      </trkpt>
      <trkpt lat="47.55509" lon="6.47989">
        <ele>275.4</ele>
        <time>2025-09-13T13:42:48Z</time>
      </trkpt>
      <trkpt lat="47.55503" lon="6.47991">
        <ele>275.4</ele>
        <time>2025-09-13T13:42:49Z</time>
      </trkpt>
      <trkpt lat="47.55498" lon="6.47993">
        <ele>275.5</ele>
        <time>2025-09-13T13:42:50Z</time>
      </trkpt>
      <trkpt lat="47.55493" lon="6.47997">
        <ele>275.5</ele>
        <time>2025-09-13T13:42:51Z</time>
      </trkpt>
      <trkpt lat="47.55488" lon="6.48001">
        <ele>275.6</ele>
        <time>2025-09-13T13:42:52Z</time>
      </trkpt>
      <trkpt lat="47.55484" lon="6.48006">
        <ele>275.7</ele>
        <time>2025-09-13T13:42:53Z</time>
      </trkpt>
      <trkpt lat="47.55478" lon="6.48012">
        <ele>275.8</ele>
        <time>2025-09-13T13:42:54Z</time>
      </trkpt>
      <trkpt lat="47.55475" lon="6.48018">
        <ele>275.9</ele>
        <time>2025-09-13T13:42:55Z</time>
      </trkpt>
      <trkpt lat="47.55472" lon="6.48026">
        <ele>276</ele>
        <time>2025-09-13T13:42:56Z</time>
      </trkpt>
      <trkpt lat="47.55468" lon="6.48033">
        <ele>276.1</ele>
        <time>2025-09-13T13:42:57Z</time>
      </trkpt>
      <trkpt lat="47.55465" lon="6.48039">
        <ele>276.2</ele>
        <time>2025-09-13T13:42:58Z</time>
      </trkpt>
      <trkpt lat="47.55462" lon="6.48045">
        <ele>276.3</ele>
        <time>2025-09-13T13:42:59Z</time>
      </trkpt>
      <trkpt lat="47.55459" lon="6.48052">
        <ele>276.4</ele>
        <time>2025-09-13T13:43:00Z</time>
      </trkpt>
      <trkpt lat="47.55455" lon="6.48059">
        <ele>276.6</ele>
        <time>2025-09-13T13:43:01Z</time>
      </trkpt>
      <trkpt lat="47.55452" lon="6.48066">
        <ele>276.7</ele>
        <time>2025-09-13T13:43:02Z</time>
      </trkpt>
      <trkpt lat="47.55449" lon="6.48073">
        <ele>276.8</ele>
        <time>2025-09-13T13:43:03Z</time>
      </trkpt>
      <trkpt lat="47.55445" lon="6.48079">
        <ele>276.9</ele>
        <time>2025-09-13T13:43:04Z</time>
      </trkpt>
      <trkpt lat="47.55441" lon="6.48085">
        <ele>277</ele>
        <time>2025-09-13T13:43:05Z</time>
      </trkpt>
      <trkpt lat="47.55437" lon="6.4809">
        <ele>277.1</ele>
        <time>2025-09-13T13:43:06Z</time>
      </trkpt>
      <trkpt lat="47.55432" lon="6.48096">
        <ele>277.3</ele>
        <time>2025-09-13T13:43:07Z</time>
      </trkpt>
      <trkpt lat="47.55428" lon="6.48102">
        <ele>277.4</ele>
        <time>2025-09-13T13:43:08Z</time>
      </trkpt>
      <trkpt lat="47.55423" lon="6.48107">
        <ele>277.6</ele>
        <time>2025-09-13T13:43:09Z</time>
      </trkpt>
      <trkpt lat="47.55419" lon="6.48112">
        <ele>277.8</ele>
        <time>2025-09-13T13:43:10Z</time>
      </trkpt>
      <trkpt lat="47.55415" lon="6.48117">
        <ele>278.1</ele>
        <time>2025-09-13T13:43:11Z</time>
      </trkpt>
      <trkpt lat="47.55411" lon="6.48123">
        <ele>278.3</ele>
        <time>2025-09-13T13:43:12Z</time>
      </trkpt>
      <trkpt lat="47.55407" lon="6.48129">
        <ele>278.5</ele>
        <time>2025-09-13T13:43:13Z</time>
      </trkpt>
      <trkpt lat="47.55402" lon="6.48134">
        <ele>278.7</ele>
        <time>2025-09-13T13:43:14Z</time>
      </trkpt>
      <trkpt lat="47.55398" lon="6.48139">
        <ele>278.9</ele>
        <time>2025-09-13T13:43:15Z</time>
      </trkpt>
      <trkpt lat="47.55394" lon="6.48143">
        <ele>279.1</ele>
        <time>2025-09-13T13:43:16Z</time>
      </trkpt>
      <trkpt lat="47.5539" lon="6.48146">
        <ele>279.2</ele>
        <time>2025-09-13T13:43:17Z</time>
      </trkpt>
      <trkpt lat="47.55385" lon="6.48151">
        <ele>279.3</ele>
        <time>2025-09-13T13:43:18Z</time>
      </trkpt>
      <trkpt lat="47.5538" lon="6.48155">
        <ele>279.5</ele>
        <time>2025-09-13T13:43:19Z</time>
      </trkpt>
      <trkpt lat="47.55376" lon="6.48158">
        <ele>279.6</ele>
        <time>2025-09-13T13:43:20Z</time>
      </trkpt>
      <trkpt lat="47.5537" lon="6.48159">
        <ele>279.7</ele>
        <time>2025-09-13T13:43:21Z</time>
      </trkpt>
      <trkpt lat="47.55365" lon="6.48161">
        <ele>279.8</ele>
        <time>2025-09-13T13:43:22Z</time>
      </trkpt>
      <trkpt lat="47.55359" lon="6.48162">
        <ele>279.9</ele>
        <time>2025-09-13T13:43:23Z</time>
      </trkpt>
      <trkpt lat="47.55354" lon="6.48163">
        <ele>280</ele>
        <time>2025-09-13T13:43:24Z</time>
      </trkpt>
      <trkpt lat="47.5535" lon="6.48164">
        <ele>280.1</ele>
        <time>2025-09-13T13:43:25Z</time>
      </trkpt>
      <trkpt lat="47.55345" lon="6.48165">
        <ele>280.2</ele>
        <time>2025-09-13T13:43:26Z</time>
      </trkpt>
      <trkpt lat="47.5534" lon="6.48166">
        <ele>280.3</ele>
        <time>2025-09-13T13:43:27Z</time>
      </trkpt>
      <trkpt lat="47.55335" lon="6.48166">
        <ele>280.4</ele>
        <time>2025-09-13T13:43:28Z</time>
      </trkpt>
      <trkpt lat="47.5533" lon="6.48167">
        <ele>280.5</ele>
        <time>2025-09-13T13:43:29Z</time>
      </trkpt>
      <trkpt lat="47.55325" lon="6.48168">
        <ele>280.5</ele>
        <time>2025-09-13T13:43:30Z</time>
      </trkpt>
      <trkpt lat="47.5532" lon="6.48169">
        <ele>280.6</ele>
        <time>2025-09-13T13:43:31Z</time>
      </trkpt>
      <trkpt lat="47.55315" lon="6.48171">
        <ele>280.6</ele>
        <time>2025-09-13T13:43:32Z</time>
      </trkpt>
      <trkpt lat="47.55309" lon="6.48171">
        <ele>280.6</ele>
        <time>2025-09-13T13:43:33Z</time>
      </trkpt>
      <trkpt lat="47.55304" lon="6.48172">
        <ele>280.6</ele>
        <time>2025-09-13T13:43:34Z</time>
      </trkpt>
      <trkpt lat="47.55299" lon="6.48174">
        <ele>280.6</ele>
        <time>2025-09-13T13:43:35Z</time>
      </trkpt>
      <trkpt lat="47.55293" lon="6.48175">
        <ele>280.7</ele>
        <time>2025-09-13T13:43:36Z</time>
      </trkpt>
      <trkpt lat="47.55288" lon="6.48176">
        <ele>280.8</ele>
        <time>2025-09-13T13:43:37Z</time>
      </trkpt>
      <trkpt lat="47.55282" lon="6.48178">
        <ele>280.9</ele>
        <time>2025-09-13T13:43:38Z</time>
      </trkpt>
      <trkpt lat="47.55277" lon="6.4818">
        <ele>281.1</ele>
        <time>2025-09-13T13:43:39Z</time>
      </trkpt>
      <trkpt lat="47.55271" lon="6.48181">
        <ele>281.4</ele>
        <time>2025-09-13T13:43:40Z</time>
      </trkpt>
      <trkpt lat="47.55265" lon="6.48182">
        <ele>281.7</ele>
        <time>2025-09-13T13:43:41Z</time>
      </trkpt>
      <trkpt lat="47.5526" lon="6.48183">
        <ele>282</ele>
        <time>2025-09-13T13:43:42Z</time>
      </trkpt>
      <trkpt lat="47.55254" lon="6.48184">
        <ele>282.4</ele>
        <time>2025-09-13T13:43:43Z</time>
      </trkpt>
      <trkpt lat="47.55249" lon="6.48185">
        <ele>282.7</ele>
        <time>2025-09-13T13:43:44Z</time>
      </trkpt>
      <trkpt lat="47.55244" lon="6.48187">
        <ele>283.1</ele>
        <time>2025-09-13T13:43:45Z</time>
      </trkpt>
      <trkpt lat="47.55239" lon="6.48189">
        <ele>283.3</ele>
        <time>2025-09-13T13:43:46Z</time>
      </trkpt>
      <trkpt lat="47.55234" lon="6.48192">
        <ele>283.6</ele>
        <time>2025-09-13T13:43:47Z</time>
      </trkpt>
      <trkpt lat="47.55229" lon="6.48194">
        <ele>283.9</ele>
        <time>2025-09-13T13:43:48Z</time>
      </trkpt>
      <trkpt lat="47.55224" lon="6.48196">
        <ele>284</ele>
        <time>2025-09-13T13:43:49Z</time>
      </trkpt>
      <trkpt lat="47.5522" lon="6.48199">
        <ele>284.1</ele>
        <time>2025-09-13T13:43:50Z</time>
      </trkpt>
      <trkpt lat="47.55215" lon="6.48202">
        <ele>284.1</ele>
        <time>2025-09-13T13:43:51Z</time>
      </trkpt>
      <trkpt lat="47.5521" lon="6.48205">
        <ele>284.1</ele>
        <time>2025-09-13T13:43:52Z</time>
      </trkpt>
      <trkpt lat="47.55204" lon="6.48207">
        <ele>284</ele>
        <time>2025-09-13T13:43:53Z</time>
      </trkpt>
      <trkpt lat="47.55199" lon="6.4821">
        <ele>283.8</ele>
        <time>2025-09-13T13:43:54Z</time>
      </trkpt>
      <trkpt lat="47.55194" lon="6.48212">
        <ele>283.6</ele>
        <time>2025-09-13T13:43:55Z</time>
      </trkpt>
      <trkpt lat="47.55188" lon="6.48215">
        <ele>283.4</ele>
        <time>2025-09-13T13:43:56Z</time>
      </trkpt>
      <trkpt lat="47.55182" lon="6.48216">
        <ele>283.3</ele>
        <time>2025-09-13T13:43:57Z</time>
      </trkpt>
      <trkpt lat="47.55177" lon="6.48218">
        <ele>283.1</ele>
        <time>2025-09-13T13:43:58Z</time>
      </trkpt>
      <trkpt lat="47.55171" lon="6.48218">
        <ele>282.9</ele>
        <time>2025-09-13T13:43:59Z</time>
      </trkpt>
      <trkpt lat="47.55165" lon="6.4822">
        <ele>282.7</ele>
        <time>2025-09-13T13:44:00Z</time>
      </trkpt>
      <trkpt lat="47.55158" lon="6.4822">
        <ele>282.4</ele>
        <time>2025-09-13T13:44:01Z</time>
      </trkpt>
      <trkpt lat="47.55153" lon="6.4822">
        <ele>282.2</ele>
        <time>2025-09-13T13:44:02Z</time>
      </trkpt>
      <trkpt lat="47.55147" lon="6.48221">
        <ele>281.9</ele>
        <time>2025-09-13T13:44:03Z</time>
      </trkpt>
      <trkpt lat="47.55141" lon="6.48221">
        <ele>281.7</ele>
        <time>2025-09-13T13:44:04Z</time>
      </trkpt>
      <trkpt lat="47.55135" lon="6.48222">
        <ele>281.4</ele>
        <time>2025-09-13T13:44:05Z</time>
      </trkpt>
      <trkpt lat="47.55128" lon="6.48223">
        <ele>281.1</ele>
        <time>2025-09-13T13:44:06Z</time>
      </trkpt>
      <trkpt lat="47.55122" lon="6.48224">
        <ele>280.9</ele>
        <time>2025-09-13T13:44:07Z</time>
      </trkpt>
      <trkpt lat="47.55115" lon="6.48225">
        <ele>280.7</ele>
        <time>2025-09-13T13:44:08Z</time>
      </trkpt>
      <trkpt lat="47.55108" lon="6.48225">
        <ele>280.4</ele>
        <time>2025-09-13T13:44:09Z</time>
      </trkpt>
      <trkpt lat="47.55101" lon="6.48226">
        <ele>280.3</ele>
        <time>2025-09-13T13:44:10Z</time>
      </trkpt>
      <trkpt lat="47.55091" lon="6.48226">
        <ele>280</ele>
        <time>2025-09-13T13:44:11Z</time>
      </trkpt>
      <trkpt lat="47.55085" lon="6.48227">
        <ele>280</ele>
        <time>2025-09-13T13:44:12Z</time>
      </trkpt>
      <trkpt lat="47.55077" lon="6.48228">
        <ele>279.9</ele>
        <time>2025-09-13T13:44:13Z</time>
      </trkpt>
      <trkpt lat="47.5507" lon="6.48228">
        <ele>279.8</ele>
        <time>2025-09-13T13:44:14Z</time>
      </trkpt>
      <trkpt lat="47.55063" lon="6.4823">
        <ele>279.7</ele>
        <time>2025-09-13T13:44:15Z</time>
      </trkpt>
      <trkpt lat="47.55056" lon="6.48234">
        <ele>279.7</ele>
        <time>2025-09-13T13:44:16Z</time>
      </trkpt>
      <trkpt lat="47.55052" lon="6.48238">
        <ele>279.6</ele>
        <time>2025-09-13T13:44:17Z</time>
      </trkpt>
      <trkpt lat="47.55045" lon="6.48243">
        <ele>279.5</ele>
        <time>2025-09-13T13:44:18Z</time>
      </trkpt>
      <trkpt lat="47.55038" lon="6.48247">
        <ele>279.4</ele>
        <time>2025-09-13T13:44:19Z</time>
      </trkpt>
      <trkpt lat="47.55032" lon="6.4825">
        <ele>279.3</ele>
        <time>2025-09-13T13:44:20Z</time>
      </trkpt>
      <trkpt lat="47.55019" lon="6.4826">
        <ele>279</ele>
        <time>2025-09-13T13:44:21Z</time>
      </trkpt>
      <trkpt lat="47.55013" lon="6.48266">
        <ele>278.8</ele>
        <time>2025-09-13T13:44:22Z</time>
      </trkpt>
      <trkpt lat="47.55007" lon="6.48269">
        <ele>278.7</ele>
        <time>2025-09-13T13:44:23Z</time>
      </trkpt>
      <trkpt lat="47.55" lon="6.48272">
        <ele>278.5</ele>
        <time>2025-09-13T13:44:24Z</time>
      </trkpt>
      <trkpt lat="47.54991" lon="6.48274">
        <ele>278.4</ele>
        <time>2025-09-13T13:44:25Z</time>
      </trkpt>
      <trkpt lat="47.54984" lon="6.48277">
        <ele>278.4</ele>
        <time>2025-09-13T13:44:26Z</time>
      </trkpt>
      <trkpt lat="47.54977" lon="6.48278">
        <ele>278.4</ele>
        <time>2025-09-13T13:44:27Z</time>
      </trkpt>
      <trkpt lat="47.54969" lon="6.4828">
        <ele>278.4</ele>
        <time>2025-09-13T13:44:28Z</time>
      </trkpt>
      <trkpt lat="47.54964" lon="6.48282">
        <ele>278.4</ele>
        <time>2025-09-13T13:44:29Z</time>
      </trkpt>
      <trkpt lat="47.54958" lon="6.48285">
        <ele>278.4</ele>
        <time>2025-09-13T13:44:30Z</time>
      </trkpt>
      <trkpt lat="47.5495" lon="6.48286">
        <ele>278.4</ele>
        <time>2025-09-13T13:44:31Z</time>
      </trkpt>
      <trkpt lat="47.54945" lon="6.48288">
        <ele>278.4</ele>
        <time>2025-09-13T13:44:32Z</time>
      </trkpt>
      <trkpt lat="47.54938" lon="6.48289">
        <ele>278.5</ele>
        <time>2025-09-13T13:44:33Z</time>
      </trkpt>
      <trkpt lat="47.54932" lon="6.48291">
        <ele>278.5</ele>
        <time>2025-09-13T13:44:34Z</time>
      </trkpt>
      <trkpt lat="47.54926" lon="6.48294">
        <ele>278.5</ele>
        <time>2025-09-13T13:44:35Z</time>
      </trkpt>
      <trkpt lat="47.54921" lon="6.48295">
        <ele>278.5</ele>
        <time>2025-09-13T13:44:36Z</time>
      </trkpt>
      <trkpt lat="47.54914" lon="6.48296">
        <ele>278.5</ele>
        <time>2025-09-13T13:44:37Z</time>
      </trkpt>
      <trkpt lat="47.54908" lon="6.48298">
        <ele>278.5</ele>
        <time>2025-09-13T13:44:38Z</time>
      </trkpt>
      <trkpt lat="47.54903" lon="6.483">
        <ele>278.5</ele>
        <time>2025-09-13T13:44:39Z</time>
      </trkpt>
      <trkpt lat="47.54896" lon="6.48302">
        <ele>278.5</ele>
        <time>2025-09-13T13:44:40Z</time>
      </trkpt>
      <trkpt lat="47.5489" lon="6.48304">
        <ele>278.5</ele>
        <time>2025-09-13T13:44:41Z</time>
      </trkpt>
      <trkpt lat="47.54884" lon="6.48305">
        <ele>278.5</ele>
        <time>2025-09-13T13:44:42Z</time>
      </trkpt>
      <trkpt lat="47.54878" lon="6.48307">
        <ele>278.4</ele>
        <time>2025-09-13T13:44:43Z</time>
      </trkpt>
      <trkpt lat="47.54871" lon="6.4831">
        <ele>278.4</ele>
        <time>2025-09-13T13:44:44Z</time>
      </trkpt>
      <trkpt lat="47.54865" lon="6.48312">
        <ele>278.3</ele>
        <time>2025-09-13T13:44:45Z</time>
      </trkpt>
      <trkpt lat="47.54859" lon="6.48314">
        <ele>278.2</ele>
        <time>2025-09-13T13:44:46Z</time>
      </trkpt>
      <trkpt lat="47.54853" lon="6.48317">
        <ele>278.2</ele>
        <time>2025-09-13T13:44:47Z</time>
      </trkpt>
      <trkpt lat="47.54847" lon="6.4832">
        <ele>278.1</ele>
        <time>2025-09-13T13:44:48Z</time>
      </trkpt>
      <trkpt lat="47.54841" lon="6.48325">
        <ele>278</ele>
        <time>2025-09-13T13:44:49Z</time>
      </trkpt>
      <trkpt lat="47.54835" lon="6.4833">
        <ele>278</ele>
        <time>2025-09-13T13:44:50Z</time>
      </trkpt>
      <trkpt lat="47.5483" lon="6.48336">
        <ele>277.9</ele>
        <time>2025-09-13T13:44:51Z</time>
      </trkpt>
      <trkpt lat="47.54825" lon="6.48342">
        <ele>277.8</ele>
        <time>2025-09-13T13:44:52Z</time>
      </trkpt>
      <trkpt lat="47.5482" lon="6.48348">
        <ele>277.8</ele>
        <time>2025-09-13T13:44:53Z</time>
      </trkpt>
      <trkpt lat="47.54815" lon="6.48354">
        <ele>277.8</ele>
        <time>2025-09-13T13:44:54Z</time>
      </trkpt>
      <trkpt lat="47.5481" lon="6.48359">
        <ele>277.7</ele>
        <time>2025-09-13T13:44:55Z</time>
      </trkpt>
      <trkpt lat="47.54804" lon="6.48364">
        <ele>277.7</ele>
        <time>2025-09-13T13:44:56Z</time>
      </trkpt>
      <trkpt lat="47.54798" lon="6.48368">
        <ele>277.7</ele>
        <time>2025-09-13T13:44:57Z</time>
      </trkpt>
      <trkpt lat="47.54792" lon="6.48372">
        <ele>277.8</ele>
        <time>2025-09-13T13:44:58Z</time>
      </trkpt>
      <trkpt lat="47.54786" lon="6.48375">
        <ele>277.8</ele>
        <time>2025-09-13T13:44:59Z</time>
      </trkpt>
      <trkpt lat="47.5478" lon="6.48377">
        <ele>277.8</ele>
        <time>2025-09-13T13:45:00Z</time>
      </trkpt>
      <trkpt lat="47.54773" lon="6.4838">
        <ele>277.9</ele>
        <time>2025-09-13T13:45:01Z</time>
      </trkpt>
      <trkpt lat="47.54767" lon="6.48381">
        <ele>278</ele>
        <time>2025-09-13T13:45:02Z</time>
      </trkpt>
      <trkpt lat="47.54761" lon="6.48383">
        <ele>278.1</ele>
        <time>2025-09-13T13:45:03Z</time>
      </trkpt>
      <trkpt lat="47.54754" lon="6.48384">
        <ele>278.3</ele>
        <time>2025-09-13T13:45:04Z</time>
      </trkpt>
      <trkpt lat="47.54748" lon="6.48386">
        <ele>278.6</ele>
        <time>2025-09-13T13:45:05Z</time>
      </trkpt>
      <trkpt lat="47.54742" lon="6.48388">
        <ele>278.9</ele>
        <time>2025-09-13T13:45:06Z</time>
      </trkpt>
      <trkpt lat="47.54736" lon="6.4839">
        <ele>279.2</ele>
        <time>2025-09-13T13:45:07Z</time>
      </trkpt>
      <trkpt lat="47.54731" lon="6.48391">
        <ele>279.5</ele>
        <time>2025-09-13T13:45:08Z</time>
      </trkpt>
      <trkpt lat="47.54726" lon="6.48393">
        <ele>279.9</ele>
        <time>2025-09-13T13:45:09Z</time>
      </trkpt>
      <trkpt lat="47.5472" lon="6.48395">
        <ele>280.3</ele>
        <time>2025-09-13T13:45:10Z</time>
      </trkpt>
      <trkpt lat="47.54715" lon="6.48396">
        <ele>280.7</ele>
        <time>2025-09-13T13:45:11Z</time>
      </trkpt>
      <trkpt lat="47.5471" lon="6.48398">
        <ele>281</ele>
        <time>2025-09-13T13:45:12Z</time>
      </trkpt>
      <trkpt lat="47.54704" lon="6.48399">
        <ele>281.4</ele>
        <time>2025-09-13T13:45:13Z</time>
      </trkpt>
      <trkpt lat="47.54699" lon="6.484">
        <ele>281.8</ele>
        <time>2025-09-13T13:45:14Z</time>
      </trkpt>
      <trkpt lat="47.54694" lon="6.48402">
        <ele>282.2</ele>
        <time>2025-09-13T13:45:15Z</time>
      </trkpt>
      <trkpt lat="47.54689" lon="6.48403">
        <ele>282.5</ele>
        <time>2025-09-13T13:45:16Z</time>
      </trkpt>
      <trkpt lat="47.54683" lon="6.48405">
        <ele>282.9</ele>
        <time>2025-09-13T13:45:17Z</time>
      </trkpt>
      <trkpt lat="47.54678" lon="6.48406">
        <ele>283.3</ele>
        <time>2025-09-13T13:45:18Z</time>
      </trkpt>
      <trkpt lat="47.54673" lon="6.48408">
        <ele>283.6</ele>
        <time>2025-09-13T13:45:19Z</time>
      </trkpt>
      <trkpt lat="47.54673" lon="6.48408">
        <ele>283.6</ele>
        <time>2025-09-13T13:45:20Z</time>
      </trkpt>
      <trkpt lat="47.5467" lon="6.48409">
        <ele>283.8</ele>
        <time>2025-09-13T13:45:21Z</time>
      </trkpt>
      <trkpt lat="47.54666" lon="6.48411">
        <ele>284</ele>
        <time>2025-09-13T13:45:22Z</time>
      </trkpt>
      <trkpt lat="47.54665" lon="6.48411">
        <ele>284.1</ele>
        <time>2025-09-13T13:45:23Z</time>
      </trkpt>
      <trkpt lat="47.54662" lon="6.48413">
        <ele>284.3</ele>
        <time>2025-09-13T13:45:24Z</time>
      </trkpt>
      <trkpt lat="47.54656" lon="6.48415">
        <ele>284.7</ele>
        <time>2025-09-13T13:45:25Z</time>
      </trkpt>
      <trkpt lat="47.54652" lon="6.48417">
        <ele>284.9</ele>
        <time>2025-09-13T13:45:26Z</time>
      </trkpt>
      <trkpt lat="47.54644" lon="6.4842">
        <ele>285.4</ele>
        <time>2025-09-13T13:45:27Z</time>
      </trkpt>
      <trkpt lat="47.54636" lon="6.48421">
        <ele>285.9</ele>
        <time>2025-09-13T13:45:28Z</time>
      </trkpt>
      <trkpt lat="47.5463" lon="6.48423">
        <ele>286.3</ele>
        <time>2025-09-13T13:45:29Z</time>
      </trkpt>
      <trkpt lat="47.54623" lon="6.48424">
        <ele>286.7</ele>
        <time>2025-09-13T13:45:30Z</time>
      </trkpt>
      <trkpt lat="47.54616" lon="6.48426">
        <ele>287.2</ele>
        <time>2025-09-13T13:45:31Z</time>
      </trkpt>
      <trkpt lat="47.5461" lon="6.48428">
        <ele>287.6</ele>
        <time>2025-09-13T13:45:32Z</time>
      </trkpt>
      <trkpt lat="47.54603" lon="6.48429">
        <ele>288</ele>
        <time>2025-09-13T13:45:33Z</time>
      </trkpt>
      <trkpt lat="47.54597" lon="6.48431">
        <ele>288.4</ele>
        <time>2025-09-13T13:45:34Z</time>
      </trkpt>
      <trkpt lat="47.54591" lon="6.48434">
        <ele>288.7</ele>
        <time>2025-09-13T13:45:35Z</time>
      </trkpt>
      <trkpt lat="47.54585" lon="6.48434">
        <ele>288.9</ele>
        <time>2025-09-13T13:45:36Z</time>
      </trkpt>
      <trkpt lat="47.54579" lon="6.48434">
        <ele>289.1</ele>
        <time>2025-09-13T13:45:37Z</time>
      </trkpt>
      <trkpt lat="47.54573" lon="6.48435">
        <ele>289.1</ele>
        <time>2025-09-13T13:45:38Z</time>
      </trkpt>
      <trkpt lat="47.54568" lon="6.48437">
        <ele>289.1</ele>
        <time>2025-09-13T13:45:39Z</time>
      </trkpt>
      <trkpt lat="47.54562" lon="6.48438">
        <ele>289.2</ele>
        <time>2025-09-13T13:45:40Z</time>
      </trkpt>
      <trkpt lat="47.54558" lon="6.4844">
        <ele>289</ele>
        <time>2025-09-13T13:45:41Z</time>
      </trkpt>
      <trkpt lat="47.54553" lon="6.48441">
        <ele>288.7</ele>
        <time>2025-09-13T13:45:42Z</time>
      </trkpt>
      <trkpt lat="47.54548" lon="6.48443">
        <ele>288.5</ele>
        <time>2025-09-13T13:45:43Z</time>
      </trkpt>
      <trkpt lat="47.54543" lon="6.48444">
        <ele>288.2</ele>
        <time>2025-09-13T13:45:44Z</time>
      </trkpt>
      <trkpt lat="47.54538" lon="6.48445">
        <ele>287.9</ele>
        <time>2025-09-13T13:45:45Z</time>
      </trkpt>
      <trkpt lat="47.54533" lon="6.48447">
        <ele>287.5</ele>
        <time>2025-09-13T13:45:46Z</time>
      </trkpt>
      <trkpt lat="47.54526" lon="6.48448">
        <ele>287.1</ele>
        <time>2025-09-13T13:45:47Z</time>
      </trkpt>
      <trkpt lat="47.5452" lon="6.48449">
        <ele>286.8</ele>
        <time>2025-09-13T13:45:48Z</time>
      </trkpt>
      <trkpt lat="47.54514" lon="6.48451">
        <ele>286.3</ele>
        <time>2025-09-13T13:45:49Z</time>
      </trkpt>
      <trkpt lat="47.54507" lon="6.48453">
        <ele>286</ele>
        <time>2025-09-13T13:45:50Z</time>
      </trkpt>
      <trkpt lat="47.54501" lon="6.48454">
        <ele>285.7</ele>
        <time>2025-09-13T13:45:51Z</time>
      </trkpt>
      <trkpt lat="47.54494" lon="6.48456">
        <ele>285.4</ele>
        <time>2025-09-13T13:45:52Z</time>
      </trkpt>
      <trkpt lat="47.54486" lon="6.48457">
        <ele>285.1</ele>
        <time>2025-09-13T13:45:53Z</time>
      </trkpt>
      <trkpt lat="47.54478" lon="6.48457">
        <ele>285</ele>
        <time>2025-09-13T13:45:54Z</time>
      </trkpt>
      <trkpt lat="47.5447" lon="6.48457">
        <ele>284.9</ele>
        <time>2025-09-13T13:45:55Z</time>
      </trkpt>
      <trkpt lat="47.54463" lon="6.48456">
        <ele>284.9</ele>
        <time>2025-09-13T13:45:56Z</time>
      </trkpt>
      <trkpt lat="47.54456" lon="6.48455">
        <ele>285.1</ele>
        <time>2025-09-13T13:45:57Z</time>
      </trkpt>
      <trkpt lat="47.5445" lon="6.48454">
        <ele>285.2</ele>
        <time>2025-09-13T13:45:58Z</time>
      </trkpt>
      <trkpt lat="47.54443" lon="6.48452">
        <ele>285.4</ele>
        <time>2025-09-13T13:45:59Z</time>
      </trkpt>
      <trkpt lat="47.54437" lon="6.4845">
        <ele>285.6</ele>
        <time>2025-09-13T13:46:00Z</time>
      </trkpt>
      <trkpt lat="47.54433" lon="6.48448">
        <ele>285.7</ele>
        <time>2025-09-13T13:46:01Z</time>
      </trkpt>
      <trkpt lat="47.5443" lon="6.48447">
        <ele>285.8</ele>
        <time>2025-09-13T13:46:02Z</time>
      </trkpt>
      <trkpt lat="47.54429" lon="6.48446">
        <ele>285.8</ele>
        <time>2025-09-13T13:46:03Z</time>
      </trkpt>
      <trkpt lat="47.54427" lon="6.48445">
        <ele>285.8</ele>
        <time>2025-09-13T13:46:04Z</time>
      </trkpt>
      <trkpt lat="47.54426" lon="6.48445">
        <ele>285.9</ele>
        <time>2025-09-13T13:46:05Z</time>
      </trkpt>
      <trkpt lat="47.54423" lon="6.48446">
        <ele>285.9</ele>
        <time>2025-09-13T13:46:06Z</time>
      </trkpt>
      <trkpt lat="47.54422" lon="6.48447">
        <ele>285.9</ele>
        <time>2025-09-13T13:46:07Z</time>
      </trkpt>
      <trkpt lat="47.54418" lon="6.48451">
        <ele>285.9</ele>
        <time>2025-09-13T13:46:08Z</time>
      </trkpt>
      <trkpt lat="47.54414" lon="6.48455">
        <ele>285.9</ele>
        <time>2025-09-13T13:46:09Z</time>
      </trkpt>
      <trkpt lat="47.5441" lon="6.48459">
        <ele>285.9</ele>
        <time>2025-09-13T13:46:10Z</time>
      </trkpt>
      <trkpt lat="47.54407" lon="6.48461">
        <ele>285.9</ele>
        <time>2025-09-13T13:46:11Z</time>
      </trkpt>
      <trkpt lat="47.544" lon="6.48464">
        <ele>286</ele>
        <time>2025-09-13T13:46:12Z</time>
      </trkpt>
      <trkpt lat="47.54394" lon="6.48465">
        <ele>286.1</ele>
        <time>2025-09-13T13:46:13Z</time>
      </trkpt>
      <trkpt lat="47.54389" lon="6.48467">
        <ele>286.2</ele>
        <time>2025-09-13T13:46:14Z</time>
      </trkpt>
      <trkpt lat="47.54384" lon="6.48467">
        <ele>286.2</ele>
        <time>2025-09-13T13:46:15Z</time>
      </trkpt>
      <trkpt lat="47.54381" lon="6.48468">
        <ele>286.3</ele>
        <time>2025-09-13T13:46:16Z</time>
      </trkpt>
      <trkpt lat="47.54376" lon="6.48469">
        <ele>286.3</ele>
        <time>2025-09-13T13:46:17Z</time>
      </trkpt>
      <trkpt lat="47.54372" lon="6.4847">
        <ele>286.4</ele>
        <time>2025-09-13T13:46:18Z</time>
      </trkpt>
      <trkpt lat="47.54368" lon="6.4847">
        <ele>286.4</ele>
        <time>2025-09-13T13:46:19Z</time>
      </trkpt>
      <trkpt lat="47.54363" lon="6.4847">
        <ele>286.4</ele>
        <time>2025-09-13T13:46:20Z</time>
      </trkpt>
      <trkpt lat="47.54358" lon="6.48472">
        <ele>286.4</ele>
        <time>2025-09-13T13:46:21Z</time>
      </trkpt>
      <trkpt lat="47.54353" lon="6.48472">
        <ele>286.4</ele>
        <time>2025-09-13T13:46:22Z</time>
      </trkpt>
      <trkpt lat="47.54348" lon="6.48474">
        <ele>286.4</ele>
        <time>2025-09-13T13:46:23Z</time>
      </trkpt>
      <trkpt lat="47.54342" lon="6.48474">
        <ele>286.4</ele>
        <time>2025-09-13T13:46:24Z</time>
      </trkpt>
      <trkpt lat="47.54337" lon="6.48475">
        <ele>286.3</ele>
        <time>2025-09-13T13:46:25Z</time>
      </trkpt>
      <trkpt lat="47.54332" lon="6.48475">
        <ele>286.2</ele>
        <time>2025-09-13T13:46:26Z</time>
      </trkpt>
      <trkpt lat="47.54329" lon="6.48471">
        <ele>286.1</ele>
        <time>2025-09-13T13:46:27Z</time>
      </trkpt>
      <trkpt lat="47.54327" lon="6.48466">
        <ele>286</ele>
        <time>2025-09-13T13:46:28Z</time>
      </trkpt>
      <trkpt lat="47.54323" lon="6.48466">
        <ele>285.8</ele>
        <time>2025-09-13T13:46:29Z</time>
      </trkpt>
      <trkpt lat="47.54318" lon="6.48471">
        <ele>285.6</ele>
        <time>2025-09-13T13:46:30Z</time>
      </trkpt>
      <trkpt lat="47.54314" lon="6.48478">
        <ele>285.4</ele>
        <time>2025-09-13T13:46:31Z</time>
      </trkpt>
      <trkpt lat="47.5431" lon="6.48484">
        <ele>285.1</ele>
        <time>2025-09-13T13:46:32Z</time>
      </trkpt>
      <trkpt lat="47.54304" lon="6.4849">
        <ele>284.9</ele>
        <time>2025-09-13T13:46:33Z</time>
      </trkpt>
      <trkpt lat="47.54299" lon="6.48496">
        <ele>284.6</ele>
        <time>2025-09-13T13:46:34Z</time>
      </trkpt>
      <trkpt lat="47.54292" lon="6.485">
        <ele>284.5</ele>
        <time>2025-09-13T13:46:35Z</time>
      </trkpt>
      <trkpt lat="47.54286" lon="6.48503">
        <ele>284.3</ele>
        <time>2025-09-13T13:46:36Z</time>
      </trkpt>
      <trkpt lat="47.5428" lon="6.48505">
        <ele>284.2</ele>
        <time>2025-09-13T13:46:37Z</time>
      </trkpt>
      <trkpt lat="47.54274" lon="6.48505">
        <ele>284.2</ele>
        <time>2025-09-13T13:46:38Z</time>
      </trkpt>
      <trkpt lat="47.54268" lon="6.48507">
        <ele>284.1</ele>
        <time>2025-09-13T13:46:39Z</time>
      </trkpt>
      <trkpt lat="47.54261" lon="6.48509">
        <ele>284.1</ele>
        <time>2025-09-13T13:46:40Z</time>
      </trkpt>
      <trkpt lat="47.54254" lon="6.48511">
        <ele>284</ele>
        <time>2025-09-13T13:46:41Z</time>
      </trkpt>
      <trkpt lat="47.5425" lon="6.48516">
        <ele>284</ele>
        <time>2025-09-13T13:46:42Z</time>
      </trkpt>
      <trkpt lat="47.54244" lon="6.48521">
        <ele>284</ele>
        <time>2025-09-13T13:46:43Z</time>
      </trkpt>
      <trkpt lat="47.54239" lon="6.48522">
        <ele>284</ele>
        <time>2025-09-13T13:46:44Z</time>
      </trkpt>
      <trkpt lat="47.54232" lon="6.48524">
        <ele>284</ele>
        <time>2025-09-13T13:46:45Z</time>
      </trkpt>
      <trkpt lat="47.54226" lon="6.48526">
        <ele>284</ele>
        <time>2025-09-13T13:46:46Z</time>
      </trkpt>
      <trkpt lat="47.54219" lon="6.48527">
        <ele>284</ele>
        <time>2025-09-13T13:46:47Z</time>
      </trkpt>
      <trkpt lat="47.54213" lon="6.48528">
        <ele>283.9</ele>
        <time>2025-09-13T13:46:48Z</time>
      </trkpt>
      <trkpt lat="47.54207" lon="6.48531">
        <ele>283.9</ele>
        <time>2025-09-13T13:46:49Z</time>
      </trkpt>
      <trkpt lat="47.542" lon="6.48534">
        <ele>283.8</ele>
        <time>2025-09-13T13:46:50Z</time>
      </trkpt>
      <trkpt lat="47.54195" lon="6.48537">
        <ele>283.7</ele>
        <time>2025-09-13T13:46:52Z</time>
      </trkpt>
      <trkpt lat="47.54189" lon="6.4854">
        <ele>283.8</ele>
        <time>2025-09-13T13:46:53Z</time>
      </trkpt>
      <trkpt lat="47.54182" lon="6.4854">
        <ele>283.8</ele>
        <time>2025-09-13T13:46:54Z</time>
      </trkpt>
      <trkpt lat="47.54177" lon="6.4854">
        <ele>283.9</ele>
        <time>2025-09-13T13:46:55Z</time>
      </trkpt>
      <trkpt lat="47.54171" lon="6.48543">
        <ele>284</ele>
        <time>2025-09-13T13:46:56Z</time>
      </trkpt>
      <trkpt lat="47.54166" lon="6.48544">
        <ele>284.1</ele>
        <time>2025-09-13T13:46:57Z</time>
      </trkpt>
      <trkpt lat="47.54159" lon="6.48545">
        <ele>284.2</ele>
        <time>2025-09-13T13:46:58Z</time>
      </trkpt>
      <trkpt lat="47.54155" lon="6.48546">
        <ele>284.3</ele>
        <time>2025-09-13T13:46:59Z</time>
      </trkpt>
      <trkpt lat="47.54149" lon="6.48548">
        <ele>284.4</ele>
        <time>2025-09-13T13:47:00Z</time>
      </trkpt>
      <trkpt lat="47.54144" lon="6.48548">
        <ele>284.5</ele>
        <time>2025-09-13T13:47:01Z</time>
      </trkpt>
      <trkpt lat="47.54139" lon="6.48548">
        <ele>284.6</ele>
        <time>2025-09-13T13:47:02Z</time>
      </trkpt>
      <trkpt lat="47.54134" lon="6.48548">
        <ele>284.7</ele>
        <time>2025-09-13T13:47:03Z</time>
      </trkpt>
      <trkpt lat="47.5413" lon="6.48549">
        <ele>284.7</ele>
        <time>2025-09-13T13:47:04Z</time>
      </trkpt>
      <trkpt lat="47.54125" lon="6.48549">
        <ele>284.8</ele>
        <time>2025-09-13T13:47:05Z</time>
      </trkpt>
      <trkpt lat="47.5412" lon="6.48549">
        <ele>284.9</ele>
        <time>2025-09-13T13:47:06Z</time>
      </trkpt>
      <trkpt lat="47.54115" lon="6.48547">
        <ele>285</ele>
        <time>2025-09-13T13:47:07Z</time>
      </trkpt>
      <trkpt lat="47.54114" lon="6.48545">
        <ele>285</ele>
        <time>2025-09-13T13:47:08Z</time>
      </trkpt>
      <trkpt lat="47.54113" lon="6.48544">
        <ele>285.1</ele>
        <time>2025-09-13T13:47:09Z</time>
      </trkpt>
      <trkpt lat="47.54111" lon="6.48543">
        <ele>285.1</ele>
        <time>2025-09-13T13:47:10Z</time>
      </trkpt>
      <trkpt lat="47.54106" lon="6.48541">
        <ele>285.2</ele>
        <time>2025-09-13T13:47:11Z</time>
      </trkpt>
      <trkpt lat="47.54099" lon="6.48538">
        <ele>285.4</ele>
        <time>2025-09-13T13:47:12Z</time>
      </trkpt>
      <trkpt lat="47.54091" lon="6.48537">
        <ele>285.6</ele>
        <time>2025-09-13T13:47:13Z</time>
      </trkpt>
      <trkpt lat="47.54086" lon="6.48536">
        <ele>285.7</ele>
        <time>2025-09-13T13:47:14Z</time>
      </trkpt>
      <trkpt lat="47.54081" lon="6.48535">
        <ele>285.8</ele>
        <time>2025-09-13T13:47:15Z</time>
      </trkpt>
      <trkpt lat="47.54077" lon="6.48533">
        <ele>285.9</ele>
        <time>2025-09-13T13:47:16Z</time>
      </trkpt>
      <trkpt lat="47.54073" lon="6.48532">
        <ele>286</ele>
        <time>2025-09-13T13:47:17Z</time>
      </trkpt>
      <trkpt lat="47.54069" lon="6.4853">
        <ele>286.1</ele>
        <time>2025-09-13T13:47:18Z</time>
      </trkpt>
      <trkpt lat="47.54066" lon="6.48529">
        <ele>286.1</ele>
        <time>2025-09-13T13:47:19Z</time>
      </trkpt>
      <trkpt lat="47.54063" lon="6.48527">
        <ele>286.2</ele>
        <time>2025-09-13T13:47:20Z</time>
      </trkpt>
      <trkpt lat="47.5406" lon="6.48527">
        <ele>286.3</ele>
        <time>2025-09-13T13:47:21Z</time>
      </trkpt>
      <trkpt lat="47.54057" lon="6.48526">
        <ele>286.4</ele>
        <time>2025-09-13T13:47:22Z</time>
      </trkpt>
      <trkpt lat="47.54053" lon="6.48525">
        <ele>286.4</ele>
        <time>2025-09-13T13:47:23Z</time>
      </trkpt>
      <trkpt lat="47.54049" lon="6.48524">
        <ele>286.4</ele>
        <time>2025-09-13T13:47:24Z</time>
      </trkpt>
      <trkpt lat="47.54045" lon="6.48524">
        <ele>286.4</ele>
        <time>2025-09-13T13:47:25Z</time>
      </trkpt>
      <trkpt lat="47.5404" lon="6.48524">
        <ele>286.4</ele>
        <time>2025-09-13T13:47:26Z</time>
      </trkpt>
      <trkpt lat="47.54036" lon="6.48523">
        <ele>286.4</ele>
        <time>2025-09-13T13:47:27Z</time>
      </trkpt>
      <trkpt lat="47.54032" lon="6.48522">
        <ele>286.4</ele>
        <time>2025-09-13T13:47:28Z</time>
      </trkpt>
      <trkpt lat="47.54027" lon="6.48521">
        <ele>286.3</ele>
        <time>2025-09-13T13:47:29Z</time>
      </trkpt>
      <trkpt lat="47.54022" lon="6.48521">
        <ele>286.2</ele>
        <time>2025-09-13T13:47:30Z</time>
      </trkpt>
      <trkpt lat="47.54017" lon="6.48521">
        <ele>286.2</ele>
        <time>2025-09-13T13:47:31Z</time>
      </trkpt>
      <trkpt lat="47.54011" lon="6.4852">
        <ele>286</ele>
        <time>2025-09-13T13:47:32Z</time>
      </trkpt>
      <trkpt lat="47.54006" lon="6.4852">
        <ele>285.9</ele>
        <time>2025-09-13T13:47:33Z</time>
      </trkpt>
      <trkpt lat="47.53999" lon="6.4852">
        <ele>285.7</ele>
        <time>2025-09-13T13:47:34Z</time>
      </trkpt>
      <trkpt lat="47.53992" lon="6.48521">
        <ele>285.4</ele>
        <time>2025-09-13T13:47:35Z</time>
      </trkpt>
      <trkpt lat="47.53985" lon="6.48521">
        <ele>285.2</ele>
        <time>2025-09-13T13:47:36Z</time>
      </trkpt>
      <trkpt lat="47.53979" lon="6.48521">
        <ele>285</ele>
        <time>2025-09-13T13:47:37Z</time>
      </trkpt>
      <trkpt lat="47.53973" lon="6.48521">
        <ele>284.8</ele>
        <time>2025-09-13T13:47:38Z</time>
      </trkpt>
      <trkpt lat="47.53967" lon="6.48522">
        <ele>284.6</ele>
        <time>2025-09-13T13:47:39Z</time>
      </trkpt>
      <trkpt lat="47.5396" lon="6.48524">
        <ele>284.4</ele>
        <time>2025-09-13T13:47:40Z</time>
      </trkpt>
      <trkpt lat="47.53953" lon="6.48524">
        <ele>284.3</ele>
        <time>2025-09-13T13:47:41Z</time>
      </trkpt>
      <trkpt lat="47.53946" lon="6.48526">
        <ele>284.2</ele>
        <time>2025-09-13T13:47:42Z</time>
      </trkpt>
      <trkpt lat="47.5394" lon="6.48528">
        <ele>284.1</ele>
        <time>2025-09-13T13:47:43Z</time>
      </trkpt>
      <trkpt lat="47.53934" lon="6.4853">
        <ele>284.1</ele>
        <time>2025-09-13T13:47:44Z</time>
      </trkpt>
      <trkpt lat="47.53928" lon="6.48533">
        <ele>284.1</ele>
        <time>2025-09-13T13:47:45Z</time>
      </trkpt>
      <trkpt lat="47.53923" lon="6.48536">
        <ele>284.1</ele>
        <time>2025-09-13T13:47:46Z</time>
      </trkpt>
      <trkpt lat="47.53917" lon="6.4854">
        <ele>284.2</ele>
        <time>2025-09-13T13:47:47Z</time>
      </trkpt>
      <trkpt lat="47.53911" lon="6.48544">
        <ele>284.2</ele>
        <time>2025-09-13T13:47:48Z</time>
      </trkpt>
      <trkpt lat="47.53906" lon="6.48548">
        <ele>284.3</ele>
        <time>2025-09-13T13:47:49Z</time>
      </trkpt>
      <trkpt lat="47.539" lon="6.48552">
        <ele>284.3</ele>
        <time>2025-09-13T13:47:50Z</time>
      </trkpt>
      <trkpt lat="47.53895" lon="6.48558">
        <ele>284.3</ele>
        <time>2025-09-13T13:47:51Z</time>
      </trkpt>
      <trkpt lat="47.5389" lon="6.48563">
        <ele>284.4</ele>
        <time>2025-09-13T13:47:52Z</time>
      </trkpt>
      <trkpt lat="47.53886" lon="6.48569">
        <ele>284.4</ele>
        <time>2025-09-13T13:47:53Z</time>
      </trkpt>
      <trkpt lat="47.53882" lon="6.48575">
        <ele>284.5</ele>
        <time>2025-09-13T13:47:54Z</time>
      </trkpt>
      <trkpt lat="47.53877" lon="6.48581">
        <ele>284.5</ele>
        <time>2025-09-13T13:47:55Z</time>
      </trkpt>
      <trkpt lat="47.53873" lon="6.48588">
        <ele>284.6</ele>
        <time>2025-09-13T13:47:56Z</time>
      </trkpt>
      <trkpt lat="47.53869" lon="6.48594">
        <ele>284.7</ele>
        <time>2025-09-13T13:47:57Z</time>
      </trkpt>
      <trkpt lat="47.53865" lon="6.486">
        <ele>284.8</ele>
        <time>2025-09-13T13:47:58Z</time>
      </trkpt>
      <trkpt lat="47.5386" lon="6.48607">
        <ele>284.9</ele>
        <time>2025-09-13T13:47:59Z</time>
      </trkpt>
      <trkpt lat="47.53857" lon="6.48613">
        <ele>285</ele>
        <time>2025-09-13T13:48:00Z</time>
      </trkpt>
      <trkpt lat="47.53852" lon="6.48619">
        <ele>285.1</ele>
        <time>2025-09-13T13:48:01Z</time>
      </trkpt>
      <trkpt lat="47.53848" lon="6.48625">
        <ele>285.2</ele>
        <time>2025-09-13T13:48:02Z</time>
      </trkpt>
      <trkpt lat="47.53844" lon="6.48631">
        <ele>285.3</ele>
        <time>2025-09-13T13:48:03Z</time>
      </trkpt>
      <trkpt lat="47.53839" lon="6.48637">
        <ele>285.4</ele>
        <time>2025-09-13T13:48:04Z</time>
      </trkpt>
      <trkpt lat="47.53835" lon="6.48643">
        <ele>285.5</ele>
        <time>2025-09-13T13:48:05Z</time>
      </trkpt>
      <trkpt lat="47.5383" lon="6.48647">
        <ele>285.5</ele>
        <time>2025-09-13T13:48:06Z</time>
      </trkpt>
      <trkpt lat="47.53824" lon="6.48652">
        <ele>285.5</ele>
        <time>2025-09-13T13:48:07Z</time>
      </trkpt>
      <trkpt lat="47.53818" lon="6.48656">
        <ele>285.5</ele>
        <time>2025-09-13T13:48:08Z</time>
      </trkpt>
      <trkpt lat="47.53813" lon="6.4866">
        <ele>285.5</ele>
        <time>2025-09-13T13:48:09Z</time>
      </trkpt>
      <trkpt lat="47.53808" lon="6.48664">
        <ele>285.4</ele>
        <time>2025-09-13T13:48:10Z</time>
      </trkpt>
      <trkpt lat="47.53802" lon="6.48668">
        <ele>285.4</ele>
        <time>2025-09-13T13:48:11Z</time>
      </trkpt>
      <trkpt lat="47.53797" lon="6.48672">
        <ele>285.2</ele>
        <time>2025-09-13T13:48:12Z</time>
      </trkpt>
      <trkpt lat="47.53792" lon="6.48676">
        <ele>285.1</ele>
        <time>2025-09-13T13:48:13Z</time>
      </trkpt>
      <trkpt lat="47.53785" lon="6.48681">
        <ele>284.9</ele>
        <time>2025-09-13T13:48:14Z</time>
      </trkpt>
      <trkpt lat="47.53779" lon="6.48684">
        <ele>284.8</ele>
        <time>2025-09-13T13:48:15Z</time>
      </trkpt>
      <trkpt lat="47.53774" lon="6.48688">
        <ele>284.6</ele>
        <time>2025-09-13T13:48:16Z</time>
      </trkpt>
      <trkpt lat="47.53767" lon="6.48692">
        <ele>284.5</ele>
        <time>2025-09-13T13:48:17Z</time>
      </trkpt>
      <trkpt lat="47.5376" lon="6.48696">
        <ele>284.3</ele>
        <time>2025-09-13T13:48:18Z</time>
      </trkpt>
      <trkpt lat="47.53754" lon="6.487">
        <ele>284.2</ele>
        <time>2025-09-13T13:48:19Z</time>
      </trkpt>
      <trkpt lat="47.53747" lon="6.48702">
        <ele>284.1</ele>
        <time>2025-09-13T13:48:20Z</time>
      </trkpt>
      <trkpt lat="47.53741" lon="6.48705">
        <ele>284.1</ele>
        <time>2025-09-13T13:48:21Z</time>
      </trkpt>
      <trkpt lat="47.53734" lon="6.48708">
        <ele>284</ele>
        <time>2025-09-13T13:48:22Z</time>
      </trkpt>
      <trkpt lat="47.53727" lon="6.4871">
        <ele>284</ele>
        <time>2025-09-13T13:48:23Z</time>
      </trkpt>
      <trkpt lat="47.5372" lon="6.48712">
        <ele>284</ele>
        <time>2025-09-13T13:48:24Z</time>
      </trkpt>
      <trkpt lat="47.53714" lon="6.48713">
        <ele>284.1</ele>
        <time>2025-09-13T13:48:25Z</time>
      </trkpt>
      <trkpt lat="47.53708" lon="6.48712">
        <ele>284.1</ele>
        <time>2025-09-13T13:48:26Z</time>
      </trkpt>
      <trkpt lat="47.53703" lon="6.48712">
        <ele>284.2</ele>
        <time>2025-09-13T13:48:27Z</time>
      </trkpt>
      <trkpt lat="47.53697" lon="6.48711">
        <ele>284.3</ele>
        <time>2025-09-13T13:48:28Z</time>
      </trkpt>
      <trkpt lat="47.53691" lon="6.4871">
        <ele>284.5</ele>
        <time>2025-09-13T13:48:29Z</time>
      </trkpt>
      <trkpt lat="47.53681" lon="6.48708">
        <ele>284.7</ele>
        <time>2025-09-13T13:48:30Z</time>
      </trkpt>
      <trkpt lat="47.53676" lon="6.48708">
        <ele>284.9</ele>
        <time>2025-09-13T13:48:31Z</time>
      </trkpt>
      <trkpt lat="47.5367" lon="6.48706">
        <ele>285.2</ele>
        <time>2025-09-13T13:48:32Z</time>
      </trkpt>
      <trkpt lat="47.53664" lon="6.48705">
        <ele>285.4</ele>
        <time>2025-09-13T13:48:33Z</time>
      </trkpt>
      <trkpt lat="47.5366" lon="6.48703">
        <ele>285.7</ele>
        <time>2025-09-13T13:48:34Z</time>
      </trkpt>
      <trkpt lat="47.53653" lon="6.48703">
        <ele>286</ele>
        <time>2025-09-13T13:48:35Z</time>
      </trkpt>
      <trkpt lat="47.53647" lon="6.48701">
        <ele>286.3</ele>
        <time>2025-09-13T13:48:36Z</time>
      </trkpt>
      <trkpt lat="47.53641" lon="6.48701">
        <ele>286.5</ele>
        <time>2025-09-13T13:48:37Z</time>
      </trkpt>
      <trkpt lat="47.53636" lon="6.48701">
        <ele>286.8</ele>
        <time>2025-09-13T13:48:38Z</time>
      </trkpt>
      <trkpt lat="47.5363" lon="6.487">
        <ele>287</ele>
        <time>2025-09-13T13:48:39Z</time>
      </trkpt>
      <trkpt lat="47.53626" lon="6.48697">
        <ele>287.2</ele>
        <time>2025-09-13T13:48:40Z</time>
      </trkpt>
      <trkpt lat="47.53622" lon="6.48696">
        <ele>287.4</ele>
        <time>2025-09-13T13:48:41Z</time>
      </trkpt>
      <trkpt lat="47.53618" lon="6.48694">
        <ele>287.6</ele>
        <time>2025-09-13T13:48:42Z</time>
      </trkpt>
      <trkpt lat="47.53613" lon="6.48693">
        <ele>287.8</ele>
        <time>2025-09-13T13:48:43Z</time>
      </trkpt>
      <trkpt lat="47.5361" lon="6.48692">
        <ele>287.9</ele>
        <time>2025-09-13T13:48:44Z</time>
      </trkpt>
      <trkpt lat="47.53605" lon="6.48691">
        <ele>288.1</ele>
        <time>2025-09-13T13:48:45Z</time>
      </trkpt>
      <trkpt lat="47.53601" lon="6.48691">
        <ele>288.2</ele>
        <time>2025-09-13T13:48:46Z</time>
      </trkpt>
      <trkpt lat="47.53596" lon="6.4869">
        <ele>288.3</ele>
        <time>2025-09-13T13:48:47Z</time>
      </trkpt>
      <trkpt lat="47.53591" lon="6.48688">
        <ele>288.5</ele>
        <time>2025-09-13T13:48:48Z</time>
      </trkpt>
      <trkpt lat="47.53581" lon="6.48686">
        <ele>288.7</ele>
        <time>2025-09-13T13:48:49Z</time>
      </trkpt>
      <trkpt lat="47.53577" lon="6.48684">
        <ele>288.8</ele>
        <time>2025-09-13T13:48:50Z</time>
      </trkpt>
      <trkpt lat="47.53573" lon="6.48683">
        <ele>288.9</ele>
        <time>2025-09-13T13:48:51Z</time>
      </trkpt>
      <trkpt lat="47.53568" lon="6.48682">
        <ele>289.1</ele>
        <time>2025-09-13T13:48:52Z</time>
      </trkpt>
      <trkpt lat="47.53564" lon="6.4868">
        <ele>289.2</ele>
        <time>2025-09-13T13:48:53Z</time>
      </trkpt>
      <trkpt lat="47.5356" lon="6.48679">
        <ele>289.3</ele>
        <time>2025-09-13T13:48:54Z</time>
      </trkpt>
      <trkpt lat="47.53555" lon="6.48677">
        <ele>289.4</ele>
        <time>2025-09-13T13:48:55Z</time>
      </trkpt>
      <trkpt lat="47.53551" lon="6.48676">
        <ele>289.5</ele>
        <time>2025-09-13T13:48:56Z</time>
      </trkpt>
      <trkpt lat="47.53546" lon="6.48675">
        <ele>289.6</ele>
        <time>2025-09-13T13:48:57Z</time>
      </trkpt>
      <trkpt lat="47.5354" lon="6.48674">
        <ele>289.7</ele>
        <time>2025-09-13T13:48:58Z</time>
      </trkpt>
      <trkpt lat="47.53535" lon="6.48673">
        <ele>289.8</ele>
        <time>2025-09-13T13:48:59Z</time>
      </trkpt>
      <trkpt lat="47.53531" lon="6.48672">
        <ele>289.8</ele>
        <time>2025-09-13T13:49:00Z</time>
      </trkpt>
      <trkpt lat="47.53526" lon="6.48671">
        <ele>289.9</ele>
        <time>2025-09-13T13:49:01Z</time>
      </trkpt>
      <trkpt lat="47.53522" lon="6.48671">
        <ele>290</ele>
        <time>2025-09-13T13:49:02Z</time>
      </trkpt>
      <trkpt lat="47.53517" lon="6.4867">
        <ele>290.1</ele>
        <time>2025-09-13T13:49:03Z</time>
      </trkpt>
      <trkpt lat="47.53512" lon="6.4867">
        <ele>290.2</ele>
        <time>2025-09-13T13:49:04Z</time>
      </trkpt>
      <trkpt lat="47.53507" lon="6.48669">
        <ele>290.2</ele>
        <time>2025-09-13T13:49:05Z</time>
      </trkpt>
      <trkpt lat="47.53504" lon="6.48669">
        <ele>290.3</ele>
        <time>2025-09-13T13:49:06Z</time>
      </trkpt>
      <trkpt lat="47.535" lon="6.48667">
        <ele>290.3</ele>
        <time>2025-09-13T13:49:07Z</time>
      </trkpt>
      <trkpt lat="47.53495" lon="6.48665">
        <ele>290.4</ele>
        <time>2025-09-13T13:49:08Z</time>
      </trkpt>
      <trkpt lat="47.5349" lon="6.48664">
        <ele>290.5</ele>
        <time>2025-09-13T13:49:09Z</time>
      </trkpt>
      <trkpt lat="47.53486" lon="6.48663">
        <ele>290.6</ele>
        <time>2025-09-13T13:49:10Z</time>
      </trkpt>
      <trkpt lat="47.53482" lon="6.48663">
        <ele>290.6</ele>
        <time>2025-09-13T13:49:11Z</time>
      </trkpt>
      <trkpt lat="47.53477" lon="6.48661">
        <ele>290.7</ele>
        <time>2025-09-13T13:49:12Z</time>
      </trkpt>
      <trkpt lat="47.53472" lon="6.48659">
        <ele>290.8</ele>
        <time>2025-09-13T13:49:13Z</time>
      </trkpt>
      <trkpt lat="47.53466" lon="6.48658">
        <ele>290.8</ele>
        <time>2025-09-13T13:49:14Z</time>
      </trkpt>
      <trkpt lat="47.53462" lon="6.48657">
        <ele>290.9</ele>
        <time>2025-09-13T13:49:15Z</time>
      </trkpt>
      <trkpt lat="47.53457" lon="6.48655">
        <ele>290.9</ele>
        <time>2025-09-13T13:49:16Z</time>
      </trkpt>
      <trkpt lat="47.53452" lon="6.48654">
        <ele>290.9</ele>
        <time>2025-09-13T13:49:17Z</time>
      </trkpt>
      <trkpt lat="47.53447" lon="6.48653">
        <ele>290.9</ele>
        <time>2025-09-13T13:49:18Z</time>
      </trkpt>
      <trkpt lat="47.53442" lon="6.48651">
        <ele>291</ele>
        <time>2025-09-13T13:49:19Z</time>
      </trkpt>
      <trkpt lat="47.53437" lon="6.48649">
        <ele>291</ele>
        <time>2025-09-13T13:49:20Z</time>
      </trkpt>
      <trkpt lat="47.53432" lon="6.48648">
        <ele>291</ele>
        <time>2025-09-13T13:49:21Z</time>
      </trkpt>
      <trkpt lat="47.53426" lon="6.48647">
        <ele>291</ele>
        <time>2025-09-13T13:49:22Z</time>
      </trkpt>
      <trkpt lat="47.53421" lon="6.48645">
        <ele>291</ele>
        <time>2025-09-13T13:49:23Z</time>
      </trkpt>
      <trkpt lat="47.53416" lon="6.48643">
        <ele>291</ele>
        <time>2025-09-13T13:49:24Z</time>
      </trkpt>
      <trkpt lat="47.5341" lon="6.4864">
        <ele>291</ele>
        <time>2025-09-13T13:49:25Z</time>
      </trkpt>
      <trkpt lat="47.53405" lon="6.48638">
        <ele>291</ele>
        <time>2025-09-13T13:49:26Z</time>
      </trkpt>
      <trkpt lat="47.53399" lon="6.48635">
        <ele>291</ele>
        <time>2025-09-13T13:49:27Z</time>
      </trkpt>
      <trkpt lat="47.53394" lon="6.48633">
        <ele>291</ele>
        <time>2025-09-13T13:49:28Z</time>
      </trkpt>
      <trkpt lat="47.53388" lon="6.4863">
        <ele>291</ele>
        <time>2025-09-13T13:49:29Z</time>
      </trkpt>
      <trkpt lat="47.53383" lon="6.48628">
        <ele>291</ele>
        <time>2025-09-13T13:49:30Z</time>
      </trkpt>
      <trkpt lat="47.53377" lon="6.48626">
        <ele>291</ele>
        <time>2025-09-13T13:49:31Z</time>
      </trkpt>
      <trkpt lat="47.53372" lon="6.48623">
        <ele>290.9</ele>
        <time>2025-09-13T13:49:32Z</time>
      </trkpt>
      <trkpt lat="47.53366" lon="6.4862">
        <ele>290.9</ele>
        <time>2025-09-13T13:49:33Z</time>
      </trkpt>
      <trkpt lat="47.53362" lon="6.48618">
        <ele>290.8</ele>
        <time>2025-09-13T13:49:34Z</time>
      </trkpt>
      <trkpt lat="47.53357" lon="6.48615">
        <ele>290.8</ele>
        <time>2025-09-13T13:49:35Z</time>
      </trkpt>
      <trkpt lat="47.53352" lon="6.48612">
        <ele>290.7</ele>
        <time>2025-09-13T13:49:36Z</time>
      </trkpt>
      <trkpt lat="47.53346" lon="6.4861">
        <ele>290.7</ele>
        <time>2025-09-13T13:49:37Z</time>
      </trkpt>
      <trkpt lat="47.5334" lon="6.48607">
        <ele>290.7</ele>
        <time>2025-09-13T13:49:38Z</time>
      </trkpt>
      <trkpt lat="47.53335" lon="6.48605">
        <ele>290.6</ele>
        <time>2025-09-13T13:49:39Z</time>
      </trkpt>
      <trkpt lat="47.53329" lon="6.48602">
        <ele>290.6</ele>
        <time>2025-09-13T13:49:40Z</time>
      </trkpt>
      <trkpt lat="47.53324" lon="6.48599">
        <ele>290.6</ele>
        <time>2025-09-13T13:49:41Z</time>
      </trkpt>
      <trkpt lat="47.53318" lon="6.48597">
        <ele>290.5</ele>
        <time>2025-09-13T13:49:42Z</time>
      </trkpt>
      <trkpt lat="47.53312" lon="6.48595">
        <ele>290.5</ele>
        <time>2025-09-13T13:49:43Z</time>
      </trkpt>
      <trkpt lat="47.53307" lon="6.48593">
        <ele>290.5</ele>
        <time>2025-09-13T13:49:44Z</time>
      </trkpt>
      <trkpt lat="47.53301" lon="6.48589">
        <ele>290.4</ele>
        <time>2025-09-13T13:49:45Z</time>
      </trkpt>
      <trkpt lat="47.53295" lon="6.48586">
        <ele>290.4</ele>
        <time>2025-09-13T13:49:46Z</time>
      </trkpt>
      <trkpt lat="47.53289" lon="6.48584">
        <ele>290.3</ele>
        <time>2025-09-13T13:49:47Z</time>
      </trkpt>
      <trkpt lat="47.53283" lon="6.48582">
        <ele>290.2</ele>
        <time>2025-09-13T13:49:48Z</time>
      </trkpt>
      <trkpt lat="47.53277" lon="6.48578">
        <ele>290.2</ele>
        <time>2025-09-13T13:49:49Z</time>
      </trkpt>
      <trkpt lat="47.53271" lon="6.48575">
        <ele>290.1</ele>
        <time>2025-09-13T13:49:50Z</time>
      </trkpt>
      <trkpt lat="47.53265" lon="6.48573">
        <ele>290</ele>
        <time>2025-09-13T13:49:51Z</time>
      </trkpt>
      <trkpt lat="47.53259" lon="6.4857">
        <ele>289.9</ele>
        <time>2025-09-13T13:49:52Z</time>
      </trkpt>
      <trkpt lat="47.53253" lon="6.48566">
        <ele>289.8</ele>
        <time>2025-09-13T13:49:53Z</time>
      </trkpt>
      <trkpt lat="47.53247" lon="6.48563">
        <ele>289.7</ele>
        <time>2025-09-13T13:49:54Z</time>
      </trkpt>
      <trkpt lat="47.53241" lon="6.48561">
        <ele>289.6</ele>
        <time>2025-09-13T13:49:55Z</time>
      </trkpt>
      <trkpt lat="47.53234" lon="6.48559">
        <ele>289.4</ele>
        <time>2025-09-13T13:49:56Z</time>
      </trkpt>
      <trkpt lat="47.53228" lon="6.48557">
        <ele>289.2</ele>
        <time>2025-09-13T13:49:57Z</time>
      </trkpt>
      <trkpt lat="47.5322" lon="6.48553">
        <ele>289</ele>
        <time>2025-09-13T13:49:58Z</time>
      </trkpt>
      <trkpt lat="47.53213" lon="6.4855">
        <ele>288.8</ele>
        <time>2025-09-13T13:49:59Z</time>
      </trkpt>
      <trkpt lat="47.53204" lon="6.48547">
        <ele>288.7</ele>
        <time>2025-09-13T13:50:00Z</time>
      </trkpt>
      <trkpt lat="47.53199" lon="6.48544">
        <ele>288.6</ele>
        <time>2025-09-13T13:50:01Z</time>
      </trkpt>
      <trkpt lat="47.53192" lon="6.48541">
        <ele>288.5</ele>
        <time>2025-09-13T13:50:02Z</time>
      </trkpt>
      <trkpt lat="47.53187" lon="6.48538">
        <ele>288.4</ele>
        <time>2025-09-13T13:50:03Z</time>
      </trkpt>
      <trkpt lat="47.5318" lon="6.48535">
        <ele>288.3</ele>
        <time>2025-09-13T13:50:04Z</time>
      </trkpt>
      <trkpt lat="47.53174" lon="6.48532">
        <ele>288.2</ele>
        <time>2025-09-13T13:50:05Z</time>
      </trkpt>
      <trkpt lat="47.53168" lon="6.48529">
        <ele>288.1</ele>
        <time>2025-09-13T13:50:06Z</time>
      </trkpt>
      <trkpt lat="47.53161" lon="6.48527">
        <ele>288.1</ele>
        <time>2025-09-13T13:50:07Z</time>
      </trkpt>
      <trkpt lat="47.53154" lon="6.48525">
        <ele>288</ele>
        <time>2025-09-13T13:50:08Z</time>
      </trkpt>
      <trkpt lat="47.53148" lon="6.48523">
        <ele>288</ele>
        <time>2025-09-13T13:50:09Z</time>
      </trkpt>
      <trkpt lat="47.53142" lon="6.48522">
        <ele>288</ele>
        <time>2025-09-13T13:50:10Z</time>
      </trkpt>
      <trkpt lat="47.53135" lon="6.48522">
        <ele>287.9</ele>
        <time>2025-09-13T13:50:11Z</time>
      </trkpt>
      <trkpt lat="47.53128" lon="6.48521">
        <ele>287.9</ele>
        <time>2025-09-13T13:50:12Z</time>
      </trkpt>
      <trkpt lat="47.53121" lon="6.48521">
        <ele>288</ele>
        <time>2025-09-13T13:50:13Z</time>
      </trkpt>
      <trkpt lat="47.53115" lon="6.4852">
        <ele>288</ele>
        <time>2025-09-13T13:50:14Z</time>
      </trkpt>
      <trkpt lat="47.53108" lon="6.48521">
        <ele>288</ele>
        <time>2025-09-13T13:50:15Z</time>
      </trkpt>
      <trkpt lat="47.53101" lon="6.48522">
        <ele>288.1</ele>
        <time>2025-09-13T13:50:16Z</time>
      </trkpt>
      <trkpt lat="47.53095" lon="6.48522">
        <ele>288.2</ele>
        <time>2025-09-13T13:50:17Z</time>
      </trkpt>
      <trkpt lat="47.53089" lon="6.48521">
        <ele>288.2</ele>
        <time>2025-09-13T13:50:18Z</time>
      </trkpt>
      <trkpt lat="47.53083" lon="6.48521">
        <ele>288.3</ele>
        <time>2025-09-13T13:50:19Z</time>
      </trkpt>
      <trkpt lat="47.53076" lon="6.48521">
        <ele>288.4</ele>
        <time>2025-09-13T13:50:20Z</time>
      </trkpt>
      <trkpt lat="47.5307" lon="6.48521">
        <ele>288.4</ele>
        <time>2025-09-13T13:50:21Z</time>
      </trkpt>
      <trkpt lat="47.53064" lon="6.48521">
        <ele>288.5</ele>
        <time>2025-09-13T13:50:22Z</time>
      </trkpt>
      <trkpt lat="47.53058" lon="6.4852">
        <ele>288.6</ele>
        <time>2025-09-13T13:50:23Z</time>
      </trkpt>
      <trkpt lat="47.53051" lon="6.48519">
        <ele>288.6</ele>
        <time>2025-09-13T13:50:24Z</time>
      </trkpt>
      <trkpt lat="47.53046" lon="6.4852">
        <ele>288.8</ele>
        <time>2025-09-13T13:50:25Z</time>
      </trkpt>
      <trkpt lat="47.5304" lon="6.4852">
        <ele>288.9</ele>
        <time>2025-09-13T13:50:26Z</time>
      </trkpt>
      <trkpt lat="47.53033" lon="6.4852">
        <ele>289</ele>
        <time>2025-09-13T13:50:27Z</time>
      </trkpt>
      <trkpt lat="47.53028" lon="6.4852">
        <ele>289.1</ele>
        <time>2025-09-13T13:50:28Z</time>
      </trkpt>
      <trkpt lat="47.53022" lon="6.48519">
        <ele>289.3</ele>
        <time>2025-09-13T13:50:29Z</time>
      </trkpt>
      <trkpt lat="47.53015" lon="6.48518">
        <ele>289.6</ele>
        <time>2025-09-13T13:50:30Z</time>
      </trkpt>
      <trkpt lat="47.53011" lon="6.48519">
        <ele>289.7</ele>
        <time>2025-09-13T13:50:31Z</time>
      </trkpt>
      <trkpt lat="47.53004" lon="6.48517">
        <ele>290</ele>
        <time>2025-09-13T13:50:32Z</time>
      </trkpt>
      <trkpt lat="47.52999" lon="6.48517">
        <ele>290.3</ele>
        <time>2025-09-13T13:50:33Z</time>
      </trkpt>
      <trkpt lat="47.52993" lon="6.48517">
        <ele>290.5</ele>
        <time>2025-09-13T13:50:34Z</time>
      </trkpt>
      <trkpt lat="47.52987" lon="6.48517">
        <ele>290.8</ele>
        <time>2025-09-13T13:50:35Z</time>
      </trkpt>
      <trkpt lat="47.52982" lon="6.48517">
        <ele>291.1</ele>
        <time>2025-09-13T13:50:36Z</time>
      </trkpt>
      <trkpt lat="47.52976" lon="6.48516">
        <ele>291.4</ele>
        <time>2025-09-13T13:50:37Z</time>
      </trkpt>
      <trkpt lat="47.52971" lon="6.48515">
        <ele>291.7</ele>
        <time>2025-09-13T13:50:38Z</time>
      </trkpt>
      <trkpt lat="47.52966" lon="6.48515">
        <ele>292</ele>
        <time>2025-09-13T13:50:39Z</time>
      </trkpt>
      <trkpt lat="47.5296" lon="6.48515">
        <ele>292.4</ele>
        <time>2025-09-13T13:50:40Z</time>
      </trkpt>
      <trkpt lat="47.52957" lon="6.48517">
        <ele>292.6</ele>
        <time>2025-09-13T13:50:41Z</time>
      </trkpt>
      <trkpt lat="47.52951" lon="6.48516">
        <ele>292.9</ele>
        <time>2025-09-13T13:50:42Z</time>
      </trkpt>
      <trkpt lat="47.52945" lon="6.48515">
        <ele>293.3</ele>
        <time>2025-09-13T13:50:43Z</time>
      </trkpt>
      <trkpt lat="47.52941" lon="6.48514">
        <ele>293.5</ele>
        <time>2025-09-13T13:50:44Z</time>
      </trkpt>
      <trkpt lat="47.52935" lon="6.48513">
        <ele>293.8</ele>
        <time>2025-09-13T13:50:45Z</time>
      </trkpt>
      <trkpt lat="47.5293" lon="6.48514">
        <ele>294.1</ele>
        <time>2025-09-13T13:50:46Z</time>
      </trkpt>
      <trkpt lat="47.52926" lon="6.48513">
        <ele>294.3</ele>
        <time>2025-09-13T13:50:47Z</time>
      </trkpt>
      <trkpt lat="47.52921" lon="6.48513">
        <ele>294.6</ele>
        <time>2025-09-13T13:50:48Z</time>
      </trkpt>
      <trkpt lat="47.52916" lon="6.48513">
        <ele>294.8</ele>
        <time>2025-09-13T13:50:49Z</time>
      </trkpt>
      <trkpt lat="47.52911" lon="6.48513">
        <ele>295</ele>
        <time>2025-09-13T13:50:50Z</time>
      </trkpt>
      <trkpt lat="47.52906" lon="6.48513">
        <ele>295.2</ele>
        <time>2025-09-13T13:50:51Z</time>
      </trkpt>
      <trkpt lat="47.52901" lon="6.48514">
        <ele>295.4</ele>
        <time>2025-09-13T13:50:52Z</time>
      </trkpt>
      <trkpt lat="47.52896" lon="6.48513">
        <ele>295.6</ele>
        <time>2025-09-13T13:50:53Z</time>
      </trkpt>
      <trkpt lat="47.52891" lon="6.48513">
        <ele>295.9</ele>
        <time>2025-09-13T13:50:54Z</time>
      </trkpt>
      <trkpt lat="47.52886" lon="6.48513">
        <ele>296.1</ele>
        <time>2025-09-13T13:50:55Z</time>
      </trkpt>
      <trkpt lat="47.52881" lon="6.48513">
        <ele>296.3</ele>
        <time>2025-09-13T13:50:56Z</time>
      </trkpt>
      <trkpt lat="47.52876" lon="6.48513">
        <ele>296.5</ele>
        <time>2025-09-13T13:50:57Z</time>
      </trkpt>
      <trkpt lat="47.5287" lon="6.48513">
        <ele>296.7</ele>
        <time>2025-09-13T13:50:58Z</time>
      </trkpt>
      <trkpt lat="47.52867" lon="6.48512">
        <ele>296.9</ele>
        <time>2025-09-13T13:50:59Z</time>
      </trkpt>
      <trkpt lat="47.52861" lon="6.48512">
        <ele>297.1</ele>
        <time>2025-09-13T13:51:00Z</time>
      </trkpt>
      <trkpt lat="47.52856" lon="6.48511">
        <ele>297.3</ele>
        <time>2025-09-13T13:51:01Z</time>
      </trkpt>
      <trkpt lat="47.52851" lon="6.48512">
        <ele>297.4</ele>
        <time>2025-09-13T13:51:02Z</time>
      </trkpt>
      <trkpt lat="47.52846" lon="6.48511">
        <ele>297.5</ele>
        <time>2025-09-13T13:51:03Z</time>
      </trkpt>
      <trkpt lat="47.52842" lon="6.4851">
        <ele>297.6</ele>
        <time>2025-09-13T13:51:04Z</time>
      </trkpt>
      <trkpt lat="47.52836" lon="6.48509">
        <ele>297.7</ele>
        <time>2025-09-13T13:51:05Z</time>
      </trkpt>
      <trkpt lat="47.52831" lon="6.48507">
        <ele>297.8</ele>
        <time>2025-09-13T13:51:06Z</time>
      </trkpt>
      <trkpt lat="47.52825" lon="6.48507">
        <ele>297.8</ele>
        <time>2025-09-13T13:51:07Z</time>
      </trkpt>
      <trkpt lat="47.52819" lon="6.48504">
        <ele>297.8</ele>
        <time>2025-09-13T13:51:08Z</time>
      </trkpt>
      <trkpt lat="47.52814" lon="6.48503">
        <ele>297.8</ele>
        <time>2025-09-13T13:51:09Z</time>
      </trkpt>
      <trkpt lat="47.52808" lon="6.48501">
        <ele>297.8</ele>
        <time>2025-09-13T13:51:10Z</time>
      </trkpt>
      <trkpt lat="47.52804" lon="6.48496">
        <ele>297.7</ele>
        <time>2025-09-13T13:51:11Z</time>
      </trkpt>
      <trkpt lat="47.52797" lon="6.48494">
        <ele>297.5</ele>
        <time>2025-09-13T13:51:12Z</time>
      </trkpt>
      <trkpt lat="47.52793" lon="6.4849">
        <ele>297.4</ele>
        <time>2025-09-13T13:51:13Z</time>
      </trkpt>
      <trkpt lat="47.52787" lon="6.48488">
        <ele>297.3</ele>
        <time>2025-09-13T13:51:14Z</time>
      </trkpt>
      <trkpt lat="47.52782" lon="6.48484">
        <ele>297.1</ele>
        <time>2025-09-13T13:51:15Z</time>
      </trkpt>
      <trkpt lat="47.52776" lon="6.4848">
        <ele>296.9</ele>
        <time>2025-09-13T13:51:16Z</time>
      </trkpt>
      <trkpt lat="47.52771" lon="6.48478">
        <ele>296.7</ele>
        <time>2025-09-13T13:51:17Z</time>
      </trkpt>
      <trkpt lat="47.52765" lon="6.48476">
        <ele>296.5</ele>
        <time>2025-09-13T13:51:18Z</time>
      </trkpt>
      <trkpt lat="47.52759" lon="6.48472">
        <ele>296.2</ele>
        <time>2025-09-13T13:51:19Z</time>
      </trkpt>
      <trkpt lat="47.52752" lon="6.48469">
        <ele>295.9</ele>
        <time>2025-09-13T13:51:20Z</time>
      </trkpt>
      <trkpt lat="47.52746" lon="6.48465">
        <ele>295.6</ele>
        <time>2025-09-13T13:51:21Z</time>
      </trkpt>
      <trkpt lat="47.5274" lon="6.48462">
        <ele>295.4</ele>
        <time>2025-09-13T13:51:22Z</time>
      </trkpt>
      <trkpt lat="47.52732" lon="6.48458">
        <ele>295.1</ele>
        <time>2025-09-13T13:51:23Z</time>
      </trkpt>
      <trkpt lat="47.52726" lon="6.48454">
        <ele>294.9</ele>
        <time>2025-09-13T13:51:24Z</time>
      </trkpt>
      <trkpt lat="47.52719" lon="6.48451">
        <ele>294.7</ele>
        <time>2025-09-13T13:51:25Z</time>
      </trkpt>
      <trkpt lat="47.52712" lon="6.48449">
        <ele>294.6</ele>
        <time>2025-09-13T13:51:26Z</time>
      </trkpt>
      <trkpt lat="47.52705" lon="6.48447">
        <ele>294.5</ele>
        <time>2025-09-13T13:51:27Z</time>
      </trkpt>
      <trkpt lat="47.52698" lon="6.48448">
        <ele>294.4</ele>
        <time>2025-09-13T13:51:28Z</time>
      </trkpt>
      <trkpt lat="47.52692" lon="6.48447">
        <ele>294.4</ele>
        <time>2025-09-13T13:51:29Z</time>
      </trkpt>
      <trkpt lat="47.52679" lon="6.48448">
        <ele>294.5</ele>
        <time>2025-09-13T13:51:31Z</time>
      </trkpt>
      <trkpt lat="47.52673" lon="6.48449">
        <ele>294.5</ele>
        <time>2025-09-13T13:51:33Z</time>
      </trkpt>
      <trkpt lat="47.52667" lon="6.48449">
        <ele>294.6</ele>
        <time>2025-09-13T13:51:34Z</time>
      </trkpt>
      <trkpt lat="47.52661" lon="6.4845">
        <ele>294.6</ele>
        <time>2025-09-13T13:51:35Z</time>
      </trkpt>
      <trkpt lat="47.52654" lon="6.48452">
        <ele>294.7</ele>
        <time>2025-09-13T13:51:36Z</time>
      </trkpt>
      <trkpt lat="47.52648" lon="6.48453">
        <ele>294.8</ele>
        <time>2025-09-13T13:51:37Z</time>
      </trkpt>
      <trkpt lat="47.52642" lon="6.48454">
        <ele>294.9</ele>
        <time>2025-09-13T13:51:38Z</time>
      </trkpt>
      <trkpt lat="47.52637" lon="6.48455">
        <ele>295</ele>
        <time>2025-09-13T13:51:39Z</time>
      </trkpt>
      <trkpt lat="47.52631" lon="6.48457">
        <ele>295.1</ele>
        <time>2025-09-13T13:51:40Z</time>
      </trkpt>
      <trkpt lat="47.52624" lon="6.48459">
        <ele>295.3</ele>
        <time>2025-09-13T13:51:41Z</time>
      </trkpt>
      <trkpt lat="47.52618" lon="6.4846">
        <ele>295.5</ele>
        <time>2025-09-13T13:51:42Z</time>
      </trkpt>
      <trkpt lat="47.52612" lon="6.48462">
        <ele>295.7</ele>
        <time>2025-09-13T13:51:43Z</time>
      </trkpt>
      <trkpt lat="47.52607" lon="6.48463">
        <ele>295.9</ele>
        <time>2025-09-13T13:51:44Z</time>
      </trkpt>
      <trkpt lat="47.52602" lon="6.48465">
        <ele>296.1</ele>
        <time>2025-09-13T13:51:45Z</time>
      </trkpt>
      <trkpt lat="47.52596" lon="6.48466">
        <ele>296.3</ele>
        <time>2025-09-13T13:51:46Z</time>
      </trkpt>
      <trkpt lat="47.52591" lon="6.48468">
        <ele>296.5</ele>
        <time>2025-09-13T13:51:47Z</time>
      </trkpt>
      <trkpt lat="47.52585" lon="6.4847">
        <ele>296.8</ele>
        <time>2025-09-13T13:51:48Z</time>
      </trkpt>
      <trkpt lat="47.5258" lon="6.48472">
        <ele>297</ele>
        <time>2025-09-13T13:51:49Z</time>
      </trkpt>
      <trkpt lat="47.52575" lon="6.48473">
        <ele>297.1</ele>
        <time>2025-09-13T13:51:50Z</time>
      </trkpt>
      <trkpt lat="47.52569" lon="6.48475">
        <ele>297.3</ele>
        <time>2025-09-13T13:51:51Z</time>
      </trkpt>
      <trkpt lat="47.52563" lon="6.48478">
        <ele>297.5</ele>
        <time>2025-09-13T13:51:52Z</time>
      </trkpt>
      <trkpt lat="47.52557" lon="6.4848">
        <ele>297.5</ele>
        <time>2025-09-13T13:51:53Z</time>
      </trkpt>
      <trkpt lat="47.52552" lon="6.48483">
        <ele>297.5</ele>
        <time>2025-09-13T13:51:54Z</time>
      </trkpt>
      <trkpt lat="47.52549" lon="6.48486">
        <ele>297.5</ele>
        <time>2025-09-13T13:51:55Z</time>
      </trkpt>
      <trkpt lat="47.52542" lon="6.48489">
        <ele>297.4</ele>
        <time>2025-09-13T13:51:56Z</time>
      </trkpt>
      <trkpt lat="47.52536" lon="6.48493">
        <ele>297.3</ele>
        <time>2025-09-13T13:51:57Z</time>
      </trkpt>
      <trkpt lat="47.5253" lon="6.48498">
        <ele>297.1</ele>
        <time>2025-09-13T13:51:58Z</time>
      </trkpt>
      <trkpt lat="47.52524" lon="6.48503">
        <ele>296.8</ele>
        <time>2025-09-13T13:51:59Z</time>
      </trkpt>
      <trkpt lat="47.52517" lon="6.48507">
        <ele>296.6</ele>
        <time>2025-09-13T13:52:00Z</time>
      </trkpt>
      <trkpt lat="47.52511" lon="6.48512">
        <ele>296.4</ele>
        <time>2025-09-13T13:52:01Z</time>
      </trkpt>
      <trkpt lat="47.52506" lon="6.48516">
        <ele>296.2</ele>
        <time>2025-09-13T13:52:02Z</time>
      </trkpt>
      <trkpt lat="47.525" lon="6.48521">
        <ele>295.9</ele>
        <time>2025-09-13T13:52:03Z</time>
      </trkpt>
      <trkpt lat="47.52493" lon="6.48526">
        <ele>295.6</ele>
        <time>2025-09-13T13:52:04Z</time>
      </trkpt>
      <trkpt lat="47.52487" lon="6.48533">
        <ele>295.5</ele>
        <time>2025-09-13T13:52:05Z</time>
      </trkpt>
      <trkpt lat="47.5248" lon="6.48539">
        <ele>295.3</ele>
        <time>2025-09-13T13:52:06Z</time>
      </trkpt>
      <trkpt lat="47.52474" lon="6.48543">
        <ele>295.3</ele>
        <time>2025-09-13T13:52:07Z</time>
      </trkpt>
      <trkpt lat="47.52468" lon="6.48549">
        <ele>295.2</ele>
        <time>2025-09-13T13:52:08Z</time>
      </trkpt>
      <trkpt lat="47.52461" lon="6.48555">
        <ele>295.2</ele>
        <time>2025-09-13T13:52:09Z</time>
      </trkpt>
      <trkpt lat="47.52454" lon="6.48561">
        <ele>295.2</ele>
        <time>2025-09-13T13:52:10Z</time>
      </trkpt>
      <trkpt lat="47.52447" lon="6.48566">
        <ele>295.2</ele>
        <time>2025-09-13T13:52:11Z</time>
      </trkpt>
      <trkpt lat="47.5244" lon="6.48569">
        <ele>295.2</ele>
        <time>2025-09-13T13:52:12Z</time>
      </trkpt>
      <trkpt lat="47.52433" lon="6.48573">
        <ele>295.2</ele>
        <time>2025-09-13T13:52:13Z</time>
      </trkpt>
      <trkpt lat="47.52425" lon="6.48577">
        <ele>295.2</ele>
        <time>2025-09-13T13:52:14Z</time>
      </trkpt>
      <trkpt lat="47.52419" lon="6.48581">
        <ele>295.2</ele>
        <time>2025-09-13T13:52:15Z</time>
      </trkpt>
      <trkpt lat="47.52413" lon="6.48587">
        <ele>295.2</ele>
        <time>2025-09-13T13:52:16Z</time>
      </trkpt>
      <trkpt lat="47.52407" lon="6.48592">
        <ele>295.2</ele>
        <time>2025-09-13T13:52:17Z</time>
      </trkpt>
      <trkpt lat="47.524" lon="6.48597">
        <ele>295.2</ele>
        <time>2025-09-13T13:52:18Z</time>
      </trkpt>
      <trkpt lat="47.52394" lon="6.48603">
        <ele>295.2</ele>
        <time>2025-09-13T13:52:19Z</time>
      </trkpt>
      <trkpt lat="47.52388" lon="6.48609">
        <ele>295.2</ele>
        <time>2025-09-13T13:52:20Z</time>
      </trkpt>
      <trkpt lat="47.52383" lon="6.48616">
        <ele>295.2</ele>
        <time>2025-09-13T13:52:21Z</time>
      </trkpt>
      <trkpt lat="47.52378" lon="6.48623">
        <ele>295.2</ele>
        <time>2025-09-13T13:52:22Z</time>
      </trkpt>
      <trkpt lat="47.52372" lon="6.48629">
        <ele>295.3</ele>
        <time>2025-09-13T13:52:23Z</time>
      </trkpt>
      <trkpt lat="47.52366" lon="6.48634">
        <ele>295.3</ele>
        <time>2025-09-13T13:52:24Z</time>
      </trkpt>
      <trkpt lat="47.52361" lon="6.48639">
        <ele>295.4</ele>
        <time>2025-09-13T13:52:25Z</time>
      </trkpt>
      <trkpt lat="47.52356" lon="6.48644">
        <ele>295.4</ele>
        <time>2025-09-13T13:52:26Z</time>
      </trkpt>
      <trkpt lat="47.5235" lon="6.48648">
        <ele>295.5</ele>
        <time>2025-09-13T13:52:27Z</time>
      </trkpt>
      <trkpt lat="47.52344" lon="6.48651">
        <ele>295.6</ele>
        <time>2025-09-13T13:52:28Z</time>
      </trkpt>
      <trkpt lat="47.52338" lon="6.48655">
        <ele>295.7</ele>
        <time>2025-09-13T13:52:29Z</time>
      </trkpt>
      <trkpt lat="47.52332" lon="6.48657">
        <ele>295.8</ele>
        <time>2025-09-13T13:52:30Z</time>
      </trkpt>
      <trkpt lat="47.52326" lon="6.4866">
        <ele>296</ele>
        <time>2025-09-13T13:52:31Z</time>
      </trkpt>
      <trkpt lat="47.52321" lon="6.48663">
        <ele>296.1</ele>
        <time>2025-09-13T13:52:32Z</time>
      </trkpt>
      <trkpt lat="47.52316" lon="6.48666">
        <ele>296.2</ele>
        <time>2025-09-13T13:52:33Z</time>
      </trkpt>
      <trkpt lat="47.5231" lon="6.4867">
        <ele>296.3</ele>
        <time>2025-09-13T13:52:34Z</time>
      </trkpt>
      <trkpt lat="47.52305" lon="6.48673">
        <ele>296.4</ele>
        <time>2025-09-13T13:52:35Z</time>
      </trkpt>
      <trkpt lat="47.523" lon="6.48677">
        <ele>296.5</ele>
        <time>2025-09-13T13:52:36Z</time>
      </trkpt>
      <trkpt lat="47.52294" lon="6.48681">
        <ele>296.6</ele>
        <time>2025-09-13T13:52:37Z</time>
      </trkpt>
      <trkpt lat="47.52289" lon="6.48686">
        <ele>296.7</ele>
        <time>2025-09-13T13:52:38Z</time>
      </trkpt>
      <trkpt lat="47.52283" lon="6.4869">
        <ele>296.8</ele>
        <time>2025-09-13T13:52:39Z</time>
      </trkpt>
      <trkpt lat="47.52279" lon="6.48694">
        <ele>296.9</ele>
        <time>2025-09-13T13:52:40Z</time>
      </trkpt>
      <trkpt lat="47.52273" lon="6.48698">
        <ele>297</ele>
        <time>2025-09-13T13:52:41Z</time>
      </trkpt>
      <trkpt lat="47.52268" lon="6.48703">
        <ele>297</ele>
        <time>2025-09-13T13:52:42Z</time>
      </trkpt>
      <trkpt lat="47.52263" lon="6.48707">
        <ele>297.1</ele>
        <time>2025-09-13T13:52:43Z</time>
      </trkpt>
      <trkpt lat="47.52257" lon="6.4871">
        <ele>297.2</ele>
        <time>2025-09-13T13:52:44Z</time>
      </trkpt>
      <trkpt lat="47.52252" lon="6.48714">
        <ele>297.3</ele>
        <time>2025-09-13T13:52:45Z</time>
      </trkpt>
      <trkpt lat="47.52246" lon="6.48718">
        <ele>297.4</ele>
        <time>2025-09-13T13:52:46Z</time>
      </trkpt>
      <trkpt lat="47.52241" lon="6.48722">
        <ele>297.5</ele>
        <time>2025-09-13T13:52:47Z</time>
      </trkpt>
      <trkpt lat="47.52236" lon="6.48725">
        <ele>297.6</ele>
        <time>2025-09-13T13:52:48Z</time>
      </trkpt>
      <trkpt lat="47.52231" lon="6.48729">
        <ele>297.7</ele>
        <time>2025-09-13T13:52:49Z</time>
      </trkpt>
      <trkpt lat="47.52226" lon="6.48733">
        <ele>297.8</ele>
        <time>2025-09-13T13:52:50Z</time>
      </trkpt>
      <trkpt lat="47.52221" lon="6.48735">
        <ele>297.9</ele>
        <time>2025-09-13T13:52:51Z</time>
      </trkpt>
      <trkpt lat="47.52215" lon="6.48739">
        <ele>298</ele>
        <time>2025-09-13T13:52:52Z</time>
      </trkpt>
      <trkpt lat="47.5221" lon="6.48742">
        <ele>298.1</ele>
        <time>2025-09-13T13:52:53Z</time>
      </trkpt>
      <trkpt lat="47.52205" lon="6.48746">
        <ele>298.2</ele>
        <time>2025-09-13T13:52:54Z</time>
      </trkpt>
      <trkpt lat="47.522" lon="6.48749">
        <ele>298.2</ele>
        <time>2025-09-13T13:52:55Z</time>
      </trkpt>
      <trkpt lat="47.52195" lon="6.48751">
        <ele>298.3</ele>
        <time>2025-09-13T13:52:56Z</time>
      </trkpt>
      <trkpt lat="47.5219" lon="6.48755">
        <ele>298.4</ele>
        <time>2025-09-13T13:52:57Z</time>
      </trkpt>
      <trkpt lat="47.52189" lon="6.48757">
        <ele>298.4</ele>
        <time>2025-09-13T13:52:58Z</time>
      </trkpt>
      <trkpt lat="47.52187" lon="6.4876">
        <ele>298.4</ele>
        <time>2025-09-13T13:52:59Z</time>
      </trkpt>
      <trkpt lat="47.52185" lon="6.48763">
        <ele>298.4</ele>
        <time>2025-09-13T13:53:00Z</time>
      </trkpt>
      <trkpt lat="47.52178" lon="6.48766">
        <ele>298.5</ele>
        <time>2025-09-13T13:53:01Z</time>
      </trkpt>
      <trkpt lat="47.52171" lon="6.48769">
        <ele>298.6</ele>
        <time>2025-09-13T13:53:02Z</time>
      </trkpt>
      <trkpt lat="47.52163" lon="6.48772">
        <ele>298.8</ele>
        <time>2025-09-13T13:53:03Z</time>
      </trkpt>
      <trkpt lat="47.52156" lon="6.48774">
        <ele>298.8</ele>
        <time>2025-09-13T13:53:04Z</time>
      </trkpt>
      <trkpt lat="47.5215" lon="6.48776">
        <ele>298.9</ele>
        <time>2025-09-13T13:53:05Z</time>
      </trkpt>
      <trkpt lat="47.52144" lon="6.48779">
        <ele>298.9</ele>
        <time>2025-09-13T13:53:06Z</time>
      </trkpt>
      <trkpt lat="47.52138" lon="6.48782">
        <ele>298.9</ele>
        <time>2025-09-13T13:53:07Z</time>
      </trkpt>
      <trkpt lat="47.52133" lon="6.48784">
        <ele>298.9</ele>
        <time>2025-09-13T13:53:08Z</time>
      </trkpt>
      <trkpt lat="47.52127" lon="6.48786">
        <ele>298.8</ele>
        <time>2025-09-13T13:53:09Z</time>
      </trkpt>
      <trkpt lat="47.52121" lon="6.4879">
        <ele>298.8</ele>
        <time>2025-09-13T13:53:10Z</time>
      </trkpt>
      <trkpt lat="47.52116" lon="6.48792">
        <ele>298.8</ele>
        <time>2025-09-13T13:53:11Z</time>
      </trkpt>
      <trkpt lat="47.5211" lon="6.48795">
        <ele>298.8</ele>
        <time>2025-09-13T13:53:12Z</time>
      </trkpt>
      <trkpt lat="47.52104" lon="6.48798">
        <ele>298.8</ele>
        <time>2025-09-13T13:53:13Z</time>
      </trkpt>
      <trkpt lat="47.52098" lon="6.488">
        <ele>298.9</ele>
        <time>2025-09-13T13:53:14Z</time>
      </trkpt>
      <trkpt lat="47.52092" lon="6.48803">
        <ele>299</ele>
        <time>2025-09-13T13:53:15Z</time>
      </trkpt>
      <trkpt lat="47.52087" lon="6.48806">
        <ele>299.1</ele>
        <time>2025-09-13T13:53:16Z</time>
      </trkpt>
      <trkpt lat="47.52083" lon="6.4881">
        <ele>299.1</ele>
        <time>2025-09-13T13:53:17Z</time>
      </trkpt>
      <trkpt lat="47.52077" lon="6.48813">
        <ele>299.2</ele>
        <time>2025-09-13T13:53:18Z</time>
      </trkpt>
      <trkpt lat="47.52073" lon="6.48816">
        <ele>299.3</ele>
        <time>2025-09-13T13:53:19Z</time>
      </trkpt>
      <trkpt lat="47.52067" lon="6.4882">
        <ele>299.4</ele>
        <time>2025-09-13T13:53:20Z</time>
      </trkpt>
      <trkpt lat="47.52061" lon="6.48823">
        <ele>299.5</ele>
        <time>2025-09-13T13:53:21Z</time>
      </trkpt>
      <trkpt lat="47.52056" lon="6.48824">
        <ele>299.7</ele>
        <time>2025-09-13T13:53:22Z</time>
      </trkpt>
      <trkpt lat="47.52051" lon="6.48827">
        <ele>299.8</ele>
        <time>2025-09-13T13:53:23Z</time>
      </trkpt>
      <trkpt lat="47.52045" lon="6.48829">
        <ele>300</ele>
        <time>2025-09-13T13:53:24Z</time>
      </trkpt>
      <trkpt lat="47.5204" lon="6.48832">
        <ele>300.2</ele>
        <time>2025-09-13T13:53:25Z</time>
      </trkpt>
      <trkpt lat="47.52034" lon="6.48834">
        <ele>300.4</ele>
        <time>2025-09-13T13:53:26Z</time>
      </trkpt>
      <trkpt lat="47.52028" lon="6.48835">
        <ele>300.6</ele>
        <time>2025-09-13T13:53:27Z</time>
      </trkpt>
      <trkpt lat="47.52023" lon="6.48836">
        <ele>300.8</ele>
        <time>2025-09-13T13:53:28Z</time>
      </trkpt>
      <trkpt lat="47.52018" lon="6.48837">
        <ele>300.9</ele>
        <time>2025-09-13T13:53:29Z</time>
      </trkpt>
      <trkpt lat="47.52011" lon="6.48837">
        <ele>301.1</ele>
        <time>2025-09-13T13:53:30Z</time>
      </trkpt>
      <trkpt lat="47.52005" lon="6.48837">
        <ele>301.3</ele>
        <time>2025-09-13T13:53:31Z</time>
      </trkpt>
      <trkpt lat="47.52" lon="6.48836">
        <ele>301.4</ele>
        <time>2025-09-13T13:53:32Z</time>
      </trkpt>
      <trkpt lat="47.51994" lon="6.48834">
        <ele>301.6</ele>
        <time>2025-09-13T13:53:33Z</time>
      </trkpt>
      <trkpt lat="47.51988" lon="6.48833">
        <ele>301.7</ele>
        <time>2025-09-13T13:53:34Z</time>
      </trkpt>
      <trkpt lat="47.51983" lon="6.48832">
        <ele>301.8</ele>
        <time>2025-09-13T13:53:35Z</time>
      </trkpt>
      <trkpt lat="47.51979" lon="6.4883">
        <ele>301.9</ele>
        <time>2025-09-13T13:53:36Z</time>
      </trkpt>
      <trkpt lat="47.51973" lon="6.48827">
        <ele>302</ele>
        <time>2025-09-13T13:53:37Z</time>
      </trkpt>
      <trkpt lat="47.51968" lon="6.48825">
        <ele>302.1</ele>
        <time>2025-09-13T13:53:38Z</time>
      </trkpt>
      <trkpt lat="47.51965" lon="6.48824">
        <ele>302.1</ele>
        <time>2025-09-13T13:53:39Z</time>
      </trkpt>
      <trkpt lat="47.51959" lon="6.48823">
        <ele>302.1</ele>
        <time>2025-09-13T13:53:40Z</time>
      </trkpt>
      <trkpt lat="47.51956" lon="6.48825">
        <ele>302.1</ele>
        <time>2025-09-13T13:53:41Z</time>
      </trkpt>
      <trkpt lat="47.5195" lon="6.48827">
        <ele>302.1</ele>
        <time>2025-09-13T13:53:42Z</time>
      </trkpt>
      <trkpt lat="47.51946" lon="6.4883">
        <ele>302.2</ele>
        <time>2025-09-13T13:53:43Z</time>
      </trkpt>
      <trkpt lat="47.51942" lon="6.48831">
        <ele>302.2</ele>
        <time>2025-09-13T13:53:44Z</time>
      </trkpt>
      <trkpt lat="47.51938" lon="6.48832">
        <ele>302.3</ele>
        <time>2025-09-13T13:53:45Z</time>
      </trkpt>
      <trkpt lat="47.51933" lon="6.48831">
        <ele>302.3</ele>
        <time>2025-09-13T13:53:46Z</time>
      </trkpt>
      <trkpt lat="47.51931" lon="6.4883">
        <ele>302.4</ele>
        <time>2025-09-13T13:53:47Z</time>
      </trkpt>
      <trkpt lat="47.51926" lon="6.48826">
        <ele>302.6</ele>
        <time>2025-09-13T13:53:48Z</time>
      </trkpt>
      <trkpt lat="47.51923" lon="6.48819">
        <ele>302.8</ele>
        <time>2025-09-13T13:53:49Z</time>
      </trkpt>
      <trkpt lat="47.51921" lon="6.48813">
        <ele>302.9</ele>
        <time>2025-09-13T13:53:50Z</time>
      </trkpt>
      <trkpt lat="47.51917" lon="6.4881">
        <ele>303</ele>
        <time>2025-09-13T13:53:51Z</time>
      </trkpt>
      <trkpt lat="47.51914" lon="6.48805">
        <ele>303.2</ele>
        <time>2025-09-13T13:53:52Z</time>
      </trkpt>
      <trkpt lat="47.5191" lon="6.48801">
        <ele>303.3</ele>
        <time>2025-09-13T13:53:53Z</time>
      </trkpt>
      <trkpt lat="47.51906" lon="6.48797">
        <ele>303.5</ele>
        <time>2025-09-13T13:53:54Z</time>
      </trkpt>
      <trkpt lat="47.51903" lon="6.48794">
        <ele>303.6</ele>
        <time>2025-09-13T13:53:55Z</time>
      </trkpt>
      <trkpt lat="47.519" lon="6.4879">
        <ele>303.8</ele>
        <time>2025-09-13T13:53:56Z</time>
      </trkpt>
      <trkpt lat="47.51896" lon="6.48786">
        <ele>304</ele>
        <time>2025-09-13T13:53:57Z</time>
      </trkpt>
      <trkpt lat="47.51892" lon="6.48783">
        <ele>304.1</ele>
        <time>2025-09-13T13:53:58Z</time>
      </trkpt>
      <trkpt lat="47.51889" lon="6.48779">
        <ele>304.3</ele>
        <time>2025-09-13T13:53:59Z</time>
      </trkpt>
      <trkpt lat="47.51885" lon="6.48776">
        <ele>304.5</ele>
        <time>2025-09-13T13:54:00Z</time>
      </trkpt>
      <trkpt lat="47.51881" lon="6.48773">
        <ele>304.6</ele>
        <time>2025-09-13T13:54:01Z</time>
      </trkpt>
      <trkpt lat="47.51877" lon="6.4877">
        <ele>304.8</ele>
        <time>2025-09-13T13:54:02Z</time>
      </trkpt>
      <trkpt lat="47.51872" lon="6.48767">
        <ele>304.9</ele>
        <time>2025-09-13T13:54:03Z</time>
      </trkpt>
      <trkpt lat="47.51868" lon="6.48765">
        <ele>305</ele>
        <time>2025-09-13T13:54:04Z</time>
      </trkpt>
      <trkpt lat="47.51864" lon="6.48763">
        <ele>305.2</ele>
        <time>2025-09-13T13:54:05Z</time>
      </trkpt>
      <trkpt lat="47.5186" lon="6.4876">
        <ele>305.3</ele>
        <time>2025-09-13T13:54:06Z</time>
      </trkpt>
      <trkpt lat="47.51856" lon="6.48758">
        <ele>305.4</ele>
        <time>2025-09-13T13:54:07Z</time>
      </trkpt>
      <trkpt lat="47.51851" lon="6.48756">
        <ele>305.5</ele>
        <time>2025-09-13T13:54:08Z</time>
      </trkpt>
      <trkpt lat="47.51847" lon="6.48755">
        <ele>305.6</ele>
        <time>2025-09-13T13:54:09Z</time>
      </trkpt>
      <trkpt lat="47.51842" lon="6.48752">
        <ele>305.7</ele>
        <time>2025-09-13T13:54:10Z</time>
      </trkpt>
      <trkpt lat="47.51837" lon="6.4875">
        <ele>305.8</ele>
        <time>2025-09-13T13:54:11Z</time>
      </trkpt>
      <trkpt lat="47.51831" lon="6.48747">
        <ele>305.9</ele>
        <time>2025-09-13T13:54:12Z</time>
      </trkpt>
      <trkpt lat="47.51826" lon="6.48744">
        <ele>306</ele>
        <time>2025-09-13T13:54:13Z</time>
      </trkpt>
      <trkpt lat="47.51822" lon="6.48742">
        <ele>306.1</ele>
        <time>2025-09-13T13:54:14Z</time>
      </trkpt>
      <trkpt lat="47.51818" lon="6.48738">
        <ele>306.3</ele>
        <time>2025-09-13T13:54:15Z</time>
      </trkpt>
      <trkpt lat="47.51814" lon="6.48734">
        <ele>306.4</ele>
        <time>2025-09-13T13:54:16Z</time>
      </trkpt>
      <trkpt lat="47.51809" lon="6.48729">
        <ele>306.6</ele>
        <time>2025-09-13T13:54:17Z</time>
      </trkpt>
      <trkpt lat="47.51806" lon="6.48723">
        <ele>306.7</ele>
        <time>2025-09-13T13:54:18Z</time>
      </trkpt>
      <trkpt lat="47.51804" lon="6.48717">
        <ele>306.9</ele>
        <time>2025-09-13T13:54:19Z</time>
      </trkpt>
      <trkpt lat="47.51802" lon="6.48711">
        <ele>307.1</ele>
        <time>2025-09-13T13:54:20Z</time>
      </trkpt>
      <trkpt lat="47.518" lon="6.48705">
        <ele>307.3</ele>
        <time>2025-09-13T13:54:21Z</time>
      </trkpt>
      <trkpt lat="47.51799" lon="6.48698">
        <ele>307.6</ele>
        <time>2025-09-13T13:54:22Z</time>
      </trkpt>
      <trkpt lat="47.51799" lon="6.48691">
        <ele>307.9</ele>
        <time>2025-09-13T13:54:23Z</time>
      </trkpt>
      <trkpt lat="47.51797" lon="6.48685">
        <ele>308.2</ele>
        <time>2025-09-13T13:54:24Z</time>
      </trkpt>
      <trkpt lat="47.51796" lon="6.48678">
        <ele>308.5</ele>
        <time>2025-09-13T13:54:25Z</time>
      </trkpt>
      <trkpt lat="47.51795" lon="6.48672">
        <ele>308.8</ele>
        <time>2025-09-13T13:54:26Z</time>
      </trkpt>
      <trkpt lat="47.51793" lon="6.48666">
        <ele>309.1</ele>
        <time>2025-09-13T13:54:27Z</time>
      </trkpt>
      <trkpt lat="47.51792" lon="6.4866">
        <ele>309.4</ele>
        <time>2025-09-13T13:54:28Z</time>
      </trkpt>
      <trkpt lat="47.5179" lon="6.48655">
        <ele>309.6</ele>
        <time>2025-09-13T13:54:29Z</time>
      </trkpt>
      <trkpt lat="47.51789" lon="6.4865">
        <ele>309.9</ele>
        <time>2025-09-13T13:54:30Z</time>
      </trkpt>
      <trkpt lat="47.51786" lon="6.48645">
        <ele>310.2</ele>
        <time>2025-09-13T13:54:31Z</time>
      </trkpt>
      <trkpt lat="47.51784" lon="6.4864">
        <ele>310.4</ele>
        <time>2025-09-13T13:54:32Z</time>
      </trkpt>
      <trkpt lat="47.51781" lon="6.48636">
        <ele>310.6</ele>
        <time>2025-09-13T13:54:33Z</time>
      </trkpt>
      <trkpt lat="47.51777" lon="6.48632">
        <ele>310.9</ele>
        <time>2025-09-13T13:54:34Z</time>
      </trkpt>
      <trkpt lat="47.51775" lon="6.48627">
        <ele>311</ele>
        <time>2025-09-13T13:54:35Z</time>
      </trkpt>
      <trkpt lat="47.51771" lon="6.48624">
        <ele>311.2</ele>
        <time>2025-09-13T13:54:36Z</time>
      </trkpt>
      <trkpt lat="47.51768" lon="6.48621">
        <ele>311.3</ele>
        <time>2025-09-13T13:54:37Z</time>
      </trkpt>
      <trkpt lat="47.51764" lon="6.48618">
        <ele>311.5</ele>
        <time>2025-09-13T13:54:38Z</time>
      </trkpt>
      <trkpt lat="47.51759" lon="6.48616">
        <ele>311.6</ele>
        <time>2025-09-13T13:54:39Z</time>
      </trkpt>
      <trkpt lat="47.51755" lon="6.48614">
        <ele>311.7</ele>
        <time>2025-09-13T13:54:40Z</time>
      </trkpt>
      <trkpt lat="47.51751" lon="6.48611">
        <ele>311.9</ele>
        <time>2025-09-13T13:54:41Z</time>
      </trkpt>
      <trkpt lat="47.51746" lon="6.48609">
        <ele>312</ele>
        <time>2025-09-13T13:54:42Z</time>
      </trkpt>
      <trkpt lat="47.51742" lon="6.48607">
        <ele>312.1</ele>
        <time>2025-09-13T13:54:43Z</time>
      </trkpt>
      <trkpt lat="47.51738" lon="6.48606">
        <ele>312.2</ele>
        <time>2025-09-13T13:54:44Z</time>
      </trkpt>
      <trkpt lat="47.51733" lon="6.48604">
        <ele>312.3</ele>
        <time>2025-09-13T13:54:45Z</time>
      </trkpt>
      <trkpt lat="47.51729" lon="6.48602">
        <ele>312.3</ele>
        <time>2025-09-13T13:54:46Z</time>
      </trkpt>
      <trkpt lat="47.51725" lon="6.486">
        <ele>312.4</ele>
        <time>2025-09-13T13:54:47Z</time>
      </trkpt>
      <trkpt lat="47.5172" lon="6.48598">
        <ele>312.4</ele>
        <time>2025-09-13T13:54:48Z</time>
      </trkpt>
      <trkpt lat="47.51716" lon="6.48597">
        <ele>312.4</ele>
        <time>2025-09-13T13:54:49Z</time>
      </trkpt>
      <trkpt lat="47.5171" lon="6.48595">
        <ele>312.3</ele>
        <time>2025-09-13T13:54:50Z</time>
      </trkpt>
      <trkpt lat="47.51706" lon="6.48593">
        <ele>312.3</ele>
        <time>2025-09-13T13:54:51Z</time>
      </trkpt>
      <trkpt lat="47.517" lon="6.48592">
        <ele>312.3</ele>
        <time>2025-09-13T13:54:52Z</time>
      </trkpt>
      <trkpt lat="47.51696" lon="6.48591">
        <ele>312.3</ele>
        <time>2025-09-13T13:54:53Z</time>
      </trkpt>
      <trkpt lat="47.51691" lon="6.48589">
        <ele>312.2</ele>
        <time>2025-09-13T13:54:54Z</time>
      </trkpt>
      <trkpt lat="47.51686" lon="6.48588">
        <ele>312.2</ele>
        <time>2025-09-13T13:54:55Z</time>
      </trkpt>
      <trkpt lat="47.51682" lon="6.48585">
        <ele>312.2</ele>
        <time>2025-09-13T13:54:56Z</time>
      </trkpt>
      <trkpt lat="47.51677" lon="6.48583">
        <ele>312.1</ele>
        <time>2025-09-13T13:54:57Z</time>
      </trkpt>
      <trkpt lat="47.51672" lon="6.48581">
        <ele>312.1</ele>
        <time>2025-09-13T13:54:58Z</time>
      </trkpt>
      <trkpt lat="47.51667" lon="6.4858">
        <ele>312.1</ele>
        <time>2025-09-13T13:54:59Z</time>
      </trkpt>
      <trkpt lat="47.51662" lon="6.48579">
        <ele>312.1</ele>
        <time>2025-09-13T13:55:00Z</time>
      </trkpt>
      <trkpt lat="47.51657" lon="6.48577">
        <ele>312.1</ele>
        <time>2025-09-13T13:55:01Z</time>
      </trkpt>
      <trkpt lat="47.51652" lon="6.48576">
        <ele>312.1</ele>
        <time>2025-09-13T13:55:02Z</time>
      </trkpt>
      <trkpt lat="47.51647" lon="6.48574">
        <ele>312.1</ele>
        <time>2025-09-13T13:55:03Z</time>
      </trkpt>
      <trkpt lat="47.51642" lon="6.48573">
        <ele>312.2</ele>
        <time>2025-09-13T13:55:04Z</time>
      </trkpt>
      <trkpt lat="47.51637" lon="6.48572">
        <ele>312.2</ele>
        <time>2025-09-13T13:55:05Z</time>
      </trkpt>
      <trkpt lat="47.51632" lon="6.48571">
        <ele>312.3</ele>
        <time>2025-09-13T13:55:06Z</time>
      </trkpt>
      <trkpt lat="47.51625" lon="6.4857">
        <ele>312.4</ele>
        <time>2025-09-13T13:55:07Z</time>
      </trkpt>
      <trkpt lat="47.51619" lon="6.4857">
        <ele>312.5</ele>
        <time>2025-09-13T13:55:08Z</time>
      </trkpt>
      <trkpt lat="47.51613" lon="6.48569">
        <ele>312.6</ele>
        <time>2025-09-13T13:55:09Z</time>
      </trkpt>
      <trkpt lat="47.51608" lon="6.48568">
        <ele>312.8</ele>
        <time>2025-09-13T13:55:10Z</time>
      </trkpt>
      <trkpt lat="47.51602" lon="6.48568">
        <ele>312.9</ele>
        <time>2025-09-13T13:55:11Z</time>
      </trkpt>
      <trkpt lat="47.51597" lon="6.48568">
        <ele>313.1</ele>
        <time>2025-09-13T13:55:12Z</time>
      </trkpt>
      <trkpt lat="47.51592" lon="6.48567">
        <ele>313.2</ele>
        <time>2025-09-13T13:55:13Z</time>
      </trkpt>
      <trkpt lat="47.51587" lon="6.48565">
        <ele>313.3</ele>
        <time>2025-09-13T13:55:14Z</time>
      </trkpt>
      <trkpt lat="47.51583" lon="6.48564">
        <ele>313.5</ele>
        <time>2025-09-13T13:55:15Z</time>
      </trkpt>
      <trkpt lat="47.51578" lon="6.48562">
        <ele>313.6</ele>
        <time>2025-09-13T13:55:16Z</time>
      </trkpt>
      <trkpt lat="47.51573" lon="6.4856">
        <ele>313.7</ele>
        <time>2025-09-13T13:55:17Z</time>
      </trkpt>
      <trkpt lat="47.51564" lon="6.48558">
        <ele>314</ele>
        <time>2025-09-13T13:55:18Z</time>
      </trkpt>
      <trkpt lat="47.5156" lon="6.48558">
        <ele>314.1</ele>
        <time>2025-09-13T13:55:19Z</time>
      </trkpt>
      <trkpt lat="47.51555" lon="6.48557">
        <ele>314.2</ele>
        <time>2025-09-13T13:55:20Z</time>
      </trkpt>
      <trkpt lat="47.5155" lon="6.48557">
        <ele>314.4</ele>
        <time>2025-09-13T13:55:21Z</time>
      </trkpt>
      <trkpt lat="47.51545" lon="6.48555">
        <ele>314.5</ele>
        <time>2025-09-13T13:55:22Z</time>
      </trkpt>
      <trkpt lat="47.5154" lon="6.48554">
        <ele>314.6</ele>
        <time>2025-09-13T13:55:23Z</time>
      </trkpt>
      <trkpt lat="47.51535" lon="6.48551">
        <ele>314.6</ele>
        <time>2025-09-13T13:55:24Z</time>
      </trkpt>
      <trkpt lat="47.51529" lon="6.4855">
        <ele>314.7</ele>
        <time>2025-09-13T13:55:25Z</time>
      </trkpt>
      <trkpt lat="47.51524" lon="6.48548">
        <ele>314.8</ele>
        <time>2025-09-13T13:55:26Z</time>
      </trkpt>
      <trkpt lat="47.51519" lon="6.48544">
        <ele>314.8</ele>
        <time>2025-09-13T13:55:27Z</time>
      </trkpt>
      <trkpt lat="47.51514" lon="6.48543">
        <ele>314.9</ele>
        <time>2025-09-13T13:55:28Z</time>
      </trkpt>
      <trkpt lat="47.51509" lon="6.4854">
        <ele>314.9</ele>
        <time>2025-09-13T13:55:29Z</time>
      </trkpt>
      <trkpt lat="47.51504" lon="6.48538">
        <ele>315</ele>
        <time>2025-09-13T13:55:30Z</time>
      </trkpt>
      <trkpt lat="47.51499" lon="6.48535">
        <ele>315</ele>
        <time>2025-09-13T13:55:31Z</time>
      </trkpt>
      <trkpt lat="47.51494" lon="6.48533">
        <ele>315.1</ele>
        <time>2025-09-13T13:55:32Z</time>
      </trkpt>
      <trkpt lat="47.51489" lon="6.48531">
        <ele>315.1</ele>
        <time>2025-09-13T13:55:33Z</time>
      </trkpt>
      <trkpt lat="47.51484" lon="6.48529">
        <ele>315.2</ele>
        <time>2025-09-13T13:55:34Z</time>
      </trkpt>
      <trkpt lat="47.5148" lon="6.48526">
        <ele>315.2</ele>
        <time>2025-09-13T13:55:35Z</time>
      </trkpt>
      <trkpt lat="47.51475" lon="6.48524">
        <ele>315.3</ele>
        <time>2025-09-13T13:55:36Z</time>
      </trkpt>
      <trkpt lat="47.51469" lon="6.48521">
        <ele>315.2</ele>
        <time>2025-09-13T13:55:37Z</time>
      </trkpt>
      <trkpt lat="47.51463" lon="6.48519">
        <ele>315.2</ele>
        <time>2025-09-13T13:55:38Z</time>
      </trkpt>
      <trkpt lat="47.51458" lon="6.48517">
        <ele>315.2</ele>
        <time>2025-09-13T13:55:39Z</time>
      </trkpt>
      <trkpt lat="47.51453" lon="6.48515">
        <ele>315.3</ele>
        <time>2025-09-13T13:55:40Z</time>
      </trkpt>
      <trkpt lat="47.51447" lon="6.48512">
        <ele>315.3</ele>
        <time>2025-09-13T13:55:41Z</time>
      </trkpt>
      <trkpt lat="47.51441" lon="6.4851">
        <ele>315.4</ele>
        <time>2025-09-13T13:55:42Z</time>
      </trkpt>
      <trkpt lat="47.51436" lon="6.48507">
        <ele>315.5</ele>
        <time>2025-09-13T13:55:43Z</time>
      </trkpt>
      <trkpt lat="47.51431" lon="6.48505">
        <ele>315.6</ele>
        <time>2025-09-13T13:55:44Z</time>
      </trkpt>
      <trkpt lat="47.51427" lon="6.48502">
        <ele>315.7</ele>
        <time>2025-09-13T13:55:45Z</time>
      </trkpt>
      <trkpt lat="47.5142" lon="6.48501">
        <ele>315.8</ele>
        <time>2025-09-13T13:55:46Z</time>
      </trkpt>
      <trkpt lat="47.51414" lon="6.48498">
        <ele>316</ele>
        <time>2025-09-13T13:55:47Z</time>
      </trkpt>
      <trkpt lat="47.5141" lon="6.48497">
        <ele>316.1</ele>
        <time>2025-09-13T13:55:48Z</time>
      </trkpt>
      <trkpt lat="47.51404" lon="6.48494">
        <ele>316.3</ele>
        <time>2025-09-13T13:55:49Z</time>
      </trkpt>
      <trkpt lat="47.51399" lon="6.48493">
        <ele>316.4</ele>
        <time>2025-09-13T13:55:50Z</time>
      </trkpt>
      <trkpt lat="47.51394" lon="6.4849">
        <ele>316.6</ele>
        <time>2025-09-13T13:55:51Z</time>
      </trkpt>
      <trkpt lat="47.5139" lon="6.48488">
        <ele>316.7</ele>
        <time>2025-09-13T13:55:52Z</time>
      </trkpt>
      <trkpt lat="47.51386" lon="6.48487">
        <ele>316.8</ele>
        <time>2025-09-13T13:55:53Z</time>
      </trkpt>
      <trkpt lat="47.51381" lon="6.48485">
        <ele>316.9</ele>
        <time>2025-09-13T13:55:54Z</time>
      </trkpt>
      <trkpt lat="47.51376" lon="6.48482">
        <ele>317</ele>
        <time>2025-09-13T13:55:55Z</time>
      </trkpt>
      <trkpt lat="47.51371" lon="6.48481">
        <ele>317.2</ele>
        <time>2025-09-13T13:55:56Z</time>
      </trkpt>
      <trkpt lat="47.51366" lon="6.48478">
        <ele>317.3</ele>
        <time>2025-09-13T13:55:57Z</time>
      </trkpt>
      <trkpt lat="47.51361" lon="6.48476">
        <ele>317.4</ele>
        <time>2025-09-13T13:55:58Z</time>
      </trkpt>
      <trkpt lat="47.51356" lon="6.48472">
        <ele>317.6</ele>
        <time>2025-09-13T13:55:59Z</time>
      </trkpt>
      <trkpt lat="47.51351" lon="6.48469">
        <ele>317.7</ele>
        <time>2025-09-13T13:56:00Z</time>
      </trkpt>
      <trkpt lat="47.51347" lon="6.48466">
        <ele>317.8</ele>
        <time>2025-09-13T13:56:01Z</time>
      </trkpt>
      <trkpt lat="47.51342" lon="6.48464">
        <ele>317.9</ele>
        <time>2025-09-13T13:56:02Z</time>
      </trkpt>
      <trkpt lat="47.51337" lon="6.4846">
        <ele>318.1</ele>
        <time>2025-09-13T13:56:03Z</time>
      </trkpt>
      <trkpt lat="47.51333" lon="6.48456">
        <ele>318.2</ele>
        <time>2025-09-13T13:56:04Z</time>
      </trkpt>
      <trkpt lat="47.51334" lon="6.48455">
        <ele>318.2</ele>
        <time>2025-09-13T13:56:05Z</time>
      </trkpt>
      <trkpt lat="47.51333" lon="6.48452">
        <ele>318.3</ele>
        <time>2025-09-13T13:56:06Z</time>
      </trkpt>
      <trkpt lat="47.51332" lon="6.4845">
        <ele>318.3</ele>
        <time>2025-09-13T13:56:07Z</time>
      </trkpt>
      <trkpt lat="47.51329" lon="6.48447">
        <ele>318.5</ele>
        <time>2025-09-13T13:56:08Z</time>
      </trkpt>
      <trkpt lat="47.51327" lon="6.48446">
        <ele>318.5</ele>
        <time>2025-09-13T13:56:09Z</time>
      </trkpt>
      <trkpt lat="47.51322" lon="6.48443">
        <ele>318.7</ele>
        <time>2025-09-13T13:56:10Z</time>
      </trkpt>
      <trkpt lat="47.51318" lon="6.4844">
        <ele>318.9</ele>
        <time>2025-09-13T13:56:11Z</time>
      </trkpt>
      <trkpt lat="47.51313" lon="6.48435">
        <ele>319.1</ele>
        <time>2025-09-13T13:56:12Z</time>
      </trkpt>
      <trkpt lat="47.51305" lon="6.48428">
        <ele>319.6</ele>
        <time>2025-09-13T13:56:13Z</time>
      </trkpt>
      <trkpt lat="47.51298" lon="6.48423">
        <ele>320</ele>
        <time>2025-09-13T13:56:14Z</time>
      </trkpt>
      <trkpt lat="47.51293" lon="6.48419">
        <ele>320.3</ele>
        <time>2025-09-13T13:56:15Z</time>
      </trkpt>
      <trkpt lat="47.51287" lon="6.48416">
        <ele>320.7</ele>
        <time>2025-09-13T13:56:16Z</time>
      </trkpt>
      <trkpt lat="47.51282" lon="6.48411">
        <ele>321</ele>
        <time>2025-09-13T13:56:17Z</time>
      </trkpt>
      <trkpt lat="47.51277" lon="6.48407">
        <ele>321.3</ele>
        <time>2025-09-13T13:56:18Z</time>
      </trkpt>
      <trkpt lat="47.51273" lon="6.48402">
        <ele>321.7</ele>
        <time>2025-09-13T13:56:19Z</time>
      </trkpt>
      <trkpt lat="47.51269" lon="6.48398">
        <ele>322</ele>
        <time>2025-09-13T13:56:20Z</time>
      </trkpt>
      <trkpt lat="47.51265" lon="6.48394">
        <ele>322.3</ele>
        <time>2025-09-13T13:56:21Z</time>
      </trkpt>
      <trkpt lat="47.51261" lon="6.4839">
        <ele>322.6</ele>
        <time>2025-09-13T13:56:22Z</time>
      </trkpt>
      <trkpt lat="47.51257" lon="6.48388">
        <ele>322.9</ele>
        <time>2025-09-13T13:56:23Z</time>
      </trkpt>
      <trkpt lat="47.51253" lon="6.48384">
        <ele>323.3</ele>
        <time>2025-09-13T13:56:24Z</time>
      </trkpt>
      <trkpt lat="47.51253" lon="6.4838">
        <ele>323.4</ele>
        <time>2025-09-13T13:56:25Z</time>
      </trkpt>
      <trkpt lat="47.51252" lon="6.48378">
        <ele>323.5</ele>
        <time>2025-09-13T13:56:26Z</time>
      </trkpt>
      <trkpt lat="47.51249" lon="6.48374">
        <ele>323.7</ele>
        <time>2025-09-13T13:56:27Z</time>
      </trkpt>
      <trkpt lat="47.51248" lon="6.48372">
        <ele>323.8</ele>
        <time>2025-09-13T13:56:28Z</time>
      </trkpt>
      <trkpt lat="47.51246" lon="6.4837">
        <ele>324</ele>
        <time>2025-09-13T13:56:29Z</time>
      </trkpt>
      <trkpt lat="47.51243" lon="6.48367">
        <ele>324.2</ele>
        <time>2025-09-13T13:56:30Z</time>
      </trkpt>
      <trkpt lat="47.51237" lon="6.48362">
        <ele>324.5</ele>
        <time>2025-09-13T13:56:31Z</time>
      </trkpt>
      <trkpt lat="47.51231" lon="6.48357">
        <ele>324.7</ele>
        <time>2025-09-13T13:56:32Z</time>
      </trkpt>
      <trkpt lat="47.51225" lon="6.48354">
        <ele>324.9</ele>
        <time>2025-09-13T13:56:33Z</time>
      </trkpt>
      <trkpt lat="47.5122" lon="6.4835">
        <ele>325</ele>
        <time>2025-09-13T13:56:34Z</time>
      </trkpt>
      <trkpt lat="47.51215" lon="6.48347">
        <ele>325.2</ele>
        <time>2025-09-13T13:56:35Z</time>
      </trkpt>
      <trkpt lat="47.5121" lon="6.48344">
        <ele>325.3</ele>
        <time>2025-09-13T13:56:36Z</time>
      </trkpt>
      <trkpt lat="47.51205" lon="6.4834">
        <ele>325.4</ele>
        <time>2025-09-13T13:56:37Z</time>
      </trkpt>
      <trkpt lat="47.51201" lon="6.48335">
        <ele>325.4</ele>
        <time>2025-09-13T13:56:38Z</time>
      </trkpt>
      <trkpt lat="47.51198" lon="6.48333">
        <ele>325.5</ele>
        <time>2025-09-13T13:56:39Z</time>
      </trkpt>
      <trkpt lat="47.51192" lon="6.4833">
        <ele>325.5</ele>
        <time>2025-09-13T13:56:40Z</time>
      </trkpt>
      <trkpt lat="47.51185" lon="6.48327">
        <ele>325.6</ele>
        <time>2025-09-13T13:56:41Z</time>
      </trkpt>
      <trkpt lat="47.5118" lon="6.48323">
        <ele>325.5</ele>
        <time>2025-09-13T13:56:42Z</time>
      </trkpt>
      <trkpt lat="47.51174" lon="6.48319">
        <ele>325.5</ele>
        <time>2025-09-13T13:56:43Z</time>
      </trkpt>
      <trkpt lat="47.5117" lon="6.48315">
        <ele>325.4</ele>
        <time>2025-09-13T13:56:44Z</time>
      </trkpt>
      <trkpt lat="47.51165" lon="6.48311">
        <ele>325.3</ele>
        <time>2025-09-13T13:56:45Z</time>
      </trkpt>
      <trkpt lat="47.5116" lon="6.48307">
        <ele>325.1</ele>
        <time>2025-09-13T13:56:46Z</time>
      </trkpt>
      <trkpt lat="47.51156" lon="6.48303">
        <ele>325</ele>
        <time>2025-09-13T13:56:47Z</time>
      </trkpt>
      <trkpt lat="47.51151" lon="6.48299">
        <ele>324.8</ele>
        <time>2025-09-13T13:56:48Z</time>
      </trkpt>
      <trkpt lat="47.51145" lon="6.48294">
        <ele>324.6</ele>
        <time>2025-09-13T13:56:49Z</time>
      </trkpt>
      <trkpt lat="47.5114" lon="6.48289">
        <ele>324.3</ele>
        <time>2025-09-13T13:56:50Z</time>
      </trkpt>
      <trkpt lat="47.51136" lon="6.48285">
        <ele>324.1</ele>
        <time>2025-09-13T13:56:51Z</time>
      </trkpt>
      <trkpt lat="47.5113" lon="6.4828">
        <ele>323.9</ele>
        <time>2025-09-13T13:56:52Z</time>
      </trkpt>
      <trkpt lat="47.51124" lon="6.48275">
        <ele>323.6</ele>
        <time>2025-09-13T13:56:53Z</time>
      </trkpt>
      <trkpt lat="47.51117" lon="6.4827">
        <ele>323.4</ele>
        <time>2025-09-13T13:56:54Z</time>
      </trkpt>
      <trkpt lat="47.51112" lon="6.48266">
        <ele>323.3</ele>
        <time>2025-09-13T13:56:55Z</time>
      </trkpt>
      <trkpt lat="47.51106" lon="6.48261">
        <ele>323.2</ele>
        <time>2025-09-13T13:56:56Z</time>
      </trkpt>
      <trkpt lat="47.51101" lon="6.48256">
        <ele>323.1</ele>
        <time>2025-09-13T13:56:57Z</time>
      </trkpt>
      <trkpt lat="47.51095" lon="6.48251">
        <ele>323.1</ele>
        <time>2025-09-13T13:56:58Z</time>
      </trkpt>
      <trkpt lat="47.51088" lon="6.48247">
        <ele>323.1</ele>
        <time>2025-09-13T13:56:59Z</time>
      </trkpt>
      <trkpt lat="47.51082" lon="6.48244">
        <ele>323.1</ele>
        <time>2025-09-13T13:57:00Z</time>
      </trkpt>
      <trkpt lat="47.51076" lon="6.48241">
        <ele>323.1</ele>
        <time>2025-09-13T13:57:01Z</time>
      </trkpt>
      <trkpt lat="47.51069" lon="6.48239">
        <ele>323.1</ele>
        <time>2025-09-13T13:57:02Z</time>
      </trkpt>
      <trkpt lat="47.51063" lon="6.48236">
        <ele>323.2</ele>
        <time>2025-09-13T13:57:03Z</time>
      </trkpt>
      <trkpt lat="47.51056" lon="6.48234">
        <ele>323.3</ele>
        <time>2025-09-13T13:57:04Z</time>
      </trkpt>
      <trkpt lat="47.5105" lon="6.48232">
        <ele>323.4</ele>
        <time>2025-09-13T13:57:05Z</time>
      </trkpt>
      <trkpt lat="47.51046" lon="6.4823">
        <ele>323.6</ele>
        <time>2025-09-13T13:57:06Z</time>
      </trkpt>
      <trkpt lat="47.5104" lon="6.48227">
        <ele>323.7</ele>
        <time>2025-09-13T13:57:07Z</time>
      </trkpt>
      <trkpt lat="47.51034" lon="6.48225">
        <ele>323.8</ele>
        <time>2025-09-13T13:57:08Z</time>
      </trkpt>
      <trkpt lat="47.51029" lon="6.48223">
        <ele>324</ele>
        <time>2025-09-13T13:57:09Z</time>
      </trkpt>
      <trkpt lat="47.51023" lon="6.48222">
        <ele>324.1</ele>
        <time>2025-09-13T13:57:10Z</time>
      </trkpt>
      <trkpt lat="47.51016" lon="6.4822">
        <ele>324.2</ele>
        <time>2025-09-13T13:57:11Z</time>
      </trkpt>
      <trkpt lat="47.51011" lon="6.48218">
        <ele>324.3</ele>
        <time>2025-09-13T13:57:13Z</time>
      </trkpt>
      <trkpt lat="47.51005" lon="6.48217">
        <ele>324.3</ele>
        <time>2025-09-13T13:57:14Z</time>
      </trkpt>
      <trkpt lat="47.51001" lon="6.48215">
        <ele>324.3</ele>
        <time>2025-09-13T13:57:15Z</time>
      </trkpt>
      <trkpt lat="47.50995" lon="6.48213">
        <ele>324.3</ele>
        <time>2025-09-13T13:57:16Z</time>
      </trkpt>
      <trkpt lat="47.5099" lon="6.48211">
        <ele>324.4</ele>
        <time>2025-09-13T13:57:17Z</time>
      </trkpt>
      <trkpt lat="47.50984" lon="6.4821">
        <ele>324.4</ele>
        <time>2025-09-13T13:57:18Z</time>
      </trkpt>
      <trkpt lat="47.50978" lon="6.48208">
        <ele>324.5</ele>
        <time>2025-09-13T13:57:19Z</time>
      </trkpt>
      <trkpt lat="47.50972" lon="6.48206">
        <ele>324.7</ele>
        <time>2025-09-13T13:57:20Z</time>
      </trkpt>
      <trkpt lat="47.50967" lon="6.48204">
        <ele>324.9</ele>
        <time>2025-09-13T13:57:21Z</time>
      </trkpt>
      <trkpt lat="47.50961" lon="6.48202">
        <ele>325.1</ele>
        <time>2025-09-13T13:57:22Z</time>
      </trkpt>
      <trkpt lat="47.50954" lon="6.48199">
        <ele>325.5</ele>
        <time>2025-09-13T13:57:23Z</time>
      </trkpt>
      <trkpt lat="47.50949" lon="6.48197">
        <ele>325.8</ele>
        <time>2025-09-13T13:57:24Z</time>
      </trkpt>
      <trkpt lat="47.50944" lon="6.48193">
        <ele>326.1</ele>
        <time>2025-09-13T13:57:25Z</time>
      </trkpt>
      <trkpt lat="47.50939" lon="6.48191">
        <ele>326.4</ele>
        <time>2025-09-13T13:57:26Z</time>
      </trkpt>
      <trkpt lat="47.50934" lon="6.48188">
        <ele>326.7</ele>
        <time>2025-09-13T13:57:27Z</time>
      </trkpt>
      <trkpt lat="47.5093" lon="6.48185">
        <ele>326.9</ele>
        <time>2025-09-13T13:57:28Z</time>
      </trkpt>
      <trkpt lat="47.50925" lon="6.48183">
        <ele>327.1</ele>
        <time>2025-09-13T13:57:29Z</time>
      </trkpt>
      <trkpt lat="47.50921" lon="6.48179">
        <ele>327.3</ele>
        <time>2025-09-13T13:57:30Z</time>
      </trkpt>
      <trkpt lat="47.50917" lon="6.48175">
        <ele>327.4</ele>
        <time>2025-09-13T13:57:31Z</time>
      </trkpt>
      <trkpt lat="47.50913" lon="6.48172">
        <ele>327.4</ele>
        <time>2025-09-13T13:57:32Z</time>
      </trkpt>
      <trkpt lat="47.50909" lon="6.48166">
        <ele>327.5</ele>
        <time>2025-09-13T13:57:33Z</time>
      </trkpt>
      <trkpt lat="47.50905" lon="6.48161">
        <ele>327.5</ele>
        <time>2025-09-13T13:57:34Z</time>
      </trkpt>
      <trkpt lat="47.50902" lon="6.48154">
        <ele>327.5</ele>
        <time>2025-09-13T13:57:35Z</time>
      </trkpt>
      <trkpt lat="47.50898" lon="6.48149">
        <ele>327.6</ele>
        <time>2025-09-13T13:57:36Z</time>
      </trkpt>
      <trkpt lat="47.50895" lon="6.48145">
        <ele>327.6</ele>
        <time>2025-09-13T13:57:37Z</time>
      </trkpt>
      <trkpt lat="47.50892" lon="6.48139">
        <ele>327.5</ele>
        <time>2025-09-13T13:57:38Z</time>
      </trkpt>
      <trkpt lat="47.50888" lon="6.48135">
        <ele>327.5</ele>
        <time>2025-09-13T13:57:39Z</time>
      </trkpt>
      <trkpt lat="47.50884" lon="6.48131">
        <ele>327.5</ele>
        <time>2025-09-13T13:57:40Z</time>
      </trkpt>
      <trkpt lat="47.5088" lon="6.48125">
        <ele>327.5</ele>
        <time>2025-09-13T13:57:41Z</time>
      </trkpt>
      <trkpt lat="47.50875" lon="6.4812">
        <ele>327.4</ele>
        <time>2025-09-13T13:57:42Z</time>
      </trkpt>
      <trkpt lat="47.5087" lon="6.48114">
        <ele>327.4</ele>
        <time>2025-09-13T13:57:43Z</time>
      </trkpt>
      <trkpt lat="47.50866" lon="6.48108">
        <ele>327.4</ele>
        <time>2025-09-13T13:57:44Z</time>
      </trkpt>
      <trkpt lat="47.50861" lon="6.48101">
        <ele>327.3</ele>
        <time>2025-09-13T13:57:45Z</time>
      </trkpt>
      <trkpt lat="47.50858" lon="6.48096">
        <ele>327.3</ele>
        <time>2025-09-13T13:57:46Z</time>
      </trkpt>
      <trkpt lat="47.50854" lon="6.48089">
        <ele>327.3</ele>
        <time>2025-09-13T13:57:47Z</time>
      </trkpt>
      <trkpt lat="47.5085" lon="6.48083">
        <ele>327.3</ele>
        <time>2025-09-13T13:57:48Z</time>
      </trkpt>
      <trkpt lat="47.50846" lon="6.48076">
        <ele>327.3</ele>
        <time>2025-09-13T13:57:49Z</time>
      </trkpt>
      <trkpt lat="47.50842" lon="6.48069">
        <ele>327.2</ele>
        <time>2025-09-13T13:57:50Z</time>
      </trkpt>
      <trkpt lat="47.50838" lon="6.48063">
        <ele>327.3</ele>
        <time>2025-09-13T13:57:51Z</time>
      </trkpt>
      <trkpt lat="47.50833" lon="6.48057">
        <ele>327.3</ele>
        <time>2025-09-13T13:57:52Z</time>
      </trkpt>
      <trkpt lat="47.50829" lon="6.48051">
        <ele>327.3</ele>
        <time>2025-09-13T13:57:53Z</time>
      </trkpt>
      <trkpt lat="47.50826" lon="6.48044">
        <ele>327.3</ele>
        <time>2025-09-13T13:57:54Z</time>
      </trkpt>
      <trkpt lat="47.50823" lon="6.48039">
        <ele>327.4</ele>
        <time>2025-09-13T13:57:55Z</time>
      </trkpt>
      <trkpt lat="47.50819" lon="6.48032">
        <ele>327.4</ele>
        <time>2025-09-13T13:57:56Z</time>
      </trkpt>
      <trkpt lat="47.50815" lon="6.48026">
        <ele>327.5</ele>
        <time>2025-09-13T13:57:57Z</time>
      </trkpt>
      <trkpt lat="47.50811" lon="6.4802">
        <ele>327.5</ele>
        <time>2025-09-13T13:57:58Z</time>
      </trkpt>
      <trkpt lat="47.50807" lon="6.48014">
        <ele>327.6</ele>
        <time>2025-09-13T13:57:59Z</time>
      </trkpt>
      <trkpt lat="47.50803" lon="6.48008">
        <ele>327.6</ele>
        <time>2025-09-13T13:58:00Z</time>
      </trkpt>
      <trkpt lat="47.508" lon="6.48003">
        <ele>327.6</ele>
        <time>2025-09-13T13:58:01Z</time>
      </trkpt>
      <trkpt lat="47.50796" lon="6.47997">
        <ele>327.7</ele>
        <time>2025-09-13T13:58:02Z</time>
      </trkpt>
      <trkpt lat="47.50793" lon="6.47989">
        <ele>327.7</ele>
        <time>2025-09-13T13:58:03Z</time>
      </trkpt>
      <trkpt lat="47.50791" lon="6.47982">
        <ele>327.8</ele>
        <time>2025-09-13T13:58:04Z</time>
      </trkpt>
      <trkpt lat="47.50787" lon="6.47977">
        <ele>327.8</ele>
        <time>2025-09-13T13:58:05Z</time>
      </trkpt>
      <trkpt lat="47.50784" lon="6.47971">
        <ele>327.9</ele>
        <time>2025-09-13T13:58:06Z</time>
      </trkpt>
      <trkpt lat="47.5078" lon="6.47965">
        <ele>328</ele>
        <time>2025-09-13T13:58:07Z</time>
      </trkpt>
      <trkpt lat="47.50776" lon="6.47958">
        <ele>328.1</ele>
        <time>2025-09-13T13:58:08Z</time>
      </trkpt>
      <trkpt lat="47.50774" lon="6.47952">
        <ele>328.1</ele>
        <time>2025-09-13T13:58:09Z</time>
      </trkpt>
      <trkpt lat="47.50771" lon="6.47945">
        <ele>328.2</ele>
        <time>2025-09-13T13:58:10Z</time>
      </trkpt>
      <trkpt lat="47.50767" lon="6.4794">
        <ele>328.3</ele>
        <time>2025-09-13T13:58:11Z</time>
      </trkpt>
      <trkpt lat="47.50763" lon="6.47933">
        <ele>328.4</ele>
        <time>2025-09-13T13:58:12Z</time>
      </trkpt>
      <trkpt lat="47.50759" lon="6.47926">
        <ele>328.5</ele>
        <time>2025-09-13T13:58:13Z</time>
      </trkpt>
      <trkpt lat="47.50756" lon="6.4792">
        <ele>328.6</ele>
        <time>2025-09-13T13:58:14Z</time>
      </trkpt>
      <trkpt lat="47.50753" lon="6.47914">
        <ele>328.7</ele>
        <time>2025-09-13T13:58:15Z</time>
      </trkpt>
      <trkpt lat="47.5075" lon="6.47907">
        <ele>328.8</ele>
        <time>2025-09-13T13:58:16Z</time>
      </trkpt>
      <trkpt lat="47.50746" lon="6.479">
        <ele>328.9</ele>
        <time>2025-09-13T13:58:17Z</time>
      </trkpt>
      <trkpt lat="47.50743" lon="6.47893">
        <ele>329.1</ele>
        <time>2025-09-13T13:58:18Z</time>
      </trkpt>
      <trkpt lat="47.50739" lon="6.47891">
        <ele>329.2</ele>
        <time>2025-09-13T13:58:19Z</time>
      </trkpt>
      <trkpt lat="47.50734" lon="6.47891">
        <ele>329.3</ele>
        <time>2025-09-13T13:58:20Z</time>
      </trkpt>
      <trkpt lat="47.50729" lon="6.47893">
        <ele>329.3</ele>
        <time>2025-09-13T13:58:21Z</time>
      </trkpt>
      <trkpt lat="47.50724" lon="6.47899">
        <ele>329.4</ele>
        <time>2025-09-13T13:58:22Z</time>
      </trkpt>
      <trkpt lat="47.50721" lon="6.47904">
        <ele>329.4</ele>
        <time>2025-09-13T13:58:23Z</time>
      </trkpt>
      <trkpt lat="47.50719" lon="6.47911">
        <ele>329.5</ele>
        <time>2025-09-13T13:58:24Z</time>
      </trkpt>
      <trkpt lat="47.50716" lon="6.47916">
        <ele>329.5</ele>
        <time>2025-09-13T13:58:25Z</time>
      </trkpt>
      <trkpt lat="47.50711" lon="6.47918">
        <ele>329.5</ele>
        <time>2025-09-13T13:58:26Z</time>
      </trkpt>
      <trkpt lat="47.50705" lon="6.47917">
        <ele>329.5</ele>
        <time>2025-09-13T13:58:27Z</time>
      </trkpt>
      <trkpt lat="47.50701" lon="6.47914">
        <ele>329.5</ele>
        <time>2025-09-13T13:58:28Z</time>
      </trkpt>
      <trkpt lat="47.50696" lon="6.4791">
        <ele>329.5</ele>
        <time>2025-09-13T13:58:29Z</time>
      </trkpt>
      <trkpt lat="47.50691" lon="6.47908">
        <ele>329.5</ele>
        <time>2025-09-13T13:58:30Z</time>
      </trkpt>
      <trkpt lat="47.50687" lon="6.47905">
        <ele>329.6</ele>
        <time>2025-09-13T13:58:31Z</time>
      </trkpt>
      <trkpt lat="47.50682" lon="6.47903">
        <ele>329.7</ele>
        <time>2025-09-13T13:58:32Z</time>
      </trkpt>
      <trkpt lat="47.50678" lon="6.47902">
        <ele>329.8</ele>
        <time>2025-09-13T13:58:33Z</time>
      </trkpt>
      <trkpt lat="47.50673" lon="6.479">
        <ele>329.9</ele>
        <time>2025-09-13T13:58:34Z</time>
      </trkpt>
      <trkpt lat="47.50669" lon="6.47898">
        <ele>330</ele>
        <time>2025-09-13T13:58:35Z</time>
      </trkpt>
      <trkpt lat="47.50664" lon="6.47896">
        <ele>330.1</ele>
        <time>2025-09-13T13:58:36Z</time>
      </trkpt>
      <trkpt lat="47.5066" lon="6.47895">
        <ele>330.1</ele>
        <time>2025-09-13T13:58:37Z</time>
      </trkpt>
      <trkpt lat="47.50656" lon="6.47893">
        <ele>330.2</ele>
        <time>2025-09-13T13:58:38Z</time>
      </trkpt>
      <trkpt lat="47.50652" lon="6.47891">
        <ele>330.3</ele>
        <time>2025-09-13T13:58:39Z</time>
      </trkpt>
      <trkpt lat="47.50647" lon="6.47888">
        <ele>330.4</ele>
        <time>2025-09-13T13:58:40Z</time>
      </trkpt>
      <trkpt lat="47.50643" lon="6.47887">
        <ele>330.5</ele>
        <time>2025-09-13T13:58:41Z</time>
      </trkpt>
      <trkpt lat="47.50643" lon="6.47885">
        <ele>330.6</ele>
        <time>2025-09-13T13:58:42Z</time>
      </trkpt>
      <trkpt lat="47.50641" lon="6.47883">
        <ele>330.6</ele>
        <time>2025-09-13T13:58:43Z</time>
      </trkpt>
      <trkpt lat="47.50639" lon="6.47882">
        <ele>330.7</ele>
        <time>2025-09-13T13:58:44Z</time>
      </trkpt>
      <trkpt lat="47.50635" lon="6.4788">
        <ele>330.8</ele>
        <time>2025-09-13T13:58:45Z</time>
      </trkpt>
      <trkpt lat="47.50632" lon="6.47879">
        <ele>330.8</ele>
        <time>2025-09-13T13:58:46Z</time>
      </trkpt>
      <trkpt lat="47.5063" lon="6.47878">
        <ele>330.9</ele>
        <time>2025-09-13T13:58:47Z</time>
      </trkpt>
      <trkpt lat="47.50626" lon="6.47876">
        <ele>331</ele>
        <time>2025-09-13T13:58:48Z</time>
      </trkpt>
      <trkpt lat="47.50622" lon="6.47874">
        <ele>331</ele>
        <time>2025-09-13T13:58:49Z</time>
      </trkpt>
      <trkpt lat="47.50613" lon="6.47871">
        <ele>331.2</ele>
        <time>2025-09-13T13:58:50Z</time>
      </trkpt>
      <trkpt lat="47.50608" lon="6.47869">
        <ele>331.4</ele>
        <time>2025-09-13T13:58:51Z</time>
      </trkpt>
      <trkpt lat="47.50603" lon="6.47867">
        <ele>331.5</ele>
        <time>2025-09-13T13:58:52Z</time>
      </trkpt>
      <trkpt lat="47.50598" lon="6.47866">
        <ele>331.6</ele>
        <time>2025-09-13T13:58:53Z</time>
      </trkpt>
      <trkpt lat="47.50593" lon="6.47864">
        <ele>331.8</ele>
        <time>2025-09-13T13:58:54Z</time>
      </trkpt>
      <trkpt lat="47.50588" lon="6.47862">
        <ele>331.9</ele>
        <time>2025-09-13T13:58:55Z</time>
      </trkpt>
      <trkpt lat="47.50584" lon="6.4786">
        <ele>332</ele>
        <time>2025-09-13T13:58:56Z</time>
      </trkpt>
      <trkpt lat="47.50579" lon="6.47858">
        <ele>332.2</ele>
        <time>2025-09-13T13:58:57Z</time>
      </trkpt>
      <trkpt lat="47.50575" lon="6.47856">
        <ele>332.3</ele>
        <time>2025-09-13T13:58:58Z</time>
      </trkpt>
      <trkpt lat="47.50571" lon="6.47854">
        <ele>332.4</ele>
        <time>2025-09-13T13:58:59Z</time>
      </trkpt>
      <trkpt lat="47.50567" lon="6.47852">
        <ele>332.5</ele>
        <time>2025-09-13T13:59:00Z</time>
      </trkpt>
      <trkpt lat="47.50562" lon="6.4785">
        <ele>332.7</ele>
        <time>2025-09-13T13:59:01Z</time>
      </trkpt>
      <trkpt lat="47.50558" lon="6.47848">
        <ele>332.8</ele>
        <time>2025-09-13T13:59:02Z</time>
      </trkpt>
      <trkpt lat="47.50553" lon="6.47846">
        <ele>333</ele>
        <time>2025-09-13T13:59:03Z</time>
      </trkpt>
      <trkpt lat="47.50549" lon="6.47844">
        <ele>333.1</ele>
        <time>2025-09-13T13:59:04Z</time>
      </trkpt>
      <trkpt lat="47.50544" lon="6.47842">
        <ele>333.3</ele>
        <time>2025-09-13T13:59:05Z</time>
      </trkpt>
      <trkpt lat="47.50541" lon="6.47841">
        <ele>333.4</ele>
        <time>2025-09-13T13:59:06Z</time>
      </trkpt>
      <trkpt lat="47.50536" lon="6.47839">
        <ele>333.6</ele>
        <time>2025-09-13T13:59:07Z</time>
      </trkpt>
      <trkpt lat="47.50532" lon="6.47837">
        <ele>333.8</ele>
        <time>2025-09-13T13:59:08Z</time>
      </trkpt>
      <trkpt lat="47.50528" lon="6.47835">
        <ele>333.9</ele>
        <time>2025-09-13T13:59:09Z</time>
      </trkpt>
      <trkpt lat="47.50524" lon="6.47833">
        <ele>334.1</ele>
        <time>2025-09-13T13:59:10Z</time>
      </trkpt>
      <trkpt lat="47.50519" lon="6.47831">
        <ele>334.2</ele>
        <time>2025-09-13T13:59:11Z</time>
      </trkpt>
      <trkpt lat="47.50516" lon="6.4783">
        <ele>334.4</ele>
        <time>2025-09-13T13:59:12Z</time>
      </trkpt>
      <trkpt lat="47.50512" lon="6.47828">
        <ele>334.5</ele>
        <time>2025-09-13T13:59:13Z</time>
      </trkpt>
      <trkpt lat="47.50507" lon="6.47826">
        <ele>334.7</ele>
        <time>2025-09-13T13:59:14Z</time>
      </trkpt>
      <trkpt lat="47.50503" lon="6.47824">
        <ele>334.8</ele>
        <time>2025-09-13T13:59:15Z</time>
      </trkpt>
      <trkpt lat="47.50499" lon="6.47822">
        <ele>335</ele>
        <time>2025-09-13T13:59:16Z</time>
      </trkpt>
      <trkpt lat="47.50495" lon="6.4782">
        <ele>335.2</ele>
        <time>2025-09-13T13:59:17Z</time>
      </trkpt>
      <trkpt lat="47.5049" lon="6.47818">
        <ele>335.3</ele>
        <time>2025-09-13T13:59:18Z</time>
      </trkpt>
      <trkpt lat="47.50486" lon="6.47817">
        <ele>335.5</ele>
        <time>2025-09-13T13:59:19Z</time>
      </trkpt>
      <trkpt lat="47.50483" lon="6.47814">
        <ele>335.6</ele>
        <time>2025-09-13T13:59:20Z</time>
      </trkpt>
      <trkpt lat="47.50478" lon="6.47813">
        <ele>335.8</ele>
        <time>2025-09-13T13:59:21Z</time>
      </trkpt>
      <trkpt lat="47.50473" lon="6.47811">
        <ele>336</ele>
        <time>2025-09-13T13:59:22Z</time>
      </trkpt>
      <trkpt lat="47.50469" lon="6.47809">
        <ele>336.1</ele>
        <time>2025-09-13T13:59:23Z</time>
      </trkpt>
      <trkpt lat="47.50465" lon="6.47807">
        <ele>336.3</ele>
        <time>2025-09-13T13:59:24Z</time>
      </trkpt>
      <trkpt lat="47.50461" lon="6.47805">
        <ele>336.4</ele>
        <time>2025-09-13T13:59:25Z</time>
      </trkpt>
      <trkpt lat="47.50457" lon="6.47804">
        <ele>336.6</ele>
        <time>2025-09-13T13:59:26Z</time>
      </trkpt>
      <trkpt lat="47.50453" lon="6.47802">
        <ele>336.7</ele>
        <time>2025-09-13T13:59:27Z</time>
      </trkpt>
      <trkpt lat="47.50449" lon="6.478">
        <ele>336.9</ele>
        <time>2025-09-13T13:59:28Z</time>
      </trkpt>
      <trkpt lat="47.50445" lon="6.47799">
        <ele>337</ele>
        <time>2025-09-13T13:59:29Z</time>
      </trkpt>
      <trkpt lat="47.5044" lon="6.47797">
        <ele>337.2</ele>
        <time>2025-09-13T13:59:30Z</time>
      </trkpt>
      <trkpt lat="47.50436" lon="6.47795">
        <ele>337.3</ele>
        <time>2025-09-13T13:59:31Z</time>
      </trkpt>
      <trkpt lat="47.50432" lon="6.47793">
        <ele>337.5</ele>
        <time>2025-09-13T13:59:32Z</time>
      </trkpt>
      <trkpt lat="47.50424" lon="6.4779">
        <ele>337.7</ele>
        <time>2025-09-13T13:59:33Z</time>
      </trkpt>
      <trkpt lat="47.5042" lon="6.47788">
        <ele>337.9</ele>
        <time>2025-09-13T13:59:34Z</time>
      </trkpt>
      <trkpt lat="47.50416" lon="6.47786">
        <ele>338</ele>
        <time>2025-09-13T13:59:35Z</time>
      </trkpt>
      <trkpt lat="47.50412" lon="6.47785">
        <ele>338.2</ele>
        <time>2025-09-13T13:59:36Z</time>
      </trkpt>
      <trkpt lat="47.50408" lon="6.47783">
        <ele>338.3</ele>
        <time>2025-09-13T13:59:37Z</time>
      </trkpt>
      <trkpt lat="47.50404" lon="6.47781">
        <ele>338.5</ele>
        <time>2025-09-13T13:59:38Z</time>
      </trkpt>
      <trkpt lat="47.504" lon="6.47779">
        <ele>338.7</ele>
        <time>2025-09-13T13:59:39Z</time>
      </trkpt>
      <trkpt lat="47.50396" lon="6.47777">
        <ele>338.8</ele>
        <time>2025-09-13T13:59:40Z</time>
      </trkpt>
      <trkpt lat="47.50392" lon="6.47775">
        <ele>339</ele>
        <time>2025-09-13T13:59:41Z</time>
      </trkpt>
      <trkpt lat="47.50387" lon="6.47773">
        <ele>339.2</ele>
        <time>2025-09-13T13:59:42Z</time>
      </trkpt>
      <trkpt lat="47.50383" lon="6.47771">
        <ele>339.4</ele>
        <time>2025-09-13T13:59:43Z</time>
      </trkpt>
      <trkpt lat="47.5038" lon="6.4777">
        <ele>339.5</ele>
        <time>2025-09-13T13:59:44Z</time>
      </trkpt>
      <trkpt lat="47.50376" lon="6.47767">
        <ele>339.7</ele>
        <time>2025-09-13T13:59:45Z</time>
      </trkpt>
      <trkpt lat="47.50372" lon="6.47765">
        <ele>339.9</ele>
        <time>2025-09-13T13:59:46Z</time>
      </trkpt>
      <trkpt lat="47.50368" lon="6.47764">
        <ele>340</ele>
        <time>2025-09-13T13:59:47Z</time>
      </trkpt>
      <trkpt lat="47.50364" lon="6.47762">
        <ele>340.2</ele>
        <time>2025-09-13T13:59:48Z</time>
      </trkpt>
      <trkpt lat="47.5036" lon="6.4776">
        <ele>340.4</ele>
        <time>2025-09-13T13:59:49Z</time>
      </trkpt>
      <trkpt lat="47.50356" lon="6.47758">
        <ele>340.6</ele>
        <time>2025-09-13T13:59:50Z</time>
      </trkpt>
      <trkpt lat="47.50352" lon="6.47756">
        <ele>340.7</ele>
        <time>2025-09-13T13:59:51Z</time>
      </trkpt>
      <trkpt lat="47.50347" lon="6.47755">
        <ele>340.9</ele>
        <time>2025-09-13T13:59:52Z</time>
      </trkpt>
      <trkpt lat="47.50343" lon="6.47752">
        <ele>341.1</ele>
        <time>2025-09-13T13:59:53Z</time>
      </trkpt>
      <trkpt lat="47.5034" lon="6.47751">
        <ele>341.3</ele>
        <time>2025-09-13T13:59:54Z</time>
      </trkpt>
      <trkpt lat="47.50335" lon="6.47749">
        <ele>341.5</ele>
        <time>2025-09-13T13:59:55Z</time>
      </trkpt>
      <trkpt lat="47.50331" lon="6.47747">
        <ele>341.7</ele>
        <time>2025-09-13T13:59:56Z</time>
      </trkpt>
      <trkpt lat="47.50328" lon="6.47746">
        <ele>341.8</ele>
        <time>2025-09-13T13:59:57Z</time>
      </trkpt>
      <trkpt lat="47.50323" lon="6.47745">
        <ele>342</ele>
        <time>2025-09-13T13:59:58Z</time>
      </trkpt>
      <trkpt lat="47.50319" lon="6.47744">
        <ele>342.2</ele>
        <time>2025-09-13T13:59:59Z</time>
      </trkpt>
      <trkpt lat="47.50315" lon="6.47743">
        <ele>342.4</ele>
        <time>2025-09-13T14:00:00Z</time>
      </trkpt>
      <trkpt lat="47.5031" lon="6.47742">
        <ele>342.6</ele>
        <time>2025-09-13T14:00:01Z</time>
      </trkpt>
      <trkpt lat="47.50306" lon="6.47742">
        <ele>342.8</ele>
        <time>2025-09-13T14:00:02Z</time>
      </trkpt>
      <trkpt lat="47.50302" lon="6.47743">
        <ele>342.9</ele>
        <time>2025-09-13T14:00:03Z</time>
      </trkpt>
      <trkpt lat="47.50297" lon="6.47744">
        <ele>343.1</ele>
        <time>2025-09-13T14:00:04Z</time>
      </trkpt>
      <trkpt lat="47.50293" lon="6.47746">
        <ele>343.3</ele>
        <time>2025-09-13T14:00:05Z</time>
      </trkpt>
      <trkpt lat="47.50289" lon="6.47748">
        <ele>343.4</ele>
        <time>2025-09-13T14:00:06Z</time>
      </trkpt>
      <trkpt lat="47.50286" lon="6.47751">
        <ele>343.6</ele>
        <time>2025-09-13T14:00:07Z</time>
      </trkpt>
      <trkpt lat="47.50282" lon="6.47754">
        <ele>343.8</ele>
        <time>2025-09-13T14:00:08Z</time>
      </trkpt>
      <trkpt lat="47.50279" lon="6.47757">
        <ele>343.9</ele>
        <time>2025-09-13T14:00:09Z</time>
      </trkpt>
      <trkpt lat="47.50275" lon="6.47761">
        <ele>344.1</ele>
        <time>2025-09-13T14:00:10Z</time>
      </trkpt>
      <trkpt lat="47.50271" lon="6.47764">
        <ele>344.3</ele>
        <time>2025-09-13T14:00:11Z</time>
      </trkpt>
      <trkpt lat="47.50268" lon="6.47769">
        <ele>344.4</ele>
        <time>2025-09-13T14:00:12Z</time>
      </trkpt>
      <trkpt lat="47.50264" lon="6.47773">
        <ele>344.6</ele>
        <time>2025-09-13T14:00:13Z</time>
      </trkpt>
      <trkpt lat="47.5026" lon="6.47777">
        <ele>344.7</ele>
        <time>2025-09-13T14:00:14Z</time>
      </trkpt>
      <trkpt lat="47.50257" lon="6.47782">
        <ele>344.9</ele>
        <time>2025-09-13T14:00:15Z</time>
      </trkpt>
      <trkpt lat="47.50253" lon="6.47786">
        <ele>345</ele>
        <time>2025-09-13T14:00:16Z</time>
      </trkpt>
      <trkpt lat="47.5025" lon="6.47789">
        <ele>345.2</ele>
        <time>2025-09-13T14:00:17Z</time>
      </trkpt>
      <trkpt lat="47.50246" lon="6.47793">
        <ele>345.3</ele>
        <time>2025-09-13T14:00:18Z</time>
      </trkpt>
      <trkpt lat="47.50243" lon="6.47798">
        <ele>345.5</ele>
        <time>2025-09-13T14:00:19Z</time>
      </trkpt>
      <trkpt lat="47.5024" lon="6.47802">
        <ele>345.6</ele>
        <time>2025-09-13T14:00:20Z</time>
      </trkpt>
      <trkpt lat="47.50236" lon="6.47806">
        <ele>345.7</ele>
        <time>2025-09-13T14:00:21Z</time>
      </trkpt>
      <trkpt lat="47.50232" lon="6.4781">
        <ele>345.9</ele>
        <time>2025-09-13T14:00:22Z</time>
      </trkpt>
      <trkpt lat="47.50229" lon="6.47814">
        <ele>346</ele>
        <time>2025-09-13T14:00:23Z</time>
      </trkpt>
      <trkpt lat="47.50226" lon="6.47818">
        <ele>346.2</ele>
        <time>2025-09-13T14:00:24Z</time>
      </trkpt>
      <trkpt lat="47.50222" lon="6.47822">
        <ele>346.4</ele>
        <time>2025-09-13T14:00:25Z</time>
      </trkpt>
      <trkpt lat="47.50219" lon="6.47826">
        <ele>346.5</ele>
        <time>2025-09-13T14:00:26Z</time>
      </trkpt>
      <trkpt lat="47.50216" lon="6.47829">
        <ele>346.7</ele>
        <time>2025-09-13T14:00:27Z</time>
      </trkpt>
      <trkpt lat="47.50212" lon="6.47832">
        <ele>346.8</ele>
        <time>2025-09-13T14:00:28Z</time>
      </trkpt>
      <trkpt lat="47.50209" lon="6.47836">
        <ele>347</ele>
        <time>2025-09-13T14:00:29Z</time>
      </trkpt>
      <trkpt lat="47.50206" lon="6.4784">
        <ele>347.2</ele>
        <time>2025-09-13T14:00:30Z</time>
      </trkpt>
      <trkpt lat="47.50203" lon="6.47844">
        <ele>347.3</ele>
        <time>2025-09-13T14:00:31Z</time>
      </trkpt>
      <trkpt lat="47.502" lon="6.47848">
        <ele>347.5</ele>
        <time>2025-09-13T14:00:32Z</time>
      </trkpt>
      <trkpt lat="47.50197" lon="6.47851">
        <ele>347.7</ele>
        <time>2025-09-13T14:00:33Z</time>
      </trkpt>
      <trkpt lat="47.50194" lon="6.47855">
        <ele>347.9</ele>
        <time>2025-09-13T14:00:34Z</time>
      </trkpt>
      <trkpt lat="47.5019" lon="6.47857">
        <ele>348.1</ele>
        <time>2025-09-13T14:00:35Z</time>
      </trkpt>
      <trkpt lat="47.50187" lon="6.47861">
        <ele>348.2</ele>
        <time>2025-09-13T14:00:36Z</time>
      </trkpt>
      <trkpt lat="47.50184" lon="6.47864">
        <ele>348.4</ele>
        <time>2025-09-13T14:00:37Z</time>
      </trkpt>
      <trkpt lat="47.50181" lon="6.47868">
        <ele>348.6</ele>
        <time>2025-09-13T14:00:38Z</time>
      </trkpt>
      <trkpt lat="47.50178" lon="6.47872">
        <ele>348.8</ele>
        <time>2025-09-13T14:00:39Z</time>
      </trkpt>
      <trkpt lat="47.50174" lon="6.47876">
        <ele>349</ele>
        <time>2025-09-13T14:00:40Z</time>
      </trkpt>
      <trkpt lat="47.50171" lon="6.47879">
        <ele>349.2</ele>
        <time>2025-09-13T14:00:41Z</time>
      </trkpt>
      <trkpt lat="47.50168" lon="6.47883">
        <ele>349.4</ele>
        <time>2025-09-13T14:00:42Z</time>
      </trkpt>
      <trkpt lat="47.50164" lon="6.47887">
        <ele>349.6</ele>
        <time>2025-09-13T14:00:43Z</time>
      </trkpt>
      <trkpt lat="47.50161" lon="6.4789">
        <ele>349.8</ele>
        <time>2025-09-13T14:00:44Z</time>
      </trkpt>
      <trkpt lat="47.50157" lon="6.47894">
        <ele>350</ele>
        <time>2025-09-13T14:00:45Z</time>
      </trkpt>
      <trkpt lat="47.50154" lon="6.47897">
        <ele>350.3</ele>
        <time>2025-09-13T14:00:46Z</time>
      </trkpt>
      <trkpt lat="47.5015" lon="6.479">
        <ele>350.4</ele>
        <time>2025-09-13T14:00:47Z</time>
      </trkpt>
      <trkpt lat="47.50146" lon="6.47903">
        <ele>350.6</ele>
        <time>2025-09-13T14:00:48Z</time>
      </trkpt>
      <trkpt lat="47.50143" lon="6.47907">
        <ele>350.8</ele>
        <time>2025-09-13T14:00:49Z</time>
      </trkpt>
      <trkpt lat="47.50139" lon="6.47909">
        <ele>351</ele>
        <time>2025-09-13T14:00:50Z</time>
      </trkpt>
      <trkpt lat="47.50136" lon="6.47911">
        <ele>351.2</ele>
        <time>2025-09-13T14:00:51Z</time>
      </trkpt>
      <trkpt lat="47.50132" lon="6.47913">
        <ele>351.4</ele>
        <time>2025-09-13T14:00:52Z</time>
      </trkpt>
      <trkpt lat="47.50128" lon="6.47916">
        <ele>351.6</ele>
        <time>2025-09-13T14:00:53Z</time>
      </trkpt>
      <trkpt lat="47.50124" lon="6.47918">
        <ele>351.8</ele>
        <time>2025-09-13T14:00:54Z</time>
      </trkpt>
      <trkpt lat="47.50121" lon="6.4792">
        <ele>352</ele>
        <time>2025-09-13T14:00:55Z</time>
      </trkpt>
      <trkpt lat="47.50118" lon="6.47922">
        <ele>352.2</ele>
        <time>2025-09-13T14:00:56Z</time>
      </trkpt>
      <trkpt lat="47.50114" lon="6.47925">
        <ele>352.4</ele>
        <time>2025-09-13T14:00:57Z</time>
      </trkpt>
      <trkpt lat="47.5011" lon="6.47926">
        <ele>352.6</ele>
        <time>2025-09-13T14:00:58Z</time>
      </trkpt>
      <trkpt lat="47.50107" lon="6.47929">
        <ele>352.8</ele>
        <time>2025-09-13T14:00:59Z</time>
      </trkpt>
      <trkpt lat="47.50103" lon="6.47931">
        <ele>353</ele>
        <time>2025-09-13T14:01:00Z</time>
      </trkpt>
      <trkpt lat="47.50099" lon="6.47933">
        <ele>353.3</ele>
        <time>2025-09-13T14:01:01Z</time>
      </trkpt>
      <trkpt lat="47.50096" lon="6.47935">
        <ele>353.5</ele>
        <time>2025-09-13T14:01:02Z</time>
      </trkpt>
      <trkpt lat="47.50092" lon="6.47938">
        <ele>353.7</ele>
        <time>2025-09-13T14:01:03Z</time>
      </trkpt>
      <trkpt lat="47.50089" lon="6.4794">
        <ele>353.9</ele>
        <time>2025-09-13T14:01:04Z</time>
      </trkpt>
      <trkpt lat="47.50085" lon="6.47942">
        <ele>354.1</ele>
        <time>2025-09-13T14:01:05Z</time>
      </trkpt>
      <trkpt lat="47.50081" lon="6.47944">
        <ele>354.3</ele>
        <time>2025-09-13T14:01:06Z</time>
      </trkpt>
      <trkpt lat="47.50077" lon="6.47946">
        <ele>354.5</ele>
        <time>2025-09-13T14:01:07Z</time>
      </trkpt>
      <trkpt lat="47.50074" lon="6.47948">
        <ele>354.7</ele>
        <time>2025-09-13T14:01:09Z</time>
      </trkpt>
      <trkpt lat="47.5007" lon="6.47951">
        <ele>354.9</ele>
        <time>2025-09-13T14:01:10Z</time>
      </trkpt>
      <trkpt lat="47.50066" lon="6.47953">
        <ele>355.2</ele>
        <time>2025-09-13T14:01:11Z</time>
      </trkpt>
      <trkpt lat="47.50061" lon="6.47956">
        <ele>355.4</ele>
        <time>2025-09-13T14:01:12Z</time>
      </trkpt>
      <trkpt lat="47.50058" lon="6.47959">
        <ele>355.6</ele>
        <time>2025-09-13T14:01:13Z</time>
      </trkpt>
      <trkpt lat="47.50054" lon="6.47962">
        <ele>355.8</ele>
        <time>2025-09-13T14:01:14Z</time>
      </trkpt>
      <trkpt lat="47.50049" lon="6.47965">
        <ele>356.1</ele>
        <time>2025-09-13T14:01:15Z</time>
      </trkpt>
      <trkpt lat="47.50045" lon="6.47968">
        <ele>356.3</ele>
        <time>2025-09-13T14:01:16Z</time>
      </trkpt>
      <trkpt lat="47.50042" lon="6.47971">
        <ele>356.5</ele>
        <time>2025-09-13T14:01:17Z</time>
      </trkpt>
      <trkpt lat="47.50038" lon="6.47974">
        <ele>356.7</ele>
        <time>2025-09-13T14:01:18Z</time>
      </trkpt>
      <trkpt lat="47.50035" lon="6.47978">
        <ele>356.9</ele>
        <time>2025-09-13T14:01:19Z</time>
      </trkpt>
      <trkpt lat="47.50031" lon="6.47983">
        <ele>357.1</ele>
        <time>2025-09-13T14:01:20Z</time>
      </trkpt>
      <trkpt lat="47.50029" lon="6.47987">
        <ele>357.3</ele>
        <time>2025-09-13T14:01:21Z</time>
      </trkpt>
      <trkpt lat="47.50025" lon="6.47991">
        <ele>357.5</ele>
        <time>2025-09-13T14:01:22Z</time>
      </trkpt>
      <trkpt lat="47.50022" lon="6.47995">
        <ele>357.7</ele>
        <time>2025-09-13T14:01:23Z</time>
      </trkpt>
      <trkpt lat="47.50019" lon="6.48">
        <ele>357.9</ele>
        <time>2025-09-13T14:01:24Z</time>
      </trkpt>
      <trkpt lat="47.50016" lon="6.48004">
        <ele>358.1</ele>
        <time>2025-09-13T14:01:25Z</time>
      </trkpt>
      <trkpt lat="47.50013" lon="6.48009">
        <ele>358.3</ele>
        <time>2025-09-13T14:01:26Z</time>
      </trkpt>
      <trkpt lat="47.5001" lon="6.48013">
        <ele>358.5</ele>
        <time>2025-09-13T14:01:27Z</time>
      </trkpt>
      <trkpt lat="47.50007" lon="6.48018">
        <ele>358.6</ele>
        <time>2025-09-13T14:01:28Z</time>
      </trkpt>
      <trkpt lat="47.50004" lon="6.48022">
        <ele>358.8</ele>
        <time>2025-09-13T14:01:29Z</time>
      </trkpt>
      <trkpt lat="47.50001" lon="6.48027">
        <ele>359</ele>
        <time>2025-09-13T14:01:30Z</time>
      </trkpt>
      <trkpt lat="47.49998" lon="6.48031">
        <ele>359.1</ele>
        <time>2025-09-13T14:01:31Z</time>
      </trkpt>
      <trkpt lat="47.49994" lon="6.48035">
        <ele>359.3</ele>
        <time>2025-09-13T14:01:32Z</time>
      </trkpt>
      <trkpt lat="47.49992" lon="6.4804">
        <ele>359.4</ele>
        <time>2025-09-13T14:01:33Z</time>
      </trkpt>
      <trkpt lat="47.49989" lon="6.48045">
        <ele>359.5</ele>
        <time>2025-09-13T14:01:34Z</time>
      </trkpt>
      <trkpt lat="47.49986" lon="6.4805">
        <ele>359.6</ele>
        <time>2025-09-13T14:01:35Z</time>
      </trkpt>
      <trkpt lat="47.49983" lon="6.48054">
        <ele>359.8</ele>
        <time>2025-09-13T14:01:36Z</time>
      </trkpt>
      <trkpt lat="47.4998" lon="6.4806">
        <ele>359.9</ele>
        <time>2025-09-13T14:01:37Z</time>
      </trkpt>
      <trkpt lat="47.49977" lon="6.48064">
        <ele>360</ele>
        <time>2025-09-13T14:01:38Z</time>
      </trkpt>
      <trkpt lat="47.49975" lon="6.4807">
        <ele>360.2</ele>
        <time>2025-09-13T14:01:39Z</time>
      </trkpt>
      <trkpt lat="47.49973" lon="6.48076">
        <ele>360.3</ele>
        <time>2025-09-13T14:01:40Z</time>
      </trkpt>
      <trkpt lat="47.4997" lon="6.48081">
        <ele>360.4</ele>
        <time>2025-09-13T14:01:41Z</time>
      </trkpt>
      <trkpt lat="47.49968" lon="6.48087">
        <ele>360.6</ele>
        <time>2025-09-13T14:01:42Z</time>
      </trkpt>
      <trkpt lat="47.49967" lon="6.48093">
        <ele>360.8</ele>
        <time>2025-09-13T14:01:43Z</time>
      </trkpt>
      <trkpt lat="47.49965" lon="6.48099">
        <ele>360.9</ele>
        <time>2025-09-13T14:01:44Z</time>
      </trkpt>
      <trkpt lat="47.49963" lon="6.48105">
        <ele>361.1</ele>
        <time>2025-09-13T14:01:45Z</time>
      </trkpt>
      <trkpt lat="47.49962" lon="6.48111">
        <ele>361.3</ele>
        <time>2025-09-13T14:01:46Z</time>
      </trkpt>
      <trkpt lat="47.4996" lon="6.48118">
        <ele>361.5</ele>
        <time>2025-09-13T14:01:47Z</time>
      </trkpt>
      <trkpt lat="47.49959" lon="6.48124">
        <ele>361.7</ele>
        <time>2025-09-13T14:01:48Z</time>
      </trkpt>
      <trkpt lat="47.49958" lon="6.4813">
        <ele>361.9</ele>
        <time>2025-09-13T14:01:49Z</time>
      </trkpt>
      <trkpt lat="47.49956" lon="6.48136">
        <ele>362.1</ele>
        <time>2025-09-13T14:01:50Z</time>
      </trkpt>
      <trkpt lat="47.49955" lon="6.48142">
        <ele>362.3</ele>
        <time>2025-09-13T14:01:51Z</time>
      </trkpt>
      <trkpt lat="47.49954" lon="6.48148">
        <ele>362.5</ele>
        <time>2025-09-13T14:01:52Z</time>
      </trkpt>
      <trkpt lat="47.49952" lon="6.48154">
        <ele>362.7</ele>
        <time>2025-09-13T14:01:53Z</time>
      </trkpt>
      <trkpt lat="47.49951" lon="6.48159">
        <ele>362.9</ele>
        <time>2025-09-13T14:01:54Z</time>
      </trkpt>
      <trkpt lat="47.49949" lon="6.48166">
        <ele>363.2</ele>
        <time>2025-09-13T14:01:55Z</time>
      </trkpt>
      <trkpt lat="47.49948" lon="6.48172">
        <ele>363.4</ele>
        <time>2025-09-13T14:01:56Z</time>
      </trkpt>
      <trkpt lat="47.49947" lon="6.48177">
        <ele>363.6</ele>
        <time>2025-09-13T14:01:57Z</time>
      </trkpt>
      <trkpt lat="47.49946" lon="6.48183">
        <ele>363.8</ele>
        <time>2025-09-13T14:01:58Z</time>
      </trkpt>
      <trkpt lat="47.49945" lon="6.48189">
        <ele>364</ele>
        <time>2025-09-13T14:01:59Z</time>
      </trkpt>
      <trkpt lat="47.49943" lon="6.48196">
        <ele>364.2</ele>
        <time>2025-09-13T14:02:00Z</time>
      </trkpt>
      <trkpt lat="47.49942" lon="6.48202">
        <ele>364.4</ele>
        <time>2025-09-13T14:02:01Z</time>
      </trkpt>
      <trkpt lat="47.49941" lon="6.48208">
        <ele>364.6</ele>
        <time>2025-09-13T14:02:02Z</time>
      </trkpt>
      <trkpt lat="47.4994" lon="6.48215">
        <ele>364.8</ele>
        <time>2025-09-13T14:02:03Z</time>
      </trkpt>
      <trkpt lat="47.49939" lon="6.48222">
        <ele>365</ele>
        <time>2025-09-13T14:02:04Z</time>
      </trkpt>
      <trkpt lat="47.49937" lon="6.48229">
        <ele>365.2</ele>
        <time>2025-09-13T14:02:05Z</time>
      </trkpt>
      <trkpt lat="47.49936" lon="6.48234">
        <ele>365.4</ele>
        <time>2025-09-13T14:02:06Z</time>
      </trkpt>
      <trkpt lat="47.49934" lon="6.48241">
        <ele>365.6</ele>
        <time>2025-09-13T14:02:07Z</time>
      </trkpt>
      <trkpt lat="47.49932" lon="6.48246">
        <ele>365.8</ele>
        <time>2025-09-13T14:02:08Z</time>
      </trkpt>
      <trkpt lat="47.4993" lon="6.48253">
        <ele>366</ele>
        <time>2025-09-13T14:02:09Z</time>
      </trkpt>
      <trkpt lat="47.49928" lon="6.48259">
        <ele>366.2</ele>
        <time>2025-09-13T14:02:10Z</time>
      </trkpt>
      <trkpt lat="47.49926" lon="6.48266">
        <ele>366.4</ele>
        <time>2025-09-13T14:02:11Z</time>
      </trkpt>
      <trkpt lat="47.49924" lon="6.48271">
        <ele>366.6</ele>
        <time>2025-09-13T14:02:12Z</time>
      </trkpt>
      <trkpt lat="47.49921" lon="6.48277">
        <ele>366.7</ele>
        <time>2025-09-13T14:02:13Z</time>
      </trkpt>
      <trkpt lat="47.49919" lon="6.48282">
        <ele>366.9</ele>
        <time>2025-09-13T14:02:14Z</time>
      </trkpt>
      <trkpt lat="47.49915" lon="6.48289">
        <ele>367.2</ele>
        <time>2025-09-13T14:02:15Z</time>
      </trkpt>
      <trkpt lat="47.49913" lon="6.48292">
        <ele>367.3</ele>
        <time>2025-09-13T14:02:16Z</time>
      </trkpt>
      <trkpt lat="47.4991" lon="6.48297">
        <ele>367.5</ele>
        <time>2025-09-13T14:02:17Z</time>
      </trkpt>
      <trkpt lat="47.49907" lon="6.48303">
        <ele>367.7</ele>
        <time>2025-09-13T14:02:18Z</time>
      </trkpt>
      <trkpt lat="47.49904" lon="6.48308">
        <ele>367.9</ele>
        <time>2025-09-13T14:02:19Z</time>
      </trkpt>
      <trkpt lat="47.49901" lon="6.48313">
        <ele>368.2</ele>
        <time>2025-09-13T14:02:20Z</time>
      </trkpt>
      <trkpt lat="47.49899" lon="6.48319">
        <ele>368.4</ele>
        <time>2025-09-13T14:02:21Z</time>
      </trkpt>
      <trkpt lat="47.49896" lon="6.48324">
        <ele>368.6</ele>
        <time>2025-09-13T14:02:22Z</time>
      </trkpt>
      <trkpt lat="47.49893" lon="6.48329">
        <ele>368.8</ele>
        <time>2025-09-13T14:02:23Z</time>
      </trkpt>
      <trkpt lat="47.4989" lon="6.48334">
        <ele>369</ele>
        <time>2025-09-13T14:02:24Z</time>
      </trkpt>
      <trkpt lat="47.49887" lon="6.48339">
        <ele>369.3</ele>
        <time>2025-09-13T14:02:25Z</time>
      </trkpt>
      <trkpt lat="47.49885" lon="6.48345">
        <ele>369.5</ele>
        <time>2025-09-13T14:02:26Z</time>
      </trkpt>
      <trkpt lat="47.49882" lon="6.4835">
        <ele>369.8</ele>
        <time>2025-09-13T14:02:27Z</time>
      </trkpt>
      <trkpt lat="47.49879" lon="6.48355">
        <ele>370</ele>
        <time>2025-09-13T14:02:28Z</time>
      </trkpt>
      <trkpt lat="47.49877" lon="6.4836">
        <ele>370.2</ele>
        <time>2025-09-13T14:02:29Z</time>
      </trkpt>
      <trkpt lat="47.49875" lon="6.48365">
        <ele>370.4</ele>
        <time>2025-09-13T14:02:30Z</time>
      </trkpt>
      <trkpt lat="47.49872" lon="6.4837">
        <ele>370.7</ele>
        <time>2025-09-13T14:02:31Z</time>
      </trkpt>
      <trkpt lat="47.49869" lon="6.48375">
        <ele>370.9</ele>
        <time>2025-09-13T14:02:32Z</time>
      </trkpt>
      <trkpt lat="47.49867" lon="6.4838">
        <ele>371.1</ele>
        <time>2025-09-13T14:02:33Z</time>
      </trkpt>
      <trkpt lat="47.49864" lon="6.48386">
        <ele>371.4</ele>
        <time>2025-09-13T14:02:34Z</time>
      </trkpt>
      <trkpt lat="47.49861" lon="6.4839">
        <ele>371.6</ele>
        <time>2025-09-13T14:02:35Z</time>
      </trkpt>
      <trkpt lat="47.49858" lon="6.48396">
        <ele>371.8</ele>
        <time>2025-09-13T14:02:36Z</time>
      </trkpt>
      <trkpt lat="47.49855" lon="6.48401">
        <ele>372.1</ele>
        <time>2025-09-13T14:02:37Z</time>
      </trkpt>
      <trkpt lat="47.49852" lon="6.48406">
        <ele>372.3</ele>
        <time>2025-09-13T14:02:38Z</time>
      </trkpt>
      <trkpt lat="47.4985" lon="6.4841">
        <ele>372.5</ele>
        <time>2025-09-13T14:02:39Z</time>
      </trkpt>
      <trkpt lat="47.49847" lon="6.48414">
        <ele>372.7</ele>
        <time>2025-09-13T14:02:40Z</time>
      </trkpt>
      <trkpt lat="47.49843" lon="6.48419">
        <ele>372.9</ele>
        <time>2025-09-13T14:02:41Z</time>
      </trkpt>
      <trkpt lat="47.4984" lon="6.48424">
        <ele>373.1</ele>
        <time>2025-09-13T14:02:42Z</time>
      </trkpt>
      <trkpt lat="47.49837" lon="6.48429">
        <ele>373.3</ele>
        <time>2025-09-13T14:02:43Z</time>
      </trkpt>
      <trkpt lat="47.49833" lon="6.48433">
        <ele>373.4</ele>
        <time>2025-09-13T14:02:44Z</time>
      </trkpt>
      <trkpt lat="47.4983" lon="6.48439">
        <ele>373.6</ele>
        <time>2025-09-13T14:02:45Z</time>
      </trkpt>
      <trkpt lat="47.49827" lon="6.48444">
        <ele>373.8</ele>
        <time>2025-09-13T14:02:46Z</time>
      </trkpt>
      <trkpt lat="47.49823" lon="6.48449">
        <ele>373.9</ele>
        <time>2025-09-13T14:02:47Z</time>
      </trkpt>
      <trkpt lat="47.4982" lon="6.48453">
        <ele>374</ele>
        <time>2025-09-13T14:02:48Z</time>
      </trkpt>
      <trkpt lat="47.49816" lon="6.48457">
        <ele>374.2</ele>
        <time>2025-09-13T14:02:49Z</time>
      </trkpt>
      <trkpt lat="47.49813" lon="6.48462">
        <ele>374.3</ele>
        <time>2025-09-13T14:02:50Z</time>
      </trkpt>
      <trkpt lat="47.4981" lon="6.48466">
        <ele>374.5</ele>
        <time>2025-09-13T14:02:51Z</time>
      </trkpt>
      <trkpt lat="47.49807" lon="6.4847">
        <ele>374.7</ele>
        <time>2025-09-13T14:02:52Z</time>
      </trkpt>
      <trkpt lat="47.49803" lon="6.48475">
        <ele>374.8</ele>
        <time>2025-09-13T14:02:53Z</time>
      </trkpt>
      <trkpt lat="47.498" lon="6.4848">
        <ele>375</ele>
        <time>2025-09-13T14:02:54Z</time>
      </trkpt>
      <trkpt lat="47.49797" lon="6.48485">
        <ele>375.2</ele>
        <time>2025-09-13T14:02:55Z</time>
      </trkpt>
      <trkpt lat="47.49794" lon="6.4849">
        <ele>375.3</ele>
        <time>2025-09-13T14:02:56Z</time>
      </trkpt>
      <trkpt lat="47.49791" lon="6.48495">
        <ele>375.5</ele>
        <time>2025-09-13T14:02:57Z</time>
      </trkpt>
      <trkpt lat="47.49788" lon="6.485">
        <ele>375.7</ele>
        <time>2025-09-13T14:02:58Z</time>
      </trkpt>
      <trkpt lat="47.49785" lon="6.48506">
        <ele>375.8</ele>
        <time>2025-09-13T14:02:59Z</time>
      </trkpt>
      <trkpt lat="47.49782" lon="6.48512">
        <ele>376</ele>
        <time>2025-09-13T14:03:00Z</time>
      </trkpt>
      <trkpt lat="47.49779" lon="6.48517">
        <ele>376.1</ele>
        <time>2025-09-13T14:03:01Z</time>
      </trkpt>
      <trkpt lat="47.49777" lon="6.48524">
        <ele>376.3</ele>
        <time>2025-09-13T14:03:02Z</time>
      </trkpt>
      <trkpt lat="47.49775" lon="6.4853">
        <ele>376.5</ele>
        <time>2025-09-13T14:03:03Z</time>
      </trkpt>
      <trkpt lat="47.49773" lon="6.48536">
        <ele>376.6</ele>
        <time>2025-09-13T14:03:04Z</time>
      </trkpt>
      <trkpt lat="47.49771" lon="6.48542">
        <ele>376.8</ele>
        <time>2025-09-13T14:03:05Z</time>
      </trkpt>
      <trkpt lat="47.49769" lon="6.48549">
        <ele>376.9</ele>
        <time>2025-09-13T14:03:06Z</time>
      </trkpt>
      <trkpt lat="47.49767" lon="6.48555">
        <ele>377.1</ele>
        <time>2025-09-13T14:03:07Z</time>
      </trkpt>
      <trkpt lat="47.49766" lon="6.48561">
        <ele>377.3</ele>
        <time>2025-09-13T14:03:08Z</time>
      </trkpt>
      <trkpt lat="47.49764" lon="6.48568">
        <ele>377.4</ele>
        <time>2025-09-13T14:03:09Z</time>
      </trkpt>
      <trkpt lat="47.49762" lon="6.48574">
        <ele>377.6</ele>
        <time>2025-09-13T14:03:10Z</time>
      </trkpt>
      <trkpt lat="47.49761" lon="6.48581">
        <ele>377.8</ele>
        <time>2025-09-13T14:03:11Z</time>
      </trkpt>
      <trkpt lat="47.49758" lon="6.48587">
        <ele>377.9</ele>
        <time>2025-09-13T14:03:12Z</time>
      </trkpt>
      <trkpt lat="47.49757" lon="6.48592">
        <ele>378.1</ele>
        <time>2025-09-13T14:03:13Z</time>
      </trkpt>
      <trkpt lat="47.49754" lon="6.48599">
        <ele>378.2</ele>
        <time>2025-09-13T14:03:14Z</time>
      </trkpt>
      <trkpt lat="47.49751" lon="6.48605">
        <ele>378.4</ele>
        <time>2025-09-13T14:03:15Z</time>
      </trkpt>
      <trkpt lat="47.49749" lon="6.48611">
        <ele>378.6</ele>
        <time>2025-09-13T14:03:16Z</time>
      </trkpt>
      <trkpt lat="47.49746" lon="6.48618">
        <ele>378.8</ele>
        <time>2025-09-13T14:03:17Z</time>
      </trkpt>
      <trkpt lat="47.49744" lon="6.48623">
        <ele>378.9</ele>
        <time>2025-09-13T14:03:18Z</time>
      </trkpt>
      <trkpt lat="47.49741" lon="6.48629">
        <ele>379.1</ele>
        <time>2025-09-13T14:03:19Z</time>
      </trkpt>
      <trkpt lat="47.49738" lon="6.48635">
        <ele>379.3</ele>
        <time>2025-09-13T14:03:20Z</time>
      </trkpt>
      <trkpt lat="47.49735" lon="6.48641">
        <ele>379.5</ele>
        <time>2025-09-13T14:03:21Z</time>
      </trkpt>
      <trkpt lat="47.49733" lon="6.48647">
        <ele>379.6</ele>
        <time>2025-09-13T14:03:22Z</time>
      </trkpt>
      <trkpt lat="47.49731" lon="6.48653">
        <ele>379.8</ele>
        <time>2025-09-13T14:03:23Z</time>
      </trkpt>
      <trkpt lat="47.49728" lon="6.4866">
        <ele>380</ele>
        <time>2025-09-13T14:03:24Z</time>
      </trkpt>
      <trkpt lat="47.49725" lon="6.48668">
        <ele>380.3</ele>
        <time>2025-09-13T14:03:25Z</time>
      </trkpt>
      <trkpt lat="47.49723" lon="6.48675">
        <ele>380.5</ele>
        <time>2025-09-13T14:03:26Z</time>
      </trkpt>
      <trkpt lat="47.4972" lon="6.48684">
        <ele>380.8</ele>
        <time>2025-09-13T14:03:27Z</time>
      </trkpt>
      <trkpt lat="47.49717" lon="6.48693">
        <ele>381</ele>
        <time>2025-09-13T14:03:28Z</time>
      </trkpt>
      <trkpt lat="47.49715" lon="6.48701">
        <ele>381.3</ele>
        <time>2025-09-13T14:03:29Z</time>
      </trkpt>
      <trkpt lat="47.49712" lon="6.4871">
        <ele>381.5</ele>
        <time>2025-09-13T14:03:30Z</time>
      </trkpt>
      <trkpt lat="47.49711" lon="6.48718">
        <ele>381.7</ele>
        <time>2025-09-13T14:03:31Z</time>
      </trkpt>
      <trkpt lat="47.4971" lon="6.48727">
        <ele>382</ele>
        <time>2025-09-13T14:03:32Z</time>
      </trkpt>
      <trkpt lat="47.49709" lon="6.48734">
        <ele>382.2</ele>
        <time>2025-09-13T14:03:33Z</time>
      </trkpt>
      <trkpt lat="47.49708" lon="6.48742">
        <ele>382.4</ele>
        <time>2025-09-13T14:03:34Z</time>
      </trkpt>
      <trkpt lat="47.49707" lon="6.48751">
        <ele>382.6</ele>
        <time>2025-09-13T14:03:35Z</time>
      </trkpt>
      <trkpt lat="47.49707" lon="6.48759">
        <ele>382.8</ele>
        <time>2025-09-13T14:03:36Z</time>
      </trkpt>
      <trkpt lat="47.49707" lon="6.48767">
        <ele>383</ele>
        <time>2025-09-13T14:03:37Z</time>
      </trkpt>
      <trkpt lat="47.49706" lon="6.48775">
        <ele>383.2</ele>
        <time>2025-09-13T14:03:38Z</time>
      </trkpt>
      <trkpt lat="47.49706" lon="6.48784">
        <ele>383.4</ele>
        <time>2025-09-13T14:03:39Z</time>
      </trkpt>
      <trkpt lat="47.49706" lon="6.48792">
        <ele>383.6</ele>
        <time>2025-09-13T14:03:40Z</time>
      </trkpt>
      <trkpt lat="47.49705" lon="6.48801">
        <ele>383.8</ele>
        <time>2025-09-13T14:03:41Z</time>
      </trkpt>
      <trkpt lat="47.49705" lon="6.48809">
        <ele>384</ele>
        <time>2025-09-13T14:03:42Z</time>
      </trkpt>
      <trkpt lat="47.49705" lon="6.48818">
        <ele>384.2</ele>
        <time>2025-09-13T14:03:43Z</time>
      </trkpt>
      <trkpt lat="47.49705" lon="6.48826">
        <ele>384.5</ele>
        <time>2025-09-13T14:03:44Z</time>
      </trkpt>
      <trkpt lat="47.49704" lon="6.48835">
        <ele>384.7</ele>
        <time>2025-09-13T14:03:45Z</time>
      </trkpt>
      <trkpt lat="47.49704" lon="6.48844">
        <ele>384.9</ele>
        <time>2025-09-13T14:03:46Z</time>
      </trkpt>
      <trkpt lat="47.49704" lon="6.48853">
        <ele>385.1</ele>
        <time>2025-09-13T14:03:47Z</time>
      </trkpt>
      <trkpt lat="47.49703" lon="6.48862">
        <ele>385.3</ele>
        <time>2025-09-13T14:03:48Z</time>
      </trkpt>
      <trkpt lat="47.49703" lon="6.4887">
        <ele>385.5</ele>
        <time>2025-09-13T14:03:49Z</time>
      </trkpt>
      <trkpt lat="47.49703" lon="6.48879">
        <ele>385.7</ele>
        <time>2025-09-13T14:03:50Z</time>
      </trkpt>
      <trkpt lat="47.49702" lon="6.48888">
        <ele>385.9</ele>
        <time>2025-09-13T14:03:51Z</time>
      </trkpt>
      <trkpt lat="47.49702" lon="6.48897">
        <ele>386.1</ele>
        <time>2025-09-13T14:03:52Z</time>
      </trkpt>
      <trkpt lat="47.49701" lon="6.48905">
        <ele>386.2</ele>
        <time>2025-09-13T14:03:53Z</time>
      </trkpt>
      <trkpt lat="47.49701" lon="6.48914">
        <ele>386.4</ele>
        <time>2025-09-13T14:03:54Z</time>
      </trkpt>
      <trkpt lat="47.49701" lon="6.48924">
        <ele>386.6</ele>
        <time>2025-09-13T14:03:55Z</time>
      </trkpt>
      <trkpt lat="47.49701" lon="6.48933">
        <ele>386.9</ele>
        <time>2025-09-13T14:03:56Z</time>
      </trkpt>
      <trkpt lat="47.49701" lon="6.48941">
        <ele>387.1</ele>
        <time>2025-09-13T14:03:57Z</time>
      </trkpt>
      <trkpt lat="47.49701" lon="6.48949">
        <ele>387.2</ele>
        <time>2025-09-13T14:03:58Z</time>
      </trkpt>
      <trkpt lat="47.49701" lon="6.48957">
        <ele>387.4</ele>
        <time>2025-09-13T14:03:59Z</time>
      </trkpt>
      <trkpt lat="47.49701" lon="6.48966">
        <ele>387.6</ele>
        <time>2025-09-13T14:04:00Z</time>
      </trkpt>
      <trkpt lat="47.49703" lon="6.48983">
        <ele>388</ele>
        <time>2025-09-13T14:04:01Z</time>
      </trkpt>
      <trkpt lat="47.49704" lon="6.48991">
        <ele>388.2</ele>
        <time>2025-09-13T14:04:02Z</time>
      </trkpt>
      <trkpt lat="47.49706" lon="6.48999">
        <ele>388.4</ele>
        <time>2025-09-13T14:04:03Z</time>
      </trkpt>
      <trkpt lat="47.49707" lon="6.49006">
        <ele>388.6</ele>
        <time>2025-09-13T14:04:04Z</time>
      </trkpt>
      <trkpt lat="47.49709" lon="6.49014">
        <ele>388.8</ele>
        <time>2025-09-13T14:04:05Z</time>
      </trkpt>
      <trkpt lat="47.49711" lon="6.49021">
        <ele>389</ele>
        <time>2025-09-13T14:04:06Z</time>
      </trkpt>
      <trkpt lat="47.49714" lon="6.49029">
        <ele>389.2</ele>
        <time>2025-09-13T14:04:07Z</time>
      </trkpt>
      <trkpt lat="47.49717" lon="6.49037">
        <ele>389.5</ele>
        <time>2025-09-13T14:04:08Z</time>
      </trkpt>
      <trkpt lat="47.4972" lon="6.49045">
        <ele>389.7</ele>
        <time>2025-09-13T14:04:09Z</time>
      </trkpt>
      <trkpt lat="47.49723" lon="6.49052">
        <ele>390</ele>
        <time>2025-09-13T14:04:10Z</time>
      </trkpt>
      <trkpt lat="47.49725" lon="6.49059">
        <ele>390.1</ele>
        <time>2025-09-13T14:04:11Z</time>
      </trkpt>
      <trkpt lat="47.49727" lon="6.49065">
        <ele>390.3</ele>
        <time>2025-09-13T14:04:12Z</time>
      </trkpt>
      <trkpt lat="47.4973" lon="6.49073">
        <ele>390.6</ele>
        <time>2025-09-13T14:04:13Z</time>
      </trkpt>
      <trkpt lat="47.49734" lon="6.49081">
        <ele>390.8</ele>
        <time>2025-09-13T14:04:14Z</time>
      </trkpt>
      <trkpt lat="47.49736" lon="6.49089">
        <ele>391</ele>
        <time>2025-09-13T14:04:15Z</time>
      </trkpt>
      <trkpt lat="47.49739" lon="6.49096">
        <ele>391.3</ele>
        <time>2025-09-13T14:04:16Z</time>
      </trkpt>
      <trkpt lat="47.49742" lon="6.49104">
        <ele>391.5</ele>
        <time>2025-09-13T14:04:17Z</time>
      </trkpt>
      <trkpt lat="47.49745" lon="6.49111">
        <ele>391.7</ele>
        <time>2025-09-13T14:04:18Z</time>
      </trkpt>
      <trkpt lat="47.49747" lon="6.49119">
        <ele>392</ele>
        <time>2025-09-13T14:04:19Z</time>
      </trkpt>
      <trkpt lat="47.4975" lon="6.49127">
        <ele>392.2</ele>
        <time>2025-09-13T14:04:20Z</time>
      </trkpt>
      <trkpt lat="47.49752" lon="6.49135">
        <ele>392.5</ele>
        <time>2025-09-13T14:04:21Z</time>
      </trkpt>
      <trkpt lat="47.49754" lon="6.49143">
        <ele>392.7</ele>
        <time>2025-09-13T14:04:22Z</time>
      </trkpt>
      <trkpt lat="47.49757" lon="6.49151">
        <ele>393</ele>
        <time>2025-09-13T14:04:23Z</time>
      </trkpt>
      <trkpt lat="47.49759" lon="6.4916">
        <ele>393.3</ele>
        <time>2025-09-13T14:04:24Z</time>
      </trkpt>
      <trkpt lat="47.4976" lon="6.49168">
        <ele>393.6</ele>
        <time>2025-09-13T14:04:25Z</time>
      </trkpt>
      <trkpt lat="47.49762" lon="6.49176">
        <ele>393.9</ele>
        <time>2025-09-13T14:04:26Z</time>
      </trkpt>
      <trkpt lat="47.49764" lon="6.49183">
        <ele>394.2</ele>
        <time>2025-09-13T14:04:27Z</time>
      </trkpt>
      <trkpt lat="47.49766" lon="6.49191">
        <ele>394.5</ele>
        <time>2025-09-13T14:04:28Z</time>
      </trkpt>
      <trkpt lat="47.49768" lon="6.49198">
        <ele>394.8</ele>
        <time>2025-09-13T14:04:29Z</time>
      </trkpt>
      <trkpt lat="47.4977" lon="6.49207">
        <ele>395.1</ele>
        <time>2025-09-13T14:04:30Z</time>
      </trkpt>
      <trkpt lat="47.49772" lon="6.49215">
        <ele>395.5</ele>
        <time>2025-09-13T14:04:31Z</time>
      </trkpt>
      <trkpt lat="47.49774" lon="6.49222">
        <ele>395.8</ele>
        <time>2025-09-13T14:04:32Z</time>
      </trkpt>
      <trkpt lat="47.49776" lon="6.49231">
        <ele>396.1</ele>
        <time>2025-09-13T14:04:33Z</time>
      </trkpt>
      <trkpt lat="47.49778" lon="6.49239">
        <ele>396.5</ele>
        <time>2025-09-13T14:04:34Z</time>
      </trkpt>
      <trkpt lat="47.49781" lon="6.49247">
        <ele>396.8</ele>
        <time>2025-09-13T14:04:35Z</time>
      </trkpt>
      <trkpt lat="47.49782" lon="6.49255">
        <ele>397.1</ele>
        <time>2025-09-13T14:04:36Z</time>
      </trkpt>
      <trkpt lat="47.49784" lon="6.49263">
        <ele>397.4</ele>
        <time>2025-09-13T14:04:37Z</time>
      </trkpt>
      <trkpt lat="47.49787" lon="6.49272">
        <ele>397.8</ele>
        <time>2025-09-13T14:04:38Z</time>
      </trkpt>
      <trkpt lat="47.49789" lon="6.49281">
        <ele>398.2</ele>
        <time>2025-09-13T14:04:39Z</time>
      </trkpt>
      <trkpt lat="47.49791" lon="6.49289">
        <ele>398.5</ele>
        <time>2025-09-13T14:04:40Z</time>
      </trkpt>
      <trkpt lat="47.49793" lon="6.49297">
        <ele>398.9</ele>
        <time>2025-09-13T14:04:41Z</time>
      </trkpt>
      <trkpt lat="47.49796" lon="6.49305">
        <ele>399.2</ele>
        <time>2025-09-13T14:04:42Z</time>
      </trkpt>
      <trkpt lat="47.49798" lon="6.49313">
        <ele>399.6</ele>
        <time>2025-09-13T14:04:43Z</time>
      </trkpt>
      <trkpt lat="47.49801" lon="6.49321">
        <ele>399.8</ele>
        <time>2025-09-13T14:04:44Z</time>
      </trkpt>
      <trkpt lat="47.49804" lon="6.49328">
        <ele>399.9</ele>
        <time>2025-09-13T14:04:45Z</time>
      </trkpt>
      <trkpt lat="47.49807" lon="6.49334">
        <ele>400.1</ele>
        <time>2025-09-13T14:04:46Z</time>
      </trkpt>
      <trkpt lat="47.49811" lon="6.4934">
        <ele>400.2</ele>
        <time>2025-09-13T14:04:47Z</time>
      </trkpt>
      <trkpt lat="47.49815" lon="6.49347">
        <ele>400.3</ele>
        <time>2025-09-13T14:04:48Z</time>
      </trkpt>
      <trkpt lat="47.4982" lon="6.49353">
        <ele>400.6</ele>
        <time>2025-09-13T14:04:49Z</time>
      </trkpt>
      <trkpt lat="47.49826" lon="6.49359">
        <ele>400.8</ele>
        <time>2025-09-13T14:04:50Z</time>
      </trkpt>
      <trkpt lat="47.49831" lon="6.49364">
        <ele>401.1</ele>
        <time>2025-09-13T14:04:51Z</time>
      </trkpt>
      <trkpt lat="47.49837" lon="6.4937">
        <ele>401.3</ele>
        <time>2025-09-13T14:04:52Z</time>
      </trkpt>
      <trkpt lat="47.49843" lon="6.49375">
        <ele>401.6</ele>
        <time>2025-09-13T14:04:53Z</time>
      </trkpt>
      <trkpt lat="47.49848" lon="6.49379">
        <ele>401.8</ele>
        <time>2025-09-13T14:04:54Z</time>
      </trkpt>
      <trkpt lat="47.49854" lon="6.49384">
        <ele>402</ele>
        <time>2025-09-13T14:04:55Z</time>
      </trkpt>
      <trkpt lat="47.4986" lon="6.4939">
        <ele>402.2</ele>
        <time>2025-09-13T14:04:56Z</time>
      </trkpt>
      <trkpt lat="47.49865" lon="6.49395">
        <ele>402.4</ele>
        <time>2025-09-13T14:04:57Z</time>
      </trkpt>
      <trkpt lat="47.49871" lon="6.494">
        <ele>402.6</ele>
        <time>2025-09-13T14:04:58Z</time>
      </trkpt>
      <trkpt lat="47.49876" lon="6.49405">
        <ele>402.8</ele>
        <time>2025-09-13T14:04:59Z</time>
      </trkpt>
      <trkpt lat="47.49882" lon="6.49411">
        <ele>403</ele>
        <time>2025-09-13T14:05:00Z</time>
      </trkpt>
      <trkpt lat="47.49888" lon="6.49416">
        <ele>403.2</ele>
        <time>2025-09-13T14:05:01Z</time>
      </trkpt>
      <trkpt lat="47.49893" lon="6.49422">
        <ele>403.3</ele>
        <time>2025-09-13T14:05:02Z</time>
      </trkpt>
      <trkpt lat="47.49898" lon="6.49428">
        <ele>403.5</ele>
        <time>2025-09-13T14:05:03Z</time>
      </trkpt>
      <trkpt lat="47.49904" lon="6.49433">
        <ele>403.6</ele>
        <time>2025-09-13T14:05:04Z</time>
      </trkpt>
      <trkpt lat="47.49909" lon="6.49438">
        <ele>403.8</ele>
        <time>2025-09-13T14:05:05Z</time>
      </trkpt>
      <trkpt lat="47.49914" lon="6.49445">
        <ele>403.9</ele>
        <time>2025-09-13T14:05:06Z</time>
      </trkpt>
      <trkpt lat="47.49919" lon="6.49452">
        <ele>404.1</ele>
        <time>2025-09-13T14:05:07Z</time>
      </trkpt>
      <trkpt lat="47.49923" lon="6.49461">
        <ele>404.4</ele>
        <time>2025-09-13T14:05:08Z</time>
      </trkpt>
      <trkpt lat="47.49926" lon="6.4947">
        <ele>404.6</ele>
        <time>2025-09-13T14:05:09Z</time>
      </trkpt>
      <trkpt lat="47.49929" lon="6.4948">
        <ele>404.8</ele>
        <time>2025-09-13T14:05:10Z</time>
      </trkpt>
      <trkpt lat="47.49931" lon="6.49486">
        <ele>404.9</ele>
        <time>2025-09-13T14:05:11Z</time>
      </trkpt>
      <trkpt lat="47.49935" lon="6.49493">
        <ele>405</ele>
        <time>2025-09-13T14:05:12Z</time>
      </trkpt>
      <trkpt lat="47.49939" lon="6.49499">
        <ele>405.1</ele>
        <time>2025-09-13T14:05:13Z</time>
      </trkpt>
      <trkpt lat="47.49942" lon="6.49504">
        <ele>405.1</ele>
        <time>2025-09-13T14:05:14Z</time>
      </trkpt>
      <trkpt lat="47.49946" lon="6.4951">
        <ele>405.2</ele>
        <time>2025-09-13T14:05:15Z</time>
      </trkpt>
      <trkpt lat="47.49949" lon="6.49516">
        <ele>405.2</ele>
        <time>2025-09-13T14:05:16Z</time>
      </trkpt>
      <trkpt lat="47.49952" lon="6.49524">
        <ele>405.2</ele>
        <time>2025-09-13T14:05:17Z</time>
      </trkpt>
      <trkpt lat="47.49954" lon="6.49532">
        <ele>405.2</ele>
        <time>2025-09-13T14:05:18Z</time>
      </trkpt>
      <trkpt lat="47.49954" lon="6.49542">
        <ele>405.2</ele>
        <time>2025-09-13T14:05:19Z</time>
      </trkpt>
      <trkpt lat="47.49953" lon="6.49552">
        <ele>405.1</ele>
        <time>2025-09-13T14:05:20Z</time>
      </trkpt>
      <trkpt lat="47.49951" lon="6.49561">
        <ele>404.9</ele>
        <time>2025-09-13T14:05:21Z</time>
      </trkpt>
      <trkpt lat="47.49948" lon="6.49569">
        <ele>404.8</ele>
        <time>2025-09-13T14:05:22Z</time>
      </trkpt>
      <trkpt lat="47.49945" lon="6.49579">
        <ele>404.6</ele>
        <time>2025-09-13T14:05:23Z</time>
      </trkpt>
      <trkpt lat="47.49942" lon="6.49588">
        <ele>404.5</ele>
        <time>2025-09-13T14:05:24Z</time>
      </trkpt>
      <trkpt lat="47.49938" lon="6.49599">
        <ele>404.3</ele>
        <time>2025-09-13T14:05:25Z</time>
      </trkpt>
      <trkpt lat="47.49934" lon="6.49608">
        <ele>404.1</ele>
        <time>2025-09-13T14:05:26Z</time>
      </trkpt>
      <trkpt lat="47.4993" lon="6.49618">
        <ele>403.9</ele>
        <time>2025-09-13T14:05:27Z</time>
      </trkpt>
      <trkpt lat="47.49927" lon="6.49629">
        <ele>403.7</ele>
        <time>2025-09-13T14:05:28Z</time>
      </trkpt>
      <trkpt lat="47.49923" lon="6.49639">
        <ele>403.6</ele>
        <time>2025-09-13T14:05:29Z</time>
      </trkpt>
      <trkpt lat="47.4992" lon="6.49649">
        <ele>403.5</ele>
        <time>2025-09-13T14:05:30Z</time>
      </trkpt>
      <trkpt lat="47.49916" lon="6.4966">
        <ele>403.4</ele>
        <time>2025-09-13T14:05:31Z</time>
      </trkpt>
      <trkpt lat="47.49912" lon="6.49669">
        <ele>403.3</ele>
        <time>2025-09-13T14:05:32Z</time>
      </trkpt>
      <trkpt lat="47.49908" lon="6.49677">
        <ele>403.3</ele>
        <time>2025-09-13T14:05:33Z</time>
      </trkpt>
      <trkpt lat="47.49905" lon="6.49687">
        <ele>403.3</ele>
        <time>2025-09-13T14:05:34Z</time>
      </trkpt>
      <trkpt lat="47.49901" lon="6.49695">
        <ele>403.3</ele>
        <time>2025-09-13T14:05:35Z</time>
      </trkpt>
      <trkpt lat="47.49897" lon="6.49702">
        <ele>403.3</ele>
        <time>2025-09-13T14:05:36Z</time>
      </trkpt>
      <trkpt lat="47.49894" lon="6.49709">
        <ele>403.3</ele>
        <time>2025-09-13T14:05:37Z</time>
      </trkpt>
      <trkpt lat="47.4989" lon="6.49716">
        <ele>403.3</ele>
        <time>2025-09-13T14:05:38Z</time>
      </trkpt>
      <trkpt lat="47.49887" lon="6.49722">
        <ele>403.3</ele>
        <time>2025-09-13T14:05:39Z</time>
      </trkpt>
      <trkpt lat="47.49883" lon="6.49729">
        <ele>403.4</ele>
        <time>2025-09-13T14:05:40Z</time>
      </trkpt>
      <trkpt lat="47.4988" lon="6.49736">
        <ele>403.4</ele>
        <time>2025-09-13T14:05:41Z</time>
      </trkpt>
      <trkpt lat="47.49875" lon="6.49739">
        <ele>403.4</ele>
        <time>2025-09-13T14:05:42Z</time>
      </trkpt>
      <trkpt lat="47.4987" lon="6.49741">
        <ele>403.5</ele>
        <time>2025-09-13T14:05:43Z</time>
      </trkpt>
      <trkpt lat="47.49865" lon="6.49742">
        <ele>403.5</ele>
        <time>2025-09-13T14:05:44Z</time>
      </trkpt>
      <trkpt lat="47.4986" lon="6.49744">
        <ele>403.5</ele>
        <time>2025-09-13T14:05:45Z</time>
      </trkpt>
      <trkpt lat="47.49854" lon="6.49744">
        <ele>403.5</ele>
        <time>2025-09-13T14:05:46Z</time>
      </trkpt>
      <trkpt lat="47.49849" lon="6.49746">
        <ele>403.5</ele>
        <time>2025-09-13T14:05:47Z</time>
      </trkpt>
      <trkpt lat="47.49844" lon="6.49748">
        <ele>403.6</ele>
        <time>2025-09-13T14:05:48Z</time>
      </trkpt>
      <trkpt lat="47.49839" lon="6.49749">
        <ele>403.6</ele>
        <time>2025-09-13T14:05:49Z</time>
      </trkpt>
      <trkpt lat="47.49834" lon="6.4975">
        <ele>403.6</ele>
        <time>2025-09-13T14:05:50Z</time>
      </trkpt>
      <trkpt lat="47.49829" lon="6.49753">
        <ele>403.6</ele>
        <time>2025-09-13T14:05:51Z</time>
      </trkpt>
      <trkpt lat="47.49824" lon="6.49755">
        <ele>403.6</ele>
        <time>2025-09-13T14:05:52Z</time>
      </trkpt>
      <trkpt lat="47.4982" lon="6.49758">
        <ele>403.6</ele>
        <time>2025-09-13T14:05:53Z</time>
      </trkpt>
      <trkpt lat="47.49814" lon="6.4976">
        <ele>403.6</ele>
        <time>2025-09-13T14:05:54Z</time>
      </trkpt>
      <trkpt lat="47.4981" lon="6.49763">
        <ele>403.6</ele>
        <time>2025-09-13T14:05:55Z</time>
      </trkpt>
      <trkpt lat="47.49805" lon="6.49765">
        <ele>403.5</ele>
        <time>2025-09-13T14:05:56Z</time>
      </trkpt>
      <trkpt lat="47.498" lon="6.49766">
        <ele>403.4</ele>
        <time>2025-09-13T14:05:57Z</time>
      </trkpt>
      <trkpt lat="47.49795" lon="6.49768">
        <ele>403.4</ele>
        <time>2025-09-13T14:05:58Z</time>
      </trkpt>
      <trkpt lat="47.4979" lon="6.49768">
        <ele>403.3</ele>
        <time>2025-09-13T14:05:59Z</time>
      </trkpt>
      <trkpt lat="47.49785" lon="6.49768">
        <ele>403.2</ele>
        <time>2025-09-13T14:06:00Z</time>
      </trkpt>
      <trkpt lat="47.49779" lon="6.49768">
        <ele>403.1</ele>
        <time>2025-09-13T14:06:01Z</time>
      </trkpt>
      <trkpt lat="47.49776" lon="6.49769">
        <ele>403.1</ele>
        <time>2025-09-13T14:06:02Z</time>
      </trkpt>
      <trkpt lat="47.4977" lon="6.4977">
        <ele>403</ele>
        <time>2025-09-13T14:06:03Z</time>
      </trkpt>
      <trkpt lat="47.49766" lon="6.4977">
        <ele>403</ele>
        <time>2025-09-13T14:06:04Z</time>
      </trkpt>
      <trkpt lat="47.49763" lon="6.4977">
        <ele>402.9</ele>
        <time>2025-09-13T14:06:05Z</time>
      </trkpt>
      <trkpt lat="47.49758" lon="6.49768">
        <ele>402.9</ele>
        <time>2025-09-13T14:06:06Z</time>
      </trkpt>
      <trkpt lat="47.49754" lon="6.49765">
        <ele>402.9</ele>
        <time>2025-09-13T14:06:07Z</time>
      </trkpt>
      <trkpt lat="47.49749" lon="6.49762">
        <ele>402.9</ele>
        <time>2025-09-13T14:06:08Z</time>
      </trkpt>
      <trkpt lat="47.49744" lon="6.49759">
        <ele>402.9</ele>
        <time>2025-09-13T14:06:09Z</time>
      </trkpt>
      <trkpt lat="47.49739" lon="6.49758">
        <ele>402.9</ele>
        <time>2025-09-13T14:06:10Z</time>
      </trkpt>
      <trkpt lat="47.49733" lon="6.49756">
        <ele>402.9</ele>
        <time>2025-09-13T14:06:11Z</time>
      </trkpt>
      <trkpt lat="47.49728" lon="6.49756">
        <ele>403</ele>
        <time>2025-09-13T14:06:12Z</time>
      </trkpt>
      <trkpt lat="47.49723" lon="6.49757">
        <ele>403</ele>
        <time>2025-09-13T14:06:13Z</time>
      </trkpt>
      <trkpt lat="47.49719" lon="6.49756">
        <ele>403.1</ele>
        <time>2025-09-13T14:06:14Z</time>
      </trkpt>
      <trkpt lat="47.49715" lon="6.49755">
        <ele>403.1</ele>
        <time>2025-09-13T14:06:15Z</time>
      </trkpt>
      <trkpt lat="47.49711" lon="6.49756">
        <ele>403.2</ele>
        <time>2025-09-13T14:06:16Z</time>
      </trkpt>
      <trkpt lat="47.49706" lon="6.49759">
        <ele>403.2</ele>
        <time>2025-09-13T14:06:17Z</time>
      </trkpt>
      <trkpt lat="47.49703" lon="6.49764">
        <ele>403.3</ele>
        <time>2025-09-13T14:06:18Z</time>
      </trkpt>
      <trkpt lat="47.497" lon="6.49768">
        <ele>403.4</ele>
        <time>2025-09-13T14:06:19Z</time>
      </trkpt>
      <trkpt lat="47.49696" lon="6.49773">
        <ele>403.5</ele>
        <time>2025-09-13T14:06:20Z</time>
      </trkpt>
      <trkpt lat="47.49693" lon="6.49777">
        <ele>403.7</ele>
        <time>2025-09-13T14:06:21Z</time>
      </trkpt>
      <trkpt lat="47.49689" lon="6.49781">
        <ele>403.8</ele>
        <time>2025-09-13T14:06:22Z</time>
      </trkpt>
      <trkpt lat="47.49685" lon="6.49785">
        <ele>404</ele>
        <time>2025-09-13T14:06:23Z</time>
      </trkpt>
      <trkpt lat="47.4968" lon="6.49787">
        <ele>404</ele>
        <time>2025-09-13T14:06:24Z</time>
      </trkpt>
      <trkpt lat="47.49675" lon="6.49787">
        <ele>404</ele>
        <time>2025-09-13T14:06:25Z</time>
      </trkpt>
      <trkpt lat="47.49673" lon="6.49785">
        <ele>404</ele>
        <time>2025-09-13T14:06:26Z</time>
      </trkpt>
      <trkpt lat="47.49668" lon="6.49781">
        <ele>403.9</ele>
        <time>2025-09-13T14:06:27Z</time>
      </trkpt>
      <trkpt lat="47.49663" lon="6.49775">
        <ele>403.8</ele>
        <time>2025-09-13T14:06:28Z</time>
      </trkpt>
      <trkpt lat="47.49659" lon="6.49771">
        <ele>403.8</ele>
        <time>2025-09-13T14:06:29Z</time>
      </trkpt>
      <trkpt lat="47.49656" lon="6.49768">
        <ele>403.7</ele>
        <time>2025-09-13T14:06:30Z</time>
      </trkpt>
      <trkpt lat="47.49651" lon="6.49763">
        <ele>403.6</ele>
        <time>2025-09-13T14:06:31Z</time>
      </trkpt>
      <trkpt lat="47.49648" lon="6.49758">
        <ele>403.5</ele>
        <time>2025-09-13T14:06:32Z</time>
      </trkpt>
      <trkpt lat="47.49643" lon="6.49754">
        <ele>403.4</ele>
        <time>2025-09-13T14:06:33Z</time>
      </trkpt>
      <trkpt lat="47.49639" lon="6.4975">
        <ele>403.4</ele>
        <time>2025-09-13T14:06:34Z</time>
      </trkpt>
      <trkpt lat="47.49634" lon="6.49745">
        <ele>403.3</ele>
        <time>2025-09-13T14:06:35Z</time>
      </trkpt>
      <trkpt lat="47.4963" lon="6.49741">
        <ele>403.3</ele>
        <time>2025-09-13T14:06:36Z</time>
      </trkpt>
      <trkpt lat="47.49625" lon="6.49736">
        <ele>403.3</ele>
        <time>2025-09-13T14:06:37Z</time>
      </trkpt>
      <trkpt lat="47.4962" lon="6.49732">
        <ele>403.3</ele>
        <time>2025-09-13T14:06:38Z</time>
      </trkpt>
      <trkpt lat="47.49616" lon="6.49728">
        <ele>403.3</ele>
        <time>2025-09-13T14:06:39Z</time>
      </trkpt>
      <trkpt lat="47.4961" lon="6.49725">
        <ele>403.3</ele>
        <time>2025-09-13T14:06:40Z</time>
      </trkpt>
      <trkpt lat="47.49604" lon="6.49724">
        <ele>403.4</ele>
        <time>2025-09-13T14:06:41Z</time>
      </trkpt>
      <trkpt lat="47.49599" lon="6.49724">
        <ele>403.5</ele>
        <time>2025-09-13T14:06:42Z</time>
      </trkpt>
      <trkpt lat="47.49592" lon="6.49724">
        <ele>403.6</ele>
        <time>2025-09-13T14:06:43Z</time>
      </trkpt>
      <trkpt lat="47.49587" lon="6.49724">
        <ele>403.7</ele>
        <time>2025-09-13T14:06:44Z</time>
      </trkpt>
      <trkpt lat="47.49582" lon="6.49724">
        <ele>403.8</ele>
        <time>2025-09-13T14:06:45Z</time>
      </trkpt>
      <trkpt lat="47.49577" lon="6.49724">
        <ele>404</ele>
        <time>2025-09-13T14:06:46Z</time>
      </trkpt>
      <trkpt lat="47.49572" lon="6.49725">
        <ele>404.1</ele>
        <time>2025-09-13T14:06:47Z</time>
      </trkpt>
      <trkpt lat="47.49567" lon="6.49726">
        <ele>404.3</ele>
        <time>2025-09-13T14:06:48Z</time>
      </trkpt>
      <trkpt lat="47.49563" lon="6.49727">
        <ele>404.5</ele>
        <time>2025-09-13T14:06:49Z</time>
      </trkpt>
      <trkpt lat="47.49559" lon="6.49727">
        <ele>404.8</ele>
        <time>2025-09-13T14:06:50Z</time>
      </trkpt>
      <trkpt lat="47.49555" lon="6.49728">
        <ele>405</ele>
        <time>2025-09-13T14:06:51Z</time>
      </trkpt>
      <trkpt lat="47.4955" lon="6.49729">
        <ele>405.2</ele>
        <time>2025-09-13T14:06:52Z</time>
      </trkpt>
      <trkpt lat="47.49546" lon="6.49729">
        <ele>405.5</ele>
        <time>2025-09-13T14:06:53Z</time>
      </trkpt>
      <trkpt lat="47.49542" lon="6.4973">
        <ele>405.8</ele>
        <time>2025-09-13T14:06:54Z</time>
      </trkpt>
      <trkpt lat="47.49538" lon="6.4973">
        <ele>406</ele>
        <time>2025-09-13T14:06:55Z</time>
      </trkpt>
      <trkpt lat="47.49534" lon="6.49729">
        <ele>406.3</ele>
        <time>2025-09-13T14:06:56Z</time>
      </trkpt>
      <trkpt lat="47.49529" lon="6.49728">
        <ele>406.6</ele>
        <time>2025-09-13T14:06:57Z</time>
      </trkpt>
      <trkpt lat="47.49525" lon="6.49728">
        <ele>406.9</ele>
        <time>2025-09-13T14:06:58Z</time>
      </trkpt>
      <trkpt lat="47.4952" lon="6.49727">
        <ele>407.3</ele>
        <time>2025-09-13T14:06:59Z</time>
      </trkpt>
      <trkpt lat="47.49517" lon="6.49726">
        <ele>407.5</ele>
        <time>2025-09-13T14:07:00Z</time>
      </trkpt>
      <trkpt lat="47.49512" lon="6.49725">
        <ele>407.9</ele>
        <time>2025-09-13T14:07:01Z</time>
      </trkpt>
      <trkpt lat="47.49508" lon="6.49724">
        <ele>408.3</ele>
        <time>2025-09-13T14:07:02Z</time>
      </trkpt>
      <trkpt lat="47.49503" lon="6.49722">
        <ele>408.7</ele>
        <time>2025-09-13T14:07:03Z</time>
      </trkpt>
      <trkpt lat="47.49499" lon="6.4972">
        <ele>409.1</ele>
        <time>2025-09-13T14:07:04Z</time>
      </trkpt>
      <trkpt lat="47.49495" lon="6.49718">
        <ele>409.5</ele>
        <time>2025-09-13T14:07:05Z</time>
      </trkpt>
      <trkpt lat="47.49491" lon="6.49716">
        <ele>409.9</ele>
        <time>2025-09-13T14:07:06Z</time>
      </trkpt>
      <trkpt lat="47.49487" lon="6.49715">
        <ele>410.3</ele>
        <time>2025-09-13T14:07:07Z</time>
      </trkpt>
      <trkpt lat="47.49482" lon="6.49713">
        <ele>410.7</ele>
        <time>2025-09-13T14:07:08Z</time>
      </trkpt>
      <trkpt lat="47.49478" lon="6.49713">
        <ele>411.1</ele>
        <time>2025-09-13T14:07:09Z</time>
      </trkpt>
      <trkpt lat="47.49479" lon="6.49714">
        <ele>411.2</ele>
        <time>2025-09-13T14:07:10Z</time>
      </trkpt>
      <trkpt lat="47.49475" lon="6.49714">
        <ele>411.7</ele>
        <time>2025-09-13T14:07:11Z</time>
      </trkpt>
      <trkpt lat="47.49471" lon="6.49711">
        <ele>412.1</ele>
        <time>2025-09-13T14:07:12Z</time>
      </trkpt>
      <trkpt lat="47.49468" lon="6.49709">
        <ele>412.3</ele>
        <time>2025-09-13T14:07:13Z</time>
      </trkpt>
      <trkpt lat="47.4946" lon="6.49706">
        <ele>413</ele>
        <time>2025-09-13T14:07:14Z</time>
      </trkpt>
      <trkpt lat="47.49459" lon="6.49706">
        <ele>413.2</ele>
        <time>2025-09-13T14:07:15Z</time>
      </trkpt>
      <trkpt lat="47.49457" lon="6.49706">
        <ele>413.4</ele>
        <time>2025-09-13T14:07:16Z</time>
      </trkpt>
      <trkpt lat="47.49453" lon="6.49705">
        <ele>413.7</ele>
        <time>2025-09-13T14:07:17Z</time>
      </trkpt>
      <trkpt lat="47.49449" lon="6.49704">
        <ele>414</ele>
        <time>2025-09-13T14:07:18Z</time>
      </trkpt>
      <trkpt lat="47.49445" lon="6.49703">
        <ele>414.3</ele>
        <time>2025-09-13T14:07:19Z</time>
      </trkpt>
      <trkpt lat="47.49442" lon="6.49701">
        <ele>414.6</ele>
        <time>2025-09-13T14:07:20Z</time>
      </trkpt>
      <trkpt lat="47.49439" lon="6.49699">
        <ele>414.9</ele>
        <time>2025-09-13T14:07:21Z</time>
      </trkpt>
      <trkpt lat="47.49436" lon="6.49699">
        <ele>415.1</ele>
        <time>2025-09-13T14:07:22Z</time>
      </trkpt>
      <trkpt lat="47.49432" lon="6.49696">
        <ele>415.4</ele>
        <time>2025-09-13T14:07:23Z</time>
      </trkpt>
      <trkpt lat="47.49429" lon="6.49694">
        <ele>415.7</ele>
        <time>2025-09-13T14:07:24Z</time>
      </trkpt>
      <trkpt lat="47.49426" lon="6.49691">
        <ele>416</ele>
        <time>2025-09-13T14:07:25Z</time>
      </trkpt>
      <trkpt lat="47.49425" lon="6.4969">
        <ele>416.1</ele>
        <time>2025-09-13T14:07:26Z</time>
      </trkpt>
      <trkpt lat="47.49423" lon="6.49686">
        <ele>416.3</ele>
        <time>2025-09-13T14:07:27Z</time>
      </trkpt>
      <trkpt lat="47.49421" lon="6.49685">
        <ele>416.5</ele>
        <time>2025-09-13T14:07:28Z</time>
      </trkpt>
      <trkpt lat="47.49418" lon="6.49683">
        <ele>416.6</ele>
        <time>2025-09-13T14:07:29Z</time>
      </trkpt>
      <trkpt lat="47.49415" lon="6.49681">
        <ele>416.9</ele>
        <time>2025-09-13T14:07:30Z</time>
      </trkpt>
      <trkpt lat="47.49414" lon="6.49681">
        <ele>416.9</ele>
        <time>2025-09-13T14:07:31Z</time>
      </trkpt>
      <trkpt lat="47.49405" lon="6.49678">
        <ele>417.5</ele>
        <time>2025-09-13T14:07:32Z</time>
      </trkpt>
      <trkpt lat="47.49368" lon="6.49663">
        <ele>419.4</ele>
        <time>2025-09-13T14:07:33Z</time>
      </trkpt>
      <trkpt lat="47.49358" lon="6.49657">
        <ele>419.7</ele>
        <time>2025-09-13T14:07:34Z</time>
      </trkpt>
      <trkpt lat="47.49353" lon="6.49653">
        <ele>419.9</ele>
        <time>2025-09-13T14:07:35Z</time>
      </trkpt>
      <trkpt lat="47.49347" lon="6.49651">
        <ele>420.1</ele>
        <time>2025-09-13T14:07:36Z</time>
      </trkpt>
      <trkpt lat="47.49342" lon="6.49647">
        <ele>420.4</ele>
        <time>2025-09-13T14:07:37Z</time>
      </trkpt>
      <trkpt lat="47.49336" lon="6.49645">
        <ele>420.6</ele>
        <time>2025-09-13T14:07:38Z</time>
      </trkpt>
      <trkpt lat="47.49332" lon="6.49644">
        <ele>420.8</ele>
        <time>2025-09-13T14:07:39Z</time>
      </trkpt>
      <trkpt lat="47.49327" lon="6.49642">
        <ele>421</ele>
        <time>2025-09-13T14:07:40Z</time>
      </trkpt>
      <trkpt lat="47.49324" lon="6.49639">
        <ele>421.3</ele>
        <time>2025-09-13T14:07:42Z</time>
      </trkpt>
      <trkpt lat="47.49319" lon="6.49638">
        <ele>421.5</ele>
        <time>2025-09-13T14:07:43Z</time>
      </trkpt>
      <trkpt lat="47.49316" lon="6.49636">
        <ele>421.8</ele>
        <time>2025-09-13T14:07:44Z</time>
      </trkpt>
      <trkpt lat="47.49312" lon="6.49635">
        <ele>422.1</ele>
        <time>2025-09-13T14:07:45Z</time>
      </trkpt>
      <trkpt lat="47.49307" lon="6.49633">
        <ele>422.4</ele>
        <time>2025-09-13T14:07:46Z</time>
      </trkpt>
      <trkpt lat="47.49302" lon="6.49632">
        <ele>422.8</ele>
        <time>2025-09-13T14:07:47Z</time>
      </trkpt>
      <trkpt lat="47.49298" lon="6.49628">
        <ele>423.2</ele>
        <time>2025-09-13T14:07:48Z</time>
      </trkpt>
      <trkpt lat="47.49291" lon="6.49626">
        <ele>423.7</ele>
        <time>2025-09-13T14:07:49Z</time>
      </trkpt>
      <trkpt lat="47.49287" lon="6.49625">
        <ele>424</ele>
        <time>2025-09-13T14:07:50Z</time>
      </trkpt>
      <trkpt lat="47.49282" lon="6.49623">
        <ele>424.4</ele>
        <time>2025-09-13T14:07:51Z</time>
      </trkpt>
      <trkpt lat="47.49278" lon="6.49623">
        <ele>424.7</ele>
        <time>2025-09-13T14:07:52Z</time>
      </trkpt>
      <trkpt lat="47.49274" lon="6.49621">
        <ele>425</ele>
        <time>2025-09-13T14:07:53Z</time>
      </trkpt>
      <trkpt lat="47.49269" lon="6.4962">
        <ele>425.4</ele>
        <time>2025-09-13T14:07:54Z</time>
      </trkpt>
      <trkpt lat="47.49266" lon="6.49618">
        <ele>425.6</ele>
        <time>2025-09-13T14:07:55Z</time>
      </trkpt>
      <trkpt lat="47.49262" lon="6.49618">
        <ele>425.8</ele>
        <time>2025-09-13T14:07:56Z</time>
      </trkpt>
      <trkpt lat="47.49259" lon="6.49615">
        <ele>426</ele>
        <time>2025-09-13T14:07:57Z</time>
      </trkpt>
      <trkpt lat="47.49254" lon="6.49614">
        <ele>426.2</ele>
        <time>2025-09-13T14:07:58Z</time>
      </trkpt>
      <trkpt lat="47.49251" lon="6.49613">
        <ele>426.4</ele>
        <time>2025-09-13T14:07:59Z</time>
      </trkpt>
      <trkpt lat="47.49247" lon="6.49612">
        <ele>426.6</ele>
        <time>2025-09-13T14:08:00Z</time>
      </trkpt>
      <trkpt lat="47.49243" lon="6.49611">
        <ele>426.8</ele>
        <time>2025-09-13T14:08:01Z</time>
      </trkpt>
      <trkpt lat="47.49239" lon="6.49609">
        <ele>427</ele>
        <time>2025-09-13T14:08:02Z</time>
      </trkpt>
      <trkpt lat="47.49235" lon="6.49608">
        <ele>427.2</ele>
        <time>2025-09-13T14:08:03Z</time>
      </trkpt>
      <trkpt lat="47.49232" lon="6.49606">
        <ele>427.3</ele>
        <time>2025-09-13T14:08:04Z</time>
      </trkpt>
      <trkpt lat="47.49229" lon="6.49605">
        <ele>427.5</ele>
        <time>2025-09-13T14:08:05Z</time>
      </trkpt>
      <trkpt lat="47.49225" lon="6.49604">
        <ele>427.6</ele>
        <time>2025-09-13T14:08:06Z</time>
      </trkpt>
      <trkpt lat="47.49225" lon="6.49601">
        <ele>427.7</ele>
        <time>2025-09-13T14:08:07Z</time>
      </trkpt>
      <trkpt lat="47.49223" lon="6.496">
        <ele>427.8</ele>
        <time>2025-09-13T14:08:08Z</time>
      </trkpt>
      <trkpt lat="47.49221" lon="6.496">
        <ele>427.9</ele>
        <time>2025-09-13T14:08:09Z</time>
      </trkpt>
      <trkpt lat="47.49217" lon="6.49597">
        <ele>428.1</ele>
        <time>2025-09-13T14:08:10Z</time>
      </trkpt>
      <trkpt lat="47.49212" lon="6.49595">
        <ele>428.3</ele>
        <time>2025-09-13T14:08:11Z</time>
      </trkpt>
      <trkpt lat="47.49208" lon="6.49594">
        <ele>428.5</ele>
        <time>2025-09-13T14:08:12Z</time>
      </trkpt>
      <trkpt lat="47.49204" lon="6.49593">
        <ele>428.7</ele>
        <time>2025-09-13T14:08:13Z</time>
      </trkpt>
      <trkpt lat="47.49201" lon="6.49591">
        <ele>428.9</ele>
        <time>2025-09-13T14:08:14Z</time>
      </trkpt>
      <trkpt lat="47.49198" lon="6.49589">
        <ele>429</ele>
        <time>2025-09-13T14:08:15Z</time>
      </trkpt>
      <trkpt lat="47.49196" lon="6.49588">
        <ele>429.2</ele>
        <time>2025-09-13T14:08:16Z</time>
      </trkpt>
      <trkpt lat="47.49193" lon="6.49587">
        <ele>429.4</ele>
        <time>2025-09-13T14:08:17Z</time>
      </trkpt>
      <trkpt lat="47.4919" lon="6.49585">
        <ele>429.5</ele>
        <time>2025-09-13T14:08:18Z</time>
      </trkpt>
      <trkpt lat="47.49187" lon="6.49584">
        <ele>429.7</ele>
        <time>2025-09-13T14:08:19Z</time>
      </trkpt>
      <trkpt lat="47.49184" lon="6.49583">
        <ele>429.9</ele>
        <time>2025-09-13T14:08:20Z</time>
      </trkpt>
      <trkpt lat="47.49183" lon="6.49583">
        <ele>429.9</ele>
        <time>2025-09-13T14:08:21Z</time>
      </trkpt>
      <trkpt lat="47.49181" lon="6.49583">
        <ele>430.1</ele>
        <time>2025-09-13T14:08:22Z</time>
      </trkpt>
      <trkpt lat="47.4918" lon="6.49582">
        <ele>430.1</ele>
        <time>2025-09-13T14:08:23Z</time>
      </trkpt>
      <trkpt lat="47.49179" lon="6.49581">
        <ele>430.2</ele>
        <time>2025-09-13T14:08:24Z</time>
      </trkpt>
      <trkpt lat="47.49176" lon="6.4958">
        <ele>430.4</ele>
        <time>2025-09-13T14:08:25Z</time>
      </trkpt>
      <trkpt lat="47.49174" lon="6.49579">
        <ele>430.4</ele>
        <time>2025-09-13T14:08:26Z</time>
      </trkpt>
      <trkpt lat="47.49173" lon="6.49579">
        <ele>430.5</ele>
        <time>2025-09-13T14:08:27Z</time>
      </trkpt>
      <trkpt lat="47.49171" lon="6.49579">
        <ele>430.6</ele>
        <time>2025-09-13T14:08:28Z</time>
      </trkpt>
      <trkpt lat="47.4917" lon="6.4958">
        <ele>430.7</ele>
        <time>2025-09-13T14:08:29Z</time>
      </trkpt>
      <trkpt lat="47.49169" lon="6.49581">
        <ele>430.7</ele>
        <time>2025-09-13T14:08:30Z</time>
      </trkpt>
      <trkpt lat="47.49168" lon="6.49582">
        <ele>430.8</ele>
        <time>2025-09-13T14:08:31Z</time>
      </trkpt>
      <trkpt lat="47.49168" lon="6.49584">
        <ele>430.8</ele>
        <time>2025-09-13T14:08:32Z</time>
      </trkpt>
      <trkpt lat="47.49168" lon="6.49585">
        <ele>430.8</ele>
        <time>2025-09-13T14:08:33Z</time>
      </trkpt>
      <trkpt lat="47.49168" lon="6.49587">
        <ele>430.8</ele>
        <time>2025-09-13T14:08:34Z</time>
      </trkpt>
      <trkpt lat="47.49168" lon="6.49589">
        <ele>430.9</ele>
        <time>2025-09-13T14:08:35Z</time>
      </trkpt>
      <trkpt lat="47.49168" lon="6.49591">
        <ele>430.9</ele>
        <time>2025-09-13T14:08:36Z</time>
      </trkpt>
      <trkpt lat="47.4917" lon="6.49592">
        <ele>430.9</ele>
        <time>2025-09-13T14:08:37Z</time>
      </trkpt>
      <trkpt lat="47.49171" lon="6.49592">
        <ele>431</ele>
        <time>2025-09-13T14:08:38Z</time>
      </trkpt>
      <trkpt lat="47.49173" lon="6.49592">
        <ele>431</ele>
        <time>2025-09-13T14:08:39Z</time>
      </trkpt>
      <trkpt lat="47.49175" lon="6.4959">
        <ele>431</ele>
        <time>2025-09-13T14:08:40Z</time>
      </trkpt>
      <trkpt lat="47.49176" lon="6.49587">
        <ele>431.1</ele>
        <time>2025-09-13T14:08:41Z</time>
      </trkpt>
      <trkpt lat="47.49175" lon="6.49581">
        <ele>431.2</ele>
        <time>2025-09-13T14:08:42Z</time>
      </trkpt>
      <trkpt lat="47.49174" lon="6.49579">
        <ele>431.2</ele>
        <time>2025-09-13T14:08:43Z</time>
      </trkpt>
      <trkpt lat="47.49171" lon="6.49579">
        <ele>431.3</ele>
        <time>2025-09-13T14:08:44Z</time>
      </trkpt>
      <trkpt lat="47.4917" lon="6.4958">
        <ele>431.3</ele>
        <time>2025-09-13T14:08:45Z</time>
      </trkpt>
      <trkpt lat="47.49168" lon="6.49583">
        <ele>431.3</ele>
        <time>2025-09-13T14:08:46Z</time>
      </trkpt>
      <trkpt lat="47.49167" lon="6.49585">
        <ele>431.4</ele>
        <time>2025-09-13T14:08:47Z</time>
      </trkpt>
      <trkpt lat="47.49168" lon="6.4959">
        <ele>431.4</ele>
        <time>2025-09-13T14:08:48Z</time>
      </trkpt>
      <trkpt lat="47.49168" lon="6.49591">
        <ele>431.4</ele>
        <time>2025-09-13T14:08:49Z</time>
      </trkpt>
      <trkpt lat="47.49171" lon="6.49594">
        <ele>431.5</ele>
        <time>2025-09-13T14:08:50Z</time>
      </trkpt>
      <trkpt lat="47.49172" lon="6.49594">
        <ele>431.5</ele>
        <time>2025-09-13T14:08:51Z</time>
      </trkpt>
      <trkpt lat="47.49176" lon="6.49594">
        <ele>431.6</ele>
        <time>2025-09-13T14:08:52Z</time>
      </trkpt>
      <trkpt lat="47.49177" lon="6.49593">
        <ele>431.6</ele>
        <time>2025-09-13T14:08:53Z</time>
      </trkpt>
      <trkpt lat="47.49179" lon="6.4959">
        <ele>431.7</ele>
        <time>2025-09-13T14:08:54Z</time>
      </trkpt>
      <trkpt lat="47.4918" lon="6.49585">
        <ele>431.7</ele>
        <time>2025-09-13T14:08:55Z</time>
      </trkpt>
      <trkpt lat="47.49178" lon="6.4958">
        <ele>431.8</ele>
        <time>2025-09-13T14:08:56Z</time>
      </trkpt>
      <trkpt lat="47.49175" lon="6.49579">
        <ele>431.8</ele>
        <time>2025-09-13T14:08:57Z</time>
      </trkpt>
      <trkpt lat="47.49173" lon="6.4958">
        <ele>431.9</ele>
        <time>2025-09-13T14:08:58Z</time>
      </trkpt>
      <trkpt lat="47.4917" lon="6.49582">
        <ele>431.9</ele>
        <time>2025-09-13T14:08:59Z</time>
      </trkpt>
      <trkpt lat="47.49169" lon="6.49583">
        <ele>431.9</ele>
        <time>2025-09-13T14:09:00Z</time>
      </trkpt>
      <trkpt lat="47.49169" lon="6.49586">
        <ele>432</ele>
        <time>2025-09-13T14:09:01Z</time>
      </trkpt>
      <trkpt lat="47.49169" lon="6.49588">
        <ele>432</ele>
        <time>2025-09-13T14:09:02Z</time>
      </trkpt>
      <trkpt lat="47.4917" lon="6.4959">
        <ele>432</ele>
        <time>2025-09-13T14:09:03Z</time>
      </trkpt>
      <trkpt lat="47.4917" lon="6.49591">
        <ele>432.1</ele>
        <time>2025-09-13T14:09:04Z</time>
      </trkpt>
      <trkpt lat="47.49171" lon="6.49592">
        <ele>432.1</ele>
        <time>2025-09-13T14:09:05Z</time>
      </trkpt>
      <trkpt lat="47.49171" lon="6.49595">
        <ele>432.1</ele>
        <time>2025-09-13T14:09:06Z</time>
      </trkpt>
      <trkpt lat="47.49172" lon="6.49597">
        <ele>432.1</ele>
        <time>2025-09-13T14:09:07Z</time>
      </trkpt>
      <trkpt lat="47.49172" lon="6.49598">
        <ele>432.2</ele>
        <time>2025-09-13T14:09:08Z</time>
      </trkpt>
      <trkpt lat="47.49174" lon="6.49602">
        <ele>432.2</ele>
        <time>2025-09-13T14:09:09Z</time>
      </trkpt>
      <trkpt lat="47.49175" lon="6.49605">
        <ele>432.3</ele>
        <time>2025-09-13T14:09:10Z</time>
      </trkpt>
      <trkpt lat="47.49177" lon="6.49609">
        <ele>432.3</ele>
        <time>2025-09-13T14:09:11Z</time>
      </trkpt>
      <trkpt lat="47.4918" lon="6.49613">
        <ele>432.4</ele>
        <time>2025-09-13T14:09:12Z</time>
      </trkpt>
      <trkpt lat="47.49182" lon="6.49618">
        <ele>432.5</ele>
        <time>2025-09-13T14:09:13Z</time>
      </trkpt>
      <trkpt lat="47.49185" lon="6.49622">
        <ele>432.6</ele>
        <time>2025-09-13T14:09:14Z</time>
      </trkpt>
      <trkpt lat="47.49187" lon="6.49626">
        <ele>432.7</ele>
        <time>2025-09-13T14:09:15Z</time>
      </trkpt>
      <trkpt lat="47.4919" lon="6.49631">
        <ele>432.8</ele>
        <time>2025-09-13T14:09:16Z</time>
      </trkpt>
      <trkpt lat="47.49191" lon="6.49632">
        <ele>432.8</ele>
        <time>2025-09-13T14:09:17Z</time>
      </trkpt>
      <trkpt lat="47.49193" lon="6.49637">
        <ele>432.9</ele>
        <time>2025-09-13T14:09:18Z</time>
      </trkpt>
      <trkpt lat="47.49196" lon="6.49641">
        <ele>433</ele>
        <time>2025-09-13T14:09:19Z</time>
      </trkpt>
      <trkpt lat="47.49198" lon="6.49645">
        <ele>433.1</ele>
        <time>2025-09-13T14:09:20Z</time>
      </trkpt>
      <trkpt lat="47.492" lon="6.49649">
        <ele>433.2</ele>
        <time>2025-09-13T14:09:21Z</time>
      </trkpt>
      <trkpt lat="47.49202" lon="6.49652">
        <ele>433.3</ele>
        <time>2025-09-13T14:09:22Z</time>
      </trkpt>
      <trkpt lat="47.49205" lon="6.49656">
        <ele>433.4</ele>
        <time>2025-09-13T14:09:23Z</time>
      </trkpt>
      <trkpt lat="47.49207" lon="6.4966">
        <ele>433.5</ele>
        <time>2025-09-13T14:09:24Z</time>
      </trkpt>
      <trkpt lat="47.4921" lon="6.49664">
        <ele>433.6</ele>
        <time>2025-09-13T14:09:25Z</time>
      </trkpt>
      <trkpt lat="47.49212" lon="6.49667">
        <ele>433.6</ele>
        <time>2025-09-13T14:09:26Z</time>
      </trkpt>
      <trkpt lat="47.49214" lon="6.4967">
        <ele>433.7</ele>
        <time>2025-09-13T14:09:27Z</time>
      </trkpt>
      <trkpt lat="47.49216" lon="6.49674">
        <ele>433.8</ele>
        <time>2025-09-13T14:09:28Z</time>
      </trkpt>
      <trkpt lat="47.49219" lon="6.49677">
        <ele>433.9</ele>
        <time>2025-09-13T14:09:29Z</time>
      </trkpt>
      <trkpt lat="47.49222" lon="6.4968">
        <ele>434</ele>
        <time>2025-09-13T14:09:30Z</time>
      </trkpt>
      <trkpt lat="47.49222" lon="6.49682">
        <ele>434</ele>
        <time>2025-09-13T14:09:31Z</time>
      </trkpt>
      <trkpt lat="47.49224" lon="6.49685">
        <ele>434.1</ele>
        <time>2025-09-13T14:09:32Z</time>
      </trkpt>
      <trkpt lat="47.49226" lon="6.49689">
        <ele>434.2</ele>
        <time>2025-09-13T14:09:33Z</time>
      </trkpt>
      <trkpt lat="47.49228" lon="6.49692">
        <ele>434.3</ele>
        <time>2025-09-13T14:09:34Z</time>
      </trkpt>
      <trkpt lat="47.49229" lon="6.49697">
        <ele>434.3</ele>
        <time>2025-09-13T14:09:35Z</time>
      </trkpt>
      <trkpt lat="47.49231" lon="6.49703">
        <ele>434.5</ele>
        <time>2025-09-13T14:09:36Z</time>
      </trkpt>
      <trkpt lat="47.49234" lon="6.49709">
        <ele>434.6</ele>
        <time>2025-09-13T14:09:37Z</time>
      </trkpt>
      <trkpt lat="47.49236" lon="6.49715">
        <ele>434.7</ele>
        <time>2025-09-13T14:09:38Z</time>
      </trkpt>
      <trkpt lat="47.49238" lon="6.49719">
        <ele>434.8</ele>
        <time>2025-09-13T14:09:39Z</time>
      </trkpt>
      <trkpt lat="47.49241" lon="6.49722">
        <ele>434.9</ele>
        <time>2025-09-13T14:09:40Z</time>
      </trkpt>
      <trkpt lat="47.49242" lon="6.49726">
        <ele>435</ele>
        <time>2025-09-13T14:09:41Z</time>
      </trkpt>
      <trkpt lat="47.49244" lon="6.4973">
        <ele>435.1</ele>
        <time>2025-09-13T14:09:42Z</time>
      </trkpt>
      <trkpt lat="47.49247" lon="6.49735">
        <ele>435.2</ele>
        <time>2025-09-13T14:09:43Z</time>
      </trkpt>
      <trkpt lat="47.49249" lon="6.4974">
        <ele>435.3</ele>
        <time>2025-09-13T14:09:44Z</time>
      </trkpt>
      <trkpt lat="47.49251" lon="6.49743">
        <ele>435.4</ele>
        <time>2025-09-13T14:09:45Z</time>
      </trkpt>
      <trkpt lat="47.49253" lon="6.49745">
        <ele>435.4</ele>
        <time>2025-09-13T14:09:46Z</time>
      </trkpt>
      <trkpt lat="47.49254" lon="6.49743">
        <ele>435.5</ele>
        <time>2025-09-13T14:09:47Z</time>
      </trkpt>
      <trkpt lat="47.49253" lon="6.49738">
        <ele>435.4</ele>
        <time>2025-09-13T14:09:48Z</time>
      </trkpt>
      <trkpt lat="47.4925" lon="6.49733">
        <ele>435.2</ele>
        <time>2025-09-13T14:09:49Z</time>
      </trkpt>
      <trkpt lat="47.49247" lon="6.49727">
        <ele>435</ele>
        <time>2025-09-13T14:09:50Z</time>
      </trkpt>
      <trkpt lat="47.49243" lon="6.49722">
        <ele>434.8</ele>
        <time>2025-09-13T14:09:51Z</time>
      </trkpt>
      <trkpt lat="47.4924" lon="6.49715">
        <ele>434.5</ele>
        <time>2025-09-13T14:09:52Z</time>
      </trkpt>
      <trkpt lat="47.49237" lon="6.49709">
        <ele>434.3</ele>
        <time>2025-09-13T14:09:53Z</time>
      </trkpt>
      <trkpt lat="47.49233" lon="6.49702">
        <ele>434.1</ele>
        <time>2025-09-13T14:09:54Z</time>
      </trkpt>
      <trkpt lat="47.4923" lon="6.49695">
        <ele>433.9</ele>
        <time>2025-09-13T14:09:55Z</time>
      </trkpt>
      <trkpt lat="47.49226" lon="6.49689">
        <ele>433.6</ele>
        <time>2025-09-13T14:09:56Z</time>
      </trkpt>
      <trkpt lat="47.49222" lon="6.49682">
        <ele>433.4</ele>
        <time>2025-09-13T14:09:57Z</time>
      </trkpt>
      <trkpt lat="47.49219" lon="6.49675">
        <ele>433.2</ele>
        <time>2025-09-13T14:09:58Z</time>
      </trkpt>
      <trkpt lat="47.49215" lon="6.49668">
        <ele>432.9</ele>
        <time>2025-09-13T14:09:59Z</time>
      </trkpt>
      <trkpt lat="47.4921" lon="6.49663">
        <ele>432.7</ele>
        <time>2025-09-13T14:10:00Z</time>
      </trkpt>
      <trkpt lat="47.49206" lon="6.49656">
        <ele>432.5</ele>
        <time>2025-09-13T14:10:01Z</time>
      </trkpt>
      <trkpt lat="47.49202" lon="6.49649">
        <ele>432.3</ele>
        <time>2025-09-13T14:10:02Z</time>
      </trkpt>
      <trkpt lat="47.49198" lon="6.49642">
        <ele>432.1</ele>
        <time>2025-09-13T14:10:03Z</time>
      </trkpt>
      <trkpt lat="47.49194" lon="6.49635">
        <ele>431.9</ele>
        <time>2025-09-13T14:10:04Z</time>
      </trkpt>
      <trkpt lat="47.49189" lon="6.49628">
        <ele>431.7</ele>
        <time>2025-09-13T14:10:05Z</time>
      </trkpt>
      <trkpt lat="47.49185" lon="6.4962">
        <ele>431.6</ele>
        <time>2025-09-13T14:10:06Z</time>
      </trkpt>
      <trkpt lat="47.4918" lon="6.49613">
        <ele>431.4</ele>
        <time>2025-09-13T14:10:07Z</time>
      </trkpt>
      <trkpt lat="47.49177" lon="6.49605">
        <ele>431.2</ele>
        <time>2025-09-13T14:10:08Z</time>
      </trkpt>
      <trkpt lat="47.49176" lon="6.49596">
        <ele>431</ele>
        <time>2025-09-13T14:10:09Z</time>
      </trkpt>
      <trkpt lat="47.49179" lon="6.49588">
        <ele>430.8</ele>
        <time>2025-09-13T14:10:10Z</time>
      </trkpt>
      <trkpt lat="47.49189" lon="6.49588">
        <ele>429.9</ele>
        <time>2025-09-13T14:10:11Z</time>
      </trkpt>
      <trkpt lat="47.49195" lon="6.49593">
        <ele>429.5</ele>
        <time>2025-09-13T14:10:12Z</time>
      </trkpt>
      <trkpt lat="47.49199" lon="6.49596">
        <ele>429.3</ele>
        <time>2025-09-13T14:10:13Z</time>
      </trkpt>
      <trkpt lat="47.49201" lon="6.49597">
        <ele>429.2</ele>
        <time>2025-09-13T14:10:14Z</time>
      </trkpt>
      <trkpt lat="47.49204" lon="6.49594">
        <ele>429</ele>
        <time>2025-09-13T14:10:15Z</time>
      </trkpt>
      <trkpt lat="47.49204" lon="6.49591">
        <ele>429</ele>
        <time>2025-09-13T14:10:16Z</time>
      </trkpt>
      <trkpt lat="47.492" lon="6.49589">
        <ele>429.3</ele>
        <time>2025-09-13T14:10:17Z</time>
      </trkpt>
      <trkpt lat="47.49197" lon="6.49588">
        <ele>429.5</ele>
        <time>2025-09-13T14:10:18Z</time>
      </trkpt>
      <trkpt lat="47.49194" lon="6.49588">
        <ele>429.7</ele>
        <time>2025-09-13T14:10:19Z</time>
      </trkpt>
      <trkpt lat="47.4919" lon="6.49587">
        <ele>430</ele>
        <time>2025-09-13T14:10:20Z</time>
      </trkpt>
      <trkpt lat="47.49186" lon="6.49586">
        <ele>430.2</ele>
        <time>2025-09-13T14:10:21Z</time>
      </trkpt>
      <trkpt lat="47.49182" lon="6.49586">
        <ele>430.5</ele>
        <time>2025-09-13T14:10:22Z</time>
      </trkpt>
      <trkpt lat="47.49179" lon="6.49588">
        <ele>430.8</ele>
        <time>2025-09-13T14:10:23Z</time>
      </trkpt>
      <trkpt lat="47.49175" lon="6.49595">
        <ele>431</ele>
        <time>2025-09-13T14:10:24Z</time>
      </trkpt>
      <trkpt lat="47.49174" lon="6.49601">
        <ele>431.1</ele>
        <time>2025-09-13T14:10:25Z</time>
      </trkpt>
      <trkpt lat="47.49175" lon="6.49608">
        <ele>431.3</ele>
        <time>2025-09-13T14:10:26Z</time>
      </trkpt>
      <trkpt lat="47.49178" lon="6.49614">
        <ele>431.4</ele>
        <time>2025-09-13T14:10:27Z</time>
      </trkpt>
      <trkpt lat="47.49182" lon="6.49617">
        <ele>431.5</ele>
        <time>2025-09-13T14:10:28Z</time>
      </trkpt>
      <trkpt lat="47.49185" lon="6.49622">
        <ele>431.6</ele>
        <time>2025-09-13T14:10:29Z</time>
      </trkpt>
      <trkpt lat="47.49188" lon="6.49626">
        <ele>431.7</ele>
        <time>2025-09-13T14:10:30Z</time>
      </trkpt>
      <trkpt lat="47.4919" lon="6.49631">
        <ele>431.8</ele>
        <time>2025-09-13T14:10:31Z</time>
      </trkpt>
      <trkpt lat="47.49193" lon="6.49635">
        <ele>431.9</ele>
        <time>2025-09-13T14:10:32Z</time>
      </trkpt>
      <trkpt lat="47.49195" lon="6.49638">
        <ele>432</ele>
        <time>2025-09-13T14:10:33Z</time>
      </trkpt>
      <trkpt lat="47.49197" lon="6.49641">
        <ele>432.1</ele>
        <time>2025-09-13T14:10:34Z</time>
      </trkpt>
      <trkpt lat="47.49199" lon="6.49644">
        <ele>432.2</ele>
        <time>2025-09-13T14:10:35Z</time>
      </trkpt>
      <trkpt lat="47.49202" lon="6.49648">
        <ele>432.3</ele>
        <time>2025-09-13T14:10:36Z</time>
      </trkpt>
      <trkpt lat="47.49204" lon="6.49652">
        <ele>432.4</ele>
        <time>2025-09-13T14:10:37Z</time>
      </trkpt>
      <trkpt lat="47.49206" lon="6.49656">
        <ele>432.5</ele>
        <time>2025-09-13T14:10:38Z</time>
      </trkpt>
      <trkpt lat="47.49209" lon="6.49659">
        <ele>432.7</ele>
        <time>2025-09-13T14:10:39Z</time>
      </trkpt>
      <trkpt lat="47.49211" lon="6.49662">
        <ele>432.8</ele>
        <time>2025-09-13T14:10:40Z</time>
      </trkpt>
      <trkpt lat="47.49213" lon="6.49666">
        <ele>432.9</ele>
        <time>2025-09-13T14:10:41Z</time>
      </trkpt>
      <trkpt lat="47.49215" lon="6.4967">
        <ele>433</ele>
        <time>2025-09-13T14:10:42Z</time>
      </trkpt>
      <trkpt lat="47.49218" lon="6.49675">
        <ele>433.2</ele>
        <time>2025-09-13T14:10:43Z</time>
      </trkpt>
      <trkpt lat="47.4922" lon="6.4968">
        <ele>433.4</ele>
        <time>2025-09-13T14:10:44Z</time>
      </trkpt>
      <trkpt lat="47.49223" lon="6.49684">
        <ele>433.5</ele>
        <time>2025-09-13T14:10:45Z</time>
      </trkpt>
      <trkpt lat="47.49225" lon="6.49688">
        <ele>433.7</ele>
        <time>2025-09-13T14:10:46Z</time>
      </trkpt>
      <trkpt lat="47.49227" lon="6.49692">
        <ele>433.8</ele>
        <time>2025-09-13T14:10:47Z</time>
      </trkpt>
      <trkpt lat="47.49229" lon="6.49695">
        <ele>433.9</ele>
        <time>2025-09-13T14:10:48Z</time>
      </trkpt>
      <trkpt lat="47.49231" lon="6.49699">
        <ele>434</ele>
        <time>2025-09-13T14:10:49Z</time>
      </trkpt>
      <trkpt lat="47.49233" lon="6.49703">
        <ele>434.2</ele>
        <time>2025-09-13T14:10:50Z</time>
      </trkpt>
      <trkpt lat="47.49235" lon="6.49707">
        <ele>434.3</ele>
        <time>2025-09-13T14:10:51Z</time>
      </trkpt>
      <trkpt lat="47.49238" lon="6.49712">
        <ele>434.5</ele>
        <time>2025-09-13T14:10:52Z</time>
      </trkpt>
      <trkpt lat="47.4924" lon="6.49718">
        <ele>434.6</ele>
        <time>2025-09-13T14:10:53Z</time>
      </trkpt>
      <trkpt lat="47.49242" lon="6.49723">
        <ele>434.8</ele>
        <time>2025-09-13T14:10:54Z</time>
      </trkpt>
      <trkpt lat="47.49244" lon="6.49727">
        <ele>434.9</ele>
        <time>2025-09-13T14:10:55Z</time>
      </trkpt>
      <trkpt lat="47.49246" lon="6.4973">
        <ele>435.1</ele>
        <time>2025-09-13T14:10:56Z</time>
      </trkpt>
      <trkpt lat="47.49249" lon="6.49735">
        <ele>435.2</ele>
        <time>2025-09-13T14:10:57Z</time>
      </trkpt>
      <trkpt lat="47.49251" lon="6.4974">
        <ele>435.4</ele>
        <time>2025-09-13T14:10:58Z</time>
      </trkpt>
      <trkpt lat="47.49253" lon="6.49744">
        <ele>435.5</ele>
        <time>2025-09-13T14:10:59Z</time>
      </trkpt>
      <trkpt lat="47.49255" lon="6.49748">
        <ele>435.7</ele>
        <time>2025-09-13T14:11:00Z</time>
      </trkpt>
      <trkpt lat="47.49257" lon="6.49753">
        <ele>435.8</ele>
        <time>2025-09-13T14:11:01Z</time>
      </trkpt>
      <trkpt lat="47.49259" lon="6.49757">
        <ele>436</ele>
        <time>2025-09-13T14:11:02Z</time>
      </trkpt>
      <trkpt lat="47.49261" lon="6.49761">
        <ele>436.2</ele>
        <time>2025-09-13T14:11:03Z</time>
      </trkpt>
      <trkpt lat="47.49263" lon="6.49766">
        <ele>436.3</ele>
        <time>2025-09-13T14:11:04Z</time>
      </trkpt>
      <trkpt lat="47.49265" lon="6.4977">
        <ele>436.5</ele>
        <time>2025-09-13T14:11:05Z</time>
      </trkpt>
      <trkpt lat="47.49267" lon="6.49774">
        <ele>436.6</ele>
        <time>2025-09-13T14:11:06Z</time>
      </trkpt>
      <trkpt lat="47.49269" lon="6.49779">
        <ele>436.8</ele>
        <time>2025-09-13T14:11:07Z</time>
      </trkpt>
      <trkpt lat="47.49271" lon="6.49783">
        <ele>436.9</ele>
        <time>2025-09-13T14:11:08Z</time>
      </trkpt>
      <trkpt lat="47.49273" lon="6.49788">
        <ele>437.1</ele>
        <time>2025-09-13T14:11:09Z</time>
      </trkpt>
      <trkpt lat="47.49275" lon="6.49792">
        <ele>437.2</ele>
        <time>2025-09-13T14:11:10Z</time>
      </trkpt>
      <trkpt lat="47.49277" lon="6.49797">
        <ele>437.4</ele>
        <time>2025-09-13T14:11:11Z</time>
      </trkpt>
      <trkpt lat="47.4928" lon="6.49801">
        <ele>437.5</ele>
        <time>2025-09-13T14:11:12Z</time>
      </trkpt>
      <trkpt lat="47.49282" lon="6.49806">
        <ele>437.7</ele>
        <time>2025-09-13T14:11:13Z</time>
      </trkpt>
      <trkpt lat="47.49284" lon="6.4981">
        <ele>437.9</ele>
        <time>2025-09-13T14:11:14Z</time>
      </trkpt>
      <trkpt lat="47.49286" lon="6.49816">
        <ele>438</ele>
        <time>2025-09-13T14:11:15Z</time>
      </trkpt>
      <trkpt lat="47.49288" lon="6.49821">
        <ele>438.2</ele>
        <time>2025-09-13T14:11:16Z</time>
      </trkpt>
      <trkpt lat="47.4929" lon="6.49826">
        <ele>438.4</ele>
        <time>2025-09-13T14:11:17Z</time>
      </trkpt>
      <trkpt lat="47.49292" lon="6.4983">
        <ele>438.5</ele>
        <time>2025-09-13T14:11:18Z</time>
      </trkpt>
      <trkpt lat="47.49294" lon="6.49835">
        <ele>438.7</ele>
        <time>2025-09-13T14:11:19Z</time>
      </trkpt>
      <trkpt lat="47.49296" lon="6.49839">
        <ele>438.8</ele>
        <time>2025-09-13T14:11:20Z</time>
      </trkpt>
      <trkpt lat="47.49298" lon="6.49844">
        <ele>439</ele>
        <time>2025-09-13T14:11:21Z</time>
      </trkpt>
      <trkpt lat="47.493" lon="6.49849">
        <ele>439.2</ele>
        <time>2025-09-13T14:11:22Z</time>
      </trkpt>
      <trkpt lat="47.49302" lon="6.49854">
        <ele>439.3</ele>
        <time>2025-09-13T14:11:23Z</time>
      </trkpt>
      <trkpt lat="47.49304" lon="6.49858">
        <ele>439.5</ele>
        <time>2025-09-13T14:11:24Z</time>
      </trkpt>
      <trkpt lat="47.49306" lon="6.49863">
        <ele>439.6</ele>
        <time>2025-09-13T14:11:25Z</time>
      </trkpt>
      <trkpt lat="47.49308" lon="6.49868">
        <ele>439.8</ele>
        <time>2025-09-13T14:11:26Z</time>
      </trkpt>
      <trkpt lat="47.49309" lon="6.49872">
        <ele>439.9</ele>
        <time>2025-09-13T14:11:27Z</time>
      </trkpt>
      <trkpt lat="47.49312" lon="6.49877">
        <ele>440.1</ele>
        <time>2025-09-13T14:11:28Z</time>
      </trkpt>
      <trkpt lat="47.49313" lon="6.49882">
        <ele>440.3</ele>
        <time>2025-09-13T14:11:29Z</time>
      </trkpt>
      <trkpt lat="47.49315" lon="6.49888">
        <ele>440.4</ele>
        <time>2025-09-13T14:11:30Z</time>
      </trkpt>
      <trkpt lat="47.49317" lon="6.49893">
        <ele>440.6</ele>
        <time>2025-09-13T14:11:31Z</time>
      </trkpt>
      <trkpt lat="47.4932" lon="6.49898">
        <ele>440.8</ele>
        <time>2025-09-13T14:11:32Z</time>
      </trkpt>
      <trkpt lat="47.49322" lon="6.49903">
        <ele>440.9</ele>
        <time>2025-09-13T14:11:33Z</time>
      </trkpt>
      <trkpt lat="47.49324" lon="6.49908">
        <ele>441.1</ele>
        <time>2025-09-13T14:11:34Z</time>
      </trkpt>
      <trkpt lat="47.49326" lon="6.49912">
        <ele>441.3</ele>
        <time>2025-09-13T14:11:35Z</time>
      </trkpt>
      <trkpt lat="47.49328" lon="6.49917">
        <ele>441.4</ele>
        <time>2025-09-13T14:11:36Z</time>
      </trkpt>
      <trkpt lat="47.4933" lon="6.49922">
        <ele>441.6</ele>
        <time>2025-09-13T14:11:37Z</time>
      </trkpt>
      <trkpt lat="47.49332" lon="6.49927">
        <ele>441.8</ele>
        <time>2025-09-13T14:11:38Z</time>
      </trkpt>
      <trkpt lat="47.49334" lon="6.49932">
        <ele>442</ele>
        <time>2025-09-13T14:11:39Z</time>
      </trkpt>
      <trkpt lat="47.49336" lon="6.49937">
        <ele>442.1</ele>
        <time>2025-09-13T14:11:40Z</time>
      </trkpt>
      <trkpt lat="47.49338" lon="6.49941">
        <ele>442.3</ele>
        <time>2025-09-13T14:11:41Z</time>
      </trkpt>
      <trkpt lat="47.4934" lon="6.49946">
        <ele>442.5</ele>
        <time>2025-09-13T14:11:42Z</time>
      </trkpt>
      <trkpt lat="47.49342" lon="6.49951">
        <ele>442.6</ele>
        <time>2025-09-13T14:11:43Z</time>
      </trkpt>
      <trkpt lat="47.49344" lon="6.49955">
        <ele>442.8</ele>
        <time>2025-09-13T14:11:44Z</time>
      </trkpt>
      <trkpt lat="47.49346" lon="6.4996">
        <ele>442.9</ele>
        <time>2025-09-13T14:11:45Z</time>
      </trkpt>
      <trkpt lat="47.49348" lon="6.49965">
        <ele>443.1</ele>
        <time>2025-09-13T14:11:46Z</time>
      </trkpt>
      <trkpt lat="47.4935" lon="6.4997">
        <ele>443.3</ele>
        <time>2025-09-13T14:11:47Z</time>
      </trkpt>
      <trkpt lat="47.49352" lon="6.49974">
        <ele>443.4</ele>
        <time>2025-09-13T14:11:48Z</time>
      </trkpt>
      <trkpt lat="47.49354" lon="6.49979">
        <ele>443.6</ele>
        <time>2025-09-13T14:11:49Z</time>
      </trkpt>
      <trkpt lat="47.49356" lon="6.49984">
        <ele>443.8</ele>
        <time>2025-09-13T14:11:50Z</time>
      </trkpt>
      <trkpt lat="47.49358" lon="6.49988">
        <ele>443.9</ele>
        <time>2025-09-13T14:11:51Z</time>
      </trkpt>
      <trkpt lat="47.49359" lon="6.49993">
        <ele>444.1</ele>
        <time>2025-09-13T14:11:52Z</time>
      </trkpt>
      <trkpt lat="47.49361" lon="6.49998">
        <ele>444.2</ele>
        <time>2025-09-13T14:11:53Z</time>
      </trkpt>
      <trkpt lat="47.49363" lon="6.50003">
        <ele>444.4</ele>
        <time>2025-09-13T14:11:54Z</time>
      </trkpt>
      <trkpt lat="47.49365" lon="6.50007">
        <ele>444.6</ele>
        <time>2025-09-13T14:11:55Z</time>
      </trkpt>
      <trkpt lat="47.49367" lon="6.50011">
        <ele>444.8</ele>
        <time>2025-09-13T14:11:56Z</time>
      </trkpt>
      <trkpt lat="47.49369" lon="6.50016">
        <ele>444.9</ele>
        <time>2025-09-13T14:11:57Z</time>
      </trkpt>
      <trkpt lat="47.49371" lon="6.50021">
        <ele>445.1</ele>
        <time>2025-09-13T14:11:58Z</time>
      </trkpt>
      <trkpt lat="47.49372" lon="6.50026">
        <ele>445.3</ele>
        <time>2025-09-13T14:11:59Z</time>
      </trkpt>
      <trkpt lat="47.49374" lon="6.5003">
        <ele>445.4</ele>
        <time>2025-09-13T14:12:00Z</time>
      </trkpt>
      <trkpt lat="47.49375" lon="6.50035">
        <ele>445.6</ele>
        <time>2025-09-13T14:12:01Z</time>
      </trkpt>
      <trkpt lat="47.49377" lon="6.5004">
        <ele>445.7</ele>
        <time>2025-09-13T14:12:02Z</time>
      </trkpt>
      <trkpt lat="47.49379" lon="6.50045">
        <ele>445.8</ele>
        <time>2025-09-13T14:12:03Z</time>
      </trkpt>
      <trkpt lat="47.4938" lon="6.50049">
        <ele>446</ele>
        <time>2025-09-13T14:12:04Z</time>
      </trkpt>
      <trkpt lat="47.49382" lon="6.50055">
        <ele>446.2</ele>
        <time>2025-09-13T14:12:05Z</time>
      </trkpt>
      <trkpt lat="47.49384" lon="6.5006">
        <ele>446.3</ele>
        <time>2025-09-13T14:12:06Z</time>
      </trkpt>
      <trkpt lat="47.49386" lon="6.50065">
        <ele>446.5</ele>
        <time>2025-09-13T14:12:07Z</time>
      </trkpt>
      <trkpt lat="47.49387" lon="6.50069">
        <ele>446.6</ele>
        <time>2025-09-13T14:12:08Z</time>
      </trkpt>
      <trkpt lat="47.49389" lon="6.50074">
        <ele>446.8</ele>
        <time>2025-09-13T14:12:09Z</time>
      </trkpt>
      <trkpt lat="47.4939" lon="6.50079">
        <ele>446.9</ele>
        <time>2025-09-13T14:12:10Z</time>
      </trkpt>
      <trkpt lat="47.49392" lon="6.50085">
        <ele>447.1</ele>
        <time>2025-09-13T14:12:11Z</time>
      </trkpt>
      <trkpt lat="47.49394" lon="6.50089">
        <ele>447.2</ele>
        <time>2025-09-13T14:12:12Z</time>
      </trkpt>
      <trkpt lat="47.49395" lon="6.50094">
        <ele>447.4</ele>
        <time>2025-09-13T14:12:13Z</time>
      </trkpt>
      <trkpt lat="47.49397" lon="6.50099">
        <ele>447.6</ele>
        <time>2025-09-13T14:12:14Z</time>
      </trkpt>
      <trkpt lat="47.49398" lon="6.50104">
        <ele>447.7</ele>
        <time>2025-09-13T14:12:15Z</time>
      </trkpt>
      <trkpt lat="47.494" lon="6.5011">
        <ele>447.9</ele>
        <time>2025-09-13T14:12:16Z</time>
      </trkpt>
      <trkpt lat="47.49402" lon="6.50115">
        <ele>448.1</ele>
        <time>2025-09-13T14:12:17Z</time>
      </trkpt>
      <trkpt lat="47.49403" lon="6.5012">
        <ele>448.2</ele>
        <time>2025-09-13T14:12:18Z</time>
      </trkpt>
      <trkpt lat="47.49405" lon="6.50125">
        <ele>448.4</ele>
        <time>2025-09-13T14:12:19Z</time>
      </trkpt>
      <trkpt lat="47.49406" lon="6.5013">
        <ele>448.5</ele>
        <time>2025-09-13T14:12:20Z</time>
      </trkpt>
      <trkpt lat="47.49407" lon="6.50135">
        <ele>448.7</ele>
        <time>2025-09-13T14:12:21Z</time>
      </trkpt>
      <trkpt lat="47.4941" lon="6.50146">
        <ele>449</ele>
        <time>2025-09-13T14:12:22Z</time>
      </trkpt>
      <trkpt lat="47.49411" lon="6.50151">
        <ele>449.1</ele>
        <time>2025-09-13T14:12:23Z</time>
      </trkpt>
      <trkpt lat="47.49412" lon="6.50156">
        <ele>449.3</ele>
        <time>2025-09-13T14:12:24Z</time>
      </trkpt>
      <trkpt lat="47.49413" lon="6.50161">
        <ele>449.4</ele>
        <time>2025-09-13T14:12:25Z</time>
      </trkpt>
      <trkpt lat="47.49414" lon="6.50167">
        <ele>449.6</ele>
        <time>2025-09-13T14:12:26Z</time>
      </trkpt>
      <trkpt lat="47.49416" lon="6.50172">
        <ele>449.8</ele>
        <time>2025-09-13T14:12:27Z</time>
      </trkpt>
      <trkpt lat="47.49417" lon="6.50177">
        <ele>449.9</ele>
        <time>2025-09-13T14:12:28Z</time>
      </trkpt>
      <trkpt lat="47.49418" lon="6.50183">
        <ele>450.1</ele>
        <time>2025-09-13T14:12:29Z</time>
      </trkpt>
      <trkpt lat="47.49419" lon="6.50188">
        <ele>450.2</ele>
        <time>2025-09-13T14:12:30Z</time>
      </trkpt>
      <trkpt lat="47.49421" lon="6.50193">
        <ele>450.4</ele>
        <time>2025-09-13T14:12:31Z</time>
      </trkpt>
      <trkpt lat="47.49422" lon="6.50198">
        <ele>450.5</ele>
        <time>2025-09-13T14:12:32Z</time>
      </trkpt>
      <trkpt lat="47.49424" lon="6.50203">
        <ele>450.7</ele>
        <time>2025-09-13T14:12:33Z</time>
      </trkpt>
      <trkpt lat="47.49425" lon="6.50208">
        <ele>450.9</ele>
        <time>2025-09-13T14:12:34Z</time>
      </trkpt>
      <trkpt lat="47.49426" lon="6.50213">
        <ele>451</ele>
        <time>2025-09-13T14:12:35Z</time>
      </trkpt>
      <trkpt lat="47.49429" lon="6.50219">
        <ele>451.2</ele>
        <time>2025-09-13T14:12:36Z</time>
      </trkpt>
      <trkpt lat="47.4943" lon="6.50223">
        <ele>451.4</ele>
        <time>2025-09-13T14:12:37Z</time>
      </trkpt>
      <trkpt lat="47.49432" lon="6.50228">
        <ele>451.5</ele>
        <time>2025-09-13T14:12:38Z</time>
      </trkpt>
      <trkpt lat="47.49434" lon="6.50232">
        <ele>451.7</ele>
        <time>2025-09-13T14:12:39Z</time>
      </trkpt>
      <trkpt lat="47.49436" lon="6.50236">
        <ele>451.8</ele>
        <time>2025-09-13T14:12:40Z</time>
      </trkpt>
      <trkpt lat="47.49438" lon="6.50241">
        <ele>452</ele>
        <time>2025-09-13T14:12:41Z</time>
      </trkpt>
      <trkpt lat="47.4944" lon="6.50245">
        <ele>452.1</ele>
        <time>2025-09-13T14:12:42Z</time>
      </trkpt>
      <trkpt lat="47.49443" lon="6.5025">
        <ele>452.3</ele>
        <time>2025-09-13T14:12:43Z</time>
      </trkpt>
      <trkpt lat="47.49445" lon="6.50254">
        <ele>452.4</ele>
        <time>2025-09-13T14:12:44Z</time>
      </trkpt>
      <trkpt lat="47.49447" lon="6.50258">
        <ele>452.6</ele>
        <time>2025-09-13T14:12:45Z</time>
      </trkpt>
      <trkpt lat="47.49449" lon="6.50263">
        <ele>452.7</ele>
        <time>2025-09-13T14:12:46Z</time>
      </trkpt>
      <trkpt lat="47.49451" lon="6.50269">
        <ele>452.9</ele>
        <time>2025-09-13T14:12:47Z</time>
      </trkpt>
      <trkpt lat="47.49453" lon="6.50273">
        <ele>453.1</ele>
        <time>2025-09-13T14:12:48Z</time>
      </trkpt>
      <trkpt lat="47.49455" lon="6.50276">
        <ele>453.2</ele>
        <time>2025-09-13T14:12:49Z</time>
      </trkpt>
      <trkpt lat="47.49456" lon="6.5028">
        <ele>453.3</ele>
        <time>2025-09-13T14:12:50Z</time>
      </trkpt>
      <trkpt lat="47.49459" lon="6.50285">
        <ele>453.5</ele>
        <time>2025-09-13T14:12:51Z</time>
      </trkpt>
      <trkpt lat="47.49461" lon="6.5029">
        <ele>453.7</ele>
        <time>2025-09-13T14:12:52Z</time>
      </trkpt>
      <trkpt lat="47.49463" lon="6.50295">
        <ele>453.8</ele>
        <time>2025-09-13T14:12:53Z</time>
      </trkpt>
      <trkpt lat="47.49465" lon="6.50299">
        <ele>454</ele>
        <time>2025-09-13T14:12:54Z</time>
      </trkpt>
      <trkpt lat="47.49467" lon="6.50303">
        <ele>454.1</ele>
        <time>2025-09-13T14:12:55Z</time>
      </trkpt>
      <trkpt lat="47.49469" lon="6.50307">
        <ele>454.3</ele>
        <time>2025-09-13T14:12:56Z</time>
      </trkpt>
      <trkpt lat="47.49471" lon="6.50312">
        <ele>454.4</ele>
        <time>2025-09-13T14:12:57Z</time>
      </trkpt>
      <trkpt lat="47.49473" lon="6.50316">
        <ele>454.6</ele>
        <time>2025-09-13T14:12:58Z</time>
      </trkpt>
      <trkpt lat="47.49475" lon="6.50321">
        <ele>454.7</ele>
        <time>2025-09-13T14:12:59Z</time>
      </trkpt>
      <trkpt lat="47.49477" lon="6.50326">
        <ele>454.9</ele>
        <time>2025-09-13T14:13:00Z</time>
      </trkpt>
      <trkpt lat="47.49479" lon="6.50331">
        <ele>455.1</ele>
        <time>2025-09-13T14:13:01Z</time>
      </trkpt>
      <trkpt lat="47.49481" lon="6.50335">
        <ele>455.2</ele>
        <time>2025-09-13T14:13:02Z</time>
      </trkpt>
      <trkpt lat="47.49483" lon="6.5034">
        <ele>455.4</ele>
        <time>2025-09-13T14:13:03Z</time>
      </trkpt>
      <trkpt lat="47.49484" lon="6.50344">
        <ele>455.5</ele>
        <time>2025-09-13T14:13:04Z</time>
      </trkpt>
      <trkpt lat="47.49487" lon="6.50348">
        <ele>455.7</ele>
        <time>2025-09-13T14:13:05Z</time>
      </trkpt>
      <trkpt lat="47.49489" lon="6.50353">
        <ele>455.8</ele>
        <time>2025-09-13T14:13:06Z</time>
      </trkpt>
      <trkpt lat="47.49491" lon="6.50357">
        <ele>456</ele>
        <time>2025-09-13T14:13:07Z</time>
      </trkpt>
      <trkpt lat="47.49493" lon="6.50361">
        <ele>456.1</ele>
        <time>2025-09-13T14:13:08Z</time>
      </trkpt>
      <trkpt lat="47.49494" lon="6.50364">
        <ele>456.2</ele>
        <time>2025-09-13T14:13:09Z</time>
      </trkpt>
      <trkpt lat="47.49496" lon="6.50369">
        <ele>456.4</ele>
        <time>2025-09-13T14:13:10Z</time>
      </trkpt>
      <trkpt lat="47.49498" lon="6.50373">
        <ele>456.5</ele>
        <time>2025-09-13T14:13:11Z</time>
      </trkpt>
      <trkpt lat="47.495" lon="6.50377">
        <ele>456.7</ele>
        <time>2025-09-13T14:13:12Z</time>
      </trkpt>
      <trkpt lat="47.49502" lon="6.50382">
        <ele>456.8</ele>
        <time>2025-09-13T14:13:13Z</time>
      </trkpt>
      <trkpt lat="47.49505" lon="6.50386">
        <ele>457</ele>
        <time>2025-09-13T14:13:14Z</time>
      </trkpt>
      <trkpt lat="47.49507" lon="6.5039">
        <ele>457.1</ele>
        <time>2025-09-13T14:13:15Z</time>
      </trkpt>
      <trkpt lat="47.49509" lon="6.50394">
        <ele>457.3</ele>
        <time>2025-09-13T14:13:16Z</time>
      </trkpt>
      <trkpt lat="47.49511" lon="6.50399">
        <ele>457.5</ele>
        <time>2025-09-13T14:13:17Z</time>
      </trkpt>
      <trkpt lat="47.49513" lon="6.50404">
        <ele>457.7</ele>
        <time>2025-09-13T14:13:18Z</time>
      </trkpt>
      <trkpt lat="47.49515" lon="6.50407">
        <ele>457.8</ele>
        <time>2025-09-13T14:13:19Z</time>
      </trkpt>
      <trkpt lat="47.49517" lon="6.50412">
        <ele>457.9</ele>
        <time>2025-09-13T14:13:20Z</time>
      </trkpt>
      <trkpt lat="47.49519" lon="6.50416">
        <ele>458</ele>
        <time>2025-09-13T14:13:21Z</time>
      </trkpt>
      <trkpt lat="47.49521" lon="6.50421">
        <ele>458.2</ele>
        <time>2025-09-13T14:13:22Z</time>
      </trkpt>
      <trkpt lat="47.49524" lon="6.50425">
        <ele>458.3</ele>
        <time>2025-09-13T14:13:23Z</time>
      </trkpt>
      <trkpt lat="47.49526" lon="6.5043">
        <ele>458.5</ele>
        <time>2025-09-13T14:13:24Z</time>
      </trkpt>
      <trkpt lat="47.49528" lon="6.50434">
        <ele>458.6</ele>
        <time>2025-09-13T14:13:25Z</time>
      </trkpt>
      <trkpt lat="47.4953" lon="6.50439">
        <ele>458.7</ele>
        <time>2025-09-13T14:13:26Z</time>
      </trkpt>
      <trkpt lat="47.49532" lon="6.50443">
        <ele>458.9</ele>
        <time>2025-09-13T14:13:27Z</time>
      </trkpt>
      <trkpt lat="47.49535" lon="6.50448">
        <ele>459</ele>
        <time>2025-09-13T14:13:28Z</time>
      </trkpt>
      <trkpt lat="47.49537" lon="6.50452">
        <ele>459.2</ele>
        <time>2025-09-13T14:13:29Z</time>
      </trkpt>
      <trkpt lat="47.49539" lon="6.50457">
        <ele>459.3</ele>
        <time>2025-09-13T14:13:30Z</time>
      </trkpt>
      <trkpt lat="47.49542" lon="6.50461">
        <ele>459.4</ele>
        <time>2025-09-13T14:13:31Z</time>
      </trkpt>
      <trkpt lat="47.49544" lon="6.50465">
        <ele>459.6</ele>
        <time>2025-09-13T14:13:32Z</time>
      </trkpt>
      <trkpt lat="47.49546" lon="6.5047">
        <ele>459.8</ele>
        <time>2025-09-13T14:13:33Z</time>
      </trkpt>
      <trkpt lat="47.49549" lon="6.50475">
        <ele>460</ele>
        <time>2025-09-13T14:13:34Z</time>
      </trkpt>
      <trkpt lat="47.49551" lon="6.5048">
        <ele>460.2</ele>
        <time>2025-09-13T14:13:35Z</time>
      </trkpt>
      <trkpt lat="47.49553" lon="6.50484">
        <ele>460.3</ele>
        <time>2025-09-13T14:13:36Z</time>
      </trkpt>
      <trkpt lat="47.49555" lon="6.50489">
        <ele>460.5</ele>
        <time>2025-09-13T14:13:37Z</time>
      </trkpt>
      <trkpt lat="47.49557" lon="6.50494">
        <ele>460.7</ele>
        <time>2025-09-13T14:13:38Z</time>
      </trkpt>
      <trkpt lat="47.49559" lon="6.50498">
        <ele>460.9</ele>
        <time>2025-09-13T14:13:39Z</time>
      </trkpt>
      <trkpt lat="47.49561" lon="6.50503">
        <ele>461.1</ele>
        <time>2025-09-13T14:13:40Z</time>
      </trkpt>
      <trkpt lat="47.49563" lon="6.50507">
        <ele>461.3</ele>
        <time>2025-09-13T14:13:41Z</time>
      </trkpt>
      <trkpt lat="47.49565" lon="6.50512">
        <ele>461.5</ele>
        <time>2025-09-13T14:13:42Z</time>
      </trkpt>
      <trkpt lat="47.49567" lon="6.50516">
        <ele>461.7</ele>
        <time>2025-09-13T14:13:43Z</time>
      </trkpt>
      <trkpt lat="47.49569" lon="6.50521">
        <ele>461.9</ele>
        <time>2025-09-13T14:13:45Z</time>
      </trkpt>
      <trkpt lat="47.49571" lon="6.50526">
        <ele>462.1</ele>
        <time>2025-09-13T14:13:46Z</time>
      </trkpt>
      <trkpt lat="47.49573" lon="6.50531">
        <ele>462.3</ele>
        <time>2025-09-13T14:13:47Z</time>
      </trkpt>
      <trkpt lat="47.49575" lon="6.50535">
        <ele>462.4</ele>
        <time>2025-09-13T14:13:48Z</time>
      </trkpt>
      <trkpt lat="47.49577" lon="6.50541">
        <ele>462.7</ele>
        <time>2025-09-13T14:13:49Z</time>
      </trkpt>
      <trkpt lat="47.49579" lon="6.50546">
        <ele>462.9</ele>
        <time>2025-09-13T14:13:50Z</time>
      </trkpt>
      <trkpt lat="47.4958" lon="6.50551">
        <ele>463.1</ele>
        <time>2025-09-13T14:13:51Z</time>
      </trkpt>
      <trkpt lat="47.49582" lon="6.50556">
        <ele>463.3</ele>
        <time>2025-09-13T14:13:52Z</time>
      </trkpt>
      <trkpt lat="47.49584" lon="6.50561">
        <ele>463.6</ele>
        <time>2025-09-13T14:13:53Z</time>
      </trkpt>
      <trkpt lat="47.49585" lon="6.50566">
        <ele>463.8</ele>
        <time>2025-09-13T14:13:54Z</time>
      </trkpt>
      <trkpt lat="47.49587" lon="6.5057">
        <ele>464</ele>
        <time>2025-09-13T14:13:55Z</time>
      </trkpt>
      <trkpt lat="47.49589" lon="6.50575">
        <ele>464.2</ele>
        <time>2025-09-13T14:13:56Z</time>
      </trkpt>
      <trkpt lat="47.4959" lon="6.50579">
        <ele>464.4</ele>
        <time>2025-09-13T14:13:57Z</time>
      </trkpt>
      <trkpt lat="47.49591" lon="6.50584">
        <ele>464.6</ele>
        <time>2025-09-13T14:13:58Z</time>
      </trkpt>
      <trkpt lat="47.49593" lon="6.50589">
        <ele>464.8</ele>
        <time>2025-09-13T14:13:59Z</time>
      </trkpt>
      <trkpt lat="47.49594" lon="6.50594">
        <ele>465.1</ele>
        <time>2025-09-13T14:14:00Z</time>
      </trkpt>
      <trkpt lat="47.49595" lon="6.506">
        <ele>465.3</ele>
        <time>2025-09-13T14:14:01Z</time>
      </trkpt>
      <trkpt lat="47.49596" lon="6.50605">
        <ele>465.6</ele>
        <time>2025-09-13T14:14:02Z</time>
      </trkpt>
      <trkpt lat="47.49597" lon="6.5061">
        <ele>465.8</ele>
        <time>2025-09-13T14:14:03Z</time>
      </trkpt>
      <trkpt lat="47.49598" lon="6.50614">
        <ele>466</ele>
        <time>2025-09-13T14:14:04Z</time>
      </trkpt>
      <trkpt lat="47.49599" lon="6.50619">
        <ele>466.2</ele>
        <time>2025-09-13T14:14:05Z</time>
      </trkpt>
      <trkpt lat="47.49601" lon="6.50624">
        <ele>466.4</ele>
        <time>2025-09-13T14:14:06Z</time>
      </trkpt>
      <trkpt lat="47.49602" lon="6.50628">
        <ele>466.6</ele>
        <time>2025-09-13T14:14:07Z</time>
      </trkpt>
      <trkpt lat="47.49603" lon="6.50634">
        <ele>466.9</ele>
        <time>2025-09-13T14:14:08Z</time>
      </trkpt>
      <trkpt lat="47.49603" lon="6.50639">
        <ele>467.1</ele>
        <time>2025-09-13T14:14:09Z</time>
      </trkpt>
      <trkpt lat="47.49605" lon="6.50643">
        <ele>467.3</ele>
        <time>2025-09-13T14:14:10Z</time>
      </trkpt>
      <trkpt lat="47.49606" lon="6.50648">
        <ele>467.6</ele>
        <time>2025-09-13T14:14:11Z</time>
      </trkpt>
      <trkpt lat="47.49607" lon="6.50653">
        <ele>467.8</ele>
        <time>2025-09-13T14:14:12Z</time>
      </trkpt>
      <trkpt lat="47.49608" lon="6.50658">
        <ele>468</ele>
        <time>2025-09-13T14:14:13Z</time>
      </trkpt>
      <trkpt lat="47.49609" lon="6.50663">
        <ele>468.2</ele>
        <time>2025-09-13T14:14:14Z</time>
      </trkpt>
      <trkpt lat="47.4961" lon="6.50667">
        <ele>468.4</ele>
        <time>2025-09-13T14:14:15Z</time>
      </trkpt>
      <trkpt lat="47.49611" lon="6.50672">
        <ele>468.7</ele>
        <time>2025-09-13T14:14:16Z</time>
      </trkpt>
      <trkpt lat="47.49612" lon="6.50677">
        <ele>468.9</ele>
        <time>2025-09-13T14:14:17Z</time>
      </trkpt>
      <trkpt lat="47.49613" lon="6.50682">
        <ele>469.1</ele>
        <time>2025-09-13T14:14:18Z</time>
      </trkpt>
      <trkpt lat="47.49615" lon="6.50687">
        <ele>469.4</ele>
        <time>2025-09-13T14:14:19Z</time>
      </trkpt>
      <trkpt lat="47.49616" lon="6.50692">
        <ele>469.6</ele>
        <time>2025-09-13T14:14:20Z</time>
      </trkpt>
      <trkpt lat="47.49617" lon="6.50696">
        <ele>469.8</ele>
        <time>2025-09-13T14:14:21Z</time>
      </trkpt>
      <trkpt lat="47.49618" lon="6.50701">
        <ele>470</ele>
        <time>2025-09-13T14:14:22Z</time>
      </trkpt>
      <trkpt lat="47.49618" lon="6.50705">
        <ele>470.2</ele>
        <time>2025-09-13T14:14:23Z</time>
      </trkpt>
      <trkpt lat="47.4962" lon="6.5071">
        <ele>470.5</ele>
        <time>2025-09-13T14:14:24Z</time>
      </trkpt>
      <trkpt lat="47.49621" lon="6.50716">
        <ele>470.7</ele>
        <time>2025-09-13T14:14:25Z</time>
      </trkpt>
      <trkpt lat="47.49622" lon="6.50721">
        <ele>470.9</ele>
        <time>2025-09-13T14:14:26Z</time>
      </trkpt>
      <trkpt lat="47.49622" lon="6.50726">
        <ele>471.1</ele>
        <time>2025-09-13T14:14:27Z</time>
      </trkpt>
      <trkpt lat="47.49623" lon="6.5073">
        <ele>471.3</ele>
        <time>2025-09-13T14:14:28Z</time>
      </trkpt>
      <trkpt lat="47.49624" lon="6.50735">
        <ele>471.5</ele>
        <time>2025-09-13T14:14:29Z</time>
      </trkpt>
      <trkpt lat="47.49624" lon="6.50741">
        <ele>471.7</ele>
        <time>2025-09-13T14:14:30Z</time>
      </trkpt>
      <trkpt lat="47.49624" lon="6.50746">
        <ele>471.9</ele>
        <time>2025-09-13T14:14:31Z</time>
      </trkpt>
      <trkpt lat="47.49624" lon="6.50751">
        <ele>472.1</ele>
        <time>2025-09-13T14:14:32Z</time>
      </trkpt>
      <trkpt lat="47.49624" lon="6.50757">
        <ele>472.3</ele>
        <time>2025-09-13T14:14:33Z</time>
      </trkpt>
      <trkpt lat="47.49624" lon="6.50762">
        <ele>472.5</ele>
        <time>2025-09-13T14:14:34Z</time>
      </trkpt>
      <trkpt lat="47.49623" lon="6.50768">
        <ele>472.6</ele>
        <time>2025-09-13T14:14:35Z</time>
      </trkpt>
      <trkpt lat="47.49623" lon="6.50773">
        <ele>472.8</ele>
        <time>2025-09-13T14:14:36Z</time>
      </trkpt>
      <trkpt lat="47.49622" lon="6.50779">
        <ele>472.9</ele>
        <time>2025-09-13T14:14:37Z</time>
      </trkpt>
      <trkpt lat="47.4962" lon="6.5079">
        <ele>473.2</ele>
        <time>2025-09-13T14:14:38Z</time>
      </trkpt>
      <trkpt lat="47.49618" lon="6.50795">
        <ele>473.4</ele>
        <time>2025-09-13T14:14:39Z</time>
      </trkpt>
      <trkpt lat="47.49616" lon="6.50801">
        <ele>473.5</ele>
        <time>2025-09-13T14:14:40Z</time>
      </trkpt>
      <trkpt lat="47.49614" lon="6.50806">
        <ele>473.7</ele>
        <time>2025-09-13T14:14:41Z</time>
      </trkpt>
      <trkpt lat="47.49612" lon="6.50812">
        <ele>473.9</ele>
        <time>2025-09-13T14:14:42Z</time>
      </trkpt>
      <trkpt lat="47.4961" lon="6.50816">
        <ele>474</ele>
        <time>2025-09-13T14:14:43Z</time>
      </trkpt>
      <trkpt lat="47.49608" lon="6.5082">
        <ele>474.2</ele>
        <time>2025-09-13T14:14:44Z</time>
      </trkpt>
      <trkpt lat="47.49605" lon="6.50826">
        <ele>474.4</ele>
        <time>2025-09-13T14:14:45Z</time>
      </trkpt>
      <trkpt lat="47.49603" lon="6.5083">
        <ele>474.6</ele>
        <time>2025-09-13T14:14:46Z</time>
      </trkpt>
      <trkpt lat="47.496" lon="6.50834">
        <ele>474.8</ele>
        <time>2025-09-13T14:14:47Z</time>
      </trkpt>
      <trkpt lat="47.49598" lon="6.50839">
        <ele>475</ele>
        <time>2025-09-13T14:14:48Z</time>
      </trkpt>
      <trkpt lat="47.49595" lon="6.50843">
        <ele>475.2</ele>
        <time>2025-09-13T14:14:49Z</time>
      </trkpt>
      <trkpt lat="47.49592" lon="6.50846">
        <ele>475.3</ele>
        <time>2025-09-13T14:14:50Z</time>
      </trkpt>
      <trkpt lat="47.49589" lon="6.5085">
        <ele>475.5</ele>
        <time>2025-09-13T14:14:51Z</time>
      </trkpt>
      <trkpt lat="47.49586" lon="6.50853">
        <ele>475.7</ele>
        <time>2025-09-13T14:14:52Z</time>
      </trkpt>
      <trkpt lat="47.49584" lon="6.50857">
        <ele>475.9</ele>
        <time>2025-09-13T14:14:53Z</time>
      </trkpt>
      <trkpt lat="47.49581" lon="6.50861">
        <ele>476.1</ele>
        <time>2025-09-13T14:14:54Z</time>
      </trkpt>
      <trkpt lat="47.49579" lon="6.50865">
        <ele>476.3</ele>
        <time>2025-09-13T14:14:55Z</time>
      </trkpt>
      <trkpt lat="47.49577" lon="6.5087">
        <ele>476.4</ele>
        <time>2025-09-13T14:14:56Z</time>
      </trkpt>
      <trkpt lat="47.49575" lon="6.50874">
        <ele>476.6</ele>
        <time>2025-09-13T14:14:57Z</time>
      </trkpt>
      <trkpt lat="47.49573" lon="6.50879">
        <ele>476.8</ele>
        <time>2025-09-13T14:14:58Z</time>
      </trkpt>
      <trkpt lat="47.4957" lon="6.50884">
        <ele>476.9</ele>
        <time>2025-09-13T14:14:59Z</time>
      </trkpt>
      <trkpt lat="47.49568" lon="6.50888">
        <ele>477.1</ele>
        <time>2025-09-13T14:15:00Z</time>
      </trkpt>
      <trkpt lat="47.49566" lon="6.50893">
        <ele>477.2</ele>
        <time>2025-09-13T14:15:01Z</time>
      </trkpt>
      <trkpt lat="47.49564" lon="6.50898">
        <ele>477.4</ele>
        <time>2025-09-13T14:15:02Z</time>
      </trkpt>
      <trkpt lat="47.49562" lon="6.50902">
        <ele>477.5</ele>
        <time>2025-09-13T14:15:03Z</time>
      </trkpt>
      <trkpt lat="47.4956" lon="6.50907">
        <ele>477.6</ele>
        <time>2025-09-13T14:15:04Z</time>
      </trkpt>
      <trkpt lat="47.49558" lon="6.50912">
        <ele>477.8</ele>
        <time>2025-09-13T14:15:05Z</time>
      </trkpt>
      <trkpt lat="47.49556" lon="6.50917">
        <ele>477.9</ele>
        <time>2025-09-13T14:15:06Z</time>
      </trkpt>
      <trkpt lat="47.49554" lon="6.50921">
        <ele>478</ele>
        <time>2025-09-13T14:15:07Z</time>
      </trkpt>
      <trkpt lat="47.49552" lon="6.50926">
        <ele>478.2</ele>
        <time>2025-09-13T14:15:08Z</time>
      </trkpt>
      <trkpt lat="47.4955" lon="6.50931">
        <ele>478.3</ele>
        <time>2025-09-13T14:15:09Z</time>
      </trkpt>
      <trkpt lat="47.49547" lon="6.50935">
        <ele>478.5</ele>
        <time>2025-09-13T14:15:10Z</time>
      </trkpt>
      <trkpt lat="47.49545" lon="6.5094">
        <ele>478.6</ele>
        <time>2025-09-13T14:15:11Z</time>
      </trkpt>
      <trkpt lat="47.49544" lon="6.50945">
        <ele>478.7</ele>
        <time>2025-09-13T14:15:12Z</time>
      </trkpt>
      <trkpt lat="47.49542" lon="6.5095">
        <ele>478.9</ele>
        <time>2025-09-13T14:15:13Z</time>
      </trkpt>
      <trkpt lat="47.49541" lon="6.50956">
        <ele>479.1</ele>
        <time>2025-09-13T14:15:14Z</time>
      </trkpt>
      <trkpt lat="47.49539" lon="6.50961">
        <ele>479.2</ele>
        <time>2025-09-13T14:15:15Z</time>
      </trkpt>
      <trkpt lat="47.49537" lon="6.50966">
        <ele>479.4</ele>
        <time>2025-09-13T14:15:16Z</time>
      </trkpt>
      <trkpt lat="47.49536" lon="6.50971">
        <ele>479.5</ele>
        <time>2025-09-13T14:15:17Z</time>
      </trkpt>
      <trkpt lat="47.49535" lon="6.50976">
        <ele>479.7</ele>
        <time>2025-09-13T14:15:18Z</time>
      </trkpt>
      <trkpt lat="47.49534" lon="6.50981">
        <ele>479.8</ele>
        <time>2025-09-13T14:15:19Z</time>
      </trkpt>
      <trkpt lat="47.49533" lon="6.50987">
        <ele>480</ele>
        <time>2025-09-13T14:15:20Z</time>
      </trkpt>
      <trkpt lat="47.49533" lon="6.50992">
        <ele>480.2</ele>
        <time>2025-09-13T14:15:21Z</time>
      </trkpt>
      <trkpt lat="47.49533" lon="6.50997">
        <ele>480.3</ele>
        <time>2025-09-13T14:15:22Z</time>
      </trkpt>
      <trkpt lat="47.49532" lon="6.51001">
        <ele>480.5</ele>
        <time>2025-09-13T14:15:23Z</time>
      </trkpt>
      <trkpt lat="47.49532" lon="6.51007">
        <ele>480.7</ele>
        <time>2025-09-13T14:15:24Z</time>
      </trkpt>
      <trkpt lat="47.49532" lon="6.51011">
        <ele>480.8</ele>
        <time>2025-09-13T14:15:25Z</time>
      </trkpt>
      <trkpt lat="47.49532" lon="6.51015">
        <ele>481</ele>
        <time>2025-09-13T14:15:26Z</time>
      </trkpt>
      <trkpt lat="47.49531" lon="6.51021">
        <ele>481.2</ele>
        <time>2025-09-13T14:15:27Z</time>
      </trkpt>
      <trkpt lat="47.49531" lon="6.51026">
        <ele>481.4</ele>
        <time>2025-09-13T14:15:28Z</time>
      </trkpt>
      <trkpt lat="47.49531" lon="6.5103">
        <ele>481.6</ele>
        <time>2025-09-13T14:15:29Z</time>
      </trkpt>
      <trkpt lat="47.49531" lon="6.51035">
        <ele>481.8</ele>
        <time>2025-09-13T14:15:30Z</time>
      </trkpt>
      <trkpt lat="47.4953" lon="6.5104">
        <ele>481.9</ele>
        <time>2025-09-13T14:15:31Z</time>
      </trkpt>
      <trkpt lat="47.49531" lon="6.51044">
        <ele>482.1</ele>
        <time>2025-09-13T14:15:32Z</time>
      </trkpt>
      <trkpt lat="47.4953" lon="6.51049">
        <ele>482.3</ele>
        <time>2025-09-13T14:15:33Z</time>
      </trkpt>
      <trkpt lat="47.4953" lon="6.51053">
        <ele>482.5</ele>
        <time>2025-09-13T14:15:34Z</time>
      </trkpt>
      <trkpt lat="47.4953" lon="6.51058">
        <ele>482.7</ele>
        <time>2025-09-13T14:15:35Z</time>
      </trkpt>
      <trkpt lat="47.4953" lon="6.51063">
        <ele>482.8</ele>
        <time>2025-09-13T14:15:36Z</time>
      </trkpt>
      <trkpt lat="47.4953" lon="6.51068">
        <ele>483</ele>
        <time>2025-09-13T14:15:37Z</time>
      </trkpt>
      <trkpt lat="47.4953" lon="6.51073">
        <ele>483.2</ele>
        <time>2025-09-13T14:15:38Z</time>
      </trkpt>
      <trkpt lat="47.49531" lon="6.51078">
        <ele>483.4</ele>
        <time>2025-09-13T14:15:39Z</time>
      </trkpt>
      <trkpt lat="47.49532" lon="6.51084">
        <ele>483.6</ele>
        <time>2025-09-13T14:15:40Z</time>
      </trkpt>
      <trkpt lat="47.49532" lon="6.51089">
        <ele>483.8</ele>
        <time>2025-09-13T14:15:41Z</time>
      </trkpt>
      <trkpt lat="47.49533" lon="6.51094">
        <ele>484</ele>
        <time>2025-09-13T14:15:42Z</time>
      </trkpt>
      <trkpt lat="47.49534" lon="6.51099">
        <ele>484.2</ele>
        <time>2025-09-13T14:15:43Z</time>
      </trkpt>
      <trkpt lat="47.49535" lon="6.51104">
        <ele>484.4</ele>
        <time>2025-09-13T14:15:44Z</time>
      </trkpt>
      <trkpt lat="47.49537" lon="6.51109">
        <ele>484.5</ele>
        <time>2025-09-13T14:15:45Z</time>
      </trkpt>
      <trkpt lat="47.49539" lon="6.51113">
        <ele>484.6</ele>
        <time>2025-09-13T14:15:46Z</time>
      </trkpt>
      <trkpt lat="47.49541" lon="6.51118">
        <ele>484.7</ele>
        <time>2025-09-13T14:15:47Z</time>
      </trkpt>
      <trkpt lat="47.49544" lon="6.51122">
        <ele>484.8</ele>
        <time>2025-09-13T14:15:48Z</time>
      </trkpt>
      <trkpt lat="47.49546" lon="6.51126">
        <ele>485</ele>
        <time>2025-09-13T14:15:49Z</time>
      </trkpt>
      <trkpt lat="47.49549" lon="6.51131">
        <ele>485.1</ele>
        <time>2025-09-13T14:15:50Z</time>
      </trkpt>
      <trkpt lat="47.49552" lon="6.51136">
        <ele>485.2</ele>
        <time>2025-09-13T14:15:52Z</time>
      </trkpt>
      <trkpt lat="47.49555" lon="6.51139">
        <ele>485.2</ele>
        <time>2025-09-13T14:15:53Z</time>
      </trkpt>
      <trkpt lat="47.49558" lon="6.51143">
        <ele>485.3</ele>
        <time>2025-09-13T14:15:54Z</time>
      </trkpt>
      <trkpt lat="47.4956" lon="6.51146">
        <ele>485.3</ele>
        <time>2025-09-13T14:15:55Z</time>
      </trkpt>
      <trkpt lat="47.49562" lon="6.51151">
        <ele>485.4</ele>
        <time>2025-09-13T14:15:56Z</time>
      </trkpt>
      <trkpt lat="47.49565" lon="6.51154">
        <ele>485.4</ele>
        <time>2025-09-13T14:15:57Z</time>
      </trkpt>
      <trkpt lat="47.49567" lon="6.51157">
        <ele>485.5</ele>
        <time>2025-09-13T14:15:58Z</time>
      </trkpt>
      <trkpt lat="47.4957" lon="6.5116">
        <ele>485.5</ele>
        <time>2025-09-13T14:15:59Z</time>
      </trkpt>
      <trkpt lat="47.49573" lon="6.51164">
        <ele>485.5</ele>
        <time>2025-09-13T14:16:00Z</time>
      </trkpt>
      <trkpt lat="47.49575" lon="6.51167">
        <ele>485.6</ele>
        <time>2025-09-13T14:16:01Z</time>
      </trkpt>
      <trkpt lat="47.49578" lon="6.51171">
        <ele>485.6</ele>
        <time>2025-09-13T14:16:02Z</time>
      </trkpt>
      <trkpt lat="47.49581" lon="6.51176">
        <ele>485.6</ele>
        <time>2025-09-13T14:16:03Z</time>
      </trkpt>
      <trkpt lat="47.49584" lon="6.5118">
        <ele>485.6</ele>
        <time>2025-09-13T14:16:04Z</time>
      </trkpt>
      <trkpt lat="47.49587" lon="6.51185">
        <ele>485.6</ele>
        <time>2025-09-13T14:16:05Z</time>
      </trkpt>
      <trkpt lat="47.4959" lon="6.5119">
        <ele>485.6</ele>
        <time>2025-09-13T14:16:06Z</time>
      </trkpt>
      <trkpt lat="47.49593" lon="6.51194">
        <ele>485.6</ele>
        <time>2025-09-13T14:16:07Z</time>
      </trkpt>
      <trkpt lat="47.49596" lon="6.512">
        <ele>485.6</ele>
        <time>2025-09-13T14:16:08Z</time>
      </trkpt>
      <trkpt lat="47.49599" lon="6.51205">
        <ele>485.6</ele>
        <time>2025-09-13T14:16:09Z</time>
      </trkpt>
      <trkpt lat="47.49602" lon="6.51209">
        <ele>485.6</ele>
        <time>2025-09-13T14:16:10Z</time>
      </trkpt>
      <trkpt lat="47.49605" lon="6.51214">
        <ele>485.6</ele>
        <time>2025-09-13T14:16:11Z</time>
      </trkpt>
      <trkpt lat="47.49608" lon="6.51218">
        <ele>485.5</ele>
        <time>2025-09-13T14:16:12Z</time>
      </trkpt>
      <trkpt lat="47.49611" lon="6.51223">
        <ele>485.5</ele>
        <time>2025-09-13T14:16:13Z</time>
      </trkpt>
      <trkpt lat="47.49614" lon="6.51228">
        <ele>485.5</ele>
        <time>2025-09-13T14:16:14Z</time>
      </trkpt>
      <trkpt lat="47.49617" lon="6.51232">
        <ele>485.5</ele>
        <time>2025-09-13T14:16:15Z</time>
      </trkpt>
      <trkpt lat="47.49619" lon="6.51236">
        <ele>485.4</ele>
        <time>2025-09-13T14:16:16Z</time>
      </trkpt>
      <trkpt lat="47.49621" lon="6.5124">
        <ele>485.4</ele>
        <time>2025-09-13T14:16:17Z</time>
      </trkpt>
      <trkpt lat="47.49622" lon="6.51244">
        <ele>485.4</ele>
        <time>2025-09-13T14:16:18Z</time>
      </trkpt>
      <trkpt lat="47.49623" lon="6.51245">
        <ele>485.4</ele>
        <time>2025-09-13T14:16:19Z</time>
      </trkpt>
      <trkpt lat="47.49623" lon="6.51246">
        <ele>485.4</ele>
        <time>2025-09-13T14:16:20Z</time>
      </trkpt>
      <trkpt lat="47.49622" lon="6.51246">
        <ele>485.4</ele>
        <time>2025-09-13T14:16:21Z</time>
      </trkpt>
      <trkpt lat="47.49622" lon="6.51246">
        <ele>485.4</ele>
        <time>2025-09-13T14:16:22Z</time>
      </trkpt>
      <trkpt lat="47.49622" lon="6.51246">
        <ele>485.4</ele>
        <time>2025-09-13T14:16:23Z</time>
      </trkpt>
      <trkpt lat="47.49622" lon="6.51246">
        <ele>485.4</ele>
        <time>2025-09-13T14:16:24Z</time>
      </trkpt>
      <trkpt lat="47.49622" lon="6.51247">
        <ele>485.4</ele>
        <time>2025-09-13T14:16:25Z</time>
      </trkpt>
      <trkpt lat="47.49623" lon="6.51247">
        <ele>485.4</ele>
        <time>2025-09-13T14:16:26Z</time>
      </trkpt>
      <trkpt lat="47.49623" lon="6.51247">
        <ele>485.4</ele>
        <time>2025-09-13T14:16:27Z</time>
      </trkpt>
      <trkpt lat="47.49624" lon="6.51247">
        <ele>485.4</ele>
        <time>2025-09-13T14:16:28Z</time>
      </trkpt>
      <trkpt lat="47.49624" lon="6.51247">
        <ele>485.4</ele>
        <time>2025-09-13T14:16:29Z</time>
      </trkpt>
      <trkpt lat="47.49624" lon="6.51248">
        <ele>485.4</ele>
        <time>2025-09-13T14:16:30Z</time>
      </trkpt>
      <trkpt lat="47.49624" lon="6.51249">
        <ele>485.3</ele>
        <time>2025-09-13T14:16:31Z</time>
      </trkpt>
      <trkpt lat="47.49624" lon="6.5125">
        <ele>485.3</ele>
        <time>2025-09-13T14:16:32Z</time>
      </trkpt>
      <trkpt lat="47.49623" lon="6.51251">
        <ele>485.3</ele>
        <time>2025-09-13T14:16:33Z</time>
      </trkpt>
      <trkpt lat="47.49622" lon="6.51252">
        <ele>485.3</ele>
        <time>2025-09-13T14:16:34Z</time>
      </trkpt>
      <trkpt lat="47.49622" lon="6.51252">
        <ele>485.3</ele>
        <time>2025-09-13T14:16:35Z</time>
      </trkpt>
      <trkpt lat="47.49622" lon="6.51252">
        <ele>485.3</ele>
        <time>2025-09-13T14:16:36Z</time>
      </trkpt>
      <trkpt lat="47.49622" lon="6.51252">
        <ele>485.3</ele>
        <time>2025-09-13T14:16:37Z</time>
      </trkpt>
      <trkpt lat="47.49622" lon="6.51252">
        <ele>485.3</ele>
        <time>2025-09-13T14:16:38Z</time>
      </trkpt>
      <trkpt lat="47.49622" lon="6.51252">
        <ele>485.3</ele>
        <time>2025-09-13T14:16:39Z</time>
      </trkpt>
      <trkpt lat="47.49622" lon="6.51252">
        <ele>485.3</ele>
        <time>2025-09-13T14:16:40Z</time>
      </trkpt>
      <trkpt lat="47.49622" lon="6.51252">
        <ele>485.3</ele>
        <time>2025-09-13T14:16:41Z</time>
      </trkpt>
      <trkpt lat="47.49622" lon="6.51252">
        <ele>485.3</ele>
        <time>2025-09-13T14:16:42Z</time>
      </trkpt>
      <trkpt lat="47.49622" lon="6.51252">
        <ele>485.3</ele>
        <time>2025-09-13T14:16:43Z</time>
      </trkpt>
      <trkpt lat="47.49622" lon="6.51253">
        <ele>485.3</ele>
        <time>2025-09-13T14:16:44Z</time>
      </trkpt>
      <trkpt lat="47.49622" lon="6.51253">
        <ele>485.3</ele>
        <time>2025-09-13T14:16:45Z</time>
      </trkpt>
      <trkpt lat="47.49622" lon="6.51253">
        <ele>485.3</ele>
        <time>2025-09-13T14:16:46Z</time>
      </trkpt>
      <trkpt lat="47.49622" lon="6.51253">
        <ele>485.3</ele>
        <time>2025-09-13T14:16:47Z</time>
      </trkpt>
      <trkpt lat="47.49622" lon="6.51253">
        <ele>485.3</ele>
        <time>2025-09-13T14:16:48Z</time>
      </trkpt>
      <trkpt lat="47.49622" lon="6.51253">
        <ele>485.3</ele>
        <time>2025-09-13T14:16:49Z</time>
      </trkpt>
      <trkpt lat="47.49622" lon="6.51253">
        <ele>485.3</ele>
        <time>2025-09-13T14:16:50Z</time>
      </trkpt>
      <trkpt lat="47.49622" lon="6.51252">
        <ele>485.3</ele>
        <time>2025-09-13T14:16:51Z</time>
      </trkpt>
      <trkpt lat="47.49622" lon="6.51252">
        <ele>485.3</ele>
        <time>2025-09-13T14:16:52Z</time>
      </trkpt>
      <trkpt lat="47.49622" lon="6.51252">
        <ele>485.3</ele>
        <time>2025-09-13T14:16:53Z</time>
      </trkpt>
      <trkpt lat="47.49622" lon="6.51252">
        <ele>485.3</ele>
        <time>2025-09-13T14:16:54Z</time>
      </trkpt>
      <trkpt lat="47.49622" lon="6.51252">
        <ele>485.3</ele>
        <time>2025-09-13T14:16:55Z</time>
      </trkpt>
      <trkpt lat="47.49622" lon="6.51252">
        <ele>485.3</ele>
        <time>2025-09-13T14:16:56Z</time>
      </trkpt>
      <trkpt lat="47.49622" lon="6.51252">
        <ele>485.3</ele>
        <time>2025-09-13T14:16:57Z</time>
      </trkpt>
      <trkpt lat="47.49622" lon="6.51252">
        <ele>485.3</ele>
        <time>2025-09-13T14:16:58Z</time>
      </trkpt>
      <trkpt lat="47.49622" lon="6.51252">
        <ele>485.3</ele>
        <time>2025-09-13T14:16:59Z</time>
      </trkpt>
      <trkpt lat="47.49622" lon="6.51252">
        <ele>485.3</ele>
        <time>2025-09-13T14:17:00Z</time>
      </trkpt>
      <trkpt lat="47.49622" lon="6.51252">
        <ele>485.3</ele>
        <time>2025-09-13T14:17:01Z</time>
      </trkpt>
      <trkpt lat="47.49622" lon="6.51252">
        <ele>485.3</ele>
        <time>2025-09-13T14:17:02Z</time>
      </trkpt>
      <trkpt lat="47.49622" lon="6.51252">
        <ele>485.3</ele>
        <time>2025-09-13T14:17:03Z</time>
      </trkpt>
      <trkpt lat="47.49622" lon="6.51252">
        <ele>485.3</ele>
        <time>2025-09-13T14:17:04Z</time>
      </trkpt>
      <trkpt lat="47.49622" lon="6.51252">
        <ele>485.3</ele>
        <time>2025-09-13T14:17:05Z</time>
      </trkpt>
      <trkpt lat="47.49622" lon="6.51252">
        <ele>485.3</ele>
        <time>2025-09-13T14:17:06Z</time>
      </trkpt>
      <trkpt lat="47.49622" lon="6.51252">
        <ele>485.3</ele>
        <time>2025-09-13T14:17:07Z</time>
      </trkpt>
      <trkpt lat="47.49622" lon="6.51252">
        <ele>485.3</ele>
        <time>2025-09-13T14:17:08Z</time>
      </trkpt>
      <trkpt lat="47.49622" lon="6.51252">
        <ele>485.3</ele>
        <time>2025-09-13T14:17:09Z</time>
      </trkpt>
      <trkpt lat="47.49622" lon="6.51252">
        <ele>485.3</ele>
        <time>2025-09-13T14:17:10Z</time>
      </trkpt>
      <trkpt lat="47.49622" lon="6.51252">
        <ele>485.3</ele>
        <time>2025-09-13T14:17:11Z</time>
      </trkpt>
      <trkpt lat="47.49622" lon="6.51252">
        <ele>485.3</ele>
        <time>2025-09-13T14:17:12Z</time>
      </trkpt>
      <trkpt lat="47.49622" lon="6.51252">
        <ele>485.3</ele>
        <time>2025-09-13T14:17:13Z</time>
      </trkpt>
      <trkpt lat="47.49622" lon="6.51252">
        <ele>485.3</ele>
        <time>2025-09-13T14:17:14Z</time>
      </trkpt>
      <trkpt lat="47.49622" lon="6.51252">
        <ele>485.3</ele>
        <time>2025-09-13T14:17:15Z</time>
      </trkpt>
      <trkpt lat="47.49622" lon="6.51252">
        <ele>485.3</ele>
        <time>2025-09-13T14:17:16Z</time>
      </trkpt>
      <trkpt lat="47.49622" lon="6.51252">
        <ele>485.3</ele>
        <time>2025-09-13T14:17:17Z</time>
      </trkpt>
      <trkpt lat="47.49622" lon="6.51252">
        <ele>485.3</ele>
        <time>2025-09-13T14:17:18Z</time>
      </trkpt>
      <trkpt lat="47.49622" lon="6.51252">
        <ele>485.3</ele>
        <time>2025-09-13T14:17:19Z</time>
      </trkpt>
      <trkpt lat="47.49622" lon="6.51252">
        <ele>485.3</ele>
        <time>2025-09-13T14:17:20Z</time>
      </trkpt>
      <trkpt lat="47.49622" lon="6.51252">
        <ele>485.3</ele>
        <time>2025-09-13T14:17:21Z</time>
      </trkpt>
      <trkpt lat="47.49622" lon="6.51252">
        <ele>485.3</ele>
        <time>2025-09-13T14:17:22Z</time>
      </trkpt>
      <trkpt lat="47.49622" lon="6.51252">
        <ele>485.3</ele>
        <time>2025-09-13T14:17:23Z</time>
      </trkpt>
      <trkpt lat="47.49622" lon="6.51252">
        <ele>485.3</ele>
        <time>2025-09-13T14:17:24Z</time>
      </trkpt>
      <trkpt lat="47.49622" lon="6.51252">
        <ele>485.3</ele>
        <time>2025-09-13T14:17:25Z</time>
      </trkpt>
      <trkpt lat="47.49621" lon="6.51251">
        <ele>485.3</ele>
        <time>2025-09-13T14:17:26Z</time>
      </trkpt>
      <trkpt lat="47.49622" lon="6.51251">
        <ele>485.3</ele>
        <time>2025-09-13T14:17:27Z</time>
      </trkpt>
      <trkpt lat="47.49622" lon="6.51251">
        <ele>485.3</ele>
        <time>2025-09-13T14:17:28Z</time>
      </trkpt>
      <trkpt lat="47.49622" lon="6.51251">
        <ele>485.3</ele>
        <time>2025-09-13T14:17:29Z</time>
      </trkpt>
      <trkpt lat="47.49621" lon="6.51251">
        <ele>485.3</ele>
        <time>2025-09-13T14:17:30Z</time>
      </trkpt>
      <trkpt lat="47.49621" lon="6.5125">
        <ele>485.3</ele>
        <time>2025-09-13T14:17:31Z</time>
      </trkpt>
      <trkpt lat="47.4962" lon="6.5125">
        <ele>485.3</ele>
        <time>2025-09-13T14:17:32Z</time>
      </trkpt>
      <trkpt lat="47.4962" lon="6.5125">
        <ele>485.3</ele>
        <time>2025-09-13T14:17:33Z</time>
      </trkpt>
      <trkpt lat="47.49621" lon="6.51249">
        <ele>485.2</ele>
        <time>2025-09-13T14:17:34Z</time>
      </trkpt>
      <trkpt lat="47.4962" lon="6.51249">
        <ele>485.2</ele>
        <time>2025-09-13T14:17:35Z</time>
      </trkpt>
      <trkpt lat="47.49622" lon="6.51248">
        <ele>485.2</ele>
        <time>2025-09-13T14:17:36Z</time>
      </trkpt>
      <trkpt lat="47.49622" lon="6.51247">
        <ele>485.2</ele>
        <time>2025-09-13T14:17:37Z</time>
      </trkpt>
      <trkpt lat="47.49622" lon="6.51247">
        <ele>485.2</ele>
        <time>2025-09-13T14:17:38Z</time>
      </trkpt>
      <trkpt lat="47.49622" lon="6.51247">
        <ele>485.2</ele>
        <time>2025-09-13T14:17:39Z</time>
      </trkpt>
      <trkpt lat="47.49621" lon="6.51248">
        <ele>485.2</ele>
        <time>2025-09-13T14:17:40Z</time>
      </trkpt>
      <trkpt lat="47.49622" lon="6.51246">
        <ele>485.2</ele>
        <time>2025-09-13T14:17:41Z</time>
      </trkpt>
      <trkpt lat="47.4962" lon="6.51246">
        <ele>485.1</ele>
        <time>2025-09-13T14:17:42Z</time>
      </trkpt>
      <trkpt lat="47.4962" lon="6.51245">
        <ele>485.1</ele>
        <time>2025-09-13T14:17:43Z</time>
      </trkpt>
      <trkpt lat="47.4962" lon="6.51244">
        <ele>485.1</ele>
        <time>2025-09-13T14:17:44Z</time>
      </trkpt>
      <trkpt lat="47.4962" lon="6.51244">
        <ele>485.1</ele>
        <time>2025-09-13T14:17:45Z</time>
      </trkpt>
      <trkpt lat="47.4962" lon="6.51244">
        <ele>485.1</ele>
        <time>2025-09-13T14:17:46Z</time>
      </trkpt>
      <trkpt lat="47.4962" lon="6.51244">
        <ele>485.1</ele>
        <time>2025-09-13T14:17:47Z</time>
      </trkpt>
      <trkpt lat="47.4962" lon="6.51244">
        <ele>485.1</ele>
        <time>2025-09-13T14:17:48Z</time>
      </trkpt>
      <trkpt lat="47.49622" lon="6.51244">
        <ele>485.1</ele>
        <time>2025-09-13T14:17:49Z</time>
      </trkpt>
      <trkpt lat="47.49622" lon="6.51244">
        <ele>485.1</ele>
        <time>2025-09-13T14:17:50Z</time>
      </trkpt>
      <trkpt lat="47.49622" lon="6.51244">
        <ele>485</ele>
        <time>2025-09-13T14:17:51Z</time>
      </trkpt>
      <trkpt lat="47.49622" lon="6.51244">
        <ele>485</ele>
        <time>2025-09-13T14:17:52Z</time>
      </trkpt>
      <trkpt lat="47.49622" lon="6.51244">
        <ele>485</ele>
        <time>2025-09-13T14:17:53Z</time>
      </trkpt>
      <trkpt lat="47.49622" lon="6.51244">
        <ele>485</ele>
        <time>2025-09-13T14:17:54Z</time>
      </trkpt>
      <trkpt lat="47.49622" lon="6.51244">
        <ele>485</ele>
        <time>2025-09-13T14:17:55Z</time>
      </trkpt>
      <trkpt lat="47.49622" lon="6.51244">
        <ele>485</ele>
        <time>2025-09-13T14:17:56Z</time>
      </trkpt>
      <trkpt lat="47.49622" lon="6.51244">
        <ele>485</ele>
        <time>2025-09-13T14:17:57Z</time>
      </trkpt>
      <trkpt lat="47.49622" lon="6.51244">
        <ele>485</ele>
        <time>2025-09-13T14:17:58Z</time>
      </trkpt>
      <trkpt lat="47.49622" lon="6.51244">
        <ele>485</ele>
        <time>2025-09-13T14:17:59Z</time>
      </trkpt>
      <trkpt lat="47.49621" lon="6.51246">
        <ele>485</ele>
        <time>2025-09-13T14:18:00Z</time>
      </trkpt>
      <trkpt lat="47.49622" lon="6.51244">
        <ele>485</ele>
        <time>2025-09-13T14:18:01Z</time>
      </trkpt>
      <trkpt lat="47.49622" lon="6.51244">
        <ele>485</ele>
        <time>2025-09-13T14:18:02Z</time>
      </trkpt>
      <trkpt lat="47.49622" lon="6.51244">
        <ele>485</ele>
        <time>2025-09-13T14:18:03Z</time>
      </trkpt>
      <trkpt lat="47.49622" lon="6.51243">
        <ele>485</ele>
        <time>2025-09-13T14:18:04Z</time>
      </trkpt>
      <trkpt lat="47.49622" lon="6.51243">
        <ele>485</ele>
        <time>2025-09-13T14:18:05Z</time>
      </trkpt>
      <trkpt lat="47.49622" lon="6.51243">
        <ele>485</ele>
        <time>2025-09-13T14:18:06Z</time>
      </trkpt>
      <trkpt lat="47.49622" lon="6.51243">
        <ele>485</ele>
        <time>2025-09-13T14:18:07Z</time>
      </trkpt>
      <trkpt lat="47.49622" lon="6.51243">
        <ele>485</ele>
        <time>2025-09-13T14:18:08Z</time>
      </trkpt>
      <trkpt lat="47.49624" lon="6.51244">
        <ele>484.9</ele>
        <time>2025-09-13T14:18:09Z</time>
      </trkpt>
      <trkpt lat="47.49623" lon="6.51245">
        <ele>484.9</ele>
        <time>2025-09-13T14:18:10Z</time>
      </trkpt>
      <trkpt lat="47.49623" lon="6.51245">
        <ele>484.9</ele>
        <time>2025-09-13T14:18:11Z</time>
      </trkpt>
      <trkpt lat="47.49624" lon="6.51245">
        <ele>484.9</ele>
        <time>2025-09-13T14:18:12Z</time>
      </trkpt>
      <trkpt lat="47.49624" lon="6.51245">
        <ele>484.9</ele>
        <time>2025-09-13T14:18:13Z</time>
      </trkpt>
      <trkpt lat="47.49624" lon="6.51247">
        <ele>484.9</ele>
        <time>2025-09-13T14:18:14Z</time>
      </trkpt>
      <trkpt lat="47.49624" lon="6.51247">
        <ele>484.9</ele>
        <time>2025-09-13T14:18:15Z</time>
      </trkpt>
      <trkpt lat="47.49625" lon="6.51248">
        <ele>484.8</ele>
        <time>2025-09-13T14:18:16Z</time>
      </trkpt>
      <trkpt lat="47.49625" lon="6.51247">
        <ele>484.8</ele>
        <time>2025-09-13T14:18:17Z</time>
      </trkpt>
      <trkpt lat="47.49625" lon="6.51246">
        <ele>484.8</ele>
        <time>2025-09-13T14:18:18Z</time>
      </trkpt>
      <trkpt lat="47.49624" lon="6.51245">
        <ele>484.8</ele>
        <time>2025-09-13T14:18:19Z</time>
      </trkpt>
      <trkpt lat="47.49623" lon="6.51244">
        <ele>484.8</ele>
        <time>2025-09-13T14:18:20Z</time>
      </trkpt>
      <trkpt lat="47.49623" lon="6.51244">
        <ele>484.8</ele>
        <time>2025-09-13T14:18:21Z</time>
      </trkpt>
      <trkpt lat="47.49623" lon="6.51244">
        <ele>484.8</ele>
        <time>2025-09-13T14:18:22Z</time>
      </trkpt>
      <trkpt lat="47.49622" lon="6.51244">
        <ele>484.7</ele>
        <time>2025-09-13T14:18:23Z</time>
      </trkpt>
      <trkpt lat="47.49622" lon="6.51244">
        <ele>484.7</ele>
        <time>2025-09-13T14:18:24Z</time>
      </trkpt>
      <trkpt lat="47.49622" lon="6.51244">
        <ele>484.7</ele>
        <time>2025-09-13T14:18:25Z</time>
      </trkpt>
      <trkpt lat="47.49623" lon="6.51244">
        <ele>484.7</ele>
        <time>2025-09-13T14:18:26Z</time>
      </trkpt>
      <trkpt lat="47.49623" lon="6.51245">
        <ele>484.7</ele>
        <time>2025-09-13T14:18:27Z</time>
      </trkpt>
      <trkpt lat="47.49624" lon="6.51245">
        <ele>484.7</ele>
        <time>2025-09-13T14:18:28Z</time>
      </trkpt>
      <trkpt lat="47.49624" lon="6.51245">
        <ele>484.7</ele>
        <time>2025-09-13T14:18:29Z</time>
      </trkpt>
      <trkpt lat="47.49625" lon="6.51245">
        <ele>484.6</ele>
        <time>2025-09-13T14:18:30Z</time>
      </trkpt>
      <trkpt lat="47.49625" lon="6.51245">
        <ele>484.6</ele>
        <time>2025-09-13T14:18:31Z</time>
      </trkpt>
      <trkpt lat="47.49626" lon="6.51245">
        <ele>484.6</ele>
        <time>2025-09-13T14:18:32Z</time>
      </trkpt>
      <trkpt lat="47.49626" lon="6.51245">
        <ele>484.6</ele>
        <time>2025-09-13T14:18:33Z</time>
      </trkpt>
      <trkpt lat="47.49627" lon="6.51245">
        <ele>484.6</ele>
        <time>2025-09-13T14:18:34Z</time>
      </trkpt>
      <trkpt lat="47.49627" lon="6.51245">
        <ele>484.6</ele>
        <time>2025-09-13T14:18:35Z</time>
      </trkpt>
      <trkpt lat="47.49628" lon="6.51245">
        <ele>484.6</ele>
        <time>2025-09-13T14:18:36Z</time>
      </trkpt>
      <trkpt lat="47.49626" lon="6.51249">
        <ele>484.5</ele>
        <time>2025-09-13T14:18:37Z</time>
      </trkpt>
      <trkpt lat="47.49624" lon="6.51248">
        <ele>484.4</ele>
        <time>2025-09-13T14:18:38Z</time>
      </trkpt>
      <trkpt lat="47.49623" lon="6.51247">
        <ele>484.4</ele>
        <time>2025-09-13T14:18:39Z</time>
      </trkpt>
      <trkpt lat="47.49625" lon="6.51247">
        <ele>484.3</ele>
        <time>2025-09-13T14:18:40Z</time>
      </trkpt>
      <trkpt lat="47.49624" lon="6.51247">
        <ele>484.3</ele>
        <time>2025-09-13T14:18:41Z</time>
      </trkpt>
      <trkpt lat="47.49623" lon="6.51246">
        <ele>484.3</ele>
        <time>2025-09-13T14:18:42Z</time>
      </trkpt>
      <trkpt lat="47.49623" lon="6.51246">
        <ele>484.3</ele>
        <time>2025-09-13T14:18:43Z</time>
      </trkpt>
      <trkpt lat="47.49623" lon="6.51246">
        <ele>484.3</ele>
        <time>2025-09-13T14:18:44Z</time>
      </trkpt>
      <trkpt lat="47.49623" lon="6.51246">
        <ele>484.3</ele>
        <time>2025-09-13T14:18:45Z</time>
      </trkpt>
      <trkpt lat="47.49622" lon="6.51246">
        <ele>484.2</ele>
        <time>2025-09-13T14:18:46Z</time>
      </trkpt>
      <trkpt lat="47.49623" lon="6.51247">
        <ele>484.2</ele>
        <time>2025-09-13T14:18:47Z</time>
      </trkpt>
      <trkpt lat="47.49622" lon="6.51247">
        <ele>484.2</ele>
        <time>2025-09-13T14:18:48Z</time>
      </trkpt>
      <trkpt lat="47.49622" lon="6.51247">
        <ele>484.2</ele>
        <time>2025-09-13T14:18:49Z</time>
      </trkpt>
      <trkpt lat="47.49622" lon="6.51247">
        <ele>484.2</ele>
        <time>2025-09-13T14:18:50Z</time>
      </trkpt>
      <trkpt lat="47.49623" lon="6.51242">
        <ele>484.1</ele>
        <time>2025-09-13T14:18:51Z</time>
      </trkpt>
      <trkpt lat="47.49622" lon="6.51244">
        <ele>484.1</ele>
        <time>2025-09-13T14:18:52Z</time>
      </trkpt>
      <trkpt lat="47.49623" lon="6.51244">
        <ele>484.1</ele>
        <time>2025-09-13T14:18:53Z</time>
      </trkpt>
      <trkpt lat="47.49623" lon="6.51244">
        <ele>484.1</ele>
        <time>2025-09-13T14:18:54Z</time>
      </trkpt>
      <trkpt lat="47.49623" lon="6.51245">
        <ele>484.1</ele>
        <time>2025-09-13T14:18:55Z</time>
      </trkpt>
      <trkpt lat="47.49623" lon="6.51245">
        <ele>484</ele>
        <time>2025-09-13T14:18:56Z</time>
      </trkpt>
      <trkpt lat="47.49623" lon="6.51245">
        <ele>484</ele>
        <time>2025-09-13T14:18:57Z</time>
      </trkpt>
      <trkpt lat="47.49623" lon="6.51246">
        <ele>484</ele>
        <time>2025-09-13T14:18:58Z</time>
      </trkpt>
      <trkpt lat="47.49623" lon="6.51246">
        <ele>484</ele>
        <time>2025-09-13T14:18:59Z</time>
      </trkpt>
      <trkpt lat="47.49624" lon="6.51246">
        <ele>484</ele>
        <time>2025-09-13T14:19:00Z</time>
      </trkpt>
      <trkpt lat="47.49624" lon="6.51247">
        <ele>484</ele>
        <time>2025-09-13T14:19:01Z</time>
      </trkpt>
      <trkpt lat="47.49624" lon="6.51247">
        <ele>484</ele>
        <time>2025-09-13T14:19:02Z</time>
      </trkpt>
      <trkpt lat="47.49624" lon="6.51247">
        <ele>484</ele>
        <time>2025-09-13T14:19:03Z</time>
      </trkpt>
      <trkpt lat="47.49623" lon="6.51246">
        <ele>483.9</ele>
        <time>2025-09-13T14:19:04Z</time>
      </trkpt>
      <trkpt lat="47.49622" lon="6.51247">
        <ele>483.9</ele>
        <time>2025-09-13T14:19:05Z</time>
      </trkpt>
      <trkpt lat="47.49622" lon="6.51247">
        <ele>483.9</ele>
        <time>2025-09-13T14:19:06Z</time>
      </trkpt>
      <trkpt lat="47.49621" lon="6.51247">
        <ele>483.9</ele>
        <time>2025-09-13T14:19:07Z</time>
      </trkpt>
      <trkpt lat="47.49621" lon="6.51247">
        <ele>483.9</ele>
        <time>2025-09-13T14:19:08Z</time>
      </trkpt>
      <trkpt lat="47.4962" lon="6.51247">
        <ele>483.9</ele>
        <time>2025-09-13T14:19:09Z</time>
      </trkpt>
      <trkpt lat="47.4962" lon="6.51247">
        <ele>483.9</ele>
        <time>2025-09-13T14:19:10Z</time>
      </trkpt>
      <trkpt lat="47.49621" lon="6.51246">
        <ele>483.8</ele>
        <time>2025-09-13T14:19:11Z</time>
      </trkpt>
      <trkpt lat="47.49621" lon="6.51246">
        <ele>483.8</ele>
        <time>2025-09-13T14:19:12Z</time>
      </trkpt>
      <trkpt lat="47.49621" lon="6.51246">
        <ele>483.8</ele>
        <time>2025-09-13T14:19:13Z</time>
      </trkpt>
      <trkpt lat="47.49621" lon="6.51247">
        <ele>483.8</ele>
        <time>2025-09-13T14:19:14Z</time>
      </trkpt>
      <trkpt lat="47.49621" lon="6.51247">
        <ele>483.8</ele>
        <time>2025-09-13T14:19:15Z</time>
      </trkpt>
      <trkpt lat="47.49621" lon="6.51247">
        <ele>483.8</ele>
        <time>2025-09-13T14:19:16Z</time>
      </trkpt>
      <trkpt lat="47.49621" lon="6.51247">
        <ele>483.8</ele>
        <time>2025-09-13T14:19:17Z</time>
      </trkpt>
      <trkpt lat="47.49621" lon="6.51247">
        <ele>483.8</ele>
        <time>2025-09-13T14:19:18Z</time>
      </trkpt>
      <trkpt lat="47.49621" lon="6.51247">
        <ele>483.8</ele>
        <time>2025-09-13T14:19:19Z</time>
      </trkpt>
      <trkpt lat="47.49621" lon="6.51247">
        <ele>483.8</ele>
        <time>2025-09-13T14:19:20Z</time>
      </trkpt>
      <trkpt lat="47.49621" lon="6.51247">
        <ele>483.8</ele>
        <time>2025-09-13T14:19:21Z</time>
      </trkpt>
      <trkpt lat="47.49621" lon="6.51247">
        <ele>483.8</ele>
        <time>2025-09-13T14:19:22Z</time>
      </trkpt>
      <trkpt lat="47.49621" lon="6.51247">
        <ele>483.8</ele>
        <time>2025-09-13T14:19:23Z</time>
      </trkpt>
      <trkpt lat="47.49621" lon="6.51247">
        <ele>483.8</ele>
        <time>2025-09-13T14:19:24Z</time>
      </trkpt>
      <trkpt lat="47.49621" lon="6.51247">
        <ele>483.8</ele>
        <time>2025-09-13T14:19:25Z</time>
      </trkpt>
      <trkpt lat="47.49621" lon="6.51247">
        <ele>483.8</ele>
        <time>2025-09-13T14:19:26Z</time>
      </trkpt>
      <trkpt lat="47.49621" lon="6.51247">
        <ele>483.8</ele>
        <time>2025-09-13T14:19:27Z</time>
      </trkpt>
      <trkpt lat="47.49621" lon="6.51246">
        <ele>483.8</ele>
        <time>2025-09-13T14:19:28Z</time>
      </trkpt>
      <trkpt lat="47.49621" lon="6.51246">
        <ele>483.8</ele>
        <time>2025-09-13T14:19:29Z</time>
      </trkpt>
      <trkpt lat="47.49621" lon="6.51246">
        <ele>483.8</ele>
        <time>2025-09-13T14:19:30Z</time>
      </trkpt>
      <trkpt lat="47.49621" lon="6.51246">
        <ele>483.8</ele>
        <time>2025-09-13T14:19:31Z</time>
      </trkpt>
      <trkpt lat="47.49621" lon="6.51246">
        <ele>483.7</ele>
        <time>2025-09-13T14:19:32Z</time>
      </trkpt>
      <trkpt lat="47.49621" lon="6.51246">
        <ele>483.7</ele>
        <time>2025-09-13T14:19:33Z</time>
      </trkpt>
      <trkpt lat="47.49621" lon="6.51246">
        <ele>483.7</ele>
        <time>2025-09-13T14:19:34Z</time>
      </trkpt>
      <trkpt lat="47.49621" lon="6.51246">
        <ele>483.7</ele>
        <time>2025-09-13T14:19:35Z</time>
      </trkpt>
      <trkpt lat="47.49621" lon="6.51246">
        <ele>483.7</ele>
        <time>2025-09-13T14:19:36Z</time>
      </trkpt>
      <trkpt lat="47.49621" lon="6.51246">
        <ele>483.7</ele>
        <time>2025-09-13T14:19:37Z</time>
      </trkpt>
      <trkpt lat="47.49621" lon="6.51246">
        <ele>483.7</ele>
        <time>2025-09-13T14:19:38Z</time>
      </trkpt>
      <trkpt lat="47.49621" lon="6.51246">
        <ele>483.7</ele>
        <time>2025-09-13T14:19:39Z</time>
      </trkpt>
      <trkpt lat="47.49621" lon="6.51246">
        <ele>483.7</ele>
        <time>2025-09-13T14:19:40Z</time>
      </trkpt>
      <trkpt lat="47.49621" lon="6.51246">
        <ele>483.7</ele>
        <time>2025-09-13T14:19:41Z</time>
      </trkpt>
      <trkpt lat="47.49621" lon="6.51246">
        <ele>483.7</ele>
        <time>2025-09-13T14:19:42Z</time>
      </trkpt>
      <trkpt lat="47.49621" lon="6.51246">
        <ele>483.7</ele>
        <time>2025-09-13T14:19:43Z</time>
      </trkpt>
      <trkpt lat="47.49621" lon="6.51246">
        <ele>483.7</ele>
        <time>2025-09-13T14:19:44Z</time>
      </trkpt>
      <trkpt lat="47.4962" lon="6.51247">
        <ele>483.6</ele>
        <time>2025-09-13T14:19:45Z</time>
      </trkpt>
      <trkpt lat="47.49621" lon="6.51247">
        <ele>483.6</ele>
        <time>2025-09-13T14:19:46Z</time>
      </trkpt>
      <trkpt lat="47.49621" lon="6.51247">
        <ele>483.6</ele>
        <time>2025-09-13T14:19:47Z</time>
      </trkpt>
      <trkpt lat="47.49621" lon="6.51244">
        <ele>483.5</ele>
        <time>2025-09-13T14:19:48Z</time>
      </trkpt>
      <trkpt lat="47.49621" lon="6.51244">
        <ele>483.5</ele>
        <time>2025-09-13T14:19:49Z</time>
      </trkpt>
      <trkpt lat="47.49621" lon="6.51244">
        <ele>483.5</ele>
        <time>2025-09-13T14:19:50Z</time>
      </trkpt>
      <trkpt lat="47.49621" lon="6.51244">
        <ele>483.5</ele>
        <time>2025-09-13T14:19:51Z</time>
      </trkpt>
      <trkpt lat="47.49621" lon="6.51244">
        <ele>483.5</ele>
        <time>2025-09-13T14:19:52Z</time>
      </trkpt>
      <trkpt lat="47.49621" lon="6.51244">
        <ele>483.5</ele>
        <time>2025-09-13T14:19:53Z</time>
      </trkpt>
      <trkpt lat="47.4962" lon="6.51244">
        <ele>483.5</ele>
        <time>2025-09-13T14:19:54Z</time>
      </trkpt>
      <trkpt lat="47.4962" lon="6.51244">
        <ele>483.5</ele>
        <time>2025-09-13T14:19:55Z</time>
      </trkpt>
      <trkpt lat="47.4962" lon="6.51243">
        <ele>483.5</ele>
        <time>2025-09-13T14:19:56Z</time>
      </trkpt>
      <trkpt lat="47.4962" lon="6.51243">
        <ele>483.5</ele>
        <time>2025-09-13T14:19:57Z</time>
      </trkpt>
      <trkpt lat="47.49621" lon="6.51243">
        <ele>483.4</ele>
        <time>2025-09-13T14:19:58Z</time>
      </trkpt>
      <trkpt lat="47.49621" lon="6.51243">
        <ele>483.4</ele>
        <time>2025-09-13T14:19:59Z</time>
      </trkpt>
      <trkpt lat="47.49621" lon="6.51243">
        <ele>483.4</ele>
        <time>2025-09-13T14:20:00Z</time>
      </trkpt>
      <trkpt lat="47.49621" lon="6.51243">
        <ele>483.4</ele>
        <time>2025-09-13T14:20:01Z</time>
      </trkpt>
      <trkpt lat="47.49621" lon="6.51243">
        <ele>483.4</ele>
        <time>2025-09-13T14:20:02Z</time>
      </trkpt>
      <trkpt lat="47.49621" lon="6.51243">
        <ele>483.4</ele>
        <time>2025-09-13T14:20:03Z</time>
      </trkpt>
      <trkpt lat="47.49621" lon="6.51243">
        <ele>483.4</ele>
        <time>2025-09-13T14:20:04Z</time>
      </trkpt>
      <trkpt lat="47.49621" lon="6.51243">
        <ele>483.4</ele>
        <time>2025-09-13T14:20:05Z</time>
      </trkpt>
      <trkpt lat="47.49621" lon="6.51243">
        <ele>483.4</ele>
        <time>2025-09-13T14:20:06Z</time>
      </trkpt>
      <trkpt lat="47.49621" lon="6.51243">
        <ele>483.4</ele>
        <time>2025-09-13T14:20:07Z</time>
      </trkpt>
      <trkpt lat="47.49621" lon="6.51243">
        <ele>483.4</ele>
        <time>2025-09-13T14:20:08Z</time>
      </trkpt>
      <trkpt lat="47.49621" lon="6.51243">
        <ele>483.4</ele>
        <time>2025-09-13T14:20:09Z</time>
      </trkpt>
      <trkpt lat="47.49621" lon="6.51243">
        <ele>483.4</ele>
        <time>2025-09-13T14:20:10Z</time>
      </trkpt>
      <trkpt lat="47.49621" lon="6.51243">
        <ele>483.4</ele>
        <time>2025-09-13T14:20:11Z</time>
      </trkpt>
      <trkpt lat="47.49621" lon="6.51243">
        <ele>483.4</ele>
        <time>2025-09-13T14:20:12Z</time>
      </trkpt>
      <trkpt lat="47.49621" lon="6.51243">
        <ele>483.4</ele>
        <time>2025-09-13T14:20:13Z</time>
      </trkpt>
      <trkpt lat="47.49621" lon="6.51243">
        <ele>483.4</ele>
        <time>2025-09-13T14:20:14Z</time>
      </trkpt>
      <trkpt lat="47.49621" lon="6.51243">
        <ele>483.4</ele>
        <time>2025-09-13T14:20:15Z</time>
      </trkpt>
      <trkpt lat="47.49622" lon="6.51243">
        <ele>483.4</ele>
        <time>2025-09-13T14:20:16Z</time>
      </trkpt>
      <trkpt lat="47.49622" lon="6.51243">
        <ele>483.4</ele>
        <time>2025-09-13T14:20:17Z</time>
      </trkpt>
      <trkpt lat="47.49622" lon="6.51243">
        <ele>483.4</ele>
        <time>2025-09-13T14:20:18Z</time>
      </trkpt>
      <trkpt lat="47.49622" lon="6.51243">
        <ele>483.4</ele>
        <time>2025-09-13T14:20:19Z</time>
      </trkpt>
      <trkpt lat="47.49622" lon="6.51243">
        <ele>483.4</ele>
        <time>2025-09-13T14:20:20Z</time>
      </trkpt>
      <trkpt lat="47.49622" lon="6.51243">
        <ele>483.4</ele>
        <time>2025-09-13T14:20:21Z</time>
      </trkpt>
      <trkpt lat="47.49622" lon="6.51243">
        <ele>483.4</ele>
        <time>2025-09-13T14:20:22Z</time>
      </trkpt>
      <trkpt lat="47.49622" lon="6.51243">
        <ele>483.4</ele>
        <time>2025-09-13T14:20:23Z</time>
      </trkpt>
      <trkpt lat="47.49622" lon="6.51243">
        <ele>483.4</ele>
        <time>2025-09-13T14:20:24Z</time>
      </trkpt>
      <trkpt lat="47.49622" lon="6.51243">
        <ele>483.4</ele>
        <time>2025-09-13T14:20:25Z</time>
      </trkpt>
      <trkpt lat="47.49622" lon="6.51243">
        <ele>483.4</ele>
        <time>2025-09-13T14:20:26Z</time>
      </trkpt>
      <trkpt lat="47.49622" lon="6.51243">
        <ele>483.4</ele>
        <time>2025-09-13T14:20:27Z</time>
      </trkpt>
      <trkpt lat="47.49622" lon="6.51242">
        <ele>483.4</ele>
        <time>2025-09-13T14:20:28Z</time>
      </trkpt>
      <trkpt lat="47.49622" lon="6.51242">
        <ele>483.4</ele>
        <time>2025-09-13T14:20:29Z</time>
      </trkpt>
      <trkpt lat="47.49622" lon="6.51242">
        <ele>483.4</ele>
        <time>2025-09-13T14:20:30Z</time>
      </trkpt>
      <trkpt lat="47.49622" lon="6.51242">
        <ele>483.4</ele>
        <time>2025-09-13T14:20:31Z</time>
      </trkpt>
      <trkpt lat="47.49622" lon="6.51242">
        <ele>483.4</ele>
        <time>2025-09-13T14:20:32Z</time>
      </trkpt>
      <trkpt lat="47.49622" lon="6.51242">
        <ele>483.4</ele>
        <time>2025-09-13T14:20:33Z</time>
      </trkpt>
      <trkpt lat="47.49622" lon="6.51242">
        <ele>483.4</ele>
        <time>2025-09-13T14:20:34Z</time>
      </trkpt>
      <trkpt lat="47.49622" lon="6.51242">
        <ele>483.4</ele>
        <time>2025-09-13T14:20:35Z</time>
      </trkpt>
      <trkpt lat="47.49623" lon="6.51242">
        <ele>483.4</ele>
        <time>2025-09-13T14:20:36Z</time>
      </trkpt>
      <trkpt lat="47.49623" lon="6.51242">
        <ele>483.4</ele>
        <time>2025-09-13T14:20:37Z</time>
      </trkpt>
      <trkpt lat="47.49623" lon="6.51242">
        <ele>483.4</ele>
        <time>2025-09-13T14:20:38Z</time>
      </trkpt>
      <trkpt lat="47.49623" lon="6.51242">
        <ele>483.4</ele>
        <time>2025-09-13T14:20:39Z</time>
      </trkpt>
      <trkpt lat="47.49623" lon="6.51242">
        <ele>483.4</ele>
        <time>2025-09-13T14:20:40Z</time>
      </trkpt>
      <trkpt lat="47.49623" lon="6.51242">
        <ele>483.4</ele>
        <time>2025-09-13T14:20:41Z</time>
      </trkpt>
      <trkpt lat="47.49623" lon="6.51242">
        <ele>483.4</ele>
        <time>2025-09-13T14:20:42Z</time>
      </trkpt>
      <trkpt lat="47.49623" lon="6.51242">
        <ele>483.4</ele>
        <time>2025-09-13T14:20:43Z</time>
      </trkpt>
      <trkpt lat="47.49623" lon="6.51242">
        <ele>483.4</ele>
        <time>2025-09-13T14:20:44Z</time>
      </trkpt>
      <trkpt lat="47.49623" lon="6.51242">
        <ele>483.4</ele>
        <time>2025-09-13T14:20:45Z</time>
      </trkpt>
      <trkpt lat="47.49623" lon="6.51242">
        <ele>483.3</ele>
        <time>2025-09-13T14:20:46Z</time>
      </trkpt>
      <trkpt lat="47.49623" lon="6.51242">
        <ele>483.3</ele>
        <time>2025-09-13T14:20:47Z</time>
      </trkpt>
      <trkpt lat="47.49623" lon="6.51242">
        <ele>483.3</ele>
        <time>2025-09-13T14:20:48Z</time>
      </trkpt>
      <trkpt lat="47.49623" lon="6.51242">
        <ele>483.3</ele>
        <time>2025-09-13T14:20:49Z</time>
      </trkpt>
      <trkpt lat="47.49623" lon="6.51242">
        <ele>483.3</ele>
        <time>2025-09-13T14:20:50Z</time>
      </trkpt>
      <trkpt lat="47.49623" lon="6.51242">
        <ele>483.3</ele>
        <time>2025-09-13T14:20:51Z</time>
      </trkpt>
      <trkpt lat="47.49623" lon="6.51242">
        <ele>483.3</ele>
        <time>2025-09-13T14:20:52Z</time>
      </trkpt>
      <trkpt lat="47.49623" lon="6.51242">
        <ele>483.3</ele>
        <time>2025-09-13T14:20:53Z</time>
      </trkpt>
      <trkpt lat="47.49623" lon="6.51242">
        <ele>483.3</ele>
        <time>2025-09-13T14:20:54Z</time>
      </trkpt>
      <trkpt lat="47.49623" lon="6.51242">
        <ele>483.3</ele>
        <time>2025-09-13T14:20:55Z</time>
      </trkpt>
      <trkpt lat="47.49624" lon="6.51242">
        <ele>483.3</ele>
        <time>2025-09-13T14:20:56Z</time>
      </trkpt>
      <trkpt lat="47.49624" lon="6.51242">
        <ele>483.3</ele>
        <time>2025-09-13T14:20:57Z</time>
      </trkpt>
      <trkpt lat="47.49624" lon="6.51242">
        <ele>483.3</ele>
        <time>2025-09-13T14:20:58Z</time>
      </trkpt>
      <trkpt lat="47.49624" lon="6.51242">
        <ele>483.3</ele>
        <time>2025-09-13T14:20:59Z</time>
      </trkpt>
      <trkpt lat="47.49624" lon="6.51242">
        <ele>483.3</ele>
        <time>2025-09-13T14:21:00Z</time>
      </trkpt>
      <trkpt lat="47.49624" lon="6.51242">
        <ele>483.3</ele>
        <time>2025-09-13T14:21:01Z</time>
      </trkpt>
      <trkpt lat="47.49624" lon="6.51242">
        <ele>483.3</ele>
        <time>2025-09-13T14:21:02Z</time>
      </trkpt>
      <trkpt lat="47.49624" lon="6.51242">
        <ele>483.3</ele>
        <time>2025-09-13T14:21:03Z</time>
      </trkpt>
      <trkpt lat="47.49624" lon="6.51242">
        <ele>483.3</ele>
        <time>2025-09-13T14:21:04Z</time>
      </trkpt>
      <trkpt lat="47.49624" lon="6.51242">
        <ele>483.3</ele>
        <time>2025-09-13T14:21:05Z</time>
      </trkpt>
      <trkpt lat="47.49624" lon="6.51242">
        <ele>483.3</ele>
        <time>2025-09-13T14:21:06Z</time>
      </trkpt>
      <trkpt lat="47.49624" lon="6.51242">
        <ele>483.3</ele>
        <time>2025-09-13T14:21:07Z</time>
      </trkpt>
      <trkpt lat="47.49624" lon="6.51242">
        <ele>483.3</ele>
        <time>2025-09-13T14:21:08Z</time>
      </trkpt>
      <trkpt lat="47.49624" lon="6.51242">
        <ele>483.3</ele>
        <time>2025-09-13T14:21:09Z</time>
      </trkpt>
      <trkpt lat="47.49624" lon="6.51242">
        <ele>483.3</ele>
        <time>2025-09-13T14:21:10Z</time>
      </trkpt>
      <trkpt lat="47.49624" lon="6.51242">
        <ele>483.3</ele>
        <time>2025-09-13T14:21:11Z</time>
      </trkpt>
      <trkpt lat="47.49624" lon="6.51242">
        <ele>483.3</ele>
        <time>2025-09-13T14:21:12Z</time>
      </trkpt>
      <trkpt lat="47.49624" lon="6.51242">
        <ele>483.3</ele>
        <time>2025-09-13T14:21:13Z</time>
      </trkpt>
      <trkpt lat="47.49624" lon="6.51242">
        <ele>483.3</ele>
        <time>2025-09-13T14:21:14Z</time>
      </trkpt>
      <trkpt lat="47.49624" lon="6.51242">
        <ele>483.3</ele>
        <time>2025-09-13T14:21:15Z</time>
      </trkpt>
      <trkpt lat="47.49624" lon="6.51242">
        <ele>483.3</ele>
        <time>2025-09-13T14:21:16Z</time>
      </trkpt>
      <trkpt lat="47.49625" lon="6.51242">
        <ele>483.3</ele>
        <time>2025-09-13T14:21:17Z</time>
      </trkpt>
      <trkpt lat="47.49625" lon="6.51242">
        <ele>483.3</ele>
        <time>2025-09-13T14:21:18Z</time>
      </trkpt>
      <trkpt lat="47.49625" lon="6.51242">
        <ele>483.3</ele>
        <time>2025-09-13T14:21:19Z</time>
      </trkpt>
      <trkpt lat="47.49627" lon="6.51246">
        <ele>483.1</ele>
        <time>2025-09-13T14:21:20Z</time>
      </trkpt>
      <trkpt lat="47.49628" lon="6.51248">
        <ele>483.1</ele>
        <time>2025-09-13T14:21:21Z</time>
      </trkpt>
      <trkpt lat="47.49631" lon="6.51253">
        <ele>482.9</ele>
        <time>2025-09-13T14:21:22Z</time>
      </trkpt>
      <trkpt lat="47.49633" lon="6.51258">
        <ele>482.7</ele>
        <time>2025-09-13T14:21:23Z</time>
      </trkpt>
      <trkpt lat="47.49637" lon="6.51264">
        <ele>482.5</ele>
        <time>2025-09-13T14:21:24Z</time>
      </trkpt>
      <trkpt lat="47.4964" lon="6.51269">
        <ele>482.3</ele>
        <time>2025-09-13T14:21:25Z</time>
      </trkpt>
      <trkpt lat="47.49644" lon="6.51274">
        <ele>482.1</ele>
        <time>2025-09-13T14:21:26Z</time>
      </trkpt>
      <trkpt lat="47.49647" lon="6.5128">
        <ele>481.8</ele>
        <time>2025-09-13T14:21:27Z</time>
      </trkpt>
      <trkpt lat="47.49651" lon="6.51286">
        <ele>481.6</ele>
        <time>2025-09-13T14:21:28Z</time>
      </trkpt>
      <trkpt lat="47.49655" lon="6.51292">
        <ele>481.4</ele>
        <time>2025-09-13T14:21:29Z</time>
      </trkpt>
      <trkpt lat="47.49659" lon="6.51298">
        <ele>481.1</ele>
        <time>2025-09-13T14:21:30Z</time>
      </trkpt>
      <trkpt lat="47.49663" lon="6.51304">
        <ele>480.9</ele>
        <time>2025-09-13T14:21:31Z</time>
      </trkpt>
      <trkpt lat="47.49667" lon="6.5131">
        <ele>480.7</ele>
        <time>2025-09-13T14:21:32Z</time>
      </trkpt>
      <trkpt lat="47.49671" lon="6.51319">
        <ele>480.4</ele>
        <time>2025-09-13T14:21:33Z</time>
      </trkpt>
      <trkpt lat="47.49675" lon="6.51327">
        <ele>480.2</ele>
        <time>2025-09-13T14:21:34Z</time>
      </trkpt>
      <trkpt lat="47.49679" lon="6.51335">
        <ele>479.9</ele>
        <time>2025-09-13T14:21:35Z</time>
      </trkpt>
      <trkpt lat="47.49682" lon="6.51345">
        <ele>479.6</ele>
        <time>2025-09-13T14:21:36Z</time>
      </trkpt>
      <trkpt lat="47.49686" lon="6.51355">
        <ele>479.3</ele>
        <time>2025-09-13T14:21:37Z</time>
      </trkpt>
      <trkpt lat="47.49689" lon="6.51364">
        <ele>479.1</ele>
        <time>2025-09-13T14:21:38Z</time>
      </trkpt>
      <trkpt lat="47.49692" lon="6.51374">
        <ele>478.8</ele>
        <time>2025-09-13T14:21:39Z</time>
      </trkpt>
      <trkpt lat="47.49694" lon="6.51385">
        <ele>478.6</ele>
        <time>2025-09-13T14:21:40Z</time>
      </trkpt>
      <trkpt lat="47.49696" lon="6.51398">
        <ele>478.3</ele>
        <time>2025-09-13T14:21:41Z</time>
      </trkpt>
      <trkpt lat="47.49696" lon="6.5141">
        <ele>478</ele>
        <time>2025-09-13T14:21:42Z</time>
      </trkpt>
      <trkpt lat="47.49697" lon="6.51423">
        <ele>477.8</ele>
        <time>2025-09-13T14:21:43Z</time>
      </trkpt>
      <trkpt lat="47.49696" lon="6.51436">
        <ele>477.6</ele>
        <time>2025-09-13T14:21:44Z</time>
      </trkpt>
      <trkpt lat="47.49694" lon="6.51447">
        <ele>477.4</ele>
        <time>2025-09-13T14:21:45Z</time>
      </trkpt>
      <trkpt lat="47.49692" lon="6.5146">
        <ele>477.2</ele>
        <time>2025-09-13T14:21:46Z</time>
      </trkpt>
      <trkpt lat="47.49689" lon="6.51472">
        <ele>477</ele>
        <time>2025-09-13T14:21:47Z</time>
      </trkpt>
      <trkpt lat="47.49688" lon="6.51483">
        <ele>476.8</ele>
        <time>2025-09-13T14:21:48Z</time>
      </trkpt>
      <trkpt lat="47.49686" lon="6.51495">
        <ele>476.6</ele>
        <time>2025-09-13T14:21:49Z</time>
      </trkpt>
      <trkpt lat="47.49684" lon="6.51507">
        <ele>476.3</ele>
        <time>2025-09-13T14:21:50Z</time>
      </trkpt>
      <trkpt lat="47.49682" lon="6.51518">
        <ele>476.1</ele>
        <time>2025-09-13T14:21:51Z</time>
      </trkpt>
      <trkpt lat="47.49679" lon="6.5153">
        <ele>475.8</ele>
        <time>2025-09-13T14:21:52Z</time>
      </trkpt>
      <trkpt lat="47.49677" lon="6.51543">
        <ele>475.5</ele>
        <time>2025-09-13T14:21:53Z</time>
      </trkpt>
      <trkpt lat="47.49675" lon="6.51554">
        <ele>475.3</ele>
        <time>2025-09-13T14:21:54Z</time>
      </trkpt>
      <trkpt lat="47.49673" lon="6.51567">
        <ele>475</ele>
        <time>2025-09-13T14:21:55Z</time>
      </trkpt>
      <trkpt lat="47.49671" lon="6.51579">
        <ele>474.7</ele>
        <time>2025-09-13T14:21:56Z</time>
      </trkpt>
      <trkpt lat="47.49669" lon="6.51592">
        <ele>474.4</ele>
        <time>2025-09-13T14:21:57Z</time>
      </trkpt>
      <trkpt lat="47.49666" lon="6.51604">
        <ele>474.2</ele>
        <time>2025-09-13T14:21:58Z</time>
      </trkpt>
      <trkpt lat="47.49665" lon="6.51617">
        <ele>474</ele>
        <time>2025-09-13T14:21:59Z</time>
      </trkpt>
      <trkpt lat="47.49664" lon="6.5163">
        <ele>473.9</ele>
        <time>2025-09-13T14:22:00Z</time>
      </trkpt>
      <trkpt lat="47.49664" lon="6.51643">
        <ele>473.7</ele>
        <time>2025-09-13T14:22:01Z</time>
      </trkpt>
      <trkpt lat="47.49665" lon="6.51656">
        <ele>473.6</ele>
        <time>2025-09-13T14:22:02Z</time>
      </trkpt>
      <trkpt lat="47.49666" lon="6.51668">
        <ele>473.5</ele>
        <time>2025-09-13T14:22:03Z</time>
      </trkpt>
      <trkpt lat="47.49667" lon="6.51681">
        <ele>473.4</ele>
        <time>2025-09-13T14:22:04Z</time>
      </trkpt>
      <trkpt lat="47.49668" lon="6.51694">
        <ele>473.4</ele>
        <time>2025-09-13T14:22:05Z</time>
      </trkpt>
      <trkpt lat="47.49669" lon="6.51706">
        <ele>473.3</ele>
        <time>2025-09-13T14:22:06Z</time>
      </trkpt>
      <trkpt lat="47.49671" lon="6.51718">
        <ele>473.3</ele>
        <time>2025-09-13T14:22:07Z</time>
      </trkpt>
      <trkpt lat="47.49672" lon="6.51729">
        <ele>473.2</ele>
        <time>2025-09-13T14:22:08Z</time>
      </trkpt>
      <trkpt lat="47.49674" lon="6.51742">
        <ele>473.2</ele>
        <time>2025-09-13T14:22:09Z</time>
      </trkpt>
      <trkpt lat="47.49675" lon="6.51754">
        <ele>473.2</ele>
        <time>2025-09-13T14:22:10Z</time>
      </trkpt>
      <trkpt lat="47.49677" lon="6.51778">
        <ele>473.1</ele>
        <time>2025-09-13T14:22:12Z</time>
      </trkpt>
      <trkpt lat="47.49678" lon="6.5179">
        <ele>473</ele>
        <time>2025-09-13T14:22:14Z</time>
      </trkpt>
      <trkpt lat="47.4968" lon="6.51802">
        <ele>472.9</ele>
        <time>2025-09-13T14:22:15Z</time>
      </trkpt>
      <trkpt lat="47.49681" lon="6.51814">
        <ele>472.9</ele>
        <time>2025-09-13T14:22:16Z</time>
      </trkpt>
      <trkpt lat="47.49682" lon="6.51826">
        <ele>472.7</ele>
        <time>2025-09-13T14:22:17Z</time>
      </trkpt>
      <trkpt lat="47.49686" lon="6.51849">
        <ele>472.5</ele>
        <time>2025-09-13T14:22:18Z</time>
      </trkpt>
      <trkpt lat="47.49688" lon="6.5186">
        <ele>472.3</ele>
        <time>2025-09-13T14:22:19Z</time>
      </trkpt>
      <trkpt lat="47.4969" lon="6.5187">
        <ele>472</ele>
        <time>2025-09-13T14:22:20Z</time>
      </trkpt>
      <trkpt lat="47.49693" lon="6.51882">
        <ele>471.8</ele>
        <time>2025-09-13T14:22:21Z</time>
      </trkpt>
      <trkpt lat="47.49695" lon="6.51893">
        <ele>471.4</ele>
        <time>2025-09-13T14:22:22Z</time>
      </trkpt>
      <trkpt lat="47.49698" lon="6.51905">
        <ele>471.1</ele>
        <time>2025-09-13T14:22:23Z</time>
      </trkpt>
      <trkpt lat="47.49701" lon="6.51917">
        <ele>470.7</ele>
        <time>2025-09-13T14:22:24Z</time>
      </trkpt>
      <trkpt lat="47.49703" lon="6.51928">
        <ele>470.4</ele>
        <time>2025-09-13T14:22:25Z</time>
      </trkpt>
      <trkpt lat="47.49706" lon="6.5194">
        <ele>470</ele>
        <time>2025-09-13T14:22:27Z</time>
      </trkpt>
      <trkpt lat="47.49708" lon="6.51953">
        <ele>469.5</ele>
        <time>2025-09-13T14:22:28Z</time>
      </trkpt>
      <trkpt lat="47.49711" lon="6.51965">
        <ele>469</ele>
        <time>2025-09-13T14:22:29Z</time>
      </trkpt>
      <trkpt lat="47.49714" lon="6.51977">
        <ele>468.5</ele>
        <time>2025-09-13T14:22:30Z</time>
      </trkpt>
      <trkpt lat="47.49717" lon="6.51989">
        <ele>468.1</ele>
        <time>2025-09-13T14:22:31Z</time>
      </trkpt>
      <trkpt lat="47.4972" lon="6.52001">
        <ele>467.6</ele>
        <time>2025-09-13T14:22:32Z</time>
      </trkpt>
      <trkpt lat="47.49723" lon="6.52015">
        <ele>467</ele>
        <time>2025-09-13T14:22:33Z</time>
      </trkpt>
      <trkpt lat="47.49727" lon="6.52027">
        <ele>466.5</ele>
        <time>2025-09-13T14:22:34Z</time>
      </trkpt>
      <trkpt lat="47.4973" lon="6.52041">
        <ele>465.9</ele>
        <time>2025-09-13T14:22:35Z</time>
      </trkpt>
      <trkpt lat="47.49734" lon="6.52054">
        <ele>465.3</ele>
        <time>2025-09-13T14:22:36Z</time>
      </trkpt>
      <trkpt lat="47.49738" lon="6.52068">
        <ele>464.8</ele>
        <time>2025-09-13T14:22:37Z</time>
      </trkpt>
      <trkpt lat="47.49742" lon="6.52082">
        <ele>464.3</ele>
        <time>2025-09-13T14:22:38Z</time>
      </trkpt>
      <trkpt lat="47.49747" lon="6.52095">
        <ele>463.8</ele>
        <time>2025-09-13T14:22:39Z</time>
      </trkpt>
      <trkpt lat="47.49752" lon="6.52107">
        <ele>463.3</ele>
        <time>2025-09-13T14:22:40Z</time>
      </trkpt>
      <trkpt lat="47.49757" lon="6.52122">
        <ele>462.9</ele>
        <time>2025-09-13T14:22:41Z</time>
      </trkpt>
      <trkpt lat="47.49762" lon="6.52133">
        <ele>462.4</ele>
        <time>2025-09-13T14:22:42Z</time>
      </trkpt>
      <trkpt lat="47.49767" lon="6.52146">
        <ele>462</ele>
        <time>2025-09-13T14:22:43Z</time>
      </trkpt>
      <trkpt lat="47.49772" lon="6.52158">
        <ele>461.6</ele>
        <time>2025-09-13T14:22:44Z</time>
      </trkpt>
      <trkpt lat="47.49778" lon="6.5217">
        <ele>461.1</ele>
        <time>2025-09-13T14:22:45Z</time>
      </trkpt>
      <trkpt lat="47.49784" lon="6.52184">
        <ele>460.6</ele>
        <time>2025-09-13T14:22:46Z</time>
      </trkpt>
      <trkpt lat="47.4979" lon="6.52195">
        <ele>460.2</ele>
        <time>2025-09-13T14:22:47Z</time>
      </trkpt>
      <trkpt lat="47.49795" lon="6.52208">
        <ele>459.7</ele>
        <time>2025-09-13T14:22:48Z</time>
      </trkpt>
      <trkpt lat="47.498" lon="6.5222">
        <ele>459.2</ele>
        <time>2025-09-13T14:22:49Z</time>
      </trkpt>
      <trkpt lat="47.49805" lon="6.52233">
        <ele>458.7</ele>
        <time>2025-09-13T14:22:50Z</time>
      </trkpt>
      <trkpt lat="47.49809" lon="6.52249">
        <ele>458.2</ele>
        <time>2025-09-13T14:22:51Z</time>
      </trkpt>
      <trkpt lat="47.49812" lon="6.52263">
        <ele>457.7</ele>
        <time>2025-09-13T14:22:52Z</time>
      </trkpt>
      <trkpt lat="47.49817" lon="6.52274">
        <ele>457.3</ele>
        <time>2025-09-13T14:22:53Z</time>
      </trkpt>
      <trkpt lat="47.49822" lon="6.52287">
        <ele>456.8</ele>
        <time>2025-09-13T14:22:54Z</time>
      </trkpt>
      <trkpt lat="47.49826" lon="6.52299">
        <ele>456.4</ele>
        <time>2025-09-13T14:22:55Z</time>
      </trkpt>
      <trkpt lat="47.4983" lon="6.52312">
        <ele>456</ele>
        <time>2025-09-13T14:22:56Z</time>
      </trkpt>
      <trkpt lat="47.49834" lon="6.52326">
        <ele>455.6</ele>
        <time>2025-09-13T14:22:57Z</time>
      </trkpt>
      <trkpt lat="47.49838" lon="6.5234">
        <ele>455.2</ele>
        <time>2025-09-13T14:22:58Z</time>
      </trkpt>
      <trkpt lat="47.49841" lon="6.52354">
        <ele>454.9</ele>
        <time>2025-09-13T14:22:59Z</time>
      </trkpt>
      <trkpt lat="47.49842" lon="6.52369">
        <ele>454.5</ele>
        <time>2025-09-13T14:23:00Z</time>
      </trkpt>
      <trkpt lat="47.49844" lon="6.52383">
        <ele>454.1</ele>
        <time>2025-09-13T14:23:01Z</time>
      </trkpt>
      <trkpt lat="47.49846" lon="6.52397">
        <ele>453.7</ele>
        <time>2025-09-13T14:23:02Z</time>
      </trkpt>
      <trkpt lat="47.49847" lon="6.5241">
        <ele>453.4</ele>
        <time>2025-09-13T14:23:03Z</time>
      </trkpt>
      <trkpt lat="47.49849" lon="6.52424">
        <ele>453</ele>
        <time>2025-09-13T14:23:04Z</time>
      </trkpt>
      <trkpt lat="47.49849" lon="6.52438">
        <ele>452.6</ele>
        <time>2025-09-13T14:23:05Z</time>
      </trkpt>
      <trkpt lat="47.49851" lon="6.52453">
        <ele>452.3</ele>
        <time>2025-09-13T14:23:06Z</time>
      </trkpt>
      <trkpt lat="47.49852" lon="6.52467">
        <ele>451.9</ele>
        <time>2025-09-13T14:23:07Z</time>
      </trkpt>
      <trkpt lat="47.49854" lon="6.52482">
        <ele>451.5</ele>
        <time>2025-09-13T14:23:08Z</time>
      </trkpt>
      <trkpt lat="47.49855" lon="6.52496">
        <ele>451.2</ele>
        <time>2025-09-13T14:23:09Z</time>
      </trkpt>
      <trkpt lat="47.49857" lon="6.52509">
        <ele>450.8</ele>
        <time>2025-09-13T14:23:10Z</time>
      </trkpt>
      <trkpt lat="47.49859" lon="6.52523">
        <ele>450.5</ele>
        <time>2025-09-13T14:23:11Z</time>
      </trkpt>
      <trkpt lat="47.49863" lon="6.52536">
        <ele>450.2</ele>
        <time>2025-09-13T14:23:12Z</time>
      </trkpt>
      <trkpt lat="47.49866" lon="6.52549">
        <ele>449.9</ele>
        <time>2025-09-13T14:23:13Z</time>
      </trkpt>
      <trkpt lat="47.49869" lon="6.52562">
        <ele>449.6</ele>
        <time>2025-09-13T14:23:14Z</time>
      </trkpt>
      <trkpt lat="47.49873" lon="6.52575">
        <ele>449.2</ele>
        <time>2025-09-13T14:23:15Z</time>
      </trkpt>
      <trkpt lat="47.49878" lon="6.52586">
        <ele>448.8</ele>
        <time>2025-09-13T14:23:16Z</time>
      </trkpt>
      <trkpt lat="47.49882" lon="6.52598">
        <ele>448.4</ele>
        <time>2025-09-13T14:23:17Z</time>
      </trkpt>
      <trkpt lat="47.49887" lon="6.52611">
        <ele>448</ele>
        <time>2025-09-13T14:23:18Z</time>
      </trkpt>
      <trkpt lat="47.49892" lon="6.52624">
        <ele>447.6</ele>
        <time>2025-09-13T14:23:19Z</time>
      </trkpt>
      <trkpt lat="47.49896" lon="6.52636">
        <ele>447.2</ele>
        <time>2025-09-13T14:23:20Z</time>
      </trkpt>
      <trkpt lat="47.49901" lon="6.52649">
        <ele>446.9</ele>
        <time>2025-09-13T14:23:21Z</time>
      </trkpt>
      <trkpt lat="47.49906" lon="6.52661">
        <ele>446.7</ele>
        <time>2025-09-13T14:23:22Z</time>
      </trkpt>
      <trkpt lat="47.4991" lon="6.52674">
        <ele>446.5</ele>
        <time>2025-09-13T14:23:23Z</time>
      </trkpt>
      <trkpt lat="47.49915" lon="6.52686">
        <ele>446.4</ele>
        <time>2025-09-13T14:23:24Z</time>
      </trkpt>
      <trkpt lat="47.49919" lon="6.52698">
        <ele>446.4</ele>
        <time>2025-09-13T14:23:25Z</time>
      </trkpt>
      <trkpt lat="47.49923" lon="6.52712">
        <ele>446.5</ele>
        <time>2025-09-13T14:23:26Z</time>
      </trkpt>
      <trkpt lat="47.49927" lon="6.52724">
        <ele>446.7</ele>
        <time>2025-09-13T14:23:27Z</time>
      </trkpt>
      <trkpt lat="47.4993" lon="6.52737">
        <ele>446.9</ele>
        <time>2025-09-13T14:23:28Z</time>
      </trkpt>
      <trkpt lat="47.49932" lon="6.52749">
        <ele>447.1</ele>
        <time>2025-09-13T14:23:29Z</time>
      </trkpt>
      <trkpt lat="47.49933" lon="6.5276">
        <ele>447.3</ele>
        <time>2025-09-13T14:23:30Z</time>
      </trkpt>
      <trkpt lat="47.49934" lon="6.52772">
        <ele>447.6</ele>
        <time>2025-09-13T14:23:31Z</time>
      </trkpt>
      <trkpt lat="47.49934" lon="6.52784">
        <ele>447.8</ele>
        <time>2025-09-13T14:23:32Z</time>
      </trkpt>
      <trkpt lat="47.49934" lon="6.52794">
        <ele>447.8</ele>
        <time>2025-09-13T14:23:33Z</time>
      </trkpt>
      <trkpt lat="47.49934" lon="6.52805">
        <ele>447.8</ele>
        <time>2025-09-13T14:23:34Z</time>
      </trkpt>
      <trkpt lat="47.49933" lon="6.52815">
        <ele>447.8</ele>
        <time>2025-09-13T14:23:35Z</time>
      </trkpt>
      <trkpt lat="47.49932" lon="6.52825">
        <ele>447.8</ele>
        <time>2025-09-13T14:23:36Z</time>
      </trkpt>
      <trkpt lat="47.49931" lon="6.52835">
        <ele>447.8</ele>
        <time>2025-09-13T14:23:37Z</time>
      </trkpt>
      <trkpt lat="47.49931" lon="6.52846">
        <ele>447.7</ele>
        <time>2025-09-13T14:23:38Z</time>
      </trkpt>
      <trkpt lat="47.4993" lon="6.52856">
        <ele>447.6</ele>
        <time>2025-09-13T14:23:39Z</time>
      </trkpt>
      <trkpt lat="47.49929" lon="6.52866">
        <ele>447.4</ele>
        <time>2025-09-13T14:23:40Z</time>
      </trkpt>
      <trkpt lat="47.49927" lon="6.52876">
        <ele>447.2</ele>
        <time>2025-09-13T14:23:41Z</time>
      </trkpt>
      <trkpt lat="47.49926" lon="6.52887">
        <ele>446.9</ele>
        <time>2025-09-13T14:23:42Z</time>
      </trkpt>
      <trkpt lat="47.49924" lon="6.52899">
        <ele>446.6</ele>
        <time>2025-09-13T14:23:43Z</time>
      </trkpt>
      <trkpt lat="47.49923" lon="6.5291">
        <ele>446.2</ele>
        <time>2025-09-13T14:23:44Z</time>
      </trkpt>
      <trkpt lat="47.49921" lon="6.52921">
        <ele>445.9</ele>
        <time>2025-09-13T14:23:45Z</time>
      </trkpt>
      <trkpt lat="47.49918" lon="6.52932">
        <ele>445.6</ele>
        <time>2025-09-13T14:23:46Z</time>
      </trkpt>
      <trkpt lat="47.49913" lon="6.52943">
        <ele>445.1</ele>
        <time>2025-09-13T14:23:47Z</time>
      </trkpt>
      <trkpt lat="47.49907" lon="6.52952">
        <ele>444.7</ele>
        <time>2025-09-13T14:23:48Z</time>
      </trkpt>
      <trkpt lat="47.499" lon="6.5296">
        <ele>444.3</ele>
        <time>2025-09-13T14:23:49Z</time>
      </trkpt>
      <trkpt lat="47.49892" lon="6.52967">
        <ele>444</ele>
        <time>2025-09-13T14:23:50Z</time>
      </trkpt>
      <trkpt lat="47.49884" lon="6.52974">
        <ele>443.7</ele>
        <time>2025-09-13T14:23:51Z</time>
      </trkpt>
      <trkpt lat="47.49877" lon="6.5298">
        <ele>443.4</ele>
        <time>2025-09-13T14:23:52Z</time>
      </trkpt>
      <trkpt lat="47.49869" lon="6.52988">
        <ele>443.2</ele>
        <time>2025-09-13T14:23:53Z</time>
      </trkpt>
      <trkpt lat="47.49862" lon="6.52995">
        <ele>443</ele>
        <time>2025-09-13T14:23:54Z</time>
      </trkpt>
      <trkpt lat="47.49856" lon="6.53003">
        <ele>442.8</ele>
        <time>2025-09-13T14:23:55Z</time>
      </trkpt>
      <trkpt lat="47.49849" lon="6.53011">
        <ele>442.7</ele>
        <time>2025-09-13T14:23:56Z</time>
      </trkpt>
      <trkpt lat="47.49843" lon="6.5302">
        <ele>442.6</ele>
        <time>2025-09-13T14:23:57Z</time>
      </trkpt>
      <trkpt lat="47.49837" lon="6.53028">
        <ele>442.4</ele>
        <time>2025-09-13T14:23:58Z</time>
      </trkpt>
      <trkpt lat="47.49831" lon="6.53037">
        <ele>442.2</ele>
        <time>2025-09-13T14:23:59Z</time>
      </trkpt>
      <trkpt lat="47.49825" lon="6.53046">
        <ele>442</ele>
        <time>2025-09-13T14:24:00Z</time>
      </trkpt>
      <trkpt lat="47.49819" lon="6.53055">
        <ele>441.8</ele>
        <time>2025-09-13T14:24:01Z</time>
      </trkpt>
      <trkpt lat="47.49811" lon="6.53062">
        <ele>441.6</ele>
        <time>2025-09-13T14:24:02Z</time>
      </trkpt>
      <trkpt lat="47.49803" lon="6.53068">
        <ele>441.5</ele>
        <time>2025-09-13T14:24:03Z</time>
      </trkpt>
      <trkpt lat="47.49795" lon="6.53072">
        <ele>441.5</ele>
        <time>2025-09-13T14:24:04Z</time>
      </trkpt>
      <trkpt lat="47.49787" lon="6.53076">
        <ele>441.6</ele>
        <time>2025-09-13T14:24:05Z</time>
      </trkpt>
      <trkpt lat="47.49779" lon="6.5308">
        <ele>441.7</ele>
        <time>2025-09-13T14:24:06Z</time>
      </trkpt>
      <trkpt lat="47.49771" lon="6.53084">
        <ele>441.8</ele>
        <time>2025-09-13T14:24:07Z</time>
      </trkpt>
      <trkpt lat="47.49764" lon="6.53088">
        <ele>442</ele>
        <time>2025-09-13T14:24:08Z</time>
      </trkpt>
      <trkpt lat="47.49757" lon="6.53091">
        <ele>442.2</ele>
        <time>2025-09-13T14:24:09Z</time>
      </trkpt>
      <trkpt lat="47.49749" lon="6.53094">
        <ele>442.4</ele>
        <time>2025-09-13T14:24:10Z</time>
      </trkpt>
      <trkpt lat="47.49743" lon="6.53096">
        <ele>442.6</ele>
        <time>2025-09-13T14:24:11Z</time>
      </trkpt>
      <trkpt lat="47.49737" lon="6.53099">
        <ele>442.8</ele>
        <time>2025-09-13T14:24:12Z</time>
      </trkpt>
      <trkpt lat="47.49731" lon="6.53101">
        <ele>442.9</ele>
        <time>2025-09-13T14:24:13Z</time>
      </trkpt>
      <trkpt lat="47.49725" lon="6.53103">
        <ele>443</ele>
        <time>2025-09-13T14:24:14Z</time>
      </trkpt>
      <trkpt lat="47.49719" lon="6.53104">
        <ele>443.2</ele>
        <time>2025-09-13T14:24:15Z</time>
      </trkpt>
      <trkpt lat="47.49713" lon="6.53106">
        <ele>443.3</ele>
        <time>2025-09-13T14:24:16Z</time>
      </trkpt>
      <trkpt lat="47.49706" lon="6.53108">
        <ele>443.3</ele>
        <time>2025-09-13T14:24:17Z</time>
      </trkpt>
      <trkpt lat="47.497" lon="6.53109">
        <ele>443.4</ele>
        <time>2025-09-13T14:24:18Z</time>
      </trkpt>
      <trkpt lat="47.49694" lon="6.53112">
        <ele>443.4</ele>
        <time>2025-09-13T14:24:19Z</time>
      </trkpt>
      <trkpt lat="47.49688" lon="6.53115">
        <ele>443.4</ele>
        <time>2025-09-13T14:24:20Z</time>
      </trkpt>
      <trkpt lat="47.49681" lon="6.53117">
        <ele>443.4</ele>
        <time>2025-09-13T14:24:21Z</time>
      </trkpt>
      <trkpt lat="47.49675" lon="6.5312">
        <ele>443.3</ele>
        <time>2025-09-13T14:24:22Z</time>
      </trkpt>
      <trkpt lat="47.49669" lon="6.53123">
        <ele>443.2</ele>
        <time>2025-09-13T14:24:23Z</time>
      </trkpt>
      <trkpt lat="47.49665" lon="6.53129">
        <ele>443.2</ele>
        <time>2025-09-13T14:24:24Z</time>
      </trkpt>
      <trkpt lat="47.4966" lon="6.53136">
        <ele>442.8</ele>
        <time>2025-09-13T14:24:25Z</time>
      </trkpt>
      <trkpt lat="47.49657" lon="6.53145">
        <ele>442.5</ele>
        <time>2025-09-13T14:24:26Z</time>
      </trkpt>
      <trkpt lat="47.49655" lon="6.53154">
        <ele>442.1</ele>
        <time>2025-09-13T14:24:27Z</time>
      </trkpt>
      <trkpt lat="47.49654" lon="6.53165">
        <ele>441.7</ele>
        <time>2025-09-13T14:24:28Z</time>
      </trkpt>
      <trkpt lat="47.49652" lon="6.53176">
        <ele>441.3</ele>
        <time>2025-09-13T14:24:29Z</time>
      </trkpt>
      <trkpt lat="47.4965" lon="6.53187">
        <ele>441</ele>
        <time>2025-09-13T14:24:30Z</time>
      </trkpt>
      <trkpt lat="47.49646" lon="6.53199">
        <ele>440.5</ele>
        <time>2025-09-13T14:24:31Z</time>
      </trkpt>
      <trkpt lat="47.4964" lon="6.53208">
        <ele>440.1</ele>
        <time>2025-09-13T14:24:32Z</time>
      </trkpt>
      <trkpt lat="47.49632" lon="6.53214">
        <ele>439.6</ele>
        <time>2025-09-13T14:24:33Z</time>
      </trkpt>
      <trkpt lat="47.49623" lon="6.53216">
        <ele>439.2</ele>
        <time>2025-09-13T14:24:34Z</time>
      </trkpt>
      <trkpt lat="47.49614" lon="6.53216">
        <ele>438.8</ele>
        <time>2025-09-13T14:24:35Z</time>
      </trkpt>
      <trkpt lat="47.49606" lon="6.53216">
        <ele>438.4</ele>
        <time>2025-09-13T14:24:36Z</time>
      </trkpt>
      <trkpt lat="47.49596" lon="6.53216">
        <ele>438</ele>
        <time>2025-09-13T14:24:37Z</time>
      </trkpt>
      <trkpt lat="47.49588" lon="6.53218">
        <ele>437.8</ele>
        <time>2025-09-13T14:24:38Z</time>
      </trkpt>
      <trkpt lat="47.49579" lon="6.53222">
        <ele>437.6</ele>
        <time>2025-09-13T14:24:39Z</time>
      </trkpt>
      <trkpt lat="47.49572" lon="6.53227">
        <ele>437.4</ele>
        <time>2025-09-13T14:24:40Z</time>
      </trkpt>
      <trkpt lat="47.49564" lon="6.53231">
        <ele>437.3</ele>
        <time>2025-09-13T14:24:41Z</time>
      </trkpt>
      <trkpt lat="47.49557" lon="6.53234">
        <ele>437.2</ele>
        <time>2025-09-13T14:24:42Z</time>
      </trkpt>
      <trkpt lat="47.4955" lon="6.53238">
        <ele>437.1</ele>
        <time>2025-09-13T14:24:43Z</time>
      </trkpt>
      <trkpt lat="47.49542" lon="6.53239">
        <ele>437.1</ele>
        <time>2025-09-13T14:24:44Z</time>
      </trkpt>
      <trkpt lat="47.49534" lon="6.5324">
        <ele>437.1</ele>
        <time>2025-09-13T14:24:45Z</time>
      </trkpt>
      <trkpt lat="47.49527" lon="6.53241">
        <ele>437.1</ele>
        <time>2025-09-13T14:24:46Z</time>
      </trkpt>
      <trkpt lat="47.4952" lon="6.53242">
        <ele>437.1</ele>
        <time>2025-09-13T14:24:47Z</time>
      </trkpt>
      <trkpt lat="47.49512" lon="6.53242">
        <ele>437.1</ele>
        <time>2025-09-13T14:24:48Z</time>
      </trkpt>
      <trkpt lat="47.49505" lon="6.53243">
        <ele>437.2</ele>
        <time>2025-09-13T14:24:49Z</time>
      </trkpt>
      <trkpt lat="47.49499" lon="6.53243">
        <ele>437.3</ele>
        <time>2025-09-13T14:24:50Z</time>
      </trkpt>
      <trkpt lat="47.49492" lon="6.53243">
        <ele>437.4</ele>
        <time>2025-09-13T14:24:51Z</time>
      </trkpt>
      <trkpt lat="47.49487" lon="6.53243">
        <ele>437.5</ele>
        <time>2025-09-13T14:24:52Z</time>
      </trkpt>
      <trkpt lat="47.49484" lon="6.53242">
        <ele>437.6</ele>
        <time>2025-09-13T14:24:53Z</time>
      </trkpt>
      <trkpt lat="47.49479" lon="6.5324">
        <ele>437.6</ele>
        <time>2025-09-13T14:24:54Z</time>
      </trkpt>
      <trkpt lat="47.49477" lon="6.53239">
        <ele>437.6</ele>
        <time>2025-09-13T14:24:55Z</time>
      </trkpt>
      <trkpt lat="47.49471" lon="6.53242">
        <ele>437.7</ele>
        <time>2025-09-13T14:24:56Z</time>
      </trkpt>
      <trkpt lat="47.49467" lon="6.53243">
        <ele>437.7</ele>
        <time>2025-09-13T14:24:57Z</time>
      </trkpt>
      <trkpt lat="47.49461" lon="6.53246">
        <ele>437.7</ele>
        <time>2025-09-13T14:24:58Z</time>
      </trkpt>
      <trkpt lat="47.49456" lon="6.53248">
        <ele>437.7</ele>
        <time>2025-09-13T14:24:59Z</time>
      </trkpt>
      <trkpt lat="47.4944" lon="6.53256">
        <ele>437.7</ele>
        <time>2025-09-13T14:25:00Z</time>
      </trkpt>
      <trkpt lat="47.49437" lon="6.53257">
        <ele>437.7</ele>
        <time>2025-09-13T14:25:01Z</time>
      </trkpt>
      <trkpt lat="47.49433" lon="6.53259">
        <ele>437.7</ele>
        <time>2025-09-13T14:25:02Z</time>
      </trkpt>
      <trkpt lat="47.49428" lon="6.5326">
        <ele>437.5</ele>
        <time>2025-09-13T14:25:03Z</time>
      </trkpt>
      <trkpt lat="47.49423" lon="6.53262">
        <ele>437.2</ele>
        <time>2025-09-13T14:25:04Z</time>
      </trkpt>
      <trkpt lat="47.49418" lon="6.53264">
        <ele>437</ele>
        <time>2025-09-13T14:25:05Z</time>
      </trkpt>
      <trkpt lat="47.49412" lon="6.53264">
        <ele>436.7</ele>
        <time>2025-09-13T14:25:06Z</time>
      </trkpt>
      <trkpt lat="47.49406" lon="6.53265">
        <ele>436.4</ele>
        <time>2025-09-13T14:25:07Z</time>
      </trkpt>
      <trkpt lat="47.49399" lon="6.53265">
        <ele>436</ele>
        <time>2025-09-13T14:25:08Z</time>
      </trkpt>
      <trkpt lat="47.49391" lon="6.53265">
        <ele>435.5</ele>
        <time>2025-09-13T14:25:09Z</time>
      </trkpt>
      <trkpt lat="47.49384" lon="6.53266">
        <ele>435.1</ele>
        <time>2025-09-13T14:25:10Z</time>
      </trkpt>
      <trkpt lat="47.49376" lon="6.53266">
        <ele>434.6</ele>
        <time>2025-09-13T14:25:11Z</time>
      </trkpt>
      <trkpt lat="47.49368" lon="6.53266">
        <ele>434</ele>
        <time>2025-09-13T14:25:12Z</time>
      </trkpt>
      <trkpt lat="47.49361" lon="6.53266">
        <ele>433.5</ele>
        <time>2025-09-13T14:25:13Z</time>
      </trkpt>
      <trkpt lat="47.49352" lon="6.53267">
        <ele>432.9</ele>
        <time>2025-09-13T14:25:14Z</time>
      </trkpt>
      <trkpt lat="47.49343" lon="6.53268">
        <ele>432.3</ele>
        <time>2025-09-13T14:25:15Z</time>
      </trkpt>
      <trkpt lat="47.49333" lon="6.53269">
        <ele>431.7</ele>
        <time>2025-09-13T14:25:16Z</time>
      </trkpt>
      <trkpt lat="47.49324" lon="6.5327">
        <ele>431.1</ele>
        <time>2025-09-13T14:25:17Z</time>
      </trkpt>
      <trkpt lat="47.49314" lon="6.53271">
        <ele>430.5</ele>
        <time>2025-09-13T14:25:18Z</time>
      </trkpt>
      <trkpt lat="47.49305" lon="6.53271">
        <ele>429.9</ele>
        <time>2025-09-13T14:25:19Z</time>
      </trkpt>
      <trkpt lat="47.49296" lon="6.53273">
        <ele>429.2</ele>
        <time>2025-09-13T14:25:20Z</time>
      </trkpt>
      <trkpt lat="47.49286" lon="6.53275">
        <ele>428.5</ele>
        <time>2025-09-13T14:25:21Z</time>
      </trkpt>
      <trkpt lat="47.49276" lon="6.53277">
        <ele>427.8</ele>
        <time>2025-09-13T14:25:22Z</time>
      </trkpt>
      <trkpt lat="47.49267" lon="6.53277">
        <ele>426.9</ele>
        <time>2025-09-13T14:25:23Z</time>
      </trkpt>
      <trkpt lat="47.49256" lon="6.53277">
        <ele>426</ele>
        <time>2025-09-13T14:25:24Z</time>
      </trkpt>
      <trkpt lat="47.49245" lon="6.53277">
        <ele>425.2</ele>
        <time>2025-09-13T14:25:25Z</time>
      </trkpt>
      <trkpt lat="47.49234" lon="6.53277">
        <ele>424.3</ele>
        <time>2025-09-13T14:25:26Z</time>
      </trkpt>
      <trkpt lat="47.49223" lon="6.53279">
        <ele>423.5</ele>
        <time>2025-09-13T14:25:27Z</time>
      </trkpt>
      <trkpt lat="47.49212" lon="6.53282">
        <ele>422.8</ele>
        <time>2025-09-13T14:25:28Z</time>
      </trkpt>
      <trkpt lat="47.49201" lon="6.53285">
        <ele>422.1</ele>
        <time>2025-09-13T14:25:29Z</time>
      </trkpt>
      <trkpt lat="47.4919" lon="6.53287">
        <ele>421.4</ele>
        <time>2025-09-13T14:25:30Z</time>
      </trkpt>
      <trkpt lat="47.49178" lon="6.53289">
        <ele>420.8</ele>
        <time>2025-09-13T14:25:31Z</time>
      </trkpt>
      <trkpt lat="47.49168" lon="6.53291">
        <ele>420.3</ele>
        <time>2025-09-13T14:25:32Z</time>
      </trkpt>
      <trkpt lat="47.49158" lon="6.53293">
        <ele>419.8</ele>
        <time>2025-09-13T14:25:33Z</time>
      </trkpt>
      <trkpt lat="47.49147" lon="6.53297">
        <ele>419.3</ele>
        <time>2025-09-13T14:25:34Z</time>
      </trkpt>
      <trkpt lat="47.49137" lon="6.53299">
        <ele>418.9</ele>
        <time>2025-09-13T14:25:35Z</time>
      </trkpt>
      <trkpt lat="47.49126" lon="6.53302">
        <ele>418.4</ele>
        <time>2025-09-13T14:25:36Z</time>
      </trkpt>
      <trkpt lat="47.49116" lon="6.53306">
        <ele>418</ele>
        <time>2025-09-13T14:25:37Z</time>
      </trkpt>
      <trkpt lat="47.49106" lon="6.5331">
        <ele>417.7</ele>
        <time>2025-09-13T14:25:38Z</time>
      </trkpt>
      <trkpt lat="47.49096" lon="6.53313">
        <ele>417.3</ele>
        <time>2025-09-13T14:25:39Z</time>
      </trkpt>
      <trkpt lat="47.49086" lon="6.53316">
        <ele>416.9</ele>
        <time>2025-09-13T14:25:40Z</time>
      </trkpt>
      <trkpt lat="47.49076" lon="6.53318">
        <ele>416.5</ele>
        <time>2025-09-13T14:25:41Z</time>
      </trkpt>
      <trkpt lat="47.49066" lon="6.53321">
        <ele>416.1</ele>
        <time>2025-09-13T14:25:42Z</time>
      </trkpt>
      <trkpt lat="47.49056" lon="6.53324">
        <ele>415.8</ele>
        <time>2025-09-13T14:25:43Z</time>
      </trkpt>
      <trkpt lat="47.49045" lon="6.53326">
        <ele>415.4</ele>
        <time>2025-09-13T14:25:44Z</time>
      </trkpt>
      <trkpt lat="47.49035" lon="6.53328">
        <ele>415.1</ele>
        <time>2025-09-13T14:25:45Z</time>
      </trkpt>
      <trkpt lat="47.49025" lon="6.53329">
        <ele>414.8</ele>
        <time>2025-09-13T14:25:46Z</time>
      </trkpt>
      <trkpt lat="47.49016" lon="6.53329">
        <ele>414.5</ele>
        <time>2025-09-13T14:25:47Z</time>
      </trkpt>
      <trkpt lat="47.49006" lon="6.5333">
        <ele>414.1</ele>
        <time>2025-09-13T14:25:48Z</time>
      </trkpt>
      <trkpt lat="47.48997" lon="6.5333">
        <ele>413.8</ele>
        <time>2025-09-13T14:25:49Z</time>
      </trkpt>
      <trkpt lat="47.48987" lon="6.53331">
        <ele>413.5</ele>
        <time>2025-09-13T14:25:50Z</time>
      </trkpt>
      <trkpt lat="47.48977" lon="6.53331">
        <ele>413.2</ele>
        <time>2025-09-13T14:25:51Z</time>
      </trkpt>
      <trkpt lat="47.48967" lon="6.53331">
        <ele>413</ele>
        <time>2025-09-13T14:25:52Z</time>
      </trkpt>
      <trkpt lat="47.48958" lon="6.53331">
        <ele>412.7</ele>
        <time>2025-09-13T14:25:53Z</time>
      </trkpt>
      <trkpt lat="47.48949" lon="6.53332">
        <ele>412.4</ele>
        <time>2025-09-13T14:25:54Z</time>
      </trkpt>
      <trkpt lat="47.48939" lon="6.53333">
        <ele>412</ele>
        <time>2025-09-13T14:25:55Z</time>
      </trkpt>
      <trkpt lat="47.48929" lon="6.53334">
        <ele>411.6</ele>
        <time>2025-09-13T14:25:56Z</time>
      </trkpt>
      <trkpt lat="47.48919" lon="6.53336">
        <ele>411.1</ele>
        <time>2025-09-13T14:25:57Z</time>
      </trkpt>
      <trkpt lat="47.48909" lon="6.53339">
        <ele>410.5</ele>
        <time>2025-09-13T14:25:58Z</time>
      </trkpt>
      <trkpt lat="47.48899" lon="6.53342">
        <ele>409.9</ele>
        <time>2025-09-13T14:25:59Z</time>
      </trkpt>
      <trkpt lat="47.48889" lon="6.53344">
        <ele>409.2</ele>
        <time>2025-09-13T14:26:00Z</time>
      </trkpt>
      <trkpt lat="47.48877" lon="6.53347">
        <ele>408.5</ele>
        <time>2025-09-13T14:26:01Z</time>
      </trkpt>
      <trkpt lat="47.48867" lon="6.5335">
        <ele>407.9</ele>
        <time>2025-09-13T14:26:02Z</time>
      </trkpt>
      <trkpt lat="47.48855" lon="6.53353">
        <ele>407.2</ele>
        <time>2025-09-13T14:26:03Z</time>
      </trkpt>
      <trkpt lat="47.48843" lon="6.53357">
        <ele>406.6</ele>
        <time>2025-09-13T14:26:04Z</time>
      </trkpt>
      <trkpt lat="47.48832" lon="6.5336">
        <ele>406</ele>
        <time>2025-09-13T14:26:05Z</time>
      </trkpt>
      <trkpt lat="47.4882" lon="6.53365">
        <ele>405.4</ele>
        <time>2025-09-13T14:26:06Z</time>
      </trkpt>
      <trkpt lat="47.48809" lon="6.53371">
        <ele>404.8</ele>
        <time>2025-09-13T14:26:07Z</time>
      </trkpt>
      <trkpt lat="47.48798" lon="6.53377">
        <ele>404.1</ele>
        <time>2025-09-13T14:26:08Z</time>
      </trkpt>
      <trkpt lat="47.48787" lon="6.53385">
        <ele>403.4</ele>
        <time>2025-09-13T14:26:09Z</time>
      </trkpt>
      <trkpt lat="47.48776" lon="6.53393">
        <ele>402.6</ele>
        <time>2025-09-13T14:26:10Z</time>
      </trkpt>
      <trkpt lat="47.48765" lon="6.534">
        <ele>401.9</ele>
        <time>2025-09-13T14:26:11Z</time>
      </trkpt>
      <trkpt lat="47.48754" lon="6.53408">
        <ele>401.1</ele>
        <time>2025-09-13T14:26:12Z</time>
      </trkpt>
      <trkpt lat="47.48744" lon="6.53415">
        <ele>400.4</ele>
        <time>2025-09-13T14:26:13Z</time>
      </trkpt>
      <trkpt lat="47.48733" lon="6.53423">
        <ele>399.6</ele>
        <time>2025-09-13T14:26:14Z</time>
      </trkpt>
      <trkpt lat="47.48723" lon="6.53432">
        <ele>398.8</ele>
        <time>2025-09-13T14:26:15Z</time>
      </trkpt>
      <trkpt lat="47.48712" lon="6.5344">
        <ele>398.1</ele>
        <time>2025-09-13T14:26:16Z</time>
      </trkpt>
      <trkpt lat="47.48701" lon="6.53447">
        <ele>397.3</ele>
        <time>2025-09-13T14:26:17Z</time>
      </trkpt>
      <trkpt lat="47.48689" lon="6.53455">
        <ele>396.5</ele>
        <time>2025-09-13T14:26:18Z</time>
      </trkpt>
      <trkpt lat="47.48678" lon="6.53462">
        <ele>395.7</ele>
        <time>2025-09-13T14:26:19Z</time>
      </trkpt>
      <trkpt lat="47.48667" lon="6.53469">
        <ele>394.9</ele>
        <time>2025-09-13T14:26:21Z</time>
      </trkpt>
      <trkpt lat="47.48654" lon="6.53476">
        <ele>394.1</ele>
        <time>2025-09-13T14:26:22Z</time>
      </trkpt>
      <trkpt lat="47.48643" lon="6.53483">
        <ele>393.2</ele>
        <time>2025-09-13T14:26:23Z</time>
      </trkpt>
      <trkpt lat="47.48631" lon="6.5349">
        <ele>392.4</ele>
        <time>2025-09-13T14:26:24Z</time>
      </trkpt>
      <trkpt lat="47.4862" lon="6.53498">
        <ele>391.6</ele>
        <time>2025-09-13T14:26:25Z</time>
      </trkpt>
      <trkpt lat="47.48608" lon="6.53506">
        <ele>390.7</ele>
        <time>2025-09-13T14:26:26Z</time>
      </trkpt>
      <trkpt lat="47.48596" lon="6.53513">
        <ele>389.8</ele>
        <time>2025-09-13T14:26:27Z</time>
      </trkpt>
      <trkpt lat="47.48584" lon="6.53521">
        <ele>388.9</ele>
        <time>2025-09-13T14:26:28Z</time>
      </trkpt>
      <trkpt lat="47.48573" lon="6.5353">
        <ele>388.1</ele>
        <time>2025-09-13T14:26:29Z</time>
      </trkpt>
      <trkpt lat="47.48562" lon="6.53539">
        <ele>387.4</ele>
        <time>2025-09-13T14:26:30Z</time>
      </trkpt>
      <trkpt lat="47.48551" lon="6.53549">
        <ele>386.7</ele>
        <time>2025-09-13T14:26:31Z</time>
      </trkpt>
      <trkpt lat="47.48541" lon="6.53561">
        <ele>386.1</ele>
        <time>2025-09-13T14:26:32Z</time>
      </trkpt>
      <trkpt lat="47.48531" lon="6.53573">
        <ele>385.7</ele>
        <time>2025-09-13T14:26:33Z</time>
      </trkpt>
      <trkpt lat="47.48522" lon="6.53586">
        <ele>385.3</ele>
        <time>2025-09-13T14:26:34Z</time>
      </trkpt>
      <trkpt lat="47.48514" lon="6.53598">
        <ele>385.1</ele>
        <time>2025-09-13T14:26:35Z</time>
      </trkpt>
      <trkpt lat="47.48505" lon="6.53609">
        <ele>385</ele>
        <time>2025-09-13T14:26:36Z</time>
      </trkpt>
      <trkpt lat="47.48496" lon="6.53619">
        <ele>384.9</ele>
        <time>2025-09-13T14:26:37Z</time>
      </trkpt>
      <trkpt lat="47.48487" lon="6.53629">
        <ele>384.8</ele>
        <time>2025-09-13T14:26:38Z</time>
      </trkpt>
      <trkpt lat="47.48478" lon="6.53639">
        <ele>384.7</ele>
        <time>2025-09-13T14:26:39Z</time>
      </trkpt>
      <trkpt lat="47.48469" lon="6.53648">
        <ele>384.7</ele>
        <time>2025-09-13T14:26:40Z</time>
      </trkpt>
      <trkpt lat="47.48461" lon="6.53657">
        <ele>384.7</ele>
        <time>2025-09-13T14:26:41Z</time>
      </trkpt>
      <trkpt lat="47.48452" lon="6.53667">
        <ele>384.7</ele>
        <time>2025-09-13T14:26:42Z</time>
      </trkpt>
      <trkpt lat="47.48444" lon="6.53677">
        <ele>384.7</ele>
        <time>2025-09-13T14:26:43Z</time>
      </trkpt>
      <trkpt lat="47.48437" lon="6.53686">
        <ele>384.7</ele>
        <time>2025-09-13T14:26:44Z</time>
      </trkpt>
      <trkpt lat="47.48429" lon="6.53695">
        <ele>384.7</ele>
        <time>2025-09-13T14:26:45Z</time>
      </trkpt>
      <trkpt lat="47.48422" lon="6.53704">
        <ele>384.8</ele>
        <time>2025-09-13T14:26:46Z</time>
      </trkpt>
      <trkpt lat="47.48415" lon="6.53714">
        <ele>384.8</ele>
        <time>2025-09-13T14:26:47Z</time>
      </trkpt>
      <trkpt lat="47.48409" lon="6.53724">
        <ele>384.8</ele>
        <time>2025-09-13T14:26:48Z</time>
      </trkpt>
      <trkpt lat="47.48403" lon="6.53734">
        <ele>384.9</ele>
        <time>2025-09-13T14:26:49Z</time>
      </trkpt>
      <trkpt lat="47.48398" lon="6.53743">
        <ele>384.9</ele>
        <time>2025-09-13T14:26:50Z</time>
      </trkpt>
      <trkpt lat="47.48392" lon="6.53753">
        <ele>385.1</ele>
        <time>2025-09-13T14:26:51Z</time>
      </trkpt>
      <trkpt lat="47.48387" lon="6.53763">
        <ele>385.2</ele>
        <time>2025-09-13T14:26:52Z</time>
      </trkpt>
      <trkpt lat="47.48381" lon="6.53773">
        <ele>385.5</ele>
        <time>2025-09-13T14:26:53Z</time>
      </trkpt>
      <trkpt lat="47.48376" lon="6.53783">
        <ele>385.8</ele>
        <time>2025-09-13T14:26:54Z</time>
      </trkpt>
      <trkpt lat="47.48371" lon="6.53794">
        <ele>386.2</ele>
        <time>2025-09-13T14:26:55Z</time>
      </trkpt>
      <trkpt lat="47.48367" lon="6.53804">
        <ele>386.6</ele>
        <time>2025-09-13T14:26:56Z</time>
      </trkpt>
      <trkpt lat="47.48363" lon="6.53813">
        <ele>387</ele>
        <time>2025-09-13T14:26:57Z</time>
      </trkpt>
      <trkpt lat="47.48359" lon="6.53823">
        <ele>387.3</ele>
        <time>2025-09-13T14:26:58Z</time>
      </trkpt>
      <trkpt lat="47.48355" lon="6.53829">
        <ele>387.6</ele>
        <time>2025-09-13T14:26:59Z</time>
      </trkpt>
      <trkpt lat="47.48351" lon="6.53838">
        <ele>387.8</ele>
        <time>2025-09-13T14:27:00Z</time>
      </trkpt>
      <trkpt lat="47.48348" lon="6.53846">
        <ele>388</ele>
        <time>2025-09-13T14:27:01Z</time>
      </trkpt>
      <trkpt lat="47.48345" lon="6.53855">
        <ele>388.2</ele>
        <time>2025-09-13T14:27:02Z</time>
      </trkpt>
      <trkpt lat="47.48342" lon="6.53864">
        <ele>388.3</ele>
        <time>2025-09-13T14:27:03Z</time>
      </trkpt>
      <trkpt lat="47.48338" lon="6.53872">
        <ele>388.3</ele>
        <time>2025-09-13T14:27:04Z</time>
      </trkpt>
      <trkpt lat="47.48334" lon="6.53881">
        <ele>388.3</ele>
        <time>2025-09-13T14:27:05Z</time>
      </trkpt>
      <trkpt lat="47.4833" lon="6.5389">
        <ele>388.3</ele>
        <time>2025-09-13T14:27:06Z</time>
      </trkpt>
      <trkpt lat="47.48325" lon="6.53898">
        <ele>388.3</ele>
        <time>2025-09-13T14:27:07Z</time>
      </trkpt>
      <trkpt lat="47.48321" lon="6.53905">
        <ele>388.2</ele>
        <time>2025-09-13T14:27:08Z</time>
      </trkpt>
      <trkpt lat="47.48316" lon="6.53914">
        <ele>388.2</ele>
        <time>2025-09-13T14:27:09Z</time>
      </trkpt>
      <trkpt lat="47.48311" lon="6.53922">
        <ele>388</ele>
        <time>2025-09-13T14:27:10Z</time>
      </trkpt>
      <trkpt lat="47.48306" lon="6.53931">
        <ele>387.8</ele>
        <time>2025-09-13T14:27:11Z</time>
      </trkpt>
      <trkpt lat="47.48301" lon="6.5394">
        <ele>387.6</ele>
        <time>2025-09-13T14:27:12Z</time>
      </trkpt>
      <trkpt lat="47.48296" lon="6.53949">
        <ele>387.4</ele>
        <time>2025-09-13T14:27:13Z</time>
      </trkpt>
      <trkpt lat="47.48291" lon="6.53958">
        <ele>387.2</ele>
        <time>2025-09-13T14:27:14Z</time>
      </trkpt>
      <trkpt lat="47.48285" lon="6.53967">
        <ele>387</ele>
        <time>2025-09-13T14:27:15Z</time>
      </trkpt>
      <trkpt lat="47.4828" lon="6.53974">
        <ele>386.8</ele>
        <time>2025-09-13T14:27:16Z</time>
      </trkpt>
      <trkpt lat="47.48274" lon="6.53984">
        <ele>386.5</ele>
        <time>2025-09-13T14:27:17Z</time>
      </trkpt>
      <trkpt lat="47.48268" lon="6.53992">
        <ele>386.2</ele>
        <time>2025-09-13T14:27:18Z</time>
      </trkpt>
      <trkpt lat="47.48263" lon="6.54001">
        <ele>385.9</ele>
        <time>2025-09-13T14:27:19Z</time>
      </trkpt>
      <trkpt lat="47.48257" lon="6.5401">
        <ele>385.6</ele>
        <time>2025-09-13T14:27:20Z</time>
      </trkpt>
      <trkpt lat="47.48252" lon="6.54019">
        <ele>385.2</ele>
        <time>2025-09-13T14:27:21Z</time>
      </trkpt>
      <trkpt lat="47.48246" lon="6.54029">
        <ele>384.9</ele>
        <time>2025-09-13T14:27:22Z</time>
      </trkpt>
      <trkpt lat="47.48241" lon="6.54038">
        <ele>384.5</ele>
        <time>2025-09-13T14:27:23Z</time>
      </trkpt>
      <trkpt lat="47.48235" lon="6.54048">
        <ele>384.1</ele>
        <time>2025-09-13T14:27:24Z</time>
      </trkpt>
      <trkpt lat="47.48229" lon="6.54058">
        <ele>383.7</ele>
        <time>2025-09-13T14:27:25Z</time>
      </trkpt>
      <trkpt lat="47.48223" lon="6.54068">
        <ele>383.2</ele>
        <time>2025-09-13T14:27:26Z</time>
      </trkpt>
      <trkpt lat="47.48218" lon="6.54077">
        <ele>382.8</ele>
        <time>2025-09-13T14:27:27Z</time>
      </trkpt>
      <trkpt lat="47.48212" lon="6.54087">
        <ele>382.3</ele>
        <time>2025-09-13T14:27:28Z</time>
      </trkpt>
      <trkpt lat="47.48206" lon="6.54096">
        <ele>381.9</ele>
        <time>2025-09-13T14:27:29Z</time>
      </trkpt>
      <trkpt lat="47.482" lon="6.54107">
        <ele>381.3</ele>
        <time>2025-09-13T14:27:30Z</time>
      </trkpt>
      <trkpt lat="47.48194" lon="6.54116">
        <ele>380.9</ele>
        <time>2025-09-13T14:27:31Z</time>
      </trkpt>
      <trkpt lat="47.48188" lon="6.54128">
        <ele>380.4</ele>
        <time>2025-09-13T14:27:32Z</time>
      </trkpt>
      <trkpt lat="47.48183" lon="6.5414">
        <ele>379.9</ele>
        <time>2025-09-13T14:27:33Z</time>
      </trkpt>
      <trkpt lat="47.48178" lon="6.54153">
        <ele>379.4</ele>
        <time>2025-09-13T14:27:34Z</time>
      </trkpt>
      <trkpt lat="47.48176" lon="6.54167">
        <ele>378.9</ele>
        <time>2025-09-13T14:27:35Z</time>
      </trkpt>
      <trkpt lat="47.48174" lon="6.54181">
        <ele>378.5</ele>
        <time>2025-09-13T14:27:36Z</time>
      </trkpt>
      <trkpt lat="47.48172" lon="6.54195">
        <ele>377.9</ele>
        <time>2025-09-13T14:27:37Z</time>
      </trkpt>
      <trkpt lat="47.48171" lon="6.54209">
        <ele>377.4</ele>
        <time>2025-09-13T14:27:38Z</time>
      </trkpt>
      <trkpt lat="47.48168" lon="6.54223">
        <ele>376.9</ele>
        <time>2025-09-13T14:27:39Z</time>
      </trkpt>
      <trkpt lat="47.48165" lon="6.54238">
        <ele>376.3</ele>
        <time>2025-09-13T14:27:40Z</time>
      </trkpt>
      <trkpt lat="47.48161" lon="6.54253">
        <ele>375.8</ele>
        <time>2025-09-13T14:27:41Z</time>
      </trkpt>
      <trkpt lat="47.48157" lon="6.54267">
        <ele>375.2</ele>
        <time>2025-09-13T14:27:42Z</time>
      </trkpt>
      <trkpt lat="47.48151" lon="6.5428">
        <ele>374.7</ele>
        <time>2025-09-13T14:27:43Z</time>
      </trkpt>
      <trkpt lat="47.48144" lon="6.54293">
        <ele>374.1</ele>
        <time>2025-09-13T14:27:44Z</time>
      </trkpt>
      <trkpt lat="47.48137" lon="6.54305">
        <ele>373.5</ele>
        <time>2025-09-13T14:27:45Z</time>
      </trkpt>
      <trkpt lat="47.4813" lon="6.54316">
        <ele>373</ele>
        <time>2025-09-13T14:27:46Z</time>
      </trkpt>
      <trkpt lat="47.48124" lon="6.54327">
        <ele>372.5</ele>
        <time>2025-09-13T14:27:47Z</time>
      </trkpt>
      <trkpt lat="47.48117" lon="6.54341">
        <ele>371.9</ele>
        <time>2025-09-13T14:27:48Z</time>
      </trkpt>
      <trkpt lat="47.48112" lon="6.54354">
        <ele>371.4</ele>
        <time>2025-09-13T14:27:49Z</time>
      </trkpt>
      <trkpt lat="47.48108" lon="6.54367">
        <ele>370.9</ele>
        <time>2025-09-13T14:27:50Z</time>
      </trkpt>
      <trkpt lat="47.48103" lon="6.54381">
        <ele>370.4</ele>
        <time>2025-09-13T14:27:51Z</time>
      </trkpt>
      <trkpt lat="47.48099" lon="6.54395">
        <ele>369.9</ele>
        <time>2025-09-13T14:27:52Z</time>
      </trkpt>
      <trkpt lat="47.48094" lon="6.54412">
        <ele>369.2</ele>
        <time>2025-09-13T14:27:53Z</time>
      </trkpt>
      <trkpt lat="47.48091" lon="6.54428">
        <ele>368.6</ele>
        <time>2025-09-13T14:27:54Z</time>
      </trkpt>
      <trkpt lat="47.48088" lon="6.54443">
        <ele>368</ele>
        <time>2025-09-13T14:27:55Z</time>
      </trkpt>
      <trkpt lat="47.48089" lon="6.54459">
        <ele>367.4</ele>
        <time>2025-09-13T14:27:56Z</time>
      </trkpt>
      <trkpt lat="47.48093" lon="6.54476">
        <ele>366.9</ele>
        <time>2025-09-13T14:27:57Z</time>
      </trkpt>
      <trkpt lat="47.48099" lon="6.54491">
        <ele>366.3</ele>
        <time>2025-09-13T14:27:58Z</time>
      </trkpt>
      <trkpt lat="47.48106" lon="6.54505">
        <ele>365.8</ele>
        <time>2025-09-13T14:27:59Z</time>
      </trkpt>
      <trkpt lat="47.48113" lon="6.54519">
        <ele>365.3</ele>
        <time>2025-09-13T14:28:00Z</time>
      </trkpt>
      <trkpt lat="47.48118" lon="6.54534">
        <ele>364.7</ele>
        <time>2025-09-13T14:28:01Z</time>
      </trkpt>
      <trkpt lat="47.48117" lon="6.54551">
        <ele>364.2</ele>
        <time>2025-09-13T14:28:02Z</time>
      </trkpt>
      <trkpt lat="47.48114" lon="6.54569">
        <ele>363.6</ele>
        <time>2025-09-13T14:28:03Z</time>
      </trkpt>
      <trkpt lat="47.48108" lon="6.54584">
        <ele>362.9</ele>
        <time>2025-09-13T14:28:04Z</time>
      </trkpt>
      <trkpt lat="47.48101" lon="6.54598">
        <ele>362.3</ele>
        <time>2025-09-13T14:28:05Z</time>
      </trkpt>
      <trkpt lat="47.48094" lon="6.54611">
        <ele>361.7</ele>
        <time>2025-09-13T14:28:06Z</time>
      </trkpt>
      <trkpt lat="47.48088" lon="6.54625">
        <ele>361</ele>
        <time>2025-09-13T14:28:07Z</time>
      </trkpt>
      <trkpt lat="47.48083" lon="6.54641">
        <ele>360.4</ele>
        <time>2025-09-13T14:28:08Z</time>
      </trkpt>
      <trkpt lat="47.48081" lon="6.54658">
        <ele>359.7</ele>
        <time>2025-09-13T14:28:09Z</time>
      </trkpt>
      <trkpt lat="47.48083" lon="6.54677">
        <ele>359</ele>
        <time>2025-09-13T14:28:10Z</time>
      </trkpt>
      <trkpt lat="47.48089" lon="6.54693">
        <ele>358.4</ele>
        <time>2025-09-13T14:28:11Z</time>
      </trkpt>
      <trkpt lat="47.48096" lon="6.54708">
        <ele>357.8</ele>
        <time>2025-09-13T14:28:12Z</time>
      </trkpt>
      <trkpt lat="47.48104" lon="6.54721">
        <ele>357.2</ele>
        <time>2025-09-13T14:28:13Z</time>
      </trkpt>
      <trkpt lat="47.48113" lon="6.54734">
        <ele>356.6</ele>
        <time>2025-09-13T14:28:14Z</time>
      </trkpt>
      <trkpt lat="47.48118" lon="6.5475">
        <ele>356.1</ele>
        <time>2025-09-13T14:28:15Z</time>
      </trkpt>
      <trkpt lat="47.48121" lon="6.54769">
        <ele>355.5</ele>
        <time>2025-09-13T14:28:16Z</time>
      </trkpt>
      <trkpt lat="47.48121" lon="6.54789">
        <ele>354.9</ele>
        <time>2025-09-13T14:28:17Z</time>
      </trkpt>
      <trkpt lat="47.4812" lon="6.54808">
        <ele>354.3</ele>
        <time>2025-09-13T14:28:18Z</time>
      </trkpt>
      <trkpt lat="47.48119" lon="6.54827">
        <ele>353.8</ele>
        <time>2025-09-13T14:28:19Z</time>
      </trkpt>
      <trkpt lat="47.48118" lon="6.54845">
        <ele>353.2</ele>
        <time>2025-09-13T14:28:20Z</time>
      </trkpt>
      <trkpt lat="47.48116" lon="6.54863">
        <ele>352.8</ele>
        <time>2025-09-13T14:28:21Z</time>
      </trkpt>
      <trkpt lat="47.48114" lon="6.54881">
        <ele>352.3</ele>
        <time>2025-09-13T14:28:22Z</time>
      </trkpt>
      <trkpt lat="47.48112" lon="6.54899">
        <ele>351.8</ele>
        <time>2025-09-13T14:28:23Z</time>
      </trkpt>
      <trkpt lat="47.4811" lon="6.54916">
        <ele>351.4</ele>
        <time>2025-09-13T14:28:24Z</time>
      </trkpt>
      <trkpt lat="47.48106" lon="6.54934">
        <ele>350.8</ele>
        <time>2025-09-13T14:28:25Z</time>
      </trkpt>
      <trkpt lat="47.48099" lon="6.54949">
        <ele>350.3</ele>
        <time>2025-09-13T14:28:26Z</time>
      </trkpt>
      <trkpt lat="47.48091" lon="6.54963">
        <ele>349.7</ele>
        <time>2025-09-13T14:28:27Z</time>
      </trkpt>
      <trkpt lat="47.48081" lon="6.54975">
        <ele>349.1</ele>
        <time>2025-09-13T14:28:28Z</time>
      </trkpt>
      <trkpt lat="47.48069" lon="6.54982">
        <ele>348.5</ele>
        <time>2025-09-13T14:28:29Z</time>
      </trkpt>
      <trkpt lat="47.48058" lon="6.54988">
        <ele>347.9</ele>
        <time>2025-09-13T14:28:30Z</time>
      </trkpt>
      <trkpt lat="47.48046" lon="6.54989">
        <ele>347.4</ele>
        <time>2025-09-13T14:28:31Z</time>
      </trkpt>
      <trkpt lat="47.48032" lon="6.54991">
        <ele>346.8</ele>
        <time>2025-09-13T14:28:32Z</time>
      </trkpt>
      <trkpt lat="47.48022" lon="6.54998">
        <ele>346.2</ele>
        <time>2025-09-13T14:28:33Z</time>
      </trkpt>
      <trkpt lat="47.48012" lon="6.55009">
        <ele>345.7</ele>
        <time>2025-09-13T14:28:34Z</time>
      </trkpt>
      <trkpt lat="47.48005" lon="6.55022">
        <ele>345.2</ele>
        <time>2025-09-13T14:28:35Z</time>
      </trkpt>
      <trkpt lat="47.47999" lon="6.55037">
        <ele>344.8</ele>
        <time>2025-09-13T14:28:36Z</time>
      </trkpt>
      <trkpt lat="47.47995" lon="6.55053">
        <ele>344.3</ele>
        <time>2025-09-13T14:28:37Z</time>
      </trkpt>
      <trkpt lat="47.47992" lon="6.55069">
        <ele>343.9</ele>
        <time>2025-09-13T14:28:38Z</time>
      </trkpt>
      <trkpt lat="47.47991" lon="6.55087">
        <ele>343.4</ele>
        <time>2025-09-13T14:28:39Z</time>
      </trkpt>
      <trkpt lat="47.47992" lon="6.55104">
        <ele>342.9</ele>
        <time>2025-09-13T14:28:40Z</time>
      </trkpt>
      <trkpt lat="47.47991" lon="6.55121">
        <ele>342.4</ele>
        <time>2025-09-13T14:28:41Z</time>
      </trkpt>
      <trkpt lat="47.47988" lon="6.55137">
        <ele>341.8</ele>
        <time>2025-09-13T14:28:42Z</time>
      </trkpt>
      <trkpt lat="47.47981" lon="6.55152">
        <ele>341.3</ele>
        <time>2025-09-13T14:28:43Z</time>
      </trkpt>
      <trkpt lat="47.47973" lon="6.55165">
        <ele>340.7</ele>
        <time>2025-09-13T14:28:44Z</time>
      </trkpt>
      <trkpt lat="47.47961" lon="6.55174">
        <ele>340.1</ele>
        <time>2025-09-13T14:28:45Z</time>
      </trkpt>
      <trkpt lat="47.4795" lon="6.55179">
        <ele>339.6</ele>
        <time>2025-09-13T14:28:46Z</time>
      </trkpt>
      <trkpt lat="47.47939" lon="6.55182">
        <ele>339</ele>
        <time>2025-09-13T14:28:47Z</time>
      </trkpt>
      <trkpt lat="47.47926" lon="6.55182">
        <ele>338.4</ele>
        <time>2025-09-13T14:28:48Z</time>
      </trkpt>
      <trkpt lat="47.47915" lon="6.55184">
        <ele>337.8</ele>
        <time>2025-09-13T14:28:49Z</time>
      </trkpt>
      <trkpt lat="47.47904" lon="6.55187">
        <ele>337.2</ele>
        <time>2025-09-13T14:28:50Z</time>
      </trkpt>
      <trkpt lat="47.47892" lon="6.55191">
        <ele>336.7</ele>
        <time>2025-09-13T14:28:51Z</time>
      </trkpt>
      <trkpt lat="47.47881" lon="6.55197">
        <ele>336.2</ele>
        <time>2025-09-13T14:28:52Z</time>
      </trkpt>
      <trkpt lat="47.47873" lon="6.55207">
        <ele>335.7</ele>
        <time>2025-09-13T14:28:53Z</time>
      </trkpt>
      <trkpt lat="47.47866" lon="6.55221">
        <ele>335.2</ele>
        <time>2025-09-13T14:28:54Z</time>
      </trkpt>
      <trkpt lat="47.47862" lon="6.55238">
        <ele>334.7</ele>
        <time>2025-09-13T14:28:55Z</time>
      </trkpt>
      <trkpt lat="47.47861" lon="6.55255">
        <ele>334.3</ele>
        <time>2025-09-13T14:28:56Z</time>
      </trkpt>
      <trkpt lat="47.47862" lon="6.55273">
        <ele>333.8</ele>
        <time>2025-09-13T14:28:57Z</time>
      </trkpt>
      <trkpt lat="47.47861" lon="6.55289">
        <ele>333.3</ele>
        <time>2025-09-13T14:28:58Z</time>
      </trkpt>
      <trkpt lat="47.47857" lon="6.55304">
        <ele>332.8</ele>
        <time>2025-09-13T14:28:59Z</time>
      </trkpt>
      <trkpt lat="47.4785" lon="6.55317">
        <ele>332.3</ele>
        <time>2025-09-13T14:29:00Z</time>
      </trkpt>
      <trkpt lat="47.47841" lon="6.55328">
        <ele>331.8</ele>
        <time>2025-09-13T14:29:01Z</time>
      </trkpt>
      <trkpt lat="47.47831" lon="6.55337">
        <ele>331.3</ele>
        <time>2025-09-13T14:29:02Z</time>
      </trkpt>
      <trkpt lat="47.4782" lon="6.55343">
        <ele>330.7</ele>
        <time>2025-09-13T14:29:03Z</time>
      </trkpt>
      <trkpt lat="47.47809" lon="6.55348">
        <ele>330.2</ele>
        <time>2025-09-13T14:29:04Z</time>
      </trkpt>
      <trkpt lat="47.47798" lon="6.55351">
        <ele>329.7</ele>
        <time>2025-09-13T14:29:05Z</time>
      </trkpt>
      <trkpt lat="47.47787" lon="6.55354">
        <ele>329.2</ele>
        <time>2025-09-13T14:29:06Z</time>
      </trkpt>
      <trkpt lat="47.47777" lon="6.55359">
        <ele>328.8</ele>
        <time>2025-09-13T14:29:07Z</time>
      </trkpt>
      <trkpt lat="47.47766" lon="6.55363">
        <ele>328.4</ele>
        <time>2025-09-13T14:29:08Z</time>
      </trkpt>
      <trkpt lat="47.47755" lon="6.55367">
        <ele>328.1</ele>
        <time>2025-09-13T14:29:09Z</time>
      </trkpt>
      <trkpt lat="47.47745" lon="6.55372">
        <ele>328</ele>
        <time>2025-09-13T14:29:10Z</time>
      </trkpt>
      <trkpt lat="47.47734" lon="6.55377">
        <ele>328.2</ele>
        <time>2025-09-13T14:29:11Z</time>
      </trkpt>
      <trkpt lat="47.47724" lon="6.55382">
        <ele>328.2</ele>
        <time>2025-09-13T14:29:12Z</time>
      </trkpt>
      <trkpt lat="47.47713" lon="6.55387">
        <ele>328.2</ele>
        <time>2025-09-13T14:29:13Z</time>
      </trkpt>
      <trkpt lat="47.47702" lon="6.55391">
        <ele>328.1</ele>
        <time>2025-09-13T14:29:14Z</time>
      </trkpt>
      <trkpt lat="47.47692" lon="6.55395">
        <ele>328.1</ele>
        <time>2025-09-13T14:29:15Z</time>
      </trkpt>
      <trkpt lat="47.47682" lon="6.55401">
        <ele>328</ele>
        <time>2025-09-13T14:29:16Z</time>
      </trkpt>
      <trkpt lat="47.47672" lon="6.55407">
        <ele>327.9</ele>
        <time>2025-09-13T14:29:17Z</time>
      </trkpt>
      <trkpt lat="47.47663" lon="6.55414">
        <ele>327.8</ele>
        <time>2025-09-13T14:29:18Z</time>
      </trkpt>
      <trkpt lat="47.47655" lon="6.55423">
        <ele>327.6</ele>
        <time>2025-09-13T14:29:19Z</time>
      </trkpt>
      <trkpt lat="47.47649" lon="6.55433">
        <ele>327.5</ele>
        <time>2025-09-13T14:29:20Z</time>
      </trkpt>
      <trkpt lat="47.47641" lon="6.55442">
        <ele>327.4</ele>
        <time>2025-09-13T14:29:21Z</time>
      </trkpt>
      <trkpt lat="47.47633" lon="6.5545">
        <ele>327.3</ele>
        <time>2025-09-13T14:29:22Z</time>
      </trkpt>
      <trkpt lat="47.47628" lon="6.55459">
        <ele>327.3</ele>
        <time>2025-09-13T14:29:23Z</time>
      </trkpt>
      <trkpt lat="47.47619" lon="6.55469">
        <ele>327.2</ele>
        <time>2025-09-13T14:29:24Z</time>
      </trkpt>
      <trkpt lat="47.47612" lon="6.55476">
        <ele>327.1</ele>
        <time>2025-09-13T14:29:25Z</time>
      </trkpt>
      <trkpt lat="47.47603" lon="6.55481">
        <ele>326.9</ele>
        <time>2025-09-13T14:29:26Z</time>
      </trkpt>
      <trkpt lat="47.47591" lon="6.55481">
        <ele>326.7</ele>
        <time>2025-09-13T14:29:27Z</time>
      </trkpt>
      <trkpt lat="47.47581" lon="6.55479">
        <ele>326.4</ele>
        <time>2025-09-13T14:29:28Z</time>
      </trkpt>
      <trkpt lat="47.47571" lon="6.55474">
        <ele>326.2</ele>
        <time>2025-09-13T14:29:29Z</time>
      </trkpt>
      <trkpt lat="47.47558" lon="6.55474">
        <ele>325.9</ele>
        <time>2025-09-13T14:29:30Z</time>
      </trkpt>
      <trkpt lat="47.47547" lon="6.55475">
        <ele>325.6</ele>
        <time>2025-09-13T14:29:31Z</time>
      </trkpt>
      <trkpt lat="47.47537" lon="6.55477">
        <ele>325.4</ele>
        <time>2025-09-13T14:29:32Z</time>
      </trkpt>
      <trkpt lat="47.47526" lon="6.55479">
        <ele>325.1</ele>
        <time>2025-09-13T14:29:33Z</time>
      </trkpt>
      <trkpt lat="47.47515" lon="6.55481">
        <ele>324.9</ele>
        <time>2025-09-13T14:29:34Z</time>
      </trkpt>
      <trkpt lat="47.47504" lon="6.55485">
        <ele>324.6</ele>
        <time>2025-09-13T14:29:35Z</time>
      </trkpt>
      <trkpt lat="47.47494" lon="6.55489">
        <ele>324.4</ele>
        <time>2025-09-13T14:29:36Z</time>
      </trkpt>
      <trkpt lat="47.47485" lon="6.55497">
        <ele>324.2</ele>
        <time>2025-09-13T14:29:37Z</time>
      </trkpt>
      <trkpt lat="47.47477" lon="6.55506">
        <ele>324</ele>
        <time>2025-09-13T14:29:38Z</time>
      </trkpt>
      <trkpt lat="47.4747" lon="6.55517">
        <ele>323.9</ele>
        <time>2025-09-13T14:29:39Z</time>
      </trkpt>
      <trkpt lat="47.47463" lon="6.55528">
        <ele>323.8</ele>
        <time>2025-09-13T14:29:40Z</time>
      </trkpt>
      <trkpt lat="47.47457" lon="6.55539">
        <ele>323.7</ele>
        <time>2025-09-13T14:29:41Z</time>
      </trkpt>
      <trkpt lat="47.47451" lon="6.55549">
        <ele>323.5</ele>
        <time>2025-09-13T14:29:42Z</time>
      </trkpt>
      <trkpt lat="47.47443" lon="6.55559">
        <ele>323.3</ele>
        <time>2025-09-13T14:29:43Z</time>
      </trkpt>
      <trkpt lat="47.47436" lon="6.55569">
        <ele>323.1</ele>
        <time>2025-09-13T14:29:44Z</time>
      </trkpt>
      <trkpt lat="47.47428" lon="6.55579">
        <ele>322.8</ele>
        <time>2025-09-13T14:29:45Z</time>
      </trkpt>
      <trkpt lat="47.47419" lon="6.55588">
        <ele>322.6</ele>
        <time>2025-09-13T14:29:46Z</time>
      </trkpt>
      <trkpt lat="47.47412" lon="6.55597">
        <ele>322.4</ele>
        <time>2025-09-13T14:29:47Z</time>
      </trkpt>
      <trkpt lat="47.47404" lon="6.55606">
        <ele>322.2</ele>
        <time>2025-09-13T14:29:48Z</time>
      </trkpt>
      <trkpt lat="47.47396" lon="6.55614">
        <ele>322</ele>
        <time>2025-09-13T14:29:49Z</time>
      </trkpt>
      <trkpt lat="47.47387" lon="6.55621">
        <ele>321.8</ele>
        <time>2025-09-13T14:29:50Z</time>
      </trkpt>
      <trkpt lat="47.47378" lon="6.55627">
        <ele>321.6</ele>
        <time>2025-09-13T14:29:51Z</time>
      </trkpt>
      <trkpt lat="47.47369" lon="6.55632">
        <ele>321.4</ele>
        <time>2025-09-13T14:29:52Z</time>
      </trkpt>
      <trkpt lat="47.4736" lon="6.55637">
        <ele>321.3</ele>
        <time>2025-09-13T14:29:53Z</time>
      </trkpt>
      <trkpt lat="47.47351" lon="6.55641">
        <ele>321.1</ele>
        <time>2025-09-13T14:29:54Z</time>
      </trkpt>
      <trkpt lat="47.47342" lon="6.55646">
        <ele>321</ele>
        <time>2025-09-13T14:29:55Z</time>
      </trkpt>
      <trkpt lat="47.47333" lon="6.55652">
        <ele>320.8</ele>
        <time>2025-09-13T14:29:56Z</time>
      </trkpt>
      <trkpt lat="47.47325" lon="6.5566">
        <ele>320.7</ele>
        <time>2025-09-13T14:29:57Z</time>
      </trkpt>
      <trkpt lat="47.47316" lon="6.55667">
        <ele>320.6</ele>
        <time>2025-09-13T14:29:58Z</time>
      </trkpt>
      <trkpt lat="47.47308" lon="6.55675">
        <ele>320.4</ele>
        <time>2025-09-13T14:29:59Z</time>
      </trkpt>
      <trkpt lat="47.47301" lon="6.55683">
        <ele>320.3</ele>
        <time>2025-09-13T14:30:00Z</time>
      </trkpt>
      <trkpt lat="47.47292" lon="6.55691">
        <ele>320.1</ele>
        <time>2025-09-13T14:30:01Z</time>
      </trkpt>
      <trkpt lat="47.47284" lon="6.55699">
        <ele>320</ele>
        <time>2025-09-13T14:30:02Z</time>
      </trkpt>
      <trkpt lat="47.47276" lon="6.55706">
        <ele>319.9</ele>
        <time>2025-09-13T14:30:03Z</time>
      </trkpt>
      <trkpt lat="47.47268" lon="6.55713">
        <ele>319.7</ele>
        <time>2025-09-13T14:30:04Z</time>
      </trkpt>
      <trkpt lat="47.4726" lon="6.5572">
        <ele>319.5</ele>
        <time>2025-09-13T14:30:05Z</time>
      </trkpt>
      <trkpt lat="47.47252" lon="6.55727">
        <ele>319.3</ele>
        <time>2025-09-13T14:30:06Z</time>
      </trkpt>
      <trkpt lat="47.47244" lon="6.55736">
        <ele>319.1</ele>
        <time>2025-09-13T14:30:07Z</time>
      </trkpt>
      <trkpt lat="47.47236" lon="6.55743">
        <ele>319</ele>
        <time>2025-09-13T14:30:08Z</time>
      </trkpt>
      <trkpt lat="47.47228" lon="6.55751">
        <ele>318.8</ele>
        <time>2025-09-13T14:30:09Z</time>
      </trkpt>
      <trkpt lat="47.47219" lon="6.55756">
        <ele>318.7</ele>
        <time>2025-09-13T14:30:10Z</time>
      </trkpt>
      <trkpt lat="47.47212" lon="6.55763">
        <ele>318.5</ele>
        <time>2025-09-13T14:30:11Z</time>
      </trkpt>
      <trkpt lat="47.47206" lon="6.55769">
        <ele>318.4</ele>
        <time>2025-09-13T14:30:12Z</time>
      </trkpt>
      <trkpt lat="47.47198" lon="6.55778">
        <ele>318.2</ele>
        <time>2025-09-13T14:30:13Z</time>
      </trkpt>
      <trkpt lat="47.47191" lon="6.55788">
        <ele>318</ele>
        <time>2025-09-13T14:30:14Z</time>
      </trkpt>
      <trkpt lat="47.47182" lon="6.55795">
        <ele>317.7</ele>
        <time>2025-09-13T14:30:15Z</time>
      </trkpt>
      <trkpt lat="47.47175" lon="6.55805">
        <ele>317.5</ele>
        <time>2025-09-13T14:30:16Z</time>
      </trkpt>
      <trkpt lat="47.47169" lon="6.55814">
        <ele>317.3</ele>
        <time>2025-09-13T14:30:17Z</time>
      </trkpt>
      <trkpt lat="47.47164" lon="6.55825">
        <ele>317.1</ele>
        <time>2025-09-13T14:30:18Z</time>
      </trkpt>
      <trkpt lat="47.47158" lon="6.55836">
        <ele>316.9</ele>
        <time>2025-09-13T14:30:19Z</time>
      </trkpt>
      <trkpt lat="47.47153" lon="6.55848">
        <ele>316.7</ele>
        <time>2025-09-13T14:30:20Z</time>
      </trkpt>
      <trkpt lat="47.47148" lon="6.55859">
        <ele>316.4</ele>
        <time>2025-09-13T14:30:21Z</time>
      </trkpt>
      <trkpt lat="47.47144" lon="6.55871">
        <ele>316.2</ele>
        <time>2025-09-13T14:30:22Z</time>
      </trkpt>
      <trkpt lat="47.47139" lon="6.55885">
        <ele>316</ele>
        <time>2025-09-13T14:30:23Z</time>
      </trkpt>
      <trkpt lat="47.47135" lon="6.55897">
        <ele>315.8</ele>
        <time>2025-09-13T14:30:24Z</time>
      </trkpt>
      <trkpt lat="47.47128" lon="6.55908">
        <ele>315.6</ele>
        <time>2025-09-13T14:30:25Z</time>
      </trkpt>
      <trkpt lat="47.47124" lon="6.5592">
        <ele>315.4</ele>
        <time>2025-09-13T14:30:26Z</time>
      </trkpt>
      <trkpt lat="47.47118" lon="6.5593">
        <ele>315.2</ele>
        <time>2025-09-13T14:30:27Z</time>
      </trkpt>
      <trkpt lat="47.47112" lon="6.55942">
        <ele>315</ele>
        <time>2025-09-13T14:30:28Z</time>
      </trkpt>
      <trkpt lat="47.47105" lon="6.55951">
        <ele>314.7</ele>
        <time>2025-09-13T14:30:29Z</time>
      </trkpt>
      <trkpt lat="47.47097" lon="6.55959">
        <ele>314.4</ele>
        <time>2025-09-13T14:30:30Z</time>
      </trkpt>
      <trkpt lat="47.47082" lon="6.5595">
        <ele>313.9</ele>
        <time>2025-09-13T14:30:31Z</time>
      </trkpt>
      <trkpt lat="47.47076" lon="6.55951">
        <ele>313.6</ele>
        <time>2025-09-13T14:30:32Z</time>
      </trkpt>
      <trkpt lat="47.47068" lon="6.55952">
        <ele>313.4</ele>
        <time>2025-09-13T14:30:33Z</time>
      </trkpt>
      <trkpt lat="47.47057" lon="6.55956">
        <ele>313.1</ele>
        <time>2025-09-13T14:30:34Z</time>
      </trkpt>
      <trkpt lat="47.47048" lon="6.55955">
        <ele>312.9</ele>
        <time>2025-09-13T14:30:35Z</time>
      </trkpt>
      <trkpt lat="47.47037" lon="6.55956">
        <ele>312.7</ele>
        <time>2025-09-13T14:30:36Z</time>
      </trkpt>
      <trkpt lat="47.47027" lon="6.55959">
        <ele>312.5</ele>
        <time>2025-09-13T14:30:37Z</time>
      </trkpt>
      <trkpt lat="47.47019" lon="6.55962">
        <ele>312.3</ele>
        <time>2025-09-13T14:30:38Z</time>
      </trkpt>
      <trkpt lat="47.4701" lon="6.55964">
        <ele>312.1</ele>
        <time>2025-09-13T14:30:39Z</time>
      </trkpt>
      <trkpt lat="47.46999" lon="6.55965">
        <ele>311.9</ele>
        <time>2025-09-13T14:30:40Z</time>
      </trkpt>
      <trkpt lat="47.46989" lon="6.55967">
        <ele>311.6</ele>
        <time>2025-09-13T14:30:41Z</time>
      </trkpt>
      <trkpt lat="47.4698" lon="6.55969">
        <ele>311.4</ele>
        <time>2025-09-13T14:30:42Z</time>
      </trkpt>
      <trkpt lat="47.46965" lon="6.55973">
        <ele>311</ele>
        <time>2025-09-13T14:30:43Z</time>
      </trkpt>
      <trkpt lat="47.46958" lon="6.55978">
        <ele>310.8</ele>
        <time>2025-09-13T14:30:44Z</time>
      </trkpt>
      <trkpt lat="47.46948" lon="6.55985">
        <ele>310.5</ele>
        <time>2025-09-13T14:30:45Z</time>
      </trkpt>
      <trkpt lat="47.46939" lon="6.55993">
        <ele>310.2</ele>
        <time>2025-09-13T14:30:46Z</time>
      </trkpt>
      <trkpt lat="47.4693" lon="6.56">
        <ele>310</ele>
        <time>2025-09-13T14:30:47Z</time>
      </trkpt>
      <trkpt lat="47.46924" lon="6.56009">
        <ele>309.7</ele>
        <time>2025-09-13T14:30:48Z</time>
      </trkpt>
      <trkpt lat="47.46915" lon="6.56017">
        <ele>309.5</ele>
        <time>2025-09-13T14:30:49Z</time>
      </trkpt>
      <trkpt lat="47.46907" lon="6.56023">
        <ele>309.3</ele>
        <time>2025-09-13T14:30:50Z</time>
      </trkpt>
      <trkpt lat="47.46899" lon="6.56031">
        <ele>309.1</ele>
        <time>2025-09-13T14:30:51Z</time>
      </trkpt>
      <trkpt lat="47.4689" lon="6.56039">
        <ele>308.9</ele>
        <time>2025-09-13T14:30:52Z</time>
      </trkpt>
      <trkpt lat="47.46883" lon="6.56047">
        <ele>308.8</ele>
        <time>2025-09-13T14:30:53Z</time>
      </trkpt>
      <trkpt lat="47.46876" lon="6.56055">
        <ele>308.6</ele>
        <time>2025-09-13T14:30:54Z</time>
      </trkpt>
      <trkpt lat="47.46868" lon="6.56063">
        <ele>308.5</ele>
        <time>2025-09-13T14:30:55Z</time>
      </trkpt>
      <trkpt lat="47.46859" lon="6.56072">
        <ele>308.3</ele>
        <time>2025-09-13T14:30:56Z</time>
      </trkpt>
      <trkpt lat="47.4685" lon="6.5608">
        <ele>308</ele>
        <time>2025-09-13T14:30:57Z</time>
      </trkpt>
      <trkpt lat="47.4684" lon="6.56087">
        <ele>307.8</ele>
        <time>2025-09-13T14:30:58Z</time>
      </trkpt>
      <trkpt lat="47.46834" lon="6.56093">
        <ele>307.6</ele>
        <time>2025-09-13T14:30:59Z</time>
      </trkpt>
      <trkpt lat="47.46825" lon="6.56101">
        <ele>307.5</ele>
        <time>2025-09-13T14:31:00Z</time>
      </trkpt>
      <trkpt lat="47.46816" lon="6.56109">
        <ele>307.3</ele>
        <time>2025-09-13T14:31:01Z</time>
      </trkpt>
      <trkpt lat="47.46809" lon="6.56116">
        <ele>307.2</ele>
        <time>2025-09-13T14:31:02Z</time>
      </trkpt>
      <trkpt lat="47.468" lon="6.56121">
        <ele>307</ele>
        <time>2025-09-13T14:31:03Z</time>
      </trkpt>
      <trkpt lat="47.46792" lon="6.56128">
        <ele>306.9</ele>
        <time>2025-09-13T14:31:04Z</time>
      </trkpt>
      <trkpt lat="47.46786" lon="6.56133">
        <ele>306.9</ele>
        <time>2025-09-13T14:31:05Z</time>
      </trkpt>
      <trkpt lat="47.46777" lon="6.5614">
        <ele>306.8</ele>
        <time>2025-09-13T14:31:06Z</time>
      </trkpt>
      <trkpt lat="47.46764" lon="6.56145">
        <ele>306.6</ele>
        <time>2025-09-13T14:31:07Z</time>
      </trkpt>
      <trkpt lat="47.46756" lon="6.56151">
        <ele>306.4</ele>
        <time>2025-09-13T14:31:08Z</time>
      </trkpt>
      <trkpt lat="47.46748" lon="6.56159">
        <ele>306.3</ele>
        <time>2025-09-13T14:31:09Z</time>
      </trkpt>
      <trkpt lat="47.46741" lon="6.56165">
        <ele>306.2</ele>
        <time>2025-09-13T14:31:10Z</time>
      </trkpt>
      <trkpt lat="47.46734" lon="6.56172">
        <ele>306</ele>
        <time>2025-09-13T14:31:11Z</time>
      </trkpt>
      <trkpt lat="47.46727" lon="6.56179">
        <ele>305.9</ele>
        <time>2025-09-13T14:31:12Z</time>
      </trkpt>
      <trkpt lat="47.4672" lon="6.56188">
        <ele>305.8</ele>
        <time>2025-09-13T14:31:13Z</time>
      </trkpt>
      <trkpt lat="47.46712" lon="6.56197">
        <ele>305.7</ele>
        <time>2025-09-13T14:31:14Z</time>
      </trkpt>
      <trkpt lat="47.46705" lon="6.56205">
        <ele>305.6</ele>
        <time>2025-09-13T14:31:15Z</time>
      </trkpt>
      <trkpt lat="47.46697" lon="6.56214">
        <ele>305.4</ele>
        <time>2025-09-13T14:31:16Z</time>
      </trkpt>
      <trkpt lat="47.4669" lon="6.56222">
        <ele>305.2</ele>
        <time>2025-09-13T14:31:17Z</time>
      </trkpt>
      <trkpt lat="47.46682" lon="6.5623">
        <ele>305.1</ele>
        <time>2025-09-13T14:31:18Z</time>
      </trkpt>
      <trkpt lat="47.46674" lon="6.56237">
        <ele>304.9</ele>
        <time>2025-09-13T14:31:19Z</time>
      </trkpt>
      <trkpt lat="47.46666" lon="6.56244">
        <ele>304.8</ele>
        <time>2025-09-13T14:31:20Z</time>
      </trkpt>
      <trkpt lat="47.46658" lon="6.5625">
        <ele>304.6</ele>
        <time>2025-09-13T14:31:21Z</time>
      </trkpt>
      <trkpt lat="47.46649" lon="6.56257">
        <ele>304.4</ele>
        <time>2025-09-13T14:31:22Z</time>
      </trkpt>
      <trkpt lat="47.46641" lon="6.56262">
        <ele>304.3</ele>
        <time>2025-09-13T14:31:23Z</time>
      </trkpt>
      <trkpt lat="47.46631" lon="6.56266">
        <ele>304.1</ele>
        <time>2025-09-13T14:31:24Z</time>
      </trkpt>
      <trkpt lat="47.46622" lon="6.56272">
        <ele>304</ele>
        <time>2025-09-13T14:31:25Z</time>
      </trkpt>
      <trkpt lat="47.46614" lon="6.56278">
        <ele>303.9</ele>
        <time>2025-09-13T14:31:26Z</time>
      </trkpt>
      <trkpt lat="47.46604" lon="6.56284">
        <ele>303.7</ele>
        <time>2025-09-13T14:31:27Z</time>
      </trkpt>
      <trkpt lat="47.46596" lon="6.5629">
        <ele>303.6</ele>
        <time>2025-09-13T14:31:28Z</time>
      </trkpt>
      <trkpt lat="47.46588" lon="6.56295">
        <ele>303.5</ele>
        <time>2025-09-13T14:31:29Z</time>
      </trkpt>
      <trkpt lat="47.4658" lon="6.563">
        <ele>303.3</ele>
        <time>2025-09-13T14:31:30Z</time>
      </trkpt>
      <trkpt lat="47.46572" lon="6.5631">
        <ele>303.1</ele>
        <time>2025-09-13T14:31:31Z</time>
      </trkpt>
      <trkpt lat="47.46563" lon="6.56311">
        <ele>302.9</ele>
        <time>2025-09-13T14:31:32Z</time>
      </trkpt>
      <trkpt lat="47.46555" lon="6.56319">
        <ele>302.6</ele>
        <time>2025-09-13T14:31:33Z</time>
      </trkpt>
      <trkpt lat="47.46547" lon="6.56329">
        <ele>302.3</ele>
        <time>2025-09-13T14:31:34Z</time>
      </trkpt>
      <trkpt lat="47.46541" lon="6.56341">
        <ele>302.1</ele>
        <time>2025-09-13T14:31:35Z</time>
      </trkpt>
      <trkpt lat="47.46536" lon="6.56353">
        <ele>302</ele>
        <time>2025-09-13T14:31:36Z</time>
      </trkpt>
      <trkpt lat="47.46532" lon="6.56364">
        <ele>301.9</ele>
        <time>2025-09-13T14:31:37Z</time>
      </trkpt>
      <trkpt lat="47.46526" lon="6.56376">
        <ele>301.8</ele>
        <time>2025-09-13T14:31:38Z</time>
      </trkpt>
      <trkpt lat="47.46522" lon="6.56387">
        <ele>301.8</ele>
        <time>2025-09-13T14:31:39Z</time>
      </trkpt>
      <trkpt lat="47.46517" lon="6.56399">
        <ele>301.7</ele>
        <time>2025-09-13T14:31:40Z</time>
      </trkpt>
      <trkpt lat="47.46512" lon="6.5641">
        <ele>301.7</ele>
        <time>2025-09-13T14:31:41Z</time>
      </trkpt>
      <trkpt lat="47.46508" lon="6.56422">
        <ele>301.5</ele>
        <time>2025-09-13T14:31:42Z</time>
      </trkpt>
      <trkpt lat="47.46503" lon="6.56433">
        <ele>301.5</ele>
        <time>2025-09-13T14:31:43Z</time>
      </trkpt>
      <trkpt lat="47.46498" lon="6.56445">
        <ele>301.4</ele>
        <time>2025-09-13T14:31:44Z</time>
      </trkpt>
      <trkpt lat="47.46493" lon="6.56457">
        <ele>301.4</ele>
        <time>2025-09-13T14:31:45Z</time>
      </trkpt>
      <trkpt lat="47.46488" lon="6.56468">
        <ele>301.3</ele>
        <time>2025-09-13T14:31:46Z</time>
      </trkpt>
      <trkpt lat="47.46484" lon="6.56479">
        <ele>301.3</ele>
        <time>2025-09-13T14:31:47Z</time>
      </trkpt>
      <trkpt lat="47.46479" lon="6.56489">
        <ele>301.3</ele>
        <time>2025-09-13T14:31:48Z</time>
      </trkpt>
      <trkpt lat="47.46474" lon="6.56501">
        <ele>301.3</ele>
        <time>2025-09-13T14:31:49Z</time>
      </trkpt>
      <trkpt lat="47.4647" lon="6.56512">
        <ele>301.3</ele>
        <time>2025-09-13T14:31:50Z</time>
      </trkpt>
      <trkpt lat="47.46465" lon="6.56523">
        <ele>301.3</ele>
        <time>2025-09-13T14:31:51Z</time>
      </trkpt>
      <trkpt lat="47.46461" lon="6.56535">
        <ele>301.3</ele>
        <time>2025-09-13T14:31:52Z</time>
      </trkpt>
      <trkpt lat="47.46457" lon="6.56546">
        <ele>301.4</ele>
        <time>2025-09-13T14:31:53Z</time>
      </trkpt>
      <trkpt lat="47.46452" lon="6.56555">
        <ele>301.4</ele>
        <time>2025-09-13T14:31:54Z</time>
      </trkpt>
      <trkpt lat="47.46448" lon="6.56567">
        <ele>301.5</ele>
        <time>2025-09-13T14:31:55Z</time>
      </trkpt>
      <trkpt lat="47.46444" lon="6.56578">
        <ele>301.6</ele>
        <time>2025-09-13T14:31:56Z</time>
      </trkpt>
      <trkpt lat="47.4644" lon="6.56588">
        <ele>301.6</ele>
        <time>2025-09-13T14:31:57Z</time>
      </trkpt>
      <trkpt lat="47.46435" lon="6.56598">
        <ele>301.7</ele>
        <time>2025-09-13T14:31:58Z</time>
      </trkpt>
      <trkpt lat="47.46431" lon="6.56607">
        <ele>301.8</ele>
        <time>2025-09-13T14:31:59Z</time>
      </trkpt>
      <trkpt lat="47.46428" lon="6.56618">
        <ele>301.9</ele>
        <time>2025-09-13T14:32:00Z</time>
      </trkpt>
      <trkpt lat="47.46424" lon="6.56628">
        <ele>302</ele>
        <time>2025-09-13T14:32:01Z</time>
      </trkpt>
      <trkpt lat="47.46419" lon="6.56637">
        <ele>302.1</ele>
        <time>2025-09-13T14:32:02Z</time>
      </trkpt>
      <trkpt lat="47.46415" lon="6.56646">
        <ele>302.2</ele>
        <time>2025-09-13T14:32:03Z</time>
      </trkpt>
      <trkpt lat="47.4641" lon="6.56654">
        <ele>302.2</ele>
        <time>2025-09-13T14:32:04Z</time>
      </trkpt>
      <trkpt lat="47.46405" lon="6.56663">
        <ele>302.3</ele>
        <time>2025-09-13T14:32:05Z</time>
      </trkpt>
      <trkpt lat="47.46399" lon="6.5667">
        <ele>302.5</ele>
        <time>2025-09-13T14:32:06Z</time>
      </trkpt>
      <trkpt lat="47.46393" lon="6.56676">
        <ele>302.6</ele>
        <time>2025-09-13T14:32:07Z</time>
      </trkpt>
      <trkpt lat="47.46386" lon="6.56681">
        <ele>302.7</ele>
        <time>2025-09-13T14:32:08Z</time>
      </trkpt>
      <trkpt lat="47.46379" lon="6.56685">
        <ele>302.8</ele>
        <time>2025-09-13T14:32:09Z</time>
      </trkpt>
      <trkpt lat="47.46373" lon="6.56689">
        <ele>302.8</ele>
        <time>2025-09-13T14:32:10Z</time>
      </trkpt>
      <trkpt lat="47.46366" lon="6.56693">
        <ele>303</ele>
        <time>2025-09-13T14:32:11Z</time>
      </trkpt>
      <trkpt lat="47.46359" lon="6.56698">
        <ele>303.1</ele>
        <time>2025-09-13T14:32:12Z</time>
      </trkpt>
      <trkpt lat="47.46352" lon="6.56702">
        <ele>303.2</ele>
        <time>2025-09-13T14:32:13Z</time>
      </trkpt>
      <trkpt lat="47.46346" lon="6.56706">
        <ele>303.3</ele>
        <time>2025-09-13T14:32:14Z</time>
      </trkpt>
      <trkpt lat="47.46341" lon="6.56711">
        <ele>303.4</ele>
        <time>2025-09-13T14:32:15Z</time>
      </trkpt>
      <trkpt lat="47.46335" lon="6.56716">
        <ele>303.5</ele>
        <time>2025-09-13T14:32:16Z</time>
      </trkpt>
      <trkpt lat="47.46327" lon="6.56719">
        <ele>303.6</ele>
        <time>2025-09-13T14:32:17Z</time>
      </trkpt>
      <trkpt lat="47.4632" lon="6.56725">
        <ele>303.7</ele>
        <time>2025-09-13T14:32:18Z</time>
      </trkpt>
      <trkpt lat="47.46314" lon="6.56727">
        <ele>303.8</ele>
        <time>2025-09-13T14:32:19Z</time>
      </trkpt>
      <trkpt lat="47.46308" lon="6.5673">
        <ele>303.9</ele>
        <time>2025-09-13T14:32:20Z</time>
      </trkpt>
      <trkpt lat="47.46302" lon="6.56735">
        <ele>304</ele>
        <time>2025-09-13T14:32:21Z</time>
      </trkpt>
      <trkpt lat="47.46295" lon="6.56737">
        <ele>304</ele>
        <time>2025-09-13T14:32:22Z</time>
      </trkpt>
      <trkpt lat="47.46289" lon="6.5674">
        <ele>304.1</ele>
        <time>2025-09-13T14:32:23Z</time>
      </trkpt>
      <trkpt lat="47.46283" lon="6.56743">
        <ele>304.2</ele>
        <time>2025-09-13T14:32:24Z</time>
      </trkpt>
      <trkpt lat="47.46278" lon="6.56748">
        <ele>304.2</ele>
        <time>2025-09-13T14:32:25Z</time>
      </trkpt>
      <trkpt lat="47.46273" lon="6.56751">
        <ele>304.3</ele>
        <time>2025-09-13T14:32:26Z</time>
      </trkpt>
      <trkpt lat="47.46267" lon="6.56754">
        <ele>304.3</ele>
        <time>2025-09-13T14:32:27Z</time>
      </trkpt>
      <trkpt lat="47.46257" lon="6.5676">
        <ele>304.4</ele>
        <time>2025-09-13T14:32:28Z</time>
      </trkpt>
      <trkpt lat="47.46252" lon="6.56763">
        <ele>304.5</ele>
        <time>2025-09-13T14:32:29Z</time>
      </trkpt>
      <trkpt lat="47.46248" lon="6.56766">
        <ele>304.5</ele>
        <time>2025-09-13T14:32:30Z</time>
      </trkpt>
      <trkpt lat="47.46243" lon="6.56769">
        <ele>304.6</ele>
        <time>2025-09-13T14:32:31Z</time>
      </trkpt>
      <trkpt lat="47.46239" lon="6.56775">
        <ele>304.7</ele>
        <time>2025-09-13T14:32:32Z</time>
      </trkpt>
      <trkpt lat="47.46234" lon="6.56778">
        <ele>304.8</ele>
        <time>2025-09-13T14:32:33Z</time>
      </trkpt>
      <trkpt lat="47.46229" lon="6.5678">
        <ele>304.9</ele>
        <time>2025-09-13T14:32:34Z</time>
      </trkpt>
      <trkpt lat="47.46224" lon="6.56783">
        <ele>304.9</ele>
        <time>2025-09-13T14:32:35Z</time>
      </trkpt>
      <trkpt lat="47.4622" lon="6.56785">
        <ele>305</ele>
        <time>2025-09-13T14:32:36Z</time>
      </trkpt>
      <trkpt lat="47.46215" lon="6.56787">
        <ele>305.1</ele>
        <time>2025-09-13T14:32:37Z</time>
      </trkpt>
      <trkpt lat="47.46211" lon="6.5679">
        <ele>305.1</ele>
        <time>2025-09-13T14:32:39Z</time>
      </trkpt>
      <trkpt lat="47.46207" lon="6.56793">
        <ele>305.2</ele>
        <time>2025-09-13T14:32:40Z</time>
      </trkpt>
      <trkpt lat="47.46203" lon="6.56796">
        <ele>305.2</ele>
        <time>2025-09-13T14:32:41Z</time>
      </trkpt>
      <trkpt lat="47.46199" lon="6.56799">
        <ele>305.3</ele>
        <time>2025-09-13T14:32:42Z</time>
      </trkpt>
      <trkpt lat="47.46196" lon="6.56801">
        <ele>305.3</ele>
        <time>2025-09-13T14:32:43Z</time>
      </trkpt>
      <trkpt lat="47.46192" lon="6.56803">
        <ele>305.3</ele>
        <time>2025-09-13T14:32:44Z</time>
      </trkpt>
      <trkpt lat="47.46189" lon="6.56805">
        <ele>305.3</ele>
        <time>2025-09-13T14:32:45Z</time>
      </trkpt>
      <trkpt lat="47.46184" lon="6.56807">
        <ele>305.2</ele>
        <time>2025-09-13T14:32:46Z</time>
      </trkpt>
      <trkpt lat="47.4618" lon="6.56809">
        <ele>305.1</ele>
        <time>2025-09-13T14:32:47Z</time>
      </trkpt>
      <trkpt lat="47.46175" lon="6.56811">
        <ele>305</ele>
        <time>2025-09-13T14:32:48Z</time>
      </trkpt>
      <trkpt lat="47.4617" lon="6.56814">
        <ele>304.9</ele>
        <time>2025-09-13T14:32:49Z</time>
      </trkpt>
      <trkpt lat="47.46164" lon="6.56816">
        <ele>304.8</ele>
        <time>2025-09-13T14:32:50Z</time>
      </trkpt>
      <trkpt lat="47.46158" lon="6.56819">
        <ele>304.7</ele>
        <time>2025-09-13T14:32:51Z</time>
      </trkpt>
      <trkpt lat="47.46152" lon="6.56821">
        <ele>304.7</ele>
        <time>2025-09-13T14:32:52Z</time>
      </trkpt>
      <trkpt lat="47.46145" lon="6.56823">
        <ele>304.6</ele>
        <time>2025-09-13T14:32:53Z</time>
      </trkpt>
      <trkpt lat="47.46139" lon="6.56826">
        <ele>304.5</ele>
        <time>2025-09-13T14:32:54Z</time>
      </trkpt>
      <trkpt lat="47.46133" lon="6.56827">
        <ele>304.4</ele>
        <time>2025-09-13T14:32:55Z</time>
      </trkpt>
      <trkpt lat="47.46127" lon="6.56829">
        <ele>304.3</ele>
        <time>2025-09-13T14:32:56Z</time>
      </trkpt>
      <trkpt lat="47.46121" lon="6.56832">
        <ele>304.3</ele>
        <time>2025-09-13T14:32:57Z</time>
      </trkpt>
      <trkpt lat="47.46115" lon="6.56833">
        <ele>304.2</ele>
        <time>2025-09-13T14:32:58Z</time>
      </trkpt>
      <trkpt lat="47.46109" lon="6.56835">
        <ele>304.1</ele>
        <time>2025-09-13T14:32:59Z</time>
      </trkpt>
      <trkpt lat="47.46103" lon="6.56837">
        <ele>304.1</ele>
        <time>2025-09-13T14:33:00Z</time>
      </trkpt>
      <trkpt lat="47.46097" lon="6.5684">
        <ele>304</ele>
        <time>2025-09-13T14:33:01Z</time>
      </trkpt>
      <trkpt lat="47.46091" lon="6.56841">
        <ele>304</ele>
        <time>2025-09-13T14:33:02Z</time>
      </trkpt>
      <trkpt lat="47.46085" lon="6.56841">
        <ele>304</ele>
        <time>2025-09-13T14:33:03Z</time>
      </trkpt>
      <trkpt lat="47.4608" lon="6.56843">
        <ele>304</ele>
        <time>2025-09-13T14:33:04Z</time>
      </trkpt>
      <trkpt lat="47.46074" lon="6.56845">
        <ele>303.9</ele>
        <time>2025-09-13T14:33:05Z</time>
      </trkpt>
      <trkpt lat="47.46069" lon="6.56847">
        <ele>303.9</ele>
        <time>2025-09-13T14:33:06Z</time>
      </trkpt>
      <trkpt lat="47.46063" lon="6.56848">
        <ele>303.9</ele>
        <time>2025-09-13T14:33:07Z</time>
      </trkpt>
      <trkpt lat="47.46058" lon="6.56849">
        <ele>303.9</ele>
        <time>2025-09-13T14:33:08Z</time>
      </trkpt>
      <trkpt lat="47.46052" lon="6.56851">
        <ele>303.8</ele>
        <time>2025-09-13T14:33:09Z</time>
      </trkpt>
      <trkpt lat="47.46047" lon="6.56853">
        <ele>303.8</ele>
        <time>2025-09-13T14:33:10Z</time>
      </trkpt>
      <trkpt lat="47.46041" lon="6.56854">
        <ele>303.8</ele>
        <time>2025-09-13T14:33:11Z</time>
      </trkpt>
      <trkpt lat="47.46036" lon="6.56855">
        <ele>303.7</ele>
        <time>2025-09-13T14:33:12Z</time>
      </trkpt>
      <trkpt lat="47.46031" lon="6.56857">
        <ele>303.7</ele>
        <time>2025-09-13T14:33:13Z</time>
      </trkpt>
      <trkpt lat="47.46026" lon="6.56858">
        <ele>303.7</ele>
        <time>2025-09-13T14:33:14Z</time>
      </trkpt>
      <trkpt lat="47.4602" lon="6.56859">
        <ele>303.6</ele>
        <time>2025-09-13T14:33:15Z</time>
      </trkpt>
      <trkpt lat="47.46016" lon="6.5686">
        <ele>303.6</ele>
        <time>2025-09-13T14:33:16Z</time>
      </trkpt>
      <trkpt lat="47.4601" lon="6.56861">
        <ele>303.5</ele>
        <time>2025-09-13T14:33:17Z</time>
      </trkpt>
      <trkpt lat="47.46004" lon="6.56862">
        <ele>303.5</ele>
        <time>2025-09-13T14:33:18Z</time>
      </trkpt>
      <trkpt lat="47.45999" lon="6.56864">
        <ele>303.5</ele>
        <time>2025-09-13T14:33:19Z</time>
      </trkpt>
      <trkpt lat="47.45993" lon="6.56865">
        <ele>303.4</ele>
        <time>2025-09-13T14:33:20Z</time>
      </trkpt>
      <trkpt lat="47.45987" lon="6.56866">
        <ele>303.4</ele>
        <time>2025-09-13T14:33:21Z</time>
      </trkpt>
      <trkpt lat="47.45981" lon="6.56868">
        <ele>303.4</ele>
        <time>2025-09-13T14:33:22Z</time>
      </trkpt>
      <trkpt lat="47.45975" lon="6.56868">
        <ele>303.3</ele>
        <time>2025-09-13T14:33:23Z</time>
      </trkpt>
      <trkpt lat="47.45969" lon="6.5687">
        <ele>303.3</ele>
        <time>2025-09-13T14:33:24Z</time>
      </trkpt>
      <trkpt lat="47.45963" lon="6.56872">
        <ele>303.3</ele>
        <time>2025-09-13T14:33:25Z</time>
      </trkpt>
      <trkpt lat="47.45958" lon="6.56873">
        <ele>303.2</ele>
        <time>2025-09-13T14:33:26Z</time>
      </trkpt>
      <trkpt lat="47.45952" lon="6.56874">
        <ele>303.1</ele>
        <time>2025-09-13T14:33:27Z</time>
      </trkpt>
      <trkpt lat="47.45945" lon="6.56876">
        <ele>303</ele>
        <time>2025-09-13T14:33:28Z</time>
      </trkpt>
      <trkpt lat="47.45939" lon="6.56877">
        <ele>302.9</ele>
        <time>2025-09-13T14:33:29Z</time>
      </trkpt>
      <trkpt lat="47.45933" lon="6.56879">
        <ele>302.8</ele>
        <time>2025-09-13T14:33:30Z</time>
      </trkpt>
      <trkpt lat="47.45927" lon="6.5688">
        <ele>302.7</ele>
        <time>2025-09-13T14:33:31Z</time>
      </trkpt>
      <trkpt lat="47.4592" lon="6.5688">
        <ele>302.6</ele>
        <time>2025-09-13T14:33:32Z</time>
      </trkpt>
      <trkpt lat="47.45913" lon="6.56881">
        <ele>302.5</ele>
        <time>2025-09-13T14:33:33Z</time>
      </trkpt>
      <trkpt lat="47.45906" lon="6.56882">
        <ele>302.3</ele>
        <time>2025-09-13T14:33:34Z</time>
      </trkpt>
      <trkpt lat="47.45899" lon="6.56882">
        <ele>302.2</ele>
        <time>2025-09-13T14:33:35Z</time>
      </trkpt>
      <trkpt lat="47.45892" lon="6.56882">
        <ele>302</ele>
        <time>2025-09-13T14:33:36Z</time>
      </trkpt>
      <trkpt lat="47.45886" lon="6.56883">
        <ele>301.9</ele>
        <time>2025-09-13T14:33:37Z</time>
      </trkpt>
      <trkpt lat="47.45879" lon="6.56883">
        <ele>301.8</ele>
        <time>2025-09-13T14:33:38Z</time>
      </trkpt>
      <trkpt lat="47.45872" lon="6.56884">
        <ele>301.7</ele>
        <time>2025-09-13T14:33:39Z</time>
      </trkpt>
      <trkpt lat="47.45865" lon="6.56884">
        <ele>301.7</ele>
        <time>2025-09-13T14:33:40Z</time>
      </trkpt>
      <trkpt lat="47.45857" lon="6.56884">
        <ele>301.6</ele>
        <time>2025-09-13T14:33:41Z</time>
      </trkpt>
      <trkpt lat="47.4585" lon="6.56883">
        <ele>301.6</ele>
        <time>2025-09-13T14:33:42Z</time>
      </trkpt>
      <trkpt lat="47.45843" lon="6.56884">
        <ele>301.6</ele>
        <time>2025-09-13T14:33:43Z</time>
      </trkpt>
      <trkpt lat="47.45837" lon="6.56884">
        <ele>301.6</ele>
        <time>2025-09-13T14:33:44Z</time>
      </trkpt>
      <trkpt lat="47.4583" lon="6.56884">
        <ele>301.6</ele>
        <time>2025-09-13T14:33:45Z</time>
      </trkpt>
      <trkpt lat="47.45824" lon="6.56886">
        <ele>301.6</ele>
        <time>2025-09-13T14:33:46Z</time>
      </trkpt>
      <trkpt lat="47.45817" lon="6.56887">
        <ele>301.6</ele>
        <time>2025-09-13T14:33:47Z</time>
      </trkpt>
      <trkpt lat="47.45811" lon="6.56888">
        <ele>301.7</ele>
        <time>2025-09-13T14:33:48Z</time>
      </trkpt>
      <trkpt lat="47.45805" lon="6.5689">
        <ele>301.7</ele>
        <time>2025-09-13T14:33:49Z</time>
      </trkpt>
      <trkpt lat="47.45798" lon="6.56891">
        <ele>301.8</ele>
        <time>2025-09-13T14:33:50Z</time>
      </trkpt>
      <trkpt lat="47.45793" lon="6.56893">
        <ele>301.8</ele>
        <time>2025-09-13T14:33:51Z</time>
      </trkpt>
      <trkpt lat="47.45786" lon="6.56896">
        <ele>301.9</ele>
        <time>2025-09-13T14:33:52Z</time>
      </trkpt>
      <trkpt lat="47.45774" lon="6.56902">
        <ele>302.1</ele>
        <time>2025-09-13T14:33:53Z</time>
      </trkpt>
      <trkpt lat="47.45767" lon="6.56905">
        <ele>302.1</ele>
        <time>2025-09-13T14:33:54Z</time>
      </trkpt>
      <trkpt lat="47.45761" lon="6.56908">
        <ele>302.2</ele>
        <time>2025-09-13T14:33:55Z</time>
      </trkpt>
      <trkpt lat="47.45756" lon="6.56912">
        <ele>302.3</ele>
        <time>2025-09-13T14:33:56Z</time>
      </trkpt>
      <trkpt lat="47.45749" lon="6.56916">
        <ele>302.3</ele>
        <time>2025-09-13T14:33:57Z</time>
      </trkpt>
      <trkpt lat="47.45744" lon="6.56919">
        <ele>302.4</ele>
        <time>2025-09-13T14:33:58Z</time>
      </trkpt>
      <trkpt lat="47.45738" lon="6.56923">
        <ele>302.4</ele>
        <time>2025-09-13T14:33:59Z</time>
      </trkpt>
      <trkpt lat="47.45732" lon="6.56925">
        <ele>302.4</ele>
        <time>2025-09-13T14:34:00Z</time>
      </trkpt>
      <trkpt lat="47.45726" lon="6.56927">
        <ele>302.5</ele>
        <time>2025-09-13T14:34:01Z</time>
      </trkpt>
      <trkpt lat="47.45719" lon="6.56927">
        <ele>302.5</ele>
        <time>2025-09-13T14:34:02Z</time>
      </trkpt>
      <trkpt lat="47.45712" lon="6.56927">
        <ele>302.5</ele>
        <time>2025-09-13T14:34:03Z</time>
      </trkpt>
      <trkpt lat="47.45706" lon="6.56926">
        <ele>302.5</ele>
        <time>2025-09-13T14:34:04Z</time>
      </trkpt>
      <trkpt lat="47.457" lon="6.56925">
        <ele>302.6</ele>
        <time>2025-09-13T14:34:05Z</time>
      </trkpt>
      <trkpt lat="47.45694" lon="6.56923">
        <ele>302.6</ele>
        <time>2025-09-13T14:34:06Z</time>
      </trkpt>
      <trkpt lat="47.45688" lon="6.56921">
        <ele>302.7</ele>
        <time>2025-09-13T14:34:07Z</time>
      </trkpt>
      <trkpt lat="47.45682" lon="6.56919">
        <ele>302.7</ele>
        <time>2025-09-13T14:34:08Z</time>
      </trkpt>
      <trkpt lat="47.45677" lon="6.56917">
        <ele>302.8</ele>
        <time>2025-09-13T14:34:09Z</time>
      </trkpt>
      <trkpt lat="47.45672" lon="6.56914">
        <ele>302.8</ele>
        <time>2025-09-13T14:34:10Z</time>
      </trkpt>
      <trkpt lat="47.45665" lon="6.56912">
        <ele>302.8</ele>
        <time>2025-09-13T14:34:11Z</time>
      </trkpt>
      <trkpt lat="47.45659" lon="6.5691">
        <ele>302.8</ele>
        <time>2025-09-13T14:34:12Z</time>
      </trkpt>
      <trkpt lat="47.45654" lon="6.56907">
        <ele>302.9</ele>
        <time>2025-09-13T14:34:13Z</time>
      </trkpt>
      <trkpt lat="47.45648" lon="6.56906">
        <ele>302.9</ele>
        <time>2025-09-13T14:34:14Z</time>
      </trkpt>
      <trkpt lat="47.45642" lon="6.56904">
        <ele>302.9</ele>
        <time>2025-09-13T14:34:15Z</time>
      </trkpt>
      <trkpt lat="47.45636" lon="6.56902">
        <ele>303</ele>
        <time>2025-09-13T14:34:16Z</time>
      </trkpt>
      <trkpt lat="47.4563" lon="6.56901">
        <ele>303</ele>
        <time>2025-09-13T14:34:17Z</time>
      </trkpt>
      <trkpt lat="47.45624" lon="6.56899">
        <ele>303.1</ele>
        <time>2025-09-13T14:34:18Z</time>
      </trkpt>
      <trkpt lat="47.45618" lon="6.56897">
        <ele>303.1</ele>
        <time>2025-09-13T14:34:19Z</time>
      </trkpt>
      <trkpt lat="47.45612" lon="6.56895">
        <ele>303.1</ele>
        <time>2025-09-13T14:34:20Z</time>
      </trkpt>
      <trkpt lat="47.45606" lon="6.56894">
        <ele>303.1</ele>
        <time>2025-09-13T14:34:21Z</time>
      </trkpt>
      <trkpt lat="47.456" lon="6.56892">
        <ele>303.1</ele>
        <time>2025-09-13T14:34:22Z</time>
      </trkpt>
      <trkpt lat="47.45594" lon="6.5689">
        <ele>303.1</ele>
        <time>2025-09-13T14:34:23Z</time>
      </trkpt>
      <trkpt lat="47.45587" lon="6.56889">
        <ele>303.1</ele>
        <time>2025-09-13T14:34:24Z</time>
      </trkpt>
      <trkpt lat="47.45581" lon="6.56889">
        <ele>303</ele>
        <time>2025-09-13T14:34:25Z</time>
      </trkpt>
      <trkpt lat="47.45574" lon="6.56888">
        <ele>303</ele>
        <time>2025-09-13T14:34:26Z</time>
      </trkpt>
      <trkpt lat="47.45567" lon="6.56888">
        <ele>303</ele>
        <time>2025-09-13T14:34:27Z</time>
      </trkpt>
      <trkpt lat="47.45561" lon="6.56889">
        <ele>302.9</ele>
        <time>2025-09-13T14:34:28Z</time>
      </trkpt>
      <trkpt lat="47.45553" lon="6.56889">
        <ele>302.9</ele>
        <time>2025-09-13T14:34:29Z</time>
      </trkpt>
      <trkpt lat="47.45547" lon="6.56889">
        <ele>302.9</ele>
        <time>2025-09-13T14:34:30Z</time>
      </trkpt>
      <trkpt lat="47.4554" lon="6.56891">
        <ele>302.9</ele>
        <time>2025-09-13T14:34:31Z</time>
      </trkpt>
      <trkpt lat="47.45533" lon="6.56893">
        <ele>302.9</ele>
        <time>2025-09-13T14:34:32Z</time>
      </trkpt>
      <trkpt lat="47.45526" lon="6.56894">
        <ele>302.9</ele>
        <time>2025-09-13T14:34:33Z</time>
      </trkpt>
      <trkpt lat="47.45519" lon="6.56896">
        <ele>302.9</ele>
        <time>2025-09-13T14:34:34Z</time>
      </trkpt>
      <trkpt lat="47.45513" lon="6.56899">
        <ele>303</ele>
        <time>2025-09-13T14:34:35Z</time>
      </trkpt>
      <trkpt lat="47.45506" lon="6.56902">
        <ele>303</ele>
        <time>2025-09-13T14:34:36Z</time>
      </trkpt>
      <trkpt lat="47.455" lon="6.56904">
        <ele>303.1</ele>
        <time>2025-09-13T14:34:37Z</time>
      </trkpt>
      <trkpt lat="47.45495" lon="6.56905">
        <ele>303.1</ele>
        <time>2025-09-13T14:34:38Z</time>
      </trkpt>
      <trkpt lat="47.45488" lon="6.56906">
        <ele>303.1</ele>
        <time>2025-09-13T14:34:39Z</time>
      </trkpt>
      <trkpt lat="47.45481" lon="6.56908">
        <ele>303.1</ele>
        <time>2025-09-13T14:34:40Z</time>
      </trkpt>
      <trkpt lat="47.45476" lon="6.5691">
        <ele>303.1</ele>
        <time>2025-09-13T14:34:41Z</time>
      </trkpt>
      <trkpt lat="47.4547" lon="6.56911">
        <ele>303</ele>
        <time>2025-09-13T14:34:42Z</time>
      </trkpt>
      <trkpt lat="47.45463" lon="6.56913">
        <ele>303</ele>
        <time>2025-09-13T14:34:43Z</time>
      </trkpt>
      <trkpt lat="47.45457" lon="6.56915">
        <ele>302.9</ele>
        <time>2025-09-13T14:34:45Z</time>
      </trkpt>
      <trkpt lat="47.4545" lon="6.56918">
        <ele>302.8</ele>
        <time>2025-09-13T14:34:46Z</time>
      </trkpt>
      <trkpt lat="47.45444" lon="6.56921">
        <ele>302.8</ele>
        <time>2025-09-13T14:34:47Z</time>
      </trkpt>
      <trkpt lat="47.45437" lon="6.56924">
        <ele>302.7</ele>
        <time>2025-09-13T14:34:48Z</time>
      </trkpt>
      <trkpt lat="47.4543" lon="6.56925">
        <ele>302.6</ele>
        <time>2025-09-13T14:34:49Z</time>
      </trkpt>
      <trkpt lat="47.45424" lon="6.56928">
        <ele>302.5</ele>
        <time>2025-09-13T14:34:50Z</time>
      </trkpt>
      <trkpt lat="47.45417" lon="6.56931">
        <ele>302.4</ele>
        <time>2025-09-13T14:34:51Z</time>
      </trkpt>
      <trkpt lat="47.4541" lon="6.56935">
        <ele>302.3</ele>
        <time>2025-09-13T14:34:52Z</time>
      </trkpt>
      <trkpt lat="47.45404" lon="6.56937">
        <ele>302.2</ele>
        <time>2025-09-13T14:34:53Z</time>
      </trkpt>
      <trkpt lat="47.45397" lon="6.5694">
        <ele>302.1</ele>
        <time>2025-09-13T14:34:54Z</time>
      </trkpt>
      <trkpt lat="47.4539" lon="6.56942">
        <ele>302</ele>
        <time>2025-09-13T14:34:55Z</time>
      </trkpt>
      <trkpt lat="47.45382" lon="6.56946">
        <ele>301.8</ele>
        <time>2025-09-13T14:34:56Z</time>
      </trkpt>
      <trkpt lat="47.45375" lon="6.56949">
        <ele>301.7</ele>
        <time>2025-09-13T14:34:57Z</time>
      </trkpt>
      <trkpt lat="47.45368" lon="6.56952">
        <ele>301.6</ele>
        <time>2025-09-13T14:34:58Z</time>
      </trkpt>
      <trkpt lat="47.4536" lon="6.56955">
        <ele>301.5</ele>
        <time>2025-09-13T14:34:59Z</time>
      </trkpt>
      <trkpt lat="47.45353" lon="6.56958">
        <ele>301.4</ele>
        <time>2025-09-13T14:35:00Z</time>
      </trkpt>
      <trkpt lat="47.45346" lon="6.56959">
        <ele>301.3</ele>
        <time>2025-09-13T14:35:01Z</time>
      </trkpt>
      <trkpt lat="47.45339" lon="6.5696">
        <ele>301.2</ele>
        <time>2025-09-13T14:35:02Z</time>
      </trkpt>
      <trkpt lat="47.45332" lon="6.56959">
        <ele>301.2</ele>
        <time>2025-09-13T14:35:03Z</time>
      </trkpt>
      <trkpt lat="47.45324" lon="6.56957">
        <ele>301.1</ele>
        <time>2025-09-13T14:35:04Z</time>
      </trkpt>
      <trkpt lat="47.45317" lon="6.56954">
        <ele>301.1</ele>
        <time>2025-09-13T14:35:05Z</time>
      </trkpt>
      <trkpt lat="47.45311" lon="6.5695">
        <ele>301</ele>
        <time>2025-09-13T14:35:06Z</time>
      </trkpt>
      <trkpt lat="47.45304" lon="6.56945">
        <ele>301</ele>
        <time>2025-09-13T14:35:07Z</time>
      </trkpt>
      <trkpt lat="47.45298" lon="6.5694">
        <ele>300.9</ele>
        <time>2025-09-13T14:35:08Z</time>
      </trkpt>
      <trkpt lat="47.45292" lon="6.56934">
        <ele>300.8</ele>
        <time>2025-09-13T14:35:09Z</time>
      </trkpt>
      <trkpt lat="47.45287" lon="6.56927">
        <ele>300.7</ele>
        <time>2025-09-13T14:35:10Z</time>
      </trkpt>
      <trkpt lat="47.45281" lon="6.56922">
        <ele>300.7</ele>
        <time>2025-09-13T14:35:11Z</time>
      </trkpt>
      <trkpt lat="47.45274" lon="6.56917">
        <ele>300.6</ele>
        <time>2025-09-13T14:35:12Z</time>
      </trkpt>
      <trkpt lat="47.45267" lon="6.56913">
        <ele>300.6</ele>
        <time>2025-09-13T14:35:13Z</time>
      </trkpt>
      <trkpt lat="47.4526" lon="6.5691">
        <ele>300.6</ele>
        <time>2025-09-13T14:35:14Z</time>
      </trkpt>
      <trkpt lat="47.45253" lon="6.56908">
        <ele>300.5</ele>
        <time>2025-09-13T14:35:15Z</time>
      </trkpt>
      <trkpt lat="47.45245" lon="6.56905">
        <ele>300.5</ele>
        <time>2025-09-13T14:35:16Z</time>
      </trkpt>
      <trkpt lat="47.45239" lon="6.56902">
        <ele>300.4</ele>
        <time>2025-09-13T14:35:17Z</time>
      </trkpt>
      <trkpt lat="47.45233" lon="6.56901">
        <ele>300.3</ele>
        <time>2025-09-13T14:35:18Z</time>
      </trkpt>
      <trkpt lat="47.45226" lon="6.569">
        <ele>300.2</ele>
        <time>2025-09-13T14:35:19Z</time>
      </trkpt>
      <trkpt lat="47.45218" lon="6.56898">
        <ele>300.1</ele>
        <time>2025-09-13T14:35:20Z</time>
      </trkpt>
      <trkpt lat="47.45211" lon="6.56896">
        <ele>300</ele>
        <time>2025-09-13T14:35:21Z</time>
      </trkpt>
      <trkpt lat="47.45204" lon="6.56895">
        <ele>299.9</ele>
        <time>2025-09-13T14:35:22Z</time>
      </trkpt>
      <trkpt lat="47.45196" lon="6.56893">
        <ele>299.8</ele>
        <time>2025-09-13T14:35:23Z</time>
      </trkpt>
      <trkpt lat="47.45189" lon="6.56891">
        <ele>299.7</ele>
        <time>2025-09-13T14:35:24Z</time>
      </trkpt>
      <trkpt lat="47.45181" lon="6.56889">
        <ele>299.6</ele>
        <time>2025-09-13T14:35:25Z</time>
      </trkpt>
      <trkpt lat="47.45174" lon="6.56888">
        <ele>299.5</ele>
        <time>2025-09-13T14:35:26Z</time>
      </trkpt>
      <trkpt lat="47.45166" lon="6.56887">
        <ele>299.4</ele>
        <time>2025-09-13T14:35:27Z</time>
      </trkpt>
      <trkpt lat="47.45158" lon="6.56886">
        <ele>299.4</ele>
        <time>2025-09-13T14:35:28Z</time>
      </trkpt>
      <trkpt lat="47.45151" lon="6.56886">
        <ele>299.4</ele>
        <time>2025-09-13T14:35:29Z</time>
      </trkpt>
      <trkpt lat="47.45136" lon="6.56887">
        <ele>299.3</ele>
        <time>2025-09-13T14:35:30Z</time>
      </trkpt>
      <trkpt lat="47.45129" lon="6.56888">
        <ele>299.3</ele>
        <time>2025-09-13T14:35:31Z</time>
      </trkpt>
      <trkpt lat="47.45122" lon="6.56891">
        <ele>299.3</ele>
        <time>2025-09-13T14:35:32Z</time>
      </trkpt>
      <trkpt lat="47.45115" lon="6.56894">
        <ele>299.3</ele>
        <time>2025-09-13T14:35:33Z</time>
      </trkpt>
      <trkpt lat="47.45108" lon="6.56897">
        <ele>299.2</ele>
        <time>2025-09-13T14:35:34Z</time>
      </trkpt>
      <trkpt lat="47.45101" lon="6.56898">
        <ele>299.2</ele>
        <time>2025-09-13T14:35:35Z</time>
      </trkpt>
      <trkpt lat="47.45093" lon="6.569">
        <ele>299.2</ele>
        <time>2025-09-13T14:35:36Z</time>
      </trkpt>
      <trkpt lat="47.45086" lon="6.56902">
        <ele>299.2</ele>
        <time>2025-09-13T14:35:37Z</time>
      </trkpt>
      <trkpt lat="47.45078" lon="6.56902">
        <ele>299.2</ele>
        <time>2025-09-13T14:35:38Z</time>
      </trkpt>
      <trkpt lat="47.45071" lon="6.56902">
        <ele>299.3</ele>
        <time>2025-09-13T14:35:39Z</time>
      </trkpt>
      <trkpt lat="47.45063" lon="6.56901">
        <ele>299.3</ele>
        <time>2025-09-13T14:35:40Z</time>
      </trkpt>
      <trkpt lat="47.45057" lon="6.56901">
        <ele>299.2</ele>
        <time>2025-09-13T14:35:41Z</time>
      </trkpt>
      <trkpt lat="47.45049" lon="6.56901">
        <ele>299.2</ele>
        <time>2025-09-13T14:35:42Z</time>
      </trkpt>
      <trkpt lat="47.45042" lon="6.56901">
        <ele>299.1</ele>
        <time>2025-09-13T14:35:43Z</time>
      </trkpt>
      <trkpt lat="47.45035" lon="6.56901">
        <ele>299</ele>
        <time>2025-09-13T14:35:44Z</time>
      </trkpt>
      <trkpt lat="47.45028" lon="6.569">
        <ele>299</ele>
        <time>2025-09-13T14:35:45Z</time>
      </trkpt>
      <trkpt lat="47.45021" lon="6.569">
        <ele>299</ele>
        <time>2025-09-13T14:35:46Z</time>
      </trkpt>
      <trkpt lat="47.45013" lon="6.569">
        <ele>298.9</ele>
        <time>2025-09-13T14:35:47Z</time>
      </trkpt>
      <trkpt lat="47.45005" lon="6.56899">
        <ele>298.9</ele>
        <time>2025-09-13T14:35:48Z</time>
      </trkpt>
      <trkpt lat="47.44998" lon="6.56898">
        <ele>298.8</ele>
        <time>2025-09-13T14:35:49Z</time>
      </trkpt>
      <trkpt lat="47.44991" lon="6.56896">
        <ele>298.8</ele>
        <time>2025-09-13T14:35:50Z</time>
      </trkpt>
      <trkpt lat="47.44984" lon="6.56895">
        <ele>298.7</ele>
        <time>2025-09-13T14:35:51Z</time>
      </trkpt>
      <trkpt lat="47.44977" lon="6.56893">
        <ele>298.7</ele>
        <time>2025-09-13T14:35:52Z</time>
      </trkpt>
      <trkpt lat="47.4497" lon="6.56893">
        <ele>298.5</ele>
        <time>2025-09-13T14:35:53Z</time>
      </trkpt>
      <trkpt lat="47.44962" lon="6.56891">
        <ele>298.4</ele>
        <time>2025-09-13T14:35:54Z</time>
      </trkpt>
      <trkpt lat="47.44956" lon="6.5689">
        <ele>298.3</ele>
        <time>2025-09-13T14:35:55Z</time>
      </trkpt>
      <trkpt lat="47.44948" lon="6.56889">
        <ele>298.2</ele>
        <time>2025-09-13T14:35:56Z</time>
      </trkpt>
      <trkpt lat="47.44941" lon="6.56889">
        <ele>298.1</ele>
        <time>2025-09-13T14:35:57Z</time>
      </trkpt>
      <trkpt lat="47.44934" lon="6.56888">
        <ele>298</ele>
        <time>2025-09-13T14:35:58Z</time>
      </trkpt>
      <trkpt lat="47.44927" lon="6.56886">
        <ele>297.8</ele>
        <time>2025-09-13T14:35:59Z</time>
      </trkpt>
      <trkpt lat="47.44919" lon="6.56885">
        <ele>297.7</ele>
        <time>2025-09-13T14:36:00Z</time>
      </trkpt>
      <trkpt lat="47.44911" lon="6.56883">
        <ele>297.5</ele>
        <time>2025-09-13T14:36:01Z</time>
      </trkpt>
      <trkpt lat="47.44904" lon="6.56882">
        <ele>297.4</ele>
        <time>2025-09-13T14:36:02Z</time>
      </trkpt>
      <trkpt lat="47.44896" lon="6.5688">
        <ele>297.2</ele>
        <time>2025-09-13T14:36:03Z</time>
      </trkpt>
      <trkpt lat="47.44888" lon="6.56877">
        <ele>297</ele>
        <time>2025-09-13T14:36:04Z</time>
      </trkpt>
      <trkpt lat="47.44881" lon="6.56874">
        <ele>296.9</ele>
        <time>2025-09-13T14:36:05Z</time>
      </trkpt>
      <trkpt lat="47.44873" lon="6.5687">
        <ele>296.7</ele>
        <time>2025-09-13T14:36:06Z</time>
      </trkpt>
      <trkpt lat="47.44866" lon="6.56867">
        <ele>296.5</ele>
        <time>2025-09-13T14:36:07Z</time>
      </trkpt>
      <trkpt lat="47.44859" lon="6.56863">
        <ele>296.3</ele>
        <time>2025-09-13T14:36:08Z</time>
      </trkpt>
      <trkpt lat="47.44852" lon="6.56859">
        <ele>296.2</ele>
        <time>2025-09-13T14:36:09Z</time>
      </trkpt>
      <trkpt lat="47.44844" lon="6.56854">
        <ele>296</ele>
        <time>2025-09-13T14:36:10Z</time>
      </trkpt>
      <trkpt lat="47.44837" lon="6.56849">
        <ele>295.9</ele>
        <time>2025-09-13T14:36:11Z</time>
      </trkpt>
      <trkpt lat="47.44829" lon="6.56845">
        <ele>295.8</ele>
        <time>2025-09-13T14:36:12Z</time>
      </trkpt>
      <trkpt lat="47.44822" lon="6.5684">
        <ele>295.7</ele>
        <time>2025-09-13T14:36:13Z</time>
      </trkpt>
      <trkpt lat="47.44815" lon="6.56835">
        <ele>295.6</ele>
        <time>2025-09-13T14:36:14Z</time>
      </trkpt>
      <trkpt lat="47.44807" lon="6.56831">
        <ele>295.5</ele>
        <time>2025-09-13T14:36:15Z</time>
      </trkpt>
      <trkpt lat="47.44799" lon="6.56827">
        <ele>295.4</ele>
        <time>2025-09-13T14:36:16Z</time>
      </trkpt>
      <trkpt lat="47.44792" lon="6.56822">
        <ele>295.2</ele>
        <time>2025-09-13T14:36:17Z</time>
      </trkpt>
      <trkpt lat="47.44785" lon="6.56817">
        <ele>295.1</ele>
        <time>2025-09-13T14:36:18Z</time>
      </trkpt>
      <trkpt lat="47.44778" lon="6.56813">
        <ele>295</ele>
        <time>2025-09-13T14:36:19Z</time>
      </trkpt>
      <trkpt lat="47.44771" lon="6.56807">
        <ele>295</ele>
        <time>2025-09-13T14:36:20Z</time>
      </trkpt>
      <trkpt lat="47.44763" lon="6.56802">
        <ele>294.9</ele>
        <time>2025-09-13T14:36:21Z</time>
      </trkpt>
      <trkpt lat="47.44756" lon="6.56797">
        <ele>294.9</ele>
        <time>2025-09-13T14:36:22Z</time>
      </trkpt>
      <trkpt lat="47.44748" lon="6.56793">
        <ele>294.9</ele>
        <time>2025-09-13T14:36:23Z</time>
      </trkpt>
      <trkpt lat="47.44742" lon="6.56788">
        <ele>294.9</ele>
        <time>2025-09-13T14:36:24Z</time>
      </trkpt>
      <trkpt lat="47.44735" lon="6.56783">
        <ele>294.8</ele>
        <time>2025-09-13T14:36:25Z</time>
      </trkpt>
      <trkpt lat="47.44727" lon="6.56779">
        <ele>294.8</ele>
        <time>2025-09-13T14:36:26Z</time>
      </trkpt>
      <trkpt lat="47.44721" lon="6.56776">
        <ele>294.8</ele>
        <time>2025-09-13T14:36:27Z</time>
      </trkpt>
      <trkpt lat="47.44715" lon="6.56771">
        <ele>294.8</ele>
        <time>2025-09-13T14:36:28Z</time>
      </trkpt>
      <trkpt lat="47.44707" lon="6.56767">
        <ele>294.9</ele>
        <time>2025-09-13T14:36:29Z</time>
      </trkpt>
      <trkpt lat="47.447" lon="6.56763">
        <ele>294.9</ele>
        <time>2025-09-13T14:36:30Z</time>
      </trkpt>
      <trkpt lat="47.44694" lon="6.56759">
        <ele>294.9</ele>
        <time>2025-09-13T14:36:31Z</time>
      </trkpt>
      <trkpt lat="47.44688" lon="6.56754">
        <ele>294.9</ele>
        <time>2025-09-13T14:36:32Z</time>
      </trkpt>
      <trkpt lat="47.44682" lon="6.56749">
        <ele>294.9</ele>
        <time>2025-09-13T14:36:33Z</time>
      </trkpt>
      <trkpt lat="47.44677" lon="6.56745">
        <ele>294.9</ele>
        <time>2025-09-13T14:36:34Z</time>
      </trkpt>
      <trkpt lat="47.44671" lon="6.5674">
        <ele>294.8</ele>
        <time>2025-09-13T14:36:35Z</time>
      </trkpt>
      <trkpt lat="47.44665" lon="6.56736">
        <ele>294.8</ele>
        <time>2025-09-13T14:36:36Z</time>
      </trkpt>
      <trkpt lat="47.44659" lon="6.56731">
        <ele>294.7</ele>
        <time>2025-09-13T14:36:37Z</time>
      </trkpt>
      <trkpt lat="47.44653" lon="6.56726">
        <ele>294.7</ele>
        <time>2025-09-13T14:36:38Z</time>
      </trkpt>
      <trkpt lat="47.44647" lon="6.56721">
        <ele>294.6</ele>
        <time>2025-09-13T14:36:39Z</time>
      </trkpt>
      <trkpt lat="47.4464" lon="6.56716">
        <ele>294.6</ele>
        <time>2025-09-13T14:36:40Z</time>
      </trkpt>
      <trkpt lat="47.44634" lon="6.56711">
        <ele>294.5</ele>
        <time>2025-09-13T14:36:41Z</time>
      </trkpt>
      <trkpt lat="47.44628" lon="6.56705">
        <ele>294.5</ele>
        <time>2025-09-13T14:36:42Z</time>
      </trkpt>
      <trkpt lat="47.44622" lon="6.56699">
        <ele>294.5</ele>
        <time>2025-09-13T14:36:43Z</time>
      </trkpt>
      <trkpt lat="47.44617" lon="6.56693">
        <ele>294.5</ele>
        <time>2025-09-13T14:36:44Z</time>
      </trkpt>
      <trkpt lat="47.4461" lon="6.56687">
        <ele>294.5</ele>
        <time>2025-09-13T14:36:45Z</time>
      </trkpt>
      <trkpt lat="47.44605" lon="6.56681">
        <ele>294.4</ele>
        <time>2025-09-13T14:36:46Z</time>
      </trkpt>
      <trkpt lat="47.446" lon="6.56675">
        <ele>294.4</ele>
        <time>2025-09-13T14:36:47Z</time>
      </trkpt>
      <trkpt lat="47.44594" lon="6.56669">
        <ele>294.4</ele>
        <time>2025-09-13T14:36:48Z</time>
      </trkpt>
      <trkpt lat="47.44588" lon="6.56663">
        <ele>294.4</ele>
        <time>2025-09-13T14:36:49Z</time>
      </trkpt>
      <trkpt lat="47.44582" lon="6.56658">
        <ele>294.3</ele>
        <time>2025-09-13T14:36:51Z</time>
      </trkpt>
      <trkpt lat="47.44576" lon="6.56654">
        <ele>294.3</ele>
        <time>2025-09-13T14:36:52Z</time>
      </trkpt>
      <trkpt lat="47.4457" lon="6.56649">
        <ele>294.2</ele>
        <time>2025-09-13T14:36:53Z</time>
      </trkpt>
      <trkpt lat="47.44563" lon="6.56645">
        <ele>294.1</ele>
        <time>2025-09-13T14:36:54Z</time>
      </trkpt>
      <trkpt lat="47.44558" lon="6.56641">
        <ele>294.1</ele>
        <time>2025-09-13T14:36:55Z</time>
      </trkpt>
      <trkpt lat="47.44551" lon="6.56638">
        <ele>294</ele>
        <time>2025-09-13T14:36:56Z</time>
      </trkpt>
      <trkpt lat="47.44545" lon="6.56634">
        <ele>293.9</ele>
        <time>2025-09-13T14:36:57Z</time>
      </trkpt>
      <trkpt lat="47.44538" lon="6.5663">
        <ele>293.8</ele>
        <time>2025-09-13T14:36:58Z</time>
      </trkpt>
      <trkpt lat="47.44531" lon="6.56628">
        <ele>293.7</ele>
        <time>2025-09-13T14:36:59Z</time>
      </trkpt>
      <trkpt lat="47.44525" lon="6.56625">
        <ele>293.6</ele>
        <time>2025-09-13T14:37:00Z</time>
      </trkpt>
      <trkpt lat="47.44518" lon="6.56622">
        <ele>293.6</ele>
        <time>2025-09-13T14:37:01Z</time>
      </trkpt>
      <trkpt lat="47.44512" lon="6.5662">
        <ele>293.6</ele>
        <time>2025-09-13T14:37:02Z</time>
      </trkpt>
      <trkpt lat="47.44506" lon="6.56617">
        <ele>293.5</ele>
        <time>2025-09-13T14:37:03Z</time>
      </trkpt>
      <trkpt lat="47.44501" lon="6.56615">
        <ele>293.5</ele>
        <time>2025-09-13T14:37:04Z</time>
      </trkpt>
      <trkpt lat="47.44495" lon="6.56614">
        <ele>293.5</ele>
        <time>2025-09-13T14:37:05Z</time>
      </trkpt>
      <trkpt lat="47.44489" lon="6.56612">
        <ele>293.5</ele>
        <time>2025-09-13T14:37:06Z</time>
      </trkpt>
      <trkpt lat="47.44482" lon="6.5661">
        <ele>293.4</ele>
        <time>2025-09-13T14:37:07Z</time>
      </trkpt>
      <trkpt lat="47.44476" lon="6.56609">
        <ele>293.4</ele>
        <time>2025-09-13T14:37:08Z</time>
      </trkpt>
      <trkpt lat="47.4447" lon="6.56608">
        <ele>293.4</ele>
        <time>2025-09-13T14:37:09Z</time>
      </trkpt>
      <trkpt lat="47.44465" lon="6.56606">
        <ele>293.3</ele>
        <time>2025-09-13T14:37:10Z</time>
      </trkpt>
      <trkpt lat="47.44459" lon="6.56604">
        <ele>293.2</ele>
        <time>2025-09-13T14:37:11Z</time>
      </trkpt>
      <trkpt lat="47.44452" lon="6.56602">
        <ele>293.1</ele>
        <time>2025-09-13T14:37:12Z</time>
      </trkpt>
      <trkpt lat="47.44447" lon="6.56599">
        <ele>293</ele>
        <time>2025-09-13T14:37:13Z</time>
      </trkpt>
      <trkpt lat="47.4444" lon="6.56596">
        <ele>292.9</ele>
        <time>2025-09-13T14:37:14Z</time>
      </trkpt>
      <trkpt lat="47.44434" lon="6.56591">
        <ele>292.8</ele>
        <time>2025-09-13T14:37:15Z</time>
      </trkpt>
      <trkpt lat="47.44429" lon="6.56586">
        <ele>292.7</ele>
        <time>2025-09-13T14:37:16Z</time>
      </trkpt>
      <trkpt lat="47.44422" lon="6.56581">
        <ele>292.5</ele>
        <time>2025-09-13T14:37:17Z</time>
      </trkpt>
      <trkpt lat="47.44409" lon="6.56569">
        <ele>292.2</ele>
        <time>2025-09-13T14:37:18Z</time>
      </trkpt>
      <trkpt lat="47.44402" lon="6.56564">
        <ele>292.1</ele>
        <time>2025-09-13T14:37:19Z</time>
      </trkpt>
      <trkpt lat="47.44397" lon="6.56558">
        <ele>292</ele>
        <time>2025-09-13T14:37:20Z</time>
      </trkpt>
      <trkpt lat="47.4439" lon="6.56552">
        <ele>291.9</ele>
        <time>2025-09-13T14:37:21Z</time>
      </trkpt>
      <trkpt lat="47.44384" lon="6.56546">
        <ele>291.8</ele>
        <time>2025-09-13T14:37:22Z</time>
      </trkpt>
      <trkpt lat="47.44378" lon="6.56539">
        <ele>291.7</ele>
        <time>2025-09-13T14:37:23Z</time>
      </trkpt>
      <trkpt lat="47.44373" lon="6.56533">
        <ele>291.6</ele>
        <time>2025-09-13T14:37:24Z</time>
      </trkpt>
      <trkpt lat="47.44368" lon="6.56526">
        <ele>291.5</ele>
        <time>2025-09-13T14:37:25Z</time>
      </trkpt>
      <trkpt lat="47.44363" lon="6.56525">
        <ele>291.5</ele>
        <time>2025-09-13T14:37:26Z</time>
      </trkpt>
      <trkpt lat="47.44356" lon="6.56528">
        <ele>291.5</ele>
        <time>2025-09-13T14:37:27Z</time>
      </trkpt>
      <trkpt lat="47.44349" lon="6.56531">
        <ele>291.5</ele>
        <time>2025-09-13T14:37:28Z</time>
      </trkpt>
      <trkpt lat="47.44343" lon="6.56535">
        <ele>291.6</ele>
        <time>2025-09-13T14:37:29Z</time>
      </trkpt>
      <trkpt lat="47.44337" lon="6.56537">
        <ele>291.6</ele>
        <time>2025-09-13T14:37:30Z</time>
      </trkpt>
      <trkpt lat="47.44331" lon="6.56539">
        <ele>291.6</ele>
        <time>2025-09-13T14:37:31Z</time>
      </trkpt>
      <trkpt lat="47.44325" lon="6.56541">
        <ele>291.6</ele>
        <time>2025-09-13T14:37:32Z</time>
      </trkpt>
      <trkpt lat="47.44319" lon="6.56543">
        <ele>291.6</ele>
        <time>2025-09-13T14:37:33Z</time>
      </trkpt>
      <trkpt lat="47.44313" lon="6.56544">
        <ele>291.6</ele>
        <time>2025-09-13T14:37:34Z</time>
      </trkpt>
      <trkpt lat="47.44307" lon="6.56546">
        <ele>291.6</ele>
        <time>2025-09-13T14:37:35Z</time>
      </trkpt>
      <trkpt lat="47.443" lon="6.56547">
        <ele>291.5</ele>
        <time>2025-09-13T14:37:36Z</time>
      </trkpt>
      <trkpt lat="47.44295" lon="6.56548">
        <ele>291.5</ele>
        <time>2025-09-13T14:37:37Z</time>
      </trkpt>
      <trkpt lat="47.44289" lon="6.56548">
        <ele>291.4</ele>
        <time>2025-09-13T14:37:38Z</time>
      </trkpt>
      <trkpt lat="47.44283" lon="6.5655">
        <ele>291.3</ele>
        <time>2025-09-13T14:37:39Z</time>
      </trkpt>
      <trkpt lat="47.44278" lon="6.56552">
        <ele>291.2</ele>
        <time>2025-09-13T14:37:40Z</time>
      </trkpt>
      <trkpt lat="47.44272" lon="6.56553">
        <ele>291.1</ele>
        <time>2025-09-13T14:37:41Z</time>
      </trkpt>
      <trkpt lat="47.44265" lon="6.56555">
        <ele>291</ele>
        <time>2025-09-13T14:37:42Z</time>
      </trkpt>
      <trkpt lat="47.4426" lon="6.56556">
        <ele>290.9</ele>
        <time>2025-09-13T14:37:43Z</time>
      </trkpt>
      <trkpt lat="47.44254" lon="6.56558">
        <ele>290.9</ele>
        <time>2025-09-13T14:37:44Z</time>
      </trkpt>
      <trkpt lat="47.44249" lon="6.56558">
        <ele>290.8</ele>
        <time>2025-09-13T14:37:45Z</time>
      </trkpt>
      <trkpt lat="47.44245" lon="6.56559">
        <ele>290.8</ele>
        <time>2025-09-13T14:37:46Z</time>
      </trkpt>
      <trkpt lat="47.44241" lon="6.5656">
        <ele>290.8</ele>
        <time>2025-09-13T14:37:47Z</time>
      </trkpt>
      <trkpt lat="47.44238" lon="6.56561">
        <ele>290.8</ele>
        <time>2025-09-13T14:37:48Z</time>
      </trkpt>
      <trkpt lat="47.44235" lon="6.56561">
        <ele>290.8</ele>
        <time>2025-09-13T14:37:49Z</time>
      </trkpt>
      <trkpt lat="47.44235" lon="6.56561">
        <ele>290.8</ele>
        <time>2025-09-13T14:37:50Z</time>
      </trkpt>
      <trkpt lat="47.44234" lon="6.56561">
        <ele>290.8</ele>
        <time>2025-09-13T14:37:51Z</time>
      </trkpt>
      <trkpt lat="47.44231" lon="6.56562">
        <ele>290.8</ele>
        <time>2025-09-13T14:37:52Z</time>
      </trkpt>
      <trkpt lat="47.4423" lon="6.56562">
        <ele>290.8</ele>
        <time>2025-09-13T14:37:53Z</time>
      </trkpt>
      <trkpt lat="47.44227" lon="6.56564">
        <ele>290.8</ele>
        <time>2025-09-13T14:37:54Z</time>
      </trkpt>
      <trkpt lat="47.44226" lon="6.56572">
        <ele>290.8</ele>
        <time>2025-09-13T14:37:55Z</time>
      </trkpt>
      <trkpt lat="47.44226" lon="6.5658">
        <ele>290.8</ele>
        <time>2025-09-13T14:37:56Z</time>
      </trkpt>
      <trkpt lat="47.44225" lon="6.56588">
        <ele>290.7</ele>
        <time>2025-09-13T14:37:57Z</time>
      </trkpt>
      <trkpt lat="47.44225" lon="6.56596">
        <ele>290.7</ele>
        <time>2025-09-13T14:37:58Z</time>
      </trkpt>
      <trkpt lat="47.44224" lon="6.56603">
        <ele>290.7</ele>
        <time>2025-09-13T14:37:59Z</time>
      </trkpt>
      <trkpt lat="47.44224" lon="6.56612">
        <ele>290.6</ele>
        <time>2025-09-13T14:38:00Z</time>
      </trkpt>
      <trkpt lat="47.44223" lon="6.5662">
        <ele>290.6</ele>
        <time>2025-09-13T14:38:01Z</time>
      </trkpt>
      <trkpt lat="47.44222" lon="6.56628">
        <ele>290.5</ele>
        <time>2025-09-13T14:38:02Z</time>
      </trkpt>
      <trkpt lat="47.44221" lon="6.56637">
        <ele>290.5</ele>
        <time>2025-09-13T14:38:03Z</time>
      </trkpt>
      <trkpt lat="47.4422" lon="6.56646">
        <ele>290.4</ele>
        <time>2025-09-13T14:38:04Z</time>
      </trkpt>
      <trkpt lat="47.44219" lon="6.56655">
        <ele>290.4</ele>
        <time>2025-09-13T14:38:05Z</time>
      </trkpt>
      <trkpt lat="47.44218" lon="6.56664">
        <ele>290.3</ele>
        <time>2025-09-13T14:38:06Z</time>
      </trkpt>
      <trkpt lat="47.44217" lon="6.56674">
        <ele>290.3</ele>
        <time>2025-09-13T14:38:07Z</time>
      </trkpt>
      <trkpt lat="47.44216" lon="6.56684">
        <ele>290.3</ele>
        <time>2025-09-13T14:38:08Z</time>
      </trkpt>
      <trkpt lat="47.44216" lon="6.56693">
        <ele>290.2</ele>
        <time>2025-09-13T14:38:09Z</time>
      </trkpt>
      <trkpt lat="47.44215" lon="6.56702">
        <ele>290.2</ele>
        <time>2025-09-13T14:38:10Z</time>
      </trkpt>
      <trkpt lat="47.44214" lon="6.56711">
        <ele>290.2</ele>
        <time>2025-09-13T14:38:11Z</time>
      </trkpt>
      <trkpt lat="47.44214" lon="6.5672">
        <ele>290.2</ele>
        <time>2025-09-13T14:38:12Z</time>
      </trkpt>
      <trkpt lat="47.44213" lon="6.56729">
        <ele>290.1</ele>
        <time>2025-09-13T14:38:13Z</time>
      </trkpt>
      <trkpt lat="47.44212" lon="6.56739">
        <ele>290.1</ele>
        <time>2025-09-13T14:38:14Z</time>
      </trkpt>
      <trkpt lat="47.44212" lon="6.56749">
        <ele>290.1</ele>
        <time>2025-09-13T14:38:15Z</time>
      </trkpt>
      <trkpt lat="47.44213" lon="6.56758">
        <ele>290</ele>
        <time>2025-09-13T14:38:16Z</time>
      </trkpt>
      <trkpt lat="47.44213" lon="6.56768">
        <ele>289.9</ele>
        <time>2025-09-13T14:38:17Z</time>
      </trkpt>
      <trkpt lat="47.44214" lon="6.56778">
        <ele>289.8</ele>
        <time>2025-09-13T14:38:18Z</time>
      </trkpt>
      <trkpt lat="47.44215" lon="6.56788">
        <ele>289.8</ele>
        <time>2025-09-13T14:38:19Z</time>
      </trkpt>
      <trkpt lat="47.44216" lon="6.56797">
        <ele>289.7</ele>
        <time>2025-09-13T14:38:20Z</time>
      </trkpt>
      <trkpt lat="47.44218" lon="6.56806">
        <ele>289.7</ele>
        <time>2025-09-13T14:38:21Z</time>
      </trkpt>
      <trkpt lat="47.44219" lon="6.56815">
        <ele>289.7</ele>
        <time>2025-09-13T14:38:22Z</time>
      </trkpt>
      <trkpt lat="47.4422" lon="6.56825">
        <ele>289.7</ele>
        <time>2025-09-13T14:38:23Z</time>
      </trkpt>
      <trkpt lat="47.44222" lon="6.56835">
        <ele>289.7</ele>
        <time>2025-09-13T14:38:24Z</time>
      </trkpt>
      <trkpt lat="47.44223" lon="6.56844">
        <ele>289.7</ele>
        <time>2025-09-13T14:38:25Z</time>
      </trkpt>
      <trkpt lat="47.44226" lon="6.56853">
        <ele>289.7</ele>
        <time>2025-09-13T14:38:26Z</time>
      </trkpt>
      <trkpt lat="47.44228" lon="6.56862">
        <ele>289.7</ele>
        <time>2025-09-13T14:38:27Z</time>
      </trkpt>
      <trkpt lat="47.44231" lon="6.56872">
        <ele>289.7</ele>
        <time>2025-09-13T14:38:28Z</time>
      </trkpt>
      <trkpt lat="47.44234" lon="6.56881">
        <ele>289.7</ele>
        <time>2025-09-13T14:38:29Z</time>
      </trkpt>
      <trkpt lat="47.44236" lon="6.56889">
        <ele>289.7</ele>
        <time>2025-09-13T14:38:30Z</time>
      </trkpt>
      <trkpt lat="47.44239" lon="6.56898">
        <ele>289.7</ele>
        <time>2025-09-13T14:38:31Z</time>
      </trkpt>
      <trkpt lat="47.44243" lon="6.56907">
        <ele>289.7</ele>
        <time>2025-09-13T14:38:32Z</time>
      </trkpt>
      <trkpt lat="47.44246" lon="6.56916">
        <ele>289.7</ele>
        <time>2025-09-13T14:38:33Z</time>
      </trkpt>
      <trkpt lat="47.4425" lon="6.56924">
        <ele>289.7</ele>
        <time>2025-09-13T14:38:34Z</time>
      </trkpt>
      <trkpt lat="47.44254" lon="6.56932">
        <ele>289.7</ele>
        <time>2025-09-13T14:38:35Z</time>
      </trkpt>
      <trkpt lat="47.44258" lon="6.56939">
        <ele>289.8</ele>
        <time>2025-09-13T14:38:36Z</time>
      </trkpt>
      <trkpt lat="47.44262" lon="6.56946">
        <ele>289.8</ele>
        <time>2025-09-13T14:38:37Z</time>
      </trkpt>
      <trkpt lat="47.44266" lon="6.56954">
        <ele>289.8</ele>
        <time>2025-09-13T14:38:38Z</time>
      </trkpt>
      <trkpt lat="47.44271" lon="6.56962">
        <ele>289.8</ele>
        <time>2025-09-13T14:38:39Z</time>
      </trkpt>
      <trkpt lat="47.44275" lon="6.5697">
        <ele>289.8</ele>
        <time>2025-09-13T14:38:40Z</time>
      </trkpt>
      <trkpt lat="47.44279" lon="6.56975">
        <ele>289.8</ele>
        <time>2025-09-13T14:38:41Z</time>
      </trkpt>
      <trkpt lat="47.44282" lon="6.56982">
        <ele>289.9</ele>
        <time>2025-09-13T14:38:42Z</time>
      </trkpt>
      <trkpt lat="47.44286" lon="6.56989">
        <ele>289.9</ele>
        <time>2025-09-13T14:38:43Z</time>
      </trkpt>
      <trkpt lat="47.44289" lon="6.56997">
        <ele>289.9</ele>
        <time>2025-09-13T14:38:44Z</time>
      </trkpt>
      <trkpt lat="47.44292" lon="6.57005">
        <ele>289.9</ele>
        <time>2025-09-13T14:38:45Z</time>
      </trkpt>
      <trkpt lat="47.44296" lon="6.57012">
        <ele>289.9</ele>
        <time>2025-09-13T14:38:46Z</time>
      </trkpt>
      <trkpt lat="47.443" lon="6.57018">
        <ele>289.9</ele>
        <time>2025-09-13T14:38:47Z</time>
      </trkpt>
      <trkpt lat="47.44304" lon="6.57026">
        <ele>289.9</ele>
        <time>2025-09-13T14:38:48Z</time>
      </trkpt>
      <trkpt lat="47.44308" lon="6.57034">
        <ele>289.9</ele>
        <time>2025-09-13T14:38:49Z</time>
      </trkpt>
      <trkpt lat="47.44313" lon="6.57043">
        <ele>289.9</ele>
        <time>2025-09-13T14:38:50Z</time>
      </trkpt>
      <trkpt lat="47.44317" lon="6.57052">
        <ele>289.8</ele>
        <time>2025-09-13T14:38:51Z</time>
      </trkpt>
      <trkpt lat="47.44322" lon="6.5706">
        <ele>289.8</ele>
        <time>2025-09-13T14:38:52Z</time>
      </trkpt>
      <trkpt lat="47.44326" lon="6.57067">
        <ele>289.8</ele>
        <time>2025-09-13T14:38:53Z</time>
      </trkpt>
      <trkpt lat="47.44331" lon="6.57075">
        <ele>289.8</ele>
        <time>2025-09-13T14:38:54Z</time>
      </trkpt>
      <trkpt lat="47.44335" lon="6.57083">
        <ele>289.7</ele>
        <time>2025-09-13T14:38:55Z</time>
      </trkpt>
      <trkpt lat="47.4434" lon="6.57091">
        <ele>289.7</ele>
        <time>2025-09-13T14:38:57Z</time>
      </trkpt>
      <trkpt lat="47.44344" lon="6.57099">
        <ele>289.7</ele>
        <time>2025-09-13T14:38:58Z</time>
      </trkpt>
      <trkpt lat="47.44349" lon="6.57107">
        <ele>289.7</ele>
        <time>2025-09-13T14:38:59Z</time>
      </trkpt>
      <trkpt lat="47.44355" lon="6.57115">
        <ele>289.7</ele>
        <time>2025-09-13T14:39:00Z</time>
      </trkpt>
      <trkpt lat="47.4436" lon="6.57122">
        <ele>289.7</ele>
        <time>2025-09-13T14:39:01Z</time>
      </trkpt>
      <trkpt lat="47.44365" lon="6.57128">
        <ele>289.7</ele>
        <time>2025-09-13T14:39:02Z</time>
      </trkpt>
      <trkpt lat="47.44369" lon="6.57135">
        <ele>289.7</ele>
        <time>2025-09-13T14:39:03Z</time>
      </trkpt>
      <trkpt lat="47.44374" lon="6.57142">
        <ele>289.7</ele>
        <time>2025-09-13T14:39:04Z</time>
      </trkpt>
      <trkpt lat="47.44378" lon="6.57148">
        <ele>289.7</ele>
        <time>2025-09-13T14:39:05Z</time>
      </trkpt>
      <trkpt lat="47.44382" lon="6.57154">
        <ele>289.7</ele>
        <time>2025-09-13T14:39:06Z</time>
      </trkpt>
      <trkpt lat="47.44389" lon="6.57161">
        <ele>289.8</ele>
        <time>2025-09-13T14:39:07Z</time>
      </trkpt>
      <trkpt lat="47.44394" lon="6.57169">
        <ele>289.8</ele>
        <time>2025-09-13T14:39:08Z</time>
      </trkpt>
      <trkpt lat="47.44404" lon="6.57177">
        <ele>289.9</ele>
        <time>2025-09-13T14:39:09Z</time>
      </trkpt>
      <trkpt lat="47.4441" lon="6.57182">
        <ele>290</ele>
        <time>2025-09-13T14:39:10Z</time>
      </trkpt>
      <trkpt lat="47.44416" lon="6.57185">
        <ele>290</ele>
        <time>2025-09-13T14:39:11Z</time>
      </trkpt>
      <trkpt lat="47.44422" lon="6.5719">
        <ele>290</ele>
        <time>2025-09-13T14:39:12Z</time>
      </trkpt>
      <trkpt lat="47.44428" lon="6.57195">
        <ele>290.1</ele>
        <time>2025-09-13T14:39:13Z</time>
      </trkpt>
      <trkpt lat="47.44435" lon="6.57199">
        <ele>290.1</ele>
        <time>2025-09-13T14:39:14Z</time>
      </trkpt>
      <trkpt lat="47.44441" lon="6.57204">
        <ele>290.2</ele>
        <time>2025-09-13T14:39:15Z</time>
      </trkpt>
      <trkpt lat="47.44447" lon="6.5721">
        <ele>290.3</ele>
        <time>2025-09-13T14:39:16Z</time>
      </trkpt>
      <trkpt lat="47.44452" lon="6.57215">
        <ele>290.4</ele>
        <time>2025-09-13T14:39:17Z</time>
      </trkpt>
      <trkpt lat="47.44457" lon="6.57221">
        <ele>290.5</ele>
        <time>2025-09-13T14:39:18Z</time>
      </trkpt>
      <trkpt lat="47.44462" lon="6.57228">
        <ele>290.6</ele>
        <time>2025-09-13T14:39:19Z</time>
      </trkpt>
      <trkpt lat="47.44467" lon="6.57234">
        <ele>290.6</ele>
        <time>2025-09-13T14:39:20Z</time>
      </trkpt>
      <trkpt lat="47.44472" lon="6.57241">
        <ele>290.7</ele>
        <time>2025-09-13T14:39:21Z</time>
      </trkpt>
      <trkpt lat="47.44476" lon="6.57248">
        <ele>290.7</ele>
        <time>2025-09-13T14:39:22Z</time>
      </trkpt>
      <trkpt lat="47.44481" lon="6.57255">
        <ele>290.8</ele>
        <time>2025-09-13T14:39:23Z</time>
      </trkpt>
      <trkpt lat="47.44485" lon="6.57263">
        <ele>290.8</ele>
        <time>2025-09-13T14:39:24Z</time>
      </trkpt>
      <trkpt lat="47.44489" lon="6.5727">
        <ele>290.8</ele>
        <time>2025-09-13T14:39:25Z</time>
      </trkpt>
      <trkpt lat="47.44493" lon="6.57277">
        <ele>290.8</ele>
        <time>2025-09-13T14:39:26Z</time>
      </trkpt>
      <trkpt lat="47.44497" lon="6.57285">
        <ele>290.9</ele>
        <time>2025-09-13T14:39:27Z</time>
      </trkpt>
      <trkpt lat="47.44501" lon="6.57293">
        <ele>290.9</ele>
        <time>2025-09-13T14:39:28Z</time>
      </trkpt>
      <trkpt lat="47.44505" lon="6.573">
        <ele>290.9</ele>
        <time>2025-09-13T14:39:29Z</time>
      </trkpt>
      <trkpt lat="47.44509" lon="6.57309">
        <ele>290.9</ele>
        <time>2025-09-13T14:39:30Z</time>
      </trkpt>
      <trkpt lat="47.44513" lon="6.57318">
        <ele>290.9</ele>
        <time>2025-09-13T14:39:31Z</time>
      </trkpt>
      <trkpt lat="47.44517" lon="6.57325">
        <ele>290.9</ele>
        <time>2025-09-13T14:39:32Z</time>
      </trkpt>
      <trkpt lat="47.44521" lon="6.57333">
        <ele>290.9</ele>
        <time>2025-09-13T14:39:33Z</time>
      </trkpt>
      <trkpt lat="47.44525" lon="6.5734">
        <ele>291</ele>
        <time>2025-09-13T14:39:34Z</time>
      </trkpt>
      <trkpt lat="47.44529" lon="6.57348">
        <ele>291</ele>
        <time>2025-09-13T14:39:35Z</time>
      </trkpt>
      <trkpt lat="47.44533" lon="6.57357">
        <ele>291</ele>
        <time>2025-09-13T14:39:36Z</time>
      </trkpt>
      <trkpt lat="47.44537" lon="6.57365">
        <ele>291</ele>
        <time>2025-09-13T14:39:37Z</time>
      </trkpt>
      <trkpt lat="47.4454" lon="6.57374">
        <ele>291</ele>
        <time>2025-09-13T14:39:38Z</time>
      </trkpt>
      <trkpt lat="47.44543" lon="6.57384">
        <ele>291</ele>
        <time>2025-09-13T14:39:39Z</time>
      </trkpt>
      <trkpt lat="47.44547" lon="6.57393">
        <ele>291</ele>
        <time>2025-09-13T14:39:40Z</time>
      </trkpt>
      <trkpt lat="47.4455" lon="6.57402">
        <ele>291</ele>
        <time>2025-09-13T14:39:41Z</time>
      </trkpt>
      <trkpt lat="47.44553" lon="6.5741">
        <ele>291.1</ele>
        <time>2025-09-13T14:39:42Z</time>
      </trkpt>
      <trkpt lat="47.44556" lon="6.57419">
        <ele>291.1</ele>
        <time>2025-09-13T14:39:43Z</time>
      </trkpt>
      <trkpt lat="47.4456" lon="6.57427">
        <ele>291.1</ele>
        <time>2025-09-13T14:39:44Z</time>
      </trkpt>
      <trkpt lat="47.44563" lon="6.57435">
        <ele>291.1</ele>
        <time>2025-09-13T14:39:45Z</time>
      </trkpt>
      <trkpt lat="47.44569" lon="6.57444">
        <ele>291.1</ele>
        <time>2025-09-13T14:39:46Z</time>
      </trkpt>
      <trkpt lat="47.44572" lon="6.5745">
        <ele>291.2</ele>
        <time>2025-09-13T14:39:47Z</time>
      </trkpt>
      <trkpt lat="47.44576" lon="6.57458">
        <ele>291.2</ele>
        <time>2025-09-13T14:39:48Z</time>
      </trkpt>
      <trkpt lat="47.4458" lon="6.57466">
        <ele>291.3</ele>
        <time>2025-09-13T14:39:49Z</time>
      </trkpt>
      <trkpt lat="47.44583" lon="6.57475">
        <ele>291.3</ele>
        <time>2025-09-13T14:39:50Z</time>
      </trkpt>
      <trkpt lat="47.44588" lon="6.57482">
        <ele>291.3</ele>
        <time>2025-09-13T14:39:51Z</time>
      </trkpt>
      <trkpt lat="47.44592" lon="6.5749">
        <ele>291.4</ele>
        <time>2025-09-13T14:39:52Z</time>
      </trkpt>
      <trkpt lat="47.44597" lon="6.57497">
        <ele>291.4</ele>
        <time>2025-09-13T14:39:53Z</time>
      </trkpt>
      <trkpt lat="47.446" lon="6.57503">
        <ele>291.4</ele>
        <time>2025-09-13T14:39:54Z</time>
      </trkpt>
      <trkpt lat="47.44605" lon="6.5751">
        <ele>291.4</ele>
        <time>2025-09-13T14:39:55Z</time>
      </trkpt>
      <trkpt lat="47.44609" lon="6.57516">
        <ele>291.4</ele>
        <time>2025-09-13T14:39:56Z</time>
      </trkpt>
      <trkpt lat="47.44614" lon="6.57523">
        <ele>291.4</ele>
        <time>2025-09-13T14:39:57Z</time>
      </trkpt>
      <trkpt lat="47.44619" lon="6.5753">
        <ele>291.5</ele>
        <time>2025-09-13T14:39:58Z</time>
      </trkpt>
      <trkpt lat="47.44624" lon="6.57535">
        <ele>291.6</ele>
        <time>2025-09-13T14:39:59Z</time>
      </trkpt>
      <trkpt lat="47.4463" lon="6.57541">
        <ele>291.6</ele>
        <time>2025-09-13T14:40:00Z</time>
      </trkpt>
      <trkpt lat="47.44635" lon="6.57547">
        <ele>291.7</ele>
        <time>2025-09-13T14:40:01Z</time>
      </trkpt>
      <trkpt lat="47.4464" lon="6.57552">
        <ele>291.8</ele>
        <time>2025-09-13T14:40:02Z</time>
      </trkpt>
      <trkpt lat="47.44645" lon="6.57554">
        <ele>291.9</ele>
        <time>2025-09-13T14:40:03Z</time>
      </trkpt>
      <trkpt lat="47.4465" lon="6.57559">
        <ele>292.1</ele>
        <time>2025-09-13T14:40:04Z</time>
      </trkpt>
      <trkpt lat="47.44655" lon="6.57563">
        <ele>292.1</ele>
        <time>2025-09-13T14:40:05Z</time>
      </trkpt>
      <trkpt lat="47.4466" lon="6.57569">
        <ele>292.1</ele>
        <time>2025-09-13T14:40:06Z</time>
      </trkpt>
      <trkpt lat="47.44665" lon="6.57574">
        <ele>292.2</ele>
        <time>2025-09-13T14:40:07Z</time>
      </trkpt>
      <trkpt lat="47.4467" lon="6.57579">
        <ele>292.2</ele>
        <time>2025-09-13T14:40:08Z</time>
      </trkpt>
      <trkpt lat="47.44675" lon="6.57584">
        <ele>292.2</ele>
        <time>2025-09-13T14:40:09Z</time>
      </trkpt>
      <trkpt lat="47.44681" lon="6.57588">
        <ele>292.3</ele>
        <time>2025-09-13T14:40:10Z</time>
      </trkpt>
      <trkpt lat="47.44687" lon="6.57593">
        <ele>292.3</ele>
        <time>2025-09-13T14:40:11Z</time>
      </trkpt>
      <trkpt lat="47.44692" lon="6.57598">
        <ele>292.3</ele>
        <time>2025-09-13T14:40:12Z</time>
      </trkpt>
      <trkpt lat="47.44698" lon="6.57602">
        <ele>292.3</ele>
        <time>2025-09-13T14:40:13Z</time>
      </trkpt>
      <trkpt lat="47.44703" lon="6.57606">
        <ele>292.3</ele>
        <time>2025-09-13T14:40:14Z</time>
      </trkpt>
      <trkpt lat="47.4471" lon="6.57611">
        <ele>292.3</ele>
        <time>2025-09-13T14:40:15Z</time>
      </trkpt>
      <trkpt lat="47.44716" lon="6.57614">
        <ele>292.3</ele>
        <time>2025-09-13T14:40:16Z</time>
      </trkpt>
      <trkpt lat="47.44722" lon="6.57616">
        <ele>292.3</ele>
        <time>2025-09-13T14:40:17Z</time>
      </trkpt>
      <trkpt lat="47.44729" lon="6.57618">
        <ele>292.3</ele>
        <time>2025-09-13T14:40:18Z</time>
      </trkpt>
      <trkpt lat="47.44736" lon="6.57619">
        <ele>292.3</ele>
        <time>2025-09-13T14:40:19Z</time>
      </trkpt>
      <trkpt lat="47.44742" lon="6.57621">
        <ele>292.3</ele>
        <time>2025-09-13T14:40:20Z</time>
      </trkpt>
      <trkpt lat="47.4475" lon="6.57622">
        <ele>292.2</ele>
        <time>2025-09-13T14:40:21Z</time>
      </trkpt>
      <trkpt lat="47.44756" lon="6.57623">
        <ele>292.2</ele>
        <time>2025-09-13T14:40:22Z</time>
      </trkpt>
      <trkpt lat="47.44763" lon="6.57624">
        <ele>292.2</ele>
        <time>2025-09-13T14:40:23Z</time>
      </trkpt>
      <trkpt lat="47.44769" lon="6.57624">
        <ele>292.1</ele>
        <time>2025-09-13T14:40:24Z</time>
      </trkpt>
      <trkpt lat="47.44774" lon="6.57625">
        <ele>292.1</ele>
        <time>2025-09-13T14:40:25Z</time>
      </trkpt>
      <trkpt lat="47.44781" lon="6.57626">
        <ele>292.1</ele>
        <time>2025-09-13T14:40:26Z</time>
      </trkpt>
      <trkpt lat="47.44787" lon="6.57626">
        <ele>292</ele>
        <time>2025-09-13T14:40:27Z</time>
      </trkpt>
      <trkpt lat="47.44794" lon="6.57627">
        <ele>292</ele>
        <time>2025-09-13T14:40:28Z</time>
      </trkpt>
      <trkpt lat="47.44801" lon="6.57628">
        <ele>292</ele>
        <time>2025-09-13T14:40:29Z</time>
      </trkpt>
      <trkpt lat="47.44807" lon="6.57629">
        <ele>291.9</ele>
        <time>2025-09-13T14:40:30Z</time>
      </trkpt>
      <trkpt lat="47.44814" lon="6.5763">
        <ele>291.9</ele>
        <time>2025-09-13T14:40:31Z</time>
      </trkpt>
      <trkpt lat="47.44821" lon="6.5763">
        <ele>291.9</ele>
        <time>2025-09-13T14:40:32Z</time>
      </trkpt>
      <trkpt lat="47.44828" lon="6.57631">
        <ele>291.9</ele>
        <time>2025-09-13T14:40:33Z</time>
      </trkpt>
      <trkpt lat="47.44835" lon="6.57632">
        <ele>291.9</ele>
        <time>2025-09-13T14:40:34Z</time>
      </trkpt>
      <trkpt lat="47.44842" lon="6.57633">
        <ele>291.9</ele>
        <time>2025-09-13T14:40:35Z</time>
      </trkpt>
      <trkpt lat="47.44849" lon="6.57635">
        <ele>292</ele>
        <time>2025-09-13T14:40:36Z</time>
      </trkpt>
      <trkpt lat="47.44855" lon="6.57636">
        <ele>292</ele>
        <time>2025-09-13T14:40:37Z</time>
      </trkpt>
      <trkpt lat="47.4486" lon="6.57636">
        <ele>292</ele>
        <time>2025-09-13T14:40:38Z</time>
      </trkpt>
      <trkpt lat="47.44867" lon="6.57637">
        <ele>292.1</ele>
        <time>2025-09-13T14:40:39Z</time>
      </trkpt>
      <trkpt lat="47.44873" lon="6.57638">
        <ele>292.1</ele>
        <time>2025-09-13T14:40:40Z</time>
      </trkpt>
      <trkpt lat="47.4488" lon="6.57641">
        <ele>292.2</ele>
        <time>2025-09-13T14:40:41Z</time>
      </trkpt>
      <trkpt lat="47.44886" lon="6.57643">
        <ele>292.3</ele>
        <time>2025-09-13T14:40:42Z</time>
      </trkpt>
      <trkpt lat="47.44893" lon="6.57645">
        <ele>292.4</ele>
        <time>2025-09-13T14:40:43Z</time>
      </trkpt>
      <trkpt lat="47.44899" lon="6.57647">
        <ele>292.3</ele>
        <time>2025-09-13T14:40:44Z</time>
      </trkpt>
      <trkpt lat="47.44906" lon="6.57649">
        <ele>292.3</ele>
        <time>2025-09-13T14:40:45Z</time>
      </trkpt>
      <trkpt lat="47.44912" lon="6.57652">
        <ele>292.3</ele>
        <time>2025-09-13T14:40:46Z</time>
      </trkpt>
      <trkpt lat="47.44918" lon="6.57654">
        <ele>292.2</ele>
        <time>2025-09-13T14:40:47Z</time>
      </trkpt>
      <trkpt lat="47.44925" lon="6.57657">
        <ele>292.2</ele>
        <time>2025-09-13T14:40:48Z</time>
      </trkpt>
      <trkpt lat="47.44932" lon="6.5766">
        <ele>292.2</ele>
        <time>2025-09-13T14:40:49Z</time>
      </trkpt>
      <trkpt lat="47.44938" lon="6.57663">
        <ele>292.1</ele>
        <time>2025-09-13T14:40:50Z</time>
      </trkpt>
      <trkpt lat="47.44945" lon="6.57666">
        <ele>292.1</ele>
        <time>2025-09-13T14:40:51Z</time>
      </trkpt>
      <trkpt lat="47.44951" lon="6.57669">
        <ele>292.1</ele>
        <time>2025-09-13T14:40:52Z</time>
      </trkpt>
      <trkpt lat="47.44958" lon="6.57672">
        <ele>292.1</ele>
        <time>2025-09-13T14:40:53Z</time>
      </trkpt>
      <trkpt lat="47.44964" lon="6.57675">
        <ele>292.1</ele>
        <time>2025-09-13T14:40:54Z</time>
      </trkpt>
      <trkpt lat="47.44971" lon="6.57678">
        <ele>292.1</ele>
        <time>2025-09-13T14:40:55Z</time>
      </trkpt>
      <trkpt lat="47.44977" lon="6.57681">
        <ele>292</ele>
        <time>2025-09-13T14:40:56Z</time>
      </trkpt>
      <trkpt lat="47.44984" lon="6.57684">
        <ele>292</ele>
        <time>2025-09-13T14:40:57Z</time>
      </trkpt>
      <trkpt lat="47.4499" lon="6.57687">
        <ele>292</ele>
        <time>2025-09-13T14:40:58Z</time>
      </trkpt>
      <trkpt lat="47.44997" lon="6.57689">
        <ele>292</ele>
        <time>2025-09-13T14:40:59Z</time>
      </trkpt>
      <trkpt lat="47.45003" lon="6.57692">
        <ele>292</ele>
        <time>2025-09-13T14:41:00Z</time>
      </trkpt>
      <trkpt lat="47.4501" lon="6.57695">
        <ele>292</ele>
        <time>2025-09-13T14:41:01Z</time>
      </trkpt>
      <trkpt lat="47.45022" lon="6.577">
        <ele>292.1</ele>
        <time>2025-09-13T14:41:03Z</time>
      </trkpt>
      <trkpt lat="47.45029" lon="6.57704">
        <ele>292.1</ele>
        <time>2025-09-13T14:41:04Z</time>
      </trkpt>
      <trkpt lat="47.45035" lon="6.57706">
        <ele>292.1</ele>
        <time>2025-09-13T14:41:06Z</time>
      </trkpt>
      <trkpt lat="47.45047" lon="6.57715">
        <ele>292</ele>
        <time>2025-09-13T14:41:07Z</time>
      </trkpt>
      <trkpt lat="47.45053" lon="6.57718">
        <ele>291.9</ele>
        <time>2025-09-13T14:41:08Z</time>
      </trkpt>
      <trkpt lat="47.4506" lon="6.57723">
        <ele>291.8</ele>
        <time>2025-09-13T14:41:09Z</time>
      </trkpt>
      <trkpt lat="47.45066" lon="6.57728">
        <ele>291.6</ele>
        <time>2025-09-13T14:41:10Z</time>
      </trkpt>
      <trkpt lat="47.45073" lon="6.57732">
        <ele>291.5</ele>
        <time>2025-09-13T14:41:11Z</time>
      </trkpt>
      <trkpt lat="47.45079" lon="6.57739">
        <ele>291.5</ele>
        <time>2025-09-13T14:41:12Z</time>
      </trkpt>
      <trkpt lat="47.45086" lon="6.57744">
        <ele>291.4</ele>
        <time>2025-09-13T14:41:13Z</time>
      </trkpt>
      <trkpt lat="47.45092" lon="6.5775">
        <ele>291.4</ele>
        <time>2025-09-13T14:41:14Z</time>
      </trkpt>
      <trkpt lat="47.45099" lon="6.57756">
        <ele>291.4</ele>
        <time>2025-09-13T14:41:15Z</time>
      </trkpt>
      <trkpt lat="47.45105" lon="6.57761">
        <ele>291.5</ele>
        <time>2025-09-13T14:41:16Z</time>
      </trkpt>
      <trkpt lat="47.45111" lon="6.57767">
        <ele>291.5</ele>
        <time>2025-09-13T14:41:17Z</time>
      </trkpt>
      <trkpt lat="47.45117" lon="6.57772">
        <ele>291.6</ele>
        <time>2025-09-13T14:41:18Z</time>
      </trkpt>
      <trkpt lat="47.45123" lon="6.57777">
        <ele>291.7</ele>
        <time>2025-09-13T14:41:19Z</time>
      </trkpt>
      <trkpt lat="47.45129" lon="6.57782">
        <ele>291.8</ele>
        <time>2025-09-13T14:41:20Z</time>
      </trkpt>
      <trkpt lat="47.45135" lon="6.57787">
        <ele>292</ele>
        <time>2025-09-13T14:41:21Z</time>
      </trkpt>
      <trkpt lat="47.4514" lon="6.57793">
        <ele>292.1</ele>
        <time>2025-09-13T14:41:22Z</time>
      </trkpt>
      <trkpt lat="47.45146" lon="6.57797">
        <ele>292.2</ele>
        <time>2025-09-13T14:41:23Z</time>
      </trkpt>
      <trkpt lat="47.45148" lon="6.57803">
        <ele>292.2</ele>
        <time>2025-09-13T14:41:24Z</time>
      </trkpt>
      <trkpt lat="47.45148" lon="6.57812">
        <ele>292.4</ele>
        <time>2025-09-13T14:41:25Z</time>
      </trkpt>
      <trkpt lat="47.45144" lon="6.5782">
        <ele>292.4</ele>
        <time>2025-09-13T14:41:26Z</time>
      </trkpt>
      <trkpt lat="47.4514" lon="6.57826">
        <ele>292.4</ele>
        <time>2025-09-13T14:41:27Z</time>
      </trkpt>
      <trkpt lat="47.45138" lon="6.57835">
        <ele>292.3</ele>
        <time>2025-09-13T14:41:28Z</time>
      </trkpt>
      <trkpt lat="47.45135" lon="6.57843">
        <ele>292.3</ele>
        <time>2025-09-13T14:41:29Z</time>
      </trkpt>
      <trkpt lat="47.45131" lon="6.57849">
        <ele>292.3</ele>
        <time>2025-09-13T14:41:30Z</time>
      </trkpt>
      <trkpt lat="47.45127" lon="6.57854">
        <ele>292.2</ele>
        <time>2025-09-13T14:41:31Z</time>
      </trkpt>
      <trkpt lat="47.45123" lon="6.57859">
        <ele>292.2</ele>
        <time>2025-09-13T14:41:32Z</time>
      </trkpt>
      <trkpt lat="47.45118" lon="6.57865">
        <ele>292.1</ele>
        <time>2025-09-13T14:41:33Z</time>
      </trkpt>
      <trkpt lat="47.45114" lon="6.57874">
        <ele>292</ele>
        <time>2025-09-13T14:41:34Z</time>
      </trkpt>
      <trkpt lat="47.45111" lon="6.57882">
        <ele>292</ele>
        <time>2025-09-13T14:41:35Z</time>
      </trkpt>
      <trkpt lat="47.45106" lon="6.5789">
        <ele>291.9</ele>
        <time>2025-09-13T14:41:36Z</time>
      </trkpt>
      <trkpt lat="47.45104" lon="6.579">
        <ele>291.9</ele>
        <time>2025-09-13T14:41:37Z</time>
      </trkpt>
      <trkpt lat="47.45098" lon="6.57906">
        <ele>292</ele>
        <time>2025-09-13T14:41:38Z</time>
      </trkpt>
      <trkpt lat="47.45096" lon="6.57916">
        <ele>292</ele>
        <time>2025-09-13T14:41:39Z</time>
      </trkpt>
      <trkpt lat="47.4509" lon="6.57921">
        <ele>292</ele>
        <time>2025-09-13T14:41:40Z</time>
      </trkpt>
      <trkpt lat="47.45086" lon="6.57927">
        <ele>292.1</ele>
        <time>2025-09-13T14:41:41Z</time>
      </trkpt>
      <trkpt lat="47.45082" lon="6.57934">
        <ele>292.2</ele>
        <time>2025-09-13T14:41:42Z</time>
      </trkpt>
      <trkpt lat="47.45079" lon="6.57941">
        <ele>292.3</ele>
        <time>2025-09-13T14:41:43Z</time>
      </trkpt>
      <trkpt lat="47.45075" lon="6.57947">
        <ele>292.3</ele>
        <time>2025-09-13T14:41:44Z</time>
      </trkpt>
      <trkpt lat="47.45071" lon="6.57953">
        <ele>292.4</ele>
        <time>2025-09-13T14:41:45Z</time>
      </trkpt>
      <trkpt lat="47.45067" lon="6.5796">
        <ele>292.4</ele>
        <time>2025-09-13T14:41:46Z</time>
      </trkpt>
      <trkpt lat="47.45064" lon="6.57966">
        <ele>292.5</ele>
        <time>2025-09-13T14:41:47Z</time>
      </trkpt>
      <trkpt lat="47.4506" lon="6.57974">
        <ele>292.5</ele>
        <time>2025-09-13T14:41:48Z</time>
      </trkpt>
      <trkpt lat="47.45056" lon="6.5798">
        <ele>292.5</ele>
        <time>2025-09-13T14:41:49Z</time>
      </trkpt>
      <trkpt lat="47.45053" lon="6.57987">
        <ele>292.5</ele>
        <time>2025-09-13T14:41:50Z</time>
      </trkpt>
      <trkpt lat="47.45049" lon="6.57993">
        <ele>292.5</ele>
        <time>2025-09-13T14:41:51Z</time>
      </trkpt>
      <trkpt lat="47.45045" lon="6.58">
        <ele>292.6</ele>
        <time>2025-09-13T14:41:52Z</time>
      </trkpt>
      <trkpt lat="47.45042" lon="6.58007">
        <ele>292.6</ele>
        <time>2025-09-13T14:41:53Z</time>
      </trkpt>
      <trkpt lat="47.45037" lon="6.58014">
        <ele>292.6</ele>
        <time>2025-09-13T14:41:54Z</time>
      </trkpt>
      <trkpt lat="47.45033" lon="6.5802">
        <ele>292.6</ele>
        <time>2025-09-13T14:41:55Z</time>
      </trkpt>
      <trkpt lat="47.45027" lon="6.58025">
        <ele>292.5</ele>
        <time>2025-09-13T14:41:56Z</time>
      </trkpt>
      <trkpt lat="47.45021" lon="6.58029">
        <ele>292.5</ele>
        <time>2025-09-13T14:41:57Z</time>
      </trkpt>
      <trkpt lat="47.45015" lon="6.58034">
        <ele>292.5</ele>
        <time>2025-09-13T14:41:58Z</time>
      </trkpt>
      <trkpt lat="47.45009" lon="6.5804">
        <ele>292.5</ele>
        <time>2025-09-13T14:41:59Z</time>
      </trkpt>
      <trkpt lat="47.45004" lon="6.58047">
        <ele>292.4</ele>
        <time>2025-09-13T14:42:00Z</time>
      </trkpt>
      <trkpt lat="47.45" lon="6.58055">
        <ele>292.4</ele>
        <time>2025-09-13T14:42:01Z</time>
      </trkpt>
      <trkpt lat="47.44995" lon="6.58062">
        <ele>292.3</ele>
        <time>2025-09-13T14:42:02Z</time>
      </trkpt>
      <trkpt lat="47.44991" lon="6.58069">
        <ele>292.3</ele>
        <time>2025-09-13T14:42:03Z</time>
      </trkpt>
      <trkpt lat="47.44986" lon="6.58077">
        <ele>292.3</ele>
        <time>2025-09-13T14:42:04Z</time>
      </trkpt>
      <trkpt lat="47.44981" lon="6.58084">
        <ele>292.2</ele>
        <time>2025-09-13T14:42:05Z</time>
      </trkpt>
      <trkpt lat="47.44976" lon="6.58092">
        <ele>292.2</ele>
        <time>2025-09-13T14:42:06Z</time>
      </trkpt>
      <trkpt lat="47.44971" lon="6.58099">
        <ele>292.1</ele>
        <time>2025-09-13T14:42:07Z</time>
      </trkpt>
      <trkpt lat="47.44966" lon="6.58106">
        <ele>292.1</ele>
        <time>2025-09-13T14:42:08Z</time>
      </trkpt>
      <trkpt lat="47.44962" lon="6.58113">
        <ele>292.1</ele>
        <time>2025-09-13T14:42:09Z</time>
      </trkpt>
      <trkpt lat="47.44957" lon="6.5812">
        <ele>292</ele>
        <time>2025-09-13T14:42:10Z</time>
      </trkpt>
      <trkpt lat="47.44951" lon="6.58127">
        <ele>292</ele>
        <time>2025-09-13T14:42:11Z</time>
      </trkpt>
      <trkpt lat="47.44946" lon="6.58134">
        <ele>292</ele>
        <time>2025-09-13T14:42:12Z</time>
      </trkpt>
      <trkpt lat="47.44941" lon="6.5814">
        <ele>292</ele>
        <time>2025-09-13T14:42:13Z</time>
      </trkpt>
      <trkpt lat="47.44935" lon="6.58146">
        <ele>292</ele>
        <time>2025-09-13T14:42:14Z</time>
      </trkpt>
      <trkpt lat="47.4493" lon="6.5815">
        <ele>292</ele>
        <time>2025-09-13T14:42:15Z</time>
      </trkpt>
      <trkpt lat="47.44923" lon="6.58153">
        <ele>292.1</ele>
        <time>2025-09-13T14:42:16Z</time>
      </trkpt>
      <trkpt lat="47.44916" lon="6.58156">
        <ele>292.2</ele>
        <time>2025-09-13T14:42:17Z</time>
      </trkpt>
      <trkpt lat="47.44909" lon="6.58161">
        <ele>292.3</ele>
        <time>2025-09-13T14:42:18Z</time>
      </trkpt>
      <trkpt lat="47.44907" lon="6.5817">
        <ele>292.3</ele>
        <time>2025-09-13T14:42:19Z</time>
      </trkpt>
      <trkpt lat="47.44906" lon="6.58179">
        <ele>292.2</ele>
        <time>2025-09-13T14:42:20Z</time>
      </trkpt>
      <trkpt lat="47.44909" lon="6.5819">
        <ele>292.2</ele>
        <time>2025-09-13T14:42:21Z</time>
      </trkpt>
      <trkpt lat="47.44908" lon="6.58199">
        <ele>292.3</ele>
        <time>2025-09-13T14:42:22Z</time>
      </trkpt>
      <trkpt lat="47.44907" lon="6.58207">
        <ele>292.4</ele>
        <time>2025-09-13T14:42:23Z</time>
      </trkpt>
      <trkpt lat="47.44905" lon="6.58213">
        <ele>292.5</ele>
        <time>2025-09-13T14:42:24Z</time>
      </trkpt>
      <trkpt lat="47.44904" lon="6.5822">
        <ele>292.5</ele>
        <time>2025-09-13T14:42:25Z</time>
      </trkpt>
      <trkpt lat="47.44904" lon="6.58224">
        <ele>292.4</ele>
        <time>2025-09-13T14:42:26Z</time>
      </trkpt>
      <trkpt lat="47.44906" lon="6.58229">
        <ele>292.4</ele>
        <time>2025-09-13T14:42:27Z</time>
      </trkpt>
      <trkpt lat="47.44908" lon="6.58234">
        <ele>292.3</ele>
        <time>2025-09-13T14:42:28Z</time>
      </trkpt>
      <trkpt lat="47.44911" lon="6.5824">
        <ele>292.1</ele>
        <time>2025-09-13T14:42:29Z</time>
      </trkpt>
      <trkpt lat="47.44915" lon="6.58247">
        <ele>292</ele>
        <time>2025-09-13T14:42:30Z</time>
      </trkpt>
      <trkpt lat="47.44919" lon="6.58253">
        <ele>291.9</ele>
        <time>2025-09-13T14:42:31Z</time>
      </trkpt>
      <trkpt lat="47.44919" lon="6.58251">
        <ele>291.9</ele>
        <time>2025-09-13T14:42:32Z</time>
      </trkpt>
      <trkpt lat="47.44922" lon="6.58254">
        <ele>291.8</ele>
        <time>2025-09-13T14:42:33Z</time>
      </trkpt>
      <trkpt lat="47.44928" lon="6.58261">
        <ele>291.7</ele>
        <time>2025-09-13T14:42:34Z</time>
      </trkpt>
      <trkpt lat="47.44932" lon="6.58266">
        <ele>291.7</ele>
        <time>2025-09-13T14:42:35Z</time>
      </trkpt>
      <trkpt lat="47.44937" lon="6.58272">
        <ele>291.7</ele>
        <time>2025-09-13T14:42:36Z</time>
      </trkpt>
      <trkpt lat="47.44941" lon="6.58277">
        <ele>291.7</ele>
        <time>2025-09-13T14:42:37Z</time>
      </trkpt>
      <trkpt lat="47.44946" lon="6.58284">
        <ele>291.7</ele>
        <time>2025-09-13T14:42:38Z</time>
      </trkpt>
      <trkpt lat="47.44951" lon="6.58292">
        <ele>291.8</ele>
        <time>2025-09-13T14:42:39Z</time>
      </trkpt>
      <trkpt lat="47.44956" lon="6.58298">
        <ele>291.8</ele>
        <time>2025-09-13T14:42:40Z</time>
      </trkpt>
      <trkpt lat="47.4496" lon="6.58305">
        <ele>291.8</ele>
        <time>2025-09-13T14:42:41Z</time>
      </trkpt>
      <trkpt lat="47.44965" lon="6.58311">
        <ele>291.9</ele>
        <time>2025-09-13T14:42:42Z</time>
      </trkpt>
      <trkpt lat="47.44969" lon="6.58317">
        <ele>291.9</ele>
        <time>2025-09-13T14:42:43Z</time>
      </trkpt>
      <trkpt lat="47.44974" lon="6.58323">
        <ele>292</ele>
        <time>2025-09-13T14:42:44Z</time>
      </trkpt>
      <trkpt lat="47.44978" lon="6.58329">
        <ele>292</ele>
        <time>2025-09-13T14:42:45Z</time>
      </trkpt>
      <trkpt lat="47.44982" lon="6.58336">
        <ele>292.1</ele>
        <time>2025-09-13T14:42:46Z</time>
      </trkpt>
      <trkpt lat="47.44986" lon="6.58344">
        <ele>292.1</ele>
        <time>2025-09-13T14:42:47Z</time>
      </trkpt>
      <trkpt lat="47.4499" lon="6.58352">
        <ele>292.2</ele>
        <time>2025-09-13T14:42:48Z</time>
      </trkpt>
      <trkpt lat="47.44994" lon="6.5836">
        <ele>292.3</ele>
        <time>2025-09-13T14:42:49Z</time>
      </trkpt>
      <trkpt lat="47.44998" lon="6.58366">
        <ele>292.3</ele>
        <time>2025-09-13T14:42:50Z</time>
      </trkpt>
      <trkpt lat="47.45" lon="6.58374">
        <ele>292.3</ele>
        <time>2025-09-13T14:42:51Z</time>
      </trkpt>
      <trkpt lat="47.45004" lon="6.5838">
        <ele>292.4</ele>
        <time>2025-09-13T14:42:52Z</time>
      </trkpt>
      <trkpt lat="47.45009" lon="6.58388">
        <ele>292.4</ele>
        <time>2025-09-13T14:42:53Z</time>
      </trkpt>
      <trkpt lat="47.45014" lon="6.58395">
        <ele>292.5</ele>
        <time>2025-09-13T14:42:54Z</time>
      </trkpt>
      <trkpt lat="47.45019" lon="6.58403">
        <ele>292.5</ele>
        <time>2025-09-13T14:42:55Z</time>
      </trkpt>
      <trkpt lat="47.45023" lon="6.58409">
        <ele>292.5</ele>
        <time>2025-09-13T14:42:56Z</time>
      </trkpt>
      <trkpt lat="47.45026" lon="6.58417">
        <ele>292.5</ele>
        <time>2025-09-13T14:42:57Z</time>
      </trkpt>
      <trkpt lat="47.45031" lon="6.58425">
        <ele>292.5</ele>
        <time>2025-09-13T14:42:58Z</time>
      </trkpt>
      <trkpt lat="47.45034" lon="6.58431">
        <ele>292.5</ele>
        <time>2025-09-13T14:42:59Z</time>
      </trkpt>
      <trkpt lat="47.45039" lon="6.58439">
        <ele>292.5</ele>
        <time>2025-09-13T14:43:00Z</time>
      </trkpt>
      <trkpt lat="47.45044" lon="6.58447">
        <ele>292.5</ele>
        <time>2025-09-13T14:43:01Z</time>
      </trkpt>
      <trkpt lat="47.45048" lon="6.58454">
        <ele>292.5</ele>
        <time>2025-09-13T14:43:02Z</time>
      </trkpt>
      <trkpt lat="47.45052" lon="6.58461">
        <ele>292.5</ele>
        <time>2025-09-13T14:43:03Z</time>
      </trkpt>
      <trkpt lat="47.45056" lon="6.58469">
        <ele>292.5</ele>
        <time>2025-09-13T14:43:04Z</time>
      </trkpt>
      <trkpt lat="47.45061" lon="6.58474">
        <ele>292.5</ele>
        <time>2025-09-13T14:43:05Z</time>
      </trkpt>
      <trkpt lat="47.45066" lon="6.58482">
        <ele>292.5</ele>
        <time>2025-09-13T14:43:06Z</time>
      </trkpt>
      <trkpt lat="47.45071" lon="6.5849">
        <ele>292.5</ele>
        <time>2025-09-13T14:43:07Z</time>
      </trkpt>
      <trkpt lat="47.45074" lon="6.58498">
        <ele>292.5</ele>
        <time>2025-09-13T14:43:08Z</time>
      </trkpt>
      <trkpt lat="47.45078" lon="6.58506">
        <ele>292.5</ele>
        <time>2025-09-13T14:43:09Z</time>
      </trkpt>
      <trkpt lat="47.45082" lon="6.58514">
        <ele>292.5</ele>
        <time>2025-09-13T14:43:10Z</time>
      </trkpt>
      <trkpt lat="47.45086" lon="6.58523">
        <ele>292.5</ele>
        <time>2025-09-13T14:43:11Z</time>
      </trkpt>
      <trkpt lat="47.4509" lon="6.58531">
        <ele>292.5</ele>
        <time>2025-09-13T14:43:12Z</time>
      </trkpt>
      <trkpt lat="47.45094" lon="6.5854">
        <ele>292.6</ele>
        <time>2025-09-13T14:43:13Z</time>
      </trkpt>
      <trkpt lat="47.45098" lon="6.58548">
        <ele>292.6</ele>
        <time>2025-09-13T14:43:14Z</time>
      </trkpt>
      <trkpt lat="47.45102" lon="6.58557">
        <ele>292.6</ele>
        <time>2025-09-13T14:43:15Z</time>
      </trkpt>
      <trkpt lat="47.45105" lon="6.58565">
        <ele>292.6</ele>
        <time>2025-09-13T14:43:16Z</time>
      </trkpt>
      <trkpt lat="47.45109" lon="6.58574">
        <ele>292.6</ele>
        <time>2025-09-13T14:43:17Z</time>
      </trkpt>
      <trkpt lat="47.45112" lon="6.58583">
        <ele>292.6</ele>
        <time>2025-09-13T14:43:18Z</time>
      </trkpt>
      <trkpt lat="47.45115" lon="6.58593">
        <ele>292.6</ele>
        <time>2025-09-13T14:43:19Z</time>
      </trkpt>
      <trkpt lat="47.45119" lon="6.58602">
        <ele>292.6</ele>
        <time>2025-09-13T14:43:20Z</time>
      </trkpt>
      <trkpt lat="47.45122" lon="6.58611">
        <ele>292.5</ele>
        <time>2025-09-13T14:43:21Z</time>
      </trkpt>
      <trkpt lat="47.45125" lon="6.5862">
        <ele>292.5</ele>
        <time>2025-09-13T14:43:22Z</time>
      </trkpt>
      <trkpt lat="47.45128" lon="6.5863">
        <ele>292.5</ele>
        <time>2025-09-13T14:43:23Z</time>
      </trkpt>
      <trkpt lat="47.45131" lon="6.5864">
        <ele>292.5</ele>
        <time>2025-09-13T14:43:24Z</time>
      </trkpt>
      <trkpt lat="47.45134" lon="6.5865">
        <ele>292.5</ele>
        <time>2025-09-13T14:43:25Z</time>
      </trkpt>
      <trkpt lat="47.45137" lon="6.58659">
        <ele>292.5</ele>
        <time>2025-09-13T14:43:26Z</time>
      </trkpt>
      <trkpt lat="47.45141" lon="6.58669">
        <ele>292.5</ele>
        <time>2025-09-13T14:43:27Z</time>
      </trkpt>
      <trkpt lat="47.45144" lon="6.58679">
        <ele>292.4</ele>
        <time>2025-09-13T14:43:28Z</time>
      </trkpt>
      <trkpt lat="47.45147" lon="6.58688">
        <ele>292.4</ele>
        <time>2025-09-13T14:43:29Z</time>
      </trkpt>
      <trkpt lat="47.4515" lon="6.58697">
        <ele>292.4</ele>
        <time>2025-09-13T14:43:30Z</time>
      </trkpt>
      <trkpt lat="47.45153" lon="6.58707">
        <ele>292.4</ele>
        <time>2025-09-13T14:43:31Z</time>
      </trkpt>
      <trkpt lat="47.45156" lon="6.58717">
        <ele>292.4</ele>
        <time>2025-09-13T14:43:32Z</time>
      </trkpt>
      <trkpt lat="47.45159" lon="6.58726">
        <ele>292.4</ele>
        <time>2025-09-13T14:43:33Z</time>
      </trkpt>
      <trkpt lat="47.45162" lon="6.58736">
        <ele>292.5</ele>
        <time>2025-09-13T14:43:34Z</time>
      </trkpt>
      <trkpt lat="47.45165" lon="6.58746">
        <ele>292.5</ele>
        <time>2025-09-13T14:43:35Z</time>
      </trkpt>
      <trkpt lat="47.45168" lon="6.58756">
        <ele>292.5</ele>
        <time>2025-09-13T14:43:36Z</time>
      </trkpt>
      <trkpt lat="47.4517" lon="6.58766">
        <ele>292.6</ele>
        <time>2025-09-13T14:43:37Z</time>
      </trkpt>
      <trkpt lat="47.45173" lon="6.58775">
        <ele>292.6</ele>
        <time>2025-09-13T14:43:38Z</time>
      </trkpt>
      <trkpt lat="47.45176" lon="6.58784">
        <ele>292.6</ele>
        <time>2025-09-13T14:43:39Z</time>
      </trkpt>
      <trkpt lat="47.45179" lon="6.58793">
        <ele>292.6</ele>
        <time>2025-09-13T14:43:40Z</time>
      </trkpt>
      <trkpt lat="47.45181" lon="6.58803">
        <ele>292.7</ele>
        <time>2025-09-13T14:43:41Z</time>
      </trkpt>
      <trkpt lat="47.45184" lon="6.58813">
        <ele>292.7</ele>
        <time>2025-09-13T14:43:42Z</time>
      </trkpt>
      <trkpt lat="47.45187" lon="6.58823">
        <ele>292.7</ele>
        <time>2025-09-13T14:43:43Z</time>
      </trkpt>
      <trkpt lat="47.4519" lon="6.58832">
        <ele>292.7</ele>
        <time>2025-09-13T14:43:44Z</time>
      </trkpt>
      <trkpt lat="47.45193" lon="6.58842">
        <ele>292.7</ele>
        <time>2025-09-13T14:43:45Z</time>
      </trkpt>
      <trkpt lat="47.45195" lon="6.58852">
        <ele>292.8</ele>
        <time>2025-09-13T14:43:46Z</time>
      </trkpt>
      <trkpt lat="47.45198" lon="6.5886">
        <ele>292.8</ele>
        <time>2025-09-13T14:43:47Z</time>
      </trkpt>
      <trkpt lat="47.45201" lon="6.58869">
        <ele>292.8</ele>
        <time>2025-09-13T14:43:48Z</time>
      </trkpt>
      <trkpt lat="47.45204" lon="6.58879">
        <ele>292.8</ele>
        <time>2025-09-13T14:43:49Z</time>
      </trkpt>
      <trkpt lat="47.45207" lon="6.58889">
        <ele>292.8</ele>
        <time>2025-09-13T14:43:50Z</time>
      </trkpt>
      <trkpt lat="47.45211" lon="6.58898">
        <ele>292.8</ele>
        <time>2025-09-13T14:43:51Z</time>
      </trkpt>
      <trkpt lat="47.45215" lon="6.58906">
        <ele>292.8</ele>
        <time>2025-09-13T14:43:52Z</time>
      </trkpt>
      <trkpt lat="47.4522" lon="6.58914">
        <ele>292.8</ele>
        <time>2025-09-13T14:43:53Z</time>
      </trkpt>
      <trkpt lat="47.45224" lon="6.58923">
        <ele>292.8</ele>
        <time>2025-09-13T14:43:54Z</time>
      </trkpt>
      <trkpt lat="47.45228" lon="6.58932">
        <ele>292.8</ele>
        <time>2025-09-13T14:43:55Z</time>
      </trkpt>
      <trkpt lat="47.45232" lon="6.58941">
        <ele>292.9</ele>
        <time>2025-09-13T14:43:56Z</time>
      </trkpt>
      <trkpt lat="47.45233" lon="6.58953">
        <ele>292.9</ele>
        <time>2025-09-13T14:43:57Z</time>
      </trkpt>
      <trkpt lat="47.45233" lon="6.58964">
        <ele>293</ele>
        <time>2025-09-13T14:43:58Z</time>
      </trkpt>
      <trkpt lat="47.45232" lon="6.58974">
        <ele>293</ele>
        <time>2025-09-13T14:43:59Z</time>
      </trkpt>
      <trkpt lat="47.4523" lon="6.58984">
        <ele>293.1</ele>
        <time>2025-09-13T14:44:00Z</time>
      </trkpt>
      <trkpt lat="47.45227" lon="6.58993">
        <ele>293.1</ele>
        <time>2025-09-13T14:44:01Z</time>
      </trkpt>
      <trkpt lat="47.45223" lon="6.59003">
        <ele>293.1</ele>
        <time>2025-09-13T14:44:02Z</time>
      </trkpt>
      <trkpt lat="47.45221" lon="6.59013">
        <ele>293.1</ele>
        <time>2025-09-13T14:44:03Z</time>
      </trkpt>
      <trkpt lat="47.4522" lon="6.59024">
        <ele>293.1</ele>
        <time>2025-09-13T14:44:04Z</time>
      </trkpt>
      <trkpt lat="47.45221" lon="6.59034">
        <ele>293</ele>
        <time>2025-09-13T14:44:05Z</time>
      </trkpt>
      <trkpt lat="47.45221" lon="6.59045">
        <ele>293</ele>
        <time>2025-09-13T14:44:06Z</time>
      </trkpt>
      <trkpt lat="47.45222" lon="6.59056">
        <ele>293</ele>
        <time>2025-09-13T14:44:07Z</time>
      </trkpt>
      <trkpt lat="47.45222" lon="6.59067">
        <ele>293</ele>
        <time>2025-09-13T14:44:08Z</time>
      </trkpt>
      <trkpt lat="47.45221" lon="6.59077">
        <ele>293</ele>
        <time>2025-09-13T14:44:09Z</time>
      </trkpt>
      <trkpt lat="47.4522" lon="6.59087">
        <ele>292.9</ele>
        <time>2025-09-13T14:44:10Z</time>
      </trkpt>
      <trkpt lat="47.45219" lon="6.59097">
        <ele>292.9</ele>
        <time>2025-09-13T14:44:11Z</time>
      </trkpt>
      <trkpt lat="47.45217" lon="6.59108">
        <ele>292.9</ele>
        <time>2025-09-13T14:44:12Z</time>
      </trkpt>
      <trkpt lat="47.45216" lon="6.59119">
        <ele>292.9</ele>
        <time>2025-09-13T14:44:13Z</time>
      </trkpt>
      <trkpt lat="47.45215" lon="6.59129">
        <ele>292.9</ele>
        <time>2025-09-13T14:44:14Z</time>
      </trkpt>
      <trkpt lat="47.45214" lon="6.5914">
        <ele>292.9</ele>
        <time>2025-09-13T14:44:15Z</time>
      </trkpt>
      <trkpt lat="47.45212" lon="6.59151">
        <ele>292.9</ele>
        <time>2025-09-13T14:44:16Z</time>
      </trkpt>
      <trkpt lat="47.4521" lon="6.59161">
        <ele>292.9</ele>
        <time>2025-09-13T14:44:17Z</time>
      </trkpt>
      <trkpt lat="47.45209" lon="6.59171">
        <ele>292.9</ele>
        <time>2025-09-13T14:44:18Z</time>
      </trkpt>
      <trkpt lat="47.45207" lon="6.59182">
        <ele>292.9</ele>
        <time>2025-09-13T14:44:19Z</time>
      </trkpt>
      <trkpt lat="47.45205" lon="6.59192">
        <ele>292.9</ele>
        <time>2025-09-13T14:44:20Z</time>
      </trkpt>
      <trkpt lat="47.45203" lon="6.59202">
        <ele>292.9</ele>
        <time>2025-09-13T14:44:21Z</time>
      </trkpt>
      <trkpt lat="47.45201" lon="6.59213">
        <ele>292.9</ele>
        <time>2025-09-13T14:44:22Z</time>
      </trkpt>
      <trkpt lat="47.45199" lon="6.59224">
        <ele>292.9</ele>
        <time>2025-09-13T14:44:23Z</time>
      </trkpt>
      <trkpt lat="47.45197" lon="6.59234">
        <ele>293</ele>
        <time>2025-09-13T14:44:24Z</time>
      </trkpt>
      <trkpt lat="47.45195" lon="6.59245">
        <ele>293</ele>
        <time>2025-09-13T14:44:25Z</time>
      </trkpt>
      <trkpt lat="47.45193" lon="6.59254">
        <ele>293</ele>
        <time>2025-09-13T14:44:26Z</time>
      </trkpt>
      <trkpt lat="47.4519" lon="6.59264">
        <ele>293</ele>
        <time>2025-09-13T14:44:27Z</time>
      </trkpt>
      <trkpt lat="47.45188" lon="6.59274">
        <ele>293</ele>
        <time>2025-09-13T14:44:28Z</time>
      </trkpt>
      <trkpt lat="47.45185" lon="6.59285">
        <ele>293</ele>
        <time>2025-09-13T14:44:29Z</time>
      </trkpt>
      <trkpt lat="47.45182" lon="6.59295">
        <ele>293</ele>
        <time>2025-09-13T14:44:30Z</time>
      </trkpt>
      <trkpt lat="47.4518" lon="6.59305">
        <ele>293</ele>
        <time>2025-09-13T14:44:31Z</time>
      </trkpt>
      <trkpt lat="47.45177" lon="6.59317">
        <ele>293</ele>
        <time>2025-09-13T14:44:32Z</time>
      </trkpt>
      <trkpt lat="47.45174" lon="6.59325">
        <ele>293</ele>
        <time>2025-09-13T14:44:33Z</time>
      </trkpt>
      <trkpt lat="47.45171" lon="6.59336">
        <ele>293</ele>
        <time>2025-09-13T14:44:34Z</time>
      </trkpt>
      <trkpt lat="47.45167" lon="6.59346">
        <ele>293</ele>
        <time>2025-09-13T14:44:35Z</time>
      </trkpt>
      <trkpt lat="47.45164" lon="6.59356">
        <ele>293</ele>
        <time>2025-09-13T14:44:36Z</time>
      </trkpt>
      <trkpt lat="47.4516" lon="6.59365">
        <ele>293</ele>
        <time>2025-09-13T14:44:37Z</time>
      </trkpt>
      <trkpt lat="47.45156" lon="6.59373">
        <ele>293</ele>
        <time>2025-09-13T14:44:38Z</time>
      </trkpt>
      <trkpt lat="47.45151" lon="6.59382">
        <ele>293</ele>
        <time>2025-09-13T14:44:39Z</time>
      </trkpt>
      <trkpt lat="47.45147" lon="6.5939">
        <ele>293</ele>
        <time>2025-09-13T14:44:40Z</time>
      </trkpt>
      <trkpt lat="47.45143" lon="6.59399">
        <ele>293</ele>
        <time>2025-09-13T14:44:41Z</time>
      </trkpt>
      <trkpt lat="47.45138" lon="6.59407">
        <ele>292.9</ele>
        <time>2025-09-13T14:44:42Z</time>
      </trkpt>
      <trkpt lat="47.45133" lon="6.59414">
        <ele>292.9</ele>
        <time>2025-09-13T14:44:43Z</time>
      </trkpt>
      <trkpt lat="47.45127" lon="6.5942">
        <ele>292.8</ele>
        <time>2025-09-13T14:44:44Z</time>
      </trkpt>
      <trkpt lat="47.4512" lon="6.59426">
        <ele>292.8</ele>
        <time>2025-09-13T14:44:45Z</time>
      </trkpt>
      <trkpt lat="47.45113" lon="6.59432">
        <ele>292.8</ele>
        <time>2025-09-13T14:44:46Z</time>
      </trkpt>
      <trkpt lat="47.45106" lon="6.5944">
        <ele>292.8</ele>
        <time>2025-09-13T14:44:47Z</time>
      </trkpt>
      <trkpt lat="47.45101" lon="6.59448">
        <ele>292.9</ele>
        <time>2025-09-13T14:44:48Z</time>
      </trkpt>
      <trkpt lat="47.45098" lon="6.59455">
        <ele>293</ele>
        <time>2025-09-13T14:44:49Z</time>
      </trkpt>
      <trkpt lat="47.45095" lon="6.59466">
        <ele>293.1</ele>
        <time>2025-09-13T14:44:50Z</time>
      </trkpt>
      <trkpt lat="47.4509" lon="6.59474">
        <ele>293.3</ele>
        <time>2025-09-13T14:44:51Z</time>
      </trkpt>
      <trkpt lat="47.45086" lon="6.59481">
        <ele>293.5</ele>
        <time>2025-09-13T14:44:52Z</time>
      </trkpt>
      <trkpt lat="47.45081" lon="6.59487">
        <ele>293.6</ele>
        <time>2025-09-13T14:44:53Z</time>
      </trkpt>
      <trkpt lat="47.45075" lon="6.59493">
        <ele>293.7</ele>
        <time>2025-09-13T14:44:54Z</time>
      </trkpt>
      <trkpt lat="47.4507" lon="6.59498">
        <ele>293.7</ele>
        <time>2025-09-13T14:44:55Z</time>
      </trkpt>
      <trkpt lat="47.45064" lon="6.59503">
        <ele>293.7</ele>
        <time>2025-09-13T14:44:56Z</time>
      </trkpt>
      <trkpt lat="47.45059" lon="6.59508">
        <ele>293.8</ele>
        <time>2025-09-13T14:44:57Z</time>
      </trkpt>
      <trkpt lat="47.45053" lon="6.59514">
        <ele>293.8</ele>
        <time>2025-09-13T14:44:58Z</time>
      </trkpt>
      <trkpt lat="47.45048" lon="6.59519">
        <ele>293.8</ele>
        <time>2025-09-13T14:44:59Z</time>
      </trkpt>
      <trkpt lat="47.45042" lon="6.59523">
        <ele>293.8</ele>
        <time>2025-09-13T14:45:00Z</time>
      </trkpt>
      <trkpt lat="47.45036" lon="6.59528">
        <ele>293.9</ele>
        <time>2025-09-13T14:45:01Z</time>
      </trkpt>
      <trkpt lat="47.4503" lon="6.59533">
        <ele>293.9</ele>
        <time>2025-09-13T14:45:02Z</time>
      </trkpt>
      <trkpt lat="47.45024" lon="6.59539">
        <ele>293.9</ele>
        <time>2025-09-13T14:45:03Z</time>
      </trkpt>
      <trkpt lat="47.45018" lon="6.59544">
        <ele>293.9</ele>
        <time>2025-09-13T14:45:04Z</time>
      </trkpt>
      <trkpt lat="47.45012" lon="6.59548">
        <ele>293.9</ele>
        <time>2025-09-13T14:45:05Z</time>
      </trkpt>
      <trkpt lat="47.45006" lon="6.59553">
        <ele>293.8</ele>
        <time>2025-09-13T14:45:06Z</time>
      </trkpt>
      <trkpt lat="47.45" lon="6.59558">
        <ele>293.8</ele>
        <time>2025-09-13T14:45:07Z</time>
      </trkpt>
      <trkpt lat="47.44994" lon="6.59563">
        <ele>293.9</ele>
        <time>2025-09-13T14:45:08Z</time>
      </trkpt>
      <trkpt lat="47.44988" lon="6.59568">
        <ele>293.9</ele>
        <time>2025-09-13T14:45:09Z</time>
      </trkpt>
      <trkpt lat="47.44982" lon="6.59573">
        <ele>293.9</ele>
        <time>2025-09-13T14:45:10Z</time>
      </trkpt>
      <trkpt lat="47.44976" lon="6.59578">
        <ele>293.9</ele>
        <time>2025-09-13T14:45:11Z</time>
      </trkpt>
      <trkpt lat="47.4497" lon="6.59583">
        <ele>293.9</ele>
        <time>2025-09-13T14:45:12Z</time>
      </trkpt>
      <trkpt lat="47.44963" lon="6.59587">
        <ele>293.9</ele>
        <time>2025-09-13T14:45:13Z</time>
      </trkpt>
      <trkpt lat="47.44956" lon="6.59592">
        <ele>293.9</ele>
        <time>2025-09-13T14:45:14Z</time>
      </trkpt>
      <trkpt lat="47.4495" lon="6.59597">
        <ele>293.9</ele>
        <time>2025-09-13T14:45:15Z</time>
      </trkpt>
      <trkpt lat="47.44943" lon="6.59602">
        <ele>293.9</ele>
        <time>2025-09-13T14:45:16Z</time>
      </trkpt>
      <trkpt lat="47.44937" lon="6.59607">
        <ele>294</ele>
        <time>2025-09-13T14:45:17Z</time>
      </trkpt>
      <trkpt lat="47.4493" lon="6.59611">
        <ele>294</ele>
        <time>2025-09-13T14:45:18Z</time>
      </trkpt>
      <trkpt lat="47.44924" lon="6.59616">
        <ele>294</ele>
        <time>2025-09-13T14:45:19Z</time>
      </trkpt>
      <trkpt lat="47.44918" lon="6.59621">
        <ele>294</ele>
        <time>2025-09-13T14:45:20Z</time>
      </trkpt>
      <trkpt lat="47.44911" lon="6.59625">
        <ele>294</ele>
        <time>2025-09-13T14:45:21Z</time>
      </trkpt>
      <trkpt lat="47.44904" lon="6.59629">
        <ele>294</ele>
        <time>2025-09-13T14:45:22Z</time>
      </trkpt>
      <trkpt lat="47.44897" lon="6.59633">
        <ele>294</ele>
        <time>2025-09-13T14:45:23Z</time>
      </trkpt>
      <trkpt lat="47.4489" lon="6.59637">
        <ele>294</ele>
        <time>2025-09-13T14:45:24Z</time>
      </trkpt>
      <trkpt lat="47.44884" lon="6.59642">
        <ele>294</ele>
        <time>2025-09-13T14:45:25Z</time>
      </trkpt>
      <trkpt lat="47.44877" lon="6.59646">
        <ele>294</ele>
        <time>2025-09-13T14:45:26Z</time>
      </trkpt>
      <trkpt lat="47.4487" lon="6.59651">
        <ele>294.1</ele>
        <time>2025-09-13T14:45:27Z</time>
      </trkpt>
      <trkpt lat="47.44864" lon="6.59655">
        <ele>294.1</ele>
        <time>2025-09-13T14:45:28Z</time>
      </trkpt>
      <trkpt lat="47.44856" lon="6.59659">
        <ele>294.1</ele>
        <time>2025-09-13T14:45:29Z</time>
      </trkpt>
      <trkpt lat="47.44849" lon="6.59663">
        <ele>294.1</ele>
        <time>2025-09-13T14:45:30Z</time>
      </trkpt>
      <trkpt lat="47.44843" lon="6.59668">
        <ele>294.1</ele>
        <time>2025-09-13T14:45:31Z</time>
      </trkpt>
      <trkpt lat="47.44836" lon="6.59672">
        <ele>294.1</ele>
        <time>2025-09-13T14:45:32Z</time>
      </trkpt>
      <trkpt lat="47.44828" lon="6.59676">
        <ele>294.1</ele>
        <time>2025-09-13T14:45:33Z</time>
      </trkpt>
      <trkpt lat="47.44822" lon="6.59678">
        <ele>294.1</ele>
        <time>2025-09-13T14:45:34Z</time>
      </trkpt>
      <trkpt lat="47.44815" lon="6.59681">
        <ele>294.2</ele>
        <time>2025-09-13T14:45:35Z</time>
      </trkpt>
      <trkpt lat="47.44808" lon="6.59686">
        <ele>294.2</ele>
        <time>2025-09-13T14:45:36Z</time>
      </trkpt>
      <trkpt lat="47.44803" lon="6.59689">
        <ele>294.2</ele>
        <time>2025-09-13T14:45:37Z</time>
      </trkpt>
      <trkpt lat="47.44794" lon="6.59687">
        <ele>294.2</ele>
        <time>2025-09-13T14:45:38Z</time>
      </trkpt>
      <trkpt lat="47.44784" lon="6.59691">
        <ele>294.2</ele>
        <time>2025-09-13T14:45:39Z</time>
      </trkpt>
      <trkpt lat="47.44777" lon="6.59694">
        <ele>294.3</ele>
        <time>2025-09-13T14:45:40Z</time>
      </trkpt>
      <trkpt lat="47.4477" lon="6.59696">
        <ele>294.3</ele>
        <time>2025-09-13T14:45:41Z</time>
      </trkpt>
      <trkpt lat="47.44762" lon="6.59699">
        <ele>294.3</ele>
        <time>2025-09-13T14:45:42Z</time>
      </trkpt>
      <trkpt lat="47.44756" lon="6.597">
        <ele>294.3</ele>
        <time>2025-09-13T14:45:43Z</time>
      </trkpt>
      <trkpt lat="47.44749" lon="6.59702">
        <ele>294.3</ele>
        <time>2025-09-13T14:45:44Z</time>
      </trkpt>
      <trkpt lat="47.44743" lon="6.59705">
        <ele>294.3</ele>
        <time>2025-09-13T14:45:45Z</time>
      </trkpt>
      <trkpt lat="47.44735" lon="6.59706">
        <ele>294.4</ele>
        <time>2025-09-13T14:45:46Z</time>
      </trkpt>
      <trkpt lat="47.44727" lon="6.59711">
        <ele>294.4</ele>
        <time>2025-09-13T14:45:47Z</time>
      </trkpt>
      <trkpt lat="47.44722" lon="6.59709">
        <ele>294.4</ele>
        <time>2025-09-13T14:45:48Z</time>
      </trkpt>
      <trkpt lat="47.44715" lon="6.5971">
        <ele>294.4</ele>
        <time>2025-09-13T14:45:49Z</time>
      </trkpt>
      <trkpt lat="47.44708" lon="6.59713">
        <ele>294.4</ele>
        <time>2025-09-13T14:45:50Z</time>
      </trkpt>
      <trkpt lat="47.447" lon="6.59714">
        <ele>294.4</ele>
        <time>2025-09-13T14:45:51Z</time>
      </trkpt>
      <trkpt lat="47.44694" lon="6.59716">
        <ele>294.4</ele>
        <time>2025-09-13T14:45:52Z</time>
      </trkpt>
      <trkpt lat="47.44686" lon="6.59718">
        <ele>294.4</ele>
        <time>2025-09-13T14:45:53Z</time>
      </trkpt>
      <trkpt lat="47.44679" lon="6.59718">
        <ele>294.4</ele>
        <time>2025-09-13T14:45:54Z</time>
      </trkpt>
      <trkpt lat="47.4467" lon="6.59719">
        <ele>294.4</ele>
        <time>2025-09-13T14:45:55Z</time>
      </trkpt>
      <trkpt lat="47.44663" lon="6.59718">
        <ele>294.4</ele>
        <time>2025-09-13T14:45:56Z</time>
      </trkpt>
      <trkpt lat="47.44655" lon="6.59719">
        <ele>294.4</ele>
        <time>2025-09-13T14:45:57Z</time>
      </trkpt>
      <trkpt lat="47.44647" lon="6.59719">
        <ele>294.4</ele>
        <time>2025-09-13T14:45:58Z</time>
      </trkpt>
      <trkpt lat="47.4464" lon="6.59719">
        <ele>294.4</ele>
        <time>2025-09-13T14:45:59Z</time>
      </trkpt>
      <trkpt lat="47.44632" lon="6.59719">
        <ele>294.4</ele>
        <time>2025-09-13T14:46:00Z</time>
      </trkpt>
      <trkpt lat="47.44625" lon="6.59719">
        <ele>294.5</ele>
        <time>2025-09-13T14:46:01Z</time>
      </trkpt>
      <trkpt lat="47.44617" lon="6.59718">
        <ele>294.5</ele>
        <time>2025-09-13T14:46:02Z</time>
      </trkpt>
      <trkpt lat="47.44611" lon="6.59717">
        <ele>294.5</ele>
        <time>2025-09-13T14:46:03Z</time>
      </trkpt>
      <trkpt lat="47.44604" lon="6.59716">
        <ele>294.6</ele>
        <time>2025-09-13T14:46:04Z</time>
      </trkpt>
      <trkpt lat="47.44596" lon="6.59716">
        <ele>294.6</ele>
        <time>2025-09-13T14:46:05Z</time>
      </trkpt>
      <trkpt lat="47.4459" lon="6.59714">
        <ele>294.6</ele>
        <time>2025-09-13T14:46:06Z</time>
      </trkpt>
      <trkpt lat="47.44584" lon="6.59713">
        <ele>294.7</ele>
        <time>2025-09-13T14:46:07Z</time>
      </trkpt>
      <trkpt lat="47.44578" lon="6.59713">
        <ele>294.7</ele>
        <time>2025-09-13T14:46:08Z</time>
      </trkpt>
      <trkpt lat="47.44571" lon="6.59713">
        <ele>294.7</ele>
        <time>2025-09-13T14:46:09Z</time>
      </trkpt>
      <trkpt lat="47.44564" lon="6.59711">
        <ele>294.7</ele>
        <time>2025-09-13T14:46:10Z</time>
      </trkpt>
      <trkpt lat="47.44557" lon="6.59711">
        <ele>294.7</ele>
        <time>2025-09-13T14:46:11Z</time>
      </trkpt>
      <trkpt lat="47.44549" lon="6.5971">
        <ele>294.7</ele>
        <time>2025-09-13T14:46:12Z</time>
      </trkpt>
      <trkpt lat="47.4454" lon="6.59711">
        <ele>294.7</ele>
        <time>2025-09-13T14:46:13Z</time>
      </trkpt>
      <trkpt lat="47.44533" lon="6.59711">
        <ele>294.7</ele>
        <time>2025-09-13T14:46:14Z</time>
      </trkpt>
      <trkpt lat="47.44526" lon="6.59711">
        <ele>294.7</ele>
        <time>2025-09-13T14:46:15Z</time>
      </trkpt>
      <trkpt lat="47.44519" lon="6.59712">
        <ele>294.7</ele>
        <time>2025-09-13T14:46:16Z</time>
      </trkpt>
      <trkpt lat="47.44513" lon="6.59712">
        <ele>294.7</ele>
        <time>2025-09-13T14:46:17Z</time>
      </trkpt>
      <trkpt lat="47.44507" lon="6.59712">
        <ele>294.7</ele>
        <time>2025-09-13T14:46:18Z</time>
      </trkpt>
      <trkpt lat="47.44499" lon="6.59712">
        <ele>294.8</ele>
        <time>2025-09-13T14:46:19Z</time>
      </trkpt>
      <trkpt lat="47.44491" lon="6.59712">
        <ele>294.8</ele>
        <time>2025-09-13T14:46:20Z</time>
      </trkpt>
      <trkpt lat="47.44485" lon="6.59712">
        <ele>294.8</ele>
        <time>2025-09-13T14:46:21Z</time>
      </trkpt>
      <trkpt lat="47.44478" lon="6.59712">
        <ele>294.8</ele>
        <time>2025-09-13T14:46:22Z</time>
      </trkpt>
      <trkpt lat="47.4447" lon="6.59712">
        <ele>294.9</ele>
        <time>2025-09-13T14:46:23Z</time>
      </trkpt>
      <trkpt lat="47.44463" lon="6.59715">
        <ele>294.9</ele>
        <time>2025-09-13T14:46:24Z</time>
      </trkpt>
      <trkpt lat="47.44454" lon="6.59715">
        <ele>294.8</ele>
        <time>2025-09-13T14:46:25Z</time>
      </trkpt>
      <trkpt lat="47.44449" lon="6.59715">
        <ele>294.8</ele>
        <time>2025-09-13T14:46:26Z</time>
      </trkpt>
      <trkpt lat="47.44443" lon="6.59715">
        <ele>294.8</ele>
        <time>2025-09-13T14:46:27Z</time>
      </trkpt>
      <trkpt lat="47.44436" lon="6.59715">
        <ele>294.8</ele>
        <time>2025-09-13T14:46:28Z</time>
      </trkpt>
      <trkpt lat="47.44428" lon="6.59716">
        <ele>294.8</ele>
        <time>2025-09-13T14:46:29Z</time>
      </trkpt>
      <trkpt lat="47.44419" lon="6.59716">
        <ele>294.9</ele>
        <time>2025-09-13T14:46:30Z</time>
      </trkpt>
      <trkpt lat="47.44411" lon="6.59715">
        <ele>294.9</ele>
        <time>2025-09-13T14:46:31Z</time>
      </trkpt>
      <trkpt lat="47.44403" lon="6.59716">
        <ele>294.9</ele>
        <time>2025-09-13T14:46:32Z</time>
      </trkpt>
      <trkpt lat="47.44396" lon="6.59716">
        <ele>294.9</ele>
        <time>2025-09-13T14:46:33Z</time>
      </trkpt>
      <trkpt lat="47.44391" lon="6.59717">
        <ele>294.9</ele>
        <time>2025-09-13T14:46:34Z</time>
      </trkpt>
      <trkpt lat="47.44384" lon="6.59718">
        <ele>294.9</ele>
        <time>2025-09-13T14:46:35Z</time>
      </trkpt>
      <trkpt lat="47.44378" lon="6.59718">
        <ele>294.9</ele>
        <time>2025-09-13T14:46:36Z</time>
      </trkpt>
      <trkpt lat="47.4437" lon="6.59719">
        <ele>294.9</ele>
        <time>2025-09-13T14:46:37Z</time>
      </trkpt>
      <trkpt lat="47.44363" lon="6.5972">
        <ele>294.9</ele>
        <time>2025-09-13T14:46:38Z</time>
      </trkpt>
      <trkpt lat="47.44356" lon="6.59721">
        <ele>294.8</ele>
        <time>2025-09-13T14:46:39Z</time>
      </trkpt>
      <trkpt lat="47.44348" lon="6.59723">
        <ele>294.8</ele>
        <time>2025-09-13T14:46:40Z</time>
      </trkpt>
      <trkpt lat="47.44341" lon="6.59723">
        <ele>294.8</ele>
        <time>2025-09-13T14:46:41Z</time>
      </trkpt>
      <trkpt lat="47.44334" lon="6.59725">
        <ele>294.8</ele>
        <time>2025-09-13T14:46:42Z</time>
      </trkpt>
      <trkpt lat="47.44326" lon="6.59728">
        <ele>294.8</ele>
        <time>2025-09-13T14:46:43Z</time>
      </trkpt>
      <trkpt lat="47.44318" lon="6.59729">
        <ele>294.8</ele>
        <time>2025-09-13T14:46:44Z</time>
      </trkpt>
      <trkpt lat="47.4431" lon="6.5973">
        <ele>294.8</ele>
        <time>2025-09-13T14:46:45Z</time>
      </trkpt>
      <trkpt lat="47.44302" lon="6.59731">
        <ele>294.8</ele>
        <time>2025-09-13T14:46:46Z</time>
      </trkpt>
      <trkpt lat="47.44295" lon="6.59731">
        <ele>294.8</ele>
        <time>2025-09-13T14:46:47Z</time>
      </trkpt>
      <trkpt lat="47.44287" lon="6.59733">
        <ele>294.8</ele>
        <time>2025-09-13T14:46:48Z</time>
      </trkpt>
      <trkpt lat="47.44279" lon="6.59735">
        <ele>294.8</ele>
        <time>2025-09-13T14:46:49Z</time>
      </trkpt>
      <trkpt lat="47.44272" lon="6.59736">
        <ele>294.8</ele>
        <time>2025-09-13T14:46:50Z</time>
      </trkpt>
      <trkpt lat="47.44264" lon="6.59738">
        <ele>294.8</ele>
        <time>2025-09-13T14:46:51Z</time>
      </trkpt>
      <trkpt lat="47.44257" lon="6.59739">
        <ele>294.8</ele>
        <time>2025-09-13T14:46:52Z</time>
      </trkpt>
      <trkpt lat="47.4425" lon="6.5974">
        <ele>294.9</ele>
        <time>2025-09-13T14:46:53Z</time>
      </trkpt>
      <trkpt lat="47.44243" lon="6.5974">
        <ele>294.9</ele>
        <time>2025-09-13T14:46:54Z</time>
      </trkpt>
      <trkpt lat="47.44236" lon="6.59741">
        <ele>294.9</ele>
        <time>2025-09-13T14:46:55Z</time>
      </trkpt>
      <trkpt lat="47.44228" lon="6.59742">
        <ele>294.9</ele>
        <time>2025-09-13T14:46:56Z</time>
      </trkpt>
      <trkpt lat="47.44222" lon="6.59743">
        <ele>294.9</ele>
        <time>2025-09-13T14:46:57Z</time>
      </trkpt>
      <trkpt lat="47.44217" lon="6.59745">
        <ele>294.8</ele>
        <time>2025-09-13T14:46:58Z</time>
      </trkpt>
      <trkpt lat="47.44211" lon="6.59745">
        <ele>294.8</ele>
        <time>2025-09-13T14:46:59Z</time>
      </trkpt>
      <trkpt lat="47.44201" lon="6.59749">
        <ele>294.7</ele>
        <time>2025-09-13T14:47:00Z</time>
      </trkpt>
      <trkpt lat="47.44194" lon="6.59752">
        <ele>294.7</ele>
        <time>2025-09-13T14:47:01Z</time>
      </trkpt>
      <trkpt lat="47.44189" lon="6.59754">
        <ele>294.7</ele>
        <time>2025-09-13T14:47:02Z</time>
      </trkpt>
      <trkpt lat="47.44181" lon="6.59755">
        <ele>294.7</ele>
        <time>2025-09-13T14:47:03Z</time>
      </trkpt>
      <trkpt lat="47.44174" lon="6.59756">
        <ele>294.7</ele>
        <time>2025-09-13T14:47:04Z</time>
      </trkpt>
      <trkpt lat="47.44165" lon="6.59756">
        <ele>294.8</ele>
        <time>2025-09-13T14:47:05Z</time>
      </trkpt>
      <trkpt lat="47.44157" lon="6.59758">
        <ele>294.8</ele>
        <time>2025-09-13T14:47:06Z</time>
      </trkpt>
      <trkpt lat="47.44149" lon="6.59759">
        <ele>294.8</ele>
        <time>2025-09-13T14:47:07Z</time>
      </trkpt>
      <trkpt lat="47.44141" lon="6.5976">
        <ele>294.8</ele>
        <time>2025-09-13T14:47:08Z</time>
      </trkpt>
      <trkpt lat="47.44135" lon="6.59762">
        <ele>294.8</ele>
        <time>2025-09-13T14:47:09Z</time>
      </trkpt>
      <trkpt lat="47.44128" lon="6.59763">
        <ele>294.8</ele>
        <time>2025-09-13T14:47:10Z</time>
      </trkpt>
      <trkpt lat="47.44121" lon="6.59765">
        <ele>294.8</ele>
        <time>2025-09-13T14:47:11Z</time>
      </trkpt>
      <trkpt lat="47.44114" lon="6.59767">
        <ele>294.8</ele>
        <time>2025-09-13T14:47:12Z</time>
      </trkpt>
      <trkpt lat="47.44107" lon="6.59768">
        <ele>294.8</ele>
        <time>2025-09-13T14:47:13Z</time>
      </trkpt>
      <trkpt lat="47.441" lon="6.59769">
        <ele>294.8</ele>
        <time>2025-09-13T14:47:14Z</time>
      </trkpt>
      <trkpt lat="47.44093" lon="6.5977">
        <ele>294.7</ele>
        <time>2025-09-13T14:47:15Z</time>
      </trkpt>
      <trkpt lat="47.44086" lon="6.59771">
        <ele>294.7</ele>
        <time>2025-09-13T14:47:16Z</time>
      </trkpt>
      <trkpt lat="47.44079" lon="6.59772">
        <ele>294.7</ele>
        <time>2025-09-13T14:47:17Z</time>
      </trkpt>
      <trkpt lat="47.44072" lon="6.59773">
        <ele>294.7</ele>
        <time>2025-09-13T14:47:18Z</time>
      </trkpt>
      <trkpt lat="47.44065" lon="6.59775">
        <ele>294.7</ele>
        <time>2025-09-13T14:47:19Z</time>
      </trkpt>
      <trkpt lat="47.44058" lon="6.59776">
        <ele>294.7</ele>
        <time>2025-09-13T14:47:20Z</time>
      </trkpt>
      <trkpt lat="47.4405" lon="6.59777">
        <ele>294.8</ele>
        <time>2025-09-13T14:47:21Z</time>
      </trkpt>
      <trkpt lat="47.44043" lon="6.59778">
        <ele>294.8</ele>
        <time>2025-09-13T14:47:22Z</time>
      </trkpt>
      <trkpt lat="47.44036" lon="6.59779">
        <ele>294.8</ele>
        <time>2025-09-13T14:47:23Z</time>
      </trkpt>
      <trkpt lat="47.44029" lon="6.59781">
        <ele>294.8</ele>
        <time>2025-09-13T14:47:24Z</time>
      </trkpt>
      <trkpt lat="47.44022" lon="6.59783">
        <ele>294.8</ele>
        <time>2025-09-13T14:47:25Z</time>
      </trkpt>
      <trkpt lat="47.44014" lon="6.59784">
        <ele>294.8</ele>
        <time>2025-09-13T14:47:26Z</time>
      </trkpt>
      <trkpt lat="47.44007" lon="6.59785">
        <ele>294.8</ele>
        <time>2025-09-13T14:47:27Z</time>
      </trkpt>
      <trkpt lat="47.43999" lon="6.59785">
        <ele>294.8</ele>
        <time>2025-09-13T14:47:28Z</time>
      </trkpt>
      <trkpt lat="47.43991" lon="6.59786">
        <ele>294.8</ele>
        <time>2025-09-13T14:47:29Z</time>
      </trkpt>
      <trkpt lat="47.43983" lon="6.59787">
        <ele>294.8</ele>
        <time>2025-09-13T14:47:30Z</time>
      </trkpt>
      <trkpt lat="47.43976" lon="6.59788">
        <ele>294.8</ele>
        <time>2025-09-13T14:47:31Z</time>
      </trkpt>
      <trkpt lat="47.43969" lon="6.59789">
        <ele>294.8</ele>
        <time>2025-09-13T14:47:32Z</time>
      </trkpt>
      <trkpt lat="47.43962" lon="6.59791">
        <ele>294.8</ele>
        <time>2025-09-13T14:47:33Z</time>
      </trkpt>
      <trkpt lat="47.43955" lon="6.59793">
        <ele>294.8</ele>
        <time>2025-09-13T14:47:34Z</time>
      </trkpt>
      <trkpt lat="47.43947" lon="6.59795">
        <ele>294.8</ele>
        <time>2025-09-13T14:47:35Z</time>
      </trkpt>
      <trkpt lat="47.43942" lon="6.59797">
        <ele>294.8</ele>
        <time>2025-09-13T14:47:36Z</time>
      </trkpt>
      <trkpt lat="47.43933" lon="6.59798">
        <ele>294.8</ele>
        <time>2025-09-13T14:47:37Z</time>
      </trkpt>
      <trkpt lat="47.43928" lon="6.598">
        <ele>294.8</ele>
        <time>2025-09-13T14:47:38Z</time>
      </trkpt>
      <trkpt lat="47.4392" lon="6.59801">
        <ele>294.8</ele>
        <time>2025-09-13T14:47:39Z</time>
      </trkpt>
      <trkpt lat="47.43912" lon="6.59803">
        <ele>294.8</ele>
        <time>2025-09-13T14:47:40Z</time>
      </trkpt>
      <trkpt lat="47.43905" lon="6.59805">
        <ele>294.8</ele>
        <time>2025-09-13T14:47:41Z</time>
      </trkpt>
      <trkpt lat="47.43898" lon="6.59806">
        <ele>294.8</ele>
        <time>2025-09-13T14:47:42Z</time>
      </trkpt>
      <trkpt lat="47.4389" lon="6.59808">
        <ele>294.8</ele>
        <time>2025-09-13T14:47:43Z</time>
      </trkpt>
      <trkpt lat="47.43883" lon="6.5981">
        <ele>294.8</ele>
        <time>2025-09-13T14:47:44Z</time>
      </trkpt>
      <trkpt lat="47.43875" lon="6.59812">
        <ele>294.8</ele>
        <time>2025-09-13T14:47:45Z</time>
      </trkpt>
      <trkpt lat="47.43867" lon="6.59813">
        <ele>294.9</ele>
        <time>2025-09-13T14:47:46Z</time>
      </trkpt>
      <trkpt lat="47.43859" lon="6.59814">
        <ele>294.9</ele>
        <time>2025-09-13T14:47:47Z</time>
      </trkpt>
      <trkpt lat="47.43851" lon="6.59816">
        <ele>294.9</ele>
        <time>2025-09-13T14:47:48Z</time>
      </trkpt>
      <trkpt lat="47.43844" lon="6.59816">
        <ele>294.9</ele>
        <time>2025-09-13T14:47:49Z</time>
      </trkpt>
      <trkpt lat="47.43837" lon="6.59818">
        <ele>294.9</ele>
        <time>2025-09-13T14:47:50Z</time>
      </trkpt>
      <trkpt lat="47.4383" lon="6.5982">
        <ele>294.9</ele>
        <time>2025-09-13T14:47:51Z</time>
      </trkpt>
      <trkpt lat="47.43822" lon="6.59821">
        <ele>294.9</ele>
        <time>2025-09-13T14:47:52Z</time>
      </trkpt>
      <trkpt lat="47.43815" lon="6.59823">
        <ele>294.9</ele>
        <time>2025-09-13T14:47:53Z</time>
      </trkpt>
      <trkpt lat="47.43808" lon="6.59825">
        <ele>294.9</ele>
        <time>2025-09-13T14:47:54Z</time>
      </trkpt>
      <trkpt lat="47.43801" lon="6.59827">
        <ele>294.9</ele>
        <time>2025-09-13T14:47:55Z</time>
      </trkpt>
      <trkpt lat="47.43794" lon="6.59829">
        <ele>294.9</ele>
        <time>2025-09-13T14:47:56Z</time>
      </trkpt>
      <trkpt lat="47.43787" lon="6.59831">
        <ele>294.9</ele>
        <time>2025-09-13T14:47:57Z</time>
      </trkpt>
      <trkpt lat="47.43779" lon="6.59834">
        <ele>294.9</ele>
        <time>2025-09-13T14:47:58Z</time>
      </trkpt>
      <trkpt lat="47.43772" lon="6.59836">
        <ele>294.9</ele>
        <time>2025-09-13T14:47:59Z</time>
      </trkpt>
      <trkpt lat="47.43765" lon="6.59838">
        <ele>294.9</ele>
        <time>2025-09-13T14:48:00Z</time>
      </trkpt>
      <trkpt lat="47.43757" lon="6.59839">
        <ele>294.9</ele>
        <time>2025-09-13T14:48:01Z</time>
      </trkpt>
      <trkpt lat="47.4375" lon="6.59843">
        <ele>294.9</ele>
        <time>2025-09-13T14:48:02Z</time>
      </trkpt>
      <trkpt lat="47.43743" lon="6.59846">
        <ele>294.9</ele>
        <time>2025-09-13T14:48:03Z</time>
      </trkpt>
      <trkpt lat="47.43736" lon="6.59848">
        <ele>295</ele>
        <time>2025-09-13T14:48:04Z</time>
      </trkpt>
      <trkpt lat="47.43729" lon="6.5985">
        <ele>295</ele>
        <time>2025-09-13T14:48:05Z</time>
      </trkpt>
      <trkpt lat="47.43721" lon="6.59854">
        <ele>295</ele>
        <time>2025-09-13T14:48:06Z</time>
      </trkpt>
      <trkpt lat="47.43715" lon="6.59856">
        <ele>295.1</ele>
        <time>2025-09-13T14:48:07Z</time>
      </trkpt>
      <trkpt lat="47.43708" lon="6.5986">
        <ele>295.1</ele>
        <time>2025-09-13T14:48:08Z</time>
      </trkpt>
      <trkpt lat="47.437" lon="6.59862">
        <ele>295.1</ele>
        <time>2025-09-13T14:48:09Z</time>
      </trkpt>
      <trkpt lat="47.43693" lon="6.59864">
        <ele>295.1</ele>
        <time>2025-09-13T14:48:10Z</time>
      </trkpt>
      <trkpt lat="47.43686" lon="6.59867">
        <ele>295</ele>
        <time>2025-09-13T14:48:11Z</time>
      </trkpt>
      <trkpt lat="47.43679" lon="6.5987">
        <ele>295</ele>
        <time>2025-09-13T14:48:12Z</time>
      </trkpt>
      <trkpt lat="47.43672" lon="6.59873">
        <ele>295</ele>
        <time>2025-09-13T14:48:13Z</time>
      </trkpt>
      <trkpt lat="47.43665" lon="6.59877">
        <ele>295</ele>
        <time>2025-09-13T14:48:14Z</time>
      </trkpt>
      <trkpt lat="47.43658" lon="6.59881">
        <ele>295</ele>
        <time>2025-09-13T14:48:15Z</time>
      </trkpt>
      <trkpt lat="47.4365" lon="6.59883">
        <ele>295</ele>
        <time>2025-09-13T14:48:16Z</time>
      </trkpt>
      <trkpt lat="47.43643" lon="6.59886">
        <ele>295</ele>
        <time>2025-09-13T14:48:17Z</time>
      </trkpt>
      <trkpt lat="47.43636" lon="6.5989">
        <ele>294.9</ele>
        <time>2025-09-13T14:48:18Z</time>
      </trkpt>
      <trkpt lat="47.4363" lon="6.59893">
        <ele>294.9</ele>
        <time>2025-09-13T14:48:19Z</time>
      </trkpt>
      <trkpt lat="47.43623" lon="6.59896">
        <ele>294.9</ele>
        <time>2025-09-13T14:48:20Z</time>
      </trkpt>
      <trkpt lat="47.43616" lon="6.59899">
        <ele>294.9</ele>
        <time>2025-09-13T14:48:21Z</time>
      </trkpt>
      <trkpt lat="47.4361" lon="6.59904">
        <ele>294.8</ele>
        <time>2025-09-13T14:48:22Z</time>
      </trkpt>
      <trkpt lat="47.43602" lon="6.59907">
        <ele>294.8</ele>
        <time>2025-09-13T14:48:23Z</time>
      </trkpt>
      <trkpt lat="47.43595" lon="6.5991">
        <ele>294.8</ele>
        <time>2025-09-13T14:48:24Z</time>
      </trkpt>
      <trkpt lat="47.43588" lon="6.59914">
        <ele>294.8</ele>
        <time>2025-09-13T14:48:25Z</time>
      </trkpt>
      <trkpt lat="47.43581" lon="6.59916">
        <ele>294.8</ele>
        <time>2025-09-13T14:48:26Z</time>
      </trkpt>
      <trkpt lat="47.43574" lon="6.5992">
        <ele>294.8</ele>
        <time>2025-09-13T14:48:27Z</time>
      </trkpt>
      <trkpt lat="47.43568" lon="6.59923">
        <ele>294.8</ele>
        <time>2025-09-13T14:48:28Z</time>
      </trkpt>
      <trkpt lat="47.43562" lon="6.59926">
        <ele>294.8</ele>
        <time>2025-09-13T14:48:29Z</time>
      </trkpt>
      <trkpt lat="47.43555" lon="6.59929">
        <ele>294.8</ele>
        <time>2025-09-13T14:48:30Z</time>
      </trkpt>
      <trkpt lat="47.43548" lon="6.59933">
        <ele>294.8</ele>
        <time>2025-09-13T14:48:31Z</time>
      </trkpt>
      <trkpt lat="47.43542" lon="6.59936">
        <ele>294.8</ele>
        <time>2025-09-13T14:48:32Z</time>
      </trkpt>
      <trkpt lat="47.43536" lon="6.59944">
        <ele>294.8</ele>
        <time>2025-09-13T14:48:33Z</time>
      </trkpt>
      <trkpt lat="47.43528" lon="6.59948">
        <ele>294.7</ele>
        <time>2025-09-13T14:48:34Z</time>
      </trkpt>
      <trkpt lat="47.43521" lon="6.59949">
        <ele>294.7</ele>
        <time>2025-09-13T14:48:35Z</time>
      </trkpt>
      <trkpt lat="47.43512" lon="6.59946">
        <ele>294.7</ele>
        <time>2025-09-13T14:48:36Z</time>
      </trkpt>
      <trkpt lat="47.43507" lon="6.59954">
        <ele>294.7</ele>
        <time>2025-09-13T14:48:37Z</time>
      </trkpt>
      <trkpt lat="47.435" lon="6.59956">
        <ele>294.7</ele>
        <time>2025-09-13T14:48:38Z</time>
      </trkpt>
      <trkpt lat="47.43494" lon="6.5996">
        <ele>294.7</ele>
        <time>2025-09-13T14:48:39Z</time>
      </trkpt>
      <trkpt lat="47.43486" lon="6.59965">
        <ele>294.7</ele>
        <time>2025-09-13T14:48:40Z</time>
      </trkpt>
      <trkpt lat="47.43479" lon="6.59969">
        <ele>294.7</ele>
        <time>2025-09-13T14:48:41Z</time>
      </trkpt>
      <trkpt lat="47.43472" lon="6.59973">
        <ele>294.7</ele>
        <time>2025-09-13T14:48:42Z</time>
      </trkpt>
      <trkpt lat="47.43466" lon="6.59974">
        <ele>294.7</ele>
        <time>2025-09-13T14:48:43Z</time>
      </trkpt>
      <trkpt lat="47.43459" lon="6.59979">
        <ele>294.7</ele>
        <time>2025-09-13T14:48:44Z</time>
      </trkpt>
      <trkpt lat="47.43453" lon="6.59982">
        <ele>294.7</ele>
        <time>2025-09-13T14:48:45Z</time>
      </trkpt>
      <trkpt lat="47.43446" lon="6.59985">
        <ele>294.7</ele>
        <time>2025-09-13T14:48:46Z</time>
      </trkpt>
      <trkpt lat="47.4344" lon="6.59988">
        <ele>294.7</ele>
        <time>2025-09-13T14:48:47Z</time>
      </trkpt>
      <trkpt lat="47.43434" lon="6.59992">
        <ele>294.7</ele>
        <time>2025-09-13T14:48:48Z</time>
      </trkpt>
      <trkpt lat="47.43428" lon="6.59994">
        <ele>294.8</ele>
        <time>2025-09-13T14:48:49Z</time>
      </trkpt>
      <trkpt lat="47.43422" lon="6.59997">
        <ele>294.8</ele>
        <time>2025-09-13T14:48:50Z</time>
      </trkpt>
      <trkpt lat="47.43416" lon="6.6">
        <ele>294.8</ele>
        <time>2025-09-13T14:48:51Z</time>
      </trkpt>
      <trkpt lat="47.4341" lon="6.60002">
        <ele>294.8</ele>
        <time>2025-09-13T14:48:52Z</time>
      </trkpt>
      <trkpt lat="47.43405" lon="6.60005">
        <ele>294.9</ele>
        <time>2025-09-13T14:48:53Z</time>
      </trkpt>
      <trkpt lat="47.434" lon="6.60008">
        <ele>294.9</ele>
        <time>2025-09-13T14:48:54Z</time>
      </trkpt>
      <trkpt lat="47.43394" lon="6.60013">
        <ele>294.9</ele>
        <time>2025-09-13T14:48:55Z</time>
      </trkpt>
      <trkpt lat="47.43388" lon="6.60017">
        <ele>294.9</ele>
        <time>2025-09-13T14:48:56Z</time>
      </trkpt>
      <trkpt lat="47.43384" lon="6.60022">
        <ele>294.9</ele>
        <time>2025-09-13T14:48:57Z</time>
      </trkpt>
      <trkpt lat="47.43379" lon="6.60028">
        <ele>294.9</ele>
        <time>2025-09-13T14:48:58Z</time>
      </trkpt>
      <trkpt lat="47.43373" lon="6.60033">
        <ele>294.9</ele>
        <time>2025-09-13T14:48:59Z</time>
      </trkpt>
      <trkpt lat="47.43368" lon="6.60038">
        <ele>294.9</ele>
        <time>2025-09-13T14:49:00Z</time>
      </trkpt>
      <trkpt lat="47.43366" lon="6.6005">
        <ele>294.9</ele>
        <time>2025-09-13T14:49:01Z</time>
      </trkpt>
      <trkpt lat="47.4336" lon="6.60053">
        <ele>294.9</ele>
        <time>2025-09-13T14:49:02Z</time>
      </trkpt>
      <trkpt lat="47.43354" lon="6.60059">
        <ele>294.9</ele>
        <time>2025-09-13T14:49:03Z</time>
      </trkpt>
      <trkpt lat="47.4335" lon="6.60067">
        <ele>294.9</ele>
        <time>2025-09-13T14:49:04Z</time>
      </trkpt>
      <trkpt lat="47.43346" lon="6.60072">
        <ele>294.8</ele>
        <time>2025-09-13T14:49:05Z</time>
      </trkpt>
      <trkpt lat="47.43339" lon="6.60078">
        <ele>294.8</ele>
        <time>2025-09-13T14:49:06Z</time>
      </trkpt>
      <trkpt lat="47.43335" lon="6.60085">
        <ele>294.8</ele>
        <time>2025-09-13T14:49:07Z</time>
      </trkpt>
      <trkpt lat="47.43331" lon="6.60092">
        <ele>294.8</ele>
        <time>2025-09-13T14:49:08Z</time>
      </trkpt>
      <trkpt lat="47.43328" lon="6.601">
        <ele>294.8</ele>
        <time>2025-09-13T14:49:09Z</time>
      </trkpt>
      <trkpt lat="47.43324" lon="6.60108">
        <ele>294.8</ele>
        <time>2025-09-13T14:49:10Z</time>
      </trkpt>
      <trkpt lat="47.4332" lon="6.60116">
        <ele>294.7</ele>
        <time>2025-09-13T14:49:11Z</time>
      </trkpt>
      <trkpt lat="47.43316" lon="6.6012">
        <ele>294.7</ele>
        <time>2025-09-13T14:49:12Z</time>
      </trkpt>
      <trkpt lat="47.43312" lon="6.60127">
        <ele>294.7</ele>
        <time>2025-09-13T14:49:13Z</time>
      </trkpt>
      <trkpt lat="47.4331" lon="6.60136">
        <ele>294.7</ele>
        <time>2025-09-13T14:49:14Z</time>
      </trkpt>
      <trkpt lat="47.43306" lon="6.60145">
        <ele>294.7</ele>
        <time>2025-09-13T14:49:15Z</time>
      </trkpt>
      <trkpt lat="47.43303" lon="6.60153">
        <ele>294.7</ele>
        <time>2025-09-13T14:49:16Z</time>
      </trkpt>
      <trkpt lat="47.43299" lon="6.60161">
        <ele>294.7</ele>
        <time>2025-09-13T14:49:17Z</time>
      </trkpt>
      <trkpt lat="47.43295" lon="6.60167">
        <ele>294.7</ele>
        <time>2025-09-13T14:49:18Z</time>
      </trkpt>
      <trkpt lat="47.43291" lon="6.60175">
        <ele>294.6</ele>
        <time>2025-09-13T14:49:19Z</time>
      </trkpt>
      <trkpt lat="47.43288" lon="6.60183">
        <ele>294.6</ele>
        <time>2025-09-13T14:49:20Z</time>
      </trkpt>
      <trkpt lat="47.43285" lon="6.60191">
        <ele>294.6</ele>
        <time>2025-09-13T14:49:21Z</time>
      </trkpt>
      <trkpt lat="47.43282" lon="6.602">
        <ele>294.6</ele>
        <time>2025-09-13T14:49:22Z</time>
      </trkpt>
      <trkpt lat="47.43278" lon="6.60208">
        <ele>294.6</ele>
        <time>2025-09-13T14:49:23Z</time>
      </trkpt>
      <trkpt lat="47.43275" lon="6.60215">
        <ele>294.6</ele>
        <time>2025-09-13T14:49:24Z</time>
      </trkpt>
      <trkpt lat="47.43272" lon="6.60224">
        <ele>294.6</ele>
        <time>2025-09-13T14:49:25Z</time>
      </trkpt>
      <trkpt lat="47.43268" lon="6.60232">
        <ele>294.5</ele>
        <time>2025-09-13T14:49:27Z</time>
      </trkpt>
      <trkpt lat="47.43264" lon="6.6024">
        <ele>294.5</ele>
        <time>2025-09-13T14:49:28Z</time>
      </trkpt>
      <trkpt lat="47.43261" lon="6.60248">
        <ele>294.5</ele>
        <time>2025-09-13T14:49:29Z</time>
      </trkpt>
      <trkpt lat="47.43258" lon="6.60256">
        <ele>294.5</ele>
        <time>2025-09-13T14:49:30Z</time>
      </trkpt>
      <trkpt lat="47.43254" lon="6.60264">
        <ele>294.5</ele>
        <time>2025-09-13T14:49:31Z</time>
      </trkpt>
      <trkpt lat="47.4325" lon="6.60272">
        <ele>294.5</ele>
        <time>2025-09-13T14:49:32Z</time>
      </trkpt>
      <trkpt lat="47.43247" lon="6.60279">
        <ele>294.5</ele>
        <time>2025-09-13T14:49:33Z</time>
      </trkpt>
      <trkpt lat="47.43244" lon="6.60287">
        <ele>294.6</ele>
        <time>2025-09-13T14:49:34Z</time>
      </trkpt>
      <trkpt lat="47.4324" lon="6.60295">
        <ele>294.6</ele>
        <time>2025-09-13T14:49:35Z</time>
      </trkpt>
      <trkpt lat="47.43236" lon="6.60303">
        <ele>294.6</ele>
        <time>2025-09-13T14:49:36Z</time>
      </trkpt>
      <trkpt lat="47.43232" lon="6.6031">
        <ele>294.6</ele>
        <time>2025-09-13T14:49:37Z</time>
      </trkpt>
      <trkpt lat="47.43229" lon="6.60317">
        <ele>294.6</ele>
        <time>2025-09-13T14:49:38Z</time>
      </trkpt>
      <trkpt lat="47.43225" lon="6.60325">
        <ele>294.6</ele>
        <time>2025-09-13T14:49:39Z</time>
      </trkpt>
      <trkpt lat="47.43222" lon="6.60331">
        <ele>294.6</ele>
        <time>2025-09-13T14:49:40Z</time>
      </trkpt>
      <trkpt lat="47.43218" lon="6.6034">
        <ele>294.6</ele>
        <time>2025-09-13T14:49:41Z</time>
      </trkpt>
      <trkpt lat="47.43215" lon="6.60347">
        <ele>294.6</ele>
        <time>2025-09-13T14:49:42Z</time>
      </trkpt>
      <trkpt lat="47.43212" lon="6.60355">
        <ele>294.6</ele>
        <time>2025-09-13T14:49:43Z</time>
      </trkpt>
      <trkpt lat="47.43209" lon="6.60363">
        <ele>294.6</ele>
        <time>2025-09-13T14:49:44Z</time>
      </trkpt>
      <trkpt lat="47.43202" lon="6.60379">
        <ele>294.7</ele>
        <time>2025-09-13T14:49:45Z</time>
      </trkpt>
      <trkpt lat="47.43198" lon="6.60387">
        <ele>294.7</ele>
        <time>2025-09-13T14:49:46Z</time>
      </trkpt>
      <trkpt lat="47.43195" lon="6.60394">
        <ele>294.7</ele>
        <time>2025-09-13T14:49:47Z</time>
      </trkpt>
      <trkpt lat="47.43192" lon="6.60402">
        <ele>294.7</ele>
        <time>2025-09-13T14:49:48Z</time>
      </trkpt>
      <trkpt lat="47.43188" lon="6.6041">
        <ele>294.7</ele>
        <time>2025-09-13T14:49:49Z</time>
      </trkpt>
      <trkpt lat="47.43184" lon="6.60418">
        <ele>294.7</ele>
        <time>2025-09-13T14:49:50Z</time>
      </trkpt>
      <trkpt lat="47.43181" lon="6.60425">
        <ele>294.8</ele>
        <time>2025-09-13T14:49:51Z</time>
      </trkpt>
      <trkpt lat="47.43177" lon="6.60432">
        <ele>294.8</ele>
        <time>2025-09-13T14:49:52Z</time>
      </trkpt>
      <trkpt lat="47.43174" lon="6.6044">
        <ele>294.8</ele>
        <time>2025-09-13T14:49:53Z</time>
      </trkpt>
      <trkpt lat="47.43171" lon="6.60449">
        <ele>294.8</ele>
        <time>2025-09-13T14:49:54Z</time>
      </trkpt>
      <trkpt lat="47.43168" lon="6.60458">
        <ele>294.9</ele>
        <time>2025-09-13T14:49:55Z</time>
      </trkpt>
      <trkpt lat="47.43164" lon="6.60466">
        <ele>294.9</ele>
        <time>2025-09-13T14:49:56Z</time>
      </trkpt>
      <trkpt lat="47.43161" lon="6.60474">
        <ele>294.9</ele>
        <time>2025-09-13T14:49:57Z</time>
      </trkpt>
      <trkpt lat="47.43157" lon="6.60482">
        <ele>294.9</ele>
        <time>2025-09-13T14:49:58Z</time>
      </trkpt>
      <trkpt lat="47.43153" lon="6.60489">
        <ele>294.9</ele>
        <time>2025-09-13T14:49:59Z</time>
      </trkpt>
      <trkpt lat="47.4315" lon="6.60497">
        <ele>294.9</ele>
        <time>2025-09-13T14:50:00Z</time>
      </trkpt>
      <trkpt lat="47.43147" lon="6.60505">
        <ele>295</ele>
        <time>2025-09-13T14:50:01Z</time>
      </trkpt>
      <trkpt lat="47.43143" lon="6.60514">
        <ele>295</ele>
        <time>2025-09-13T14:50:02Z</time>
      </trkpt>
      <trkpt lat="47.43139" lon="6.60521">
        <ele>295</ele>
        <time>2025-09-13T14:50:03Z</time>
      </trkpt>
      <trkpt lat="47.43136" lon="6.60528">
        <ele>295</ele>
        <time>2025-09-13T14:50:04Z</time>
      </trkpt>
      <trkpt lat="47.43133" lon="6.60536">
        <ele>295</ele>
        <time>2025-09-13T14:50:05Z</time>
      </trkpt>
      <trkpt lat="47.43129" lon="6.60544">
        <ele>295</ele>
        <time>2025-09-13T14:50:06Z</time>
      </trkpt>
      <trkpt lat="47.43125" lon="6.60552">
        <ele>295</ele>
        <time>2025-09-13T14:50:07Z</time>
      </trkpt>
      <trkpt lat="47.43121" lon="6.60559">
        <ele>295</ele>
        <time>2025-09-13T14:50:08Z</time>
      </trkpt>
      <trkpt lat="47.43118" lon="6.60568">
        <ele>295</ele>
        <time>2025-09-13T14:50:09Z</time>
      </trkpt>
      <trkpt lat="47.43114" lon="6.60575">
        <ele>295</ele>
        <time>2025-09-13T14:50:10Z</time>
      </trkpt>
      <trkpt lat="47.43111" lon="6.60583">
        <ele>295</ele>
        <time>2025-09-13T14:50:11Z</time>
      </trkpt>
      <trkpt lat="47.43107" lon="6.60591">
        <ele>295.1</ele>
        <time>2025-09-13T14:50:12Z</time>
      </trkpt>
      <trkpt lat="47.43103" lon="6.60599">
        <ele>295.1</ele>
        <time>2025-09-13T14:50:13Z</time>
      </trkpt>
      <trkpt lat="47.431" lon="6.60607">
        <ele>295.1</ele>
        <time>2025-09-13T14:50:14Z</time>
      </trkpt>
      <trkpt lat="47.43097" lon="6.60616">
        <ele>295.1</ele>
        <time>2025-09-13T14:50:15Z</time>
      </trkpt>
      <trkpt lat="47.43093" lon="6.60623">
        <ele>295.1</ele>
        <time>2025-09-13T14:50:16Z</time>
      </trkpt>
      <trkpt lat="47.43089" lon="6.60632">
        <ele>295.2</ele>
        <time>2025-09-13T14:50:17Z</time>
      </trkpt>
      <trkpt lat="47.43086" lon="6.6064">
        <ele>295.2</ele>
        <time>2025-09-13T14:50:18Z</time>
      </trkpt>
      <trkpt lat="47.43083" lon="6.60648">
        <ele>295.2</ele>
        <time>2025-09-13T14:50:19Z</time>
      </trkpt>
      <trkpt lat="47.43079" lon="6.60656">
        <ele>295.2</ele>
        <time>2025-09-13T14:50:20Z</time>
      </trkpt>
      <trkpt lat="47.43075" lon="6.60664">
        <ele>295.3</ele>
        <time>2025-09-13T14:50:21Z</time>
      </trkpt>
      <trkpt lat="47.43071" lon="6.60674">
        <ele>295.3</ele>
        <time>2025-09-13T14:50:22Z</time>
      </trkpt>
      <trkpt lat="47.43067" lon="6.60681">
        <ele>295.3</ele>
        <time>2025-09-13T14:50:23Z</time>
      </trkpt>
      <trkpt lat="47.43064" lon="6.60689">
        <ele>295.3</ele>
        <time>2025-09-13T14:50:24Z</time>
      </trkpt>
      <trkpt lat="47.43061" lon="6.60697">
        <ele>295.4</ele>
        <time>2025-09-13T14:50:25Z</time>
      </trkpt>
      <trkpt lat="47.43057" lon="6.60706">
        <ele>295.4</ele>
        <time>2025-09-13T14:50:26Z</time>
      </trkpt>
      <trkpt lat="47.43054" lon="6.60715">
        <ele>295.4</ele>
        <time>2025-09-13T14:50:27Z</time>
      </trkpt>
      <trkpt lat="47.4305" lon="6.60722">
        <ele>295.4</ele>
        <time>2025-09-13T14:50:28Z</time>
      </trkpt>
      <trkpt lat="47.43047" lon="6.60729">
        <ele>295.5</ele>
        <time>2025-09-13T14:50:29Z</time>
      </trkpt>
      <trkpt lat="47.43044" lon="6.60737">
        <ele>295.5</ele>
        <time>2025-09-13T14:50:30Z</time>
      </trkpt>
      <trkpt lat="47.43039" lon="6.60744">
        <ele>295.5</ele>
        <time>2025-09-13T14:50:31Z</time>
      </trkpt>
      <trkpt lat="47.43035" lon="6.60751">
        <ele>295.5</ele>
        <time>2025-09-13T14:50:32Z</time>
      </trkpt>
      <trkpt lat="47.4303" lon="6.60758">
        <ele>295.5</ele>
        <time>2025-09-13T14:50:33Z</time>
      </trkpt>
      <trkpt lat="47.43028" lon="6.60769">
        <ele>295.5</ele>
        <time>2025-09-13T14:50:34Z</time>
      </trkpt>
      <trkpt lat="47.43024" lon="6.60776">
        <ele>295.5</ele>
        <time>2025-09-13T14:50:35Z</time>
      </trkpt>
      <trkpt lat="47.4302" lon="6.60785">
        <ele>295.5</ele>
        <time>2025-09-13T14:50:36Z</time>
      </trkpt>
      <trkpt lat="47.43017" lon="6.60793">
        <ele>295.5</ele>
        <time>2025-09-13T14:50:37Z</time>
      </trkpt>
      <trkpt lat="47.43013" lon="6.60801">
        <ele>295.5</ele>
        <time>2025-09-13T14:50:38Z</time>
      </trkpt>
      <trkpt lat="47.4301" lon="6.60808">
        <ele>295.5</ele>
        <time>2025-09-13T14:50:39Z</time>
      </trkpt>
      <trkpt lat="47.43007" lon="6.60816">
        <ele>295.5</ele>
        <time>2025-09-13T14:50:40Z</time>
      </trkpt>
      <trkpt lat="47.43004" lon="6.60825">
        <ele>295.5</ele>
        <time>2025-09-13T14:50:41Z</time>
      </trkpt>
      <trkpt lat="47.43" lon="6.60834">
        <ele>295.6</ele>
        <time>2025-09-13T14:50:42Z</time>
      </trkpt>
      <trkpt lat="47.42997" lon="6.60842">
        <ele>295.6</ele>
        <time>2025-09-13T14:50:43Z</time>
      </trkpt>
      <trkpt lat="47.42993" lon="6.60851">
        <ele>295.6</ele>
        <time>2025-09-13T14:50:44Z</time>
      </trkpt>
      <trkpt lat="47.4299" lon="6.60859">
        <ele>295.6</ele>
        <time>2025-09-13T14:50:45Z</time>
      </trkpt>
      <trkpt lat="47.42986" lon="6.60867">
        <ele>295.6</ele>
        <time>2025-09-13T14:50:46Z</time>
      </trkpt>
      <trkpt lat="47.42983" lon="6.60875">
        <ele>295.6</ele>
        <time>2025-09-13T14:50:47Z</time>
      </trkpt>
      <trkpt lat="47.4298" lon="6.60884">
        <ele>295.6</ele>
        <time>2025-09-13T14:50:48Z</time>
      </trkpt>
      <trkpt lat="47.42976" lon="6.60891">
        <ele>295.6</ele>
        <time>2025-09-13T14:50:49Z</time>
      </trkpt>
      <trkpt lat="47.42972" lon="6.609">
        <ele>295.6</ele>
        <time>2025-09-13T14:50:50Z</time>
      </trkpt>
      <trkpt lat="47.42969" lon="6.60909">
        <ele>295.7</ele>
        <time>2025-09-13T14:50:51Z</time>
      </trkpt>
      <trkpt lat="47.42965" lon="6.60917">
        <ele>295.7</ele>
        <time>2025-09-13T14:50:52Z</time>
      </trkpt>
      <trkpt lat="47.42961" lon="6.60926">
        <ele>295.7</ele>
        <time>2025-09-13T14:50:53Z</time>
      </trkpt>
      <trkpt lat="47.42958" lon="6.60934">
        <ele>295.7</ele>
        <time>2025-09-13T14:50:54Z</time>
      </trkpt>
      <trkpt lat="47.42953" lon="6.60943">
        <ele>295.6</ele>
        <time>2025-09-13T14:50:55Z</time>
      </trkpt>
      <trkpt lat="47.42949" lon="6.6095">
        <ele>295.6</ele>
        <time>2025-09-13T14:50:56Z</time>
      </trkpt>
      <trkpt lat="47.42946" lon="6.60959">
        <ele>295.6</ele>
        <time>2025-09-13T14:50:57Z</time>
      </trkpt>
      <trkpt lat="47.42942" lon="6.60967">
        <ele>295.6</ele>
        <time>2025-09-13T14:50:58Z</time>
      </trkpt>
      <trkpt lat="47.42938" lon="6.60976">
        <ele>295.6</ele>
        <time>2025-09-13T14:50:59Z</time>
      </trkpt>
      <trkpt lat="47.42935" lon="6.60985">
        <ele>295.6</ele>
        <time>2025-09-13T14:51:00Z</time>
      </trkpt>
      <trkpt lat="47.42932" lon="6.60995">
        <ele>295.6</ele>
        <time>2025-09-13T14:51:01Z</time>
      </trkpt>
      <trkpt lat="47.42927" lon="6.61003">
        <ele>295.6</ele>
        <time>2025-09-13T14:51:02Z</time>
      </trkpt>
      <trkpt lat="47.42923" lon="6.61012">
        <ele>295.6</ele>
        <time>2025-09-13T14:51:03Z</time>
      </trkpt>
      <trkpt lat="47.42919" lon="6.6102">
        <ele>295.6</ele>
        <time>2025-09-13T14:51:04Z</time>
      </trkpt>
      <trkpt lat="47.42916" lon="6.61029">
        <ele>295.7</ele>
        <time>2025-09-13T14:51:05Z</time>
      </trkpt>
      <trkpt lat="47.42912" lon="6.61036">
        <ele>295.7</ele>
        <time>2025-09-13T14:51:06Z</time>
      </trkpt>
      <trkpt lat="47.42908" lon="6.61046">
        <ele>295.7</ele>
        <time>2025-09-13T14:51:07Z</time>
      </trkpt>
      <trkpt lat="47.42905" lon="6.61054">
        <ele>295.7</ele>
        <time>2025-09-13T14:51:08Z</time>
      </trkpt>
      <trkpt lat="47.42901" lon="6.61062">
        <ele>295.7</ele>
        <time>2025-09-13T14:51:09Z</time>
      </trkpt>
      <trkpt lat="47.42897" lon="6.61071">
        <ele>295.8</ele>
        <time>2025-09-13T14:51:10Z</time>
      </trkpt>
      <trkpt lat="47.42894" lon="6.6108">
        <ele>295.8</ele>
        <time>2025-09-13T14:51:11Z</time>
      </trkpt>
      <trkpt lat="47.4289" lon="6.61088">
        <ele>295.8</ele>
        <time>2025-09-13T14:51:12Z</time>
      </trkpt>
      <trkpt lat="47.42887" lon="6.61097">
        <ele>295.8</ele>
        <time>2025-09-13T14:51:13Z</time>
      </trkpt>
      <trkpt lat="47.42884" lon="6.61105">
        <ele>295.9</ele>
        <time>2025-09-13T14:51:14Z</time>
      </trkpt>
      <trkpt lat="47.4288" lon="6.61113">
        <ele>295.9</ele>
        <time>2025-09-13T14:51:15Z</time>
      </trkpt>
      <trkpt lat="47.42876" lon="6.61122">
        <ele>295.9</ele>
        <time>2025-09-13T14:51:16Z</time>
      </trkpt>
      <trkpt lat="47.42874" lon="6.6113">
        <ele>295.9</ele>
        <time>2025-09-13T14:51:17Z</time>
      </trkpt>
      <trkpt lat="47.42871" lon="6.61139">
        <ele>295.9</ele>
        <time>2025-09-13T14:51:18Z</time>
      </trkpt>
      <trkpt lat="47.42868" lon="6.61148">
        <ele>295.9</ele>
        <time>2025-09-13T14:51:19Z</time>
      </trkpt>
      <trkpt lat="47.42864" lon="6.61157">
        <ele>295.9</ele>
        <time>2025-09-13T14:51:20Z</time>
      </trkpt>
      <trkpt lat="47.42861" lon="6.61165">
        <ele>295.9</ele>
        <time>2025-09-13T14:51:21Z</time>
      </trkpt>
      <trkpt lat="47.42858" lon="6.61174">
        <ele>295.8</ele>
        <time>2025-09-13T14:51:22Z</time>
      </trkpt>
      <trkpt lat="47.42855" lon="6.61183">
        <ele>295.8</ele>
        <time>2025-09-13T14:51:23Z</time>
      </trkpt>
      <trkpt lat="47.42851" lon="6.61194">
        <ele>295.8</ele>
        <time>2025-09-13T14:51:24Z</time>
      </trkpt>
      <trkpt lat="47.42848" lon="6.61203">
        <ele>295.8</ele>
        <time>2025-09-13T14:51:25Z</time>
      </trkpt>
      <trkpt lat="47.42845" lon="6.61211">
        <ele>295.8</ele>
        <time>2025-09-13T14:51:26Z</time>
      </trkpt>
      <trkpt lat="47.4284" lon="6.6122">
        <ele>295.8</ele>
        <time>2025-09-13T14:51:27Z</time>
      </trkpt>
      <trkpt lat="47.42837" lon="6.6123">
        <ele>295.9</ele>
        <time>2025-09-13T14:51:28Z</time>
      </trkpt>
      <trkpt lat="47.42834" lon="6.61239">
        <ele>296</ele>
        <time>2025-09-13T14:51:29Z</time>
      </trkpt>
      <trkpt lat="47.42831" lon="6.61248">
        <ele>296.2</ele>
        <time>2025-09-13T14:51:30Z</time>
      </trkpt>
      <trkpt lat="47.42827" lon="6.61257">
        <ele>296.3</ele>
        <time>2025-09-13T14:51:31Z</time>
      </trkpt>
      <trkpt lat="47.42825" lon="6.61268">
        <ele>296.6</ele>
        <time>2025-09-13T14:51:32Z</time>
      </trkpt>
      <trkpt lat="47.42822" lon="6.61277">
        <ele>296.7</ele>
        <time>2025-09-13T14:51:34Z</time>
      </trkpt>
      <trkpt lat="47.42821" lon="6.61286">
        <ele>296.8</ele>
        <time>2025-09-13T14:51:35Z</time>
      </trkpt>
      <trkpt lat="47.4282" lon="6.61296">
        <ele>296.9</ele>
        <time>2025-09-13T14:51:36Z</time>
      </trkpt>
      <trkpt lat="47.42818" lon="6.61304">
        <ele>297</ele>
        <time>2025-09-13T14:51:37Z</time>
      </trkpt>
      <trkpt lat="47.42815" lon="6.6131">
        <ele>297.1</ele>
        <time>2025-09-13T14:51:38Z</time>
      </trkpt>
      <trkpt lat="47.42809" lon="6.61309">
        <ele>297.2</ele>
        <time>2025-09-13T14:51:39Z</time>
      </trkpt>
      <trkpt lat="47.42804" lon="6.61301">
        <ele>297.3</ele>
        <time>2025-09-13T14:51:40Z</time>
      </trkpt>
      <trkpt lat="47.428" lon="6.61294">
        <ele>297.3</ele>
        <time>2025-09-13T14:51:41Z</time>
      </trkpt>
      <trkpt lat="47.42796" lon="6.61292">
        <ele>297.4</ele>
        <time>2025-09-13T14:51:42Z</time>
      </trkpt>
      <trkpt lat="47.42791" lon="6.61293">
        <ele>297.2</ele>
        <time>2025-09-13T14:51:43Z</time>
      </trkpt>
      <trkpt lat="47.42786" lon="6.61299">
        <ele>297</ele>
        <time>2025-09-13T14:51:44Z</time>
      </trkpt>
      <trkpt lat="47.42784" lon="6.61308">
        <ele>296.8</ele>
        <time>2025-09-13T14:51:45Z</time>
      </trkpt>
      <trkpt lat="47.42782" lon="6.61317">
        <ele>296.6</ele>
        <time>2025-09-13T14:51:46Z</time>
      </trkpt>
      <trkpt lat="47.4278" lon="6.61325">
        <ele>296.5</ele>
        <time>2025-09-13T14:51:47Z</time>
      </trkpt>
      <trkpt lat="47.42777" lon="6.61333">
        <ele>296.5</ele>
        <time>2025-09-13T14:51:48Z</time>
      </trkpt>
      <trkpt lat="47.42774" lon="6.61342">
        <ele>296.5</ele>
        <time>2025-09-13T14:51:49Z</time>
      </trkpt>
      <trkpt lat="47.42769" lon="6.61359">
        <ele>296.6</ele>
        <time>2025-09-13T14:51:50Z</time>
      </trkpt>
      <trkpt lat="47.42766" lon="6.61365">
        <ele>296.7</ele>
        <time>2025-09-13T14:51:51Z</time>
      </trkpt>
      <trkpt lat="47.42764" lon="6.61375">
        <ele>296.8</ele>
        <time>2025-09-13T14:51:52Z</time>
      </trkpt>
      <trkpt lat="47.4276" lon="6.61383">
        <ele>296.9</ele>
        <time>2025-09-13T14:51:53Z</time>
      </trkpt>
      <trkpt lat="47.42757" lon="6.61393">
        <ele>297</ele>
        <time>2025-09-13T14:51:54Z</time>
      </trkpt>
      <trkpt lat="47.42753" lon="6.614">
        <ele>297.1</ele>
        <time>2025-09-13T14:51:55Z</time>
      </trkpt>
      <trkpt lat="47.42751" lon="6.61408">
        <ele>297.2</ele>
        <time>2025-09-13T14:51:56Z</time>
      </trkpt>
      <trkpt lat="47.42748" lon="6.61415">
        <ele>297.3</ele>
        <time>2025-09-13T14:51:57Z</time>
      </trkpt>
      <trkpt lat="47.42745" lon="6.61423">
        <ele>297.3</ele>
        <time>2025-09-13T14:51:58Z</time>
      </trkpt>
      <trkpt lat="47.42742" lon="6.61431">
        <ele>297.3</ele>
        <time>2025-09-13T14:51:59Z</time>
      </trkpt>
      <trkpt lat="47.42739" lon="6.61439">
        <ele>297.3</ele>
        <time>2025-09-13T14:52:00Z</time>
      </trkpt>
      <trkpt lat="47.42736" lon="6.61448">
        <ele>297.3</ele>
        <time>2025-09-13T14:52:01Z</time>
      </trkpt>
      <trkpt lat="47.42734" lon="6.61457">
        <ele>297.3</ele>
        <time>2025-09-13T14:52:02Z</time>
      </trkpt>
      <trkpt lat="47.42731" lon="6.61466">
        <ele>297.3</ele>
        <time>2025-09-13T14:52:03Z</time>
      </trkpt>
      <trkpt lat="47.42728" lon="6.61474">
        <ele>297.3</ele>
        <time>2025-09-13T14:52:04Z</time>
      </trkpt>
      <trkpt lat="47.42725" lon="6.61483">
        <ele>297.3</ele>
        <time>2025-09-13T14:52:05Z</time>
      </trkpt>
      <trkpt lat="47.42723" lon="6.61492">
        <ele>297.3</ele>
        <time>2025-09-13T14:52:06Z</time>
      </trkpt>
      <trkpt lat="47.4272" lon="6.61501">
        <ele>297.3</ele>
        <time>2025-09-13T14:52:07Z</time>
      </trkpt>
      <trkpt lat="47.42718" lon="6.6151">
        <ele>297.2</ele>
        <time>2025-09-13T14:52:08Z</time>
      </trkpt>
      <trkpt lat="47.42715" lon="6.61519">
        <ele>297.2</ele>
        <time>2025-09-13T14:52:09Z</time>
      </trkpt>
      <trkpt lat="47.42713" lon="6.61528">
        <ele>297.2</ele>
        <time>2025-09-13T14:52:10Z</time>
      </trkpt>
      <trkpt lat="47.4271" lon="6.61537">
        <ele>297.2</ele>
        <time>2025-09-13T14:52:11Z</time>
      </trkpt>
      <trkpt lat="47.42707" lon="6.61546">
        <ele>297.2</ele>
        <time>2025-09-13T14:52:12Z</time>
      </trkpt>
      <trkpt lat="47.42705" lon="6.61556">
        <ele>297.1</ele>
        <time>2025-09-13T14:52:13Z</time>
      </trkpt>
      <trkpt lat="47.42703" lon="6.61565">
        <ele>297.1</ele>
        <time>2025-09-13T14:52:14Z</time>
      </trkpt>
      <trkpt lat="47.42701" lon="6.61574">
        <ele>297.1</ele>
        <time>2025-09-13T14:52:15Z</time>
      </trkpt>
      <trkpt lat="47.42698" lon="6.61583">
        <ele>297.1</ele>
        <time>2025-09-13T14:52:16Z</time>
      </trkpt>
      <trkpt lat="47.42696" lon="6.61593">
        <ele>297.1</ele>
        <time>2025-09-13T14:52:17Z</time>
      </trkpt>
      <trkpt lat="47.42694" lon="6.61602">
        <ele>297.1</ele>
        <time>2025-09-13T14:52:18Z</time>
      </trkpt>
      <trkpt lat="47.42691" lon="6.61611">
        <ele>297.1</ele>
        <time>2025-09-13T14:52:19Z</time>
      </trkpt>
      <trkpt lat="47.42689" lon="6.61621">
        <ele>297.2</ele>
        <time>2025-09-13T14:52:20Z</time>
      </trkpt>
      <trkpt lat="47.42686" lon="6.6163">
        <ele>297.2</ele>
        <time>2025-09-13T14:52:21Z</time>
      </trkpt>
      <trkpt lat="47.42684" lon="6.61639">
        <ele>297.2</ele>
        <time>2025-09-13T14:52:22Z</time>
      </trkpt>
      <trkpt lat="47.42682" lon="6.61649">
        <ele>297.2</ele>
        <time>2025-09-13T14:52:23Z</time>
      </trkpt>
      <trkpt lat="47.4268" lon="6.61657">
        <ele>297.3</ele>
        <time>2025-09-13T14:52:24Z</time>
      </trkpt>
      <trkpt lat="47.42678" lon="6.61666">
        <ele>297.3</ele>
        <time>2025-09-13T14:52:25Z</time>
      </trkpt>
      <trkpt lat="47.42675" lon="6.61676">
        <ele>297.3</ele>
        <time>2025-09-13T14:52:26Z</time>
      </trkpt>
      <trkpt lat="47.42673" lon="6.61685">
        <ele>297.3</ele>
        <time>2025-09-13T14:52:27Z</time>
      </trkpt>
      <trkpt lat="47.42671" lon="6.61693">
        <ele>297.3</ele>
        <time>2025-09-13T14:52:28Z</time>
      </trkpt>
      <trkpt lat="47.42669" lon="6.61703">
        <ele>297.3</ele>
        <time>2025-09-13T14:52:29Z</time>
      </trkpt>
      <trkpt lat="47.42666" lon="6.61712">
        <ele>297.3</ele>
        <time>2025-09-13T14:52:30Z</time>
      </trkpt>
      <trkpt lat="47.42664" lon="6.61722">
        <ele>297.3</ele>
        <time>2025-09-13T14:52:31Z</time>
      </trkpt>
      <trkpt lat="47.42663" lon="6.61732">
        <ele>297.3</ele>
        <time>2025-09-13T14:52:32Z</time>
      </trkpt>
      <trkpt lat="47.42661" lon="6.61741">
        <ele>297.3</ele>
        <time>2025-09-13T14:52:33Z</time>
      </trkpt>
      <trkpt lat="47.42659" lon="6.61751">
        <ele>297.3</ele>
        <time>2025-09-13T14:52:34Z</time>
      </trkpt>
      <trkpt lat="47.42657" lon="6.6176">
        <ele>297.3</ele>
        <time>2025-09-13T14:52:35Z</time>
      </trkpt>
      <trkpt lat="47.42654" lon="6.61769">
        <ele>297.2</ele>
        <time>2025-09-13T14:52:36Z</time>
      </trkpt>
      <trkpt lat="47.42653" lon="6.61779">
        <ele>297.2</ele>
        <time>2025-09-13T14:52:37Z</time>
      </trkpt>
      <trkpt lat="47.42651" lon="6.61788">
        <ele>297.2</ele>
        <time>2025-09-13T14:52:38Z</time>
      </trkpt>
      <trkpt lat="47.42649" lon="6.61798">
        <ele>297.2</ele>
        <time>2025-09-13T14:52:39Z</time>
      </trkpt>
      <trkpt lat="47.42647" lon="6.61808">
        <ele>297.2</ele>
        <time>2025-09-13T14:52:40Z</time>
      </trkpt>
      <trkpt lat="47.42645" lon="6.61818">
        <ele>297.2</ele>
        <time>2025-09-13T14:52:41Z</time>
      </trkpt>
      <trkpt lat="47.42644" lon="6.61827">
        <ele>297.2</ele>
        <time>2025-09-13T14:52:42Z</time>
      </trkpt>
      <trkpt lat="47.42642" lon="6.61837">
        <ele>297.2</ele>
        <time>2025-09-13T14:52:43Z</time>
      </trkpt>
      <trkpt lat="47.42641" lon="6.61846">
        <ele>297.2</ele>
        <time>2025-09-13T14:52:44Z</time>
      </trkpt>
      <trkpt lat="47.42639" lon="6.61856">
        <ele>297.2</ele>
        <time>2025-09-13T14:52:45Z</time>
      </trkpt>
      <trkpt lat="47.42637" lon="6.61865">
        <ele>297.2</ele>
        <time>2025-09-13T14:52:46Z</time>
      </trkpt>
      <trkpt lat="47.42637" lon="6.61874">
        <ele>297.2</ele>
        <time>2025-09-13T14:52:47Z</time>
      </trkpt>
      <trkpt lat="47.42635" lon="6.61884">
        <ele>297.2</ele>
        <time>2025-09-13T14:52:48Z</time>
      </trkpt>
      <trkpt lat="47.42634" lon="6.61893">
        <ele>297.2</ele>
        <time>2025-09-13T14:52:49Z</time>
      </trkpt>
      <trkpt lat="47.42633" lon="6.61902">
        <ele>297.2</ele>
        <time>2025-09-13T14:52:50Z</time>
      </trkpt>
      <trkpt lat="47.42631" lon="6.61912">
        <ele>297.2</ele>
        <time>2025-09-13T14:52:51Z</time>
      </trkpt>
      <trkpt lat="47.42631" lon="6.61922">
        <ele>297.2</ele>
        <time>2025-09-13T14:52:52Z</time>
      </trkpt>
      <trkpt lat="47.4263" lon="6.61931">
        <ele>297.2</ele>
        <time>2025-09-13T14:52:53Z</time>
      </trkpt>
      <trkpt lat="47.42629" lon="6.61942">
        <ele>297.2</ele>
        <time>2025-09-13T14:52:54Z</time>
      </trkpt>
      <trkpt lat="47.42627" lon="6.61952">
        <ele>297.2</ele>
        <time>2025-09-13T14:52:55Z</time>
      </trkpt>
      <trkpt lat="47.42627" lon="6.61962">
        <ele>297.2</ele>
        <time>2025-09-13T14:52:56Z</time>
      </trkpt>
      <trkpt lat="47.42626" lon="6.61974">
        <ele>297.2</ele>
        <time>2025-09-13T14:52:57Z</time>
      </trkpt>
      <trkpt lat="47.42625" lon="6.61983">
        <ele>297.2</ele>
        <time>2025-09-13T14:52:58Z</time>
      </trkpt>
      <trkpt lat="47.42624" lon="6.61992">
        <ele>297.2</ele>
        <time>2025-09-13T14:52:59Z</time>
      </trkpt>
      <trkpt lat="47.42624" lon="6.62003">
        <ele>297.2</ele>
        <time>2025-09-13T14:53:00Z</time>
      </trkpt>
      <trkpt lat="47.42624" lon="6.62013">
        <ele>297.2</ele>
        <time>2025-09-13T14:53:01Z</time>
      </trkpt>
      <trkpt lat="47.42623" lon="6.62023">
        <ele>297.2</ele>
        <time>2025-09-13T14:53:02Z</time>
      </trkpt>
      <trkpt lat="47.42623" lon="6.62033">
        <ele>297.2</ele>
        <time>2025-09-13T14:53:03Z</time>
      </trkpt>
      <trkpt lat="47.42623" lon="6.62043">
        <ele>297.2</ele>
        <time>2025-09-13T14:53:04Z</time>
      </trkpt>
      <trkpt lat="47.42623" lon="6.62053">
        <ele>297.2</ele>
        <time>2025-09-13T14:53:05Z</time>
      </trkpt>
      <trkpt lat="47.42623" lon="6.62063">
        <ele>297.2</ele>
        <time>2025-09-13T14:53:06Z</time>
      </trkpt>
      <trkpt lat="47.42623" lon="6.62073">
        <ele>297.2</ele>
        <time>2025-09-13T14:53:07Z</time>
      </trkpt>
      <trkpt lat="47.42623" lon="6.62084">
        <ele>297.2</ele>
        <time>2025-09-13T14:53:08Z</time>
      </trkpt>
      <trkpt lat="47.42624" lon="6.62093">
        <ele>297.2</ele>
        <time>2025-09-13T14:53:09Z</time>
      </trkpt>
      <trkpt lat="47.42623" lon="6.62103">
        <ele>297.2</ele>
        <time>2025-09-13T14:53:10Z</time>
      </trkpt>
      <trkpt lat="47.42624" lon="6.62114">
        <ele>297.2</ele>
        <time>2025-09-13T14:53:11Z</time>
      </trkpt>
      <trkpt lat="47.42624" lon="6.62124">
        <ele>297.2</ele>
        <time>2025-09-13T14:53:12Z</time>
      </trkpt>
      <trkpt lat="47.42624" lon="6.62134">
        <ele>297.2</ele>
        <time>2025-09-13T14:53:13Z</time>
      </trkpt>
      <trkpt lat="47.42625" lon="6.62144">
        <ele>297.3</ele>
        <time>2025-09-13T14:53:14Z</time>
      </trkpt>
      <trkpt lat="47.42625" lon="6.62154">
        <ele>297.3</ele>
        <time>2025-09-13T14:53:15Z</time>
      </trkpt>
      <trkpt lat="47.42626" lon="6.62164">
        <ele>297.3</ele>
        <time>2025-09-13T14:53:16Z</time>
      </trkpt>
      <trkpt lat="47.42627" lon="6.62175">
        <ele>297.3</ele>
        <time>2025-09-13T14:53:17Z</time>
      </trkpt>
      <trkpt lat="47.42627" lon="6.62185">
        <ele>297.3</ele>
        <time>2025-09-13T14:53:18Z</time>
      </trkpt>
      <trkpt lat="47.42627" lon="6.62196">
        <ele>297.3</ele>
        <time>2025-09-13T14:53:19Z</time>
      </trkpt>
      <trkpt lat="47.42628" lon="6.62207">
        <ele>297.3</ele>
        <time>2025-09-13T14:53:20Z</time>
      </trkpt>
      <trkpt lat="47.42629" lon="6.62218">
        <ele>297.3</ele>
        <time>2025-09-13T14:53:21Z</time>
      </trkpt>
      <trkpt lat="47.4263" lon="6.62229">
        <ele>297.3</ele>
        <time>2025-09-13T14:53:22Z</time>
      </trkpt>
      <trkpt lat="47.42631" lon="6.62241">
        <ele>297.3</ele>
        <time>2025-09-13T14:53:23Z</time>
      </trkpt>
      <trkpt lat="47.42632" lon="6.62252">
        <ele>297.3</ele>
        <time>2025-09-13T14:53:24Z</time>
      </trkpt>
      <trkpt lat="47.42632" lon="6.62264">
        <ele>297.3</ele>
        <time>2025-09-13T14:53:25Z</time>
      </trkpt>
      <trkpt lat="47.42634" lon="6.62275">
        <ele>297.3</ele>
        <time>2025-09-13T14:53:26Z</time>
      </trkpt>
      <trkpt lat="47.42634" lon="6.62287">
        <ele>297.4</ele>
        <time>2025-09-13T14:53:27Z</time>
      </trkpt>
      <trkpt lat="47.42635" lon="6.62296">
        <ele>297.3</ele>
        <time>2025-09-13T14:53:28Z</time>
      </trkpt>
      <trkpt lat="47.42636" lon="6.62308">
        <ele>297.3</ele>
        <time>2025-09-13T14:53:29Z</time>
      </trkpt>
      <trkpt lat="47.42637" lon="6.62318">
        <ele>297.3</ele>
        <time>2025-09-13T14:53:30Z</time>
      </trkpt>
      <trkpt lat="47.42638" lon="6.62329">
        <ele>297.3</ele>
        <time>2025-09-13T14:53:31Z</time>
      </trkpt>
      <trkpt lat="47.42639" lon="6.62342">
        <ele>297.3</ele>
        <time>2025-09-13T14:53:32Z</time>
      </trkpt>
      <trkpt lat="47.4264" lon="6.62354">
        <ele>297.3</ele>
        <time>2025-09-13T14:53:33Z</time>
      </trkpt>
      <trkpt lat="47.42642" lon="6.62365">
        <ele>297.3</ele>
        <time>2025-09-13T14:53:34Z</time>
      </trkpt>
      <trkpt lat="47.42643" lon="6.62376">
        <ele>297.2</ele>
        <time>2025-09-13T14:53:35Z</time>
      </trkpt>
      <trkpt lat="47.42644" lon="6.62388">
        <ele>297.2</ele>
        <time>2025-09-13T14:53:36Z</time>
      </trkpt>
      <trkpt lat="47.42645" lon="6.62399">
        <ele>297.2</ele>
        <time>2025-09-13T14:53:37Z</time>
      </trkpt>
      <trkpt lat="47.42648" lon="6.62411">
        <ele>297.1</ele>
        <time>2025-09-13T14:53:38Z</time>
      </trkpt>
      <trkpt lat="47.4265" lon="6.62423">
        <ele>297.1</ele>
        <time>2025-09-13T14:53:39Z</time>
      </trkpt>
      <trkpt lat="47.42651" lon="6.62434">
        <ele>297.1</ele>
        <time>2025-09-13T14:53:40Z</time>
      </trkpt>
      <trkpt lat="47.42653" lon="6.62445">
        <ele>297.1</ele>
        <time>2025-09-13T14:53:41Z</time>
      </trkpt>
      <trkpt lat="47.42655" lon="6.62456">
        <ele>297.1</ele>
        <time>2025-09-13T14:53:42Z</time>
      </trkpt>
      <trkpt lat="47.42656" lon="6.62467">
        <ele>297.1</ele>
        <time>2025-09-13T14:53:43Z</time>
      </trkpt>
      <trkpt lat="47.42658" lon="6.62477">
        <ele>297.1</ele>
        <time>2025-09-13T14:53:44Z</time>
      </trkpt>
      <trkpt lat="47.4266" lon="6.62487">
        <ele>297.1</ele>
        <time>2025-09-13T14:53:45Z</time>
      </trkpt>
      <trkpt lat="47.42661" lon="6.62498">
        <ele>297.1</ele>
        <time>2025-09-13T14:53:46Z</time>
      </trkpt>
      <trkpt lat="47.42662" lon="6.62509">
        <ele>297.1</ele>
        <time>2025-09-13T14:53:47Z</time>
      </trkpt>
      <trkpt lat="47.42666" lon="6.6253">
        <ele>297.2</ele>
        <time>2025-09-13T14:53:49Z</time>
      </trkpt>
      <trkpt lat="47.42668" lon="6.62539">
        <ele>297.2</ele>
        <time>2025-09-13T14:53:50Z</time>
      </trkpt>
      <trkpt lat="47.42672" lon="6.6256">
        <ele>297.2</ele>
        <time>2025-09-13T14:53:52Z</time>
      </trkpt>
      <trkpt lat="47.42674" lon="6.6257">
        <ele>297.2</ele>
        <time>2025-09-13T14:53:53Z</time>
      </trkpt>
      <trkpt lat="47.42677" lon="6.6258">
        <ele>297.2</ele>
        <time>2025-09-13T14:53:54Z</time>
      </trkpt>
      <trkpt lat="47.42679" lon="6.6259">
        <ele>297.2</ele>
        <time>2025-09-13T14:53:55Z</time>
      </trkpt>
      <trkpt lat="47.42681" lon="6.62601">
        <ele>297.2</ele>
        <time>2025-09-13T14:53:56Z</time>
      </trkpt>
      <trkpt lat="47.42684" lon="6.62611">
        <ele>297.2</ele>
        <time>2025-09-13T14:53:57Z</time>
      </trkpt>
      <trkpt lat="47.42686" lon="6.62621">
        <ele>297.3</ele>
        <time>2025-09-13T14:53:58Z</time>
      </trkpt>
      <trkpt lat="47.42688" lon="6.62632">
        <ele>297.3</ele>
        <time>2025-09-13T14:53:59Z</time>
      </trkpt>
      <trkpt lat="47.42691" lon="6.62643">
        <ele>297.3</ele>
        <time>2025-09-13T14:54:00Z</time>
      </trkpt>
      <trkpt lat="47.42693" lon="6.62653">
        <ele>297.3</ele>
        <time>2025-09-13T14:54:01Z</time>
      </trkpt>
      <trkpt lat="47.42696" lon="6.62664">
        <ele>297.3</ele>
        <time>2025-09-13T14:54:02Z</time>
      </trkpt>
      <trkpt lat="47.42698" lon="6.62674">
        <ele>297.3</ele>
        <time>2025-09-13T14:54:03Z</time>
      </trkpt>
      <trkpt lat="47.42701" lon="6.62684">
        <ele>297.3</ele>
        <time>2025-09-13T14:54:04Z</time>
      </trkpt>
      <trkpt lat="47.42704" lon="6.62694">
        <ele>297.3</ele>
        <time>2025-09-13T14:54:05Z</time>
      </trkpt>
      <trkpt lat="47.42707" lon="6.62704">
        <ele>297.3</ele>
        <time>2025-09-13T14:54:06Z</time>
      </trkpt>
      <trkpt lat="47.42711" lon="6.62714">
        <ele>297.3</ele>
        <time>2025-09-13T14:54:07Z</time>
      </trkpt>
      <trkpt lat="47.42714" lon="6.62724">
        <ele>297.3</ele>
        <time>2025-09-13T14:54:08Z</time>
      </trkpt>
      <trkpt lat="47.42717" lon="6.62734">
        <ele>297.3</ele>
        <time>2025-09-13T14:54:09Z</time>
      </trkpt>
      <trkpt lat="47.42721" lon="6.62744">
        <ele>297.3</ele>
        <time>2025-09-13T14:54:10Z</time>
      </trkpt>
      <trkpt lat="47.42724" lon="6.62753">
        <ele>297.3</ele>
        <time>2025-09-13T14:54:11Z</time>
      </trkpt>
      <trkpt lat="47.42728" lon="6.62763">
        <ele>297.3</ele>
        <time>2025-09-13T14:54:12Z</time>
      </trkpt>
      <trkpt lat="47.42732" lon="6.62773">
        <ele>297.3</ele>
        <time>2025-09-13T14:54:13Z</time>
      </trkpt>
      <trkpt lat="47.42736" lon="6.62782">
        <ele>297.4</ele>
        <time>2025-09-13T14:54:14Z</time>
      </trkpt>
      <trkpt lat="47.42739" lon="6.62792">
        <ele>297.4</ele>
        <time>2025-09-13T14:54:15Z</time>
      </trkpt>
      <trkpt lat="47.42743" lon="6.628">
        <ele>297.4</ele>
        <time>2025-09-13T14:54:16Z</time>
      </trkpt>
      <trkpt lat="47.42747" lon="6.6281">
        <ele>297.4</ele>
        <time>2025-09-13T14:54:17Z</time>
      </trkpt>
      <trkpt lat="47.42751" lon="6.62819">
        <ele>297.4</ele>
        <time>2025-09-13T14:54:18Z</time>
      </trkpt>
      <trkpt lat="47.42755" lon="6.62828">
        <ele>297.4</ele>
        <time>2025-09-13T14:54:19Z</time>
      </trkpt>
      <trkpt lat="47.42759" lon="6.62836">
        <ele>297.4</ele>
        <time>2025-09-13T14:54:20Z</time>
      </trkpt>
      <trkpt lat="47.42764" lon="6.62846">
        <ele>297.4</ele>
        <time>2025-09-13T14:54:21Z</time>
      </trkpt>
      <trkpt lat="47.42768" lon="6.62855">
        <ele>297.4</ele>
        <time>2025-09-13T14:54:22Z</time>
      </trkpt>
      <trkpt lat="47.42772" lon="6.62864">
        <ele>297.4</ele>
        <time>2025-09-13T14:54:23Z</time>
      </trkpt>
      <trkpt lat="47.42776" lon="6.62872">
        <ele>297.4</ele>
        <time>2025-09-13T14:54:24Z</time>
      </trkpt>
      <trkpt lat="47.42781" lon="6.6288">
        <ele>297.4</ele>
        <time>2025-09-13T14:54:25Z</time>
      </trkpt>
      <trkpt lat="47.42785" lon="6.62888">
        <ele>297.4</ele>
        <time>2025-09-13T14:54:26Z</time>
      </trkpt>
      <trkpt lat="47.4279" lon="6.62897">
        <ele>297.3</ele>
        <time>2025-09-13T14:54:27Z</time>
      </trkpt>
      <trkpt lat="47.42794" lon="6.62905">
        <ele>297.3</ele>
        <time>2025-09-13T14:54:28Z</time>
      </trkpt>
      <trkpt lat="47.42799" lon="6.62913">
        <ele>297.4</ele>
        <time>2025-09-13T14:54:29Z</time>
      </trkpt>
      <trkpt lat="47.42804" lon="6.62921">
        <ele>297.4</ele>
        <time>2025-09-13T14:54:30Z</time>
      </trkpt>
      <trkpt lat="47.42809" lon="6.62928">
        <ele>297.4</ele>
        <time>2025-09-13T14:54:31Z</time>
      </trkpt>
      <trkpt lat="47.42815" lon="6.62937">
        <ele>297.5</ele>
        <time>2025-09-13T14:54:32Z</time>
      </trkpt>
      <trkpt lat="47.4282" lon="6.62944">
        <ele>297.5</ele>
        <time>2025-09-13T14:54:33Z</time>
      </trkpt>
      <trkpt lat="47.42826" lon="6.62951">
        <ele>297.5</ele>
        <time>2025-09-13T14:54:34Z</time>
      </trkpt>
      <trkpt lat="47.42832" lon="6.62957">
        <ele>297.5</ele>
        <time>2025-09-13T14:54:35Z</time>
      </trkpt>
      <trkpt lat="47.42837" lon="6.62964">
        <ele>297.5</ele>
        <time>2025-09-13T14:54:36Z</time>
      </trkpt>
      <trkpt lat="47.42843" lon="6.62971">
        <ele>297.5</ele>
        <time>2025-09-13T14:54:37Z</time>
      </trkpt>
      <trkpt lat="47.42849" lon="6.62977">
        <ele>297.5</ele>
        <time>2025-09-13T14:54:38Z</time>
      </trkpt>
      <trkpt lat="47.42855" lon="6.62984">
        <ele>297.4</ele>
        <time>2025-09-13T14:54:39Z</time>
      </trkpt>
      <trkpt lat="47.42861" lon="6.6299">
        <ele>297.4</ele>
        <time>2025-09-13T14:54:40Z</time>
      </trkpt>
      <trkpt lat="47.42866" lon="6.62996">
        <ele>297.4</ele>
        <time>2025-09-13T14:54:41Z</time>
      </trkpt>
      <trkpt lat="47.42872" lon="6.63002">
        <ele>297.4</ele>
        <time>2025-09-13T14:54:42Z</time>
      </trkpt>
      <trkpt lat="47.42878" lon="6.63008">
        <ele>297.4</ele>
        <time>2025-09-13T14:54:43Z</time>
      </trkpt>
      <trkpt lat="47.42884" lon="6.63014">
        <ele>297.4</ele>
        <time>2025-09-13T14:54:44Z</time>
      </trkpt>
      <trkpt lat="47.42889" lon="6.63019">
        <ele>297.4</ele>
        <time>2025-09-13T14:54:45Z</time>
      </trkpt>
      <trkpt lat="47.42895" lon="6.63025">
        <ele>297.4</ele>
        <time>2025-09-13T14:54:46Z</time>
      </trkpt>
      <trkpt lat="47.42901" lon="6.63031">
        <ele>297.4</ele>
        <time>2025-09-13T14:54:47Z</time>
      </trkpt>
      <trkpt lat="47.42907" lon="6.63037">
        <ele>297.4</ele>
        <time>2025-09-13T14:54:48Z</time>
      </trkpt>
      <trkpt lat="47.42914" lon="6.63042">
        <ele>297.4</ele>
        <time>2025-09-13T14:54:49Z</time>
      </trkpt>
      <trkpt lat="47.4292" lon="6.63047">
        <ele>297.5</ele>
        <time>2025-09-13T14:54:50Z</time>
      </trkpt>
      <trkpt lat="47.42927" lon="6.63052">
        <ele>297.5</ele>
        <time>2025-09-13T14:54:51Z</time>
      </trkpt>
      <trkpt lat="47.42933" lon="6.63056">
        <ele>297.5</ele>
        <time>2025-09-13T14:54:52Z</time>
      </trkpt>
      <trkpt lat="47.42939" lon="6.63063">
        <ele>297.5</ele>
        <time>2025-09-13T14:54:53Z</time>
      </trkpt>
      <trkpt lat="47.42945" lon="6.63067">
        <ele>297.5</ele>
        <time>2025-09-13T14:54:54Z</time>
      </trkpt>
      <trkpt lat="47.42951" lon="6.63072">
        <ele>297.5</ele>
        <time>2025-09-13T14:54:55Z</time>
      </trkpt>
      <trkpt lat="47.42958" lon="6.63078">
        <ele>297.6</ele>
        <time>2025-09-13T14:54:56Z</time>
      </trkpt>
      <trkpt lat="47.42965" lon="6.63082">
        <ele>297.6</ele>
        <time>2025-09-13T14:54:57Z</time>
      </trkpt>
      <trkpt lat="47.42971" lon="6.63086">
        <ele>297.6</ele>
        <time>2025-09-13T14:54:58Z</time>
      </trkpt>
      <trkpt lat="47.42978" lon="6.63091">
        <ele>297.6</ele>
        <time>2025-09-13T14:54:59Z</time>
      </trkpt>
      <trkpt lat="47.42983" lon="6.63096">
        <ele>297.6</ele>
        <time>2025-09-13T14:55:00Z</time>
      </trkpt>
      <trkpt lat="47.4299" lon="6.631">
        <ele>297.7</ele>
        <time>2025-09-13T14:55:01Z</time>
      </trkpt>
      <trkpt lat="47.42996" lon="6.63104">
        <ele>297.8</ele>
        <time>2025-09-13T14:55:02Z</time>
      </trkpt>
      <trkpt lat="47.43003" lon="6.63109">
        <ele>297.9</ele>
        <time>2025-09-13T14:55:03Z</time>
      </trkpt>
      <trkpt lat="47.4301" lon="6.63114">
        <ele>298.1</ele>
        <time>2025-09-13T14:55:04Z</time>
      </trkpt>
      <trkpt lat="47.43016" lon="6.63118">
        <ele>298.2</ele>
        <time>2025-09-13T14:55:05Z</time>
      </trkpt>
      <trkpt lat="47.43023" lon="6.63121">
        <ele>298.3</ele>
        <time>2025-09-13T14:55:06Z</time>
      </trkpt>
      <trkpt lat="47.43029" lon="6.63125">
        <ele>298.3</ele>
        <time>2025-09-13T14:55:07Z</time>
      </trkpt>
      <trkpt lat="47.43036" lon="6.63127">
        <ele>298.3</ele>
        <time>2025-09-13T14:55:08Z</time>
      </trkpt>
      <trkpt lat="47.43042" lon="6.63129">
        <ele>298.2</ele>
        <time>2025-09-13T14:55:09Z</time>
      </trkpt>
      <trkpt lat="47.43049" lon="6.63132">
        <ele>298.1</ele>
        <time>2025-09-13T14:55:10Z</time>
      </trkpt>
      <trkpt lat="47.43056" lon="6.63134">
        <ele>298.1</ele>
        <time>2025-09-13T14:55:11Z</time>
      </trkpt>
      <trkpt lat="47.43063" lon="6.63137">
        <ele>298</ele>
        <time>2025-09-13T14:55:12Z</time>
      </trkpt>
      <trkpt lat="47.43071" lon="6.6314">
        <ele>297.9</ele>
        <time>2025-09-13T14:55:13Z</time>
      </trkpt>
      <trkpt lat="47.43078" lon="6.63143">
        <ele>297.8</ele>
        <time>2025-09-13T14:55:14Z</time>
      </trkpt>
      <trkpt lat="47.43085" lon="6.63146">
        <ele>297.8</ele>
        <time>2025-09-13T14:55:15Z</time>
      </trkpt>
      <trkpt lat="47.43092" lon="6.63149">
        <ele>297.7</ele>
        <time>2025-09-13T14:55:16Z</time>
      </trkpt>
      <trkpt lat="47.43099" lon="6.63151">
        <ele>297.7</ele>
        <time>2025-09-13T14:55:17Z</time>
      </trkpt>
      <trkpt lat="47.43107" lon="6.63153">
        <ele>297.7</ele>
        <time>2025-09-13T14:55:18Z</time>
      </trkpt>
      <trkpt lat="47.43115" lon="6.63156">
        <ele>297.6</ele>
        <time>2025-09-13T14:55:19Z</time>
      </trkpt>
      <trkpt lat="47.43122" lon="6.63158">
        <ele>297.6</ele>
        <time>2025-09-13T14:55:20Z</time>
      </trkpt>
      <trkpt lat="47.4313" lon="6.6316">
        <ele>297.6</ele>
        <time>2025-09-13T14:55:21Z</time>
      </trkpt>
      <trkpt lat="47.43137" lon="6.63162">
        <ele>297.6</ele>
        <time>2025-09-13T14:55:22Z</time>
      </trkpt>
      <trkpt lat="47.43145" lon="6.63164">
        <ele>297.6</ele>
        <time>2025-09-13T14:55:23Z</time>
      </trkpt>
      <trkpt lat="47.43152" lon="6.63166">
        <ele>297.6</ele>
        <time>2025-09-13T14:55:24Z</time>
      </trkpt>
      <trkpt lat="47.4316" lon="6.63167">
        <ele>297.6</ele>
        <time>2025-09-13T14:55:25Z</time>
      </trkpt>
      <trkpt lat="47.43167" lon="6.63168">
        <ele>297.6</ele>
        <time>2025-09-13T14:55:26Z</time>
      </trkpt>
      <trkpt lat="47.43175" lon="6.63169">
        <ele>297.6</ele>
        <time>2025-09-13T14:55:27Z</time>
      </trkpt>
      <trkpt lat="47.43182" lon="6.6317">
        <ele>297.6</ele>
        <time>2025-09-13T14:55:28Z</time>
      </trkpt>
      <trkpt lat="47.4319" lon="6.63171">
        <ele>297.6</ele>
        <time>2025-09-13T14:55:29Z</time>
      </trkpt>
      <trkpt lat="47.43198" lon="6.63171">
        <ele>297.6</ele>
        <time>2025-09-13T14:55:30Z</time>
      </trkpt>
      <trkpt lat="47.43206" lon="6.63171">
        <ele>297.6</ele>
        <time>2025-09-13T14:55:31Z</time>
      </trkpt>
      <trkpt lat="47.43214" lon="6.63172">
        <ele>297.5</ele>
        <time>2025-09-13T14:55:32Z</time>
      </trkpt>
      <trkpt lat="47.43222" lon="6.63172">
        <ele>297.5</ele>
        <time>2025-09-13T14:55:33Z</time>
      </trkpt>
      <trkpt lat="47.4323" lon="6.63173">
        <ele>297.5</ele>
        <time>2025-09-13T14:55:34Z</time>
      </trkpt>
      <trkpt lat="47.43237" lon="6.63173">
        <ele>297.5</ele>
        <time>2025-09-13T14:55:35Z</time>
      </trkpt>
      <trkpt lat="47.43245" lon="6.63172">
        <ele>297.5</ele>
        <time>2025-09-13T14:55:36Z</time>
      </trkpt>
      <trkpt lat="47.43253" lon="6.63171">
        <ele>297.5</ele>
        <time>2025-09-13T14:55:37Z</time>
      </trkpt>
      <trkpt lat="47.43262" lon="6.6317">
        <ele>297.5</ele>
        <time>2025-09-13T14:55:38Z</time>
      </trkpt>
      <trkpt lat="47.43269" lon="6.63169">
        <ele>297.5</ele>
        <time>2025-09-13T14:55:39Z</time>
      </trkpt>
      <trkpt lat="47.43276" lon="6.63169">
        <ele>297.5</ele>
        <time>2025-09-13T14:55:40Z</time>
      </trkpt>
      <trkpt lat="47.43284" lon="6.63168">
        <ele>297.5</ele>
        <time>2025-09-13T14:55:41Z</time>
      </trkpt>
      <trkpt lat="47.43291" lon="6.63167">
        <ele>297.5</ele>
        <time>2025-09-13T14:55:42Z</time>
      </trkpt>
      <trkpt lat="47.43298" lon="6.63166">
        <ele>297.5</ele>
        <time>2025-09-13T14:55:43Z</time>
      </trkpt>
      <trkpt lat="47.43306" lon="6.63165">
        <ele>297.5</ele>
        <time>2025-09-13T14:55:45Z</time>
      </trkpt>
      <trkpt lat="47.43314" lon="6.63164">
        <ele>297.5</ele>
        <time>2025-09-13T14:55:46Z</time>
      </trkpt>
      <trkpt lat="47.43321" lon="6.63162">
        <ele>297.6</ele>
        <time>2025-09-13T14:55:47Z</time>
      </trkpt>
      <trkpt lat="47.43328" lon="6.6316">
        <ele>297.5</ele>
        <time>2025-09-13T14:55:48Z</time>
      </trkpt>
      <trkpt lat="47.43336" lon="6.63158">
        <ele>297.5</ele>
        <time>2025-09-13T14:55:49Z</time>
      </trkpt>
      <trkpt lat="47.43343" lon="6.63156">
        <ele>297.5</ele>
        <time>2025-09-13T14:55:50Z</time>
      </trkpt>
      <trkpt lat="47.4335" lon="6.63154">
        <ele>297.4</ele>
        <time>2025-09-13T14:55:51Z</time>
      </trkpt>
      <trkpt lat="47.43358" lon="6.63151">
        <ele>297.4</ele>
        <time>2025-09-13T14:55:52Z</time>
      </trkpt>
      <trkpt lat="47.43365" lon="6.63148">
        <ele>297.4</ele>
        <time>2025-09-13T14:55:53Z</time>
      </trkpt>
      <trkpt lat="47.43373" lon="6.63146">
        <ele>297.4</ele>
        <time>2025-09-13T14:55:54Z</time>
      </trkpt>
      <trkpt lat="47.43381" lon="6.63143">
        <ele>297.4</ele>
        <time>2025-09-13T14:55:55Z</time>
      </trkpt>
      <trkpt lat="47.43388" lon="6.63141">
        <ele>297.4</ele>
        <time>2025-09-13T14:55:56Z</time>
      </trkpt>
      <trkpt lat="47.43396" lon="6.63138">
        <ele>297.4</ele>
        <time>2025-09-13T14:55:57Z</time>
      </trkpt>
      <trkpt lat="47.43403" lon="6.63135">
        <ele>297.4</ele>
        <time>2025-09-13T14:55:58Z</time>
      </trkpt>
      <trkpt lat="47.43411" lon="6.63132">
        <ele>297.4</ele>
        <time>2025-09-13T14:55:59Z</time>
      </trkpt>
      <trkpt lat="47.43419" lon="6.6313">
        <ele>297.4</ele>
        <time>2025-09-13T14:56:00Z</time>
      </trkpt>
      <trkpt lat="47.43426" lon="6.63126">
        <ele>297.4</ele>
        <time>2025-09-13T14:56:01Z</time>
      </trkpt>
      <trkpt lat="47.43434" lon="6.63122">
        <ele>297.4</ele>
        <time>2025-09-13T14:56:02Z</time>
      </trkpt>
      <trkpt lat="47.43441" lon="6.63118">
        <ele>297.4</ele>
        <time>2025-09-13T14:56:03Z</time>
      </trkpt>
      <trkpt lat="47.43456" lon="6.63111">
        <ele>297.4</ele>
        <time>2025-09-13T14:56:04Z</time>
      </trkpt>
      <trkpt lat="47.43463" lon="6.63108">
        <ele>297.4</ele>
        <time>2025-09-13T14:56:05Z</time>
      </trkpt>
      <trkpt lat="47.4347" lon="6.63105">
        <ele>297.4</ele>
        <time>2025-09-13T14:56:06Z</time>
      </trkpt>
      <trkpt lat="47.43478" lon="6.63102">
        <ele>297.4</ele>
        <time>2025-09-13T14:56:07Z</time>
      </trkpt>
      <trkpt lat="47.43485" lon="6.63097">
        <ele>297.4</ele>
        <time>2025-09-13T14:56:08Z</time>
      </trkpt>
      <trkpt lat="47.43492" lon="6.63094">
        <ele>297.4</ele>
        <time>2025-09-13T14:56:09Z</time>
      </trkpt>
      <trkpt lat="47.43499" lon="6.6309">
        <ele>297.5</ele>
        <time>2025-09-13T14:56:10Z</time>
      </trkpt>
      <trkpt lat="47.43505" lon="6.63087">
        <ele>297.5</ele>
        <time>2025-09-13T14:56:11Z</time>
      </trkpt>
      <trkpt lat="47.43512" lon="6.63081">
        <ele>297.5</ele>
        <time>2025-09-13T14:56:12Z</time>
      </trkpt>
      <trkpt lat="47.43519" lon="6.63077">
        <ele>297.5</ele>
        <time>2025-09-13T14:56:13Z</time>
      </trkpt>
      <trkpt lat="47.43526" lon="6.63072">
        <ele>297.5</ele>
        <time>2025-09-13T14:56:14Z</time>
      </trkpt>
      <trkpt lat="47.43533" lon="6.63068">
        <ele>297.5</ele>
        <time>2025-09-13T14:56:15Z</time>
      </trkpt>
      <trkpt lat="47.4354" lon="6.63063">
        <ele>297.6</ele>
        <time>2025-09-13T14:56:16Z</time>
      </trkpt>
      <trkpt lat="47.43547" lon="6.6306">
        <ele>297.6</ele>
        <time>2025-09-13T14:56:17Z</time>
      </trkpt>
      <trkpt lat="47.43553" lon="6.63055">
        <ele>297.6</ele>
        <time>2025-09-13T14:56:18Z</time>
      </trkpt>
      <trkpt lat="47.4356" lon="6.63051">
        <ele>297.6</ele>
        <time>2025-09-13T14:56:19Z</time>
      </trkpt>
      <trkpt lat="47.43567" lon="6.63047">
        <ele>297.6</ele>
        <time>2025-09-13T14:56:20Z</time>
      </trkpt>
      <trkpt lat="47.43574" lon="6.63043">
        <ele>297.6</ele>
        <time>2025-09-13T14:56:21Z</time>
      </trkpt>
      <trkpt lat="47.43581" lon="6.63037">
        <ele>297.6</ele>
        <time>2025-09-13T14:56:22Z</time>
      </trkpt>
      <trkpt lat="47.43589" lon="6.63034">
        <ele>297.6</ele>
        <time>2025-09-13T14:56:23Z</time>
      </trkpt>
      <trkpt lat="47.43596" lon="6.6303">
        <ele>297.6</ele>
        <time>2025-09-13T14:56:24Z</time>
      </trkpt>
      <trkpt lat="47.43604" lon="6.63025">
        <ele>297.5</ele>
        <time>2025-09-13T14:56:25Z</time>
      </trkpt>
      <trkpt lat="47.43611" lon="6.6302">
        <ele>297.5</ele>
        <time>2025-09-13T14:56:26Z</time>
      </trkpt>
      <trkpt lat="47.43618" lon="6.63016">
        <ele>297.5</ele>
        <time>2025-09-13T14:56:27Z</time>
      </trkpt>
      <trkpt lat="47.43625" lon="6.63011">
        <ele>297.5</ele>
        <time>2025-09-13T14:56:28Z</time>
      </trkpt>
      <trkpt lat="47.43633" lon="6.63007">
        <ele>297.5</ele>
        <time>2025-09-13T14:56:29Z</time>
      </trkpt>
      <trkpt lat="47.43641" lon="6.63">
        <ele>297.5</ele>
        <time>2025-09-13T14:56:30Z</time>
      </trkpt>
      <trkpt lat="47.43648" lon="6.62995">
        <ele>297.5</ele>
        <time>2025-09-13T14:56:31Z</time>
      </trkpt>
      <trkpt lat="47.43654" lon="6.62991">
        <ele>297.5</ele>
        <time>2025-09-13T14:56:32Z</time>
      </trkpt>
      <trkpt lat="47.43661" lon="6.62986">
        <ele>297.5</ele>
        <time>2025-09-13T14:56:33Z</time>
      </trkpt>
      <trkpt lat="47.43668" lon="6.62981">
        <ele>297.5</ele>
        <time>2025-09-13T14:56:34Z</time>
      </trkpt>
      <trkpt lat="47.43676" lon="6.62976">
        <ele>297.5</ele>
        <time>2025-09-13T14:56:35Z</time>
      </trkpt>
      <trkpt lat="47.43683" lon="6.62972">
        <ele>297.5</ele>
        <time>2025-09-13T14:56:36Z</time>
      </trkpt>
      <trkpt lat="47.43689" lon="6.62967">
        <ele>297.5</ele>
        <time>2025-09-13T14:56:37Z</time>
      </trkpt>
      <trkpt lat="47.43696" lon="6.62961">
        <ele>297.4</ele>
        <time>2025-09-13T14:56:38Z</time>
      </trkpt>
      <trkpt lat="47.43704" lon="6.62957">
        <ele>297.4</ele>
        <time>2025-09-13T14:56:39Z</time>
      </trkpt>
      <trkpt lat="47.43711" lon="6.62952">
        <ele>297.5</ele>
        <time>2025-09-13T14:56:40Z</time>
      </trkpt>
      <trkpt lat="47.43719" lon="6.62947">
        <ele>297.5</ele>
        <time>2025-09-13T14:56:41Z</time>
      </trkpt>
      <trkpt lat="47.43726" lon="6.62943">
        <ele>297.5</ele>
        <time>2025-09-13T14:56:42Z</time>
      </trkpt>
      <trkpt lat="47.43733" lon="6.62938">
        <ele>297.5</ele>
        <time>2025-09-13T14:56:43Z</time>
      </trkpt>
      <trkpt lat="47.4374" lon="6.62933">
        <ele>297.5</ele>
        <time>2025-09-13T14:56:44Z</time>
      </trkpt>
      <trkpt lat="47.43747" lon="6.62929">
        <ele>297.4</ele>
        <time>2025-09-13T14:56:45Z</time>
      </trkpt>
      <trkpt lat="47.43755" lon="6.62924">
        <ele>297.4</ele>
        <time>2025-09-13T14:56:46Z</time>
      </trkpt>
      <trkpt lat="47.43762" lon="6.6292">
        <ele>297.4</ele>
        <time>2025-09-13T14:56:47Z</time>
      </trkpt>
      <trkpt lat="47.43769" lon="6.62915">
        <ele>297.5</ele>
        <time>2025-09-13T14:56:48Z</time>
      </trkpt>
      <trkpt lat="47.43777" lon="6.6291">
        <ele>297.6</ele>
        <time>2025-09-13T14:56:49Z</time>
      </trkpt>
      <trkpt lat="47.43785" lon="6.62906">
        <ele>297.7</ele>
        <time>2025-09-13T14:56:50Z</time>
      </trkpt>
      <trkpt lat="47.43793" lon="6.629">
        <ele>298</ele>
        <time>2025-09-13T14:56:51Z</time>
      </trkpt>
      <trkpt lat="47.43801" lon="6.62896">
        <ele>298.4</ele>
        <time>2025-09-13T14:56:52Z</time>
      </trkpt>
      <trkpt lat="47.43809" lon="6.62892">
        <ele>298.8</ele>
        <time>2025-09-13T14:56:53Z</time>
      </trkpt>
      <trkpt lat="47.43817" lon="6.62889">
        <ele>299.1</ele>
        <time>2025-09-13T14:56:54Z</time>
      </trkpt>
      <trkpt lat="47.43823" lon="6.62884">
        <ele>299</ele>
        <time>2025-09-13T14:56:55Z</time>
      </trkpt>
      <trkpt lat="47.43827" lon="6.62879">
        <ele>298.9</ele>
        <time>2025-09-13T14:56:56Z</time>
      </trkpt>
      <trkpt lat="47.43832" lon="6.62874">
        <ele>298.8</ele>
        <time>2025-09-13T14:56:57Z</time>
      </trkpt>
      <trkpt lat="47.43837" lon="6.62868">
        <ele>298.8</ele>
        <time>2025-09-13T14:56:58Z</time>
      </trkpt>
      <trkpt lat="47.43843" lon="6.62862">
        <ele>298.7</ele>
        <time>2025-09-13T14:56:59Z</time>
      </trkpt>
      <trkpt lat="47.43848" lon="6.62859">
        <ele>298.7</ele>
        <time>2025-09-13T14:57:00Z</time>
      </trkpt>
      <trkpt lat="47.43854" lon="6.62856">
        <ele>298.7</ele>
        <time>2025-09-13T14:57:01Z</time>
      </trkpt>
      <trkpt lat="47.43862" lon="6.62853">
        <ele>298.7</ele>
        <time>2025-09-13T14:57:02Z</time>
      </trkpt>
      <trkpt lat="47.43869" lon="6.62848">
        <ele>298.6</ele>
        <time>2025-09-13T14:57:03Z</time>
      </trkpt>
      <trkpt lat="47.43877" lon="6.62844">
        <ele>298.6</ele>
        <time>2025-09-13T14:57:04Z</time>
      </trkpt>
      <trkpt lat="47.43883" lon="6.6284">
        <ele>298.5</ele>
        <time>2025-09-13T14:57:05Z</time>
      </trkpt>
      <trkpt lat="47.4389" lon="6.62836">
        <ele>298.5</ele>
        <time>2025-09-13T14:57:06Z</time>
      </trkpt>
      <trkpt lat="47.43895" lon="6.62832">
        <ele>298.4</ele>
        <time>2025-09-13T14:57:07Z</time>
      </trkpt>
      <trkpt lat="47.43901" lon="6.62828">
        <ele>298.4</ele>
        <time>2025-09-13T14:57:08Z</time>
      </trkpt>
      <trkpt lat="47.43908" lon="6.62824">
        <ele>298.4</ele>
        <time>2025-09-13T14:57:09Z</time>
      </trkpt>
      <trkpt lat="47.43914" lon="6.62821">
        <ele>298.4</ele>
        <time>2025-09-13T14:57:10Z</time>
      </trkpt>
      <trkpt lat="47.43921" lon="6.62818">
        <ele>298.4</ele>
        <time>2025-09-13T14:57:11Z</time>
      </trkpt>
      <trkpt lat="47.43928" lon="6.62814">
        <ele>298.4</ele>
        <time>2025-09-13T14:57:12Z</time>
      </trkpt>
      <trkpt lat="47.43935" lon="6.62813">
        <ele>298.4</ele>
        <time>2025-09-13T14:57:13Z</time>
      </trkpt>
      <trkpt lat="47.43942" lon="6.62811">
        <ele>298.5</ele>
        <time>2025-09-13T14:57:14Z</time>
      </trkpt>
      <trkpt lat="47.43946" lon="6.62814">
        <ele>298.5</ele>
        <time>2025-09-13T14:57:15Z</time>
      </trkpt>
      <trkpt lat="47.43954" lon="6.62813">
        <ele>298.5</ele>
        <time>2025-09-13T14:57:16Z</time>
      </trkpt>
      <trkpt lat="47.43962" lon="6.62816">
        <ele>298.5</ele>
        <time>2025-09-13T14:57:17Z</time>
      </trkpt>
      <trkpt lat="47.43969" lon="6.62818">
        <ele>298.5</ele>
        <time>2025-09-13T14:57:18Z</time>
      </trkpt>
      <trkpt lat="47.43976" lon="6.6282">
        <ele>298.5</ele>
        <time>2025-09-13T14:57:19Z</time>
      </trkpt>
      <trkpt lat="47.43984" lon="6.62822">
        <ele>298.4</ele>
        <time>2025-09-13T14:57:20Z</time>
      </trkpt>
      <trkpt lat="47.43991" lon="6.62825">
        <ele>298.4</ele>
        <time>2025-09-13T14:57:21Z</time>
      </trkpt>
      <trkpt lat="47.43998" lon="6.62828">
        <ele>298.3</ele>
        <time>2025-09-13T14:57:22Z</time>
      </trkpt>
      <trkpt lat="47.44006" lon="6.6283">
        <ele>298.3</ele>
        <time>2025-09-13T14:57:23Z</time>
      </trkpt>
      <trkpt lat="47.44013" lon="6.62832">
        <ele>298.3</ele>
        <time>2025-09-13T14:57:24Z</time>
      </trkpt>
      <trkpt lat="47.4402" lon="6.62836">
        <ele>298.2</ele>
        <time>2025-09-13T14:57:25Z</time>
      </trkpt>
      <trkpt lat="47.44028" lon="6.62838">
        <ele>298.2</ele>
        <time>2025-09-13T14:57:26Z</time>
      </trkpt>
      <trkpt lat="47.44035" lon="6.62841">
        <ele>298.2</ele>
        <time>2025-09-13T14:57:27Z</time>
      </trkpt>
      <trkpt lat="47.44042" lon="6.62843">
        <ele>298.2</ele>
        <time>2025-09-13T14:57:28Z</time>
      </trkpt>
      <trkpt lat="47.4405" lon="6.62845">
        <ele>298.2</ele>
        <time>2025-09-13T14:57:29Z</time>
      </trkpt>
      <trkpt lat="47.44057" lon="6.62847">
        <ele>298.2</ele>
        <time>2025-09-13T14:57:30Z</time>
      </trkpt>
      <trkpt lat="47.44066" lon="6.6285">
        <ele>298.3</ele>
        <time>2025-09-13T14:57:31Z</time>
      </trkpt>
      <trkpt lat="47.44073" lon="6.62855">
        <ele>298.3</ele>
        <time>2025-09-13T14:57:32Z</time>
      </trkpt>
      <trkpt lat="47.44081" lon="6.62861">
        <ele>298.4</ele>
        <time>2025-09-13T14:57:33Z</time>
      </trkpt>
      <trkpt lat="47.44088" lon="6.62867">
        <ele>298.4</ele>
        <time>2025-09-13T14:57:34Z</time>
      </trkpt>
      <trkpt lat="47.44095" lon="6.62872">
        <ele>298.4</ele>
        <time>2025-09-13T14:57:35Z</time>
      </trkpt>
      <trkpt lat="47.44102" lon="6.62876">
        <ele>298.5</ele>
        <time>2025-09-13T14:57:36Z</time>
      </trkpt>
      <trkpt lat="47.44112" lon="6.62876">
        <ele>298.5</ele>
        <time>2025-09-13T14:57:37Z</time>
      </trkpt>
      <trkpt lat="47.4412" lon="6.6288">
        <ele>298.5</ele>
        <time>2025-09-13T14:57:38Z</time>
      </trkpt>
      <trkpt lat="47.44127" lon="6.62883">
        <ele>298.5</ele>
        <time>2025-09-13T14:57:39Z</time>
      </trkpt>
      <trkpt lat="47.44135" lon="6.62885">
        <ele>298.5</ele>
        <time>2025-09-13T14:57:40Z</time>
      </trkpt>
      <trkpt lat="47.44142" lon="6.62889">
        <ele>298.5</ele>
        <time>2025-09-13T14:57:41Z</time>
      </trkpt>
      <trkpt lat="47.44149" lon="6.62892">
        <ele>298.4</ele>
        <time>2025-09-13T14:57:42Z</time>
      </trkpt>
      <trkpt lat="47.44157" lon="6.62894">
        <ele>298.4</ele>
        <time>2025-09-13T14:57:43Z</time>
      </trkpt>
      <trkpt lat="47.44165" lon="6.62896">
        <ele>298.4</ele>
        <time>2025-09-13T14:57:44Z</time>
      </trkpt>
      <trkpt lat="47.44173" lon="6.62897">
        <ele>298.4</ele>
        <time>2025-09-13T14:57:45Z</time>
      </trkpt>
      <trkpt lat="47.4418" lon="6.62897">
        <ele>298.4</ele>
        <time>2025-09-13T14:57:46Z</time>
      </trkpt>
      <trkpt lat="47.44188" lon="6.62895">
        <ele>298.5</ele>
        <time>2025-09-13T14:57:47Z</time>
      </trkpt>
      <trkpt lat="47.44196" lon="6.62893">
        <ele>298.5</ele>
        <time>2025-09-13T14:57:48Z</time>
      </trkpt>
      <trkpt lat="47.44204" lon="6.62895">
        <ele>298.5</ele>
        <time>2025-09-13T14:57:49Z</time>
      </trkpt>
      <trkpt lat="47.44213" lon="6.62898">
        <ele>298.5</ele>
        <time>2025-09-13T14:57:50Z</time>
      </trkpt>
      <trkpt lat="47.44221" lon="6.62901">
        <ele>298.5</ele>
        <time>2025-09-13T14:57:51Z</time>
      </trkpt>
      <trkpt lat="47.44228" lon="6.62904">
        <ele>298.5</ele>
        <time>2025-09-13T14:57:52Z</time>
      </trkpt>
      <trkpt lat="47.44236" lon="6.62907">
        <ele>298.5</ele>
        <time>2025-09-13T14:57:53Z</time>
      </trkpt>
      <trkpt lat="47.44244" lon="6.6291">
        <ele>298.5</ele>
        <time>2025-09-13T14:57:55Z</time>
      </trkpt>
      <trkpt lat="47.44252" lon="6.62912">
        <ele>298.5</ele>
        <time>2025-09-13T14:57:56Z</time>
      </trkpt>
      <trkpt lat="47.4426" lon="6.62916">
        <ele>298.5</ele>
        <time>2025-09-13T14:57:57Z</time>
      </trkpt>
      <trkpt lat="47.44268" lon="6.62919">
        <ele>298.5</ele>
        <time>2025-09-13T14:57:58Z</time>
      </trkpt>
      <trkpt lat="47.44276" lon="6.62921">
        <ele>298.5</ele>
        <time>2025-09-13T14:57:59Z</time>
      </trkpt>
      <trkpt lat="47.44284" lon="6.62922">
        <ele>298.5</ele>
        <time>2025-09-13T14:58:00Z</time>
      </trkpt>
      <trkpt lat="47.44292" lon="6.62926">
        <ele>298.5</ele>
        <time>2025-09-13T14:58:01Z</time>
      </trkpt>
      <trkpt lat="47.443" lon="6.62928">
        <ele>298.5</ele>
        <time>2025-09-13T14:58:02Z</time>
      </trkpt>
      <trkpt lat="47.44308" lon="6.62931">
        <ele>298.5</ele>
        <time>2025-09-13T14:58:03Z</time>
      </trkpt>
      <trkpt lat="47.44316" lon="6.62935">
        <ele>298.5</ele>
        <time>2025-09-13T14:58:04Z</time>
      </trkpt>
      <trkpt lat="47.44324" lon="6.62939">
        <ele>298.5</ele>
        <time>2025-09-13T14:58:05Z</time>
      </trkpt>
      <trkpt lat="47.44332" lon="6.62942">
        <ele>298.5</ele>
        <time>2025-09-13T14:58:06Z</time>
      </trkpt>
      <trkpt lat="47.4434" lon="6.62946">
        <ele>298.5</ele>
        <time>2025-09-13T14:58:07Z</time>
      </trkpt>
      <trkpt lat="47.44348" lon="6.6295">
        <ele>298.5</ele>
        <time>2025-09-13T14:58:08Z</time>
      </trkpt>
      <trkpt lat="47.44356" lon="6.62955">
        <ele>298.5</ele>
        <time>2025-09-13T14:58:09Z</time>
      </trkpt>
      <trkpt lat="47.44364" lon="6.62959">
        <ele>298.5</ele>
        <time>2025-09-13T14:58:10Z</time>
      </trkpt>
      <trkpt lat="47.4438" lon="6.62968">
        <ele>298.4</ele>
        <time>2025-09-13T14:58:11Z</time>
      </trkpt>
      <trkpt lat="47.44388" lon="6.62972">
        <ele>298.4</ele>
        <time>2025-09-13T14:58:12Z</time>
      </trkpt>
      <trkpt lat="47.44395" lon="6.62975">
        <ele>298.4</ele>
        <time>2025-09-13T14:58:13Z</time>
      </trkpt>
      <trkpt lat="47.44403" lon="6.62978">
        <ele>298.3</ele>
        <time>2025-09-13T14:58:14Z</time>
      </trkpt>
      <trkpt lat="47.44411" lon="6.62982">
        <ele>298.3</ele>
        <time>2025-09-13T14:58:15Z</time>
      </trkpt>
      <trkpt lat="47.44417" lon="6.62985">
        <ele>298.4</ele>
        <time>2025-09-13T14:58:16Z</time>
      </trkpt>
      <trkpt lat="47.44425" lon="6.62989">
        <ele>298.4</ele>
        <time>2025-09-13T14:58:17Z</time>
      </trkpt>
      <trkpt lat="47.44433" lon="6.62992">
        <ele>298.4</ele>
        <time>2025-09-13T14:58:18Z</time>
      </trkpt>
      <trkpt lat="47.4444" lon="6.62997">
        <ele>298.4</ele>
        <time>2025-09-13T14:58:19Z</time>
      </trkpt>
      <trkpt lat="47.44447" lon="6.63003">
        <ele>298.4</ele>
        <time>2025-09-13T14:58:20Z</time>
      </trkpt>
      <trkpt lat="47.44455" lon="6.63007">
        <ele>298.5</ele>
        <time>2025-09-13T14:58:21Z</time>
      </trkpt>
      <trkpt lat="47.44462" lon="6.63011">
        <ele>298.5</ele>
        <time>2025-09-13T14:58:22Z</time>
      </trkpt>
      <trkpt lat="47.4447" lon="6.63015">
        <ele>298.5</ele>
        <time>2025-09-13T14:58:23Z</time>
      </trkpt>
      <trkpt lat="47.44478" lon="6.63019">
        <ele>298.5</ele>
        <time>2025-09-13T14:58:24Z</time>
      </trkpt>
      <trkpt lat="47.44485" lon="6.63021">
        <ele>298.5</ele>
        <time>2025-09-13T14:58:25Z</time>
      </trkpt>
      <trkpt lat="47.44492" lon="6.63026">
        <ele>298.5</ele>
        <time>2025-09-13T14:58:26Z</time>
      </trkpt>
      <trkpt lat="47.44499" lon="6.63029">
        <ele>298.5</ele>
        <time>2025-09-13T14:58:27Z</time>
      </trkpt>
      <trkpt lat="47.44507" lon="6.63032">
        <ele>298.5</ele>
        <time>2025-09-13T14:58:28Z</time>
      </trkpt>
      <trkpt lat="47.44515" lon="6.63036">
        <ele>298.5</ele>
        <time>2025-09-13T14:58:29Z</time>
      </trkpt>
      <trkpt lat="47.44523" lon="6.6304">
        <ele>298.5</ele>
        <time>2025-09-13T14:58:30Z</time>
      </trkpt>
      <trkpt lat="47.44531" lon="6.63044">
        <ele>298.4</ele>
        <time>2025-09-13T14:58:31Z</time>
      </trkpt>
      <trkpt lat="47.44538" lon="6.63049">
        <ele>298.4</ele>
        <time>2025-09-13T14:58:32Z</time>
      </trkpt>
      <trkpt lat="47.44546" lon="6.63053">
        <ele>298.4</ele>
        <time>2025-09-13T14:58:33Z</time>
      </trkpt>
      <trkpt lat="47.44554" lon="6.63056">
        <ele>298.5</ele>
        <time>2025-09-13T14:58:34Z</time>
      </trkpt>
      <trkpt lat="47.44561" lon="6.63059">
        <ele>298.5</ele>
        <time>2025-09-13T14:58:35Z</time>
      </trkpt>
      <trkpt lat="47.4457" lon="6.63062">
        <ele>298.6</ele>
        <time>2025-09-13T14:58:36Z</time>
      </trkpt>
      <trkpt lat="47.44577" lon="6.63061">
        <ele>298.7</ele>
        <time>2025-09-13T14:58:37Z</time>
      </trkpt>
      <trkpt lat="47.44584" lon="6.63061">
        <ele>298.7</ele>
        <time>2025-09-13T14:58:38Z</time>
      </trkpt>
      <trkpt lat="47.4459" lon="6.63061">
        <ele>298.7</ele>
        <time>2025-09-13T14:58:39Z</time>
      </trkpt>
      <trkpt lat="47.44596" lon="6.63062">
        <ele>298.7</ele>
        <time>2025-09-13T14:58:40Z</time>
      </trkpt>
      <trkpt lat="47.446" lon="6.6307">
        <ele>298.6</ele>
        <time>2025-09-13T14:58:41Z</time>
      </trkpt>
      <trkpt lat="47.44608" lon="6.63084">
        <ele>298.5</ele>
        <time>2025-09-13T14:58:42Z</time>
      </trkpt>
      <trkpt lat="47.44615" lon="6.6309">
        <ele>298.5</ele>
        <time>2025-09-13T14:58:43Z</time>
      </trkpt>
      <trkpt lat="47.44621" lon="6.63097">
        <ele>298.4</ele>
        <time>2025-09-13T14:58:44Z</time>
      </trkpt>
      <trkpt lat="47.44627" lon="6.63105">
        <ele>298.4</ele>
        <time>2025-09-13T14:58:45Z</time>
      </trkpt>
      <trkpt lat="47.44631" lon="6.63113">
        <ele>298.4</ele>
        <time>2025-09-13T14:58:46Z</time>
      </trkpt>
      <trkpt lat="47.44635" lon="6.63122">
        <ele>298.4</ele>
        <time>2025-09-13T14:58:47Z</time>
      </trkpt>
      <trkpt lat="47.4464" lon="6.63131">
        <ele>298.4</ele>
        <time>2025-09-13T14:58:48Z</time>
      </trkpt>
      <trkpt lat="47.44644" lon="6.63141">
        <ele>298.4</ele>
        <time>2025-09-13T14:58:49Z</time>
      </trkpt>
      <trkpt lat="47.44647" lon="6.63151">
        <ele>298.3</ele>
        <time>2025-09-13T14:58:50Z</time>
      </trkpt>
      <trkpt lat="47.44649" lon="6.63163">
        <ele>298.3</ele>
        <time>2025-09-13T14:58:51Z</time>
      </trkpt>
      <trkpt lat="47.4465" lon="6.63173">
        <ele>298.3</ele>
        <time>2025-09-13T14:58:52Z</time>
      </trkpt>
      <trkpt lat="47.44651" lon="6.63184">
        <ele>298.3</ele>
        <time>2025-09-13T14:58:53Z</time>
      </trkpt>
      <trkpt lat="47.44651" lon="6.63195">
        <ele>298.3</ele>
        <time>2025-09-13T14:58:54Z</time>
      </trkpt>
      <trkpt lat="47.44652" lon="6.63206">
        <ele>298.3</ele>
        <time>2025-09-13T14:58:55Z</time>
      </trkpt>
      <trkpt lat="47.44652" lon="6.63218">
        <ele>298.3</ele>
        <time>2025-09-13T14:58:56Z</time>
      </trkpt>
      <trkpt lat="47.44653" lon="6.63229">
        <ele>298.3</ele>
        <time>2025-09-13T14:58:57Z</time>
      </trkpt>
      <trkpt lat="47.44654" lon="6.63239">
        <ele>298.3</ele>
        <time>2025-09-13T14:58:58Z</time>
      </trkpt>
      <trkpt lat="47.44655" lon="6.63251">
        <ele>298.3</ele>
        <time>2025-09-13T14:58:59Z</time>
      </trkpt>
      <trkpt lat="47.44655" lon="6.63263">
        <ele>298.4</ele>
        <time>2025-09-13T14:59:00Z</time>
      </trkpt>
      <trkpt lat="47.44656" lon="6.63273">
        <ele>298.4</ele>
        <time>2025-09-13T14:59:01Z</time>
      </trkpt>
      <trkpt lat="47.44657" lon="6.63286">
        <ele>298.4</ele>
        <time>2025-09-13T14:59:02Z</time>
      </trkpt>
      <trkpt lat="47.44658" lon="6.63295">
        <ele>298.4</ele>
        <time>2025-09-13T14:59:03Z</time>
      </trkpt>
      <trkpt lat="47.44659" lon="6.63308">
        <ele>298.4</ele>
        <time>2025-09-13T14:59:04Z</time>
      </trkpt>
      <trkpt lat="47.4466" lon="6.63319">
        <ele>298.4</ele>
        <time>2025-09-13T14:59:05Z</time>
      </trkpt>
      <trkpt lat="47.4466" lon="6.6333">
        <ele>298.4</ele>
        <time>2025-09-13T14:59:06Z</time>
      </trkpt>
      <trkpt lat="47.44661" lon="6.6334">
        <ele>298.4</ele>
        <time>2025-09-13T14:59:07Z</time>
      </trkpt>
      <trkpt lat="47.44662" lon="6.63352">
        <ele>298.4</ele>
        <time>2025-09-13T14:59:08Z</time>
      </trkpt>
      <trkpt lat="47.44663" lon="6.63364">
        <ele>298.4</ele>
        <time>2025-09-13T14:59:09Z</time>
      </trkpt>
      <trkpt lat="47.44664" lon="6.63375">
        <ele>298.4</ele>
        <time>2025-09-13T14:59:10Z</time>
      </trkpt>
      <trkpt lat="47.44665" lon="6.63387">
        <ele>298.4</ele>
        <time>2025-09-13T14:59:11Z</time>
      </trkpt>
      <trkpt lat="47.44666" lon="6.63399">
        <ele>298.4</ele>
        <time>2025-09-13T14:59:12Z</time>
      </trkpt>
      <trkpt lat="47.44666" lon="6.63411">
        <ele>298.4</ele>
        <time>2025-09-13T14:59:13Z</time>
      </trkpt>
      <trkpt lat="47.44668" lon="6.63422">
        <ele>298.4</ele>
        <time>2025-09-13T14:59:14Z</time>
      </trkpt>
      <trkpt lat="47.44668" lon="6.63433">
        <ele>298.3</ele>
        <time>2025-09-13T14:59:15Z</time>
      </trkpt>
      <trkpt lat="47.44669" lon="6.63444">
        <ele>298.3</ele>
        <time>2025-09-13T14:59:16Z</time>
      </trkpt>
      <trkpt lat="47.4467" lon="6.63456">
        <ele>298.3</ele>
        <time>2025-09-13T14:59:17Z</time>
      </trkpt>
      <trkpt lat="47.44671" lon="6.63467">
        <ele>298.3</ele>
        <time>2025-09-13T14:59:18Z</time>
      </trkpt>
      <trkpt lat="47.44671" lon="6.63478">
        <ele>298.3</ele>
        <time>2025-09-13T14:59:19Z</time>
      </trkpt>
      <trkpt lat="47.44672" lon="6.63489">
        <ele>298.4</ele>
        <time>2025-09-13T14:59:20Z</time>
      </trkpt>
      <trkpt lat="47.44673" lon="6.635">
        <ele>298.4</ele>
        <time>2025-09-13T14:59:21Z</time>
      </trkpt>
      <trkpt lat="47.44674" lon="6.63511">
        <ele>298.3</ele>
        <time>2025-09-13T14:59:22Z</time>
      </trkpt>
      <trkpt lat="47.44675" lon="6.63523">
        <ele>298.3</ele>
        <time>2025-09-13T14:59:23Z</time>
      </trkpt>
      <trkpt lat="47.44676" lon="6.63534">
        <ele>298.3</ele>
        <time>2025-09-13T14:59:24Z</time>
      </trkpt>
      <trkpt lat="47.44676" lon="6.63546">
        <ele>298.3</ele>
        <time>2025-09-13T14:59:25Z</time>
      </trkpt>
      <trkpt lat="47.44677" lon="6.63558">
        <ele>298.3</ele>
        <time>2025-09-13T14:59:26Z</time>
      </trkpt>
      <trkpt lat="47.44678" lon="6.63569">
        <ele>298.3</ele>
        <time>2025-09-13T14:59:27Z</time>
      </trkpt>
      <trkpt lat="47.44679" lon="6.6358">
        <ele>298.3</ele>
        <time>2025-09-13T14:59:28Z</time>
      </trkpt>
      <trkpt lat="47.44681" lon="6.63592">
        <ele>298.3</ele>
        <time>2025-09-13T14:59:29Z</time>
      </trkpt>
      <trkpt lat="47.44681" lon="6.63604">
        <ele>298.3</ele>
        <time>2025-09-13T14:59:30Z</time>
      </trkpt>
      <trkpt lat="47.44682" lon="6.63616">
        <ele>298.3</ele>
        <time>2025-09-13T14:59:31Z</time>
      </trkpt>
      <trkpt lat="47.44682" lon="6.63628">
        <ele>298.3</ele>
        <time>2025-09-13T14:59:32Z</time>
      </trkpt>
      <trkpt lat="47.44683" lon="6.63637">
        <ele>298.3</ele>
        <time>2025-09-13T14:59:33Z</time>
      </trkpt>
      <trkpt lat="47.44684" lon="6.63651">
        <ele>298.3</ele>
        <time>2025-09-13T14:59:34Z</time>
      </trkpt>
      <trkpt lat="47.44685" lon="6.63662">
        <ele>298.3</ele>
        <time>2025-09-13T14:59:35Z</time>
      </trkpt>
      <trkpt lat="47.44686" lon="6.63674">
        <ele>298.3</ele>
        <time>2025-09-13T14:59:36Z</time>
      </trkpt>
      <trkpt lat="47.44687" lon="6.63686">
        <ele>298.3</ele>
        <time>2025-09-13T14:59:37Z</time>
      </trkpt>
      <trkpt lat="47.44688" lon="6.637">
        <ele>298.3</ele>
        <time>2025-09-13T14:59:38Z</time>
      </trkpt>
      <trkpt lat="47.44689" lon="6.63711">
        <ele>298.3</ele>
        <time>2025-09-13T14:59:39Z</time>
      </trkpt>
      <trkpt lat="47.4469" lon="6.63722">
        <ele>298.3</ele>
        <time>2025-09-13T14:59:40Z</time>
      </trkpt>
      <trkpt lat="47.44691" lon="6.63734">
        <ele>298.3</ele>
        <time>2025-09-13T14:59:41Z</time>
      </trkpt>
      <trkpt lat="47.44691" lon="6.63746">
        <ele>298.2</ele>
        <time>2025-09-13T14:59:42Z</time>
      </trkpt>
      <trkpt lat="47.44692" lon="6.63757">
        <ele>298.2</ele>
        <time>2025-09-13T14:59:43Z</time>
      </trkpt>
      <trkpt lat="47.44693" lon="6.63769">
        <ele>298.2</ele>
        <time>2025-09-13T14:59:44Z</time>
      </trkpt>
      <trkpt lat="47.44694" lon="6.63781">
        <ele>298.2</ele>
        <time>2025-09-13T14:59:45Z</time>
      </trkpt>
      <trkpt lat="47.44695" lon="6.63793">
        <ele>298.2</ele>
        <time>2025-09-13T14:59:46Z</time>
      </trkpt>
      <trkpt lat="47.44696" lon="6.63805">
        <ele>298.2</ele>
        <time>2025-09-13T14:59:47Z</time>
      </trkpt>
      <trkpt lat="47.44697" lon="6.63816">
        <ele>298.2</ele>
        <time>2025-09-13T14:59:48Z</time>
      </trkpt>
      <trkpt lat="47.44698" lon="6.63828">
        <ele>298.2</ele>
        <time>2025-09-13T14:59:49Z</time>
      </trkpt>
      <trkpt lat="47.44699" lon="6.63841">
        <ele>298.3</ele>
        <time>2025-09-13T14:59:50Z</time>
      </trkpt>
      <trkpt lat="47.447" lon="6.63853">
        <ele>298.3</ele>
        <time>2025-09-13T14:59:51Z</time>
      </trkpt>
      <trkpt lat="47.44701" lon="6.63864">
        <ele>298.3</ele>
        <time>2025-09-13T14:59:52Z</time>
      </trkpt>
      <trkpt lat="47.44702" lon="6.63876">
        <ele>298.3</ele>
        <time>2025-09-13T14:59:53Z</time>
      </trkpt>
      <trkpt lat="47.44703" lon="6.63888">
        <ele>298.3</ele>
        <time>2025-09-13T14:59:54Z</time>
      </trkpt>
      <trkpt lat="47.44704" lon="6.639">
        <ele>298.3</ele>
        <time>2025-09-13T14:59:55Z</time>
      </trkpt>
      <trkpt lat="47.44704" lon="6.63912">
        <ele>298.3</ele>
        <time>2025-09-13T14:59:57Z</time>
      </trkpt>
      <trkpt lat="47.44704" lon="6.63924">
        <ele>298.3</ele>
        <time>2025-09-13T14:59:58Z</time>
      </trkpt>
      <trkpt lat="47.44704" lon="6.63936">
        <ele>298.3</ele>
        <time>2025-09-13T14:59:59Z</time>
      </trkpt>
      <trkpt lat="47.44706" lon="6.63948">
        <ele>298.2</ele>
        <time>2025-09-13T15:00:00Z</time>
      </trkpt>
      <trkpt lat="47.44707" lon="6.6396">
        <ele>298.3</ele>
        <time>2025-09-13T15:00:01Z</time>
      </trkpt>
      <trkpt lat="47.44709" lon="6.63972">
        <ele>298.3</ele>
        <time>2025-09-13T15:00:02Z</time>
      </trkpt>
      <trkpt lat="47.44709" lon="6.63983">
        <ele>298.3</ele>
        <time>2025-09-13T15:00:03Z</time>
      </trkpt>
      <trkpt lat="47.4471" lon="6.63997">
        <ele>298.3</ele>
        <time>2025-09-13T15:00:04Z</time>
      </trkpt>
      <trkpt lat="47.44711" lon="6.64009">
        <ele>298.3</ele>
        <time>2025-09-13T15:00:05Z</time>
      </trkpt>
      <trkpt lat="47.44713" lon="6.64022">
        <ele>298.3</ele>
        <time>2025-09-13T15:00:06Z</time>
      </trkpt>
      <trkpt lat="47.44713" lon="6.64033">
        <ele>298.3</ele>
        <time>2025-09-13T15:00:07Z</time>
      </trkpt>
      <trkpt lat="47.44714" lon="6.64046">
        <ele>298.3</ele>
        <time>2025-09-13T15:00:08Z</time>
      </trkpt>
      <trkpt lat="47.44715" lon="6.64059">
        <ele>298.3</ele>
        <time>2025-09-13T15:00:09Z</time>
      </trkpt>
      <trkpt lat="47.44717" lon="6.64072">
        <ele>298.3</ele>
        <time>2025-09-13T15:00:10Z</time>
      </trkpt>
      <trkpt lat="47.44718" lon="6.64086">
        <ele>298.3</ele>
        <time>2025-09-13T15:00:11Z</time>
      </trkpt>
      <trkpt lat="47.44718" lon="6.64097">
        <ele>298.4</ele>
        <time>2025-09-13T15:00:12Z</time>
      </trkpt>
      <trkpt lat="47.4472" lon="6.64109">
        <ele>298.4</ele>
        <time>2025-09-13T15:00:13Z</time>
      </trkpt>
      <trkpt lat="47.44721" lon="6.64133">
        <ele>298.5</ele>
        <time>2025-09-13T15:00:14Z</time>
      </trkpt>
      <trkpt lat="47.44722" lon="6.64144">
        <ele>298.5</ele>
        <time>2025-09-13T15:00:15Z</time>
      </trkpt>
      <trkpt lat="47.44723" lon="6.64157">
        <ele>298.5</ele>
        <time>2025-09-13T15:00:16Z</time>
      </trkpt>
      <trkpt lat="47.44724" lon="6.64169">
        <ele>298.5</ele>
        <time>2025-09-13T15:00:17Z</time>
      </trkpt>
      <trkpt lat="47.44725" lon="6.6418">
        <ele>298.5</ele>
        <time>2025-09-13T15:00:18Z</time>
      </trkpt>
      <trkpt lat="47.44726" lon="6.64191">
        <ele>298.5</ele>
        <time>2025-09-13T15:00:19Z</time>
      </trkpt>
      <trkpt lat="47.44727" lon="6.64203">
        <ele>298.5</ele>
        <time>2025-09-13T15:00:20Z</time>
      </trkpt>
      <trkpt lat="47.44728" lon="6.64214">
        <ele>298.5</ele>
        <time>2025-09-13T15:00:21Z</time>
      </trkpt>
      <trkpt lat="47.44729" lon="6.64225">
        <ele>298.5</ele>
        <time>2025-09-13T15:00:22Z</time>
      </trkpt>
      <trkpt lat="47.4473" lon="6.64236">
        <ele>298.5</ele>
        <time>2025-09-13T15:00:23Z</time>
      </trkpt>
      <trkpt lat="47.44731" lon="6.64247">
        <ele>298.5</ele>
        <time>2025-09-13T15:00:24Z</time>
      </trkpt>
      <trkpt lat="47.44732" lon="6.64258">
        <ele>298.5</ele>
        <time>2025-09-13T15:00:25Z</time>
      </trkpt>
      <trkpt lat="47.44733" lon="6.64269">
        <ele>298.5</ele>
        <time>2025-09-13T15:00:26Z</time>
      </trkpt>
      <trkpt lat="47.44733" lon="6.6428">
        <ele>298.5</ele>
        <time>2025-09-13T15:00:27Z</time>
      </trkpt>
      <trkpt lat="47.44734" lon="6.64291">
        <ele>298.5</ele>
        <time>2025-09-13T15:00:28Z</time>
      </trkpt>
      <trkpt lat="47.44735" lon="6.64303">
        <ele>298.5</ele>
        <time>2025-09-13T15:00:29Z</time>
      </trkpt>
      <trkpt lat="47.44736" lon="6.64313">
        <ele>298.5</ele>
        <time>2025-09-13T15:00:30Z</time>
      </trkpt>
      <trkpt lat="47.44737" lon="6.64324">
        <ele>298.5</ele>
        <time>2025-09-13T15:00:31Z</time>
      </trkpt>
      <trkpt lat="47.44738" lon="6.64334">
        <ele>298.5</ele>
        <time>2025-09-13T15:00:32Z</time>
      </trkpt>
      <trkpt lat="47.44739" lon="6.64346">
        <ele>298.5</ele>
        <time>2025-09-13T15:00:33Z</time>
      </trkpt>
      <trkpt lat="47.4474" lon="6.64357">
        <ele>298.5</ele>
        <time>2025-09-13T15:00:34Z</time>
      </trkpt>
      <trkpt lat="47.44741" lon="6.64367">
        <ele>298.4</ele>
        <time>2025-09-13T15:00:35Z</time>
      </trkpt>
      <trkpt lat="47.44742" lon="6.64379">
        <ele>298.4</ele>
        <time>2025-09-13T15:00:36Z</time>
      </trkpt>
      <trkpt lat="47.44743" lon="6.6439">
        <ele>298.4</ele>
        <time>2025-09-13T15:00:37Z</time>
      </trkpt>
      <trkpt lat="47.44744" lon="6.644">
        <ele>298.4</ele>
        <time>2025-09-13T15:00:38Z</time>
      </trkpt>
      <trkpt lat="47.44744" lon="6.6441">
        <ele>298.4</ele>
        <time>2025-09-13T15:00:39Z</time>
      </trkpt>
      <trkpt lat="47.44744" lon="6.64421">
        <ele>298.4</ele>
        <time>2025-09-13T15:00:40Z</time>
      </trkpt>
      <trkpt lat="47.44745" lon="6.64431">
        <ele>298.4</ele>
        <time>2025-09-13T15:00:41Z</time>
      </trkpt>
      <trkpt lat="47.44746" lon="6.64442">
        <ele>298.4</ele>
        <time>2025-09-13T15:00:42Z</time>
      </trkpt>
      <trkpt lat="47.44747" lon="6.64452">
        <ele>298.4</ele>
        <time>2025-09-13T15:00:43Z</time>
      </trkpt>
      <trkpt lat="47.44747" lon="6.64461">
        <ele>298.5</ele>
        <time>2025-09-13T15:00:44Z</time>
      </trkpt>
      <trkpt lat="47.44748" lon="6.64471">
        <ele>298.5</ele>
        <time>2025-09-13T15:00:45Z</time>
      </trkpt>
      <trkpt lat="47.4475" lon="6.64481">
        <ele>298.5</ele>
        <time>2025-09-13T15:00:46Z</time>
      </trkpt>
      <trkpt lat="47.4475" lon="6.64492">
        <ele>298.5</ele>
        <time>2025-09-13T15:00:47Z</time>
      </trkpt>
      <trkpt lat="47.44752" lon="6.64501">
        <ele>298.5</ele>
        <time>2025-09-13T15:00:48Z</time>
      </trkpt>
      <trkpt lat="47.44753" lon="6.6451">
        <ele>298.5</ele>
        <time>2025-09-13T15:00:49Z</time>
      </trkpt>
      <trkpt lat="47.44753" lon="6.6452">
        <ele>298.5</ele>
        <time>2025-09-13T15:00:50Z</time>
      </trkpt>
      <trkpt lat="47.44753" lon="6.64529">
        <ele>298.5</ele>
        <time>2025-09-13T15:00:51Z</time>
      </trkpt>
      <trkpt lat="47.44754" lon="6.6454">
        <ele>298.5</ele>
        <time>2025-09-13T15:00:52Z</time>
      </trkpt>
      <trkpt lat="47.44756" lon="6.64549">
        <ele>298.5</ele>
        <time>2025-09-13T15:00:53Z</time>
      </trkpt>
      <trkpt lat="47.44756" lon="6.64559">
        <ele>298.6</ele>
        <time>2025-09-13T15:00:54Z</time>
      </trkpt>
      <trkpt lat="47.44757" lon="6.64568">
        <ele>298.6</ele>
        <time>2025-09-13T15:00:55Z</time>
      </trkpt>
      <trkpt lat="47.44757" lon="6.64577">
        <ele>298.6</ele>
        <time>2025-09-13T15:00:56Z</time>
      </trkpt>
      <trkpt lat="47.44758" lon="6.64586">
        <ele>298.6</ele>
        <time>2025-09-13T15:00:57Z</time>
      </trkpt>
      <trkpt lat="47.44759" lon="6.64594">
        <ele>298.6</ele>
        <time>2025-09-13T15:00:58Z</time>
      </trkpt>
      <trkpt lat="47.4476" lon="6.64603">
        <ele>298.6</ele>
        <time>2025-09-13T15:00:59Z</time>
      </trkpt>
      <trkpt lat="47.4476" lon="6.64611">
        <ele>298.6</ele>
        <time>2025-09-13T15:01:00Z</time>
      </trkpt>
      <trkpt lat="47.44761" lon="6.64621">
        <ele>298.6</ele>
        <time>2025-09-13T15:01:01Z</time>
      </trkpt>
      <trkpt lat="47.44761" lon="6.64631">
        <ele>298.6</ele>
        <time>2025-09-13T15:01:02Z</time>
      </trkpt>
      <trkpt lat="47.44762" lon="6.6464">
        <ele>298.6</ele>
        <time>2025-09-13T15:01:03Z</time>
      </trkpt>
      <trkpt lat="47.44763" lon="6.64649">
        <ele>298.6</ele>
        <time>2025-09-13T15:01:04Z</time>
      </trkpt>
      <trkpt lat="47.44764" lon="6.64658">
        <ele>298.6</ele>
        <time>2025-09-13T15:01:05Z</time>
      </trkpt>
      <trkpt lat="47.44765" lon="6.64667">
        <ele>298.6</ele>
        <time>2025-09-13T15:01:06Z</time>
      </trkpt>
      <trkpt lat="47.44765" lon="6.64677">
        <ele>298.6</ele>
        <time>2025-09-13T15:01:07Z</time>
      </trkpt>
      <trkpt lat="47.44766" lon="6.64686">
        <ele>298.6</ele>
        <time>2025-09-13T15:01:08Z</time>
      </trkpt>
      <trkpt lat="47.44767" lon="6.64695">
        <ele>298.6</ele>
        <time>2025-09-13T15:01:09Z</time>
      </trkpt>
      <trkpt lat="47.44768" lon="6.64704">
        <ele>298.6</ele>
        <time>2025-09-13T15:01:10Z</time>
      </trkpt>
      <trkpt lat="47.44769" lon="6.64713">
        <ele>298.5</ele>
        <time>2025-09-13T15:01:11Z</time>
      </trkpt>
      <trkpt lat="47.44769" lon="6.64723">
        <ele>298.5</ele>
        <time>2025-09-13T15:01:12Z</time>
      </trkpt>
      <trkpt lat="47.4477" lon="6.64731">
        <ele>298.5</ele>
        <time>2025-09-13T15:01:13Z</time>
      </trkpt>
      <trkpt lat="47.4477" lon="6.64739">
        <ele>298.5</ele>
        <time>2025-09-13T15:01:14Z</time>
      </trkpt>
      <trkpt lat="47.44771" lon="6.64749">
        <ele>298.5</ele>
        <time>2025-09-13T15:01:15Z</time>
      </trkpt>
      <trkpt lat="47.44772" lon="6.64758">
        <ele>298.5</ele>
        <time>2025-09-13T15:01:16Z</time>
      </trkpt>
      <trkpt lat="47.44772" lon="6.64768">
        <ele>298.5</ele>
        <time>2025-09-13T15:01:17Z</time>
      </trkpt>
      <trkpt lat="47.44773" lon="6.64778">
        <ele>298.5</ele>
        <time>2025-09-13T15:01:18Z</time>
      </trkpt>
      <trkpt lat="47.44773" lon="6.64787">
        <ele>298.5</ele>
        <time>2025-09-13T15:01:19Z</time>
      </trkpt>
      <trkpt lat="47.44774" lon="6.64798">
        <ele>298.5</ele>
        <time>2025-09-13T15:01:20Z</time>
      </trkpt>
      <trkpt lat="47.44775" lon="6.64808">
        <ele>298.5</ele>
        <time>2025-09-13T15:01:21Z</time>
      </trkpt>
      <trkpt lat="47.44776" lon="6.64817">
        <ele>298.5</ele>
        <time>2025-09-13T15:01:22Z</time>
      </trkpt>
      <trkpt lat="47.44777" lon="6.64827">
        <ele>298.5</ele>
        <time>2025-09-13T15:01:23Z</time>
      </trkpt>
      <trkpt lat="47.44777" lon="6.64837">
        <ele>298.5</ele>
        <time>2025-09-13T15:01:24Z</time>
      </trkpt>
      <trkpt lat="47.44778" lon="6.64846">
        <ele>298.5</ele>
        <time>2025-09-13T15:01:25Z</time>
      </trkpt>
      <trkpt lat="47.44779" lon="6.64856">
        <ele>298.5</ele>
        <time>2025-09-13T15:01:26Z</time>
      </trkpt>
      <trkpt lat="47.44779" lon="6.64866">
        <ele>298.6</ele>
        <time>2025-09-13T15:01:27Z</time>
      </trkpt>
      <trkpt lat="47.44781" lon="6.64875">
        <ele>298.6</ele>
        <time>2025-09-13T15:01:28Z</time>
      </trkpt>
      <trkpt lat="47.44782" lon="6.64883">
        <ele>298.7</ele>
        <time>2025-09-13T15:01:29Z</time>
      </trkpt>
      <trkpt lat="47.44783" lon="6.64892">
        <ele>298.8</ele>
        <time>2025-09-13T15:01:30Z</time>
      </trkpt>
      <trkpt lat="47.44783" lon="6.649">
        <ele>299</ele>
        <time>2025-09-13T15:01:31Z</time>
      </trkpt>
      <trkpt lat="47.44784" lon="6.64908">
        <ele>299.1</ele>
        <time>2025-09-13T15:01:32Z</time>
      </trkpt>
      <trkpt lat="47.44785" lon="6.64915">
        <ele>299.3</ele>
        <time>2025-09-13T15:01:33Z</time>
      </trkpt>
      <trkpt lat="47.44786" lon="6.64922">
        <ele>299.3</ele>
        <time>2025-09-13T15:01:34Z</time>
      </trkpt>
      <trkpt lat="47.44787" lon="6.64929">
        <ele>299.4</ele>
        <time>2025-09-13T15:01:35Z</time>
      </trkpt>
      <trkpt lat="47.44788" lon="6.64934">
        <ele>299.4</ele>
        <time>2025-09-13T15:01:36Z</time>
      </trkpt>
      <trkpt lat="47.44789" lon="6.64941">
        <ele>299.5</ele>
        <time>2025-09-13T15:01:37Z</time>
      </trkpt>
      <trkpt lat="47.4479" lon="6.64947">
        <ele>299.5</ele>
        <time>2025-09-13T15:01:38Z</time>
      </trkpt>
      <trkpt lat="47.44792" lon="6.64954">
        <ele>299.6</ele>
        <time>2025-09-13T15:01:39Z</time>
      </trkpt>
      <trkpt lat="47.44793" lon="6.64961">
        <ele>299.7</ele>
        <time>2025-09-13T15:01:40Z</time>
      </trkpt>
      <trkpt lat="47.44794" lon="6.64968">
        <ele>299.8</ele>
        <time>2025-09-13T15:01:41Z</time>
      </trkpt>
      <trkpt lat="47.44794" lon="6.64976">
        <ele>299.9</ele>
        <time>2025-09-13T15:01:42Z</time>
      </trkpt>
      <trkpt lat="47.44795" lon="6.64983">
        <ele>300.1</ele>
        <time>2025-09-13T15:01:43Z</time>
      </trkpt>
      <trkpt lat="47.44796" lon="6.64991">
        <ele>300.3</ele>
        <time>2025-09-13T15:01:44Z</time>
      </trkpt>
      <trkpt lat="47.44796" lon="6.64998">
        <ele>300.4</ele>
        <time>2025-09-13T15:01:45Z</time>
      </trkpt>
      <trkpt lat="47.44796" lon="6.65005">
        <ele>300.6</ele>
        <time>2025-09-13T15:01:46Z</time>
      </trkpt>
      <trkpt lat="47.44795" lon="6.65012">
        <ele>300.7</ele>
        <time>2025-09-13T15:01:47Z</time>
      </trkpt>
      <trkpt lat="47.44795" lon="6.6502">
        <ele>300.8</ele>
        <time>2025-09-13T15:01:48Z</time>
      </trkpt>
      <trkpt lat="47.44794" lon="6.65028">
        <ele>300.8</ele>
        <time>2025-09-13T15:01:49Z</time>
      </trkpt>
      <trkpt lat="47.44794" lon="6.65035">
        <ele>300.8</ele>
        <time>2025-09-13T15:01:50Z</time>
      </trkpt>
      <trkpt lat="47.44795" lon="6.65042">
        <ele>300.8</ele>
        <time>2025-09-13T15:01:51Z</time>
      </trkpt>
      <trkpt lat="47.44796" lon="6.65049">
        <ele>300.9</ele>
        <time>2025-09-13T15:01:52Z</time>
      </trkpt>
      <trkpt lat="47.44797" lon="6.65056">
        <ele>300.9</ele>
        <time>2025-09-13T15:01:53Z</time>
      </trkpt>
      <trkpt lat="47.44797" lon="6.65062">
        <ele>300.9</ele>
        <time>2025-09-13T15:01:54Z</time>
      </trkpt>
      <trkpt lat="47.44797" lon="6.65069">
        <ele>300.9</ele>
        <time>2025-09-13T15:01:55Z</time>
      </trkpt>
      <trkpt lat="47.44798" lon="6.65076">
        <ele>300.9</ele>
        <time>2025-09-13T15:01:56Z</time>
      </trkpt>
      <trkpt lat="47.44798" lon="6.65083">
        <ele>300.9</ele>
        <time>2025-09-13T15:01:57Z</time>
      </trkpt>
      <trkpt lat="47.44799" lon="6.6509">
        <ele>300.9</ele>
        <time>2025-09-13T15:01:58Z</time>
      </trkpt>
      <trkpt lat="47.448" lon="6.65097">
        <ele>300.9</ele>
        <time>2025-09-13T15:01:59Z</time>
      </trkpt>
      <trkpt lat="47.448" lon="6.65105">
        <ele>300.9</ele>
        <time>2025-09-13T15:02:00Z</time>
      </trkpt>
      <trkpt lat="47.44801" lon="6.65113">
        <ele>300.9</ele>
        <time>2025-09-13T15:02:01Z</time>
      </trkpt>
      <trkpt lat="47.44802" lon="6.65121">
        <ele>300.9</ele>
        <time>2025-09-13T15:02:02Z</time>
      </trkpt>
      <trkpt lat="47.44802" lon="6.65129">
        <ele>300.9</ele>
        <time>2025-09-13T15:02:03Z</time>
      </trkpt>
      <trkpt lat="47.44803" lon="6.65138">
        <ele>300.9</ele>
        <time>2025-09-13T15:02:04Z</time>
      </trkpt>
      <trkpt lat="47.44804" lon="6.65147">
        <ele>300.9</ele>
        <time>2025-09-13T15:02:05Z</time>
      </trkpt>
      <trkpt lat="47.44804" lon="6.65155">
        <ele>300.9</ele>
        <time>2025-09-13T15:02:07Z</time>
      </trkpt>
      <trkpt lat="47.44805" lon="6.65163">
        <ele>300.9</ele>
        <time>2025-09-13T15:02:08Z</time>
      </trkpt>
      <trkpt lat="47.44806" lon="6.65171">
        <ele>300.9</ele>
        <time>2025-09-13T15:02:09Z</time>
      </trkpt>
      <trkpt lat="47.44806" lon="6.6518">
        <ele>300.9</ele>
        <time>2025-09-13T15:02:10Z</time>
      </trkpt>
      <trkpt lat="47.44807" lon="6.65189">
        <ele>300.9</ele>
        <time>2025-09-13T15:02:11Z</time>
      </trkpt>
      <trkpt lat="47.44808" lon="6.65198">
        <ele>300.9</ele>
        <time>2025-09-13T15:02:12Z</time>
      </trkpt>
      <trkpt lat="47.44809" lon="6.65207">
        <ele>300.8</ele>
        <time>2025-09-13T15:02:13Z</time>
      </trkpt>
      <trkpt lat="47.4481" lon="6.65216">
        <ele>300.8</ele>
        <time>2025-09-13T15:02:14Z</time>
      </trkpt>
      <trkpt lat="47.4481" lon="6.65225">
        <ele>300.8</ele>
        <time>2025-09-13T15:02:15Z</time>
      </trkpt>
      <trkpt lat="47.44811" lon="6.65234">
        <ele>300.8</ele>
        <time>2025-09-13T15:02:16Z</time>
      </trkpt>
      <trkpt lat="47.44812" lon="6.65244">
        <ele>300.8</ele>
        <time>2025-09-13T15:02:17Z</time>
      </trkpt>
      <trkpt lat="47.44812" lon="6.65253">
        <ele>300.8</ele>
        <time>2025-09-13T15:02:18Z</time>
      </trkpt>
      <trkpt lat="47.44813" lon="6.65263">
        <ele>300.8</ele>
        <time>2025-09-13T15:02:19Z</time>
      </trkpt>
      <trkpt lat="47.44814" lon="6.65273">
        <ele>300.8</ele>
        <time>2025-09-13T15:02:20Z</time>
      </trkpt>
      <trkpt lat="47.44814" lon="6.65283">
        <ele>300.8</ele>
        <time>2025-09-13T15:02:21Z</time>
      </trkpt>
      <trkpt lat="47.44815" lon="6.65293">
        <ele>300.8</ele>
        <time>2025-09-13T15:02:22Z</time>
      </trkpt>
      <trkpt lat="47.44816" lon="6.65304">
        <ele>300.8</ele>
        <time>2025-09-13T15:02:23Z</time>
      </trkpt>
      <trkpt lat="47.44817" lon="6.65314">
        <ele>300.8</ele>
        <time>2025-09-13T15:02:24Z</time>
      </trkpt>
      <trkpt lat="47.44818" lon="6.65334">
        <ele>300.7</ele>
        <time>2025-09-13T15:02:25Z</time>
      </trkpt>
      <trkpt lat="47.44819" lon="6.65345">
        <ele>300.7</ele>
        <time>2025-09-13T15:02:26Z</time>
      </trkpt>
      <trkpt lat="47.44819" lon="6.65355">
        <ele>300.7</ele>
        <time>2025-09-13T15:02:27Z</time>
      </trkpt>
      <trkpt lat="47.4482" lon="6.65365">
        <ele>300.7</ele>
        <time>2025-09-13T15:02:28Z</time>
      </trkpt>
      <trkpt lat="47.44821" lon="6.65376">
        <ele>300.6</ele>
        <time>2025-09-13T15:02:29Z</time>
      </trkpt>
      <trkpt lat="47.44822" lon="6.65386">
        <ele>300.6</ele>
        <time>2025-09-13T15:02:30Z</time>
      </trkpt>
      <trkpt lat="47.44823" lon="6.65397">
        <ele>300.5</ele>
        <time>2025-09-13T15:02:31Z</time>
      </trkpt>
      <trkpt lat="47.44824" lon="6.65407">
        <ele>300.5</ele>
        <time>2025-09-13T15:02:32Z</time>
      </trkpt>
      <trkpt lat="47.44824" lon="6.65417">
        <ele>300.5</ele>
        <time>2025-09-13T15:02:33Z</time>
      </trkpt>
      <trkpt lat="47.44825" lon="6.65427">
        <ele>300.5</ele>
        <time>2025-09-13T15:02:34Z</time>
      </trkpt>
      <trkpt lat="47.44826" lon="6.65439">
        <ele>300.5</ele>
        <time>2025-09-13T15:02:35Z</time>
      </trkpt>
      <trkpt lat="47.44827" lon="6.65449">
        <ele>300.5</ele>
        <time>2025-09-13T15:02:36Z</time>
      </trkpt>
      <trkpt lat="47.44828" lon="6.65459">
        <ele>300.5</ele>
        <time>2025-09-13T15:02:37Z</time>
      </trkpt>
      <trkpt lat="47.44829" lon="6.6547">
        <ele>300.5</ele>
        <time>2025-09-13T15:02:38Z</time>
      </trkpt>
      <trkpt lat="47.4483" lon="6.65481">
        <ele>300.5</ele>
        <time>2025-09-13T15:02:39Z</time>
      </trkpt>
      <trkpt lat="47.44831" lon="6.65491">
        <ele>300.5</ele>
        <time>2025-09-13T15:02:40Z</time>
      </trkpt>
      <trkpt lat="47.44831" lon="6.65502">
        <ele>300.5</ele>
        <time>2025-09-13T15:02:41Z</time>
      </trkpt>
      <trkpt lat="47.44832" lon="6.65512">
        <ele>300.5</ele>
        <time>2025-09-13T15:02:42Z</time>
      </trkpt>
      <trkpt lat="47.44833" lon="6.65523">
        <ele>300.5</ele>
        <time>2025-09-13T15:02:43Z</time>
      </trkpt>
      <trkpt lat="47.44833" lon="6.65533">
        <ele>300.5</ele>
        <time>2025-09-13T15:02:44Z</time>
      </trkpt>
      <trkpt lat="47.44834" lon="6.65543">
        <ele>300.5</ele>
        <time>2025-09-13T15:02:45Z</time>
      </trkpt>
      <trkpt lat="47.44835" lon="6.65554">
        <ele>300.5</ele>
        <time>2025-09-13T15:02:46Z</time>
      </trkpt>
      <trkpt lat="47.44836" lon="6.65564">
        <ele>300.5</ele>
        <time>2025-09-13T15:02:47Z</time>
      </trkpt>
      <trkpt lat="47.44837" lon="6.65574">
        <ele>300.5</ele>
        <time>2025-09-13T15:02:48Z</time>
      </trkpt>
      <trkpt lat="47.44837" lon="6.65585">
        <ele>300.6</ele>
        <time>2025-09-13T15:02:49Z</time>
      </trkpt>
      <trkpt lat="47.44838" lon="6.65595">
        <ele>300.6</ele>
        <time>2025-09-13T15:02:50Z</time>
      </trkpt>
      <trkpt lat="47.44839" lon="6.65605">
        <ele>300.6</ele>
        <time>2025-09-13T15:02:51Z</time>
      </trkpt>
      <trkpt lat="47.44839" lon="6.65616">
        <ele>300.6</ele>
        <time>2025-09-13T15:02:52Z</time>
      </trkpt>
      <trkpt lat="47.4484" lon="6.65625">
        <ele>300.6</ele>
        <time>2025-09-13T15:02:53Z</time>
      </trkpt>
      <trkpt lat="47.44841" lon="6.65636">
        <ele>300.6</ele>
        <time>2025-09-13T15:02:54Z</time>
      </trkpt>
      <trkpt lat="47.44842" lon="6.65646">
        <ele>300.6</ele>
        <time>2025-09-13T15:02:55Z</time>
      </trkpt>
      <trkpt lat="47.44843" lon="6.65656">
        <ele>300.6</ele>
        <time>2025-09-13T15:02:56Z</time>
      </trkpt>
      <trkpt lat="47.44843" lon="6.65666">
        <ele>300.6</ele>
        <time>2025-09-13T15:02:57Z</time>
      </trkpt>
      <trkpt lat="47.44844" lon="6.65676">
        <ele>300.6</ele>
        <time>2025-09-13T15:02:58Z</time>
      </trkpt>
      <trkpt lat="47.44845" lon="6.65687">
        <ele>300.6</ele>
        <time>2025-09-13T15:02:59Z</time>
      </trkpt>
      <trkpt lat="47.44846" lon="6.65697">
        <ele>300.6</ele>
        <time>2025-09-13T15:03:00Z</time>
      </trkpt>
      <trkpt lat="47.44847" lon="6.65707">
        <ele>300.6</ele>
        <time>2025-09-13T15:03:01Z</time>
      </trkpt>
      <trkpt lat="47.44847" lon="6.65717">
        <ele>300.6</ele>
        <time>2025-09-13T15:03:02Z</time>
      </trkpt>
      <trkpt lat="47.44848" lon="6.65727">
        <ele>300.6</ele>
        <time>2025-09-13T15:03:03Z</time>
      </trkpt>
      <trkpt lat="47.44848" lon="6.65737">
        <ele>300.6</ele>
        <time>2025-09-13T15:03:04Z</time>
      </trkpt>
      <trkpt lat="47.44849" lon="6.65748">
        <ele>300.7</ele>
        <time>2025-09-13T15:03:05Z</time>
      </trkpt>
      <trkpt lat="47.4485" lon="6.65758">
        <ele>300.7</ele>
        <time>2025-09-13T15:03:06Z</time>
      </trkpt>
      <trkpt lat="47.44851" lon="6.65768">
        <ele>300.7</ele>
        <time>2025-09-13T15:03:07Z</time>
      </trkpt>
      <trkpt lat="47.44852" lon="6.65778">
        <ele>300.7</ele>
        <time>2025-09-13T15:03:08Z</time>
      </trkpt>
      <trkpt lat="47.44852" lon="6.65788">
        <ele>300.8</ele>
        <time>2025-09-13T15:03:09Z</time>
      </trkpt>
      <trkpt lat="47.44853" lon="6.65798">
        <ele>300.8</ele>
        <time>2025-09-13T15:03:10Z</time>
      </trkpt>
      <trkpt lat="47.44854" lon="6.65808">
        <ele>300.8</ele>
        <time>2025-09-13T15:03:11Z</time>
      </trkpt>
      <trkpt lat="47.44854" lon="6.65818">
        <ele>300.8</ele>
        <time>2025-09-13T15:03:12Z</time>
      </trkpt>
      <trkpt lat="47.44855" lon="6.65828">
        <ele>300.8</ele>
        <time>2025-09-13T15:03:13Z</time>
      </trkpt>
      <trkpt lat="47.44856" lon="6.65838">
        <ele>300.8</ele>
        <time>2025-09-13T15:03:14Z</time>
      </trkpt>
      <trkpt lat="47.44857" lon="6.65848">
        <ele>300.8</ele>
        <time>2025-09-13T15:03:15Z</time>
      </trkpt>
      <trkpt lat="47.44858" lon="6.65858">
        <ele>300.8</ele>
        <time>2025-09-13T15:03:16Z</time>
      </trkpt>
      <trkpt lat="47.44859" lon="6.65868">
        <ele>300.8</ele>
        <time>2025-09-13T15:03:17Z</time>
      </trkpt>
      <trkpt lat="47.4486" lon="6.65879">
        <ele>300.9</ele>
        <time>2025-09-13T15:03:18Z</time>
      </trkpt>
      <trkpt lat="47.4486" lon="6.6589">
        <ele>300.9</ele>
        <time>2025-09-13T15:03:19Z</time>
      </trkpt>
      <trkpt lat="47.44861" lon="6.659">
        <ele>300.9</ele>
        <time>2025-09-13T15:03:20Z</time>
      </trkpt>
      <trkpt lat="47.44861" lon="6.65909">
        <ele>300.9</ele>
        <time>2025-09-13T15:03:21Z</time>
      </trkpt>
      <trkpt lat="47.44862" lon="6.65919">
        <ele>300.9</ele>
        <time>2025-09-13T15:03:22Z</time>
      </trkpt>
      <trkpt lat="47.44863" lon="6.65929">
        <ele>300.8</ele>
        <time>2025-09-13T15:03:23Z</time>
      </trkpt>
      <trkpt lat="47.44864" lon="6.65939">
        <ele>300.8</ele>
        <time>2025-09-13T15:03:24Z</time>
      </trkpt>
      <trkpt lat="47.44865" lon="6.6595">
        <ele>300.8</ele>
        <time>2025-09-13T15:03:25Z</time>
      </trkpt>
      <trkpt lat="47.44865" lon="6.6596">
        <ele>300.8</ele>
        <time>2025-09-13T15:03:26Z</time>
      </trkpt>
      <trkpt lat="47.44866" lon="6.65971">
        <ele>300.8</ele>
        <time>2025-09-13T15:03:27Z</time>
      </trkpt>
      <trkpt lat="47.44866" lon="6.65981">
        <ele>300.8</ele>
        <time>2025-09-13T15:03:28Z</time>
      </trkpt>
      <trkpt lat="47.44867" lon="6.65991">
        <ele>300.8</ele>
        <time>2025-09-13T15:03:29Z</time>
      </trkpt>
      <trkpt lat="47.44868" lon="6.66001">
        <ele>300.8</ele>
        <time>2025-09-13T15:03:30Z</time>
      </trkpt>
      <trkpt lat="47.44869" lon="6.66012">
        <ele>300.8</ele>
        <time>2025-09-13T15:03:31Z</time>
      </trkpt>
      <trkpt lat="47.44869" lon="6.66023">
        <ele>300.8</ele>
        <time>2025-09-13T15:03:32Z</time>
      </trkpt>
      <trkpt lat="47.4487" lon="6.66034">
        <ele>300.8</ele>
        <time>2025-09-13T15:03:33Z</time>
      </trkpt>
      <trkpt lat="47.44871" lon="6.66044">
        <ele>300.9</ele>
        <time>2025-09-13T15:03:34Z</time>
      </trkpt>
      <trkpt lat="47.44872" lon="6.66055">
        <ele>300.9</ele>
        <time>2025-09-13T15:03:35Z</time>
      </trkpt>
      <trkpt lat="47.44873" lon="6.66065">
        <ele>300.9</ele>
        <time>2025-09-13T15:03:36Z</time>
      </trkpt>
      <trkpt lat="47.44873" lon="6.66076">
        <ele>300.9</ele>
        <time>2025-09-13T15:03:37Z</time>
      </trkpt>
      <trkpt lat="47.44874" lon="6.66086">
        <ele>300.9</ele>
        <time>2025-09-13T15:03:38Z</time>
      </trkpt>
      <trkpt lat="47.44875" lon="6.66097">
        <ele>300.9</ele>
        <time>2025-09-13T15:03:39Z</time>
      </trkpt>
      <trkpt lat="47.44876" lon="6.66107">
        <ele>300.9</ele>
        <time>2025-09-13T15:03:40Z</time>
      </trkpt>
      <trkpt lat="47.44877" lon="6.66117">
        <ele>300.9</ele>
        <time>2025-09-13T15:03:41Z</time>
      </trkpt>
      <trkpt lat="47.44879" lon="6.66128">
        <ele>300.9</ele>
        <time>2025-09-13T15:03:42Z</time>
      </trkpt>
      <trkpt lat="47.44879" lon="6.66139">
        <ele>300.9</ele>
        <time>2025-09-13T15:03:43Z</time>
      </trkpt>
      <trkpt lat="47.4488" lon="6.66149">
        <ele>300.9</ele>
        <time>2025-09-13T15:03:44Z</time>
      </trkpt>
      <trkpt lat="47.44881" lon="6.6616">
        <ele>300.9</ele>
        <time>2025-09-13T15:03:45Z</time>
      </trkpt>
      <trkpt lat="47.44882" lon="6.66171">
        <ele>301</ele>
        <time>2025-09-13T15:03:46Z</time>
      </trkpt>
      <trkpt lat="47.44883" lon="6.66182">
        <ele>301</ele>
        <time>2025-09-13T15:03:47Z</time>
      </trkpt>
      <trkpt lat="47.44883" lon="6.66193">
        <ele>301</ele>
        <time>2025-09-13T15:03:48Z</time>
      </trkpt>
      <trkpt lat="47.44884" lon="6.66203">
        <ele>301</ele>
        <time>2025-09-13T15:03:49Z</time>
      </trkpt>
      <trkpt lat="47.44885" lon="6.66214">
        <ele>301</ele>
        <time>2025-09-13T15:03:50Z</time>
      </trkpt>
      <trkpt lat="47.44886" lon="6.66224">
        <ele>301</ele>
        <time>2025-09-13T15:03:51Z</time>
      </trkpt>
      <trkpt lat="47.44886" lon="6.66235">
        <ele>301</ele>
        <time>2025-09-13T15:03:52Z</time>
      </trkpt>
      <trkpt lat="47.44887" lon="6.66245">
        <ele>301</ele>
        <time>2025-09-13T15:03:53Z</time>
      </trkpt>
      <trkpt lat="47.44888" lon="6.66255">
        <ele>301</ele>
        <time>2025-09-13T15:03:54Z</time>
      </trkpt>
      <trkpt lat="47.44889" lon="6.66266">
        <ele>301</ele>
        <time>2025-09-13T15:03:55Z</time>
      </trkpt>
      <trkpt lat="47.44889" lon="6.66277">
        <ele>301</ele>
        <time>2025-09-13T15:03:56Z</time>
      </trkpt>
      <trkpt lat="47.4489" lon="6.66288">
        <ele>301</ele>
        <time>2025-09-13T15:03:57Z</time>
      </trkpt>
      <trkpt lat="47.44891" lon="6.66298">
        <ele>301</ele>
        <time>2025-09-13T15:03:58Z</time>
      </trkpt>
      <trkpt lat="47.44892" lon="6.66309">
        <ele>301</ele>
        <time>2025-09-13T15:03:59Z</time>
      </trkpt>
      <trkpt lat="47.44892" lon="6.66319">
        <ele>301</ele>
        <time>2025-09-13T15:04:00Z</time>
      </trkpt>
      <trkpt lat="47.44893" lon="6.66329">
        <ele>301</ele>
        <time>2025-09-13T15:04:01Z</time>
      </trkpt>
      <trkpt lat="47.44894" lon="6.66339">
        <ele>300.9</ele>
        <time>2025-09-13T15:04:02Z</time>
      </trkpt>
      <trkpt lat="47.44895" lon="6.6635">
        <ele>300.9</ele>
        <time>2025-09-13T15:04:03Z</time>
      </trkpt>
      <trkpt lat="47.44896" lon="6.6636">
        <ele>301</ele>
        <time>2025-09-13T15:04:04Z</time>
      </trkpt>
      <trkpt lat="47.44897" lon="6.66371">
        <ele>301</ele>
        <time>2025-09-13T15:04:05Z</time>
      </trkpt>
      <trkpt lat="47.44898" lon="6.6638">
        <ele>301</ele>
        <time>2025-09-13T15:04:06Z</time>
      </trkpt>
      <trkpt lat="47.44899" lon="6.66391">
        <ele>301</ele>
        <time>2025-09-13T15:04:07Z</time>
      </trkpt>
      <trkpt lat="47.449" lon="6.66401">
        <ele>301</ele>
        <time>2025-09-13T15:04:09Z</time>
      </trkpt>
      <trkpt lat="47.449" lon="6.66412">
        <ele>301</ele>
        <time>2025-09-13T15:04:10Z</time>
      </trkpt>
      <trkpt lat="47.44901" lon="6.66422">
        <ele>301</ele>
        <time>2025-09-13T15:04:11Z</time>
      </trkpt>
      <trkpt lat="47.44901" lon="6.66432">
        <ele>301</ele>
        <time>2025-09-13T15:04:12Z</time>
      </trkpt>
      <trkpt lat="47.44902" lon="6.66443">
        <ele>301</ele>
        <time>2025-09-13T15:04:13Z</time>
      </trkpt>
      <trkpt lat="47.44904" lon="6.66453">
        <ele>301</ele>
        <time>2025-09-13T15:04:14Z</time>
      </trkpt>
      <trkpt lat="47.44904" lon="6.66464">
        <ele>301</ele>
        <time>2025-09-13T15:04:15Z</time>
      </trkpt>
      <trkpt lat="47.44904" lon="6.66473">
        <ele>301</ele>
        <time>2025-09-13T15:04:16Z</time>
      </trkpt>
      <trkpt lat="47.44905" lon="6.66484">
        <ele>301</ele>
        <time>2025-09-13T15:04:17Z</time>
      </trkpt>
      <trkpt lat="47.44906" lon="6.66494">
        <ele>301.1</ele>
        <time>2025-09-13T15:04:18Z</time>
      </trkpt>
      <trkpt lat="47.44907" lon="6.66505">
        <ele>301.1</ele>
        <time>2025-09-13T15:04:19Z</time>
      </trkpt>
      <trkpt lat="47.44908" lon="6.66515">
        <ele>301</ele>
        <time>2025-09-13T15:04:20Z</time>
      </trkpt>
      <trkpt lat="47.44909" lon="6.66526">
        <ele>301</ele>
        <time>2025-09-13T15:04:21Z</time>
      </trkpt>
      <trkpt lat="47.4491" lon="6.66536">
        <ele>301</ele>
        <time>2025-09-13T15:04:22Z</time>
      </trkpt>
      <trkpt lat="47.44911" lon="6.66546">
        <ele>301</ele>
        <time>2025-09-13T15:04:23Z</time>
      </trkpt>
      <trkpt lat="47.44912" lon="6.66557">
        <ele>301</ele>
        <time>2025-09-13T15:04:24Z</time>
      </trkpt>
      <trkpt lat="47.44912" lon="6.66568">
        <ele>301</ele>
        <time>2025-09-13T15:04:25Z</time>
      </trkpt>
      <trkpt lat="47.44913" lon="6.66578">
        <ele>301</ele>
        <time>2025-09-13T15:04:26Z</time>
      </trkpt>
      <trkpt lat="47.44914" lon="6.66588">
        <ele>300.9</ele>
        <time>2025-09-13T15:04:27Z</time>
      </trkpt>
      <trkpt lat="47.44915" lon="6.66599">
        <ele>300.9</ele>
        <time>2025-09-13T15:04:28Z</time>
      </trkpt>
      <trkpt lat="47.44915" lon="6.66611">
        <ele>300.9</ele>
        <time>2025-09-13T15:04:29Z</time>
      </trkpt>
      <trkpt lat="47.44916" lon="6.66622">
        <ele>300.9</ele>
        <time>2025-09-13T15:04:30Z</time>
      </trkpt>
      <trkpt lat="47.44917" lon="6.66643">
        <ele>300.9</ele>
        <time>2025-09-13T15:04:31Z</time>
      </trkpt>
      <trkpt lat="47.44918" lon="6.66653">
        <ele>300.9</ele>
        <time>2025-09-13T15:04:32Z</time>
      </trkpt>
      <trkpt lat="47.44919" lon="6.66665">
        <ele>300.9</ele>
        <time>2025-09-13T15:04:33Z</time>
      </trkpt>
      <trkpt lat="47.4492" lon="6.66676">
        <ele>300.9</ele>
        <time>2025-09-13T15:04:34Z</time>
      </trkpt>
      <trkpt lat="47.44921" lon="6.66686">
        <ele>300.9</ele>
        <time>2025-09-13T15:04:35Z</time>
      </trkpt>
      <trkpt lat="47.44922" lon="6.66697">
        <ele>300.8</ele>
        <time>2025-09-13T15:04:36Z</time>
      </trkpt>
      <trkpt lat="47.44923" lon="6.66707">
        <ele>300.8</ele>
        <time>2025-09-13T15:04:37Z</time>
      </trkpt>
      <trkpt lat="47.44923" lon="6.66718">
        <ele>300.8</ele>
        <time>2025-09-13T15:04:38Z</time>
      </trkpt>
      <trkpt lat="47.44924" lon="6.66728">
        <ele>300.8</ele>
        <time>2025-09-13T15:04:39Z</time>
      </trkpt>
      <trkpt lat="47.44925" lon="6.66738">
        <ele>300.9</ele>
        <time>2025-09-13T15:04:40Z</time>
      </trkpt>
      <trkpt lat="47.44926" lon="6.66749">
        <ele>300.9</ele>
        <time>2025-09-13T15:04:41Z</time>
      </trkpt>
      <trkpt lat="47.44927" lon="6.66761">
        <ele>300.9</ele>
        <time>2025-09-13T15:04:42Z</time>
      </trkpt>
      <trkpt lat="47.44928" lon="6.66771">
        <ele>300.9</ele>
        <time>2025-09-13T15:04:43Z</time>
      </trkpt>
      <trkpt lat="47.44928" lon="6.66782">
        <ele>300.9</ele>
        <time>2025-09-13T15:04:44Z</time>
      </trkpt>
      <trkpt lat="47.44929" lon="6.66793">
        <ele>300.9</ele>
        <time>2025-09-13T15:04:45Z</time>
      </trkpt>
      <trkpt lat="47.4493" lon="6.66804">
        <ele>300.9</ele>
        <time>2025-09-13T15:04:46Z</time>
      </trkpt>
      <trkpt lat="47.44931" lon="6.66815">
        <ele>300.9</ele>
        <time>2025-09-13T15:04:47Z</time>
      </trkpt>
      <trkpt lat="47.44931" lon="6.66825">
        <ele>300.9</ele>
        <time>2025-09-13T15:04:48Z</time>
      </trkpt>
      <trkpt lat="47.44932" lon="6.66835">
        <ele>300.9</ele>
        <time>2025-09-13T15:04:49Z</time>
      </trkpt>
      <trkpt lat="47.44933" lon="6.66846">
        <ele>300.9</ele>
        <time>2025-09-13T15:04:50Z</time>
      </trkpt>
      <trkpt lat="47.44934" lon="6.66857">
        <ele>300.9</ele>
        <time>2025-09-13T15:04:51Z</time>
      </trkpt>
      <trkpt lat="47.44935" lon="6.66867">
        <ele>300.9</ele>
        <time>2025-09-13T15:04:52Z</time>
      </trkpt>
      <trkpt lat="47.44936" lon="6.66878">
        <ele>300.9</ele>
        <time>2025-09-13T15:04:53Z</time>
      </trkpt>
      <trkpt lat="47.44937" lon="6.66888">
        <ele>300.9</ele>
        <time>2025-09-13T15:04:54Z</time>
      </trkpt>
      <trkpt lat="47.44937" lon="6.66898">
        <ele>300.9</ele>
        <time>2025-09-13T15:04:55Z</time>
      </trkpt>
      <trkpt lat="47.44938" lon="6.6691">
        <ele>300.9</ele>
        <time>2025-09-13T15:04:56Z</time>
      </trkpt>
      <trkpt lat="47.4494" lon="6.66921">
        <ele>300.9</ele>
        <time>2025-09-13T15:04:57Z</time>
      </trkpt>
      <trkpt lat="47.44941" lon="6.66931">
        <ele>300.9</ele>
        <time>2025-09-13T15:04:58Z</time>
      </trkpt>
      <trkpt lat="47.44941" lon="6.66941">
        <ele>300.9</ele>
        <time>2025-09-13T15:04:59Z</time>
      </trkpt>
      <trkpt lat="47.44942" lon="6.66952">
        <ele>300.9</ele>
        <time>2025-09-13T15:05:00Z</time>
      </trkpt>
      <trkpt lat="47.44943" lon="6.66962">
        <ele>300.9</ele>
        <time>2025-09-13T15:05:01Z</time>
      </trkpt>
      <trkpt lat="47.44943" lon="6.66972">
        <ele>300.9</ele>
        <time>2025-09-13T15:05:02Z</time>
      </trkpt>
      <trkpt lat="47.44944" lon="6.66983">
        <ele>300.9</ele>
        <time>2025-09-13T15:05:03Z</time>
      </trkpt>
      <trkpt lat="47.44944" lon="6.66994">
        <ele>300.9</ele>
        <time>2025-09-13T15:05:04Z</time>
      </trkpt>
      <trkpt lat="47.44945" lon="6.67004">
        <ele>301</ele>
        <time>2025-09-13T15:05:05Z</time>
      </trkpt>
      <trkpt lat="47.44947" lon="6.67015">
        <ele>301</ele>
        <time>2025-09-13T15:05:06Z</time>
      </trkpt>
      <trkpt lat="47.44948" lon="6.67026">
        <ele>301</ele>
        <time>2025-09-13T15:05:07Z</time>
      </trkpt>
      <trkpt lat="47.44949" lon="6.67036">
        <ele>300.9</ele>
        <time>2025-09-13T15:05:08Z</time>
      </trkpt>
      <trkpt lat="47.4495" lon="6.67047">
        <ele>300.9</ele>
        <time>2025-09-13T15:05:09Z</time>
      </trkpt>
      <trkpt lat="47.44951" lon="6.67057">
        <ele>300.9</ele>
        <time>2025-09-13T15:05:10Z</time>
      </trkpt>
      <trkpt lat="47.44951" lon="6.67068">
        <ele>300.9</ele>
        <time>2025-09-13T15:05:11Z</time>
      </trkpt>
      <trkpt lat="47.44952" lon="6.67079">
        <ele>300.9</ele>
        <time>2025-09-13T15:05:12Z</time>
      </trkpt>
      <trkpt lat="47.44953" lon="6.67089">
        <ele>300.9</ele>
        <time>2025-09-13T15:05:13Z</time>
      </trkpt>
      <trkpt lat="47.44955" lon="6.671">
        <ele>301</ele>
        <time>2025-09-13T15:05:14Z</time>
      </trkpt>
      <trkpt lat="47.44955" lon="6.6711">
        <ele>301</ele>
        <time>2025-09-13T15:05:15Z</time>
      </trkpt>
      <trkpt lat="47.44956" lon="6.67121">
        <ele>301</ele>
        <time>2025-09-13T15:05:16Z</time>
      </trkpt>
      <trkpt lat="47.44956" lon="6.67132">
        <ele>301</ele>
        <time>2025-09-13T15:05:17Z</time>
      </trkpt>
      <trkpt lat="47.44957" lon="6.67143">
        <ele>301</ele>
        <time>2025-09-13T15:05:18Z</time>
      </trkpt>
      <trkpt lat="47.44958" lon="6.67154">
        <ele>301</ele>
        <time>2025-09-13T15:05:19Z</time>
      </trkpt>
      <trkpt lat="47.44959" lon="6.67165">
        <ele>301</ele>
        <time>2025-09-13T15:05:20Z</time>
      </trkpt>
      <trkpt lat="47.4496" lon="6.67176">
        <ele>300.9</ele>
        <time>2025-09-13T15:05:21Z</time>
      </trkpt>
      <trkpt lat="47.44961" lon="6.67188">
        <ele>300.9</ele>
        <time>2025-09-13T15:05:22Z</time>
      </trkpt>
      <trkpt lat="47.44961" lon="6.67199">
        <ele>300.9</ele>
        <time>2025-09-13T15:05:23Z</time>
      </trkpt>
      <trkpt lat="47.44961" lon="6.67209">
        <ele>300.9</ele>
        <time>2025-09-13T15:05:24Z</time>
      </trkpt>
      <trkpt lat="47.44962" lon="6.67221">
        <ele>300.9</ele>
        <time>2025-09-13T15:05:25Z</time>
      </trkpt>
      <trkpt lat="47.44963" lon="6.6723">
        <ele>300.9</ele>
        <time>2025-09-13T15:05:26Z</time>
      </trkpt>
      <trkpt lat="47.44964" lon="6.67242">
        <ele>300.9</ele>
        <time>2025-09-13T15:05:27Z</time>
      </trkpt>
      <trkpt lat="47.44965" lon="6.67253">
        <ele>300.9</ele>
        <time>2025-09-13T15:05:28Z</time>
      </trkpt>
      <trkpt lat="47.44966" lon="6.67264">
        <ele>300.9</ele>
        <time>2025-09-13T15:05:29Z</time>
      </trkpt>
      <trkpt lat="47.44967" lon="6.67274">
        <ele>300.9</ele>
        <time>2025-09-13T15:05:30Z</time>
      </trkpt>
      <trkpt lat="47.44968" lon="6.67284">
        <ele>300.9</ele>
        <time>2025-09-13T15:05:31Z</time>
      </trkpt>
      <trkpt lat="47.44968" lon="6.67295">
        <ele>300.9</ele>
        <time>2025-09-13T15:05:32Z</time>
      </trkpt>
      <trkpt lat="47.44969" lon="6.67306">
        <ele>300.9</ele>
        <time>2025-09-13T15:05:33Z</time>
      </trkpt>
      <trkpt lat="47.4497" lon="6.67317">
        <ele>300.9</ele>
        <time>2025-09-13T15:05:34Z</time>
      </trkpt>
      <trkpt lat="47.44971" lon="6.67327">
        <ele>300.9</ele>
        <time>2025-09-13T15:05:35Z</time>
      </trkpt>
      <trkpt lat="47.44971" lon="6.67337">
        <ele>300.9</ele>
        <time>2025-09-13T15:05:36Z</time>
      </trkpt>
      <trkpt lat="47.44972" lon="6.67348">
        <ele>300.9</ele>
        <time>2025-09-13T15:05:37Z</time>
      </trkpt>
      <trkpt lat="47.44973" lon="6.67358">
        <ele>300.9</ele>
        <time>2025-09-13T15:05:38Z</time>
      </trkpt>
      <trkpt lat="47.44974" lon="6.67368">
        <ele>300.9</ele>
        <time>2025-09-13T15:05:39Z</time>
      </trkpt>
      <trkpt lat="47.44975" lon="6.67379">
        <ele>300.9</ele>
        <time>2025-09-13T15:05:40Z</time>
      </trkpt>
      <trkpt lat="47.44975" lon="6.67389">
        <ele>300.9</ele>
        <time>2025-09-13T15:05:41Z</time>
      </trkpt>
      <trkpt lat="47.44976" lon="6.67398">
        <ele>300.9</ele>
        <time>2025-09-13T15:05:42Z</time>
      </trkpt>
      <trkpt lat="47.44977" lon="6.67407">
        <ele>300.9</ele>
        <time>2025-09-13T15:05:43Z</time>
      </trkpt>
      <trkpt lat="47.44978" lon="6.67418">
        <ele>301</ele>
        <time>2025-09-13T15:05:44Z</time>
      </trkpt>
      <trkpt lat="47.44979" lon="6.67428">
        <ele>301</ele>
        <time>2025-09-13T15:05:45Z</time>
      </trkpt>
      <trkpt lat="47.44979" lon="6.67437">
        <ele>301.1</ele>
        <time>2025-09-13T15:05:46Z</time>
      </trkpt>
      <trkpt lat="47.4498" lon="6.67446">
        <ele>301.1</ele>
        <time>2025-09-13T15:05:47Z</time>
      </trkpt>
      <trkpt lat="47.44981" lon="6.67456">
        <ele>301.2</ele>
        <time>2025-09-13T15:05:48Z</time>
      </trkpt>
      <trkpt lat="47.44982" lon="6.67465">
        <ele>301.3</ele>
        <time>2025-09-13T15:05:49Z</time>
      </trkpt>
      <trkpt lat="47.44983" lon="6.67473">
        <ele>301.4</ele>
        <time>2025-09-13T15:05:50Z</time>
      </trkpt>
      <trkpt lat="47.44984" lon="6.67483">
        <ele>301.6</ele>
        <time>2025-09-13T15:05:51Z</time>
      </trkpt>
      <trkpt lat="47.44985" lon="6.67492">
        <ele>301.9</ele>
        <time>2025-09-13T15:05:52Z</time>
      </trkpt>
      <trkpt lat="47.44985" lon="6.67501">
        <ele>302.1</ele>
        <time>2025-09-13T15:05:53Z</time>
      </trkpt>
      <trkpt lat="47.44986" lon="6.67509">
        <ele>302.3</ele>
        <time>2025-09-13T15:05:54Z</time>
      </trkpt>
      <trkpt lat="47.44986" lon="6.67517">
        <ele>302.5</ele>
        <time>2025-09-13T15:05:55Z</time>
      </trkpt>
      <trkpt lat="47.44987" lon="6.67524">
        <ele>302.7</ele>
        <time>2025-09-13T15:05:56Z</time>
      </trkpt>
      <trkpt lat="47.44988" lon="6.67531">
        <ele>302.8</ele>
        <time>2025-09-13T15:05:57Z</time>
      </trkpt>
      <trkpt lat="47.4499" lon="6.67538">
        <ele>302.9</ele>
        <time>2025-09-13T15:05:58Z</time>
      </trkpt>
      <trkpt lat="47.44991" lon="6.67546">
        <ele>303</ele>
        <time>2025-09-13T15:05:59Z</time>
      </trkpt>
      <trkpt lat="47.44992" lon="6.67554">
        <ele>303.1</ele>
        <time>2025-09-13T15:06:00Z</time>
      </trkpt>
      <trkpt lat="47.44993" lon="6.67561">
        <ele>303.2</ele>
        <time>2025-09-13T15:06:01Z</time>
      </trkpt>
      <trkpt lat="47.44993" lon="6.67568">
        <ele>303.2</ele>
        <time>2025-09-13T15:06:02Z</time>
      </trkpt>
      <trkpt lat="47.44993" lon="6.67576">
        <ele>303.3</ele>
        <time>2025-09-13T15:06:03Z</time>
      </trkpt>
      <trkpt lat="47.44993" lon="6.67584">
        <ele>303.3</ele>
        <time>2025-09-13T15:06:04Z</time>
      </trkpt>
      <trkpt lat="47.44992" lon="6.67593">
        <ele>303.3</ele>
        <time>2025-09-13T15:06:05Z</time>
      </trkpt>
      <trkpt lat="47.44993" lon="6.67601">
        <ele>303.3</ele>
        <time>2025-09-13T15:06:06Z</time>
      </trkpt>
      <trkpt lat="47.44993" lon="6.67609">
        <ele>303.3</ele>
        <time>2025-09-13T15:06:07Z</time>
      </trkpt>
      <trkpt lat="47.44994" lon="6.67616">
        <ele>303.3</ele>
        <time>2025-09-13T15:06:08Z</time>
      </trkpt>
      <trkpt lat="47.44994" lon="6.67624">
        <ele>303.3</ele>
        <time>2025-09-13T15:06:09Z</time>
      </trkpt>
      <trkpt lat="47.44995" lon="6.67633">
        <ele>303.3</ele>
        <time>2025-09-13T15:06:10Z</time>
      </trkpt>
      <trkpt lat="47.44996" lon="6.67641">
        <ele>303.3</ele>
        <time>2025-09-13T15:06:11Z</time>
      </trkpt>
      <trkpt lat="47.44997" lon="6.6765">
        <ele>303.3</ele>
        <time>2025-09-13T15:06:12Z</time>
      </trkpt>
      <trkpt lat="47.44998" lon="6.6766">
        <ele>303.3</ele>
        <time>2025-09-13T15:06:13Z</time>
      </trkpt>
      <trkpt lat="47.44998" lon="6.67669">
        <ele>303.3</ele>
        <time>2025-09-13T15:06:15Z</time>
      </trkpt>
      <trkpt lat="47.44998" lon="6.67678">
        <ele>303.3</ele>
        <time>2025-09-13T15:06:16Z</time>
      </trkpt>
      <trkpt lat="47.44999" lon="6.67686">
        <ele>303.3</ele>
        <time>2025-09-13T15:06:17Z</time>
      </trkpt>
      <trkpt lat="47.44999" lon="6.67695">
        <ele>303.3</ele>
        <time>2025-09-13T15:06:18Z</time>
      </trkpt>
      <trkpt lat="47.45" lon="6.67704">
        <ele>303.2</ele>
        <time>2025-09-13T15:06:19Z</time>
      </trkpt>
      <trkpt lat="47.45001" lon="6.67713">
        <ele>303.2</ele>
        <time>2025-09-13T15:06:20Z</time>
      </trkpt>
      <trkpt lat="47.45002" lon="6.67722">
        <ele>303.2</ele>
        <time>2025-09-13T15:06:21Z</time>
      </trkpt>
      <trkpt lat="47.45003" lon="6.67731">
        <ele>303.2</ele>
        <time>2025-09-13T15:06:22Z</time>
      </trkpt>
      <trkpt lat="47.45003" lon="6.67739">
        <ele>303.2</ele>
        <time>2025-09-13T15:06:23Z</time>
      </trkpt>
      <trkpt lat="47.45004" lon="6.67749">
        <ele>303.1</ele>
        <time>2025-09-13T15:06:24Z</time>
      </trkpt>
      <trkpt lat="47.45004" lon="6.67757">
        <ele>303.1</ele>
        <time>2025-09-13T15:06:25Z</time>
      </trkpt>
      <trkpt lat="47.45005" lon="6.67766">
        <ele>303.1</ele>
        <time>2025-09-13T15:06:26Z</time>
      </trkpt>
      <trkpt lat="47.45006" lon="6.67775">
        <ele>303.1</ele>
        <time>2025-09-13T15:06:27Z</time>
      </trkpt>
      <trkpt lat="47.45007" lon="6.67784">
        <ele>303.1</ele>
        <time>2025-09-13T15:06:28Z</time>
      </trkpt>
      <trkpt lat="47.45008" lon="6.67794">
        <ele>303.1</ele>
        <time>2025-09-13T15:06:29Z</time>
      </trkpt>
      <trkpt lat="47.45009" lon="6.67802">
        <ele>303.1</ele>
        <time>2025-09-13T15:06:30Z</time>
      </trkpt>
      <trkpt lat="47.45009" lon="6.67812">
        <ele>303.1</ele>
        <time>2025-09-13T15:06:31Z</time>
      </trkpt>
      <trkpt lat="47.4501" lon="6.6782">
        <ele>303.1</ele>
        <time>2025-09-13T15:06:32Z</time>
      </trkpt>
      <trkpt lat="47.45011" lon="6.67837">
        <ele>303.1</ele>
        <time>2025-09-13T15:06:33Z</time>
      </trkpt>
      <trkpt lat="47.45013" lon="6.67846">
        <ele>303.1</ele>
        <time>2025-09-13T15:06:34Z</time>
      </trkpt>
      <trkpt lat="47.45014" lon="6.67856">
        <ele>303.1</ele>
        <time>2025-09-13T15:06:35Z</time>
      </trkpt>
      <trkpt lat="47.45015" lon="6.67865">
        <ele>303.1</ele>
        <time>2025-09-13T15:06:36Z</time>
      </trkpt>
      <trkpt lat="47.45016" lon="6.67874">
        <ele>303.1</ele>
        <time>2025-09-13T15:06:37Z</time>
      </trkpt>
      <trkpt lat="47.45017" lon="6.67883">
        <ele>303.1</ele>
        <time>2025-09-13T15:06:38Z</time>
      </trkpt>
      <trkpt lat="47.45018" lon="6.67892">
        <ele>303.1</ele>
        <time>2025-09-13T15:06:39Z</time>
      </trkpt>
      <trkpt lat="47.45019" lon="6.67901">
        <ele>303.1</ele>
        <time>2025-09-13T15:06:40Z</time>
      </trkpt>
      <trkpt lat="47.4502" lon="6.6791">
        <ele>303.1</ele>
        <time>2025-09-13T15:06:41Z</time>
      </trkpt>
      <trkpt lat="47.45021" lon="6.67918">
        <ele>303.1</ele>
        <time>2025-09-13T15:06:42Z</time>
      </trkpt>
      <trkpt lat="47.45023" lon="6.67927">
        <ele>303.1</ele>
        <time>2025-09-13T15:06:43Z</time>
      </trkpt>
      <trkpt lat="47.45024" lon="6.67937">
        <ele>303.1</ele>
        <time>2025-09-13T15:06:44Z</time>
      </trkpt>
      <trkpt lat="47.45025" lon="6.67946">
        <ele>303.1</ele>
        <time>2025-09-13T15:06:45Z</time>
      </trkpt>
      <trkpt lat="47.45026" lon="6.67955">
        <ele>303.1</ele>
        <time>2025-09-13T15:06:46Z</time>
      </trkpt>
      <trkpt lat="47.45028" lon="6.67964">
        <ele>303.1</ele>
        <time>2025-09-13T15:06:47Z</time>
      </trkpt>
      <trkpt lat="47.4503" lon="6.67972">
        <ele>303.1</ele>
        <time>2025-09-13T15:06:48Z</time>
      </trkpt>
      <trkpt lat="47.45031" lon="6.67983">
        <ele>303.1</ele>
        <time>2025-09-13T15:06:49Z</time>
      </trkpt>
      <trkpt lat="47.45033" lon="6.67992">
        <ele>303</ele>
        <time>2025-09-13T15:06:50Z</time>
      </trkpt>
      <trkpt lat="47.45035" lon="6.68001">
        <ele>303</ele>
        <time>2025-09-13T15:06:51Z</time>
      </trkpt>
      <trkpt lat="47.45036" lon="6.6801">
        <ele>303</ele>
        <time>2025-09-13T15:06:52Z</time>
      </trkpt>
      <trkpt lat="47.45038" lon="6.68019">
        <ele>303</ele>
        <time>2025-09-13T15:06:53Z</time>
      </trkpt>
      <trkpt lat="47.4504" lon="6.68027">
        <ele>303</ele>
        <time>2025-09-13T15:06:54Z</time>
      </trkpt>
      <trkpt lat="47.45041" lon="6.68036">
        <ele>303</ele>
        <time>2025-09-13T15:06:55Z</time>
      </trkpt>
      <trkpt lat="47.45043" lon="6.68044">
        <ele>303</ele>
        <time>2025-09-13T15:06:56Z</time>
      </trkpt>
      <trkpt lat="47.45046" lon="6.68051">
        <ele>303.1</ele>
        <time>2025-09-13T15:06:57Z</time>
      </trkpt>
      <trkpt lat="47.45047" lon="6.68059">
        <ele>303.1</ele>
        <time>2025-09-13T15:06:58Z</time>
      </trkpt>
      <trkpt lat="47.45049" lon="6.68067">
        <ele>303.1</ele>
        <time>2025-09-13T15:06:59Z</time>
      </trkpt>
      <trkpt lat="47.45051" lon="6.68076">
        <ele>303.1</ele>
        <time>2025-09-13T15:07:00Z</time>
      </trkpt>
      <trkpt lat="47.45052" lon="6.68084">
        <ele>303.1</ele>
        <time>2025-09-13T15:07:01Z</time>
      </trkpt>
      <trkpt lat="47.45055" lon="6.68092">
        <ele>303.1</ele>
        <time>2025-09-13T15:07:02Z</time>
      </trkpt>
      <trkpt lat="47.45057" lon="6.68101">
        <ele>303.1</ele>
        <time>2025-09-13T15:07:03Z</time>
      </trkpt>
      <trkpt lat="47.4506" lon="6.6811">
        <ele>303.1</ele>
        <time>2025-09-13T15:07:04Z</time>
      </trkpt>
      <trkpt lat="47.45062" lon="6.68118">
        <ele>303.1</ele>
        <time>2025-09-13T15:07:05Z</time>
      </trkpt>
      <trkpt lat="47.45064" lon="6.68126">
        <ele>303.1</ele>
        <time>2025-09-13T15:07:06Z</time>
      </trkpt>
      <trkpt lat="47.45066" lon="6.68135">
        <ele>303.1</ele>
        <time>2025-09-13T15:07:07Z</time>
      </trkpt>
      <trkpt lat="47.45069" lon="6.68144">
        <ele>303.1</ele>
        <time>2025-09-13T15:07:08Z</time>
      </trkpt>
      <trkpt lat="47.45072" lon="6.68152">
        <ele>303.1</ele>
        <time>2025-09-13T15:07:09Z</time>
      </trkpt>
      <trkpt lat="47.45075" lon="6.68161">
        <ele>303.1</ele>
        <time>2025-09-13T15:07:10Z</time>
      </trkpt>
      <trkpt lat="47.45077" lon="6.68169">
        <ele>303.1</ele>
        <time>2025-09-13T15:07:11Z</time>
      </trkpt>
      <trkpt lat="47.4508" lon="6.68178">
        <ele>303.2</ele>
        <time>2025-09-13T15:07:12Z</time>
      </trkpt>
      <trkpt lat="47.45082" lon="6.68187">
        <ele>303.2</ele>
        <time>2025-09-13T15:07:13Z</time>
      </trkpt>
      <trkpt lat="47.45086" lon="6.68196">
        <ele>303.2</ele>
        <time>2025-09-13T15:07:14Z</time>
      </trkpt>
      <trkpt lat="47.45089" lon="6.68205">
        <ele>303.2</ele>
        <time>2025-09-13T15:07:15Z</time>
      </trkpt>
      <trkpt lat="47.45092" lon="6.68214">
        <ele>303.2</ele>
        <time>2025-09-13T15:07:16Z</time>
      </trkpt>
      <trkpt lat="47.45095" lon="6.68223">
        <ele>303.2</ele>
        <time>2025-09-13T15:07:17Z</time>
      </trkpt>
      <trkpt lat="47.45098" lon="6.68232">
        <ele>303.2</ele>
        <time>2025-09-13T15:07:18Z</time>
      </trkpt>
      <trkpt lat="47.45101" lon="6.6824">
        <ele>303.2</ele>
        <time>2025-09-13T15:07:19Z</time>
      </trkpt>
      <trkpt lat="47.45104" lon="6.6825">
        <ele>303.1</ele>
        <time>2025-09-13T15:07:20Z</time>
      </trkpt>
      <trkpt lat="47.45107" lon="6.68259">
        <ele>303.1</ele>
        <time>2025-09-13T15:07:21Z</time>
      </trkpt>
      <trkpt lat="47.4511" lon="6.68268">
        <ele>303.1</ele>
        <time>2025-09-13T15:07:22Z</time>
      </trkpt>
      <trkpt lat="47.45114" lon="6.68277">
        <ele>303.1</ele>
        <time>2025-09-13T15:07:23Z</time>
      </trkpt>
      <trkpt lat="47.45117" lon="6.68285">
        <ele>303.1</ele>
        <time>2025-09-13T15:07:24Z</time>
      </trkpt>
      <trkpt lat="47.45121" lon="6.68294">
        <ele>303.1</ele>
        <time>2025-09-13T15:07:25Z</time>
      </trkpt>
      <trkpt lat="47.45124" lon="6.68302">
        <ele>303.1</ele>
        <time>2025-09-13T15:07:26Z</time>
      </trkpt>
      <trkpt lat="47.45127" lon="6.6831">
        <ele>303.1</ele>
        <time>2025-09-13T15:07:27Z</time>
      </trkpt>
      <trkpt lat="47.4513" lon="6.68316">
        <ele>303.1</ele>
        <time>2025-09-13T15:07:28Z</time>
      </trkpt>
      <trkpt lat="47.45132" lon="6.68322">
        <ele>303.1</ele>
        <time>2025-09-13T15:07:29Z</time>
      </trkpt>
      <trkpt lat="47.45135" lon="6.68329">
        <ele>303.2</ele>
        <time>2025-09-13T15:07:30Z</time>
      </trkpt>
      <trkpt lat="47.45138" lon="6.68335">
        <ele>303.2</ele>
        <time>2025-09-13T15:07:31Z</time>
      </trkpt>
      <trkpt lat="47.45142" lon="6.68342">
        <ele>303.2</ele>
        <time>2025-09-13T15:07:32Z</time>
      </trkpt>
      <trkpt lat="47.45145" lon="6.68349">
        <ele>303.2</ele>
        <time>2025-09-13T15:07:33Z</time>
      </trkpt>
      <trkpt lat="47.45148" lon="6.68357">
        <ele>303.2</ele>
        <time>2025-09-13T15:07:34Z</time>
      </trkpt>
      <trkpt lat="47.45152" lon="6.68364">
        <ele>303.2</ele>
        <time>2025-09-13T15:07:35Z</time>
      </trkpt>
      <trkpt lat="47.45155" lon="6.68372">
        <ele>303.2</ele>
        <time>2025-09-13T15:07:36Z</time>
      </trkpt>
      <trkpt lat="47.45158" lon="6.6838">
        <ele>303.2</ele>
        <time>2025-09-13T15:07:37Z</time>
      </trkpt>
      <trkpt lat="47.45162" lon="6.68388">
        <ele>303.2</ele>
        <time>2025-09-13T15:07:38Z</time>
      </trkpt>
      <trkpt lat="47.45165" lon="6.68396">
        <ele>303.2</ele>
        <time>2025-09-13T15:07:39Z</time>
      </trkpt>
      <trkpt lat="47.45169" lon="6.68403">
        <ele>303.2</ele>
        <time>2025-09-13T15:07:40Z</time>
      </trkpt>
      <trkpt lat="47.45174" lon="6.68411">
        <ele>303.2</ele>
        <time>2025-09-13T15:07:41Z</time>
      </trkpt>
      <trkpt lat="47.45178" lon="6.68418">
        <ele>303.2</ele>
        <time>2025-09-13T15:07:42Z</time>
      </trkpt>
      <trkpt lat="47.45182" lon="6.68426">
        <ele>303.2</ele>
        <time>2025-09-13T15:07:43Z</time>
      </trkpt>
      <trkpt lat="47.45186" lon="6.68434">
        <ele>303.2</ele>
        <time>2025-09-13T15:07:44Z</time>
      </trkpt>
      <trkpt lat="47.4519" lon="6.68441">
        <ele>303.2</ele>
        <time>2025-09-13T15:07:45Z</time>
      </trkpt>
      <trkpt lat="47.45193" lon="6.68448">
        <ele>303.2</ele>
        <time>2025-09-13T15:07:46Z</time>
      </trkpt>
      <trkpt lat="47.45197" lon="6.68456">
        <ele>303.2</ele>
        <time>2025-09-13T15:07:47Z</time>
      </trkpt>
      <trkpt lat="47.45201" lon="6.68464">
        <ele>303.3</ele>
        <time>2025-09-13T15:07:48Z</time>
      </trkpt>
      <trkpt lat="47.45205" lon="6.68469">
        <ele>303.3</ele>
        <time>2025-09-13T15:07:49Z</time>
      </trkpt>
      <trkpt lat="47.4521" lon="6.68476">
        <ele>303.3</ele>
        <time>2025-09-13T15:07:50Z</time>
      </trkpt>
      <trkpt lat="47.45214" lon="6.68483">
        <ele>303.3</ele>
        <time>2025-09-13T15:07:51Z</time>
      </trkpt>
      <trkpt lat="47.45218" lon="6.6849">
        <ele>303.3</ele>
        <time>2025-09-13T15:07:52Z</time>
      </trkpt>
      <trkpt lat="47.45222" lon="6.68498">
        <ele>303.3</ele>
        <time>2025-09-13T15:07:53Z</time>
      </trkpt>
      <trkpt lat="47.45227" lon="6.68505">
        <ele>303.3</ele>
        <time>2025-09-13T15:07:54Z</time>
      </trkpt>
      <trkpt lat="47.45231" lon="6.68512">
        <ele>303.3</ele>
        <time>2025-09-13T15:07:55Z</time>
      </trkpt>
      <trkpt lat="47.45236" lon="6.68519">
        <ele>303.3</ele>
        <time>2025-09-13T15:07:56Z</time>
      </trkpt>
      <trkpt lat="47.45241" lon="6.68526">
        <ele>303.3</ele>
        <time>2025-09-13T15:07:57Z</time>
      </trkpt>
      <trkpt lat="47.45246" lon="6.68533">
        <ele>303.3</ele>
        <time>2025-09-13T15:07:58Z</time>
      </trkpt>
      <trkpt lat="47.4525" lon="6.6854">
        <ele>303.3</ele>
        <time>2025-09-13T15:07:59Z</time>
      </trkpt>
      <trkpt lat="47.45254" lon="6.68548">
        <ele>303.3</ele>
        <time>2025-09-13T15:08:00Z</time>
      </trkpt>
      <trkpt lat="47.45259" lon="6.68555">
        <ele>303.3</ele>
        <time>2025-09-13T15:08:01Z</time>
      </trkpt>
      <trkpt lat="47.45264" lon="6.68562">
        <ele>303.3</ele>
        <time>2025-09-13T15:08:02Z</time>
      </trkpt>
      <trkpt lat="47.45269" lon="6.6857">
        <ele>303.3</ele>
        <time>2025-09-13T15:08:03Z</time>
      </trkpt>
      <trkpt lat="47.45275" lon="6.68577">
        <ele>303.3</ele>
        <time>2025-09-13T15:08:04Z</time>
      </trkpt>
      <trkpt lat="47.4528" lon="6.68584">
        <ele>303.3</ele>
        <time>2025-09-13T15:08:05Z</time>
      </trkpt>
      <trkpt lat="47.45284" lon="6.6859">
        <ele>303.3</ele>
        <time>2025-09-13T15:08:06Z</time>
      </trkpt>
      <trkpt lat="47.4529" lon="6.68597">
        <ele>303.3</ele>
        <time>2025-09-13T15:08:07Z</time>
      </trkpt>
      <trkpt lat="47.45294" lon="6.68602">
        <ele>303.3</ele>
        <time>2025-09-13T15:08:08Z</time>
      </trkpt>
      <trkpt lat="47.453" lon="6.68609">
        <ele>303.3</ele>
        <time>2025-09-13T15:08:09Z</time>
      </trkpt>
      <trkpt lat="47.45306" lon="6.68619">
        <ele>303.3</ele>
        <time>2025-09-13T15:08:10Z</time>
      </trkpt>
      <trkpt lat="47.45312" lon="6.68626">
        <ele>303.3</ele>
        <time>2025-09-13T15:08:11Z</time>
      </trkpt>
      <trkpt lat="47.45318" lon="6.68633">
        <ele>303.3</ele>
        <time>2025-09-13T15:08:12Z</time>
      </trkpt>
      <trkpt lat="47.45324" lon="6.68639">
        <ele>303.4</ele>
        <time>2025-09-13T15:08:13Z</time>
      </trkpt>
      <trkpt lat="47.45329" lon="6.68645">
        <ele>303.4</ele>
        <time>2025-09-13T15:08:14Z</time>
      </trkpt>
      <trkpt lat="47.45335" lon="6.68652">
        <ele>303.4</ele>
        <time>2025-09-13T15:08:15Z</time>
      </trkpt>
      <trkpt lat="47.4534" lon="6.68657">
        <ele>303.4</ele>
        <time>2025-09-13T15:08:16Z</time>
      </trkpt>
      <trkpt lat="47.45346" lon="6.68664">
        <ele>303.4</ele>
        <time>2025-09-13T15:08:17Z</time>
      </trkpt>
      <trkpt lat="47.45351" lon="6.68669">
        <ele>303.4</ele>
        <time>2025-09-13T15:08:18Z</time>
      </trkpt>
      <trkpt lat="47.45356" lon="6.68675">
        <ele>303.5</ele>
        <time>2025-09-13T15:08:19Z</time>
      </trkpt>
      <trkpt lat="47.45361" lon="6.68681">
        <ele>303.5</ele>
        <time>2025-09-13T15:08:20Z</time>
      </trkpt>
      <trkpt lat="47.45366" lon="6.68687">
        <ele>303.5</ele>
        <time>2025-09-13T15:08:21Z</time>
      </trkpt>
      <trkpt lat="47.45372" lon="6.68693">
        <ele>303.5</ele>
        <time>2025-09-13T15:08:22Z</time>
      </trkpt>
      <trkpt lat="47.45378" lon="6.68698">
        <ele>303.5</ele>
        <time>2025-09-13T15:08:23Z</time>
      </trkpt>
      <trkpt lat="47.45383" lon="6.68704">
        <ele>303.5</ele>
        <time>2025-09-13T15:08:24Z</time>
      </trkpt>
      <trkpt lat="47.45389" lon="6.6871">
        <ele>303.5</ele>
        <time>2025-09-13T15:08:25Z</time>
      </trkpt>
      <trkpt lat="47.45394" lon="6.68716">
        <ele>303.5</ele>
        <time>2025-09-13T15:08:26Z</time>
      </trkpt>
      <trkpt lat="47.45399" lon="6.68722">
        <ele>303.4</ele>
        <time>2025-09-13T15:08:27Z</time>
      </trkpt>
      <trkpt lat="47.45404" lon="6.68728">
        <ele>303.4</ele>
        <time>2025-09-13T15:08:28Z</time>
      </trkpt>
      <trkpt lat="47.45415" lon="6.6874">
        <ele>303.3</ele>
        <time>2025-09-13T15:08:30Z</time>
      </trkpt>
      <trkpt lat="47.45421" lon="6.68745">
        <ele>303.3</ele>
        <time>2025-09-13T15:08:31Z</time>
      </trkpt>
      <trkpt lat="47.45427" lon="6.6875">
        <ele>303.2</ele>
        <time>2025-09-13T15:08:32Z</time>
      </trkpt>
      <trkpt lat="47.45432" lon="6.68756">
        <ele>303.2</ele>
        <time>2025-09-13T15:08:33Z</time>
      </trkpt>
      <trkpt lat="47.45437" lon="6.68763">
        <ele>303.2</ele>
        <time>2025-09-13T15:08:34Z</time>
      </trkpt>
      <trkpt lat="47.45443" lon="6.68768">
        <ele>303.2</ele>
        <time>2025-09-13T15:08:35Z</time>
      </trkpt>
      <trkpt lat="47.45448" lon="6.68774">
        <ele>303.2</ele>
        <time>2025-09-13T15:08:36Z</time>
      </trkpt>
      <trkpt lat="47.45458" lon="6.68777">
        <ele>303.2</ele>
        <time>2025-09-13T15:08:37Z</time>
      </trkpt>
      <trkpt lat="47.45462" lon="6.68783">
        <ele>303.2</ele>
        <time>2025-09-13T15:08:38Z</time>
      </trkpt>
      <trkpt lat="47.45466" lon="6.6879">
        <ele>303.2</ele>
        <time>2025-09-13T15:08:39Z</time>
      </trkpt>
      <trkpt lat="47.4547" lon="6.68796">
        <ele>303.3</ele>
        <time>2025-09-13T15:08:40Z</time>
      </trkpt>
      <trkpt lat="47.45475" lon="6.68802">
        <ele>303.3</ele>
        <time>2025-09-13T15:08:41Z</time>
      </trkpt>
      <trkpt lat="47.45479" lon="6.68808">
        <ele>303.3</ele>
        <time>2025-09-13T15:08:42Z</time>
      </trkpt>
      <trkpt lat="47.45484" lon="6.68813">
        <ele>303.3</ele>
        <time>2025-09-13T15:08:43Z</time>
      </trkpt>
      <trkpt lat="47.45489" lon="6.68818">
        <ele>303.3</ele>
        <time>2025-09-13T15:08:44Z</time>
      </trkpt>
      <trkpt lat="47.45493" lon="6.68823">
        <ele>303.4</ele>
        <time>2025-09-13T15:08:45Z</time>
      </trkpt>
      <trkpt lat="47.45498" lon="6.68827">
        <ele>303.4</ele>
        <time>2025-09-13T15:08:46Z</time>
      </trkpt>
      <trkpt lat="47.45503" lon="6.68832">
        <ele>303.5</ele>
        <time>2025-09-13T15:08:47Z</time>
      </trkpt>
      <trkpt lat="47.45504" lon="6.68837">
        <ele>303.6</ele>
        <time>2025-09-13T15:08:48Z</time>
      </trkpt>
      <trkpt lat="47.4551" lon="6.68842">
        <ele>303.7</ele>
        <time>2025-09-13T15:08:49Z</time>
      </trkpt>
      <trkpt lat="47.45514" lon="6.68846">
        <ele>303.8</ele>
        <time>2025-09-13T15:08:50Z</time>
      </trkpt>
      <trkpt lat="47.45519" lon="6.6885">
        <ele>303.9</ele>
        <time>2025-09-13T15:08:51Z</time>
      </trkpt>
      <trkpt lat="47.45523" lon="6.68852">
        <ele>303.9</ele>
        <time>2025-09-13T15:08:52Z</time>
      </trkpt>
      <trkpt lat="47.45527" lon="6.68851">
        <ele>303.9</ele>
        <time>2025-09-13T15:08:53Z</time>
      </trkpt>
      <trkpt lat="47.4553" lon="6.68846">
        <ele>303.8</ele>
        <time>2025-09-13T15:08:54Z</time>
      </trkpt>
      <trkpt lat="47.45533" lon="6.68839">
        <ele>303.8</ele>
        <time>2025-09-13T15:08:55Z</time>
      </trkpt>
      <trkpt lat="47.45535" lon="6.68833">
        <ele>303.6</ele>
        <time>2025-09-13T15:08:56Z</time>
      </trkpt>
      <trkpt lat="47.45538" lon="6.68827">
        <ele>303.5</ele>
        <time>2025-09-13T15:08:57Z</time>
      </trkpt>
      <trkpt lat="47.45541" lon="6.68821">
        <ele>303.4</ele>
        <time>2025-09-13T15:08:58Z</time>
      </trkpt>
      <trkpt lat="47.45545" lon="6.68816">
        <ele>303.3</ele>
        <time>2025-09-13T15:08:59Z</time>
      </trkpt>
      <trkpt lat="47.45549" lon="6.68813">
        <ele>303.2</ele>
        <time>2025-09-13T15:09:00Z</time>
      </trkpt>
      <trkpt lat="47.45555" lon="6.68811">
        <ele>303.1</ele>
        <time>2025-09-13T15:09:01Z</time>
      </trkpt>
      <trkpt lat="47.4556" lon="6.68808">
        <ele>303.1</ele>
        <time>2025-09-13T15:09:02Z</time>
      </trkpt>
      <trkpt lat="47.45565" lon="6.68803">
        <ele>303</ele>
        <time>2025-09-13T15:09:03Z</time>
      </trkpt>
      <trkpt lat="47.45569" lon="6.68798">
        <ele>303</ele>
        <time>2025-09-13T15:09:04Z</time>
      </trkpt>
      <trkpt lat="47.45574" lon="6.68794">
        <ele>303</ele>
        <time>2025-09-13T15:09:05Z</time>
      </trkpt>
      <trkpt lat="47.45577" lon="6.68789">
        <ele>303</ele>
        <time>2025-09-13T15:09:06Z</time>
      </trkpt>
      <trkpt lat="47.45581" lon="6.68785">
        <ele>303</ele>
        <time>2025-09-13T15:09:07Z</time>
      </trkpt>
      <trkpt lat="47.45587" lon="6.68782">
        <ele>303</ele>
        <time>2025-09-13T15:09:08Z</time>
      </trkpt>
      <trkpt lat="47.45591" lon="6.68777">
        <ele>303.1</ele>
        <time>2025-09-13T15:09:09Z</time>
      </trkpt>
      <trkpt lat="47.45595" lon="6.68773">
        <ele>303.1</ele>
        <time>2025-09-13T15:09:10Z</time>
      </trkpt>
      <trkpt lat="47.45599" lon="6.68771">
        <ele>303.2</ele>
        <time>2025-09-13T15:09:11Z</time>
      </trkpt>
      <trkpt lat="47.45604" lon="6.68768">
        <ele>303.2</ele>
        <time>2025-09-13T15:09:12Z</time>
      </trkpt>
      <trkpt lat="47.45607" lon="6.68762">
        <ele>303.3</ele>
        <time>2025-09-13T15:09:13Z</time>
      </trkpt>
      <trkpt lat="47.45608" lon="6.68756">
        <ele>303.4</ele>
        <time>2025-09-13T15:09:14Z</time>
      </trkpt>
      <trkpt lat="47.45608" lon="6.6875">
        <ele>303.4</ele>
        <time>2025-09-13T15:09:15Z</time>
      </trkpt>
      <trkpt lat="47.45608" lon="6.68743">
        <ele>303.4</ele>
        <time>2025-09-13T15:09:16Z</time>
      </trkpt>
      <trkpt lat="47.45607" lon="6.68739">
        <ele>303.4</ele>
        <time>2025-09-13T15:09:17Z</time>
      </trkpt>
      <trkpt lat="47.45607" lon="6.68738">
        <ele>303.4</ele>
        <time>2025-09-13T15:09:18Z</time>
      </trkpt>
      <trkpt lat="47.45607" lon="6.68738">
        <ele>303.5</ele>
        <time>2025-09-13T15:09:19Z</time>
      </trkpt>
      <trkpt lat="47.45607" lon="6.68738">
        <ele>303.5</ele>
        <time>2025-09-13T15:09:20Z</time>
      </trkpt>
      <trkpt lat="47.45607" lon="6.68738">
        <ele>303.5</ele>
        <time>2025-09-13T15:09:21Z</time>
      </trkpt>
      <trkpt lat="47.45607" lon="6.68738">
        <ele>303.5</ele>
        <time>2025-09-13T15:09:22Z</time>
      </trkpt>
      <trkpt lat="47.45607" lon="6.68738">
        <ele>303.5</ele>
        <time>2025-09-13T15:09:23Z</time>
      </trkpt>
      <trkpt lat="47.45607" lon="6.68738">
        <ele>303.5</ele>
        <time>2025-09-13T15:09:24Z</time>
      </trkpt>
      <trkpt lat="47.45607" lon="6.68738">
        <ele>303.5</ele>
        <time>2025-09-13T15:09:25Z</time>
      </trkpt>
      <trkpt lat="47.45606" lon="6.68738">
        <ele>303.5</ele>
        <time>2025-09-13T15:09:26Z</time>
      </trkpt>
      <trkpt lat="47.45606" lon="6.68738">
        <ele>303.5</ele>
        <time>2025-09-13T15:09:27Z</time>
      </trkpt>
      <trkpt lat="47.45606" lon="6.68738">
        <ele>303.5</ele>
        <time>2025-09-13T15:09:28Z</time>
      </trkpt>
      <trkpt lat="47.45606" lon="6.68738">
        <ele>303.5</ele>
        <time>2025-09-13T15:09:29Z</time>
      </trkpt>
      <trkpt lat="47.45606" lon="6.68738">
        <ele>303.5</ele>
        <time>2025-09-13T15:09:30Z</time>
      </trkpt>
      <trkpt lat="47.45606" lon="6.68738">
        <ele>303.5</ele>
        <time>2025-09-13T15:09:31Z</time>
      </trkpt>
      <trkpt lat="47.45606" lon="6.68738">
        <ele>303.5</ele>
        <time>2025-09-13T15:09:32Z</time>
      </trkpt>
      <trkpt lat="47.45607" lon="6.6874">
        <ele>303.5</ele>
        <time>2025-09-13T15:09:33Z</time>
      </trkpt>
      <trkpt lat="47.45607" lon="6.68739">
        <ele>303.5</ele>
        <time>2025-09-13T15:09:34Z</time>
      </trkpt>
      <trkpt lat="47.45607" lon="6.68739">
        <ele>303.5</ele>
        <time>2025-09-13T15:09:35Z</time>
      </trkpt>
      <trkpt lat="47.45607" lon="6.68739">
        <ele>303.5</ele>
        <time>2025-09-13T15:09:36Z</time>
      </trkpt>
      <trkpt lat="47.45607" lon="6.68739">
        <ele>303.5</ele>
        <time>2025-09-13T15:09:37Z</time>
      </trkpt>
      <trkpt lat="47.45607" lon="6.68739">
        <ele>303.5</ele>
        <time>2025-09-13T15:09:38Z</time>
      </trkpt>
      <trkpt lat="47.45607" lon="6.68739">
        <ele>303.5</ele>
        <time>2025-09-13T15:09:39Z</time>
      </trkpt>
      <trkpt lat="47.45607" lon="6.6874">
        <ele>303.5</ele>
        <time>2025-09-13T15:09:40Z</time>
      </trkpt>
      <trkpt lat="47.45607" lon="6.6874">
        <ele>303.5</ele>
        <time>2025-09-13T15:09:41Z</time>
      </trkpt>
      <trkpt lat="47.45607" lon="6.6874">
        <ele>303.5</ele>
        <time>2025-09-13T15:09:42Z</time>
      </trkpt>
      <trkpt lat="47.45608" lon="6.68741">
        <ele>303.5</ele>
        <time>2025-09-13T15:09:43Z</time>
      </trkpt>
      <trkpt lat="47.45607" lon="6.6874">
        <ele>303.5</ele>
        <time>2025-09-13T15:09:44Z</time>
      </trkpt>
      <trkpt lat="47.45607" lon="6.6874">
        <ele>303.5</ele>
        <time>2025-09-13T15:09:45Z</time>
      </trkpt>
      <trkpt lat="47.45607" lon="6.6874">
        <ele>303.5</ele>
        <time>2025-09-13T15:09:46Z</time>
      </trkpt>
      <trkpt lat="47.45607" lon="6.6874">
        <ele>303.5</ele>
        <time>2025-09-13T15:09:47Z</time>
      </trkpt>
      <trkpt lat="47.45607" lon="6.6874">
        <ele>303.5</ele>
        <time>2025-09-13T15:09:48Z</time>
      </trkpt>
      <trkpt lat="47.45607" lon="6.6874">
        <ele>303.5</ele>
        <time>2025-09-13T15:09:49Z</time>
      </trkpt>
      <trkpt lat="47.45606" lon="6.68739">
        <ele>303.5</ele>
        <time>2025-09-13T15:09:50Z</time>
      </trkpt>
      <trkpt lat="47.45606" lon="6.68739">
        <ele>303.5</ele>
        <time>2025-09-13T15:09:51Z</time>
      </trkpt>
      <trkpt lat="47.45606" lon="6.68739">
        <ele>303.5</ele>
        <time>2025-09-13T15:09:52Z</time>
      </trkpt>
      <trkpt lat="47.45606" lon="6.68739">
        <ele>303.5</ele>
        <time>2025-09-13T15:09:53Z</time>
      </trkpt>
      <trkpt lat="47.45606" lon="6.68739">
        <ele>303.5</ele>
        <time>2025-09-13T15:09:54Z</time>
      </trkpt>
      <trkpt lat="47.45606" lon="6.68739">
        <ele>303.5</ele>
        <time>2025-09-13T15:09:55Z</time>
      </trkpt>
      <trkpt lat="47.45606" lon="6.68739">
        <ele>303.5</ele>
        <time>2025-09-13T15:09:56Z</time>
      </trkpt>
      <trkpt lat="47.45607" lon="6.68741">
        <ele>303.5</ele>
        <time>2025-09-13T15:09:57Z</time>
      </trkpt>
      <trkpt lat="47.45606" lon="6.6874">
        <ele>303.5</ele>
        <time>2025-09-13T15:09:58Z</time>
      </trkpt>
      <trkpt lat="47.45606" lon="6.6874">
        <ele>303.5</ele>
        <time>2025-09-13T15:09:59Z</time>
      </trkpt>
      <trkpt lat="47.45606" lon="6.6874">
        <ele>303.5</ele>
        <time>2025-09-13T15:10:00Z</time>
      </trkpt>
      <trkpt lat="47.45606" lon="6.6874">
        <ele>303.5</ele>
        <time>2025-09-13T15:10:01Z</time>
      </trkpt>
      <trkpt lat="47.45606" lon="6.6874">
        <ele>303.5</ele>
        <time>2025-09-13T15:10:02Z</time>
      </trkpt>
      <trkpt lat="47.45606" lon="6.6874">
        <ele>303.5</ele>
        <time>2025-09-13T15:10:03Z</time>
      </trkpt>
      <trkpt lat="47.45607" lon="6.68739">
        <ele>303.6</ele>
        <time>2025-09-13T15:10:04Z</time>
      </trkpt>
      <trkpt lat="47.45607" lon="6.68736">
        <ele>303.6</ele>
        <time>2025-09-13T15:10:05Z</time>
      </trkpt>
      <trkpt lat="47.45608" lon="6.68734">
        <ele>303.6</ele>
        <time>2025-09-13T15:10:06Z</time>
      </trkpt>
      <trkpt lat="47.4561" lon="6.68731">
        <ele>303.6</ele>
        <time>2025-09-13T15:10:07Z</time>
      </trkpt>
      <trkpt lat="47.45611" lon="6.68729">
        <ele>303.6</ele>
        <time>2025-09-13T15:10:08Z</time>
      </trkpt>
      <trkpt lat="47.45613" lon="6.68729">
        <ele>303.6</ele>
        <time>2025-09-13T15:10:09Z</time>
      </trkpt>
      <trkpt lat="47.45616" lon="6.6873">
        <ele>303.6</ele>
        <time>2025-09-13T15:10:10Z</time>
      </trkpt>
      <trkpt lat="47.45619" lon="6.68734">
        <ele>303.6</ele>
        <time>2025-09-13T15:10:11Z</time>
      </trkpt>
      <trkpt lat="47.45625" lon="6.6874">
        <ele>303.6</ele>
        <time>2025-09-13T15:10:12Z</time>
      </trkpt>
      <trkpt lat="47.45628" lon="6.68744">
        <ele>303.6</ele>
        <time>2025-09-13T15:10:13Z</time>
      </trkpt>
      <trkpt lat="47.4563" lon="6.68749">
        <ele>303.6</ele>
        <time>2025-09-13T15:10:14Z</time>
      </trkpt>
      <trkpt lat="47.45634" lon="6.68753">
        <ele>303.6</ele>
        <time>2025-09-13T15:10:15Z</time>
      </trkpt>
      <trkpt lat="47.45635" lon="6.68759">
        <ele>303.6</ele>
        <time>2025-09-13T15:10:16Z</time>
      </trkpt>
      <trkpt lat="47.45638" lon="6.68763">
        <ele>303.6</ele>
        <time>2025-09-13T15:10:17Z</time>
      </trkpt>
      <trkpt lat="47.4564" lon="6.68768">
        <ele>303.6</ele>
        <time>2025-09-13T15:10:18Z</time>
      </trkpt>
      <trkpt lat="47.45644" lon="6.68774">
        <ele>303.6</ele>
        <time>2025-09-13T15:10:19Z</time>
      </trkpt>
      <trkpt lat="47.45647" lon="6.68779">
        <ele>303.6</ele>
        <time>2025-09-13T15:10:20Z</time>
      </trkpt>
      <trkpt lat="47.45651" lon="6.68784">
        <ele>303.6</ele>
        <time>2025-09-13T15:10:21Z</time>
      </trkpt>
      <trkpt lat="47.45656" lon="6.6879">
        <ele>303.6</ele>
        <time>2025-09-13T15:10:22Z</time>
      </trkpt>
      <trkpt lat="47.45661" lon="6.68795">
        <ele>303.7</ele>
        <time>2025-09-13T15:10:23Z</time>
      </trkpt>
      <trkpt lat="47.45665" lon="6.68801">
        <ele>303.7</ele>
        <time>2025-09-13T15:10:24Z</time>
      </trkpt>
      <trkpt lat="47.4567" lon="6.68807">
        <ele>303.7</ele>
        <time>2025-09-13T15:10:25Z</time>
      </trkpt>
      <trkpt lat="47.45674" lon="6.68813">
        <ele>303.7</ele>
        <time>2025-09-13T15:10:26Z</time>
      </trkpt>
      <trkpt lat="47.45678" lon="6.68818">
        <ele>303.7</ele>
        <time>2025-09-13T15:10:27Z</time>
      </trkpt>
      <trkpt lat="47.45682" lon="6.68823">
        <ele>303.7</ele>
        <time>2025-09-13T15:10:28Z</time>
      </trkpt>
      <trkpt lat="47.45686" lon="6.68828">
        <ele>303.7</ele>
        <time>2025-09-13T15:10:29Z</time>
      </trkpt>
      <trkpt lat="47.4569" lon="6.68833">
        <ele>303.8</ele>
        <time>2025-09-13T15:10:30Z</time>
      </trkpt>
      <trkpt lat="47.45694" lon="6.68838">
        <ele>303.8</ele>
        <time>2025-09-13T15:10:31Z</time>
      </trkpt>
      <trkpt lat="47.45697" lon="6.68842">
        <ele>303.8</ele>
        <time>2025-09-13T15:10:32Z</time>
      </trkpt>
      <trkpt lat="47.45701" lon="6.68847">
        <ele>303.8</ele>
        <time>2025-09-13T15:10:33Z</time>
      </trkpt>
      <trkpt lat="47.45704" lon="6.68851">
        <ele>303.8</ele>
        <time>2025-09-13T15:10:34Z</time>
      </trkpt>
      <trkpt lat="47.45708" lon="6.68857">
        <ele>303.7</ele>
        <time>2025-09-13T15:10:35Z</time>
      </trkpt>
      <trkpt lat="47.45712" lon="6.68863">
        <ele>303.7</ele>
        <time>2025-09-13T15:10:36Z</time>
      </trkpt>
      <trkpt lat="47.45716" lon="6.6887">
        <ele>303.7</ele>
        <time>2025-09-13T15:10:37Z</time>
      </trkpt>
      <trkpt lat="47.4572" lon="6.68876">
        <ele>303.7</ele>
        <time>2025-09-13T15:10:38Z</time>
      </trkpt>
      <trkpt lat="47.45724" lon="6.68882">
        <ele>303.7</ele>
        <time>2025-09-13T15:10:39Z</time>
      </trkpt>
      <trkpt lat="47.45728" lon="6.68889">
        <ele>303.7</ele>
        <time>2025-09-13T15:10:40Z</time>
      </trkpt>
      <trkpt lat="47.45732" lon="6.68896">
        <ele>303.7</ele>
        <time>2025-09-13T15:10:41Z</time>
      </trkpt>
      <trkpt lat="47.45735" lon="6.68903">
        <ele>303.7</ele>
        <time>2025-09-13T15:10:42Z</time>
      </trkpt>
      <trkpt lat="47.45739" lon="6.6891">
        <ele>303.6</ele>
        <time>2025-09-13T15:10:43Z</time>
      </trkpt>
      <trkpt lat="47.45743" lon="6.68917">
        <ele>303.6</ele>
        <time>2025-09-13T15:10:44Z</time>
      </trkpt>
      <trkpt lat="47.45747" lon="6.68925">
        <ele>303.6</ele>
        <time>2025-09-13T15:10:45Z</time>
      </trkpt>
      <trkpt lat="47.45751" lon="6.68932">
        <ele>303.5</ele>
        <time>2025-09-13T15:10:46Z</time>
      </trkpt>
      <trkpt lat="47.45755" lon="6.6894">
        <ele>303.5</ele>
        <time>2025-09-13T15:10:47Z</time>
      </trkpt>
      <trkpt lat="47.45759" lon="6.68948">
        <ele>303.5</ele>
        <time>2025-09-13T15:10:48Z</time>
      </trkpt>
      <trkpt lat="47.45762" lon="6.68956">
        <ele>303.4</ele>
        <time>2025-09-13T15:10:49Z</time>
      </trkpt>
      <trkpt lat="47.45767" lon="6.68963">
        <ele>303.4</ele>
        <time>2025-09-13T15:10:50Z</time>
      </trkpt>
      <trkpt lat="47.45771" lon="6.68972">
        <ele>303.3</ele>
        <time>2025-09-13T15:10:51Z</time>
      </trkpt>
      <trkpt lat="47.45774" lon="6.6898">
        <ele>303.2</ele>
        <time>2025-09-13T15:10:52Z</time>
      </trkpt>
      <trkpt lat="47.45778" lon="6.68989">
        <ele>303.2</ele>
        <time>2025-09-13T15:10:53Z</time>
      </trkpt>
      <trkpt lat="47.45782" lon="6.68997">
        <ele>303.1</ele>
        <time>2025-09-13T15:10:54Z</time>
      </trkpt>
      <trkpt lat="47.45785" lon="6.69006">
        <ele>303.1</ele>
        <time>2025-09-13T15:10:55Z</time>
      </trkpt>
      <trkpt lat="47.45789" lon="6.69015">
        <ele>303.1</ele>
        <time>2025-09-13T15:10:56Z</time>
      </trkpt>
      <trkpt lat="47.45793" lon="6.69023">
        <ele>303</ele>
        <time>2025-09-13T15:10:57Z</time>
      </trkpt>
      <trkpt lat="47.45797" lon="6.69032">
        <ele>303</ele>
        <time>2025-09-13T15:10:58Z</time>
      </trkpt>
      <trkpt lat="47.45801" lon="6.6904">
        <ele>303</ele>
        <time>2025-09-13T15:10:59Z</time>
      </trkpt>
      <trkpt lat="47.45804" lon="6.69049">
        <ele>303</ele>
        <time>2025-09-13T15:11:00Z</time>
      </trkpt>
      <trkpt lat="47.45808" lon="6.69058">
        <ele>302.9</ele>
        <time>2025-09-13T15:11:01Z</time>
      </trkpt>
      <trkpt lat="47.45811" lon="6.69067">
        <ele>302.9</ele>
        <time>2025-09-13T15:11:02Z</time>
      </trkpt>
      <trkpt lat="47.45816" lon="6.69076">
        <ele>302.9</ele>
        <time>2025-09-13T15:11:03Z</time>
      </trkpt>
      <trkpt lat="47.4582" lon="6.69084">
        <ele>302.8</ele>
        <time>2025-09-13T15:11:04Z</time>
      </trkpt>
      <trkpt lat="47.45824" lon="6.69092">
        <ele>302.8</ele>
        <time>2025-09-13T15:11:05Z</time>
      </trkpt>
      <trkpt lat="47.45828" lon="6.69101">
        <ele>302.7</ele>
        <time>2025-09-13T15:11:06Z</time>
      </trkpt>
      <trkpt lat="47.45833" lon="6.69109">
        <ele>302.7</ele>
        <time>2025-09-13T15:11:07Z</time>
      </trkpt>
      <trkpt lat="47.45837" lon="6.69118">
        <ele>302.7</ele>
        <time>2025-09-13T15:11:08Z</time>
      </trkpt>
      <trkpt lat="47.45841" lon="6.69126">
        <ele>302.7</ele>
        <time>2025-09-13T15:11:09Z</time>
      </trkpt>
      <trkpt lat="47.45846" lon="6.69133">
        <ele>302.7</ele>
        <time>2025-09-13T15:11:10Z</time>
      </trkpt>
      <trkpt lat="47.45851" lon="6.69142">
        <ele>302.7</ele>
        <time>2025-09-13T15:11:11Z</time>
      </trkpt>
      <trkpt lat="47.45856" lon="6.69149">
        <ele>302.7</ele>
        <time>2025-09-13T15:11:12Z</time>
      </trkpt>
      <trkpt lat="47.4586" lon="6.69156">
        <ele>302.7</ele>
        <time>2025-09-13T15:11:13Z</time>
      </trkpt>
      <trkpt lat="47.45866" lon="6.69164">
        <ele>302.8</ele>
        <time>2025-09-13T15:11:14Z</time>
      </trkpt>
      <trkpt lat="47.4587" lon="6.6917">
        <ele>302.8</ele>
        <time>2025-09-13T15:11:15Z</time>
      </trkpt>
      <trkpt lat="47.45875" lon="6.69177">
        <ele>302.8</ele>
        <time>2025-09-13T15:11:16Z</time>
      </trkpt>
      <trkpt lat="47.45881" lon="6.69183">
        <ele>302.8</ele>
        <time>2025-09-13T15:11:17Z</time>
      </trkpt>
      <trkpt lat="47.45887" lon="6.6919">
        <ele>302.8</ele>
        <time>2025-09-13T15:11:18Z</time>
      </trkpt>
      <trkpt lat="47.45891" lon="6.69197">
        <ele>302.7</ele>
        <time>2025-09-13T15:11:19Z</time>
      </trkpt>
      <trkpt lat="47.45896" lon="6.69204">
        <ele>302.7</ele>
        <time>2025-09-13T15:11:20Z</time>
      </trkpt>
      <trkpt lat="47.45902" lon="6.6921">
        <ele>302.7</ele>
        <time>2025-09-13T15:11:21Z</time>
      </trkpt>
      <trkpt lat="47.45907" lon="6.69217">
        <ele>302.8</ele>
        <time>2025-09-13T15:11:22Z</time>
      </trkpt>
      <trkpt lat="47.45913" lon="6.69223">
        <ele>302.8</ele>
        <time>2025-09-13T15:11:23Z</time>
      </trkpt>
      <trkpt lat="47.45919" lon="6.69229">
        <ele>302.8</ele>
        <time>2025-09-13T15:11:24Z</time>
      </trkpt>
      <trkpt lat="47.45925" lon="6.69235">
        <ele>302.9</ele>
        <time>2025-09-13T15:11:25Z</time>
      </trkpt>
      <trkpt lat="47.4593" lon="6.69241">
        <ele>302.9</ele>
        <time>2025-09-13T15:11:26Z</time>
      </trkpt>
      <trkpt lat="47.45936" lon="6.69247">
        <ele>302.9</ele>
        <time>2025-09-13T15:11:27Z</time>
      </trkpt>
      <trkpt lat="47.45941" lon="6.69254">
        <ele>302.9</ele>
        <time>2025-09-13T15:11:28Z</time>
      </trkpt>
      <trkpt lat="47.45946" lon="6.6926">
        <ele>303</ele>
        <time>2025-09-13T15:11:29Z</time>
      </trkpt>
      <trkpt lat="47.45951" lon="6.69266">
        <ele>303</ele>
        <time>2025-09-13T15:11:30Z</time>
      </trkpt>
      <trkpt lat="47.45956" lon="6.69273">
        <ele>303.1</ele>
        <time>2025-09-13T15:11:31Z</time>
      </trkpt>
      <trkpt lat="47.45962" lon="6.69279">
        <ele>303.1</ele>
        <time>2025-09-13T15:11:32Z</time>
      </trkpt>
      <trkpt lat="47.45968" lon="6.69285">
        <ele>303.2</ele>
        <time>2025-09-13T15:11:33Z</time>
      </trkpt>
      <trkpt lat="47.45973" lon="6.69291">
        <ele>303.2</ele>
        <time>2025-09-13T15:11:34Z</time>
      </trkpt>
      <trkpt lat="47.45978" lon="6.69296">
        <ele>303.2</ele>
        <time>2025-09-13T15:11:35Z</time>
      </trkpt>
      <trkpt lat="47.45984" lon="6.69302">
        <ele>303.3</ele>
        <time>2025-09-13T15:11:36Z</time>
      </trkpt>
      <trkpt lat="47.45989" lon="6.69307">
        <ele>303.3</ele>
        <time>2025-09-13T15:11:37Z</time>
      </trkpt>
      <trkpt lat="47.45995" lon="6.69313">
        <ele>303.4</ele>
        <time>2025-09-13T15:11:38Z</time>
      </trkpt>
      <trkpt lat="47.46001" lon="6.69319">
        <ele>303.5</ele>
        <time>2025-09-13T15:11:39Z</time>
      </trkpt>
      <trkpt lat="47.46006" lon="6.69325">
        <ele>303.5</ele>
        <time>2025-09-13T15:11:40Z</time>
      </trkpt>
      <trkpt lat="47.46011" lon="6.6933">
        <ele>303.5</ele>
        <time>2025-09-13T15:11:41Z</time>
      </trkpt>
      <trkpt lat="47.46016" lon="6.69336">
        <ele>303.6</ele>
        <time>2025-09-13T15:11:42Z</time>
      </trkpt>
      <trkpt lat="47.46021" lon="6.69342">
        <ele>303.6</ele>
        <time>2025-09-13T15:11:43Z</time>
      </trkpt>
      <trkpt lat="47.46027" lon="6.69348">
        <ele>303.7</ele>
        <time>2025-09-13T15:11:44Z</time>
      </trkpt>
      <trkpt lat="47.46032" lon="6.69353">
        <ele>303.8</ele>
        <time>2025-09-13T15:11:45Z</time>
      </trkpt>
      <trkpt lat="47.46038" lon="6.69359">
        <ele>303.8</ele>
        <time>2025-09-13T15:11:46Z</time>
      </trkpt>
      <trkpt lat="47.46043" lon="6.69364">
        <ele>303.8</ele>
        <time>2025-09-13T15:11:47Z</time>
      </trkpt>
      <trkpt lat="47.46049" lon="6.69369">
        <ele>303.8</ele>
        <time>2025-09-13T15:11:48Z</time>
      </trkpt>
      <trkpt lat="47.46054" lon="6.69374">
        <ele>303.8</ele>
        <time>2025-09-13T15:11:49Z</time>
      </trkpt>
      <trkpt lat="47.46059" lon="6.6938">
        <ele>303.9</ele>
        <time>2025-09-13T15:11:50Z</time>
      </trkpt>
      <trkpt lat="47.46064" lon="6.69385">
        <ele>303.9</ele>
        <time>2025-09-13T15:11:51Z</time>
      </trkpt>
      <trkpt lat="47.46068" lon="6.69391">
        <ele>303.9</ele>
        <time>2025-09-13T15:11:52Z</time>
      </trkpt>
      <trkpt lat="47.46072" lon="6.69396">
        <ele>303.9</ele>
        <time>2025-09-13T15:11:53Z</time>
      </trkpt>
      <trkpt lat="47.46076" lon="6.69402">
        <ele>303.9</ele>
        <time>2025-09-13T15:11:54Z</time>
      </trkpt>
      <trkpt lat="47.46081" lon="6.69407">
        <ele>303.9</ele>
        <time>2025-09-13T15:11:55Z</time>
      </trkpt>
      <trkpt lat="47.46085" lon="6.69412">
        <ele>303.9</ele>
        <time>2025-09-13T15:11:56Z</time>
      </trkpt>
      <trkpt lat="47.4609" lon="6.69417">
        <ele>303.9</ele>
        <time>2025-09-13T15:11:57Z</time>
      </trkpt>
      <trkpt lat="47.46093" lon="6.69424">
        <ele>304</ele>
        <time>2025-09-13T15:11:58Z</time>
      </trkpt>
      <trkpt lat="47.46097" lon="6.69429">
        <ele>304.1</ele>
        <time>2025-09-13T15:11:59Z</time>
      </trkpt>
      <trkpt lat="47.46101" lon="6.69436">
        <ele>304.1</ele>
        <time>2025-09-13T15:12:00Z</time>
      </trkpt>
      <trkpt lat="47.46105" lon="6.69442">
        <ele>304.2</ele>
        <time>2025-09-13T15:12:01Z</time>
      </trkpt>
      <trkpt lat="47.46109" lon="6.69446">
        <ele>304.3</ele>
        <time>2025-09-13T15:12:02Z</time>
      </trkpt>
      <trkpt lat="47.46113" lon="6.69451">
        <ele>304.3</ele>
        <time>2025-09-13T15:12:03Z</time>
      </trkpt>
      <trkpt lat="47.46117" lon="6.69456">
        <ele>304.4</ele>
        <time>2025-09-13T15:12:04Z</time>
      </trkpt>
      <trkpt lat="47.46121" lon="6.6946">
        <ele>304.5</ele>
        <time>2025-09-13T15:12:05Z</time>
      </trkpt>
      <trkpt lat="47.46126" lon="6.69465">
        <ele>304.7</ele>
        <time>2025-09-13T15:12:06Z</time>
      </trkpt>
      <trkpt lat="47.4613" lon="6.6947">
        <ele>304.8</ele>
        <time>2025-09-13T15:12:07Z</time>
      </trkpt>
      <trkpt lat="47.46135" lon="6.69475">
        <ele>305</ele>
        <time>2025-09-13T15:12:08Z</time>
      </trkpt>
      <trkpt lat="47.46138" lon="6.6948">
        <ele>305.2</ele>
        <time>2025-09-13T15:12:09Z</time>
      </trkpt>
      <trkpt lat="47.46142" lon="6.69484">
        <ele>305.3</ele>
        <time>2025-09-13T15:12:10Z</time>
      </trkpt>
      <trkpt lat="47.46146" lon="6.69488">
        <ele>305.5</ele>
        <time>2025-09-13T15:12:11Z</time>
      </trkpt>
      <trkpt lat="47.46151" lon="6.69493">
        <ele>305.7</ele>
        <time>2025-09-13T15:12:12Z</time>
      </trkpt>
      <trkpt lat="47.46154" lon="6.69498">
        <ele>305.9</ele>
        <time>2025-09-13T15:12:13Z</time>
      </trkpt>
      <trkpt lat="47.46158" lon="6.69503">
        <ele>306.1</ele>
        <time>2025-09-13T15:12:14Z</time>
      </trkpt>
      <trkpt lat="47.46162" lon="6.69507">
        <ele>306.3</ele>
        <time>2025-09-13T15:12:15Z</time>
      </trkpt>
      <trkpt lat="47.46165" lon="6.69513">
        <ele>306.4</ele>
        <time>2025-09-13T15:12:16Z</time>
      </trkpt>
      <trkpt lat="47.46168" lon="6.69519">
        <ele>306.6</ele>
        <time>2025-09-13T15:12:17Z</time>
      </trkpt>
      <trkpt lat="47.46172" lon="6.69524">
        <ele>306.7</ele>
        <time>2025-09-13T15:12:18Z</time>
      </trkpt>
      <trkpt lat="47.46175" lon="6.69529">
        <ele>306.7</ele>
        <time>2025-09-13T15:12:19Z</time>
      </trkpt>
      <trkpt lat="47.46178" lon="6.69534">
        <ele>306.7</ele>
        <time>2025-09-13T15:12:20Z</time>
      </trkpt>
      <trkpt lat="47.46182" lon="6.69539">
        <ele>306.7</ele>
        <time>2025-09-13T15:12:21Z</time>
      </trkpt>
      <trkpt lat="47.46186" lon="6.69543">
        <ele>306.6</ele>
        <time>2025-09-13T15:12:22Z</time>
      </trkpt>
      <trkpt lat="47.46191" lon="6.69547">
        <ele>306.4</ele>
        <time>2025-09-13T15:12:23Z</time>
      </trkpt>
      <trkpt lat="47.46195" lon="6.69551">
        <ele>306.2</ele>
        <time>2025-09-13T15:12:24Z</time>
      </trkpt>
      <trkpt lat="47.462" lon="6.69557">
        <ele>306</ele>
        <time>2025-09-13T15:12:25Z</time>
      </trkpt>
      <trkpt lat="47.46205" lon="6.69562">
        <ele>305.8</ele>
        <time>2025-09-13T15:12:26Z</time>
      </trkpt>
      <trkpt lat="47.4621" lon="6.69567">
        <ele>305.5</ele>
        <time>2025-09-13T15:12:27Z</time>
      </trkpt>
      <trkpt lat="47.46215" lon="6.69574">
        <ele>305.3</ele>
        <time>2025-09-13T15:12:28Z</time>
      </trkpt>
      <trkpt lat="47.46219" lon="6.69582">
        <ele>305.2</ele>
        <time>2025-09-13T15:12:29Z</time>
      </trkpt>
      <trkpt lat="47.46223" lon="6.69591">
        <ele>305.1</ele>
        <time>2025-09-13T15:12:30Z</time>
      </trkpt>
      <trkpt lat="47.46226" lon="6.696">
        <ele>305</ele>
        <time>2025-09-13T15:12:31Z</time>
      </trkpt>
      <trkpt lat="47.46228" lon="6.69609">
        <ele>304.9</ele>
        <time>2025-09-13T15:12:32Z</time>
      </trkpt>
      <trkpt lat="47.46232" lon="6.69617">
        <ele>304.7</ele>
        <time>2025-09-13T15:12:33Z</time>
      </trkpt>
      <trkpt lat="47.46237" lon="6.69624">
        <ele>304.6</ele>
        <time>2025-09-13T15:12:34Z</time>
      </trkpt>
      <trkpt lat="47.46241" lon="6.69632">
        <ele>304.6</ele>
        <time>2025-09-13T15:12:35Z</time>
      </trkpt>
      <trkpt lat="47.46245" lon="6.6964">
        <ele>304.5</ele>
        <time>2025-09-13T15:12:36Z</time>
      </trkpt>
      <trkpt lat="47.4625" lon="6.69647">
        <ele>304.5</ele>
        <time>2025-09-13T15:12:37Z</time>
      </trkpt>
      <trkpt lat="47.46255" lon="6.69654">
        <ele>304.5</ele>
        <time>2025-09-13T15:12:38Z</time>
      </trkpt>
      <trkpt lat="47.46259" lon="6.69661">
        <ele>304.5</ele>
        <time>2025-09-13T15:12:39Z</time>
      </trkpt>
      <trkpt lat="47.46263" lon="6.69668">
        <ele>304.6</ele>
        <time>2025-09-13T15:12:40Z</time>
      </trkpt>
      <trkpt lat="47.46267" lon="6.69675">
        <ele>304.6</ele>
        <time>2025-09-13T15:12:41Z</time>
      </trkpt>
      <trkpt lat="47.4627" lon="6.69681">
        <ele>304.6</ele>
        <time>2025-09-13T15:12:42Z</time>
      </trkpt>
      <trkpt lat="47.46275" lon="6.69688">
        <ele>304.7</ele>
        <time>2025-09-13T15:12:43Z</time>
      </trkpt>
      <trkpt lat="47.46279" lon="6.69695">
        <ele>304.8</ele>
        <time>2025-09-13T15:12:44Z</time>
      </trkpt>
      <trkpt lat="47.46282" lon="6.69703">
        <ele>304.8</ele>
        <time>2025-09-13T15:12:45Z</time>
      </trkpt>
      <trkpt lat="47.46285" lon="6.69709">
        <ele>304.9</ele>
        <time>2025-09-13T15:12:46Z</time>
      </trkpt>
      <trkpt lat="47.46288" lon="6.69716">
        <ele>305</ele>
        <time>2025-09-13T15:12:47Z</time>
      </trkpt>
      <trkpt lat="47.4629" lon="6.69723">
        <ele>305.2</ele>
        <time>2025-09-13T15:12:48Z</time>
      </trkpt>
      <trkpt lat="47.46292" lon="6.69731">
        <ele>305.4</ele>
        <time>2025-09-13T15:12:49Z</time>
      </trkpt>
      <trkpt lat="47.46294" lon="6.69737">
        <ele>305.4</ele>
        <time>2025-09-13T15:12:50Z</time>
      </trkpt>
      <trkpt lat="47.46297" lon="6.69742">
        <ele>305.5</ele>
        <time>2025-09-13T15:12:51Z</time>
      </trkpt>
      <trkpt lat="47.463" lon="6.69747">
        <ele>305.5</ele>
        <time>2025-09-13T15:12:52Z</time>
      </trkpt>
      <trkpt lat="47.46303" lon="6.69752">
        <ele>305.6</ele>
        <time>2025-09-13T15:12:53Z</time>
      </trkpt>
      <trkpt lat="47.46307" lon="6.69758">
        <ele>305.6</ele>
        <time>2025-09-13T15:12:54Z</time>
      </trkpt>
      <trkpt lat="47.46311" lon="6.69764">
        <ele>305.6</ele>
        <time>2025-09-13T15:12:55Z</time>
      </trkpt>
      <trkpt lat="47.46315" lon="6.6977">
        <ele>305.6</ele>
        <time>2025-09-13T15:12:56Z</time>
      </trkpt>
      <trkpt lat="47.46319" lon="6.69777">
        <ele>305.6</ele>
        <time>2025-09-13T15:12:57Z</time>
      </trkpt>
      <trkpt lat="47.46324" lon="6.69783">
        <ele>305.6</ele>
        <time>2025-09-13T15:12:58Z</time>
      </trkpt>
      <trkpt lat="47.46328" lon="6.6979">
        <ele>305.6</ele>
        <time>2025-09-13T15:12:59Z</time>
      </trkpt>
      <trkpt lat="47.46333" lon="6.69796">
        <ele>305.6</ele>
        <time>2025-09-13T15:13:00Z</time>
      </trkpt>
      <trkpt lat="47.46335" lon="6.69805">
        <ele>305.6</ele>
        <time>2025-09-13T15:13:01Z</time>
      </trkpt>
      <trkpt lat="47.46338" lon="6.69813">
        <ele>305.7</ele>
        <time>2025-09-13T15:13:02Z</time>
      </trkpt>
      <trkpt lat="47.46342" lon="6.6982">
        <ele>305.7</ele>
        <time>2025-09-13T15:13:03Z</time>
      </trkpt>
      <trkpt lat="47.46345" lon="6.69829">
        <ele>305.7</ele>
        <time>2025-09-13T15:13:04Z</time>
      </trkpt>
      <trkpt lat="47.46348" lon="6.69836">
        <ele>305.7</ele>
        <time>2025-09-13T15:13:05Z</time>
      </trkpt>
      <trkpt lat="47.46351" lon="6.69843">
        <ele>305.7</ele>
        <time>2025-09-13T15:13:06Z</time>
      </trkpt>
      <trkpt lat="47.46354" lon="6.69851">
        <ele>305.7</ele>
        <time>2025-09-13T15:13:07Z</time>
      </trkpt>
      <trkpt lat="47.46357" lon="6.69859">
        <ele>305.7</ele>
        <time>2025-09-13T15:13:08Z</time>
      </trkpt>
      <trkpt lat="47.46361" lon="6.69868">
        <ele>305.7</ele>
        <time>2025-09-13T15:13:09Z</time>
      </trkpt>
      <trkpt lat="47.46364" lon="6.69875">
        <ele>305.7</ele>
        <time>2025-09-13T15:13:10Z</time>
      </trkpt>
      <trkpt lat="47.46367" lon="6.69884">
        <ele>305.7</ele>
        <time>2025-09-13T15:13:11Z</time>
      </trkpt>
      <trkpt lat="47.4637" lon="6.69892">
        <ele>305.7</ele>
        <time>2025-09-13T15:13:12Z</time>
      </trkpt>
      <trkpt lat="47.46374" lon="6.69901">
        <ele>305.7</ele>
        <time>2025-09-13T15:13:13Z</time>
      </trkpt>
      <trkpt lat="47.46377" lon="6.69908">
        <ele>305.7</ele>
        <time>2025-09-13T15:13:14Z</time>
      </trkpt>
      <trkpt lat="47.46381" lon="6.69917">
        <ele>305.7</ele>
        <time>2025-09-13T15:13:15Z</time>
      </trkpt>
      <trkpt lat="47.46384" lon="6.69924">
        <ele>305.7</ele>
        <time>2025-09-13T15:13:16Z</time>
      </trkpt>
      <trkpt lat="47.46387" lon="6.69932">
        <ele>305.7</ele>
        <time>2025-09-13T15:13:17Z</time>
      </trkpt>
      <trkpt lat="47.46391" lon="6.6994">
        <ele>305.7</ele>
        <time>2025-09-13T15:13:18Z</time>
      </trkpt>
      <trkpt lat="47.46394" lon="6.69948">
        <ele>305.7</ele>
        <time>2025-09-13T15:13:19Z</time>
      </trkpt>
      <trkpt lat="47.46397" lon="6.69956">
        <ele>305.7</ele>
        <time>2025-09-13T15:13:20Z</time>
      </trkpt>
      <trkpt lat="47.46401" lon="6.69964">
        <ele>305.7</ele>
        <time>2025-09-13T15:13:21Z</time>
      </trkpt>
      <trkpt lat="47.46404" lon="6.69971">
        <ele>305.7</ele>
        <time>2025-09-13T15:13:22Z</time>
      </trkpt>
      <trkpt lat="47.46408" lon="6.69978">
        <ele>305.7</ele>
        <time>2025-09-13T15:13:23Z</time>
      </trkpt>
      <trkpt lat="47.46411" lon="6.69986">
        <ele>305.7</ele>
        <time>2025-09-13T15:13:24Z</time>
      </trkpt>
      <trkpt lat="47.46414" lon="6.69993">
        <ele>305.7</ele>
        <time>2025-09-13T15:13:25Z</time>
      </trkpt>
      <trkpt lat="47.46418" lon="6.70001">
        <ele>305.6</ele>
        <time>2025-09-13T15:13:26Z</time>
      </trkpt>
      <trkpt lat="47.46421" lon="6.70009">
        <ele>305.6</ele>
        <time>2025-09-13T15:13:27Z</time>
      </trkpt>
      <trkpt lat="47.46426" lon="6.70017">
        <ele>305.6</ele>
        <time>2025-09-13T15:13:28Z</time>
      </trkpt>
      <trkpt lat="47.46429" lon="6.70024">
        <ele>305.6</ele>
        <time>2025-09-13T15:13:29Z</time>
      </trkpt>
      <trkpt lat="47.46433" lon="6.70032">
        <ele>305.6</ele>
        <time>2025-09-13T15:13:30Z</time>
      </trkpt>
      <trkpt lat="47.46436" lon="6.7004">
        <ele>305.6</ele>
        <time>2025-09-13T15:13:31Z</time>
      </trkpt>
      <trkpt lat="47.4644" lon="6.70048">
        <ele>305.6</ele>
        <time>2025-09-13T15:13:32Z</time>
      </trkpt>
      <trkpt lat="47.46444" lon="6.70056">
        <ele>305.6</ele>
        <time>2025-09-13T15:13:33Z</time>
      </trkpt>
      <trkpt lat="47.46447" lon="6.70064">
        <ele>305.6</ele>
        <time>2025-09-13T15:13:34Z</time>
      </trkpt>
      <trkpt lat="47.46451" lon="6.70072">
        <ele>305.6</ele>
        <time>2025-09-13T15:13:35Z</time>
      </trkpt>
      <trkpt lat="47.46455" lon="6.70079">
        <ele>305.6</ele>
        <time>2025-09-13T15:13:36Z</time>
      </trkpt>
      <trkpt lat="47.46458" lon="6.70087">
        <ele>305.6</ele>
        <time>2025-09-13T15:13:37Z</time>
      </trkpt>
      <trkpt lat="47.46462" lon="6.70095">
        <ele>305.6</ele>
        <time>2025-09-13T15:13:38Z</time>
      </trkpt>
      <trkpt lat="47.46466" lon="6.70103">
        <ele>305.6</ele>
        <time>2025-09-13T15:13:39Z</time>
      </trkpt>
      <trkpt lat="47.4647" lon="6.7011">
        <ele>305.6</ele>
        <time>2025-09-13T15:13:40Z</time>
      </trkpt>
      <trkpt lat="47.46473" lon="6.70118">
        <ele>305.6</ele>
        <time>2025-09-13T15:13:41Z</time>
      </trkpt>
      <trkpt lat="47.46477" lon="6.70126">
        <ele>305.6</ele>
        <time>2025-09-13T15:13:42Z</time>
      </trkpt>
      <trkpt lat="47.4648" lon="6.70133">
        <ele>305.5</ele>
        <time>2025-09-13T15:13:43Z</time>
      </trkpt>
      <trkpt lat="47.46483" lon="6.7014">
        <ele>305.5</ele>
        <time>2025-09-13T15:13:44Z</time>
      </trkpt>
      <trkpt lat="47.46487" lon="6.70148">
        <ele>305.5</ele>
        <time>2025-09-13T15:13:45Z</time>
      </trkpt>
      <trkpt lat="47.4649" lon="6.70155">
        <ele>305.5</ele>
        <time>2025-09-13T15:13:46Z</time>
      </trkpt>
      <trkpt lat="47.46494" lon="6.70163">
        <ele>305.5</ele>
        <time>2025-09-13T15:13:47Z</time>
      </trkpt>
      <trkpt lat="47.46498" lon="6.70171">
        <ele>305.5</ele>
        <time>2025-09-13T15:13:48Z</time>
      </trkpt>
      <trkpt lat="47.46501" lon="6.70179">
        <ele>305.5</ele>
        <time>2025-09-13T15:13:49Z</time>
      </trkpt>
      <trkpt lat="47.46505" lon="6.70186">
        <ele>305.5</ele>
        <time>2025-09-13T15:13:50Z</time>
      </trkpt>
      <trkpt lat="47.46509" lon="6.70194">
        <ele>305.5</ele>
        <time>2025-09-13T15:13:51Z</time>
      </trkpt>
      <trkpt lat="47.46512" lon="6.70202">
        <ele>305.5</ele>
        <time>2025-09-13T15:13:52Z</time>
      </trkpt>
      <trkpt lat="47.46516" lon="6.7021">
        <ele>305.5</ele>
        <time>2025-09-13T15:13:53Z</time>
      </trkpt>
      <trkpt lat="47.4652" lon="6.70219">
        <ele>305.5</ele>
        <time>2025-09-13T15:13:54Z</time>
      </trkpt>
      <trkpt lat="47.46524" lon="6.70226">
        <ele>305.5</ele>
        <time>2025-09-13T15:13:55Z</time>
      </trkpt>
      <trkpt lat="47.46528" lon="6.70234">
        <ele>305.5</ele>
        <time>2025-09-13T15:13:56Z</time>
      </trkpt>
      <trkpt lat="47.46531" lon="6.70242">
        <ele>305.5</ele>
        <time>2025-09-13T15:13:57Z</time>
      </trkpt>
      <trkpt lat="47.46535" lon="6.7025">
        <ele>305.5</ele>
        <time>2025-09-13T15:13:58Z</time>
      </trkpt>
      <trkpt lat="47.46539" lon="6.70259">
        <ele>305.5</ele>
        <time>2025-09-13T15:13:59Z</time>
      </trkpt>
      <trkpt lat="47.46543" lon="6.70267">
        <ele>305.5</ele>
        <time>2025-09-13T15:14:00Z</time>
      </trkpt>
      <trkpt lat="47.46547" lon="6.70275">
        <ele>305.5</ele>
        <time>2025-09-13T15:14:01Z</time>
      </trkpt>
      <trkpt lat="47.46551" lon="6.70284">
        <ele>305.5</ele>
        <time>2025-09-13T15:14:02Z</time>
      </trkpt>
      <trkpt lat="47.46554" lon="6.70291">
        <ele>305.5</ele>
        <time>2025-09-13T15:14:03Z</time>
      </trkpt>
      <trkpt lat="47.46559" lon="6.703">
        <ele>305.5</ele>
        <time>2025-09-13T15:14:04Z</time>
      </trkpt>
      <trkpt lat="47.46562" lon="6.70308">
        <ele>305.5</ele>
        <time>2025-09-13T15:14:05Z</time>
      </trkpt>
      <trkpt lat="47.46566" lon="6.70316">
        <ele>305.5</ele>
        <time>2025-09-13T15:14:06Z</time>
      </trkpt>
      <trkpt lat="47.46569" lon="6.70325">
        <ele>305.5</ele>
        <time>2025-09-13T15:14:07Z</time>
      </trkpt>
      <trkpt lat="47.46573" lon="6.70333">
        <ele>305.5</ele>
        <time>2025-09-13T15:14:08Z</time>
      </trkpt>
      <trkpt lat="47.46577" lon="6.70341">
        <ele>305.5</ele>
        <time>2025-09-13T15:14:09Z</time>
      </trkpt>
      <trkpt lat="47.46581" lon="6.7035">
        <ele>305.5</ele>
        <time>2025-09-13T15:14:10Z</time>
      </trkpt>
      <trkpt lat="47.46584" lon="6.70358">
        <ele>305.5</ele>
        <time>2025-09-13T15:14:11Z</time>
      </trkpt>
      <trkpt lat="47.46588" lon="6.70366">
        <ele>305.5</ele>
        <time>2025-09-13T15:14:12Z</time>
      </trkpt>
      <trkpt lat="47.46592" lon="6.70374">
        <ele>305.5</ele>
        <time>2025-09-13T15:14:13Z</time>
      </trkpt>
      <trkpt lat="47.46596" lon="6.70382">
        <ele>305.6</ele>
        <time>2025-09-13T15:14:14Z</time>
      </trkpt>
      <trkpt lat="47.466" lon="6.70391">
        <ele>305.6</ele>
        <time>2025-09-13T15:14:15Z</time>
      </trkpt>
      <trkpt lat="47.46604" lon="6.70398">
        <ele>305.6</ele>
        <time>2025-09-13T15:14:16Z</time>
      </trkpt>
      <trkpt lat="47.46608" lon="6.70406">
        <ele>305.6</ele>
        <time>2025-09-13T15:14:17Z</time>
      </trkpt>
      <trkpt lat="47.46612" lon="6.70414">
        <ele>305.6</ele>
        <time>2025-09-13T15:14:18Z</time>
      </trkpt>
      <trkpt lat="47.46616" lon="6.70422">
        <ele>305.6</ele>
        <time>2025-09-13T15:14:19Z</time>
      </trkpt>
      <trkpt lat="47.4662" lon="6.70431">
        <ele>305.6</ele>
        <time>2025-09-13T15:14:20Z</time>
      </trkpt>
      <trkpt lat="47.46624" lon="6.70439">
        <ele>305.7</ele>
        <time>2025-09-13T15:14:21Z</time>
      </trkpt>
      <trkpt lat="47.46628" lon="6.70447">
        <ele>305.7</ele>
        <time>2025-09-13T15:14:22Z</time>
      </trkpt>
      <trkpt lat="47.46632" lon="6.70455">
        <ele>305.7</ele>
        <time>2025-09-13T15:14:23Z</time>
      </trkpt>
      <trkpt lat="47.46636" lon="6.70463">
        <ele>305.7</ele>
        <time>2025-09-13T15:14:24Z</time>
      </trkpt>
      <trkpt lat="47.46639" lon="6.70471">
        <ele>305.7</ele>
        <time>2025-09-13T15:14:25Z</time>
      </trkpt>
      <trkpt lat="47.46643" lon="6.7048">
        <ele>305.7</ele>
        <time>2025-09-13T15:14:26Z</time>
      </trkpt>
      <trkpt lat="47.46647" lon="6.70488">
        <ele>305.8</ele>
        <time>2025-09-13T15:14:27Z</time>
      </trkpt>
      <trkpt lat="47.4665" lon="6.70496">
        <ele>305.8</ele>
        <time>2025-09-13T15:14:28Z</time>
      </trkpt>
      <trkpt lat="47.46654" lon="6.70504">
        <ele>305.8</ele>
        <time>2025-09-13T15:14:29Z</time>
      </trkpt>
      <trkpt lat="47.46658" lon="6.70512">
        <ele>305.8</ele>
        <time>2025-09-13T15:14:30Z</time>
      </trkpt>
      <trkpt lat="47.46662" lon="6.7052">
        <ele>305.8</ele>
        <time>2025-09-13T15:14:31Z</time>
      </trkpt>
      <trkpt lat="47.46665" lon="6.70528">
        <ele>305.8</ele>
        <time>2025-09-13T15:14:32Z</time>
      </trkpt>
      <trkpt lat="47.46669" lon="6.70536">
        <ele>305.8</ele>
        <time>2025-09-13T15:14:33Z</time>
      </trkpt>
      <trkpt lat="47.46673" lon="6.70544">
        <ele>305.8</ele>
        <time>2025-09-13T15:14:34Z</time>
      </trkpt>
      <trkpt lat="47.46677" lon="6.70551">
        <ele>305.8</ele>
        <time>2025-09-13T15:14:35Z</time>
      </trkpt>
      <trkpt lat="47.46681" lon="6.70558">
        <ele>305.8</ele>
        <time>2025-09-13T15:14:36Z</time>
      </trkpt>
      <trkpt lat="47.46684" lon="6.70566">
        <ele>305.8</ele>
        <time>2025-09-13T15:14:37Z</time>
      </trkpt>
      <trkpt lat="47.46688" lon="6.70575">
        <ele>305.8</ele>
        <time>2025-09-13T15:14:39Z</time>
      </trkpt>
      <trkpt lat="47.46691" lon="6.70582">
        <ele>305.8</ele>
        <time>2025-09-13T15:14:40Z</time>
      </trkpt>
      <trkpt lat="47.46696" lon="6.70589">
        <ele>305.8</ele>
        <time>2025-09-13T15:14:41Z</time>
      </trkpt>
      <trkpt lat="47.467" lon="6.70598">
        <ele>305.9</ele>
        <time>2025-09-13T15:14:42Z</time>
      </trkpt>
      <trkpt lat="47.46703" lon="6.70606">
        <ele>305.9</ele>
        <time>2025-09-13T15:14:43Z</time>
      </trkpt>
      <trkpt lat="47.46707" lon="6.70614">
        <ele>305.9</ele>
        <time>2025-09-13T15:14:44Z</time>
      </trkpt>
      <trkpt lat="47.4671" lon="6.70622">
        <ele>305.9</ele>
        <time>2025-09-13T15:14:45Z</time>
      </trkpt>
      <trkpt lat="47.46714" lon="6.70631">
        <ele>305.9</ele>
        <time>2025-09-13T15:14:46Z</time>
      </trkpt>
      <trkpt lat="47.46718" lon="6.70639">
        <ele>305.9</ele>
        <time>2025-09-13T15:14:47Z</time>
      </trkpt>
      <trkpt lat="47.46722" lon="6.70647">
        <ele>305.9</ele>
        <time>2025-09-13T15:14:48Z</time>
      </trkpt>
      <trkpt lat="47.46725" lon="6.70655">
        <ele>305.9</ele>
        <time>2025-09-13T15:14:49Z</time>
      </trkpt>
      <trkpt lat="47.4673" lon="6.70663">
        <ele>305.9</ele>
        <time>2025-09-13T15:14:50Z</time>
      </trkpt>
      <trkpt lat="47.46733" lon="6.70672">
        <ele>305.9</ele>
        <time>2025-09-13T15:14:51Z</time>
      </trkpt>
      <trkpt lat="47.46737" lon="6.7068">
        <ele>305.9</ele>
        <time>2025-09-13T15:14:52Z</time>
      </trkpt>
      <trkpt lat="47.46741" lon="6.70687">
        <ele>305.9</ele>
        <time>2025-09-13T15:14:53Z</time>
      </trkpt>
      <trkpt lat="47.46745" lon="6.70696">
        <ele>305.8</ele>
        <time>2025-09-13T15:14:54Z</time>
      </trkpt>
      <trkpt lat="47.46749" lon="6.70704">
        <ele>305.8</ele>
        <time>2025-09-13T15:14:55Z</time>
      </trkpt>
      <trkpt lat="47.46753" lon="6.70712">
        <ele>305.8</ele>
        <time>2025-09-13T15:14:56Z</time>
      </trkpt>
      <trkpt lat="47.46757" lon="6.7072">
        <ele>305.8</ele>
        <time>2025-09-13T15:14:57Z</time>
      </trkpt>
      <trkpt lat="47.46761" lon="6.70729">
        <ele>305.8</ele>
        <time>2025-09-13T15:14:58Z</time>
      </trkpt>
      <trkpt lat="47.46765" lon="6.70738">
        <ele>305.8</ele>
        <time>2025-09-13T15:14:59Z</time>
      </trkpt>
      <trkpt lat="47.46769" lon="6.70745">
        <ele>305.8</ele>
        <time>2025-09-13T15:15:00Z</time>
      </trkpt>
      <trkpt lat="47.46773" lon="6.70754">
        <ele>305.8</ele>
        <time>2025-09-13T15:15:01Z</time>
      </trkpt>
      <trkpt lat="47.46777" lon="6.70761">
        <ele>305.8</ele>
        <time>2025-09-13T15:15:02Z</time>
      </trkpt>
      <trkpt lat="47.4678" lon="6.70769">
        <ele>305.8</ele>
        <time>2025-09-13T15:15:03Z</time>
      </trkpt>
      <trkpt lat="47.46788" lon="6.70784">
        <ele>305.8</ele>
        <time>2025-09-13T15:15:04Z</time>
      </trkpt>
      <trkpt lat="47.46792" lon="6.70792">
        <ele>305.8</ele>
        <time>2025-09-13T15:15:05Z</time>
      </trkpt>
      <trkpt lat="47.46795" lon="6.708">
        <ele>305.8</ele>
        <time>2025-09-13T15:15:06Z</time>
      </trkpt>
      <trkpt lat="47.46799" lon="6.70808">
        <ele>305.8</ele>
        <time>2025-09-13T15:15:07Z</time>
      </trkpt>
      <trkpt lat="47.46802" lon="6.70815">
        <ele>305.8</ele>
        <time>2025-09-13T15:15:08Z</time>
      </trkpt>
      <trkpt lat="47.46806" lon="6.70822">
        <ele>305.8</ele>
        <time>2025-09-13T15:15:09Z</time>
      </trkpt>
      <trkpt lat="47.4681" lon="6.70829">
        <ele>305.8</ele>
        <time>2025-09-13T15:15:10Z</time>
      </trkpt>
      <trkpt lat="47.46813" lon="6.70836">
        <ele>305.8</ele>
        <time>2025-09-13T15:15:11Z</time>
      </trkpt>
      <trkpt lat="47.46816" lon="6.70842">
        <ele>305.8</ele>
        <time>2025-09-13T15:15:12Z</time>
      </trkpt>
      <trkpt lat="47.46819" lon="6.70848">
        <ele>305.8</ele>
        <time>2025-09-13T15:15:13Z</time>
      </trkpt>
      <trkpt lat="47.46821" lon="6.70854">
        <ele>305.8</ele>
        <time>2025-09-13T15:15:14Z</time>
      </trkpt>
      <trkpt lat="47.46824" lon="6.70859">
        <ele>305.8</ele>
        <time>2025-09-13T15:15:15Z</time>
      </trkpt>
      <trkpt lat="47.46826" lon="6.70864">
        <ele>305.8</ele>
        <time>2025-09-13T15:15:16Z</time>
      </trkpt>
      <trkpt lat="47.46829" lon="6.70871">
        <ele>305.8</ele>
        <time>2025-09-13T15:15:17Z</time>
      </trkpt>
      <trkpt lat="47.46832" lon="6.70877">
        <ele>305.8</ele>
        <time>2025-09-13T15:15:18Z</time>
      </trkpt>
      <trkpt lat="47.46835" lon="6.70884">
        <ele>305.7</ele>
        <time>2025-09-13T15:15:19Z</time>
      </trkpt>
      <trkpt lat="47.46838" lon="6.70892">
        <ele>305.7</ele>
        <time>2025-09-13T15:15:20Z</time>
      </trkpt>
      <trkpt lat="47.4684" lon="6.70898">
        <ele>305.7</ele>
        <time>2025-09-13T15:15:21Z</time>
      </trkpt>
      <trkpt lat="47.46843" lon="6.70905">
        <ele>305.7</ele>
        <time>2025-09-13T15:15:22Z</time>
      </trkpt>
      <trkpt lat="47.46847" lon="6.70911">
        <ele>305.7</ele>
        <time>2025-09-13T15:15:23Z</time>
      </trkpt>
      <trkpt lat="47.4685" lon="6.70918">
        <ele>305.7</ele>
        <time>2025-09-13T15:15:24Z</time>
      </trkpt>
      <trkpt lat="47.46854" lon="6.70925">
        <ele>305.6</ele>
        <time>2025-09-13T15:15:25Z</time>
      </trkpt>
      <trkpt lat="47.46858" lon="6.70932">
        <ele>305.6</ele>
        <time>2025-09-13T15:15:26Z</time>
      </trkpt>
      <trkpt lat="47.46861" lon="6.7094">
        <ele>305.6</ele>
        <time>2025-09-13T15:15:27Z</time>
      </trkpt>
      <trkpt lat="47.46865" lon="6.70947">
        <ele>305.6</ele>
        <time>2025-09-13T15:15:28Z</time>
      </trkpt>
      <trkpt lat="47.46869" lon="6.70952">
        <ele>305.6</ele>
        <time>2025-09-13T15:15:29Z</time>
      </trkpt>
      <trkpt lat="47.46873" lon="6.7096">
        <ele>305.6</ele>
        <time>2025-09-13T15:15:30Z</time>
      </trkpt>
      <trkpt lat="47.46876" lon="6.70968">
        <ele>305.6</ele>
        <time>2025-09-13T15:15:31Z</time>
      </trkpt>
      <trkpt lat="47.46879" lon="6.70975">
        <ele>305.6</ele>
        <time>2025-09-13T15:15:32Z</time>
      </trkpt>
      <trkpt lat="47.46883" lon="6.70982">
        <ele>305.6</ele>
        <time>2025-09-13T15:15:33Z</time>
      </trkpt>
      <trkpt lat="47.46886" lon="6.70989">
        <ele>305.6</ele>
        <time>2025-09-13T15:15:34Z</time>
      </trkpt>
      <trkpt lat="47.4689" lon="6.70996">
        <ele>305.6</ele>
        <time>2025-09-13T15:15:35Z</time>
      </trkpt>
      <trkpt lat="47.46894" lon="6.71004">
        <ele>305.6</ele>
        <time>2025-09-13T15:15:36Z</time>
      </trkpt>
      <trkpt lat="47.46897" lon="6.71011">
        <ele>305.6</ele>
        <time>2025-09-13T15:15:37Z</time>
      </trkpt>
      <trkpt lat="47.469" lon="6.71019">
        <ele>305.6</ele>
        <time>2025-09-13T15:15:38Z</time>
      </trkpt>
      <trkpt lat="47.46903" lon="6.71025">
        <ele>305.6</ele>
        <time>2025-09-13T15:15:39Z</time>
      </trkpt>
      <trkpt lat="47.46907" lon="6.71034">
        <ele>305.6</ele>
        <time>2025-09-13T15:15:40Z</time>
      </trkpt>
      <trkpt lat="47.46911" lon="6.71041">
        <ele>305.6</ele>
        <time>2025-09-13T15:15:41Z</time>
      </trkpt>
      <trkpt lat="47.46914" lon="6.71048">
        <ele>305.6</ele>
        <time>2025-09-13T15:15:42Z</time>
      </trkpt>
      <trkpt lat="47.46918" lon="6.71055">
        <ele>305.6</ele>
        <time>2025-09-13T15:15:43Z</time>
      </trkpt>
      <trkpt lat="47.46921" lon="6.71063">
        <ele>305.6</ele>
        <time>2025-09-13T15:15:44Z</time>
      </trkpt>
      <trkpt lat="47.46925" lon="6.71071">
        <ele>305.6</ele>
        <time>2025-09-13T15:15:45Z</time>
      </trkpt>
      <trkpt lat="47.46928" lon="6.71078">
        <ele>305.6</ele>
        <time>2025-09-13T15:15:46Z</time>
      </trkpt>
      <trkpt lat="47.46932" lon="6.71086">
        <ele>305.6</ele>
        <time>2025-09-13T15:15:47Z</time>
      </trkpt>
      <trkpt lat="47.46936" lon="6.71093">
        <ele>305.5</ele>
        <time>2025-09-13T15:15:48Z</time>
      </trkpt>
      <trkpt lat="47.46939" lon="6.711">
        <ele>305.5</ele>
        <time>2025-09-13T15:15:49Z</time>
      </trkpt>
      <trkpt lat="47.46943" lon="6.71108">
        <ele>305.5</ele>
        <time>2025-09-13T15:15:50Z</time>
      </trkpt>
      <trkpt lat="47.46947" lon="6.71116">
        <ele>305.5</ele>
        <time>2025-09-13T15:15:51Z</time>
      </trkpt>
      <trkpt lat="47.46951" lon="6.71124">
        <ele>305.5</ele>
        <time>2025-09-13T15:15:52Z</time>
      </trkpt>
      <trkpt lat="47.46954" lon="6.71132">
        <ele>305.5</ele>
        <time>2025-09-13T15:15:53Z</time>
      </trkpt>
      <trkpt lat="47.46958" lon="6.71139">
        <ele>305.4</ele>
        <time>2025-09-13T15:15:54Z</time>
      </trkpt>
      <trkpt lat="47.46961" lon="6.71147">
        <ele>305.4</ele>
        <time>2025-09-13T15:15:55Z</time>
      </trkpt>
      <trkpt lat="47.46965" lon="6.71155">
        <ele>305.4</ele>
        <time>2025-09-13T15:15:56Z</time>
      </trkpt>
      <trkpt lat="47.46969" lon="6.71163">
        <ele>305.4</ele>
        <time>2025-09-13T15:15:57Z</time>
      </trkpt>
      <trkpt lat="47.46973" lon="6.7117">
        <ele>305.4</ele>
        <time>2025-09-13T15:15:58Z</time>
      </trkpt>
      <trkpt lat="47.46976" lon="6.71178">
        <ele>305.4</ele>
        <time>2025-09-13T15:15:59Z</time>
      </trkpt>
      <trkpt lat="47.4698" lon="6.71185">
        <ele>305.4</ele>
        <time>2025-09-13T15:16:00Z</time>
      </trkpt>
      <trkpt lat="47.46983" lon="6.71193">
        <ele>305.4</ele>
        <time>2025-09-13T15:16:01Z</time>
      </trkpt>
      <trkpt lat="47.46987" lon="6.71201">
        <ele>305.4</ele>
        <time>2025-09-13T15:16:02Z</time>
      </trkpt>
      <trkpt lat="47.46991" lon="6.71209">
        <ele>305.4</ele>
        <time>2025-09-13T15:16:03Z</time>
      </trkpt>
      <trkpt lat="47.46994" lon="6.71216">
        <ele>305.4</ele>
        <time>2025-09-13T15:16:04Z</time>
      </trkpt>
      <trkpt lat="47.46998" lon="6.71225">
        <ele>305.4</ele>
        <time>2025-09-13T15:16:05Z</time>
      </trkpt>
      <trkpt lat="47.47002" lon="6.71232">
        <ele>305.3</ele>
        <time>2025-09-13T15:16:06Z</time>
      </trkpt>
      <trkpt lat="47.47006" lon="6.7124">
        <ele>305.3</ele>
        <time>2025-09-13T15:16:07Z</time>
      </trkpt>
      <trkpt lat="47.4701" lon="6.71248">
        <ele>305.3</ele>
        <time>2025-09-13T15:16:08Z</time>
      </trkpt>
      <trkpt lat="47.47013" lon="6.71257">
        <ele>305.3</ele>
        <time>2025-09-13T15:16:09Z</time>
      </trkpt>
      <trkpt lat="47.47016" lon="6.71265">
        <ele>305.3</ele>
        <time>2025-09-13T15:16:10Z</time>
      </trkpt>
      <trkpt lat="47.47021" lon="6.71273">
        <ele>305.3</ele>
        <time>2025-09-13T15:16:11Z</time>
      </trkpt>
      <trkpt lat="47.47025" lon="6.71282">
        <ele>305.3</ele>
        <time>2025-09-13T15:16:12Z</time>
      </trkpt>
      <trkpt lat="47.47028" lon="6.71289">
        <ele>305.3</ele>
        <time>2025-09-13T15:16:13Z</time>
      </trkpt>
      <trkpt lat="47.47031" lon="6.71297">
        <ele>305.3</ele>
        <time>2025-09-13T15:16:14Z</time>
      </trkpt>
      <trkpt lat="47.47035" lon="6.71305">
        <ele>305.4</ele>
        <time>2025-09-13T15:16:15Z</time>
      </trkpt>
      <trkpt lat="47.47039" lon="6.71314">
        <ele>305.5</ele>
        <time>2025-09-13T15:16:16Z</time>
      </trkpt>
      <trkpt lat="47.47043" lon="6.71322">
        <ele>305.7</ele>
        <time>2025-09-13T15:16:17Z</time>
      </trkpt>
      <trkpt lat="47.47046" lon="6.7133">
        <ele>305.9</ele>
        <time>2025-09-13T15:16:18Z</time>
      </trkpt>
      <trkpt lat="47.4705" lon="6.71337">
        <ele>306.2</ele>
        <time>2025-09-13T15:16:19Z</time>
      </trkpt>
      <trkpt lat="47.47054" lon="6.71345">
        <ele>306.6</ele>
        <time>2025-09-13T15:16:20Z</time>
      </trkpt>
      <trkpt lat="47.47058" lon="6.71353">
        <ele>306.9</ele>
        <time>2025-09-13T15:16:21Z</time>
      </trkpt>
      <trkpt lat="47.47061" lon="6.71359">
        <ele>307.2</ele>
        <time>2025-09-13T15:16:22Z</time>
      </trkpt>
      <trkpt lat="47.47064" lon="6.71366">
        <ele>307.4</ele>
        <time>2025-09-13T15:16:23Z</time>
      </trkpt>
      <trkpt lat="47.47067" lon="6.71373">
        <ele>307.5</ele>
        <time>2025-09-13T15:16:24Z</time>
      </trkpt>
      <trkpt lat="47.4707" lon="6.7138">
        <ele>307.6</ele>
        <time>2025-09-13T15:16:25Z</time>
      </trkpt>
      <trkpt lat="47.47074" lon="6.71387">
        <ele>307.7</ele>
        <time>2025-09-13T15:16:26Z</time>
      </trkpt>
      <trkpt lat="47.47077" lon="6.71395">
        <ele>307.7</ele>
        <time>2025-09-13T15:16:27Z</time>
      </trkpt>
      <trkpt lat="47.47081" lon="6.71402">
        <ele>307.7</ele>
        <time>2025-09-13T15:16:28Z</time>
      </trkpt>
      <trkpt lat="47.47084" lon="6.7141">
        <ele>307.7</ele>
        <time>2025-09-13T15:16:29Z</time>
      </trkpt>
      <trkpt lat="47.47087" lon="6.71417">
        <ele>307.7</ele>
        <time>2025-09-13T15:16:30Z</time>
      </trkpt>
      <trkpt lat="47.47091" lon="6.71424">
        <ele>307.7</ele>
        <time>2025-09-13T15:16:31Z</time>
      </trkpt>
      <trkpt lat="47.47095" lon="6.71431">
        <ele>307.7</ele>
        <time>2025-09-13T15:16:32Z</time>
      </trkpt>
      <trkpt lat="47.47099" lon="6.71438">
        <ele>307.7</ele>
        <time>2025-09-13T15:16:33Z</time>
      </trkpt>
      <trkpt lat="47.47102" lon="6.71447">
        <ele>307.7</ele>
        <time>2025-09-13T15:16:34Z</time>
      </trkpt>
      <trkpt lat="47.47105" lon="6.71454">
        <ele>307.6</ele>
        <time>2025-09-13T15:16:35Z</time>
      </trkpt>
      <trkpt lat="47.47109" lon="6.71462">
        <ele>307.6</ele>
        <time>2025-09-13T15:16:36Z</time>
      </trkpt>
      <trkpt lat="47.47113" lon="6.7147">
        <ele>307.6</ele>
        <time>2025-09-13T15:16:37Z</time>
      </trkpt>
      <trkpt lat="47.47117" lon="6.71479">
        <ele>307.6</ele>
        <time>2025-09-13T15:16:38Z</time>
      </trkpt>
      <trkpt lat="47.47121" lon="6.71487">
        <ele>307.5</ele>
        <time>2025-09-13T15:16:39Z</time>
      </trkpt>
      <trkpt lat="47.47125" lon="6.71495">
        <ele>307.5</ele>
        <time>2025-09-13T15:16:40Z</time>
      </trkpt>
      <trkpt lat="47.47129" lon="6.71503">
        <ele>307.5</ele>
        <time>2025-09-13T15:16:41Z</time>
      </trkpt>
      <trkpt lat="47.47133" lon="6.71511">
        <ele>307.5</ele>
        <time>2025-09-13T15:16:42Z</time>
      </trkpt>
      <trkpt lat="47.47137" lon="6.71519">
        <ele>307.4</ele>
        <time>2025-09-13T15:16:43Z</time>
      </trkpt>
      <trkpt lat="47.47141" lon="6.71527">
        <ele>307.4</ele>
        <time>2025-09-13T15:16:45Z</time>
      </trkpt>
      <trkpt lat="47.47145" lon="6.71536">
        <ele>307.4</ele>
        <time>2025-09-13T15:16:46Z</time>
      </trkpt>
      <trkpt lat="47.4715" lon="6.71544">
        <ele>307.4</ele>
        <time>2025-09-13T15:16:47Z</time>
      </trkpt>
      <trkpt lat="47.47153" lon="6.71553">
        <ele>307.5</ele>
        <time>2025-09-13T15:16:48Z</time>
      </trkpt>
      <trkpt lat="47.47157" lon="6.71561">
        <ele>307.5</ele>
        <time>2025-09-13T15:16:49Z</time>
      </trkpt>
      <trkpt lat="47.47161" lon="6.7157">
        <ele>307.5</ele>
        <time>2025-09-13T15:16:50Z</time>
      </trkpt>
      <trkpt lat="47.47164" lon="6.71579">
        <ele>307.5</ele>
        <time>2025-09-13T15:16:51Z</time>
      </trkpt>
      <trkpt lat="47.47167" lon="6.71587">
        <ele>307.5</ele>
        <time>2025-09-13T15:16:52Z</time>
      </trkpt>
      <trkpt lat="47.47171" lon="6.71596">
        <ele>307.4</ele>
        <time>2025-09-13T15:16:53Z</time>
      </trkpt>
      <trkpt lat="47.47175" lon="6.71605">
        <ele>307.4</ele>
        <time>2025-09-13T15:16:54Z</time>
      </trkpt>
      <trkpt lat="47.47178" lon="6.71613">
        <ele>307.4</ele>
        <time>2025-09-13T15:16:55Z</time>
      </trkpt>
      <trkpt lat="47.47182" lon="6.71622">
        <ele>307.4</ele>
        <time>2025-09-13T15:16:56Z</time>
      </trkpt>
      <trkpt lat="47.47185" lon="6.71631">
        <ele>307.5</ele>
        <time>2025-09-13T15:16:57Z</time>
      </trkpt>
      <trkpt lat="47.47188" lon="6.7164">
        <ele>307.5</ele>
        <time>2025-09-13T15:16:58Z</time>
      </trkpt>
      <trkpt lat="47.47191" lon="6.71649">
        <ele>307.5</ele>
        <time>2025-09-13T15:16:59Z</time>
      </trkpt>
      <trkpt lat="47.47195" lon="6.71658">
        <ele>307.5</ele>
        <time>2025-09-13T15:17:00Z</time>
      </trkpt>
      <trkpt lat="47.47199" lon="6.71668">
        <ele>307.5</ele>
        <time>2025-09-13T15:17:01Z</time>
      </trkpt>
      <trkpt lat="47.47202" lon="6.71677">
        <ele>307.5</ele>
        <time>2025-09-13T15:17:02Z</time>
      </trkpt>
      <trkpt lat="47.47205" lon="6.71686">
        <ele>307.5</ele>
        <time>2025-09-13T15:17:03Z</time>
      </trkpt>
      <trkpt lat="47.47211" lon="6.71704">
        <ele>307.5</ele>
        <time>2025-09-13T15:17:04Z</time>
      </trkpt>
      <trkpt lat="47.47214" lon="6.71713">
        <ele>307.4</ele>
        <time>2025-09-13T15:17:05Z</time>
      </trkpt>
      <trkpt lat="47.47217" lon="6.71722">
        <ele>307.4</ele>
        <time>2025-09-13T15:17:06Z</time>
      </trkpt>
      <trkpt lat="47.4722" lon="6.71732">
        <ele>307.4</ele>
        <time>2025-09-13T15:17:07Z</time>
      </trkpt>
      <trkpt lat="47.47223" lon="6.71741">
        <ele>307.4</ele>
        <time>2025-09-13T15:17:08Z</time>
      </trkpt>
      <trkpt lat="47.47226" lon="6.7175">
        <ele>307.5</ele>
        <time>2025-09-13T15:17:09Z</time>
      </trkpt>
      <trkpt lat="47.47229" lon="6.7176">
        <ele>307.5</ele>
        <time>2025-09-13T15:17:10Z</time>
      </trkpt>
      <trkpt lat="47.47232" lon="6.71769">
        <ele>307.5</ele>
        <time>2025-09-13T15:17:11Z</time>
      </trkpt>
      <trkpt lat="47.47234" lon="6.71778">
        <ele>307.5</ele>
        <time>2025-09-13T15:17:12Z</time>
      </trkpt>
      <trkpt lat="47.47236" lon="6.71788">
        <ele>307.5</ele>
        <time>2025-09-13T15:17:13Z</time>
      </trkpt>
      <trkpt lat="47.47238" lon="6.71797">
        <ele>307.5</ele>
        <time>2025-09-13T15:17:14Z</time>
      </trkpt>
      <trkpt lat="47.47241" lon="6.71806">
        <ele>307.5</ele>
        <time>2025-09-13T15:17:15Z</time>
      </trkpt>
      <trkpt lat="47.47244" lon="6.71815">
        <ele>307.5</ele>
        <time>2025-09-13T15:17:16Z</time>
      </trkpt>
      <trkpt lat="47.47247" lon="6.71824">
        <ele>307.4</ele>
        <time>2025-09-13T15:17:17Z</time>
      </trkpt>
      <trkpt lat="47.47249" lon="6.71833">
        <ele>307.4</ele>
        <time>2025-09-13T15:17:18Z</time>
      </trkpt>
      <trkpt lat="47.47252" lon="6.71843">
        <ele>307.4</ele>
        <time>2025-09-13T15:17:19Z</time>
      </trkpt>
      <trkpt lat="47.47254" lon="6.71853">
        <ele>307.4</ele>
        <time>2025-09-13T15:17:20Z</time>
      </trkpt>
      <trkpt lat="47.47257" lon="6.71862">
        <ele>307.4</ele>
        <time>2025-09-13T15:17:21Z</time>
      </trkpt>
      <trkpt lat="47.47259" lon="6.71872">
        <ele>307.4</ele>
        <time>2025-09-13T15:17:22Z</time>
      </trkpt>
      <trkpt lat="47.47262" lon="6.71881">
        <ele>307.3</ele>
        <time>2025-09-13T15:17:23Z</time>
      </trkpt>
      <trkpt lat="47.47265" lon="6.7189">
        <ele>307.3</ele>
        <time>2025-09-13T15:17:24Z</time>
      </trkpt>
      <trkpt lat="47.47267" lon="6.719">
        <ele>307.3</ele>
        <time>2025-09-13T15:17:25Z</time>
      </trkpt>
      <trkpt lat="47.4727" lon="6.7191">
        <ele>307.3</ele>
        <time>2025-09-13T15:17:26Z</time>
      </trkpt>
      <trkpt lat="47.47273" lon="6.71919">
        <ele>307.3</ele>
        <time>2025-09-13T15:17:27Z</time>
      </trkpt>
      <trkpt lat="47.47275" lon="6.71928">
        <ele>307.3</ele>
        <time>2025-09-13T15:17:28Z</time>
      </trkpt>
      <trkpt lat="47.47278" lon="6.71938">
        <ele>307.3</ele>
        <time>2025-09-13T15:17:29Z</time>
      </trkpt>
      <trkpt lat="47.4728" lon="6.71947">
        <ele>307.3</ele>
        <time>2025-09-13T15:17:30Z</time>
      </trkpt>
      <trkpt lat="47.47282" lon="6.71956">
        <ele>307.3</ele>
        <time>2025-09-13T15:17:31Z</time>
      </trkpt>
      <trkpt lat="47.47285" lon="6.71966">
        <ele>307.3</ele>
        <time>2025-09-13T15:17:32Z</time>
      </trkpt>
      <trkpt lat="47.47288" lon="6.71975">
        <ele>307.2</ele>
        <time>2025-09-13T15:17:33Z</time>
      </trkpt>
      <trkpt lat="47.47291" lon="6.71985">
        <ele>307.2</ele>
        <time>2025-09-13T15:17:34Z</time>
      </trkpt>
      <trkpt lat="47.47293" lon="6.71994">
        <ele>307.2</ele>
        <time>2025-09-13T15:17:35Z</time>
      </trkpt>
      <trkpt lat="47.47296" lon="6.72003">
        <ele>307.2</ele>
        <time>2025-09-13T15:17:36Z</time>
      </trkpt>
      <trkpt lat="47.47299" lon="6.72012">
        <ele>307.2</ele>
        <time>2025-09-13T15:17:37Z</time>
      </trkpt>
      <trkpt lat="47.47301" lon="6.72021">
        <ele>307.2</ele>
        <time>2025-09-13T15:17:38Z</time>
      </trkpt>
      <trkpt lat="47.47304" lon="6.72031">
        <ele>307.2</ele>
        <time>2025-09-13T15:17:39Z</time>
      </trkpt>
      <trkpt lat="47.47306" lon="6.7204">
        <ele>307.2</ele>
        <time>2025-09-13T15:17:40Z</time>
      </trkpt>
      <trkpt lat="47.47309" lon="6.7205">
        <ele>307.2</ele>
        <time>2025-09-13T15:17:41Z</time>
      </trkpt>
      <trkpt lat="47.47312" lon="6.72059">
        <ele>307.2</ele>
        <time>2025-09-13T15:17:42Z</time>
      </trkpt>
      <trkpt lat="47.47314" lon="6.72068">
        <ele>307.2</ele>
        <time>2025-09-13T15:17:43Z</time>
      </trkpt>
      <trkpt lat="47.47317" lon="6.72077">
        <ele>307.2</ele>
        <time>2025-09-13T15:17:44Z</time>
      </trkpt>
      <trkpt lat="47.47319" lon="6.72086">
        <ele>307.2</ele>
        <time>2025-09-13T15:17:45Z</time>
      </trkpt>
      <trkpt lat="47.47322" lon="6.72095">
        <ele>307.2</ele>
        <time>2025-09-13T15:17:46Z</time>
      </trkpt>
      <trkpt lat="47.47324" lon="6.72105">
        <ele>307.2</ele>
        <time>2025-09-13T15:17:47Z</time>
      </trkpt>
      <trkpt lat="47.47327" lon="6.72114">
        <ele>307.2</ele>
        <time>2025-09-13T15:17:48Z</time>
      </trkpt>
      <trkpt lat="47.4733" lon="6.72123">
        <ele>307.2</ele>
        <time>2025-09-13T15:17:49Z</time>
      </trkpt>
      <trkpt lat="47.47332" lon="6.72132">
        <ele>307.2</ele>
        <time>2025-09-13T15:17:50Z</time>
      </trkpt>
      <trkpt lat="47.47335" lon="6.72142">
        <ele>307.2</ele>
        <time>2025-09-13T15:17:51Z</time>
      </trkpt>
      <trkpt lat="47.47337" lon="6.72152">
        <ele>307.2</ele>
        <time>2025-09-13T15:17:52Z</time>
      </trkpt>
      <trkpt lat="47.4734" lon="6.72162">
        <ele>307.2</ele>
        <time>2025-09-13T15:17:53Z</time>
      </trkpt>
      <trkpt lat="47.47342" lon="6.72171">
        <ele>307.2</ele>
        <time>2025-09-13T15:17:54Z</time>
      </trkpt>
      <trkpt lat="47.47345" lon="6.7218">
        <ele>307.2</ele>
        <time>2025-09-13T15:17:55Z</time>
      </trkpt>
      <trkpt lat="47.47348" lon="6.7219">
        <ele>307.2</ele>
        <time>2025-09-13T15:17:56Z</time>
      </trkpt>
      <trkpt lat="47.4735" lon="6.72199">
        <ele>307.2</ele>
        <time>2025-09-13T15:17:57Z</time>
      </trkpt>
      <trkpt lat="47.47353" lon="6.72208">
        <ele>307.3</ele>
        <time>2025-09-13T15:17:58Z</time>
      </trkpt>
      <trkpt lat="47.47356" lon="6.72218">
        <ele>307.3</ele>
        <time>2025-09-13T15:17:59Z</time>
      </trkpt>
      <trkpt lat="47.47358" lon="6.72227">
        <ele>307.3</ele>
        <time>2025-09-13T15:18:00Z</time>
      </trkpt>
      <trkpt lat="47.47361" lon="6.72237">
        <ele>307.3</ele>
        <time>2025-09-13T15:18:01Z</time>
      </trkpt>
      <trkpt lat="47.47363" lon="6.72246">
        <ele>307.3</ele>
        <time>2025-09-13T15:18:02Z</time>
      </trkpt>
      <trkpt lat="47.47366" lon="6.72256">
        <ele>307.3</ele>
        <time>2025-09-13T15:18:03Z</time>
      </trkpt>
      <trkpt lat="47.47368" lon="6.72266">
        <ele>307.3</ele>
        <time>2025-09-13T15:18:04Z</time>
      </trkpt>
      <trkpt lat="47.47371" lon="6.72275">
        <ele>307.3</ele>
        <time>2025-09-13T15:18:05Z</time>
      </trkpt>
      <trkpt lat="47.47373" lon="6.72285">
        <ele>307.3</ele>
        <time>2025-09-13T15:18:06Z</time>
      </trkpt>
      <trkpt lat="47.47376" lon="6.72295">
        <ele>307.3</ele>
        <time>2025-09-13T15:18:07Z</time>
      </trkpt>
      <trkpt lat="47.47378" lon="6.72304">
        <ele>307.3</ele>
        <time>2025-09-13T15:18:08Z</time>
      </trkpt>
      <trkpt lat="47.47381" lon="6.72314">
        <ele>307.4</ele>
        <time>2025-09-13T15:18:09Z</time>
      </trkpt>
      <trkpt lat="47.47384" lon="6.72324">
        <ele>307.4</ele>
        <time>2025-09-13T15:18:10Z</time>
      </trkpt>
      <trkpt lat="47.47387" lon="6.72333">
        <ele>307.4</ele>
        <time>2025-09-13T15:18:11Z</time>
      </trkpt>
      <trkpt lat="47.47389" lon="6.72343">
        <ele>307.4</ele>
        <time>2025-09-13T15:18:12Z</time>
      </trkpt>
      <trkpt lat="47.47392" lon="6.72352">
        <ele>307.4</ele>
        <time>2025-09-13T15:18:13Z</time>
      </trkpt>
      <trkpt lat="47.47394" lon="6.72362">
        <ele>307.4</ele>
        <time>2025-09-13T15:18:14Z</time>
      </trkpt>
      <trkpt lat="47.47397" lon="6.72372">
        <ele>307.4</ele>
        <time>2025-09-13T15:18:15Z</time>
      </trkpt>
      <trkpt lat="47.474" lon="6.72382">
        <ele>307.4</ele>
        <time>2025-09-13T15:18:16Z</time>
      </trkpt>
      <trkpt lat="47.47402" lon="6.72392">
        <ele>307.5</ele>
        <time>2025-09-13T15:18:17Z</time>
      </trkpt>
      <trkpt lat="47.47405" lon="6.72402">
        <ele>307.5</ele>
        <time>2025-09-13T15:18:18Z</time>
      </trkpt>
      <trkpt lat="47.47408" lon="6.72411">
        <ele>307.5</ele>
        <time>2025-09-13T15:18:19Z</time>
      </trkpt>
      <trkpt lat="47.47411" lon="6.72421">
        <ele>307.5</ele>
        <time>2025-09-13T15:18:20Z</time>
      </trkpt>
      <trkpt lat="47.47413" lon="6.7243">
        <ele>307.5</ele>
        <time>2025-09-13T15:18:21Z</time>
      </trkpt>
      <trkpt lat="47.47416" lon="6.7244">
        <ele>307.5</ele>
        <time>2025-09-13T15:18:22Z</time>
      </trkpt>
      <trkpt lat="47.47418" lon="6.7245">
        <ele>307.5</ele>
        <time>2025-09-13T15:18:23Z</time>
      </trkpt>
      <trkpt lat="47.47421" lon="6.7246">
        <ele>307.5</ele>
        <time>2025-09-13T15:18:24Z</time>
      </trkpt>
      <trkpt lat="47.47424" lon="6.7247">
        <ele>307.5</ele>
        <time>2025-09-13T15:18:25Z</time>
      </trkpt>
      <trkpt lat="47.47426" lon="6.72479">
        <ele>307.5</ele>
        <time>2025-09-13T15:18:26Z</time>
      </trkpt>
      <trkpt lat="47.47428" lon="6.72489">
        <ele>307.5</ele>
        <time>2025-09-13T15:18:27Z</time>
      </trkpt>
      <trkpt lat="47.47431" lon="6.72498">
        <ele>307.5</ele>
        <time>2025-09-13T15:18:28Z</time>
      </trkpt>
      <trkpt lat="47.47435" lon="6.72507">
        <ele>307.5</ele>
        <time>2025-09-13T15:18:29Z</time>
      </trkpt>
      <trkpt lat="47.47437" lon="6.72517">
        <ele>307.5</ele>
        <time>2025-09-13T15:18:30Z</time>
      </trkpt>
      <trkpt lat="47.4744" lon="6.72527">
        <ele>307.5</ele>
        <time>2025-09-13T15:18:31Z</time>
      </trkpt>
      <trkpt lat="47.47443" lon="6.72536">
        <ele>307.5</ele>
        <time>2025-09-13T15:18:32Z</time>
      </trkpt>
      <trkpt lat="47.47446" lon="6.72547">
        <ele>307.5</ele>
        <time>2025-09-13T15:18:33Z</time>
      </trkpt>
      <trkpt lat="47.47449" lon="6.72556">
        <ele>307.5</ele>
        <time>2025-09-13T15:18:34Z</time>
      </trkpt>
      <trkpt lat="47.47451" lon="6.72565">
        <ele>307.4</ele>
        <time>2025-09-13T15:18:35Z</time>
      </trkpt>
      <trkpt lat="47.47454" lon="6.72576">
        <ele>307.4</ele>
        <time>2025-09-13T15:18:36Z</time>
      </trkpt>
      <trkpt lat="47.47457" lon="6.72586">
        <ele>307.4</ele>
        <time>2025-09-13T15:18:37Z</time>
      </trkpt>
      <trkpt lat="47.47461" lon="6.72595">
        <ele>307.4</ele>
        <time>2025-09-13T15:18:38Z</time>
      </trkpt>
      <trkpt lat="47.47463" lon="6.72604">
        <ele>307.5</ele>
        <time>2025-09-13T15:18:39Z</time>
      </trkpt>
      <trkpt lat="47.47466" lon="6.72614">
        <ele>307.5</ele>
        <time>2025-09-13T15:18:40Z</time>
      </trkpt>
      <trkpt lat="47.47468" lon="6.72624">
        <ele>307.5</ele>
        <time>2025-09-13T15:18:41Z</time>
      </trkpt>
      <trkpt lat="47.47471" lon="6.72634">
        <ele>307.5</ele>
        <time>2025-09-13T15:18:42Z</time>
      </trkpt>
      <trkpt lat="47.47474" lon="6.72643">
        <ele>307.5</ele>
        <time>2025-09-13T15:18:43Z</time>
      </trkpt>
      <trkpt lat="47.47479" lon="6.72653">
        <ele>307.4</ele>
        <time>2025-09-13T15:18:44Z</time>
      </trkpt>
      <trkpt lat="47.47484" lon="6.7266">
        <ele>307.4</ele>
        <time>2025-09-13T15:18:45Z</time>
      </trkpt>
      <trkpt lat="47.47488" lon="6.72667">
        <ele>307.3</ele>
        <time>2025-09-13T15:18:46Z</time>
      </trkpt>
      <trkpt lat="47.47492" lon="6.72677">
        <ele>307.3</ele>
        <time>2025-09-13T15:18:47Z</time>
      </trkpt>
      <trkpt lat="47.47493" lon="6.72688">
        <ele>307.3</ele>
        <time>2025-09-13T15:18:48Z</time>
      </trkpt>
      <trkpt lat="47.47496" lon="6.72697">
        <ele>307.3</ele>
        <time>2025-09-13T15:18:49Z</time>
      </trkpt>
      <trkpt lat="47.47498" lon="6.72707">
        <ele>307.3</ele>
        <time>2025-09-13T15:18:50Z</time>
      </trkpt>
      <trkpt lat="47.475" lon="6.72717">
        <ele>307.3</ele>
        <time>2025-09-13T15:18:52Z</time>
      </trkpt>
      <trkpt lat="47.47502" lon="6.72726">
        <ele>307.3</ele>
        <time>2025-09-13T15:18:53Z</time>
      </trkpt>
      <trkpt lat="47.47505" lon="6.72736">
        <ele>307.3</ele>
        <time>2025-09-13T15:18:54Z</time>
      </trkpt>
      <trkpt lat="47.47507" lon="6.72746">
        <ele>307.4</ele>
        <time>2025-09-13T15:18:55Z</time>
      </trkpt>
      <trkpt lat="47.4751" lon="6.72755">
        <ele>307.4</ele>
        <time>2025-09-13T15:18:56Z</time>
      </trkpt>
      <trkpt lat="47.47513" lon="6.72765">
        <ele>307.4</ele>
        <time>2025-09-13T15:18:57Z</time>
      </trkpt>
      <trkpt lat="47.47515" lon="6.72775">
        <ele>307.5</ele>
        <time>2025-09-13T15:18:58Z</time>
      </trkpt>
      <trkpt lat="47.47517" lon="6.72785">
        <ele>307.5</ele>
        <time>2025-09-13T15:18:59Z</time>
      </trkpt>
      <trkpt lat="47.4752" lon="6.72794">
        <ele>307.5</ele>
        <time>2025-09-13T15:19:00Z</time>
      </trkpt>
      <trkpt lat="47.47523" lon="6.72804">
        <ele>307.5</ele>
        <time>2025-09-13T15:19:01Z</time>
      </trkpt>
      <trkpt lat="47.47526" lon="6.72813">
        <ele>307.4</ele>
        <time>2025-09-13T15:19:02Z</time>
      </trkpt>
      <trkpt lat="47.47528" lon="6.72823">
        <ele>307.4</ele>
        <time>2025-09-13T15:19:03Z</time>
      </trkpt>
      <trkpt lat="47.47531" lon="6.72832">
        <ele>307.4</ele>
        <time>2025-09-13T15:19:04Z</time>
      </trkpt>
      <trkpt lat="47.47533" lon="6.72841">
        <ele>307.5</ele>
        <time>2025-09-13T15:19:05Z</time>
      </trkpt>
      <trkpt lat="47.47536" lon="6.7285">
        <ele>307.5</ele>
        <time>2025-09-13T15:19:06Z</time>
      </trkpt>
      <trkpt lat="47.4754" lon="6.72859">
        <ele>307.5</ele>
        <time>2025-09-13T15:19:07Z</time>
      </trkpt>
      <trkpt lat="47.47542" lon="6.72869">
        <ele>307.6</ele>
        <time>2025-09-13T15:19:08Z</time>
      </trkpt>
      <trkpt lat="47.47544" lon="6.72879">
        <ele>307.6</ele>
        <time>2025-09-13T15:19:09Z</time>
      </trkpt>
      <trkpt lat="47.47547" lon="6.72889">
        <ele>307.6</ele>
        <time>2025-09-13T15:19:10Z</time>
      </trkpt>
      <trkpt lat="47.4755" lon="6.72898">
        <ele>307.7</ele>
        <time>2025-09-13T15:19:11Z</time>
      </trkpt>
      <trkpt lat="47.47552" lon="6.72907">
        <ele>307.7</ele>
        <time>2025-09-13T15:19:12Z</time>
      </trkpt>
      <trkpt lat="47.47555" lon="6.72917">
        <ele>307.8</ele>
        <time>2025-09-13T15:19:13Z</time>
      </trkpt>
      <trkpt lat="47.47558" lon="6.72927">
        <ele>307.9</ele>
        <time>2025-09-13T15:19:14Z</time>
      </trkpt>
      <trkpt lat="47.47562" lon="6.72943">
        <ele>308.1</ele>
        <time>2025-09-13T15:19:15Z</time>
      </trkpt>
      <trkpt lat="47.47566" lon="6.72954">
        <ele>308.2</ele>
        <time>2025-09-13T15:19:16Z</time>
      </trkpt>
      <trkpt lat="47.47567" lon="6.72963">
        <ele>308.2</ele>
        <time>2025-09-13T15:19:17Z</time>
      </trkpt>
      <trkpt lat="47.4757" lon="6.72971">
        <ele>308.3</ele>
        <time>2025-09-13T15:19:18Z</time>
      </trkpt>
      <trkpt lat="47.47572" lon="6.7298">
        <ele>308.3</ele>
        <time>2025-09-13T15:19:19Z</time>
      </trkpt>
      <trkpt lat="47.47574" lon="6.72989">
        <ele>308.4</ele>
        <time>2025-09-13T15:19:20Z</time>
      </trkpt>
      <trkpt lat="47.47576" lon="6.72998">
        <ele>308.4</ele>
        <time>2025-09-13T15:19:21Z</time>
      </trkpt>
      <trkpt lat="47.47578" lon="6.73006">
        <ele>308.4</ele>
        <time>2025-09-13T15:19:22Z</time>
      </trkpt>
      <trkpt lat="47.47581" lon="6.73014">
        <ele>308.4</ele>
        <time>2025-09-13T15:19:23Z</time>
      </trkpt>
      <trkpt lat="47.47583" lon="6.73023">
        <ele>308.4</ele>
        <time>2025-09-13T15:19:24Z</time>
      </trkpt>
      <trkpt lat="47.47585" lon="6.73032">
        <ele>308.4</ele>
        <time>2025-09-13T15:19:25Z</time>
      </trkpt>
      <trkpt lat="47.47588" lon="6.73041">
        <ele>308.4</ele>
        <time>2025-09-13T15:19:26Z</time>
      </trkpt>
      <trkpt lat="47.4759" lon="6.7305">
        <ele>308.4</ele>
        <time>2025-09-13T15:19:27Z</time>
      </trkpt>
      <trkpt lat="47.47592" lon="6.73059">
        <ele>308.4</ele>
        <time>2025-09-13T15:19:28Z</time>
      </trkpt>
      <trkpt lat="47.47593" lon="6.73068">
        <ele>308.4</ele>
        <time>2025-09-13T15:19:29Z</time>
      </trkpt>
      <trkpt lat="47.47595" lon="6.73077">
        <ele>308.5</ele>
        <time>2025-09-13T15:19:30Z</time>
      </trkpt>
      <trkpt lat="47.47596" lon="6.73088">
        <ele>308.5</ele>
        <time>2025-09-13T15:19:31Z</time>
      </trkpt>
      <trkpt lat="47.47597" lon="6.73098">
        <ele>308.5</ele>
        <time>2025-09-13T15:19:32Z</time>
      </trkpt>
      <trkpt lat="47.47597" lon="6.73108">
        <ele>308.6</ele>
        <time>2025-09-13T15:19:33Z</time>
      </trkpt>
      <trkpt lat="47.47598" lon="6.73119">
        <ele>308.7</ele>
        <time>2025-09-13T15:19:34Z</time>
      </trkpt>
      <trkpt lat="47.47598" lon="6.73128">
        <ele>308.7</ele>
        <time>2025-09-13T15:19:35Z</time>
      </trkpt>
      <trkpt lat="47.47598" lon="6.73138">
        <ele>308.8</ele>
        <time>2025-09-13T15:19:36Z</time>
      </trkpt>
      <trkpt lat="47.47597" lon="6.73148">
        <ele>308.9</ele>
        <time>2025-09-13T15:19:37Z</time>
      </trkpt>
      <trkpt lat="47.47597" lon="6.73158">
        <ele>309</ele>
        <time>2025-09-13T15:19:38Z</time>
      </trkpt>
      <trkpt lat="47.47596" lon="6.73168">
        <ele>309</ele>
        <time>2025-09-13T15:19:39Z</time>
      </trkpt>
      <trkpt lat="47.47596" lon="6.73178">
        <ele>309.1</ele>
        <time>2025-09-13T15:19:40Z</time>
      </trkpt>
      <trkpt lat="47.47596" lon="6.73188">
        <ele>309.2</ele>
        <time>2025-09-13T15:19:41Z</time>
      </trkpt>
      <trkpt lat="47.47595" lon="6.73197">
        <ele>309.4</ele>
        <time>2025-09-13T15:19:42Z</time>
      </trkpt>
      <trkpt lat="47.47594" lon="6.73206">
        <ele>309.6</ele>
        <time>2025-09-13T15:19:43Z</time>
      </trkpt>
      <trkpt lat="47.47593" lon="6.73213">
        <ele>309.8</ele>
        <time>2025-09-13T15:19:44Z</time>
      </trkpt>
      <trkpt lat="47.47592" lon="6.7322">
        <ele>310</ele>
        <time>2025-09-13T15:19:45Z</time>
      </trkpt>
      <trkpt lat="47.47591" lon="6.73227">
        <ele>310.2</ele>
        <time>2025-09-13T15:19:46Z</time>
      </trkpt>
      <trkpt lat="47.47588" lon="6.73232">
        <ele>310.4</ele>
        <time>2025-09-13T15:19:47Z</time>
      </trkpt>
      <trkpt lat="47.47584" lon="6.73235">
        <ele>310.5</ele>
        <time>2025-09-13T15:19:48Z</time>
      </trkpt>
      <trkpt lat="47.4758" lon="6.73236">
        <ele>310.5</ele>
        <time>2025-09-13T15:19:49Z</time>
      </trkpt>
      <trkpt lat="47.47576" lon="6.73233">
        <ele>310.5</ele>
        <time>2025-09-13T15:19:50Z</time>
      </trkpt>
      <trkpt lat="47.47571" lon="6.73231">
        <ele>310.5</ele>
        <time>2025-09-13T15:19:51Z</time>
      </trkpt>
      <trkpt lat="47.47566" lon="6.73229">
        <ele>310.5</ele>
        <time>2025-09-13T15:19:52Z</time>
      </trkpt>
      <trkpt lat="47.47561" lon="6.73228">
        <ele>310.5</ele>
        <time>2025-09-13T15:19:53Z</time>
      </trkpt>
      <trkpt lat="47.47556" lon="6.7323">
        <ele>310.4</ele>
        <time>2025-09-13T15:19:54Z</time>
      </trkpt>
      <trkpt lat="47.47552" lon="6.73239">
        <ele>310</ele>
        <time>2025-09-13T15:19:55Z</time>
      </trkpt>
      <trkpt lat="47.47552" lon="6.73249">
        <ele>309.7</ele>
        <time>2025-09-13T15:19:56Z</time>
      </trkpt>
      <trkpt lat="47.47552" lon="6.73259">
        <ele>309.5</ele>
        <time>2025-09-13T15:19:57Z</time>
      </trkpt>
      <trkpt lat="47.47552" lon="6.73269">
        <ele>309.3</ele>
        <time>2025-09-13T15:19:58Z</time>
      </trkpt>
      <trkpt lat="47.47552" lon="6.73279">
        <ele>309.1</ele>
        <time>2025-09-13T15:19:59Z</time>
      </trkpt>
      <trkpt lat="47.4755" lon="6.73289">
        <ele>309</ele>
        <time>2025-09-13T15:20:00Z</time>
      </trkpt>
      <trkpt lat="47.47549" lon="6.73299">
        <ele>308.9</ele>
        <time>2025-09-13T15:20:01Z</time>
      </trkpt>
      <trkpt lat="47.47547" lon="6.73309">
        <ele>308.9</ele>
        <time>2025-09-13T15:20:02Z</time>
      </trkpt>
      <trkpt lat="47.47545" lon="6.73319">
        <ele>308.8</ele>
        <time>2025-09-13T15:20:03Z</time>
      </trkpt>
      <trkpt lat="47.47543" lon="6.73327">
        <ele>308.8</ele>
        <time>2025-09-13T15:20:04Z</time>
      </trkpt>
      <trkpt lat="47.47539" lon="6.73335">
        <ele>308.7</ele>
        <time>2025-09-13T15:20:05Z</time>
      </trkpt>
      <trkpt lat="47.47533" lon="6.7334">
        <ele>308.7</ele>
        <time>2025-09-13T15:20:06Z</time>
      </trkpt>
      <trkpt lat="47.47528" lon="6.73343">
        <ele>308.6</ele>
        <time>2025-09-13T15:20:07Z</time>
      </trkpt>
      <trkpt lat="47.47522" lon="6.73347">
        <ele>308.6</ele>
        <time>2025-09-13T15:20:08Z</time>
      </trkpt>
      <trkpt lat="47.47517" lon="6.73352">
        <ele>308.5</ele>
        <time>2025-09-13T15:20:09Z</time>
      </trkpt>
      <trkpt lat="47.47512" lon="6.73355">
        <ele>308.5</ele>
        <time>2025-09-13T15:20:10Z</time>
      </trkpt>
      <trkpt lat="47.47507" lon="6.73362">
        <ele>308.4</ele>
        <time>2025-09-13T15:20:11Z</time>
      </trkpt>
      <trkpt lat="47.47506" lon="6.73372">
        <ele>308.4</ele>
        <time>2025-09-13T15:20:12Z</time>
      </trkpt>
      <trkpt lat="47.47511" lon="6.73385">
        <ele>308.3</ele>
        <time>2025-09-13T15:20:13Z</time>
      </trkpt>
      <trkpt lat="47.47514" lon="6.73395">
        <ele>308.2</ele>
        <time>2025-09-13T15:20:14Z</time>
      </trkpt>
      <trkpt lat="47.47517" lon="6.73406">
        <ele>308.2</ele>
        <time>2025-09-13T15:20:15Z</time>
      </trkpt>
      <trkpt lat="47.47519" lon="6.73415">
        <ele>308.1</ele>
        <time>2025-09-13T15:20:16Z</time>
      </trkpt>
      <trkpt lat="47.47521" lon="6.73424">
        <ele>308.1</ele>
        <time>2025-09-13T15:20:17Z</time>
      </trkpt>
      <trkpt lat="47.47524" lon="6.73432">
        <ele>308</ele>
        <time>2025-09-13T15:20:18Z</time>
      </trkpt>
      <trkpt lat="47.47526" lon="6.73441">
        <ele>308</ele>
        <time>2025-09-13T15:20:19Z</time>
      </trkpt>
      <trkpt lat="47.47528" lon="6.7345">
        <ele>308</ele>
        <time>2025-09-13T15:20:20Z</time>
      </trkpt>
      <trkpt lat="47.47531" lon="6.73461">
        <ele>307.9</ele>
        <time>2025-09-13T15:20:21Z</time>
      </trkpt>
      <trkpt lat="47.47533" lon="6.73469">
        <ele>307.9</ele>
        <time>2025-09-13T15:20:22Z</time>
      </trkpt>
      <trkpt lat="47.47535" lon="6.73477">
        <ele>307.9</ele>
        <time>2025-09-13T15:20:23Z</time>
      </trkpt>
      <trkpt lat="47.47537" lon="6.73487">
        <ele>308</ele>
        <time>2025-09-13T15:20:24Z</time>
      </trkpt>
      <trkpt lat="47.47537" lon="6.73495">
        <ele>308</ele>
        <time>2025-09-13T15:20:25Z</time>
      </trkpt>
      <trkpt lat="47.47539" lon="6.73505">
        <ele>308.1</ele>
        <time>2025-09-13T15:20:26Z</time>
      </trkpt>
      <trkpt lat="47.47541" lon="6.73513">
        <ele>308.2</ele>
        <time>2025-09-13T15:20:27Z</time>
      </trkpt>
      <trkpt lat="47.47542" lon="6.73522">
        <ele>308.2</ele>
        <time>2025-09-13T15:20:28Z</time>
      </trkpt>
      <trkpt lat="47.47544" lon="6.7353">
        <ele>308.3</ele>
        <time>2025-09-13T15:20:29Z</time>
      </trkpt>
      <trkpt lat="47.47546" lon="6.73538">
        <ele>308.5</ele>
        <time>2025-09-13T15:20:30Z</time>
      </trkpt>
      <trkpt lat="47.47548" lon="6.73547">
        <ele>308.6</ele>
        <time>2025-09-13T15:20:31Z</time>
      </trkpt>
      <trkpt lat="47.47549" lon="6.73554">
        <ele>308.6</ele>
        <time>2025-09-13T15:20:32Z</time>
      </trkpt>
      <trkpt lat="47.47552" lon="6.73562">
        <ele>308.6</ele>
        <time>2025-09-13T15:20:33Z</time>
      </trkpt>
      <trkpt lat="47.47553" lon="6.73569">
        <ele>308.7</ele>
        <time>2025-09-13T15:20:34Z</time>
      </trkpt>
      <trkpt lat="47.47552" lon="6.73579">
        <ele>308.7</ele>
        <time>2025-09-13T15:20:35Z</time>
      </trkpt>
      <trkpt lat="47.47554" lon="6.73588">
        <ele>308.8</ele>
        <time>2025-09-13T15:20:36Z</time>
      </trkpt>
      <trkpt lat="47.47558" lon="6.73594">
        <ele>308.8</ele>
        <time>2025-09-13T15:20:37Z</time>
      </trkpt>
      <trkpt lat="47.47563" lon="6.73592">
        <ele>308.9</ele>
        <time>2025-09-13T15:20:38Z</time>
      </trkpt>
      <trkpt lat="47.47569" lon="6.7359">
        <ele>308.9</ele>
        <time>2025-09-13T15:20:39Z</time>
      </trkpt>
      <trkpt lat="47.47573" lon="6.73592">
        <ele>308.9</ele>
        <time>2025-09-13T15:20:40Z</time>
      </trkpt>
      <trkpt lat="47.47576" lon="6.73596">
        <ele>308.8</ele>
        <time>2025-09-13T15:20:41Z</time>
      </trkpt>
      <trkpt lat="47.47576" lon="6.73605">
        <ele>308.8</ele>
        <time>2025-09-13T15:20:42Z</time>
      </trkpt>
      <trkpt lat="47.47577" lon="6.73612">
        <ele>308.7</ele>
        <time>2025-09-13T15:20:43Z</time>
      </trkpt>
      <trkpt lat="47.47576" lon="6.7362">
        <ele>308.7</ele>
        <time>2025-09-13T15:20:44Z</time>
      </trkpt>
      <trkpt lat="47.47577" lon="6.73631">
        <ele>308.6</ele>
        <time>2025-09-13T15:20:45Z</time>
      </trkpt>
      <trkpt lat="47.47578" lon="6.7364">
        <ele>308.6</ele>
        <time>2025-09-13T15:20:46Z</time>
      </trkpt>
      <trkpt lat="47.4758" lon="6.73648">
        <ele>308.6</ele>
        <time>2025-09-13T15:20:47Z</time>
      </trkpt>
      <trkpt lat="47.47581" lon="6.73655">
        <ele>308.7</ele>
        <time>2025-09-13T15:20:48Z</time>
      </trkpt>
      <trkpt lat="47.47583" lon="6.73663">
        <ele>308.7</ele>
        <time>2025-09-13T15:20:49Z</time>
      </trkpt>
      <trkpt lat="47.47585" lon="6.7367">
        <ele>308.7</ele>
        <time>2025-09-13T15:20:50Z</time>
      </trkpt>
      <trkpt lat="47.47586" lon="6.73679">
        <ele>308.7</ele>
        <time>2025-09-13T15:20:51Z</time>
      </trkpt>
      <trkpt lat="47.47588" lon="6.73688">
        <ele>308.7</ele>
        <time>2025-09-13T15:20:52Z</time>
      </trkpt>
      <trkpt lat="47.47589" lon="6.73697">
        <ele>308.7</ele>
        <time>2025-09-13T15:20:53Z</time>
      </trkpt>
      <trkpt lat="47.4759" lon="6.73705">
        <ele>308.7</ele>
        <time>2025-09-13T15:20:54Z</time>
      </trkpt>
      <trkpt lat="47.47592" lon="6.73714">
        <ele>308.8</ele>
        <time>2025-09-13T15:20:55Z</time>
      </trkpt>
      <trkpt lat="47.47594" lon="6.73722">
        <ele>308.8</ele>
        <time>2025-09-13T15:20:57Z</time>
      </trkpt>
      <trkpt lat="47.47595" lon="6.73731">
        <ele>308.8</ele>
        <time>2025-09-13T15:20:58Z</time>
      </trkpt>
      <trkpt lat="47.47596" lon="6.73739">
        <ele>308.8</ele>
        <time>2025-09-13T15:20:59Z</time>
      </trkpt>
      <trkpt lat="47.47598" lon="6.73748">
        <ele>308.9</ele>
        <time>2025-09-13T15:21:00Z</time>
      </trkpt>
      <trkpt lat="47.476" lon="6.73757">
        <ele>308.9</ele>
        <time>2025-09-13T15:21:01Z</time>
      </trkpt>
      <trkpt lat="47.47602" lon="6.73766">
        <ele>308.9</ele>
        <time>2025-09-13T15:21:02Z</time>
      </trkpt>
      <trkpt lat="47.47604" lon="6.73774">
        <ele>308.9</ele>
        <time>2025-09-13T15:21:03Z</time>
      </trkpt>
      <trkpt lat="47.47605" lon="6.73783">
        <ele>308.9</ele>
        <time>2025-09-13T15:21:04Z</time>
      </trkpt>
      <trkpt lat="47.47607" lon="6.73792">
        <ele>308.9</ele>
        <time>2025-09-13T15:21:05Z</time>
      </trkpt>
      <trkpt lat="47.47608" lon="6.73801">
        <ele>308.9</ele>
        <time>2025-09-13T15:21:06Z</time>
      </trkpt>
      <trkpt lat="47.4761" lon="6.7381">
        <ele>308.9</ele>
        <time>2025-09-13T15:21:07Z</time>
      </trkpt>
      <trkpt lat="47.47612" lon="6.7382">
        <ele>308.9</ele>
        <time>2025-09-13T15:21:08Z</time>
      </trkpt>
      <trkpt lat="47.47614" lon="6.73829">
        <ele>308.9</ele>
        <time>2025-09-13T15:21:09Z</time>
      </trkpt>
      <trkpt lat="47.47616" lon="6.73839">
        <ele>309</ele>
        <time>2025-09-13T15:21:10Z</time>
      </trkpt>
      <trkpt lat="47.47618" lon="6.73848">
        <ele>309</ele>
        <time>2025-09-13T15:21:11Z</time>
      </trkpt>
      <trkpt lat="47.4762" lon="6.73856">
        <ele>309</ele>
        <time>2025-09-13T15:21:12Z</time>
      </trkpt>
      <trkpt lat="47.47621" lon="6.73865">
        <ele>309</ele>
        <time>2025-09-13T15:21:13Z</time>
      </trkpt>
      <trkpt lat="47.47623" lon="6.73875">
        <ele>309.1</ele>
        <time>2025-09-13T15:21:14Z</time>
      </trkpt>
      <trkpt lat="47.47624" lon="6.73883">
        <ele>309.1</ele>
        <time>2025-09-13T15:21:15Z</time>
      </trkpt>
      <trkpt lat="47.47626" lon="6.73893">
        <ele>309.1</ele>
        <time>2025-09-13T15:21:16Z</time>
      </trkpt>
      <trkpt lat="47.47631" lon="6.73911">
        <ele>309.1</ele>
        <time>2025-09-13T15:21:17Z</time>
      </trkpt>
      <trkpt lat="47.47632" lon="6.73921">
        <ele>309.1</ele>
        <time>2025-09-13T15:21:18Z</time>
      </trkpt>
      <trkpt lat="47.47634" lon="6.73929">
        <ele>309.1</ele>
        <time>2025-09-13T15:21:19Z</time>
      </trkpt>
      <trkpt lat="47.47636" lon="6.73939">
        <ele>309.1</ele>
        <time>2025-09-13T15:21:20Z</time>
      </trkpt>
      <trkpt lat="47.47637" lon="6.73948">
        <ele>309.1</ele>
        <time>2025-09-13T15:21:21Z</time>
      </trkpt>
      <trkpt lat="47.4764" lon="6.7396">
        <ele>309.1</ele>
        <time>2025-09-13T15:21:22Z</time>
      </trkpt>
      <trkpt lat="47.47642" lon="6.73969">
        <ele>309.2</ele>
        <time>2025-09-13T15:21:23Z</time>
      </trkpt>
      <trkpt lat="47.47644" lon="6.73978">
        <ele>309.2</ele>
        <time>2025-09-13T15:21:24Z</time>
      </trkpt>
      <trkpt lat="47.47646" lon="6.73987">
        <ele>309.2</ele>
        <time>2025-09-13T15:21:25Z</time>
      </trkpt>
      <trkpt lat="47.47647" lon="6.73996">
        <ele>309.3</ele>
        <time>2025-09-13T15:21:26Z</time>
      </trkpt>
      <trkpt lat="47.47649" lon="6.74005">
        <ele>309.3</ele>
        <time>2025-09-13T15:21:27Z</time>
      </trkpt>
      <trkpt lat="47.47651" lon="6.74014">
        <ele>309.3</ele>
        <time>2025-09-13T15:21:28Z</time>
      </trkpt>
      <trkpt lat="47.47652" lon="6.74023">
        <ele>309.3</ele>
        <time>2025-09-13T15:21:29Z</time>
      </trkpt>
      <trkpt lat="47.47653" lon="6.74033">
        <ele>309.3</ele>
        <time>2025-09-13T15:21:30Z</time>
      </trkpt>
      <trkpt lat="47.47655" lon="6.74041">
        <ele>309.3</ele>
        <time>2025-09-13T15:21:31Z</time>
      </trkpt>
      <trkpt lat="47.47657" lon="6.74051">
        <ele>309.3</ele>
        <time>2025-09-13T15:21:32Z</time>
      </trkpt>
      <trkpt lat="47.47659" lon="6.74062">
        <ele>309.3</ele>
        <time>2025-09-13T15:21:33Z</time>
      </trkpt>
      <trkpt lat="47.47661" lon="6.74073">
        <ele>309.3</ele>
        <time>2025-09-13T15:21:34Z</time>
      </trkpt>
      <trkpt lat="47.47664" lon="6.74083">
        <ele>309.4</ele>
        <time>2025-09-13T15:21:35Z</time>
      </trkpt>
      <trkpt lat="47.47666" lon="6.74093">
        <ele>309.4</ele>
        <time>2025-09-13T15:21:36Z</time>
      </trkpt>
      <trkpt lat="47.47666" lon="6.74102">
        <ele>309.5</ele>
        <time>2025-09-13T15:21:37Z</time>
      </trkpt>
      <trkpt lat="47.4767" lon="6.7411">
        <ele>309.5</ele>
        <time>2025-09-13T15:21:38Z</time>
      </trkpt>
      <trkpt lat="47.47671" lon="6.74119">
        <ele>309.5</ele>
        <time>2025-09-13T15:21:39Z</time>
      </trkpt>
      <trkpt lat="47.47674" lon="6.74128">
        <ele>309.5</ele>
        <time>2025-09-13T15:21:40Z</time>
      </trkpt>
      <trkpt lat="47.47676" lon="6.74138">
        <ele>309.5</ele>
        <time>2025-09-13T15:21:41Z</time>
      </trkpt>
      <trkpt lat="47.47678" lon="6.74147">
        <ele>309.5</ele>
        <time>2025-09-13T15:21:42Z</time>
      </trkpt>
      <trkpt lat="47.47679" lon="6.74157">
        <ele>309.6</ele>
        <time>2025-09-13T15:21:43Z</time>
      </trkpt>
      <trkpt lat="47.47681" lon="6.74166">
        <ele>309.6</ele>
        <time>2025-09-13T15:21:44Z</time>
      </trkpt>
      <trkpt lat="47.47683" lon="6.74175">
        <ele>309.6</ele>
        <time>2025-09-13T15:21:45Z</time>
      </trkpt>
      <trkpt lat="47.47685" lon="6.74185">
        <ele>309.6</ele>
        <time>2025-09-13T15:21:46Z</time>
      </trkpt>
      <trkpt lat="47.47686" lon="6.74194">
        <ele>309.6</ele>
        <time>2025-09-13T15:21:47Z</time>
      </trkpt>
      <trkpt lat="47.47688" lon="6.74204">
        <ele>309.6</ele>
        <time>2025-09-13T15:21:48Z</time>
      </trkpt>
      <trkpt lat="47.47689" lon="6.74214">
        <ele>309.6</ele>
        <time>2025-09-13T15:21:49Z</time>
      </trkpt>
      <trkpt lat="47.47691" lon="6.74223">
        <ele>309.6</ele>
        <time>2025-09-13T15:21:50Z</time>
      </trkpt>
      <trkpt lat="47.47693" lon="6.74233">
        <ele>309.6</ele>
        <time>2025-09-13T15:21:51Z</time>
      </trkpt>
      <trkpt lat="47.47694" lon="6.74243">
        <ele>309.6</ele>
        <time>2025-09-13T15:21:52Z</time>
      </trkpt>
      <trkpt lat="47.47696" lon="6.74252">
        <ele>309.6</ele>
        <time>2025-09-13T15:21:53Z</time>
      </trkpt>
      <trkpt lat="47.47697" lon="6.74262">
        <ele>309.6</ele>
        <time>2025-09-13T15:21:54Z</time>
      </trkpt>
      <trkpt lat="47.47699" lon="6.74271">
        <ele>309.7</ele>
        <time>2025-09-13T15:21:55Z</time>
      </trkpt>
      <trkpt lat="47.477" lon="6.7428">
        <ele>309.7</ele>
        <time>2025-09-13T15:21:56Z</time>
      </trkpt>
      <trkpt lat="47.47702" lon="6.7429">
        <ele>309.7</ele>
        <time>2025-09-13T15:21:57Z</time>
      </trkpt>
      <trkpt lat="47.47703" lon="6.74299">
        <ele>309.7</ele>
        <time>2025-09-13T15:21:58Z</time>
      </trkpt>
      <trkpt lat="47.47704" lon="6.74309">
        <ele>309.7</ele>
        <time>2025-09-13T15:21:59Z</time>
      </trkpt>
      <trkpt lat="47.47706" lon="6.74319">
        <ele>309.7</ele>
        <time>2025-09-13T15:22:00Z</time>
      </trkpt>
      <trkpt lat="47.47707" lon="6.74329">
        <ele>309.7</ele>
        <time>2025-09-13T15:22:01Z</time>
      </trkpt>
      <trkpt lat="47.47708" lon="6.74338">
        <ele>309.7</ele>
        <time>2025-09-13T15:22:02Z</time>
      </trkpt>
      <trkpt lat="47.4771" lon="6.74347">
        <ele>309.6</ele>
        <time>2025-09-13T15:22:03Z</time>
      </trkpt>
      <trkpt lat="47.47711" lon="6.74358">
        <ele>309.6</ele>
        <time>2025-09-13T15:22:04Z</time>
      </trkpt>
      <trkpt lat="47.47712" lon="6.74368">
        <ele>309.6</ele>
        <time>2025-09-13T15:22:05Z</time>
      </trkpt>
      <trkpt lat="47.47714" lon="6.74378">
        <ele>309.6</ele>
        <time>2025-09-13T15:22:06Z</time>
      </trkpt>
      <trkpt lat="47.47715" lon="6.74389">
        <ele>309.6</ele>
        <time>2025-09-13T15:22:07Z</time>
      </trkpt>
      <trkpt lat="47.47717" lon="6.74399">
        <ele>309.6</ele>
        <time>2025-09-13T15:22:08Z</time>
      </trkpt>
      <trkpt lat="47.47718" lon="6.74409">
        <ele>309.6</ele>
        <time>2025-09-13T15:22:09Z</time>
      </trkpt>
      <trkpt lat="47.47719" lon="6.74419">
        <ele>309.6</ele>
        <time>2025-09-13T15:22:10Z</time>
      </trkpt>
      <trkpt lat="47.4772" lon="6.74429">
        <ele>309.7</ele>
        <time>2025-09-13T15:22:11Z</time>
      </trkpt>
      <trkpt lat="47.4772" lon="6.74439">
        <ele>309.8</ele>
        <time>2025-09-13T15:22:12Z</time>
      </trkpt>
      <trkpt lat="47.47718" lon="6.74446">
        <ele>309.8</ele>
        <time>2025-09-13T15:22:13Z</time>
      </trkpt>
      <trkpt lat="47.47712" lon="6.74453">
        <ele>309.9</ele>
        <time>2025-09-13T15:22:14Z</time>
      </trkpt>
      <trkpt lat="47.4771" lon="6.7446">
        <ele>309.9</ele>
        <time>2025-09-13T15:22:15Z</time>
      </trkpt>
      <trkpt lat="47.47712" lon="6.74469">
        <ele>309.9</ele>
        <time>2025-09-13T15:22:16Z</time>
      </trkpt>
      <trkpt lat="47.47713" lon="6.74478">
        <ele>309.9</ele>
        <time>2025-09-13T15:22:17Z</time>
      </trkpt>
      <trkpt lat="47.47714" lon="6.74487">
        <ele>309.9</ele>
        <time>2025-09-13T15:22:18Z</time>
      </trkpt>
      <trkpt lat="47.47715" lon="6.74496">
        <ele>309.9</ele>
        <time>2025-09-13T15:22:19Z</time>
      </trkpt>
      <trkpt lat="47.47716" lon="6.74503">
        <ele>309.9</ele>
        <time>2025-09-13T15:22:20Z</time>
      </trkpt>
      <trkpt lat="47.47716" lon="6.74513">
        <ele>309.9</ele>
        <time>2025-09-13T15:22:21Z</time>
      </trkpt>
      <trkpt lat="47.47719" lon="6.74527">
        <ele>309.8</ele>
        <time>2025-09-13T15:22:22Z</time>
      </trkpt>
      <trkpt lat="47.47721" lon="6.74534">
        <ele>309.8</ele>
        <time>2025-09-13T15:22:23Z</time>
      </trkpt>
      <trkpt lat="47.47724" lon="6.74542">
        <ele>309.7</ele>
        <time>2025-09-13T15:22:24Z</time>
      </trkpt>
      <trkpt lat="47.47726" lon="6.74552">
        <ele>309.7</ele>
        <time>2025-09-13T15:22:25Z</time>
      </trkpt>
      <trkpt lat="47.47727" lon="6.74562">
        <ele>309.7</ele>
        <time>2025-09-13T15:22:26Z</time>
      </trkpt>
      <trkpt lat="47.47728" lon="6.74572">
        <ele>309.7</ele>
        <time>2025-09-13T15:22:27Z</time>
      </trkpt>
      <trkpt lat="47.47728" lon="6.74583">
        <ele>309.7</ele>
        <time>2025-09-13T15:22:28Z</time>
      </trkpt>
      <trkpt lat="47.47728" lon="6.74593">
        <ele>309.7</ele>
        <time>2025-09-13T15:22:29Z</time>
      </trkpt>
      <trkpt lat="47.47728" lon="6.74603">
        <ele>309.7</ele>
        <time>2025-09-13T15:22:30Z</time>
      </trkpt>
      <trkpt lat="47.47728" lon="6.74614">
        <ele>309.7</ele>
        <time>2025-09-13T15:22:31Z</time>
      </trkpt>
      <trkpt lat="47.47729" lon="6.74624">
        <ele>309.7</ele>
        <time>2025-09-13T15:22:32Z</time>
      </trkpt>
      <trkpt lat="47.47729" lon="6.74634">
        <ele>309.7</ele>
        <time>2025-09-13T15:22:33Z</time>
      </trkpt>
      <trkpt lat="47.4773" lon="6.74643">
        <ele>309.7</ele>
        <time>2025-09-13T15:22:34Z</time>
      </trkpt>
      <trkpt lat="47.4773" lon="6.74654">
        <ele>309.7</ele>
        <time>2025-09-13T15:22:35Z</time>
      </trkpt>
      <trkpt lat="47.4773" lon="6.74663">
        <ele>309.7</ele>
        <time>2025-09-13T15:22:36Z</time>
      </trkpt>
      <trkpt lat="47.4773" lon="6.74674">
        <ele>309.7</ele>
        <time>2025-09-13T15:22:37Z</time>
      </trkpt>
      <trkpt lat="47.47729" lon="6.74684">
        <ele>309.7</ele>
        <time>2025-09-13T15:22:38Z</time>
      </trkpt>
      <trkpt lat="47.4773" lon="6.74694">
        <ele>309.7</ele>
        <time>2025-09-13T15:22:39Z</time>
      </trkpt>
      <trkpt lat="47.47729" lon="6.74704">
        <ele>309.7</ele>
        <time>2025-09-13T15:22:40Z</time>
      </trkpt>
      <trkpt lat="47.47729" lon="6.74714">
        <ele>309.7</ele>
        <time>2025-09-13T15:22:41Z</time>
      </trkpt>
      <trkpt lat="47.47728" lon="6.74725">
        <ele>309.7</ele>
        <time>2025-09-13T15:22:42Z</time>
      </trkpt>
      <trkpt lat="47.47728" lon="6.74735">
        <ele>309.7</ele>
        <time>2025-09-13T15:22:43Z</time>
      </trkpt>
      <trkpt lat="47.47728" lon="6.74745">
        <ele>309.7</ele>
        <time>2025-09-13T15:22:44Z</time>
      </trkpt>
      <trkpt lat="47.47728" lon="6.74755">
        <ele>309.7</ele>
        <time>2025-09-13T15:22:45Z</time>
      </trkpt>
      <trkpt lat="47.47728" lon="6.74765">
        <ele>309.8</ele>
        <time>2025-09-13T15:22:46Z</time>
      </trkpt>
      <trkpt lat="47.47728" lon="6.74775">
        <ele>309.8</ele>
        <time>2025-09-13T15:22:47Z</time>
      </trkpt>
      <trkpt lat="47.47727" lon="6.74785">
        <ele>309.7</ele>
        <time>2025-09-13T15:22:48Z</time>
      </trkpt>
      <trkpt lat="47.47727" lon="6.74795">
        <ele>309.7</ele>
        <time>2025-09-13T15:22:49Z</time>
      </trkpt>
      <trkpt lat="47.47727" lon="6.74805">
        <ele>309.7</ele>
        <time>2025-09-13T15:22:50Z</time>
      </trkpt>
      <trkpt lat="47.47727" lon="6.74815">
        <ele>309.7</ele>
        <time>2025-09-13T15:22:51Z</time>
      </trkpt>
      <trkpt lat="47.47726" lon="6.74824">
        <ele>309.7</ele>
        <time>2025-09-13T15:22:52Z</time>
      </trkpt>
      <trkpt lat="47.47726" lon="6.74835">
        <ele>309.8</ele>
        <time>2025-09-13T15:22:53Z</time>
      </trkpt>
      <trkpt lat="47.47726" lon="6.74845">
        <ele>309.8</ele>
        <time>2025-09-13T15:22:54Z</time>
      </trkpt>
      <trkpt lat="47.47725" lon="6.74856">
        <ele>309.8</ele>
        <time>2025-09-13T15:22:55Z</time>
      </trkpt>
      <trkpt lat="47.47725" lon="6.74866">
        <ele>309.8</ele>
        <time>2025-09-13T15:22:56Z</time>
      </trkpt>
      <trkpt lat="47.47725" lon="6.74876">
        <ele>309.8</ele>
        <time>2025-09-13T15:22:57Z</time>
      </trkpt>
      <trkpt lat="47.47725" lon="6.74887">
        <ele>309.7</ele>
        <time>2025-09-13T15:22:58Z</time>
      </trkpt>
      <trkpt lat="47.47724" lon="6.74896">
        <ele>309.7</ele>
        <time>2025-09-13T15:22:59Z</time>
      </trkpt>
      <trkpt lat="47.47725" lon="6.74907">
        <ele>309.7</ele>
        <time>2025-09-13T15:23:00Z</time>
      </trkpt>
      <trkpt lat="47.47725" lon="6.74917">
        <ele>309.7</ele>
        <time>2025-09-13T15:23:01Z</time>
      </trkpt>
      <trkpt lat="47.47725" lon="6.74927">
        <ele>309.6</ele>
        <time>2025-09-13T15:23:02Z</time>
      </trkpt>
      <trkpt lat="47.47725" lon="6.74938">
        <ele>309.6</ele>
        <time>2025-09-13T15:23:03Z</time>
      </trkpt>
      <trkpt lat="47.47725" lon="6.74948">
        <ele>309.6</ele>
        <time>2025-09-13T15:23:04Z</time>
      </trkpt>
      <trkpt lat="47.47725" lon="6.74959">
        <ele>309.6</ele>
        <time>2025-09-13T15:23:05Z</time>
      </trkpt>
      <trkpt lat="47.47725" lon="6.7497">
        <ele>309.6</ele>
        <time>2025-09-13T15:23:06Z</time>
      </trkpt>
      <trkpt lat="47.47724" lon="6.7498">
        <ele>309.6</ele>
        <time>2025-09-13T15:23:07Z</time>
      </trkpt>
      <trkpt lat="47.47723" lon="6.7499">
        <ele>309.6</ele>
        <time>2025-09-13T15:23:08Z</time>
      </trkpt>
      <trkpt lat="47.47722" lon="6.74999">
        <ele>309.6</ele>
        <time>2025-09-13T15:23:09Z</time>
      </trkpt>
      <trkpt lat="47.47721" lon="6.7501">
        <ele>309.6</ele>
        <time>2025-09-13T15:23:10Z</time>
      </trkpt>
      <trkpt lat="47.4772" lon="6.75018">
        <ele>309.6</ele>
        <time>2025-09-13T15:23:11Z</time>
      </trkpt>
      <trkpt lat="47.47719" lon="6.75027">
        <ele>309.6</ele>
        <time>2025-09-13T15:23:12Z</time>
      </trkpt>
      <trkpt lat="47.47719" lon="6.75037">
        <ele>309.7</ele>
        <time>2025-09-13T15:23:13Z</time>
      </trkpt>
      <trkpt lat="47.47719" lon="6.75047">
        <ele>309.7</ele>
        <time>2025-09-13T15:23:14Z</time>
      </trkpt>
      <trkpt lat="47.47719" lon="6.75058">
        <ele>309.7</ele>
        <time>2025-09-13T15:23:15Z</time>
      </trkpt>
      <trkpt lat="47.47719" lon="6.75067">
        <ele>309.7</ele>
        <time>2025-09-13T15:23:16Z</time>
      </trkpt>
      <trkpt lat="47.47719" lon="6.75076">
        <ele>309.7</ele>
        <time>2025-09-13T15:23:17Z</time>
      </trkpt>
      <trkpt lat="47.47718" lon="6.75084">
        <ele>309.7</ele>
        <time>2025-09-13T15:23:18Z</time>
      </trkpt>
      <trkpt lat="47.47718" lon="6.75094">
        <ele>309.7</ele>
        <time>2025-09-13T15:23:19Z</time>
      </trkpt>
      <trkpt lat="47.47718" lon="6.75106">
        <ele>309.7</ele>
        <time>2025-09-13T15:23:20Z</time>
      </trkpt>
      <trkpt lat="47.47717" lon="6.75115">
        <ele>309.7</ele>
        <time>2025-09-13T15:23:21Z</time>
      </trkpt>
      <trkpt lat="47.47717" lon="6.75126">
        <ele>309.8</ele>
        <time>2025-09-13T15:23:22Z</time>
      </trkpt>
      <trkpt lat="47.47717" lon="6.75136">
        <ele>309.8</ele>
        <time>2025-09-13T15:23:23Z</time>
      </trkpt>
      <trkpt lat="47.47716" lon="6.75145">
        <ele>309.8</ele>
        <time>2025-09-13T15:23:24Z</time>
      </trkpt>
      <trkpt lat="47.47716" lon="6.75156">
        <ele>309.9</ele>
        <time>2025-09-13T15:23:25Z</time>
      </trkpt>
      <trkpt lat="47.47715" lon="6.75165">
        <ele>309.9</ele>
        <time>2025-09-13T15:23:26Z</time>
      </trkpt>
      <trkpt lat="47.47715" lon="6.75175">
        <ele>309.9</ele>
        <time>2025-09-13T15:23:27Z</time>
      </trkpt>
      <trkpt lat="47.47714" lon="6.75184">
        <ele>309.9</ele>
        <time>2025-09-13T15:23:28Z</time>
      </trkpt>
      <trkpt lat="47.47714" lon="6.75195">
        <ele>309.9</ele>
        <time>2025-09-13T15:23:29Z</time>
      </trkpt>
      <trkpt lat="47.47714" lon="6.75204">
        <ele>309.9</ele>
        <time>2025-09-13T15:23:30Z</time>
      </trkpt>
      <trkpt lat="47.47715" lon="6.75214">
        <ele>310</ele>
        <time>2025-09-13T15:23:31Z</time>
      </trkpt>
      <trkpt lat="47.47715" lon="6.75223">
        <ele>310</ele>
        <time>2025-09-13T15:23:32Z</time>
      </trkpt>
      <trkpt lat="47.47715" lon="6.75233">
        <ele>310</ele>
        <time>2025-09-13T15:23:33Z</time>
      </trkpt>
      <trkpt lat="47.47715" lon="6.75242">
        <ele>310</ele>
        <time>2025-09-13T15:23:34Z</time>
      </trkpt>
      <trkpt lat="47.47715" lon="6.75252">
        <ele>310</ele>
        <time>2025-09-13T15:23:35Z</time>
      </trkpt>
      <trkpt lat="47.47716" lon="6.75261">
        <ele>310</ele>
        <time>2025-09-13T15:23:36Z</time>
      </trkpt>
      <trkpt lat="47.47717" lon="6.75273">
        <ele>310</ele>
        <time>2025-09-13T15:23:37Z</time>
      </trkpt>
      <trkpt lat="47.47716" lon="6.7528">
        <ele>310</ele>
        <time>2025-09-13T15:23:38Z</time>
      </trkpt>
      <trkpt lat="47.47716" lon="6.7529">
        <ele>310</ele>
        <time>2025-09-13T15:23:39Z</time>
      </trkpt>
      <trkpt lat="47.47714" lon="6.75299">
        <ele>309.9</ele>
        <time>2025-09-13T15:23:40Z</time>
      </trkpt>
      <trkpt lat="47.47713" lon="6.75309">
        <ele>309.9</ele>
        <time>2025-09-13T15:23:41Z</time>
      </trkpt>
      <trkpt lat="47.47713" lon="6.75319">
        <ele>309.8</ele>
        <time>2025-09-13T15:23:42Z</time>
      </trkpt>
      <trkpt lat="47.47713" lon="6.75329">
        <ele>309.7</ele>
        <time>2025-09-13T15:23:43Z</time>
      </trkpt>
      <trkpt lat="47.47713" lon="6.75339">
        <ele>309.7</ele>
        <time>2025-09-13T15:23:44Z</time>
      </trkpt>
      <trkpt lat="47.47712" lon="6.75348">
        <ele>309.7</ele>
        <time>2025-09-13T15:23:45Z</time>
      </trkpt>
      <trkpt lat="47.47712" lon="6.75359">
        <ele>309.6</ele>
        <time>2025-09-13T15:23:46Z</time>
      </trkpt>
      <trkpt lat="47.47711" lon="6.75369">
        <ele>309.6</ele>
        <time>2025-09-13T15:23:47Z</time>
      </trkpt>
      <trkpt lat="47.4771" lon="6.75378">
        <ele>309.6</ele>
        <time>2025-09-13T15:23:48Z</time>
      </trkpt>
      <trkpt lat="47.47709" lon="6.75389">
        <ele>309.6</ele>
        <time>2025-09-13T15:23:49Z</time>
      </trkpt>
      <trkpt lat="47.47709" lon="6.75399">
        <ele>309.6</ele>
        <time>2025-09-13T15:23:50Z</time>
      </trkpt>
      <trkpt lat="47.47709" lon="6.7541">
        <ele>309.6</ele>
        <time>2025-09-13T15:23:51Z</time>
      </trkpt>
      <trkpt lat="47.47708" lon="6.75419">
        <ele>309.6</ele>
        <time>2025-09-13T15:23:52Z</time>
      </trkpt>
      <trkpt lat="47.47708" lon="6.75429">
        <ele>309.6</ele>
        <time>2025-09-13T15:23:53Z</time>
      </trkpt>
      <trkpt lat="47.47707" lon="6.75439">
        <ele>309.6</ele>
        <time>2025-09-13T15:23:54Z</time>
      </trkpt>
      <trkpt lat="47.47707" lon="6.75449">
        <ele>309.7</ele>
        <time>2025-09-13T15:23:55Z</time>
      </trkpt>
      <trkpt lat="47.47706" lon="6.75459">
        <ele>309.7</ele>
        <time>2025-09-13T15:23:56Z</time>
      </trkpt>
      <trkpt lat="47.47706" lon="6.75468">
        <ele>309.7</ele>
        <time>2025-09-13T15:23:57Z</time>
      </trkpt>
      <trkpt lat="47.47706" lon="6.75479">
        <ele>309.7</ele>
        <time>2025-09-13T15:23:58Z</time>
      </trkpt>
      <trkpt lat="47.47707" lon="6.75489">
        <ele>309.7</ele>
        <time>2025-09-13T15:23:59Z</time>
      </trkpt>
      <trkpt lat="47.47707" lon="6.75499">
        <ele>309.7</ele>
        <time>2025-09-13T15:24:00Z</time>
      </trkpt>
      <trkpt lat="47.47706" lon="6.75507">
        <ele>309.7</ele>
        <time>2025-09-13T15:24:01Z</time>
      </trkpt>
      <trkpt lat="47.47705" lon="6.75517">
        <ele>309.7</ele>
        <time>2025-09-13T15:24:02Z</time>
      </trkpt>
      <trkpt lat="47.47704" lon="6.75527">
        <ele>309.7</ele>
        <time>2025-09-13T15:24:03Z</time>
      </trkpt>
      <trkpt lat="47.47705" lon="6.75536">
        <ele>309.8</ele>
        <time>2025-09-13T15:24:04Z</time>
      </trkpt>
      <trkpt lat="47.47704" lon="6.75546">
        <ele>309.8</ele>
        <time>2025-09-13T15:24:05Z</time>
      </trkpt>
      <trkpt lat="47.47704" lon="6.75556">
        <ele>309.8</ele>
        <time>2025-09-13T15:24:06Z</time>
      </trkpt>
      <trkpt lat="47.47705" lon="6.75567">
        <ele>309.8</ele>
        <time>2025-09-13T15:24:07Z</time>
      </trkpt>
      <trkpt lat="47.47704" lon="6.75577">
        <ele>309.8</ele>
        <time>2025-09-13T15:24:08Z</time>
      </trkpt>
      <trkpt lat="47.47705" lon="6.75586">
        <ele>309.8</ele>
        <time>2025-09-13T15:24:09Z</time>
      </trkpt>
      <trkpt lat="47.47704" lon="6.75596">
        <ele>309.8</ele>
        <time>2025-09-13T15:24:10Z</time>
      </trkpt>
      <trkpt lat="47.47704" lon="6.75605">
        <ele>309.9</ele>
        <time>2025-09-13T15:24:11Z</time>
      </trkpt>
      <trkpt lat="47.47704" lon="6.75615">
        <ele>309.9</ele>
        <time>2025-09-13T15:24:12Z</time>
      </trkpt>
      <trkpt lat="47.47703" lon="6.75626">
        <ele>309.9</ele>
        <time>2025-09-13T15:24:13Z</time>
      </trkpt>
      <trkpt lat="47.47703" lon="6.75636">
        <ele>310</ele>
        <time>2025-09-13T15:24:14Z</time>
      </trkpt>
      <trkpt lat="47.47703" lon="6.75646">
        <ele>310.1</ele>
        <time>2025-09-13T15:24:15Z</time>
      </trkpt>
      <trkpt lat="47.47702" lon="6.75656">
        <ele>310.2</ele>
        <time>2025-09-13T15:24:16Z</time>
      </trkpt>
      <trkpt lat="47.47703" lon="6.75665">
        <ele>310.3</ele>
        <time>2025-09-13T15:24:17Z</time>
      </trkpt>
      <trkpt lat="47.47702" lon="6.75675">
        <ele>310.5</ele>
        <time>2025-09-13T15:24:18Z</time>
      </trkpt>
      <trkpt lat="47.47702" lon="6.75684">
        <ele>310.6</ele>
        <time>2025-09-13T15:24:19Z</time>
      </trkpt>
      <trkpt lat="47.47702" lon="6.75692">
        <ele>310.8</ele>
        <time>2025-09-13T15:24:20Z</time>
      </trkpt>
      <trkpt lat="47.47702" lon="6.75701">
        <ele>311</ele>
        <time>2025-09-13T15:24:21Z</time>
      </trkpt>
      <trkpt lat="47.47701" lon="6.75707">
        <ele>311.1</ele>
        <time>2025-09-13T15:24:22Z</time>
      </trkpt>
      <trkpt lat="47.477" lon="6.75713">
        <ele>311.2</ele>
        <time>2025-09-13T15:24:23Z</time>
      </trkpt>
      <trkpt lat="47.477" lon="6.7572">
        <ele>311.3</ele>
        <time>2025-09-13T15:24:24Z</time>
      </trkpt>
      <trkpt lat="47.477" lon="6.75726">
        <ele>311.2</ele>
        <time>2025-09-13T15:24:25Z</time>
      </trkpt>
      <trkpt lat="47.477" lon="6.75729">
        <ele>311.2</ele>
        <time>2025-09-13T15:24:26Z</time>
      </trkpt>
      <trkpt lat="47.47699" lon="6.75735">
        <ele>311.1</ele>
        <time>2025-09-13T15:24:27Z</time>
      </trkpt>
      <trkpt lat="47.477" lon="6.75743">
        <ele>311</ele>
        <time>2025-09-13T15:24:28Z</time>
      </trkpt>
      <trkpt lat="47.47701" lon="6.7575">
        <ele>310.9</ele>
        <time>2025-09-13T15:24:29Z</time>
      </trkpt>
      <trkpt lat="47.477" lon="6.75758">
        <ele>310.9</ele>
        <time>2025-09-13T15:24:30Z</time>
      </trkpt>
      <trkpt lat="47.477" lon="6.75766">
        <ele>310.8</ele>
        <time>2025-09-13T15:24:31Z</time>
      </trkpt>
      <trkpt lat="47.477" lon="6.75774">
        <ele>310.8</ele>
        <time>2025-09-13T15:24:32Z</time>
      </trkpt>
      <trkpt lat="47.477" lon="6.75784">
        <ele>310.8</ele>
        <time>2025-09-13T15:24:33Z</time>
      </trkpt>
      <trkpt lat="47.47699" lon="6.75792">
        <ele>310.8</ele>
        <time>2025-09-13T15:24:34Z</time>
      </trkpt>
      <trkpt lat="47.47698" lon="6.75802">
        <ele>310.8</ele>
        <time>2025-09-13T15:24:35Z</time>
      </trkpt>
      <trkpt lat="47.47698" lon="6.75811">
        <ele>310.9</ele>
        <time>2025-09-13T15:24:36Z</time>
      </trkpt>
      <trkpt lat="47.47696" lon="6.75822">
        <ele>311</ele>
        <time>2025-09-13T15:24:37Z</time>
      </trkpt>
      <trkpt lat="47.47696" lon="6.7583">
        <ele>311</ele>
        <time>2025-09-13T15:24:38Z</time>
      </trkpt>
      <trkpt lat="47.47696" lon="6.75839">
        <ele>311.1</ele>
        <time>2025-09-13T15:24:39Z</time>
      </trkpt>
      <trkpt lat="47.47695" lon="6.75848">
        <ele>311.1</ele>
        <time>2025-09-13T15:24:40Z</time>
      </trkpt>
      <trkpt lat="47.47696" lon="6.75857">
        <ele>311.1</ele>
        <time>2025-09-13T15:24:41Z</time>
      </trkpt>
      <trkpt lat="47.47695" lon="6.75865">
        <ele>311.2</ele>
        <time>2025-09-13T15:24:42Z</time>
      </trkpt>
      <trkpt lat="47.47695" lon="6.75875">
        <ele>311.2</ele>
        <time>2025-09-13T15:24:43Z</time>
      </trkpt>
      <trkpt lat="47.47695" lon="6.75885">
        <ele>311.2</ele>
        <time>2025-09-13T15:24:44Z</time>
      </trkpt>
      <trkpt lat="47.47695" lon="6.75893">
        <ele>311.2</ele>
        <time>2025-09-13T15:24:45Z</time>
      </trkpt>
      <trkpt lat="47.47695" lon="6.75901">
        <ele>311.3</ele>
        <time>2025-09-13T15:24:46Z</time>
      </trkpt>
      <trkpt lat="47.47695" lon="6.75911">
        <ele>311.3</ele>
        <time>2025-09-13T15:24:47Z</time>
      </trkpt>
      <trkpt lat="47.47694" lon="6.75921">
        <ele>311.4</ele>
        <time>2025-09-13T15:24:48Z</time>
      </trkpt>
      <trkpt lat="47.47694" lon="6.75929">
        <ele>311.5</ele>
        <time>2025-09-13T15:24:49Z</time>
      </trkpt>
      <trkpt lat="47.47692" lon="6.75937">
        <ele>311.5</ele>
        <time>2025-09-13T15:24:50Z</time>
      </trkpt>
      <trkpt lat="47.47689" lon="6.75945">
        <ele>311.6</ele>
        <time>2025-09-13T15:24:51Z</time>
      </trkpt>
      <trkpt lat="47.47686" lon="6.75953">
        <ele>311.7</ele>
        <time>2025-09-13T15:24:52Z</time>
      </trkpt>
      <trkpt lat="47.47683" lon="6.7596">
        <ele>311.8</ele>
        <time>2025-09-13T15:24:53Z</time>
      </trkpt>
      <trkpt lat="47.4768" lon="6.75967">
        <ele>311.8</ele>
        <time>2025-09-13T15:24:54Z</time>
      </trkpt>
      <trkpt lat="47.47678" lon="6.75973">
        <ele>311.8</ele>
        <time>2025-09-13T15:24:55Z</time>
      </trkpt>
      <trkpt lat="47.47674" lon="6.75981">
        <ele>311.9</ele>
        <time>2025-09-13T15:24:56Z</time>
      </trkpt>
      <trkpt lat="47.47671" lon="6.75987">
        <ele>311.9</ele>
        <time>2025-09-13T15:24:57Z</time>
      </trkpt>
      <trkpt lat="47.47668" lon="6.75996">
        <ele>311.9</ele>
        <time>2025-09-13T15:24:58Z</time>
      </trkpt>
      <trkpt lat="47.47666" lon="6.76004">
        <ele>311.9</ele>
        <time>2025-09-13T15:24:59Z</time>
      </trkpt>
      <trkpt lat="47.47665" lon="6.76013">
        <ele>311.9</ele>
        <time>2025-09-13T15:25:00Z</time>
      </trkpt>
      <trkpt lat="47.47664" lon="6.76022">
        <ele>311.9</ele>
        <time>2025-09-13T15:25:01Z</time>
      </trkpt>
      <trkpt lat="47.47664" lon="6.76032">
        <ele>311.9</ele>
        <time>2025-09-13T15:25:02Z</time>
      </trkpt>
      <trkpt lat="47.47664" lon="6.76042">
        <ele>312</ele>
        <time>2025-09-13T15:25:03Z</time>
      </trkpt>
      <trkpt lat="47.47665" lon="6.76051">
        <ele>312</ele>
        <time>2025-09-13T15:25:04Z</time>
      </trkpt>
      <trkpt lat="47.47667" lon="6.7606">
        <ele>312</ele>
        <time>2025-09-13T15:25:05Z</time>
      </trkpt>
      <trkpt lat="47.47671" lon="6.76069">
        <ele>312.1</ele>
        <time>2025-09-13T15:25:06Z</time>
      </trkpt>
      <trkpt lat="47.47674" lon="6.76078">
        <ele>312.1</ele>
        <time>2025-09-13T15:25:07Z</time>
      </trkpt>
      <trkpt lat="47.47678" lon="6.76086">
        <ele>312.1</ele>
        <time>2025-09-13T15:25:09Z</time>
      </trkpt>
      <trkpt lat="47.47683" lon="6.76093">
        <ele>312.1</ele>
        <time>2025-09-13T15:25:10Z</time>
      </trkpt>
      <trkpt lat="47.47687" lon="6.76099">
        <ele>312.1</ele>
        <time>2025-09-13T15:25:11Z</time>
      </trkpt>
      <trkpt lat="47.47692" lon="6.76106">
        <ele>312.2</ele>
        <time>2025-09-13T15:25:12Z</time>
      </trkpt>
      <trkpt lat="47.47697" lon="6.76111">
        <ele>312.2</ele>
        <time>2025-09-13T15:25:13Z</time>
      </trkpt>
      <trkpt lat="47.477" lon="6.76117">
        <ele>312.2</ele>
        <time>2025-09-13T15:25:14Z</time>
      </trkpt>
      <trkpt lat="47.47705" lon="6.76122">
        <ele>312.2</ele>
        <time>2025-09-13T15:25:15Z</time>
      </trkpt>
      <trkpt lat="47.47708" lon="6.76129">
        <ele>312.2</ele>
        <time>2025-09-13T15:25:16Z</time>
      </trkpt>
      <trkpt lat="47.47711" lon="6.76137">
        <ele>312.2</ele>
        <time>2025-09-13T15:25:17Z</time>
      </trkpt>
      <trkpt lat="47.47715" lon="6.76143">
        <ele>312.2</ele>
        <time>2025-09-13T15:25:18Z</time>
      </trkpt>
      <trkpt lat="47.4772" lon="6.76151">
        <ele>312.2</ele>
        <time>2025-09-13T15:25:19Z</time>
      </trkpt>
      <trkpt lat="47.47725" lon="6.76157">
        <ele>312.2</ele>
        <time>2025-09-13T15:25:20Z</time>
      </trkpt>
      <trkpt lat="47.47729" lon="6.76163">
        <ele>312.2</ele>
        <time>2025-09-13T15:25:21Z</time>
      </trkpt>
      <trkpt lat="47.47734" lon="6.7617">
        <ele>312.2</ele>
        <time>2025-09-13T15:25:22Z</time>
      </trkpt>
      <trkpt lat="47.47738" lon="6.76177">
        <ele>312.2</ele>
        <time>2025-09-13T15:25:23Z</time>
      </trkpt>
      <trkpt lat="47.47747" lon="6.76191">
        <ele>312.2</ele>
        <time>2025-09-13T15:25:24Z</time>
      </trkpt>
      <trkpt lat="47.47752" lon="6.76198">
        <ele>312.2</ele>
        <time>2025-09-13T15:25:25Z</time>
      </trkpt>
      <trkpt lat="47.47756" lon="6.76205">
        <ele>312.2</ele>
        <time>2025-09-13T15:25:26Z</time>
      </trkpt>
      <trkpt lat="47.47761" lon="6.76212">
        <ele>312.2</ele>
        <time>2025-09-13T15:25:27Z</time>
      </trkpt>
      <trkpt lat="47.47765" lon="6.76219">
        <ele>312.1</ele>
        <time>2025-09-13T15:25:28Z</time>
      </trkpt>
      <trkpt lat="47.4777" lon="6.76227">
        <ele>312.1</ele>
        <time>2025-09-13T15:25:29Z</time>
      </trkpt>
      <trkpt lat="47.47775" lon="6.76234">
        <ele>312.1</ele>
        <time>2025-09-13T15:25:30Z</time>
      </trkpt>
      <trkpt lat="47.4778" lon="6.76242">
        <ele>312.1</ele>
        <time>2025-09-13T15:25:31Z</time>
      </trkpt>
      <trkpt lat="47.47786" lon="6.76248">
        <ele>312</ele>
        <time>2025-09-13T15:25:32Z</time>
      </trkpt>
      <trkpt lat="47.47791" lon="6.76254">
        <ele>312</ele>
        <time>2025-09-13T15:25:33Z</time>
      </trkpt>
      <trkpt lat="47.47797" lon="6.76258">
        <ele>312</ele>
        <time>2025-09-13T15:25:34Z</time>
      </trkpt>
      <trkpt lat="47.47804" lon="6.7626">
        <ele>311.9</ele>
        <time>2025-09-13T15:25:35Z</time>
      </trkpt>
      <trkpt lat="47.4781" lon="6.76263">
        <ele>311.9</ele>
        <time>2025-09-13T15:25:36Z</time>
      </trkpt>
      <trkpt lat="47.47817" lon="6.76265">
        <ele>311.8</ele>
        <time>2025-09-13T15:25:37Z</time>
      </trkpt>
      <trkpt lat="47.47823" lon="6.76268">
        <ele>311.8</ele>
        <time>2025-09-13T15:25:38Z</time>
      </trkpt>
      <trkpt lat="47.47829" lon="6.76273">
        <ele>311.7</ele>
        <time>2025-09-13T15:25:39Z</time>
      </trkpt>
      <trkpt lat="47.47835" lon="6.76277">
        <ele>311.7</ele>
        <time>2025-09-13T15:25:40Z</time>
      </trkpt>
      <trkpt lat="47.47839" lon="6.76282">
        <ele>311.7</ele>
        <time>2025-09-13T15:25:41Z</time>
      </trkpt>
      <trkpt lat="47.47843" lon="6.76288">
        <ele>311.7</ele>
        <time>2025-09-13T15:25:42Z</time>
      </trkpt>
      <trkpt lat="47.47847" lon="6.76295">
        <ele>311.7</ele>
        <time>2025-09-13T15:25:43Z</time>
      </trkpt>
      <trkpt lat="47.47851" lon="6.76301">
        <ele>311.7</ele>
        <time>2025-09-13T15:25:44Z</time>
      </trkpt>
      <trkpt lat="47.47854" lon="6.76308">
        <ele>311.7</ele>
        <time>2025-09-13T15:25:45Z</time>
      </trkpt>
      <trkpt lat="47.47858" lon="6.76313">
        <ele>311.7</ele>
        <time>2025-09-13T15:25:46Z</time>
      </trkpt>
      <trkpt lat="47.47862" lon="6.76319">
        <ele>311.7</ele>
        <time>2025-09-13T15:25:47Z</time>
      </trkpt>
      <trkpt lat="47.47865" lon="6.76325">
        <ele>311.7</ele>
        <time>2025-09-13T15:25:48Z</time>
      </trkpt>
      <trkpt lat="47.47868" lon="6.76331">
        <ele>311.7</ele>
        <time>2025-09-13T15:25:49Z</time>
      </trkpt>
      <trkpt lat="47.47871" lon="6.76337">
        <ele>311.7</ele>
        <time>2025-09-13T15:25:50Z</time>
      </trkpt>
      <trkpt lat="47.47874" lon="6.76343">
        <ele>311.7</ele>
        <time>2025-09-13T15:25:51Z</time>
      </trkpt>
      <trkpt lat="47.47877" lon="6.76349">
        <ele>311.7</ele>
        <time>2025-09-13T15:25:52Z</time>
      </trkpt>
      <trkpt lat="47.4788" lon="6.76354">
        <ele>311.7</ele>
        <time>2025-09-13T15:25:53Z</time>
      </trkpt>
      <trkpt lat="47.47882" lon="6.7636">
        <ele>311.7</ele>
        <time>2025-09-13T15:25:54Z</time>
      </trkpt>
      <trkpt lat="47.47885" lon="6.76365">
        <ele>311.7</ele>
        <time>2025-09-13T15:25:55Z</time>
      </trkpt>
      <trkpt lat="47.47888" lon="6.76371">
        <ele>311.7</ele>
        <time>2025-09-13T15:25:56Z</time>
      </trkpt>
      <trkpt lat="47.4789" lon="6.76376">
        <ele>311.7</ele>
        <time>2025-09-13T15:25:57Z</time>
      </trkpt>
      <trkpt lat="47.47892" lon="6.76383">
        <ele>311.7</ele>
        <time>2025-09-13T15:25:58Z</time>
      </trkpt>
      <trkpt lat="47.47895" lon="6.76388">
        <ele>311.7</ele>
        <time>2025-09-13T15:25:59Z</time>
      </trkpt>
      <trkpt lat="47.47897" lon="6.76392">
        <ele>311.8</ele>
        <time>2025-09-13T15:26:00Z</time>
      </trkpt>
      <trkpt lat="47.479" lon="6.76398">
        <ele>311.8</ele>
        <time>2025-09-13T15:26:01Z</time>
      </trkpt>
      <trkpt lat="47.47902" lon="6.76402">
        <ele>311.8</ele>
        <time>2025-09-13T15:26:02Z</time>
      </trkpt>
      <trkpt lat="47.47904" lon="6.76407">
        <ele>311.8</ele>
        <time>2025-09-13T15:26:03Z</time>
      </trkpt>
      <trkpt lat="47.47906" lon="6.76412">
        <ele>311.8</ele>
        <time>2025-09-13T15:26:04Z</time>
      </trkpt>
      <trkpt lat="47.47908" lon="6.76416">
        <ele>311.8</ele>
        <time>2025-09-13T15:26:05Z</time>
      </trkpt>
      <trkpt lat="47.4791" lon="6.76421">
        <ele>311.8</ele>
        <time>2025-09-13T15:26:06Z</time>
      </trkpt>
      <trkpt lat="47.47911" lon="6.76426">
        <ele>311.8</ele>
        <time>2025-09-13T15:26:07Z</time>
      </trkpt>
      <trkpt lat="47.47913" lon="6.7643">
        <ele>311.9</ele>
        <time>2025-09-13T15:26:08Z</time>
      </trkpt>
      <trkpt lat="47.47913" lon="6.76432">
        <ele>311.9</ele>
        <time>2025-09-13T15:26:09Z</time>
      </trkpt>
      <trkpt lat="47.47913" lon="6.76433">
        <ele>311.9</ele>
        <time>2025-09-13T15:26:10Z</time>
      </trkpt>
      <trkpt lat="47.47913" lon="6.76433">
        <ele>311.9</ele>
        <time>2025-09-13T15:26:11Z</time>
      </trkpt>
      <trkpt lat="47.47913" lon="6.76434">
        <ele>311.9</ele>
        <time>2025-09-13T15:26:12Z</time>
      </trkpt>
      <trkpt lat="47.47914" lon="6.76434">
        <ele>311.9</ele>
        <time>2025-09-13T15:26:13Z</time>
      </trkpt>
      <trkpt lat="47.47914" lon="6.76434">
        <ele>311.9</ele>
        <time>2025-09-13T15:26:14Z</time>
      </trkpt>
      <trkpt lat="47.47914" lon="6.76435">
        <ele>311.9</ele>
        <time>2025-09-13T15:26:15Z</time>
      </trkpt>
      <trkpt lat="47.47914" lon="6.76435">
        <ele>311.9</ele>
        <time>2025-09-13T15:26:16Z</time>
      </trkpt>
      <trkpt lat="47.47915" lon="6.76436">
        <ele>311.9</ele>
        <time>2025-09-13T15:26:17Z</time>
      </trkpt>
      <trkpt lat="47.47915" lon="6.76436">
        <ele>311.9</ele>
        <time>2025-09-13T15:26:18Z</time>
      </trkpt>
      <trkpt lat="47.47915" lon="6.76436">
        <ele>311.9</ele>
        <time>2025-09-13T15:26:19Z</time>
      </trkpt>
      <trkpt lat="47.47915" lon="6.76437">
        <ele>311.9</ele>
        <time>2025-09-13T15:26:20Z</time>
      </trkpt>
      <trkpt lat="47.47915" lon="6.76437">
        <ele>311.9</ele>
        <time>2025-09-13T15:26:21Z</time>
      </trkpt>
      <trkpt lat="47.47916" lon="6.76437">
        <ele>311.9</ele>
        <time>2025-09-13T15:26:22Z</time>
      </trkpt>
      <trkpt lat="47.47916" lon="6.76438">
        <ele>311.9</ele>
        <time>2025-09-13T15:26:23Z</time>
      </trkpt>
      <trkpt lat="47.47915" lon="6.76434">
        <ele>311.9</ele>
        <time>2025-09-13T15:26:24Z</time>
      </trkpt>
      <trkpt lat="47.47915" lon="6.76434">
        <ele>311.9</ele>
        <time>2025-09-13T15:26:25Z</time>
      </trkpt>
      <trkpt lat="47.47915" lon="6.76436">
        <ele>311.9</ele>
        <time>2025-09-13T15:26:26Z</time>
      </trkpt>
      <trkpt lat="47.47915" lon="6.76435">
        <ele>311.9</ele>
        <time>2025-09-13T15:26:27Z</time>
      </trkpt>
      <trkpt lat="47.47915" lon="6.76435">
        <ele>311.9</ele>
        <time>2025-09-13T15:26:28Z</time>
      </trkpt>
      <trkpt lat="47.47915" lon="6.76435">
        <ele>311.9</ele>
        <time>2025-09-13T15:26:29Z</time>
      </trkpt>
      <trkpt lat="47.47915" lon="6.76434">
        <ele>311.9</ele>
        <time>2025-09-13T15:26:30Z</time>
      </trkpt>
      <trkpt lat="47.47915" lon="6.76434">
        <ele>311.9</ele>
        <time>2025-09-13T15:26:31Z</time>
      </trkpt>
      <trkpt lat="47.47915" lon="6.76434">
        <ele>311.9</ele>
        <time>2025-09-13T15:26:32Z</time>
      </trkpt>
      <trkpt lat="47.47915" lon="6.76434">
        <ele>311.9</ele>
        <time>2025-09-13T15:26:33Z</time>
      </trkpt>
      <trkpt lat="47.47915" lon="6.76434">
        <ele>311.9</ele>
        <time>2025-09-13T15:26:34Z</time>
      </trkpt>
      <trkpt lat="47.47915" lon="6.76434">
        <ele>311.9</ele>
        <time>2025-09-13T15:26:35Z</time>
      </trkpt>
      <trkpt lat="47.47915" lon="6.76434">
        <ele>311.9</ele>
        <time>2025-09-13T15:26:36Z</time>
      </trkpt>
      <trkpt lat="47.47915" lon="6.76434">
        <ele>311.9</ele>
        <time>2025-09-13T15:26:37Z</time>
      </trkpt>
      <trkpt lat="47.47915" lon="6.76434">
        <ele>311.9</ele>
        <time>2025-09-13T15:26:38Z</time>
      </trkpt>
      <trkpt lat="47.47915" lon="6.76436">
        <ele>311.9</ele>
        <time>2025-09-13T15:26:39Z</time>
      </trkpt>
      <trkpt lat="47.47915" lon="6.76436">
        <ele>311.9</ele>
        <time>2025-09-13T15:26:40Z</time>
      </trkpt>
      <trkpt lat="47.47915" lon="6.76436">
        <ele>311.9</ele>
        <time>2025-09-13T15:26:41Z</time>
      </trkpt>
      <trkpt lat="47.47915" lon="6.76436">
        <ele>311.9</ele>
        <time>2025-09-13T15:26:42Z</time>
      </trkpt>
      <trkpt lat="47.47915" lon="6.76437">
        <ele>311.9</ele>
        <time>2025-09-13T15:26:43Z</time>
      </trkpt>
      <trkpt lat="47.47915" lon="6.76437">
        <ele>311.9</ele>
        <time>2025-09-13T15:26:44Z</time>
      </trkpt>
      <trkpt lat="47.47915" lon="6.76435">
        <ele>311.9</ele>
        <time>2025-09-13T15:26:45Z</time>
      </trkpt>
      <trkpt lat="47.47915" lon="6.76435">
        <ele>311.9</ele>
        <time>2025-09-13T15:26:46Z</time>
      </trkpt>
      <trkpt lat="47.47915" lon="6.76435">
        <ele>311.9</ele>
        <time>2025-09-13T15:26:47Z</time>
      </trkpt>
      <trkpt lat="47.47915" lon="6.76435">
        <ele>311.9</ele>
        <time>2025-09-13T15:26:48Z</time>
      </trkpt>
      <trkpt lat="47.47915" lon="6.76436">
        <ele>311.9</ele>
        <time>2025-09-13T15:26:49Z</time>
      </trkpt>
      <trkpt lat="47.47915" lon="6.76436">
        <ele>311.9</ele>
        <time>2025-09-13T15:26:50Z</time>
      </trkpt>
      <trkpt lat="47.47915" lon="6.76436">
        <ele>311.9</ele>
        <time>2025-09-13T15:26:51Z</time>
      </trkpt>
      <trkpt lat="47.47915" lon="6.76436">
        <ele>311.9</ele>
        <time>2025-09-13T15:26:52Z</time>
      </trkpt>
      <trkpt lat="47.47913" lon="6.76436">
        <ele>312</ele>
        <time>2025-09-13T15:26:53Z</time>
      </trkpt>
      <trkpt lat="47.47913" lon="6.76436">
        <ele>312</ele>
        <time>2025-09-13T15:26:54Z</time>
      </trkpt>
      <trkpt lat="47.47913" lon="6.76436">
        <ele>312</ele>
        <time>2025-09-13T15:26:55Z</time>
      </trkpt>
      <trkpt lat="47.47913" lon="6.76435">
        <ele>312</ele>
        <time>2025-09-13T15:26:56Z</time>
      </trkpt>
      <trkpt lat="47.47913" lon="6.76436">
        <ele>312</ele>
        <time>2025-09-13T15:26:57Z</time>
      </trkpt>
      <trkpt lat="47.47913" lon="6.76435">
        <ele>312</ele>
        <time>2025-09-13T15:26:58Z</time>
      </trkpt>
      <trkpt lat="47.47913" lon="6.76434">
        <ele>312</ele>
        <time>2025-09-13T15:26:59Z</time>
      </trkpt>
      <trkpt lat="47.47913" lon="6.76435">
        <ele>312</ele>
        <time>2025-09-13T15:27:00Z</time>
      </trkpt>
      <trkpt lat="47.47913" lon="6.76434">
        <ele>312</ele>
        <time>2025-09-13T15:27:01Z</time>
      </trkpt>
      <trkpt lat="47.47913" lon="6.76434">
        <ele>312</ele>
        <time>2025-09-13T15:27:02Z</time>
      </trkpt>
      <trkpt lat="47.47913" lon="6.76434">
        <ele>312</ele>
        <time>2025-09-13T15:27:03Z</time>
      </trkpt>
      <trkpt lat="47.47913" lon="6.76434">
        <ele>312</ele>
        <time>2025-09-13T15:27:04Z</time>
      </trkpt>
      <trkpt lat="47.47913" lon="6.76434">
        <ele>312</ele>
        <time>2025-09-13T15:27:05Z</time>
      </trkpt>
      <trkpt lat="47.47913" lon="6.76434">
        <ele>312</ele>
        <time>2025-09-13T15:27:06Z</time>
      </trkpt>
      <trkpt lat="47.47913" lon="6.76434">
        <ele>312</ele>
        <time>2025-09-13T15:27:07Z</time>
      </trkpt>
      <trkpt lat="47.47913" lon="6.76433">
        <ele>312</ele>
        <time>2025-09-13T15:27:08Z</time>
      </trkpt>
      <trkpt lat="47.47913" lon="6.76433">
        <ele>312</ele>
        <time>2025-09-13T15:27:09Z</time>
      </trkpt>
      <trkpt lat="47.47913" lon="6.76433">
        <ele>312</ele>
        <time>2025-09-13T15:27:10Z</time>
      </trkpt>
      <trkpt lat="47.47913" lon="6.76433">
        <ele>312</ele>
        <time>2025-09-13T15:27:11Z</time>
      </trkpt>
      <trkpt lat="47.47913" lon="6.76433">
        <ele>312</ele>
        <time>2025-09-13T15:27:12Z</time>
      </trkpt>
      <trkpt lat="47.47913" lon="6.76433">
        <ele>312</ele>
        <time>2025-09-13T15:27:13Z</time>
      </trkpt>
      <trkpt lat="47.47913" lon="6.76433">
        <ele>312</ele>
        <time>2025-09-13T15:27:14Z</time>
      </trkpt>
      <trkpt lat="47.47913" lon="6.76433">
        <ele>312</ele>
        <time>2025-09-13T15:27:15Z</time>
      </trkpt>
      <trkpt lat="47.47913" lon="6.76433">
        <ele>312</ele>
        <time>2025-09-13T15:27:16Z</time>
      </trkpt>
      <trkpt lat="47.47913" lon="6.76433">
        <ele>312</ele>
        <time>2025-09-13T15:27:17Z</time>
      </trkpt>
      <trkpt lat="47.47913" lon="6.76433">
        <ele>312</ele>
        <time>2025-09-13T15:27:18Z</time>
      </trkpt>
      <trkpt lat="47.47912" lon="6.76433">
        <ele>312</ele>
        <time>2025-09-13T15:27:19Z</time>
      </trkpt>
      <trkpt lat="47.47912" lon="6.76433">
        <ele>312</ele>
        <time>2025-09-13T15:27:20Z</time>
      </trkpt>
      <trkpt lat="47.47912" lon="6.76433">
        <ele>312</ele>
        <time>2025-09-13T15:27:21Z</time>
      </trkpt>
      <trkpt lat="47.47912" lon="6.76434">
        <ele>312</ele>
        <time>2025-09-13T15:27:22Z</time>
      </trkpt>
      <trkpt lat="47.47912" lon="6.76434">
        <ele>312</ele>
        <time>2025-09-13T15:27:23Z</time>
      </trkpt>
      <trkpt lat="47.47913" lon="6.76438">
        <ele>312</ele>
        <time>2025-09-13T15:27:24Z</time>
      </trkpt>
      <trkpt lat="47.47914" lon="6.76443">
        <ele>312</ele>
        <time>2025-09-13T15:27:25Z</time>
      </trkpt>
      <trkpt lat="47.47914" lon="6.76445">
        <ele>312</ele>
        <time>2025-09-13T15:27:26Z</time>
      </trkpt>
      <trkpt lat="47.47915" lon="6.7645">
        <ele>312</ele>
        <time>2025-09-13T15:27:27Z</time>
      </trkpt>
      <trkpt lat="47.47917" lon="6.76456">
        <ele>312</ele>
        <time>2025-09-13T15:27:28Z</time>
      </trkpt>
      <trkpt lat="47.47918" lon="6.76462">
        <ele>312</ele>
        <time>2025-09-13T15:27:29Z</time>
      </trkpt>
      <trkpt lat="47.4792" lon="6.76468">
        <ele>312.1</ele>
        <time>2025-09-13T15:27:30Z</time>
      </trkpt>
      <trkpt lat="47.47922" lon="6.76475">
        <ele>312.1</ele>
        <time>2025-09-13T15:27:31Z</time>
      </trkpt>
      <trkpt lat="47.47923" lon="6.76481">
        <ele>312.1</ele>
        <time>2025-09-13T15:27:32Z</time>
      </trkpt>
      <trkpt lat="47.47925" lon="6.76487">
        <ele>312.1</ele>
        <time>2025-09-13T15:27:33Z</time>
      </trkpt>
      <trkpt lat="47.47927" lon="6.76494">
        <ele>312.1</ele>
        <time>2025-09-13T15:27:34Z</time>
      </trkpt>
      <trkpt lat="47.4793" lon="6.76502">
        <ele>312.1</ele>
        <time>2025-09-13T15:27:35Z</time>
      </trkpt>
      <trkpt lat="47.47931" lon="6.76509">
        <ele>312.1</ele>
        <time>2025-09-13T15:27:36Z</time>
      </trkpt>
      <trkpt lat="47.47933" lon="6.76518">
        <ele>312.1</ele>
        <time>2025-09-13T15:27:37Z</time>
      </trkpt>
      <trkpt lat="47.47935" lon="6.76527">
        <ele>312.1</ele>
        <time>2025-09-13T15:27:38Z</time>
      </trkpt>
      <trkpt lat="47.47937" lon="6.76536">
        <ele>312.1</ele>
        <time>2025-09-13T15:27:39Z</time>
      </trkpt>
      <trkpt lat="47.47939" lon="6.76543">
        <ele>312.1</ele>
        <time>2025-09-13T15:27:40Z</time>
      </trkpt>
      <trkpt lat="47.47941" lon="6.76551">
        <ele>312.1</ele>
        <time>2025-09-13T15:27:41Z</time>
      </trkpt>
      <trkpt lat="47.47944" lon="6.7656">
        <ele>312.1</ele>
        <time>2025-09-13T15:27:42Z</time>
      </trkpt>
      <trkpt lat="47.47946" lon="6.76567">
        <ele>312.1</ele>
        <time>2025-09-13T15:27:43Z</time>
      </trkpt>
      <trkpt lat="47.47948" lon="6.76575">
        <ele>312.2</ele>
        <time>2025-09-13T15:27:44Z</time>
      </trkpt>
      <trkpt lat="47.47949" lon="6.76583">
        <ele>312.2</ele>
        <time>2025-09-13T15:27:45Z</time>
      </trkpt>
      <trkpt lat="47.47952" lon="6.76589">
        <ele>312.2</ele>
        <time>2025-09-13T15:27:46Z</time>
      </trkpt>
      <trkpt lat="47.47954" lon="6.76595">
        <ele>312.1</ele>
        <time>2025-09-13T15:27:47Z</time>
      </trkpt>
      <trkpt lat="47.47957" lon="6.766">
        <ele>312</ele>
        <time>2025-09-13T15:27:48Z</time>
      </trkpt>
      <trkpt lat="47.47962" lon="6.76604">
        <ele>312</ele>
        <time>2025-09-13T15:27:49Z</time>
      </trkpt>
      <trkpt lat="47.47965" lon="6.76608">
        <ele>311.9</ele>
        <time>2025-09-13T15:27:50Z</time>
      </trkpt>
      <trkpt lat="47.47967" lon="6.76614">
        <ele>312</ele>
        <time>2025-09-13T15:27:51Z</time>
      </trkpt>
      <trkpt lat="47.47969" lon="6.7662">
        <ele>312</ele>
        <time>2025-09-13T15:27:52Z</time>
      </trkpt>
      <trkpt lat="47.47971" lon="6.76625">
        <ele>312</ele>
        <time>2025-09-13T15:27:53Z</time>
      </trkpt>
      <trkpt lat="47.47972" lon="6.76633">
        <ele>312</ele>
        <time>2025-09-13T15:27:54Z</time>
      </trkpt>
      <trkpt lat="47.47973" lon="6.76642">
        <ele>312.2</ele>
        <time>2025-09-13T15:27:55Z</time>
      </trkpt>
      <trkpt lat="47.47974" lon="6.76649">
        <ele>312.3</ele>
        <time>2025-09-13T15:27:56Z</time>
      </trkpt>
      <trkpt lat="47.47975" lon="6.76655">
        <ele>312.3</ele>
        <time>2025-09-13T15:27:57Z</time>
      </trkpt>
      <trkpt lat="47.47975" lon="6.7666">
        <ele>312.4</ele>
        <time>2025-09-13T15:27:58Z</time>
      </trkpt>
      <trkpt lat="47.47974" lon="6.76661">
        <ele>312.4</ele>
        <time>2025-09-13T15:27:59Z</time>
      </trkpt>
      <trkpt lat="47.47972" lon="6.76659">
        <ele>312.5</ele>
        <time>2025-09-13T15:28:00Z</time>
      </trkpt>
      <trkpt lat="47.47971" lon="6.76653">
        <ele>312.7</ele>
        <time>2025-09-13T15:28:01Z</time>
      </trkpt>
      <trkpt lat="47.47971" lon="6.76646">
        <ele>312.9</ele>
        <time>2025-09-13T15:28:02Z</time>
      </trkpt>
      <trkpt lat="47.4797" lon="6.7664">
        <ele>313.1</ele>
        <time>2025-09-13T15:28:03Z</time>
      </trkpt>
      <trkpt lat="47.47969" lon="6.76634">
        <ele>313.4</ele>
        <time>2025-09-13T15:28:04Z</time>
      </trkpt>
      <trkpt lat="47.47968" lon="6.7663">
        <ele>313.7</ele>
        <time>2025-09-13T15:28:05Z</time>
      </trkpt>
      <trkpt lat="47.47967" lon="6.76624">
        <ele>313.9</ele>
        <time>2025-09-13T15:28:06Z</time>
      </trkpt>
      <trkpt lat="47.47966" lon="6.76623">
        <ele>314</ele>
        <time>2025-09-13T15:28:07Z</time>
      </trkpt>
      <trkpt lat="47.47966" lon="6.7662">
        <ele>314</ele>
        <time>2025-09-13T15:28:08Z</time>
      </trkpt>
      <trkpt lat="47.47968" lon="6.76618">
        <ele>314</ele>
        <time>2025-09-13T15:28:09Z</time>
      </trkpt>
      <trkpt lat="47.47971" lon="6.76617">
        <ele>314</ele>
        <time>2025-09-13T15:28:10Z</time>
      </trkpt>
      <trkpt lat="47.47976" lon="6.76615">
        <ele>314.1</ele>
        <time>2025-09-13T15:28:11Z</time>
      </trkpt>
      <trkpt lat="47.47978" lon="6.76613">
        <ele>314.1</ele>
        <time>2025-09-13T15:28:12Z</time>
      </trkpt>
      <trkpt lat="47.47983" lon="6.76611">
        <ele>314.2</ele>
        <time>2025-09-13T15:28:13Z</time>
      </trkpt>
      <trkpt lat="47.47983" lon="6.76612">
        <ele>314.2</ele>
        <time>2025-09-13T15:28:14Z</time>
      </trkpt>
      <trkpt lat="47.47985" lon="6.76612">
        <ele>314.2</ele>
        <time>2025-09-13T15:28:15Z</time>
      </trkpt>
      <trkpt lat="47.4799" lon="6.7661">
        <ele>314.2</ele>
        <time>2025-09-13T15:28:16Z</time>
      </trkpt>
      <trkpt lat="47.47991" lon="6.76606">
        <ele>314.2</ele>
        <time>2025-09-13T15:28:17Z</time>
      </trkpt>
      <trkpt lat="47.47995" lon="6.76606">
        <ele>314.2</ele>
        <time>2025-09-13T15:28:18Z</time>
      </trkpt>
      <trkpt lat="47.47998" lon="6.76606">
        <ele>314.2</ele>
        <time>2025-09-13T15:28:19Z</time>
      </trkpt>
      <trkpt lat="47.48" lon="6.76604">
        <ele>314.2</ele>
        <time>2025-09-13T15:28:20Z</time>
      </trkpt>
      <trkpt lat="47.48005" lon="6.766">
        <ele>314.2</ele>
        <time>2025-09-13T15:28:21Z</time>
      </trkpt>
      <trkpt lat="47.48008" lon="6.76596">
        <ele>314.2</ele>
        <time>2025-09-13T15:28:22Z</time>
      </trkpt>
      <trkpt lat="47.48016" lon="6.7659">
        <ele>314.2</ele>
        <time>2025-09-13T15:28:23Z</time>
      </trkpt>
      <trkpt lat="47.48025" lon="6.76583">
        <ele>314.1</ele>
        <time>2025-09-13T15:28:24Z</time>
      </trkpt>
      <trkpt lat="47.48034" lon="6.76575">
        <ele>314.1</ele>
        <time>2025-09-13T15:28:25Z</time>
      </trkpt>
      <trkpt lat="47.4804" lon="6.7657">
        <ele>314.1</ele>
        <time>2025-09-13T15:28:26Z</time>
      </trkpt>
      <trkpt lat="47.48048" lon="6.76564">
        <ele>314.1</ele>
        <time>2025-09-13T15:28:27Z</time>
      </trkpt>
      <trkpt lat="47.48052" lon="6.76561">
        <ele>314.1</ele>
        <time>2025-09-13T15:28:28Z</time>
      </trkpt>
      <trkpt lat="47.48055" lon="6.76557">
        <ele>314</ele>
        <time>2025-09-13T15:28:29Z</time>
      </trkpt>
      <trkpt lat="47.48059" lon="6.76552">
        <ele>314</ele>
        <time>2025-09-13T15:28:30Z</time>
      </trkpt>
      <trkpt lat="47.48066" lon="6.76546">
        <ele>313.9</ele>
        <time>2025-09-13T15:28:31Z</time>
      </trkpt>
      <trkpt lat="47.48072" lon="6.76541">
        <ele>313.9</ele>
        <time>2025-09-13T15:28:32Z</time>
      </trkpt>
      <trkpt lat="47.48077" lon="6.76537">
        <ele>313.9</ele>
        <time>2025-09-13T15:28:33Z</time>
      </trkpt>
      <trkpt lat="47.48082" lon="6.76533">
        <ele>313.9</ele>
        <time>2025-09-13T15:28:34Z</time>
      </trkpt>
      <trkpt lat="47.48087" lon="6.76528">
        <ele>313.8</ele>
        <time>2025-09-13T15:28:35Z</time>
      </trkpt>
      <trkpt lat="47.48092" lon="6.76522">
        <ele>313.8</ele>
        <time>2025-09-13T15:28:36Z</time>
      </trkpt>
      <trkpt lat="47.48097" lon="6.76517">
        <ele>313.8</ele>
        <time>2025-09-13T15:28:37Z</time>
      </trkpt>
      <trkpt lat="47.48102" lon="6.76512">
        <ele>313.8</ele>
        <time>2025-09-13T15:28:38Z</time>
      </trkpt>
      <trkpt lat="47.48106" lon="6.76511">
        <ele>313.8</ele>
        <time>2025-09-13T15:28:39Z</time>
      </trkpt>
      <trkpt lat="47.48109" lon="6.76515">
        <ele>313.7</ele>
        <time>2025-09-13T15:28:40Z</time>
      </trkpt>
      <trkpt lat="47.48111" lon="6.76522">
        <ele>313.5</ele>
        <time>2025-09-13T15:28:41Z</time>
      </trkpt>
      <trkpt lat="47.48114" lon="6.76527">
        <ele>313.4</ele>
        <time>2025-09-13T15:28:42Z</time>
      </trkpt>
      <trkpt lat="47.48117" lon="6.76531">
        <ele>313.3</ele>
        <time>2025-09-13T15:28:43Z</time>
      </trkpt>
      <trkpt lat="47.4812" lon="6.76536">
        <ele>313.2</ele>
        <time>2025-09-13T15:28:44Z</time>
      </trkpt>
      <trkpt lat="47.48122" lon="6.76542">
        <ele>313.1</ele>
        <time>2025-09-13T15:28:45Z</time>
      </trkpt>
      <trkpt lat="47.48123" lon="6.76545">
        <ele>313</ele>
        <time>2025-09-13T15:28:46Z</time>
      </trkpt>
      <trkpt lat="47.48121" lon="6.76551">
        <ele>312.8</ele>
        <time>2025-09-13T15:28:47Z</time>
      </trkpt>
      <trkpt lat="47.48119" lon="6.76558">
        <ele>312.6</ele>
        <time>2025-09-13T15:28:48Z</time>
      </trkpt>
      <trkpt lat="47.48116" lon="6.76565">
        <ele>312.4</ele>
        <time>2025-09-13T15:28:49Z</time>
      </trkpt>
      <trkpt lat="47.48111" lon="6.76572">
        <ele>312.2</ele>
        <time>2025-09-13T15:28:50Z</time>
      </trkpt>
      <trkpt lat="47.48106" lon="6.7658">
        <ele>312</ele>
        <time>2025-09-13T15:28:51Z</time>
      </trkpt>
      <trkpt lat="47.48102" lon="6.76588">
        <ele>312</ele>
        <time>2025-09-13T15:28:52Z</time>
      </trkpt>
      <trkpt lat="47.481" lon="6.76597">
        <ele>312</ele>
        <time>2025-09-13T15:28:53Z</time>
      </trkpt>
      <trkpt lat="47.48099" lon="6.76607">
        <ele>312</ele>
        <time>2025-09-13T15:28:54Z</time>
      </trkpt>
      <trkpt lat="47.48099" lon="6.76616">
        <ele>312.1</ele>
        <time>2025-09-13T15:28:55Z</time>
      </trkpt>
      <trkpt lat="47.481" lon="6.76625">
        <ele>312.2</ele>
        <time>2025-09-13T15:28:56Z</time>
      </trkpt>
      <trkpt lat="47.48102" lon="6.76632">
        <ele>312.2</ele>
        <time>2025-09-13T15:28:57Z</time>
      </trkpt>
      <trkpt lat="47.48105" lon="6.76639">
        <ele>312.2</ele>
        <time>2025-09-13T15:28:58Z</time>
      </trkpt>
      <trkpt lat="47.48108" lon="6.76646">
        <ele>312.2</ele>
        <time>2025-09-13T15:28:59Z</time>
      </trkpt>
      <trkpt lat="47.48112" lon="6.76652">
        <ele>312.1</ele>
        <time>2025-09-13T15:29:00Z</time>
      </trkpt>
      <trkpt lat="47.48116" lon="6.76658">
        <ele>312</ele>
        <time>2025-09-13T15:29:01Z</time>
      </trkpt>
      <trkpt lat="47.4812" lon="6.76664">
        <ele>311.9</ele>
        <time>2025-09-13T15:29:02Z</time>
      </trkpt>
      <trkpt lat="47.48124" lon="6.76669">
        <ele>311.8</ele>
        <time>2025-09-13T15:29:03Z</time>
      </trkpt>
      <trkpt lat="47.48128" lon="6.76674">
        <ele>311.7</ele>
        <time>2025-09-13T15:29:04Z</time>
      </trkpt>
      <trkpt lat="47.48132" lon="6.76682">
        <ele>311.5</ele>
        <time>2025-09-13T15:29:05Z</time>
      </trkpt>
      <trkpt lat="47.48137" lon="6.7669">
        <ele>311.4</ele>
        <time>2025-09-13T15:29:06Z</time>
      </trkpt>
      <trkpt lat="47.48141" lon="6.76698">
        <ele>311.3</ele>
        <time>2025-09-13T15:29:07Z</time>
      </trkpt>
      <trkpt lat="47.48145" lon="6.76705">
        <ele>311.2</ele>
        <time>2025-09-13T15:29:08Z</time>
      </trkpt>
      <trkpt lat="47.48149" lon="6.76714">
        <ele>311.2</ele>
        <time>2025-09-13T15:29:09Z</time>
      </trkpt>
      <trkpt lat="47.48152" lon="6.76722">
        <ele>311.2</ele>
        <time>2025-09-13T15:29:10Z</time>
      </trkpt>
      <trkpt lat="47.48156" lon="6.76732">
        <ele>311.2</ele>
        <time>2025-09-13T15:29:11Z</time>
      </trkpt>
      <trkpt lat="47.4816" lon="6.7674">
        <ele>311.2</ele>
        <time>2025-09-13T15:29:12Z</time>
      </trkpt>
      <trkpt lat="47.48165" lon="6.76748">
        <ele>311.3</ele>
        <time>2025-09-13T15:29:13Z</time>
      </trkpt>
      <trkpt lat="47.48171" lon="6.76755">
        <ele>311.3</ele>
        <time>2025-09-13T15:29:14Z</time>
      </trkpt>
      <trkpt lat="47.48176" lon="6.76761">
        <ele>311.4</ele>
        <time>2025-09-13T15:29:15Z</time>
      </trkpt>
      <trkpt lat="47.48181" lon="6.76767">
        <ele>311.4</ele>
        <time>2025-09-13T15:29:16Z</time>
      </trkpt>
      <trkpt lat="47.48186" lon="6.76772">
        <ele>311.5</ele>
        <time>2025-09-13T15:29:17Z</time>
      </trkpt>
      <trkpt lat="47.48191" lon="6.76777">
        <ele>311.5</ele>
        <time>2025-09-13T15:29:18Z</time>
      </trkpt>
      <trkpt lat="47.48197" lon="6.76781">
        <ele>311.5</ele>
        <time>2025-09-13T15:29:19Z</time>
      </trkpt>
      <trkpt lat="47.48203" lon="6.76784">
        <ele>311.6</ele>
        <time>2025-09-13T15:29:21Z</time>
      </trkpt>
      <trkpt lat="47.4821" lon="6.76786">
        <ele>311.7</ele>
        <time>2025-09-13T15:29:22Z</time>
      </trkpt>
      <trkpt lat="47.48215" lon="6.76789">
        <ele>311.7</ele>
        <time>2025-09-13T15:29:23Z</time>
      </trkpt>
      <trkpt lat="47.48222" lon="6.7679">
        <ele>311.8</ele>
        <time>2025-09-13T15:29:24Z</time>
      </trkpt>
      <trkpt lat="47.48228" lon="6.76793">
        <ele>311.8</ele>
        <time>2025-09-13T15:29:25Z</time>
      </trkpt>
      <trkpt lat="47.48234" lon="6.76796">
        <ele>311.8</ele>
        <time>2025-09-13T15:29:26Z</time>
      </trkpt>
      <trkpt lat="47.48239" lon="6.768">
        <ele>311.8</ele>
        <time>2025-09-13T15:29:27Z</time>
      </trkpt>
      <trkpt lat="47.48245" lon="6.76804">
        <ele>311.9</ele>
        <time>2025-09-13T15:29:28Z</time>
      </trkpt>
      <trkpt lat="47.4825" lon="6.76809">
        <ele>311.9</ele>
        <time>2025-09-13T15:29:29Z</time>
      </trkpt>
      <trkpt lat="47.48255" lon="6.76816">
        <ele>311.9</ele>
        <time>2025-09-13T15:29:30Z</time>
      </trkpt>
      <trkpt lat="47.4826" lon="6.76822">
        <ele>311.8</ele>
        <time>2025-09-13T15:29:31Z</time>
      </trkpt>
      <trkpt lat="47.48265" lon="6.7683">
        <ele>311.8</ele>
        <time>2025-09-13T15:29:32Z</time>
      </trkpt>
      <trkpt lat="47.48269" lon="6.76837">
        <ele>311.8</ele>
        <time>2025-09-13T15:29:33Z</time>
      </trkpt>
      <trkpt lat="47.48273" lon="6.76845">
        <ele>311.7</ele>
        <time>2025-09-13T15:29:34Z</time>
      </trkpt>
      <trkpt lat="47.48278" lon="6.76851">
        <ele>311.7</ele>
        <time>2025-09-13T15:29:35Z</time>
      </trkpt>
      <trkpt lat="47.48284" lon="6.76858">
        <ele>311.6</ele>
        <time>2025-09-13T15:29:36Z</time>
      </trkpt>
      <trkpt lat="47.48288" lon="6.76864">
        <ele>311.6</ele>
        <time>2025-09-13T15:29:37Z</time>
      </trkpt>
      <trkpt lat="47.48295" lon="6.7687">
        <ele>311.5</ele>
        <time>2025-09-13T15:29:38Z</time>
      </trkpt>
      <trkpt lat="47.48301" lon="6.76876">
        <ele>311.5</ele>
        <time>2025-09-13T15:29:39Z</time>
      </trkpt>
      <trkpt lat="47.48307" lon="6.76881">
        <ele>311.4</ele>
        <time>2025-09-13T15:29:40Z</time>
      </trkpt>
      <trkpt lat="47.48313" lon="6.76887">
        <ele>311.4</ele>
        <time>2025-09-13T15:29:41Z</time>
      </trkpt>
      <trkpt lat="47.4832" lon="6.76891">
        <ele>311.3</ele>
        <time>2025-09-13T15:29:42Z</time>
      </trkpt>
      <trkpt lat="47.48325" lon="6.76897">
        <ele>311.3</ele>
        <time>2025-09-13T15:29:43Z</time>
      </trkpt>
      <trkpt lat="47.48331" lon="6.76901">
        <ele>311.3</ele>
        <time>2025-09-13T15:29:44Z</time>
      </trkpt>
      <trkpt lat="47.48343" lon="6.76911">
        <ele>311.3</ele>
        <time>2025-09-13T15:29:45Z</time>
      </trkpt>
      <trkpt lat="47.4835" lon="6.76915">
        <ele>311.2</ele>
        <time>2025-09-13T15:29:46Z</time>
      </trkpt>
      <trkpt lat="47.48356" lon="6.76918">
        <ele>311.2</ele>
        <time>2025-09-13T15:29:47Z</time>
      </trkpt>
      <trkpt lat="47.48362" lon="6.76923">
        <ele>311.2</ele>
        <time>2025-09-13T15:29:48Z</time>
      </trkpt>
      <trkpt lat="47.48368" lon="6.76927">
        <ele>311.2</ele>
        <time>2025-09-13T15:29:49Z</time>
      </trkpt>
      <trkpt lat="47.48374" lon="6.76931">
        <ele>311.2</ele>
        <time>2025-09-13T15:29:50Z</time>
      </trkpt>
      <trkpt lat="47.4838" lon="6.76934">
        <ele>311.2</ele>
        <time>2025-09-13T15:29:51Z</time>
      </trkpt>
      <trkpt lat="47.48387" lon="6.76938">
        <ele>311.2</ele>
        <time>2025-09-13T15:29:52Z</time>
      </trkpt>
      <trkpt lat="47.48393" lon="6.76942">
        <ele>311.2</ele>
        <time>2025-09-13T15:29:53Z</time>
      </trkpt>
      <trkpt lat="47.48399" lon="6.76945">
        <ele>311.1</ele>
        <time>2025-09-13T15:29:54Z</time>
      </trkpt>
      <trkpt lat="47.48405" lon="6.76949">
        <ele>311.1</ele>
        <time>2025-09-13T15:29:55Z</time>
      </trkpt>
      <trkpt lat="47.48412" lon="6.76952">
        <ele>311.2</ele>
        <time>2025-09-13T15:29:56Z</time>
      </trkpt>
      <trkpt lat="47.48418" lon="6.76955">
        <ele>311.2</ele>
        <time>2025-09-13T15:29:57Z</time>
      </trkpt>
      <trkpt lat="47.48425" lon="6.76958">
        <ele>311.3</ele>
        <time>2025-09-13T15:29:58Z</time>
      </trkpt>
      <trkpt lat="47.48431" lon="6.76961">
        <ele>311.3</ele>
        <time>2025-09-13T15:29:59Z</time>
      </trkpt>
      <trkpt lat="47.48437" lon="6.76964">
        <ele>311.3</ele>
        <time>2025-09-13T15:30:00Z</time>
      </trkpt>
      <trkpt lat="47.48443" lon="6.76968">
        <ele>311.4</ele>
        <time>2025-09-13T15:30:01Z</time>
      </trkpt>
      <trkpt lat="47.48449" lon="6.76972">
        <ele>311.4</ele>
        <time>2025-09-13T15:30:02Z</time>
      </trkpt>
      <trkpt lat="47.48454" lon="6.76976">
        <ele>311.4</ele>
        <time>2025-09-13T15:30:03Z</time>
      </trkpt>
      <trkpt lat="47.4846" lon="6.76981">
        <ele>311.4</ele>
        <time>2025-09-13T15:30:04Z</time>
      </trkpt>
      <trkpt lat="47.48466" lon="6.76985">
        <ele>311.3</ele>
        <time>2025-09-13T15:30:05Z</time>
      </trkpt>
      <trkpt lat="47.48472" lon="6.76989">
        <ele>311.3</ele>
        <time>2025-09-13T15:30:06Z</time>
      </trkpt>
      <trkpt lat="47.48478" lon="6.76993">
        <ele>311.4</ele>
        <time>2025-09-13T15:30:07Z</time>
      </trkpt>
      <trkpt lat="47.48484" lon="6.76997">
        <ele>311.4</ele>
        <time>2025-09-13T15:30:08Z</time>
      </trkpt>
      <trkpt lat="47.4849" lon="6.77001">
        <ele>311.4</ele>
        <time>2025-09-13T15:30:09Z</time>
      </trkpt>
      <trkpt lat="47.48496" lon="6.77004">
        <ele>311.5</ele>
        <time>2025-09-13T15:30:10Z</time>
      </trkpt>
      <trkpt lat="47.48502" lon="6.77009">
        <ele>311.5</ele>
        <time>2025-09-13T15:30:11Z</time>
      </trkpt>
      <trkpt lat="47.48508" lon="6.77013">
        <ele>311.5</ele>
        <time>2025-09-13T15:30:12Z</time>
      </trkpt>
      <trkpt lat="47.48514" lon="6.77017">
        <ele>311.6</ele>
        <time>2025-09-13T15:30:13Z</time>
      </trkpt>
      <trkpt lat="47.48519" lon="6.77022">
        <ele>311.6</ele>
        <time>2025-09-13T15:30:14Z</time>
      </trkpt>
      <trkpt lat="47.48525" lon="6.77027">
        <ele>311.6</ele>
        <time>2025-09-13T15:30:15Z</time>
      </trkpt>
      <trkpt lat="47.48531" lon="6.77031">
        <ele>311.7</ele>
        <time>2025-09-13T15:30:16Z</time>
      </trkpt>
      <trkpt lat="47.48537" lon="6.77035">
        <ele>311.7</ele>
        <time>2025-09-13T15:30:17Z</time>
      </trkpt>
      <trkpt lat="47.48543" lon="6.7704">
        <ele>311.8</ele>
        <time>2025-09-13T15:30:18Z</time>
      </trkpt>
      <trkpt lat="47.48549" lon="6.77044">
        <ele>312</ele>
        <time>2025-09-13T15:30:19Z</time>
      </trkpt>
      <trkpt lat="47.48556" lon="6.77047">
        <ele>312.2</ele>
        <time>2025-09-13T15:30:20Z</time>
      </trkpt>
      <trkpt lat="47.48562" lon="6.77049">
        <ele>312.5</ele>
        <time>2025-09-13T15:30:21Z</time>
      </trkpt>
      <trkpt lat="47.48567" lon="6.7705">
        <ele>312.7</ele>
        <time>2025-09-13T15:30:22Z</time>
      </trkpt>
      <trkpt lat="47.48573" lon="6.77052">
        <ele>312.8</ele>
        <time>2025-09-13T15:30:23Z</time>
      </trkpt>
      <trkpt lat="47.48578" lon="6.77054">
        <ele>312.9</ele>
        <time>2025-09-13T15:30:24Z</time>
      </trkpt>
      <trkpt lat="47.48585" lon="6.77057">
        <ele>312.9</ele>
        <time>2025-09-13T15:30:25Z</time>
      </trkpt>
      <trkpt lat="47.48591" lon="6.7706">
        <ele>312.9</ele>
        <time>2025-09-13T15:30:26Z</time>
      </trkpt>
      <trkpt lat="47.48597" lon="6.77064">
        <ele>312.8</ele>
        <time>2025-09-13T15:30:27Z</time>
      </trkpt>
      <trkpt lat="47.48602" lon="6.77068">
        <ele>312.8</ele>
        <time>2025-09-13T15:30:28Z</time>
      </trkpt>
      <trkpt lat="47.48607" lon="6.77073">
        <ele>312.8</ele>
        <time>2025-09-13T15:30:29Z</time>
      </trkpt>
      <trkpt lat="47.48612" lon="6.77079">
        <ele>312.9</ele>
        <time>2025-09-13T15:30:30Z</time>
      </trkpt>
      <trkpt lat="47.48618" lon="6.77082">
        <ele>312.9</ele>
        <time>2025-09-13T15:30:31Z</time>
      </trkpt>
      <trkpt lat="47.48622" lon="6.77084">
        <ele>312.9</ele>
        <time>2025-09-13T15:30:32Z</time>
      </trkpt>
      <trkpt lat="47.48628" lon="6.77087">
        <ele>312.9</ele>
        <time>2025-09-13T15:30:33Z</time>
      </trkpt>
      <trkpt lat="47.48633" lon="6.77092">
        <ele>312.8</ele>
        <time>2025-09-13T15:30:34Z</time>
      </trkpt>
      <trkpt lat="47.48638" lon="6.77096">
        <ele>312.7</ele>
        <time>2025-09-13T15:30:35Z</time>
      </trkpt>
      <trkpt lat="47.48644" lon="6.77102">
        <ele>312.6</ele>
        <time>2025-09-13T15:30:36Z</time>
      </trkpt>
      <trkpt lat="47.48649" lon="6.77108">
        <ele>312.6</ele>
        <time>2025-09-13T15:30:37Z</time>
      </trkpt>
      <trkpt lat="47.48655" lon="6.77113">
        <ele>312.5</ele>
        <time>2025-09-13T15:30:38Z</time>
      </trkpt>
      <trkpt lat="47.4866" lon="6.77119">
        <ele>312.5</ele>
        <time>2025-09-13T15:30:39Z</time>
      </trkpt>
      <trkpt lat="47.48666" lon="6.77124">
        <ele>312.5</ele>
        <time>2025-09-13T15:30:40Z</time>
      </trkpt>
      <trkpt lat="47.4867" lon="6.7713">
        <ele>312.5</ele>
        <time>2025-09-13T15:30:41Z</time>
      </trkpt>
      <trkpt lat="47.48675" lon="6.77135">
        <ele>312.5</ele>
        <time>2025-09-13T15:30:42Z</time>
      </trkpt>
      <trkpt lat="47.4868" lon="6.77141">
        <ele>312.5</ele>
        <time>2025-09-13T15:30:43Z</time>
      </trkpt>
      <trkpt lat="47.48685" lon="6.77146">
        <ele>312.5</ele>
        <time>2025-09-13T15:30:44Z</time>
      </trkpt>
      <trkpt lat="47.4869" lon="6.77151">
        <ele>312.5</ele>
        <time>2025-09-13T15:30:45Z</time>
      </trkpt>
      <trkpt lat="47.48695" lon="6.77156">
        <ele>312.4</ele>
        <time>2025-09-13T15:30:46Z</time>
      </trkpt>
      <trkpt lat="47.48701" lon="6.77161">
        <ele>312.4</ele>
        <time>2025-09-13T15:30:47Z</time>
      </trkpt>
      <trkpt lat="47.48706" lon="6.77167">
        <ele>312.4</ele>
        <time>2025-09-13T15:30:48Z</time>
      </trkpt>
      <trkpt lat="47.48712" lon="6.77171">
        <ele>312.4</ele>
        <time>2025-09-13T15:30:49Z</time>
      </trkpt>
      <trkpt lat="47.48718" lon="6.77176">
        <ele>312.4</ele>
        <time>2025-09-13T15:30:50Z</time>
      </trkpt>
      <trkpt lat="47.48723" lon="6.7718">
        <ele>312.4</ele>
        <time>2025-09-13T15:30:51Z</time>
      </trkpt>
      <trkpt lat="47.48729" lon="6.77184">
        <ele>312.4</ele>
        <time>2025-09-13T15:30:52Z</time>
      </trkpt>
      <trkpt lat="47.48736" lon="6.77189">
        <ele>312.4</ele>
        <time>2025-09-13T15:30:53Z</time>
      </trkpt>
      <trkpt lat="47.48742" lon="6.77193">
        <ele>312.4</ele>
        <time>2025-09-13T15:30:54Z</time>
      </trkpt>
      <trkpt lat="47.48747" lon="6.77198">
        <ele>312.4</ele>
        <time>2025-09-13T15:30:55Z</time>
      </trkpt>
      <trkpt lat="47.48753" lon="6.77202">
        <ele>312.4</ele>
        <time>2025-09-13T15:30:56Z</time>
      </trkpt>
      <trkpt lat="47.48759" lon="6.77206">
        <ele>312.4</ele>
        <time>2025-09-13T15:30:57Z</time>
      </trkpt>
      <trkpt lat="47.48765" lon="6.7721">
        <ele>312.4</ele>
        <time>2025-09-13T15:30:58Z</time>
      </trkpt>
      <trkpt lat="47.48771" lon="6.77215">
        <ele>312.4</ele>
        <time>2025-09-13T15:30:59Z</time>
      </trkpt>
      <trkpt lat="47.48777" lon="6.7722">
        <ele>312.4</ele>
        <time>2025-09-13T15:31:00Z</time>
      </trkpt>
      <trkpt lat="47.48782" lon="6.77224">
        <ele>312.4</ele>
        <time>2025-09-13T15:31:01Z</time>
      </trkpt>
      <trkpt lat="47.48789" lon="6.77229">
        <ele>312.4</ele>
        <time>2025-09-13T15:31:02Z</time>
      </trkpt>
      <trkpt lat="47.48795" lon="6.77233">
        <ele>312.4</ele>
        <time>2025-09-13T15:31:03Z</time>
      </trkpt>
      <trkpt lat="47.48801" lon="6.77238">
        <ele>312.4</ele>
        <time>2025-09-13T15:31:04Z</time>
      </trkpt>
      <trkpt lat="47.48807" lon="6.77243">
        <ele>312.4</ele>
        <time>2025-09-13T15:31:05Z</time>
      </trkpt>
      <trkpt lat="47.48812" lon="6.77247">
        <ele>312.4</ele>
        <time>2025-09-13T15:31:06Z</time>
      </trkpt>
      <trkpt lat="47.48819" lon="6.77252">
        <ele>312.4</ele>
        <time>2025-09-13T15:31:07Z</time>
      </trkpt>
      <trkpt lat="47.48825" lon="6.77257">
        <ele>312.4</ele>
        <time>2025-09-13T15:31:08Z</time>
      </trkpt>
      <trkpt lat="47.48831" lon="6.77261">
        <ele>312.4</ele>
        <time>2025-09-13T15:31:09Z</time>
      </trkpt>
      <trkpt lat="47.48837" lon="6.77266">
        <ele>312.4</ele>
        <time>2025-09-13T15:31:10Z</time>
      </trkpt>
      <trkpt lat="47.48843" lon="6.77271">
        <ele>312.5</ele>
        <time>2025-09-13T15:31:11Z</time>
      </trkpt>
      <trkpt lat="47.48849" lon="6.77274">
        <ele>312.5</ele>
        <time>2025-09-13T15:31:12Z</time>
      </trkpt>
      <trkpt lat="47.48855" lon="6.77277">
        <ele>312.5</ele>
        <time>2025-09-13T15:31:13Z</time>
      </trkpt>
      <trkpt lat="47.48862" lon="6.7728">
        <ele>312.5</ele>
        <time>2025-09-13T15:31:14Z</time>
      </trkpt>
      <trkpt lat="47.48868" lon="6.77284">
        <ele>312.5</ele>
        <time>2025-09-13T15:31:15Z</time>
      </trkpt>
      <trkpt lat="47.48875" lon="6.77286">
        <ele>312.5</ele>
        <time>2025-09-13T15:31:16Z</time>
      </trkpt>
      <trkpt lat="47.48881" lon="6.77289">
        <ele>312.5</ele>
        <time>2025-09-13T15:31:17Z</time>
      </trkpt>
      <trkpt lat="47.48888" lon="6.7729">
        <ele>312.6</ele>
        <time>2025-09-13T15:31:18Z</time>
      </trkpt>
      <trkpt lat="47.48895" lon="6.77292">
        <ele>312.5</ele>
        <time>2025-09-13T15:31:19Z</time>
      </trkpt>
      <trkpt lat="47.48902" lon="6.77295">
        <ele>312.5</ele>
        <time>2025-09-13T15:31:20Z</time>
      </trkpt>
      <trkpt lat="47.48909" lon="6.77297">
        <ele>312.5</ele>
        <time>2025-09-13T15:31:21Z</time>
      </trkpt>
      <trkpt lat="47.48915" lon="6.773">
        <ele>312.5</ele>
        <time>2025-09-13T15:31:22Z</time>
      </trkpt>
      <trkpt lat="47.48922" lon="6.77303">
        <ele>312.5</ele>
        <time>2025-09-13T15:31:23Z</time>
      </trkpt>
      <trkpt lat="47.48928" lon="6.77305">
        <ele>312.5</ele>
        <time>2025-09-13T15:31:24Z</time>
      </trkpt>
      <trkpt lat="47.48935" lon="6.77307">
        <ele>312.5</ele>
        <time>2025-09-13T15:31:25Z</time>
      </trkpt>
      <trkpt lat="47.48942" lon="6.7731">
        <ele>312.5</ele>
        <time>2025-09-13T15:31:27Z</time>
      </trkpt>
      <trkpt lat="47.48948" lon="6.77312">
        <ele>312.5</ele>
        <time>2025-09-13T15:31:28Z</time>
      </trkpt>
      <trkpt lat="47.48955" lon="6.77314">
        <ele>312.5</ele>
        <time>2025-09-13T15:31:29Z</time>
      </trkpt>
      <trkpt lat="47.48962" lon="6.77316">
        <ele>312.5</ele>
        <time>2025-09-13T15:31:30Z</time>
      </trkpt>
      <trkpt lat="47.48969" lon="6.77318">
        <ele>312.5</ele>
        <time>2025-09-13T15:31:31Z</time>
      </trkpt>
      <trkpt lat="47.48975" lon="6.77318">
        <ele>312.5</ele>
        <time>2025-09-13T15:31:32Z</time>
      </trkpt>
      <trkpt lat="47.48982" lon="6.77319">
        <ele>312.5</ele>
        <time>2025-09-13T15:31:33Z</time>
      </trkpt>
      <trkpt lat="47.48989" lon="6.77319">
        <ele>312.5</ele>
        <time>2025-09-13T15:31:34Z</time>
      </trkpt>
      <trkpt lat="47.48995" lon="6.7732">
        <ele>312.5</ele>
        <time>2025-09-13T15:31:35Z</time>
      </trkpt>
      <trkpt lat="47.49002" lon="6.7732">
        <ele>312.5</ele>
        <time>2025-09-13T15:31:36Z</time>
      </trkpt>
      <trkpt lat="47.49009" lon="6.77321">
        <ele>312.5</ele>
        <time>2025-09-13T15:31:37Z</time>
      </trkpt>
      <trkpt lat="47.49016" lon="6.77321">
        <ele>312.5</ele>
        <time>2025-09-13T15:31:38Z</time>
      </trkpt>
      <trkpt lat="47.49023" lon="6.77321">
        <ele>312.5</ele>
        <time>2025-09-13T15:31:39Z</time>
      </trkpt>
      <trkpt lat="47.4903" lon="6.77321">
        <ele>312.5</ele>
        <time>2025-09-13T15:31:40Z</time>
      </trkpt>
      <trkpt lat="47.49037" lon="6.77322">
        <ele>312.5</ele>
        <time>2025-09-13T15:31:41Z</time>
      </trkpt>
      <trkpt lat="47.49043" lon="6.77323">
        <ele>312.5</ele>
        <time>2025-09-13T15:31:42Z</time>
      </trkpt>
      <trkpt lat="47.4905" lon="6.77323">
        <ele>312.4</ele>
        <time>2025-09-13T15:31:43Z</time>
      </trkpt>
      <trkpt lat="47.49057" lon="6.77324">
        <ele>312.4</ele>
        <time>2025-09-13T15:31:44Z</time>
      </trkpt>
      <trkpt lat="47.49064" lon="6.77324">
        <ele>312.4</ele>
        <time>2025-09-13T15:31:45Z</time>
      </trkpt>
      <trkpt lat="47.49072" lon="6.77324">
        <ele>312.4</ele>
        <time>2025-09-13T15:31:46Z</time>
      </trkpt>
      <trkpt lat="47.49079" lon="6.77325">
        <ele>312.4</ele>
        <time>2025-09-13T15:31:47Z</time>
      </trkpt>
      <trkpt lat="47.49086" lon="6.77325">
        <ele>312.4</ele>
        <time>2025-09-13T15:31:48Z</time>
      </trkpt>
      <trkpt lat="47.49093" lon="6.77326">
        <ele>312.5</ele>
        <time>2025-09-13T15:31:49Z</time>
      </trkpt>
      <trkpt lat="47.49099" lon="6.77326">
        <ele>312.5</ele>
        <time>2025-09-13T15:31:50Z</time>
      </trkpt>
      <trkpt lat="47.49106" lon="6.77326">
        <ele>312.5</ele>
        <time>2025-09-13T15:31:51Z</time>
      </trkpt>
      <trkpt lat="47.49113" lon="6.77327">
        <ele>312.6</ele>
        <time>2025-09-13T15:31:52Z</time>
      </trkpt>
      <trkpt lat="47.4912" lon="6.77326">
        <ele>312.6</ele>
        <time>2025-09-13T15:31:53Z</time>
      </trkpt>
      <trkpt lat="47.49127" lon="6.77328">
        <ele>312.6</ele>
        <time>2025-09-13T15:31:54Z</time>
      </trkpt>
      <trkpt lat="47.4914" lon="6.77329">
        <ele>312.7</ele>
        <time>2025-09-13T15:31:55Z</time>
      </trkpt>
      <trkpt lat="47.49147" lon="6.7733">
        <ele>312.7</ele>
        <time>2025-09-13T15:31:56Z</time>
      </trkpt>
      <trkpt lat="47.49154" lon="6.7733">
        <ele>312.7</ele>
        <time>2025-09-13T15:31:57Z</time>
      </trkpt>
      <trkpt lat="47.4916" lon="6.77331">
        <ele>312.7</ele>
        <time>2025-09-13T15:31:58Z</time>
      </trkpt>
      <trkpt lat="47.49167" lon="6.77331">
        <ele>312.6</ele>
        <time>2025-09-13T15:31:59Z</time>
      </trkpt>
      <trkpt lat="47.49173" lon="6.77335">
        <ele>312.6</ele>
        <time>2025-09-13T15:32:00Z</time>
      </trkpt>
      <trkpt lat="47.4918" lon="6.77336">
        <ele>312.6</ele>
        <time>2025-09-13T15:32:01Z</time>
      </trkpt>
      <trkpt lat="47.49187" lon="6.77336">
        <ele>312.6</ele>
        <time>2025-09-13T15:32:02Z</time>
      </trkpt>
      <trkpt lat="47.49193" lon="6.77336">
        <ele>312.6</ele>
        <time>2025-09-13T15:32:03Z</time>
      </trkpt>
      <trkpt lat="47.492" lon="6.77337">
        <ele>312.6</ele>
        <time>2025-09-13T15:32:04Z</time>
      </trkpt>
      <trkpt lat="47.49207" lon="6.77337">
        <ele>312.5</ele>
        <time>2025-09-13T15:32:05Z</time>
      </trkpt>
      <trkpt lat="47.49214" lon="6.77337">
        <ele>312.5</ele>
        <time>2025-09-13T15:32:06Z</time>
      </trkpt>
      <trkpt lat="47.49221" lon="6.77337">
        <ele>312.4</ele>
        <time>2025-09-13T15:32:07Z</time>
      </trkpt>
      <trkpt lat="47.49228" lon="6.77336">
        <ele>312.3</ele>
        <time>2025-09-13T15:32:08Z</time>
      </trkpt>
      <trkpt lat="47.49236" lon="6.77337">
        <ele>312.3</ele>
        <time>2025-09-13T15:32:09Z</time>
      </trkpt>
      <trkpt lat="47.49242" lon="6.77337">
        <ele>312.2</ele>
        <time>2025-09-13T15:32:10Z</time>
      </trkpt>
      <trkpt lat="47.49248" lon="6.77337">
        <ele>312.2</ele>
        <time>2025-09-13T15:32:11Z</time>
      </trkpt>
      <trkpt lat="47.49255" lon="6.77333">
        <ele>312.1</ele>
        <time>2025-09-13T15:32:12Z</time>
      </trkpt>
      <trkpt lat="47.49259" lon="6.77329">
        <ele>312</ele>
        <time>2025-09-13T15:32:13Z</time>
      </trkpt>
      <trkpt lat="47.49265" lon="6.77324">
        <ele>311.9</ele>
        <time>2025-09-13T15:32:14Z</time>
      </trkpt>
      <trkpt lat="47.49271" lon="6.77323">
        <ele>311.9</ele>
        <time>2025-09-13T15:32:15Z</time>
      </trkpt>
      <trkpt lat="47.49279" lon="6.77324">
        <ele>311.8</ele>
        <time>2025-09-13T15:32:16Z</time>
      </trkpt>
      <trkpt lat="47.49286" lon="6.77325">
        <ele>311.7</ele>
        <time>2025-09-13T15:32:17Z</time>
      </trkpt>
      <trkpt lat="47.49293" lon="6.77326">
        <ele>311.7</ele>
        <time>2025-09-13T15:32:18Z</time>
      </trkpt>
      <trkpt lat="47.493" lon="6.77327">
        <ele>311.7</ele>
        <time>2025-09-13T15:32:19Z</time>
      </trkpt>
      <trkpt lat="47.49307" lon="6.77327">
        <ele>311.7</ele>
        <time>2025-09-13T15:32:20Z</time>
      </trkpt>
      <trkpt lat="47.49314" lon="6.77327">
        <ele>311.8</ele>
        <time>2025-09-13T15:32:21Z</time>
      </trkpt>
      <trkpt lat="47.4932" lon="6.77327">
        <ele>311.9</ele>
        <time>2025-09-13T15:32:22Z</time>
      </trkpt>
      <trkpt lat="47.49326" lon="6.77329">
        <ele>312</ele>
        <time>2025-09-13T15:32:23Z</time>
      </trkpt>
      <trkpt lat="47.49332" lon="6.77331">
        <ele>312.2</ele>
        <time>2025-09-13T15:32:24Z</time>
      </trkpt>
      <trkpt lat="47.49338" lon="6.77337">
        <ele>312.3</ele>
        <time>2025-09-13T15:32:25Z</time>
      </trkpt>
      <trkpt lat="47.49342" lon="6.77341">
        <ele>312.3</ele>
        <time>2025-09-13T15:32:26Z</time>
      </trkpt>
      <trkpt lat="47.49347" lon="6.77345">
        <ele>312.4</ele>
        <time>2025-09-13T15:32:27Z</time>
      </trkpt>
      <trkpt lat="47.49354" lon="6.77345">
        <ele>312.4</ele>
        <time>2025-09-13T15:32:28Z</time>
      </trkpt>
      <trkpt lat="47.49359" lon="6.77345">
        <ele>312.4</ele>
        <time>2025-09-13T15:32:29Z</time>
      </trkpt>
      <trkpt lat="47.49364" lon="6.77346">
        <ele>312.4</ele>
        <time>2025-09-13T15:32:30Z</time>
      </trkpt>
      <trkpt lat="47.4937" lon="6.77346">
        <ele>312.4</ele>
        <time>2025-09-13T15:32:31Z</time>
      </trkpt>
      <trkpt lat="47.49377" lon="6.77347">
        <ele>312.4</ele>
        <time>2025-09-13T15:32:32Z</time>
      </trkpt>
      <trkpt lat="47.49383" lon="6.77347">
        <ele>312.5</ele>
        <time>2025-09-13T15:32:33Z</time>
      </trkpt>
      <trkpt lat="47.49388" lon="6.77347">
        <ele>312.5</ele>
        <time>2025-09-13T15:32:34Z</time>
      </trkpt>
      <trkpt lat="47.49395" lon="6.77349">
        <ele>312.5</ele>
        <time>2025-09-13T15:32:35Z</time>
      </trkpt>
      <trkpt lat="47.49401" lon="6.77349">
        <ele>312.5</ele>
        <time>2025-09-13T15:32:36Z</time>
      </trkpt>
      <trkpt lat="47.49408" lon="6.7735">
        <ele>312.5</ele>
        <time>2025-09-13T15:32:37Z</time>
      </trkpt>
      <trkpt lat="47.49416" lon="6.7735">
        <ele>312.5</ele>
        <time>2025-09-13T15:32:38Z</time>
      </trkpt>
      <trkpt lat="47.49422" lon="6.77349">
        <ele>312.5</ele>
        <time>2025-09-13T15:32:39Z</time>
      </trkpt>
      <trkpt lat="47.4943" lon="6.7735">
        <ele>312.5</ele>
        <time>2025-09-13T15:32:40Z</time>
      </trkpt>
      <trkpt lat="47.49437" lon="6.7735">
        <ele>312.5</ele>
        <time>2025-09-13T15:32:41Z</time>
      </trkpt>
      <trkpt lat="47.49443" lon="6.7735">
        <ele>312.5</ele>
        <time>2025-09-13T15:32:42Z</time>
      </trkpt>
      <trkpt lat="47.49449" lon="6.7735">
        <ele>312.6</ele>
        <time>2025-09-13T15:32:43Z</time>
      </trkpt>
      <trkpt lat="47.49455" lon="6.77351">
        <ele>312.6</ele>
        <time>2025-09-13T15:32:44Z</time>
      </trkpt>
      <trkpt lat="47.49462" lon="6.77351">
        <ele>312.6</ele>
        <time>2025-09-13T15:32:45Z</time>
      </trkpt>
      <trkpt lat="47.49468" lon="6.77351">
        <ele>312.6</ele>
        <time>2025-09-13T15:32:46Z</time>
      </trkpt>
      <trkpt lat="47.49474" lon="6.77351">
        <ele>312.6</ele>
        <time>2025-09-13T15:32:47Z</time>
      </trkpt>
      <trkpt lat="47.49479" lon="6.77352">
        <ele>312.6</ele>
        <time>2025-09-13T15:32:48Z</time>
      </trkpt>
      <trkpt lat="47.49485" lon="6.77352">
        <ele>312.5</ele>
        <time>2025-09-13T15:32:49Z</time>
      </trkpt>
      <trkpt lat="47.4949" lon="6.77354">
        <ele>312.5</ele>
        <time>2025-09-13T15:32:50Z</time>
      </trkpt>
      <trkpt lat="47.49495" lon="6.77354">
        <ele>312.5</ele>
        <time>2025-09-13T15:32:51Z</time>
      </trkpt>
      <trkpt lat="47.495" lon="6.77355">
        <ele>312.5</ele>
        <time>2025-09-13T15:32:52Z</time>
      </trkpt>
      <trkpt lat="47.49506" lon="6.77355">
        <ele>312.5</ele>
        <time>2025-09-13T15:32:53Z</time>
      </trkpt>
      <trkpt lat="47.49512" lon="6.77356">
        <ele>312.5</ele>
        <time>2025-09-13T15:32:54Z</time>
      </trkpt>
      <trkpt lat="47.49518" lon="6.77356">
        <ele>312.5</ele>
        <time>2025-09-13T15:32:55Z</time>
      </trkpt>
      <trkpt lat="47.49524" lon="6.77357">
        <ele>312.5</ele>
        <time>2025-09-13T15:32:56Z</time>
      </trkpt>
      <trkpt lat="47.49531" lon="6.77358">
        <ele>312.5</ele>
        <time>2025-09-13T15:32:57Z</time>
      </trkpt>
      <trkpt lat="47.49537" lon="6.77358">
        <ele>312.5</ele>
        <time>2025-09-13T15:32:58Z</time>
      </trkpt>
      <trkpt lat="47.49544" lon="6.77358">
        <ele>312.5</ele>
        <time>2025-09-13T15:32:59Z</time>
      </trkpt>
      <trkpt lat="47.49549" lon="6.77359">
        <ele>312.5</ele>
        <time>2025-09-13T15:33:00Z</time>
      </trkpt>
      <trkpt lat="47.49555" lon="6.7736">
        <ele>312.5</ele>
        <time>2025-09-13T15:33:01Z</time>
      </trkpt>
      <trkpt lat="47.49562" lon="6.77361">
        <ele>312.5</ele>
        <time>2025-09-13T15:33:02Z</time>
      </trkpt>
      <trkpt lat="47.49569" lon="6.77361">
        <ele>312.5</ele>
        <time>2025-09-13T15:33:03Z</time>
      </trkpt>
      <trkpt lat="47.49575" lon="6.77361">
        <ele>312.5</ele>
        <time>2025-09-13T15:33:04Z</time>
      </trkpt>
      <trkpt lat="47.49581" lon="6.77361">
        <ele>312.5</ele>
        <time>2025-09-13T15:33:05Z</time>
      </trkpt>
      <trkpt lat="47.49588" lon="6.77361">
        <ele>312.5</ele>
        <time>2025-09-13T15:33:06Z</time>
      </trkpt>
      <trkpt lat="47.49594" lon="6.7736">
        <ele>312.5</ele>
        <time>2025-09-13T15:33:07Z</time>
      </trkpt>
      <trkpt lat="47.49601" lon="6.77359">
        <ele>312.5</ele>
        <time>2025-09-13T15:33:08Z</time>
      </trkpt>
      <trkpt lat="47.49607" lon="6.77358">
        <ele>312.5</ele>
        <time>2025-09-13T15:33:09Z</time>
      </trkpt>
      <trkpt lat="47.49613" lon="6.77357">
        <ele>312.5</ele>
        <time>2025-09-13T15:33:10Z</time>
      </trkpt>
      <trkpt lat="47.4962" lon="6.77355">
        <ele>312.6</ele>
        <time>2025-09-13T15:33:11Z</time>
      </trkpt>
      <trkpt lat="47.49626" lon="6.77354">
        <ele>312.6</ele>
        <time>2025-09-13T15:33:12Z</time>
      </trkpt>
      <trkpt lat="47.49633" lon="6.77352">
        <ele>312.6</ele>
        <time>2025-09-13T15:33:13Z</time>
      </trkpt>
      <trkpt lat="47.4964" lon="6.7735">
        <ele>312.6</ele>
        <time>2025-09-13T15:33:14Z</time>
      </trkpt>
      <trkpt lat="47.49646" lon="6.77348">
        <ele>312.6</ele>
        <time>2025-09-13T15:33:15Z</time>
      </trkpt>
      <trkpt lat="47.49653" lon="6.77346">
        <ele>312.7</ele>
        <time>2025-09-13T15:33:16Z</time>
      </trkpt>
      <trkpt lat="47.49659" lon="6.77345">
        <ele>312.7</ele>
        <time>2025-09-13T15:33:17Z</time>
      </trkpt>
      <trkpt lat="47.49666" lon="6.77344">
        <ele>312.7</ele>
        <time>2025-09-13T15:33:18Z</time>
      </trkpt>
      <trkpt lat="47.49672" lon="6.77342">
        <ele>312.8</ele>
        <time>2025-09-13T15:33:19Z</time>
      </trkpt>
      <trkpt lat="47.49679" lon="6.7734">
        <ele>312.8</ele>
        <time>2025-09-13T15:33:20Z</time>
      </trkpt>
      <trkpt lat="47.49686" lon="6.77339">
        <ele>312.8</ele>
        <time>2025-09-13T15:33:21Z</time>
      </trkpt>
      <trkpt lat="47.49693" lon="6.77337">
        <ele>312.8</ele>
        <time>2025-09-13T15:33:22Z</time>
      </trkpt>
      <trkpt lat="47.497" lon="6.77335">
        <ele>312.8</ele>
        <time>2025-09-13T15:33:23Z</time>
      </trkpt>
      <trkpt lat="47.49706" lon="6.77333">
        <ele>312.9</ele>
        <time>2025-09-13T15:33:24Z</time>
      </trkpt>
      <trkpt lat="47.49713" lon="6.77332">
        <ele>312.9</ele>
        <time>2025-09-13T15:33:25Z</time>
      </trkpt>
      <trkpt lat="47.49719" lon="6.77331">
        <ele>312.9</ele>
        <time>2025-09-13T15:33:26Z</time>
      </trkpt>
      <trkpt lat="47.49726" lon="6.77329">
        <ele>312.9</ele>
        <time>2025-09-13T15:33:27Z</time>
      </trkpt>
      <trkpt lat="47.49733" lon="6.77327">
        <ele>312.9</ele>
        <time>2025-09-13T15:33:28Z</time>
      </trkpt>
      <trkpt lat="47.49739" lon="6.77322">
        <ele>312.9</ele>
        <time>2025-09-13T15:33:29Z</time>
      </trkpt>
      <trkpt lat="47.49746" lon="6.77317">
        <ele>313</ele>
        <time>2025-09-13T15:33:30Z</time>
      </trkpt>
      <trkpt lat="47.49752" lon="6.77313">
        <ele>313</ele>
        <time>2025-09-13T15:33:31Z</time>
      </trkpt>
      <trkpt lat="47.49758" lon="6.7731">
        <ele>313.1</ele>
        <time>2025-09-13T15:33:33Z</time>
      </trkpt>
      <trkpt lat="47.49764" lon="6.77308">
        <ele>313.1</ele>
        <time>2025-09-13T15:33:34Z</time>
      </trkpt>
      <trkpt lat="47.49771" lon="6.77306">
        <ele>313.2</ele>
        <time>2025-09-13T15:33:35Z</time>
      </trkpt>
      <trkpt lat="47.49777" lon="6.77306">
        <ele>313.2</ele>
        <time>2025-09-13T15:33:36Z</time>
      </trkpt>
      <trkpt lat="47.49784" lon="6.77306">
        <ele>313.2</ele>
        <time>2025-09-13T15:33:37Z</time>
      </trkpt>
      <trkpt lat="47.4979" lon="6.77306">
        <ele>313.2</ele>
        <time>2025-09-13T15:33:38Z</time>
      </trkpt>
      <trkpt lat="47.49797" lon="6.77305">
        <ele>313.2</ele>
        <time>2025-09-13T15:33:39Z</time>
      </trkpt>
      <trkpt lat="47.49804" lon="6.77305">
        <ele>313.2</ele>
        <time>2025-09-13T15:33:40Z</time>
      </trkpt>
      <trkpt lat="47.49811" lon="6.77304">
        <ele>313.2</ele>
        <time>2025-09-13T15:33:41Z</time>
      </trkpt>
      <trkpt lat="47.49818" lon="6.77303">
        <ele>313.2</ele>
        <time>2025-09-13T15:33:42Z</time>
      </trkpt>
      <trkpt lat="47.49825" lon="6.77303">
        <ele>313.3</ele>
        <time>2025-09-13T15:33:43Z</time>
      </trkpt>
      <trkpt lat="47.4983" lon="6.77302">
        <ele>313.3</ele>
        <time>2025-09-13T15:33:44Z</time>
      </trkpt>
      <trkpt lat="47.49838" lon="6.77302">
        <ele>313.3</ele>
        <time>2025-09-13T15:33:45Z</time>
      </trkpt>
      <trkpt lat="47.49844" lon="6.773">
        <ele>313.4</ele>
        <time>2025-09-13T15:33:46Z</time>
      </trkpt>
      <trkpt lat="47.49851" lon="6.773">
        <ele>313.4</ele>
        <time>2025-09-13T15:33:47Z</time>
      </trkpt>
      <trkpt lat="47.49859" lon="6.77299">
        <ele>313.5</ele>
        <time>2025-09-13T15:33:48Z</time>
      </trkpt>
      <trkpt lat="47.49866" lon="6.77298">
        <ele>313.5</ele>
        <time>2025-09-13T15:33:49Z</time>
      </trkpt>
      <trkpt lat="47.49873" lon="6.77297">
        <ele>313.6</ele>
        <time>2025-09-13T15:33:50Z</time>
      </trkpt>
      <trkpt lat="47.49886" lon="6.77295">
        <ele>313.7</ele>
        <time>2025-09-13T15:33:51Z</time>
      </trkpt>
      <trkpt lat="47.49892" lon="6.77293">
        <ele>313.8</ele>
        <time>2025-09-13T15:33:52Z</time>
      </trkpt>
      <trkpt lat="47.49898" lon="6.7729">
        <ele>313.8</ele>
        <time>2025-09-13T15:33:53Z</time>
      </trkpt>
      <trkpt lat="47.49903" lon="6.77287">
        <ele>313.8</ele>
        <time>2025-09-13T15:33:54Z</time>
      </trkpt>
      <trkpt lat="47.49908" lon="6.77285">
        <ele>313.8</ele>
        <time>2025-09-13T15:33:55Z</time>
      </trkpt>
      <trkpt lat="47.49914" lon="6.77282">
        <ele>313.9</ele>
        <time>2025-09-13T15:33:56Z</time>
      </trkpt>
      <trkpt lat="47.49919" lon="6.77279">
        <ele>313.9</ele>
        <time>2025-09-13T15:33:57Z</time>
      </trkpt>
      <trkpt lat="47.49925" lon="6.77275">
        <ele>313.9</ele>
        <time>2025-09-13T15:33:58Z</time>
      </trkpt>
      <trkpt lat="47.49932" lon="6.77273">
        <ele>313.9</ele>
        <time>2025-09-13T15:33:59Z</time>
      </trkpt>
      <trkpt lat="47.49937" lon="6.77269">
        <ele>314</ele>
        <time>2025-09-13T15:34:00Z</time>
      </trkpt>
      <trkpt lat="47.49943" lon="6.77264">
        <ele>314</ele>
        <time>2025-09-13T15:34:01Z</time>
      </trkpt>
      <trkpt lat="47.49948" lon="6.77259">
        <ele>314</ele>
        <time>2025-09-13T15:34:02Z</time>
      </trkpt>
      <trkpt lat="47.49954" lon="6.77256">
        <ele>314.1</ele>
        <time>2025-09-13T15:34:03Z</time>
      </trkpt>
      <trkpt lat="47.49959" lon="6.77254">
        <ele>314.1</ele>
        <time>2025-09-13T15:34:04Z</time>
      </trkpt>
      <trkpt lat="47.49963" lon="6.77251">
        <ele>314.2</ele>
        <time>2025-09-13T15:34:05Z</time>
      </trkpt>
      <trkpt lat="47.4997" lon="6.77251">
        <ele>314.3</ele>
        <time>2025-09-13T15:34:06Z</time>
      </trkpt>
      <trkpt lat="47.49974" lon="6.77244">
        <ele>314.4</ele>
        <time>2025-09-13T15:34:07Z</time>
      </trkpt>
      <trkpt lat="47.49979" lon="6.77243">
        <ele>314.5</ele>
        <time>2025-09-13T15:34:08Z</time>
      </trkpt>
      <trkpt lat="47.49984" lon="6.77243">
        <ele>314.5</ele>
        <time>2025-09-13T15:34:09Z</time>
      </trkpt>
      <trkpt lat="47.4999" lon="6.7724">
        <ele>314.6</ele>
        <time>2025-09-13T15:34:10Z</time>
      </trkpt>
      <trkpt lat="47.49998" lon="6.77238">
        <ele>314.8</ele>
        <time>2025-09-13T15:34:11Z</time>
      </trkpt>
      <trkpt lat="47.50002" lon="6.77236">
        <ele>315</ele>
        <time>2025-09-13T15:34:12Z</time>
      </trkpt>
      <trkpt lat="47.50006" lon="6.77232">
        <ele>315.2</ele>
        <time>2025-09-13T15:34:13Z</time>
      </trkpt>
      <trkpt lat="47.50011" lon="6.77229">
        <ele>315.3</ele>
        <time>2025-09-13T15:34:14Z</time>
      </trkpt>
      <trkpt lat="47.50015" lon="6.7723">
        <ele>315.5</ele>
        <time>2025-09-13T15:34:15Z</time>
      </trkpt>
      <trkpt lat="47.5002" lon="6.77235">
        <ele>315.5</ele>
        <time>2025-09-13T15:34:16Z</time>
      </trkpt>
      <trkpt lat="47.50019" lon="6.77243">
        <ele>315.5</ele>
        <time>2025-09-13T15:34:17Z</time>
      </trkpt>
      <trkpt lat="47.50019" lon="6.7725">
        <ele>315.5</ele>
        <time>2025-09-13T15:34:18Z</time>
      </trkpt>
      <trkpt lat="47.5002" lon="6.77256">
        <ele>315.5</ele>
        <time>2025-09-13T15:34:19Z</time>
      </trkpt>
      <trkpt lat="47.50022" lon="6.77262">
        <ele>315.5</ele>
        <time>2025-09-13T15:34:20Z</time>
      </trkpt>
      <trkpt lat="47.50023" lon="6.77268">
        <ele>315.4</ele>
        <time>2025-09-13T15:34:21Z</time>
      </trkpt>
      <trkpt lat="47.50025" lon="6.77275">
        <ele>315.4</ele>
        <time>2025-09-13T15:34:22Z</time>
      </trkpt>
      <trkpt lat="47.50027" lon="6.77281">
        <ele>315.4</ele>
        <time>2025-09-13T15:34:23Z</time>
      </trkpt>
      <trkpt lat="47.50028" lon="6.77288">
        <ele>315.3</ele>
        <time>2025-09-13T15:34:24Z</time>
      </trkpt>
      <trkpt lat="47.5003" lon="6.77294">
        <ele>315.3</ele>
        <time>2025-09-13T15:34:25Z</time>
      </trkpt>
      <trkpt lat="47.50031" lon="6.77301">
        <ele>315.2</ele>
        <time>2025-09-13T15:34:26Z</time>
      </trkpt>
      <trkpt lat="47.50032" lon="6.77308">
        <ele>315.1</ele>
        <time>2025-09-13T15:34:27Z</time>
      </trkpt>
      <trkpt lat="47.50034" lon="6.77315">
        <ele>315.1</ele>
        <time>2025-09-13T15:34:28Z</time>
      </trkpt>
      <trkpt lat="47.50035" lon="6.77322">
        <ele>315</ele>
        <time>2025-09-13T15:34:29Z</time>
      </trkpt>
      <trkpt lat="47.50037" lon="6.7733">
        <ele>314.9</ele>
        <time>2025-09-13T15:34:30Z</time>
      </trkpt>
      <trkpt lat="47.50038" lon="6.77337">
        <ele>314.8</ele>
        <time>2025-09-13T15:34:31Z</time>
      </trkpt>
      <trkpt lat="47.5004" lon="6.77345">
        <ele>314.7</ele>
        <time>2025-09-13T15:34:32Z</time>
      </trkpt>
      <trkpt lat="47.50044" lon="6.77352">
        <ele>314.6</ele>
        <time>2025-09-13T15:34:33Z</time>
      </trkpt>
      <trkpt lat="47.50049" lon="6.77358">
        <ele>314.5</ele>
        <time>2025-09-13T15:34:34Z</time>
      </trkpt>
      <trkpt lat="47.50054" lon="6.77364">
        <ele>314.4</ele>
        <time>2025-09-13T15:34:35Z</time>
      </trkpt>
      <trkpt lat="47.50059" lon="6.7737">
        <ele>314.3</ele>
        <time>2025-09-13T15:34:36Z</time>
      </trkpt>
      <trkpt lat="47.50063" lon="6.77378">
        <ele>314.2</ele>
        <time>2025-09-13T15:34:37Z</time>
      </trkpt>
      <trkpt lat="47.50067" lon="6.77385">
        <ele>314</ele>
        <time>2025-09-13T15:34:38Z</time>
      </trkpt>
      <trkpt lat="47.50073" lon="6.77388">
        <ele>313.9</ele>
        <time>2025-09-13T15:34:39Z</time>
      </trkpt>
      <trkpt lat="47.5008" lon="6.77384">
        <ele>313.8</ele>
        <time>2025-09-13T15:34:40Z</time>
      </trkpt>
      <trkpt lat="47.50086" lon="6.77381">
        <ele>313.8</ele>
        <time>2025-09-13T15:34:41Z</time>
      </trkpt>
      <trkpt lat="47.50093" lon="6.77379">
        <ele>313.7</ele>
        <time>2025-09-13T15:34:42Z</time>
      </trkpt>
      <trkpt lat="47.501" lon="6.77376">
        <ele>313.8</ele>
        <time>2025-09-13T15:34:43Z</time>
      </trkpt>
      <trkpt lat="47.50106" lon="6.77374">
        <ele>313.8</ele>
        <time>2025-09-13T15:34:44Z</time>
      </trkpt>
      <trkpt lat="47.50112" lon="6.77373">
        <ele>313.8</ele>
        <time>2025-09-13T15:34:45Z</time>
      </trkpt>
      <trkpt lat="47.50118" lon="6.77372">
        <ele>313.6</ele>
        <time>2025-09-13T15:34:46Z</time>
      </trkpt>
      <trkpt lat="47.50123" lon="6.77372">
        <ele>313.3</ele>
        <time>2025-09-13T15:34:47Z</time>
      </trkpt>
      <trkpt lat="47.50128" lon="6.77371">
        <ele>313.1</ele>
        <time>2025-09-13T15:34:48Z</time>
      </trkpt>
      <trkpt lat="47.50134" lon="6.77371">
        <ele>312.9</ele>
        <time>2025-09-13T15:34:49Z</time>
      </trkpt>
      <trkpt lat="47.5014" lon="6.77369">
        <ele>312.6</ele>
        <time>2025-09-13T15:34:50Z</time>
      </trkpt>
      <trkpt lat="47.50147" lon="6.77369">
        <ele>312.5</ele>
        <time>2025-09-13T15:34:51Z</time>
      </trkpt>
      <trkpt lat="47.50155" lon="6.77371">
        <ele>312.4</ele>
        <time>2025-09-13T15:34:52Z</time>
      </trkpt>
      <trkpt lat="47.5016" lon="6.77373">
        <ele>312.4</ele>
        <time>2025-09-13T15:34:53Z</time>
      </trkpt>
      <trkpt lat="47.50166" lon="6.77378">
        <ele>312.3</ele>
        <time>2025-09-13T15:34:54Z</time>
      </trkpt>
      <trkpt lat="47.50171" lon="6.77382">
        <ele>312.3</ele>
        <time>2025-09-13T15:34:55Z</time>
      </trkpt>
      <trkpt lat="47.50176" lon="6.77386">
        <ele>312.3</ele>
        <time>2025-09-13T15:34:56Z</time>
      </trkpt>
      <trkpt lat="47.50182" lon="6.77389">
        <ele>312.2</ele>
        <time>2025-09-13T15:34:57Z</time>
      </trkpt>
      <trkpt lat="47.50188" lon="6.77392">
        <ele>312.2</ele>
        <time>2025-09-13T15:34:58Z</time>
      </trkpt>
      <trkpt lat="47.50193" lon="6.77396">
        <ele>312.1</ele>
        <time>2025-09-13T15:34:59Z</time>
      </trkpt>
      <trkpt lat="47.50198" lon="6.77399">
        <ele>312.1</ele>
        <time>2025-09-13T15:35:00Z</time>
      </trkpt>
      <trkpt lat="47.50203" lon="6.77402">
        <ele>312.1</ele>
        <time>2025-09-13T15:35:01Z</time>
      </trkpt>
      <trkpt lat="47.50208" lon="6.77405">
        <ele>312</ele>
        <time>2025-09-13T15:35:02Z</time>
      </trkpt>
      <trkpt lat="47.50213" lon="6.77408">
        <ele>312</ele>
        <time>2025-09-13T15:35:03Z</time>
      </trkpt>
      <trkpt lat="47.50218" lon="6.77411">
        <ele>312</ele>
        <time>2025-09-13T15:35:04Z</time>
      </trkpt>
      <trkpt lat="47.50224" lon="6.77414">
        <ele>311.9</ele>
        <time>2025-09-13T15:35:05Z</time>
      </trkpt>
      <trkpt lat="47.50229" lon="6.7742">
        <ele>311.9</ele>
        <time>2025-09-13T15:35:06Z</time>
      </trkpt>
      <trkpt lat="47.50235" lon="6.77427">
        <ele>311.9</ele>
        <time>2025-09-13T15:35:07Z</time>
      </trkpt>
      <trkpt lat="47.5024" lon="6.77434">
        <ele>311.9</ele>
        <time>2025-09-13T15:35:08Z</time>
      </trkpt>
      <trkpt lat="47.50244" lon="6.77442">
        <ele>311.9</ele>
        <time>2025-09-13T15:35:09Z</time>
      </trkpt>
      <trkpt lat="47.50248" lon="6.77449">
        <ele>311.9</ele>
        <time>2025-09-13T15:35:10Z</time>
      </trkpt>
      <trkpt lat="47.50253" lon="6.77455">
        <ele>311.9</ele>
        <time>2025-09-13T15:35:11Z</time>
      </trkpt>
      <trkpt lat="47.50259" lon="6.7746">
        <ele>311.9</ele>
        <time>2025-09-13T15:35:12Z</time>
      </trkpt>
      <trkpt lat="47.50263" lon="6.77464">
        <ele>311.9</ele>
        <time>2025-09-13T15:35:13Z</time>
      </trkpt>
      <trkpt lat="47.50269" lon="6.77469">
        <ele>311.9</ele>
        <time>2025-09-13T15:35:14Z</time>
      </trkpt>
      <trkpt lat="47.50267" lon="6.77487">
        <ele>311.9</ele>
        <time>2025-09-13T15:35:15Z</time>
      </trkpt>
      <trkpt lat="47.50274" lon="6.77491">
        <ele>311.9</ele>
        <time>2025-09-13T15:35:16Z</time>
      </trkpt>
      <trkpt lat="47.50279" lon="6.77496">
        <ele>311.9</ele>
        <time>2025-09-13T15:35:17Z</time>
      </trkpt>
      <trkpt lat="47.50286" lon="6.775">
        <ele>311.9</ele>
        <time>2025-09-13T15:35:18Z</time>
      </trkpt>
      <trkpt lat="47.50292" lon="6.77504">
        <ele>312</ele>
        <time>2025-09-13T15:35:19Z</time>
      </trkpt>
      <trkpt lat="47.50297" lon="6.77509">
        <ele>312</ele>
        <time>2025-09-13T15:35:20Z</time>
      </trkpt>
      <trkpt lat="47.50303" lon="6.77513">
        <ele>312.1</ele>
        <time>2025-09-13T15:35:21Z</time>
      </trkpt>
      <trkpt lat="47.5031" lon="6.77518">
        <ele>312.3</ele>
        <time>2025-09-13T15:35:22Z</time>
      </trkpt>
      <trkpt lat="47.50317" lon="6.77522">
        <ele>312.5</ele>
        <time>2025-09-13T15:35:23Z</time>
      </trkpt>
      <trkpt lat="47.50323" lon="6.77525">
        <ele>312.8</ele>
        <time>2025-09-13T15:35:24Z</time>
      </trkpt>
      <trkpt lat="47.50328" lon="6.7753">
        <ele>313</ele>
        <time>2025-09-13T15:35:25Z</time>
      </trkpt>
      <trkpt lat="47.50333" lon="6.77534">
        <ele>313.3</ele>
        <time>2025-09-13T15:35:26Z</time>
      </trkpt>
      <trkpt lat="47.5034" lon="6.77537">
        <ele>313.5</ele>
        <time>2025-09-13T15:35:27Z</time>
      </trkpt>
      <trkpt lat="47.50345" lon="6.7754">
        <ele>313.6</ele>
        <time>2025-09-13T15:35:28Z</time>
      </trkpt>
      <trkpt lat="47.5035" lon="6.77546">
        <ele>313.7</ele>
        <time>2025-09-13T15:35:29Z</time>
      </trkpt>
      <trkpt lat="47.50355" lon="6.77549">
        <ele>313.7</ele>
        <time>2025-09-13T15:35:30Z</time>
      </trkpt>
      <trkpt lat="47.50359" lon="6.77552">
        <ele>313.7</ele>
        <time>2025-09-13T15:35:31Z</time>
      </trkpt>
      <trkpt lat="47.50364" lon="6.77556">
        <ele>313.8</ele>
        <time>2025-09-13T15:35:32Z</time>
      </trkpt>
      <trkpt lat="47.5037" lon="6.77558">
        <ele>313.8</ele>
        <time>2025-09-13T15:35:33Z</time>
      </trkpt>
      <trkpt lat="47.50376" lon="6.77559">
        <ele>313.8</ele>
        <time>2025-09-13T15:35:34Z</time>
      </trkpt>
      <trkpt lat="47.50382" lon="6.77562">
        <ele>313.8</ele>
        <time>2025-09-13T15:35:35Z</time>
      </trkpt>
      <trkpt lat="47.50388" lon="6.77564">
        <ele>313.8</ele>
        <time>2025-09-13T15:35:36Z</time>
      </trkpt>
      <trkpt lat="47.50393" lon="6.77571">
        <ele>313.8</ele>
        <time>2025-09-13T15:35:37Z</time>
      </trkpt>
      <trkpt lat="47.50399" lon="6.77576">
        <ele>313.8</ele>
        <time>2025-09-13T15:35:38Z</time>
      </trkpt>
      <trkpt lat="47.50404" lon="6.77582">
        <ele>313.8</ele>
        <time>2025-09-13T15:35:39Z</time>
      </trkpt>
      <trkpt lat="47.50409" lon="6.77587">
        <ele>313.8</ele>
        <time>2025-09-13T15:35:40Z</time>
      </trkpt>
      <trkpt lat="47.50414" lon="6.77593">
        <ele>313.8</ele>
        <time>2025-09-13T15:35:41Z</time>
      </trkpt>
      <trkpt lat="47.50418" lon="6.77599">
        <ele>313.9</ele>
        <time>2025-09-13T15:35:42Z</time>
      </trkpt>
      <trkpt lat="47.50422" lon="6.77605">
        <ele>313.8</ele>
        <time>2025-09-13T15:35:43Z</time>
      </trkpt>
      <trkpt lat="47.50427" lon="6.7761">
        <ele>313.8</ele>
        <time>2025-09-13T15:35:44Z</time>
      </trkpt>
      <trkpt lat="47.50432" lon="6.77616">
        <ele>313.8</ele>
        <time>2025-09-13T15:35:45Z</time>
      </trkpt>
      <trkpt lat="47.50436" lon="6.77622">
        <ele>313.8</ele>
        <time>2025-09-13T15:35:46Z</time>
      </trkpt>
      <trkpt lat="47.50441" lon="6.77629">
        <ele>313.8</ele>
        <time>2025-09-13T15:35:47Z</time>
      </trkpt>
      <trkpt lat="47.50445" lon="6.77636">
        <ele>313.8</ele>
        <time>2025-09-13T15:35:48Z</time>
      </trkpt>
      <trkpt lat="47.50449" lon="6.77643">
        <ele>313.8</ele>
        <time>2025-09-13T15:35:49Z</time>
      </trkpt>
      <trkpt lat="47.50452" lon="6.77651">
        <ele>313.8</ele>
        <time>2025-09-13T15:35:51Z</time>
      </trkpt>
      <trkpt lat="47.5046" lon="6.77667">
        <ele>313.7</ele>
        <time>2025-09-13T15:35:52Z</time>
      </trkpt>
      <trkpt lat="47.50464" lon="6.77675">
        <ele>313.7</ele>
        <time>2025-09-13T15:35:53Z</time>
      </trkpt>
      <trkpt lat="47.50468" lon="6.77682">
        <ele>313.7</ele>
        <time>2025-09-13T15:35:54Z</time>
      </trkpt>
      <trkpt lat="47.50472" lon="6.77689">
        <ele>313.8</ele>
        <time>2025-09-13T15:35:55Z</time>
      </trkpt>
      <trkpt lat="47.50476" lon="6.77698">
        <ele>313.8</ele>
        <time>2025-09-13T15:35:56Z</time>
      </trkpt>
      <trkpt lat="47.50479" lon="6.77706">
        <ele>313.8</ele>
        <time>2025-09-13T15:35:57Z</time>
      </trkpt>
      <trkpt lat="47.50482" lon="6.77715">
        <ele>313.8</ele>
        <time>2025-09-13T15:35:58Z</time>
      </trkpt>
      <trkpt lat="47.50485" lon="6.77723">
        <ele>313.8</ele>
        <time>2025-09-13T15:35:59Z</time>
      </trkpt>
      <trkpt lat="47.50488" lon="6.77731">
        <ele>313.9</ele>
        <time>2025-09-13T15:36:00Z</time>
      </trkpt>
      <trkpt lat="47.50492" lon="6.7774">
        <ele>313.9</ele>
        <time>2025-09-13T15:36:01Z</time>
      </trkpt>
      <trkpt lat="47.50495" lon="6.77749">
        <ele>313.9</ele>
        <time>2025-09-13T15:36:02Z</time>
      </trkpt>
      <trkpt lat="47.50498" lon="6.77758">
        <ele>313.9</ele>
        <time>2025-09-13T15:36:03Z</time>
      </trkpt>
      <trkpt lat="47.505" lon="6.77766">
        <ele>313.9</ele>
        <time>2025-09-13T15:36:04Z</time>
      </trkpt>
      <trkpt lat="47.50503" lon="6.77774">
        <ele>313.9</ele>
        <time>2025-09-13T15:36:05Z</time>
      </trkpt>
      <trkpt lat="47.50506" lon="6.77784">
        <ele>314</ele>
        <time>2025-09-13T15:36:06Z</time>
      </trkpt>
      <trkpt lat="47.50508" lon="6.77794">
        <ele>314</ele>
        <time>2025-09-13T15:36:07Z</time>
      </trkpt>
      <trkpt lat="47.5051" lon="6.77802">
        <ele>314</ele>
        <time>2025-09-13T15:36:08Z</time>
      </trkpt>
      <trkpt lat="47.50513" lon="6.77812">
        <ele>314</ele>
        <time>2025-09-13T15:36:09Z</time>
      </trkpt>
      <trkpt lat="47.50515" lon="6.7782">
        <ele>314</ele>
        <time>2025-09-13T15:36:10Z</time>
      </trkpt>
      <trkpt lat="47.50517" lon="6.77829">
        <ele>314</ele>
        <time>2025-09-13T15:36:11Z</time>
      </trkpt>
      <trkpt lat="47.50519" lon="6.77839">
        <ele>314.1</ele>
        <time>2025-09-13T15:36:12Z</time>
      </trkpt>
      <trkpt lat="47.50521" lon="6.77848">
        <ele>314.1</ele>
        <time>2025-09-13T15:36:13Z</time>
      </trkpt>
      <trkpt lat="47.50523" lon="6.77857">
        <ele>314.1</ele>
        <time>2025-09-13T15:36:14Z</time>
      </trkpt>
      <trkpt lat="47.50526" lon="6.77867">
        <ele>314.2</ele>
        <time>2025-09-13T15:36:15Z</time>
      </trkpt>
      <trkpt lat="47.50527" lon="6.77877">
        <ele>314.2</ele>
        <time>2025-09-13T15:36:16Z</time>
      </trkpt>
      <trkpt lat="47.50529" lon="6.77886">
        <ele>314.3</ele>
        <time>2025-09-13T15:36:17Z</time>
      </trkpt>
      <trkpt lat="47.50531" lon="6.77896">
        <ele>314.3</ele>
        <time>2025-09-13T15:36:18Z</time>
      </trkpt>
      <trkpt lat="47.50533" lon="6.77905">
        <ele>314.3</ele>
        <time>2025-09-13T15:36:19Z</time>
      </trkpt>
      <trkpt lat="47.50535" lon="6.77913">
        <ele>314.4</ele>
        <time>2025-09-13T15:36:20Z</time>
      </trkpt>
      <trkpt lat="47.50536" lon="6.77922">
        <ele>314.4</ele>
        <time>2025-09-13T15:36:21Z</time>
      </trkpt>
      <trkpt lat="47.50538" lon="6.77932">
        <ele>314.4</ele>
        <time>2025-09-13T15:36:22Z</time>
      </trkpt>
      <trkpt lat="47.50539" lon="6.77941">
        <ele>314.4</ele>
        <time>2025-09-13T15:36:23Z</time>
      </trkpt>
      <trkpt lat="47.50541" lon="6.7795">
        <ele>314.4</ele>
        <time>2025-09-13T15:36:24Z</time>
      </trkpt>
      <trkpt lat="47.50542" lon="6.77959">
        <ele>314.4</ele>
        <time>2025-09-13T15:36:25Z</time>
      </trkpt>
      <trkpt lat="47.50544" lon="6.77969">
        <ele>314.4</ele>
        <time>2025-09-13T15:36:26Z</time>
      </trkpt>
      <trkpt lat="47.50545" lon="6.77978">
        <ele>314.5</ele>
        <time>2025-09-13T15:36:27Z</time>
      </trkpt>
      <trkpt lat="47.50546" lon="6.77988">
        <ele>314.5</ele>
        <time>2025-09-13T15:36:28Z</time>
      </trkpt>
      <trkpt lat="47.50548" lon="6.77997">
        <ele>314.5</ele>
        <time>2025-09-13T15:36:29Z</time>
      </trkpt>
      <trkpt lat="47.5055" lon="6.78006">
        <ele>314.4</ele>
        <time>2025-09-13T15:36:30Z</time>
      </trkpt>
      <trkpt lat="47.5055" lon="6.78016">
        <ele>314.4</ele>
        <time>2025-09-13T15:36:31Z</time>
      </trkpt>
      <trkpt lat="47.50549" lon="6.78025">
        <ele>314.4</ele>
        <time>2025-09-13T15:36:32Z</time>
      </trkpt>
      <trkpt lat="47.5055" lon="6.78035">
        <ele>314.4</ele>
        <time>2025-09-13T15:36:33Z</time>
      </trkpt>
      <trkpt lat="47.5055" lon="6.78045">
        <ele>314.4</ele>
        <time>2025-09-13T15:36:34Z</time>
      </trkpt>
      <trkpt lat="47.5055" lon="6.78061">
        <ele>314.4</ele>
        <time>2025-09-13T15:36:35Z</time>
      </trkpt>
      <trkpt lat="47.50549" lon="6.78071">
        <ele>314.4</ele>
        <time>2025-09-13T15:36:36Z</time>
      </trkpt>
      <trkpt lat="47.50547" lon="6.78082">
        <ele>314.4</ele>
        <time>2025-09-13T15:36:37Z</time>
      </trkpt>
      <trkpt lat="47.50546" lon="6.78091">
        <ele>314.4</ele>
        <time>2025-09-13T15:36:38Z</time>
      </trkpt>
      <trkpt lat="47.50544" lon="6.78099">
        <ele>314.4</ele>
        <time>2025-09-13T15:36:39Z</time>
      </trkpt>
      <trkpt lat="47.50543" lon="6.78107">
        <ele>314.4</ele>
        <time>2025-09-13T15:36:40Z</time>
      </trkpt>
      <trkpt lat="47.50542" lon="6.78116">
        <ele>314.4</ele>
        <time>2025-09-13T15:36:41Z</time>
      </trkpt>
      <trkpt lat="47.5054" lon="6.78126">
        <ele>314.4</ele>
        <time>2025-09-13T15:36:42Z</time>
      </trkpt>
      <trkpt lat="47.50538" lon="6.78136">
        <ele>314.4</ele>
        <time>2025-09-13T15:36:43Z</time>
      </trkpt>
      <trkpt lat="47.50536" lon="6.78146">
        <ele>314.4</ele>
        <time>2025-09-13T15:36:44Z</time>
      </trkpt>
      <trkpt lat="47.50534" lon="6.78155">
        <ele>314.4</ele>
        <time>2025-09-13T15:36:45Z</time>
      </trkpt>
      <trkpt lat="47.50532" lon="6.78165">
        <ele>314.4</ele>
        <time>2025-09-13T15:36:46Z</time>
      </trkpt>
      <trkpt lat="47.5053" lon="6.78175">
        <ele>314.4</ele>
        <time>2025-09-13T15:36:47Z</time>
      </trkpt>
      <trkpt lat="47.50529" lon="6.78184">
        <ele>314.3</ele>
        <time>2025-09-13T15:36:48Z</time>
      </trkpt>
      <trkpt lat="47.50527" lon="6.78194">
        <ele>314.3</ele>
        <time>2025-09-13T15:36:49Z</time>
      </trkpt>
      <trkpt lat="47.50525" lon="6.78204">
        <ele>314.3</ele>
        <time>2025-09-13T15:36:50Z</time>
      </trkpt>
      <trkpt lat="47.50523" lon="6.78214">
        <ele>314.3</ele>
        <time>2025-09-13T15:36:51Z</time>
      </trkpt>
      <trkpt lat="47.50521" lon="6.78222">
        <ele>314.3</ele>
        <time>2025-09-13T15:36:52Z</time>
      </trkpt>
      <trkpt lat="47.50519" lon="6.78233">
        <ele>314.3</ele>
        <time>2025-09-13T15:36:53Z</time>
      </trkpt>
      <trkpt lat="47.50517" lon="6.78241">
        <ele>314.2</ele>
        <time>2025-09-13T15:36:54Z</time>
      </trkpt>
      <trkpt lat="47.50514" lon="6.7825">
        <ele>314.2</ele>
        <time>2025-09-13T15:36:55Z</time>
      </trkpt>
      <trkpt lat="47.50511" lon="6.78261">
        <ele>314.2</ele>
        <time>2025-09-13T15:36:56Z</time>
      </trkpt>
      <trkpt lat="47.5051" lon="6.7827">
        <ele>314.3</ele>
        <time>2025-09-13T15:36:57Z</time>
      </trkpt>
      <trkpt lat="47.50508" lon="6.78279">
        <ele>314.3</ele>
        <time>2025-09-13T15:36:58Z</time>
      </trkpt>
      <trkpt lat="47.50507" lon="6.7829">
        <ele>314.3</ele>
        <time>2025-09-13T15:36:59Z</time>
      </trkpt>
      <trkpt lat="47.50505" lon="6.783">
        <ele>314.4</ele>
        <time>2025-09-13T15:37:00Z</time>
      </trkpt>
      <trkpt lat="47.50504" lon="6.78309">
        <ele>314.4</ele>
        <time>2025-09-13T15:37:01Z</time>
      </trkpt>
      <trkpt lat="47.50503" lon="6.78318">
        <ele>314.4</ele>
        <time>2025-09-13T15:37:02Z</time>
      </trkpt>
      <trkpt lat="47.505" lon="6.78328">
        <ele>314.5</ele>
        <time>2025-09-13T15:37:03Z</time>
      </trkpt>
      <trkpt lat="47.50498" lon="6.78338">
        <ele>314.5</ele>
        <time>2025-09-13T15:37:04Z</time>
      </trkpt>
      <trkpt lat="47.50497" lon="6.78347">
        <ele>314.5</ele>
        <time>2025-09-13T15:37:05Z</time>
      </trkpt>
      <trkpt lat="47.50495" lon="6.78357">
        <ele>314.6</ele>
        <time>2025-09-13T15:37:06Z</time>
      </trkpt>
      <trkpt lat="47.50493" lon="6.78366">
        <ele>314.6</ele>
        <time>2025-09-13T15:37:07Z</time>
      </trkpt>
      <trkpt lat="47.50491" lon="6.78375">
        <ele>314.6</ele>
        <time>2025-09-13T15:37:08Z</time>
      </trkpt>
      <trkpt lat="47.50489" lon="6.78384">
        <ele>314.7</ele>
        <time>2025-09-13T15:37:09Z</time>
      </trkpt>
      <trkpt lat="47.50488" lon="6.78394">
        <ele>314.7</ele>
        <time>2025-09-13T15:37:10Z</time>
      </trkpt>
      <trkpt lat="47.50487" lon="6.78403">
        <ele>314.8</ele>
        <time>2025-09-13T15:37:11Z</time>
      </trkpt>
      <trkpt lat="47.50484" lon="6.78411">
        <ele>314.8</ele>
        <time>2025-09-13T15:37:12Z</time>
      </trkpt>
      <trkpt lat="47.50482" lon="6.78421">
        <ele>314.9</ele>
        <time>2025-09-13T15:37:13Z</time>
      </trkpt>
      <trkpt lat="47.5048" lon="6.7843">
        <ele>315</ele>
        <time>2025-09-13T15:37:14Z</time>
      </trkpt>
      <trkpt lat="47.50478" lon="6.78439">
        <ele>315.2</ele>
        <time>2025-09-13T15:37:15Z</time>
      </trkpt>
      <trkpt lat="47.50476" lon="6.78448">
        <ele>315.3</ele>
        <time>2025-09-13T15:37:16Z</time>
      </trkpt>
      <trkpt lat="47.50474" lon="6.78456">
        <ele>315.4</ele>
        <time>2025-09-13T15:37:17Z</time>
      </trkpt>
      <trkpt lat="47.50472" lon="6.78465">
        <ele>315.5</ele>
        <time>2025-09-13T15:37:18Z</time>
      </trkpt>
      <trkpt lat="47.5047" lon="6.78473">
        <ele>315.6</ele>
        <time>2025-09-13T15:37:19Z</time>
      </trkpt>
      <trkpt lat="47.50468" lon="6.78482">
        <ele>315.6</ele>
        <time>2025-09-13T15:37:20Z</time>
      </trkpt>
      <trkpt lat="47.50466" lon="6.7849">
        <ele>315.7</ele>
        <time>2025-09-13T15:37:21Z</time>
      </trkpt>
      <trkpt lat="47.50465" lon="6.78499">
        <ele>315.7</ele>
        <time>2025-09-13T15:37:22Z</time>
      </trkpt>
      <trkpt lat="47.50462" lon="6.78507">
        <ele>315.7</ele>
        <time>2025-09-13T15:37:23Z</time>
      </trkpt>
      <trkpt lat="47.50461" lon="6.78515">
        <ele>315.8</ele>
        <time>2025-09-13T15:37:24Z</time>
      </trkpt>
      <trkpt lat="47.50459" lon="6.78523">
        <ele>315.8</ele>
        <time>2025-09-13T15:37:25Z</time>
      </trkpt>
      <trkpt lat="47.50457" lon="6.78532">
        <ele>315.8</ele>
        <time>2025-09-13T15:37:26Z</time>
      </trkpt>
      <trkpt lat="47.50455" lon="6.78541">
        <ele>315.8</ele>
        <time>2025-09-13T15:37:27Z</time>
      </trkpt>
      <trkpt lat="47.50453" lon="6.78549">
        <ele>315.7</ele>
        <time>2025-09-13T15:37:28Z</time>
      </trkpt>
      <trkpt lat="47.50451" lon="6.78558">
        <ele>315.7</ele>
        <time>2025-09-13T15:37:29Z</time>
      </trkpt>
      <trkpt lat="47.50449" lon="6.78567">
        <ele>315.7</ele>
        <time>2025-09-13T15:37:30Z</time>
      </trkpt>
      <trkpt lat="47.50447" lon="6.78575">
        <ele>315.7</ele>
        <time>2025-09-13T15:37:31Z</time>
      </trkpt>
      <trkpt lat="47.50445" lon="6.78584">
        <ele>315.7</ele>
        <time>2025-09-13T15:37:32Z</time>
      </trkpt>
      <trkpt lat="47.50443" lon="6.78588">
        <ele>315.7</ele>
        <time>2025-09-13T15:37:33Z</time>
      </trkpt>
      <trkpt lat="47.50442" lon="6.78599">
        <ele>315.7</ele>
        <time>2025-09-13T15:37:34Z</time>
      </trkpt>
      <trkpt lat="47.5044" lon="6.7861">
        <ele>315.7</ele>
        <time>2025-09-13T15:37:35Z</time>
      </trkpt>
      <trkpt lat="47.50437" lon="6.7862">
        <ele>315.6</ele>
        <time>2025-09-13T15:37:36Z</time>
      </trkpt>
      <trkpt lat="47.50435" lon="6.7863">
        <ele>315.6</ele>
        <time>2025-09-13T15:37:37Z</time>
      </trkpt>
      <trkpt lat="47.50434" lon="6.78639">
        <ele>315.5</ele>
        <time>2025-09-13T15:37:38Z</time>
      </trkpt>
      <trkpt lat="47.50432" lon="6.78649">
        <ele>315.5</ele>
        <time>2025-09-13T15:37:39Z</time>
      </trkpt>
      <trkpt lat="47.5043" lon="6.78658">
        <ele>315.5</ele>
        <time>2025-09-13T15:37:40Z</time>
      </trkpt>
      <trkpt lat="47.50428" lon="6.78668">
        <ele>315.4</ele>
        <time>2025-09-13T15:37:41Z</time>
      </trkpt>
      <trkpt lat="47.50426" lon="6.78677">
        <ele>315.4</ele>
        <time>2025-09-13T15:37:42Z</time>
      </trkpt>
      <trkpt lat="47.50424" lon="6.78687">
        <ele>315.4</ele>
        <time>2025-09-13T15:37:43Z</time>
      </trkpt>
      <trkpt lat="47.50423" lon="6.78697">
        <ele>315.4</ele>
        <time>2025-09-13T15:37:44Z</time>
      </trkpt>
      <trkpt lat="47.50421" lon="6.78705">
        <ele>315.4</ele>
        <time>2025-09-13T15:37:45Z</time>
      </trkpt>
      <trkpt lat="47.5042" lon="6.78715">
        <ele>315.4</ele>
        <time>2025-09-13T15:37:46Z</time>
      </trkpt>
      <trkpt lat="47.50418" lon="6.78724">
        <ele>315.4</ele>
        <time>2025-09-13T15:37:47Z</time>
      </trkpt>
      <trkpt lat="47.50416" lon="6.78734">
        <ele>315.5</ele>
        <time>2025-09-13T15:37:48Z</time>
      </trkpt>
      <trkpt lat="47.50415" lon="6.78744">
        <ele>315.5</ele>
        <time>2025-09-13T15:37:49Z</time>
      </trkpt>
      <trkpt lat="47.50413" lon="6.78753">
        <ele>315.5</ele>
        <time>2025-09-13T15:37:50Z</time>
      </trkpt>
      <trkpt lat="47.50412" lon="6.78762">
        <ele>315.5</ele>
        <time>2025-09-13T15:37:51Z</time>
      </trkpt>
      <trkpt lat="47.50411" lon="6.78772">
        <ele>315.5</ele>
        <time>2025-09-13T15:37:52Z</time>
      </trkpt>
      <trkpt lat="47.5041" lon="6.78781">
        <ele>315.5</ele>
        <time>2025-09-13T15:37:53Z</time>
      </trkpt>
      <trkpt lat="47.50409" lon="6.7879">
        <ele>315.5</ele>
        <time>2025-09-13T15:37:54Z</time>
      </trkpt>
      <trkpt lat="47.50408" lon="6.78799">
        <ele>315.5</ele>
        <time>2025-09-13T15:37:55Z</time>
      </trkpt>
      <trkpt lat="47.50407" lon="6.78809">
        <ele>315.6</ele>
        <time>2025-09-13T15:37:56Z</time>
      </trkpt>
      <trkpt lat="47.50406" lon="6.78818">
        <ele>315.6</ele>
        <time>2025-09-13T15:37:57Z</time>
      </trkpt>
      <trkpt lat="47.50405" lon="6.78827">
        <ele>315.7</ele>
        <time>2025-09-13T15:37:58Z</time>
      </trkpt>
      <trkpt lat="47.50404" lon="6.78837">
        <ele>315.7</ele>
        <time>2025-09-13T15:37:59Z</time>
      </trkpt>
      <trkpt lat="47.50404" lon="6.78846">
        <ele>315.7</ele>
        <time>2025-09-13T15:38:00Z</time>
      </trkpt>
      <trkpt lat="47.50403" lon="6.78855">
        <ele>315.7</ele>
        <time>2025-09-13T15:38:01Z</time>
      </trkpt>
      <trkpt lat="47.50403" lon="6.78865">
        <ele>315.7</ele>
        <time>2025-09-13T15:38:02Z</time>
      </trkpt>
      <trkpt lat="47.50401" lon="6.78874">
        <ele>315.7</ele>
        <time>2025-09-13T15:38:03Z</time>
      </trkpt>
      <trkpt lat="47.50402" lon="6.78883">
        <ele>315.7</ele>
        <time>2025-09-13T15:38:04Z</time>
      </trkpt>
      <trkpt lat="47.50402" lon="6.78892">
        <ele>315.7</ele>
        <time>2025-09-13T15:38:05Z</time>
      </trkpt>
      <trkpt lat="47.50402" lon="6.78903">
        <ele>315.6</ele>
        <time>2025-09-13T15:38:06Z</time>
      </trkpt>
      <trkpt lat="47.50402" lon="6.78913">
        <ele>315.6</ele>
        <time>2025-09-13T15:38:07Z</time>
      </trkpt>
      <trkpt lat="47.50403" lon="6.78923">
        <ele>315.6</ele>
        <time>2025-09-13T15:38:08Z</time>
      </trkpt>
      <trkpt lat="47.50402" lon="6.78933">
        <ele>315.6</ele>
        <time>2025-09-13T15:38:09Z</time>
      </trkpt>
      <trkpt lat="47.50403" lon="6.78943">
        <ele>315.6</ele>
        <time>2025-09-13T15:38:10Z</time>
      </trkpt>
      <trkpt lat="47.50403" lon="6.78953">
        <ele>315.6</ele>
        <time>2025-09-13T15:38:11Z</time>
      </trkpt>
      <trkpt lat="47.50403" lon="6.78963">
        <ele>315.6</ele>
        <time>2025-09-13T15:38:12Z</time>
      </trkpt>
      <trkpt lat="47.50404" lon="6.78972">
        <ele>315.6</ele>
        <time>2025-09-13T15:38:13Z</time>
      </trkpt>
      <trkpt lat="47.50404" lon="6.78981">
        <ele>315.6</ele>
        <time>2025-09-13T15:38:14Z</time>
      </trkpt>
      <trkpt lat="47.50405" lon="6.78991">
        <ele>315.6</ele>
        <time>2025-09-13T15:38:15Z</time>
      </trkpt>
      <trkpt lat="47.50406" lon="6.79">
        <ele>315.6</ele>
        <time>2025-09-13T15:38:16Z</time>
      </trkpt>
      <trkpt lat="47.50407" lon="6.7901">
        <ele>315.7</ele>
        <time>2025-09-13T15:38:17Z</time>
      </trkpt>
      <trkpt lat="47.50409" lon="6.7902">
        <ele>315.7</ele>
        <time>2025-09-13T15:38:18Z</time>
      </trkpt>
      <trkpt lat="47.5041" lon="6.7903">
        <ele>315.7</ele>
        <time>2025-09-13T15:38:19Z</time>
      </trkpt>
      <trkpt lat="47.50411" lon="6.7904">
        <ele>315.7</ele>
        <time>2025-09-13T15:38:20Z</time>
      </trkpt>
      <trkpt lat="47.50413" lon="6.7905">
        <ele>315.7</ele>
        <time>2025-09-13T15:38:21Z</time>
      </trkpt>
      <trkpt lat="47.50415" lon="6.7906">
        <ele>315.7</ele>
        <time>2025-09-13T15:38:22Z</time>
      </trkpt>
      <trkpt lat="47.50415" lon="6.7907">
        <ele>315.7</ele>
        <time>2025-09-13T15:38:23Z</time>
      </trkpt>
      <trkpt lat="47.50417" lon="6.79081">
        <ele>315.8</ele>
        <time>2025-09-13T15:38:24Z</time>
      </trkpt>
      <trkpt lat="47.50418" lon="6.79093">
        <ele>315.8</ele>
        <time>2025-09-13T15:38:25Z</time>
      </trkpt>
      <trkpt lat="47.50418" lon="6.79103">
        <ele>315.9</ele>
        <time>2025-09-13T15:38:26Z</time>
      </trkpt>
      <trkpt lat="47.50419" lon="6.79114">
        <ele>315.9</ele>
        <time>2025-09-13T15:38:27Z</time>
      </trkpt>
      <trkpt lat="47.50422" lon="6.79123">
        <ele>315.9</ele>
        <time>2025-09-13T15:38:28Z</time>
      </trkpt>
      <trkpt lat="47.50425" lon="6.79129">
        <ele>316</ele>
        <time>2025-09-13T15:38:29Z</time>
      </trkpt>
      <trkpt lat="47.50429" lon="6.79137">
        <ele>316</ele>
        <time>2025-09-13T15:38:30Z</time>
      </trkpt>
      <trkpt lat="47.50433" lon="6.79144">
        <ele>316</ele>
        <time>2025-09-13T15:38:31Z</time>
      </trkpt>
      <trkpt lat="47.50438" lon="6.7915">
        <ele>316</ele>
        <time>2025-09-13T15:38:32Z</time>
      </trkpt>
      <trkpt lat="47.50442" lon="6.79157">
        <ele>316.1</ele>
        <time>2025-09-13T15:38:33Z</time>
      </trkpt>
      <trkpt lat="47.50446" lon="6.79164">
        <ele>316.1</ele>
        <time>2025-09-13T15:38:34Z</time>
      </trkpt>
      <trkpt lat="47.50448" lon="6.79175">
        <ele>316.1</ele>
        <time>2025-09-13T15:38:35Z</time>
      </trkpt>
      <trkpt lat="47.50448" lon="6.79184">
        <ele>316.1</ele>
        <time>2025-09-13T15:38:36Z</time>
      </trkpt>
      <trkpt lat="47.5045" lon="6.79191">
        <ele>316.1</ele>
        <time>2025-09-13T15:38:37Z</time>
      </trkpt>
      <trkpt lat="47.50451" lon="6.79196">
        <ele>316.1</ele>
        <time>2025-09-13T15:38:38Z</time>
      </trkpt>
      <trkpt lat="47.50452" lon="6.79204">
        <ele>316.1</ele>
        <time>2025-09-13T15:38:39Z</time>
      </trkpt>
      <trkpt lat="47.50452" lon="6.79212">
        <ele>316.1</ele>
        <time>2025-09-13T15:38:40Z</time>
      </trkpt>
      <trkpt lat="47.50454" lon="6.79221">
        <ele>316.1</ele>
        <time>2025-09-13T15:38:41Z</time>
      </trkpt>
      <trkpt lat="47.50455" lon="6.79229">
        <ele>316.1</ele>
        <time>2025-09-13T15:38:42Z</time>
      </trkpt>
      <trkpt lat="47.50457" lon="6.79237">
        <ele>316.1</ele>
        <time>2025-09-13T15:38:43Z</time>
      </trkpt>
      <trkpt lat="47.50458" lon="6.79245">
        <ele>316.1</ele>
        <time>2025-09-13T15:38:44Z</time>
      </trkpt>
      <trkpt lat="47.5046" lon="6.79255">
        <ele>316.1</ele>
        <time>2025-09-13T15:38:45Z</time>
      </trkpt>
      <trkpt lat="47.50461" lon="6.79264">
        <ele>316.1</ele>
        <time>2025-09-13T15:38:46Z</time>
      </trkpt>
      <trkpt lat="47.50463" lon="6.79273">
        <ele>316.1</ele>
        <time>2025-09-13T15:38:47Z</time>
      </trkpt>
      <trkpt lat="47.50464" lon="6.79282">
        <ele>316</ele>
        <time>2025-09-13T15:38:48Z</time>
      </trkpt>
      <trkpt lat="47.50465" lon="6.79291">
        <ele>316</ele>
        <time>2025-09-13T15:38:49Z</time>
      </trkpt>
      <trkpt lat="47.50467" lon="6.793">
        <ele>316</ele>
        <time>2025-09-13T15:38:50Z</time>
      </trkpt>
      <trkpt lat="47.50468" lon="6.79308">
        <ele>316.1</ele>
        <time>2025-09-13T15:38:51Z</time>
      </trkpt>
      <trkpt lat="47.5047" lon="6.79317">
        <ele>316.1</ele>
        <time>2025-09-13T15:38:52Z</time>
      </trkpt>
      <trkpt lat="47.50471" lon="6.79325">
        <ele>316.1</ele>
        <time>2025-09-13T15:38:53Z</time>
      </trkpt>
      <trkpt lat="47.50471" lon="6.79333">
        <ele>316.1</ele>
        <time>2025-09-13T15:38:54Z</time>
      </trkpt>
      <trkpt lat="47.50473" lon="6.79342">
        <ele>316.1</ele>
        <time>2025-09-13T15:38:55Z</time>
      </trkpt>
      <trkpt lat="47.50474" lon="6.79349">
        <ele>316.1</ele>
        <time>2025-09-13T15:38:56Z</time>
      </trkpt>
      <trkpt lat="47.50475" lon="6.79355">
        <ele>316.1</ele>
        <time>2025-09-13T15:38:57Z</time>
      </trkpt>
      <trkpt lat="47.50477" lon="6.79362">
        <ele>316.1</ele>
        <time>2025-09-13T15:38:58Z</time>
      </trkpt>
      <trkpt lat="47.50478" lon="6.79369">
        <ele>316.1</ele>
        <time>2025-09-13T15:38:59Z</time>
      </trkpt>
      <trkpt lat="47.50479" lon="6.79377">
        <ele>316.1</ele>
        <time>2025-09-13T15:39:00Z</time>
      </trkpt>
      <trkpt lat="47.50481" lon="6.79384">
        <ele>316.1</ele>
        <time>2025-09-13T15:39:01Z</time>
      </trkpt>
      <trkpt lat="47.50482" lon="6.79392">
        <ele>316.1</ele>
        <time>2025-09-13T15:39:02Z</time>
      </trkpt>
      <trkpt lat="47.50483" lon="6.79399">
        <ele>316</ele>
        <time>2025-09-13T15:39:03Z</time>
      </trkpt>
      <trkpt lat="47.50484" lon="6.79408">
        <ele>316</ele>
        <time>2025-09-13T15:39:04Z</time>
      </trkpt>
      <trkpt lat="47.50485" lon="6.79416">
        <ele>316</ele>
        <time>2025-09-13T15:39:05Z</time>
      </trkpt>
      <trkpt lat="47.50483" lon="6.79424">
        <ele>316</ele>
        <time>2025-09-13T15:39:06Z</time>
      </trkpt>
      <trkpt lat="47.50482" lon="6.79432">
        <ele>316</ele>
        <time>2025-09-13T15:39:07Z</time>
      </trkpt>
      <trkpt lat="47.5048" lon="6.79439">
        <ele>316</ele>
        <time>2025-09-13T15:39:08Z</time>
      </trkpt>
      <trkpt lat="47.5048" lon="6.79448">
        <ele>316</ele>
        <time>2025-09-13T15:39:09Z</time>
      </trkpt>
      <trkpt lat="47.50479" lon="6.79456">
        <ele>316</ele>
        <time>2025-09-13T15:39:10Z</time>
      </trkpt>
      <trkpt lat="47.50478" lon="6.79464">
        <ele>316</ele>
        <time>2025-09-13T15:39:11Z</time>
      </trkpt>
      <trkpt lat="47.50478" lon="6.79473">
        <ele>316</ele>
        <time>2025-09-13T15:39:12Z</time>
      </trkpt>
      <trkpt lat="47.50478" lon="6.79483">
        <ele>316</ele>
        <time>2025-09-13T15:39:13Z</time>
      </trkpt>
      <trkpt lat="47.50478" lon="6.79491">
        <ele>316.1</ele>
        <time>2025-09-13T15:39:14Z</time>
      </trkpt>
      <trkpt lat="47.50479" lon="6.79499">
        <ele>316.1</ele>
        <time>2025-09-13T15:39:15Z</time>
      </trkpt>
      <trkpt lat="47.5048" lon="6.79508">
        <ele>316.2</ele>
        <time>2025-09-13T15:39:16Z</time>
      </trkpt>
      <trkpt lat="47.50481" lon="6.79516">
        <ele>316.2</ele>
        <time>2025-09-13T15:39:17Z</time>
      </trkpt>
      <trkpt lat="47.50482" lon="6.79525">
        <ele>316.2</ele>
        <time>2025-09-13T15:39:18Z</time>
      </trkpt>
      <trkpt lat="47.50483" lon="6.79536">
        <ele>316.2</ele>
        <time>2025-09-13T15:39:19Z</time>
      </trkpt>
      <trkpt lat="47.50485" lon="6.79545">
        <ele>316.1</ele>
        <time>2025-09-13T15:39:20Z</time>
      </trkpt>
      <trkpt lat="47.50487" lon="6.79552">
        <ele>316.1</ele>
        <time>2025-09-13T15:39:21Z</time>
      </trkpt>
      <trkpt lat="47.50489" lon="6.79561">
        <ele>316.1</ele>
        <time>2025-09-13T15:39:22Z</time>
      </trkpt>
      <trkpt lat="47.5049" lon="6.7957">
        <ele>316.1</ele>
        <time>2025-09-13T15:39:23Z</time>
      </trkpt>
      <trkpt lat="47.50492" lon="6.7958">
        <ele>316.1</ele>
        <time>2025-09-13T15:39:24Z</time>
      </trkpt>
      <trkpt lat="47.50494" lon="6.79589">
        <ele>316.1</ele>
        <time>2025-09-13T15:39:25Z</time>
      </trkpt>
      <trkpt lat="47.50496" lon="6.79599">
        <ele>316.1</ele>
        <time>2025-09-13T15:39:26Z</time>
      </trkpt>
      <trkpt lat="47.50497" lon="6.79608">
        <ele>316.1</ele>
        <time>2025-09-13T15:39:27Z</time>
      </trkpt>
      <trkpt lat="47.50498" lon="6.79617">
        <ele>316.1</ele>
        <time>2025-09-13T15:39:28Z</time>
      </trkpt>
      <trkpt lat="47.505" lon="6.79627">
        <ele>316.1</ele>
        <time>2025-09-13T15:39:29Z</time>
      </trkpt>
      <trkpt lat="47.50501" lon="6.79635">
        <ele>316.1</ele>
        <time>2025-09-13T15:39:30Z</time>
      </trkpt>
      <trkpt lat="47.50502" lon="6.79645">
        <ele>316</ele>
        <time>2025-09-13T15:39:31Z</time>
      </trkpt>
      <trkpt lat="47.50504" lon="6.79655">
        <ele>316</ele>
        <time>2025-09-13T15:39:32Z</time>
      </trkpt>
      <trkpt lat="47.50506" lon="6.79663">
        <ele>316</ele>
        <time>2025-09-13T15:39:33Z</time>
      </trkpt>
      <trkpt lat="47.50507" lon="6.79674">
        <ele>316</ele>
        <time>2025-09-13T15:39:34Z</time>
      </trkpt>
      <trkpt lat="47.50508" lon="6.79684">
        <ele>316</ele>
        <time>2025-09-13T15:39:35Z</time>
      </trkpt>
      <trkpt lat="47.5051" lon="6.79694">
        <ele>316</ele>
        <time>2025-09-13T15:39:36Z</time>
      </trkpt>
      <trkpt lat="47.5051" lon="6.79704">
        <ele>316</ele>
        <time>2025-09-13T15:39:37Z</time>
      </trkpt>
      <trkpt lat="47.50511" lon="6.79715">
        <ele>316</ele>
        <time>2025-09-13T15:39:38Z</time>
      </trkpt>
      <trkpt lat="47.50512" lon="6.79724">
        <ele>316</ele>
        <time>2025-09-13T15:39:39Z</time>
      </trkpt>
      <trkpt lat="47.50514" lon="6.79733">
        <ele>316.1</ele>
        <time>2025-09-13T15:39:40Z</time>
      </trkpt>
      <trkpt lat="47.50514" lon="6.79743">
        <ele>316.1</ele>
        <time>2025-09-13T15:39:41Z</time>
      </trkpt>
      <trkpt lat="47.50515" lon="6.79752">
        <ele>316.1</ele>
        <time>2025-09-13T15:39:42Z</time>
      </trkpt>
      <trkpt lat="47.50516" lon="6.79763">
        <ele>316.2</ele>
        <time>2025-09-13T15:39:43Z</time>
      </trkpt>
      <trkpt lat="47.50516" lon="6.79773">
        <ele>316.2</ele>
        <time>2025-09-13T15:39:44Z</time>
      </trkpt>
      <trkpt lat="47.50517" lon="6.79782">
        <ele>316.3</ele>
        <time>2025-09-13T15:39:45Z</time>
      </trkpt>
      <trkpt lat="47.50518" lon="6.79792">
        <ele>316.4</ele>
        <time>2025-09-13T15:39:46Z</time>
      </trkpt>
      <trkpt lat="47.50518" lon="6.79801">
        <ele>316.5</ele>
        <time>2025-09-13T15:39:47Z</time>
      </trkpt>
      <trkpt lat="47.50519" lon="6.7981">
        <ele>316.5</ele>
        <time>2025-09-13T15:39:48Z</time>
      </trkpt>
      <trkpt lat="47.50519" lon="6.7982">
        <ele>316.6</ele>
        <time>2025-09-13T15:39:49Z</time>
      </trkpt>
      <trkpt lat="47.50519" lon="6.79829">
        <ele>316.7</ele>
        <time>2025-09-13T15:39:50Z</time>
      </trkpt>
      <trkpt lat="47.50519" lon="6.79838">
        <ele>316.8</ele>
        <time>2025-09-13T15:39:52Z</time>
      </trkpt>
      <trkpt lat="47.50519" lon="6.79858">
        <ele>316.9</ele>
        <time>2025-09-13T15:39:53Z</time>
      </trkpt>
      <trkpt lat="47.50518" lon="6.79877">
        <ele>317</ele>
        <time>2025-09-13T15:39:55Z</time>
      </trkpt>
      <trkpt lat="47.50517" lon="6.79886">
        <ele>317</ele>
        <time>2025-09-13T15:39:57Z</time>
      </trkpt>
      <trkpt lat="47.50517" lon="6.79895">
        <ele>317</ele>
        <time>2025-09-13T15:39:58Z</time>
      </trkpt>
      <trkpt lat="47.50516" lon="6.79904">
        <ele>317</ele>
        <time>2025-09-13T15:39:59Z</time>
      </trkpt>
      <trkpt lat="47.50516" lon="6.79913">
        <ele>317</ele>
        <time>2025-09-13T15:40:00Z</time>
      </trkpt>
      <trkpt lat="47.50516" lon="6.79923">
        <ele>317</ele>
        <time>2025-09-13T15:40:01Z</time>
      </trkpt>
      <trkpt lat="47.50515" lon="6.79934">
        <ele>317</ele>
        <time>2025-09-13T15:40:02Z</time>
      </trkpt>
      <trkpt lat="47.50515" lon="6.79944">
        <ele>317</ele>
        <time>2025-09-13T15:40:03Z</time>
      </trkpt>
      <trkpt lat="47.50514" lon="6.79954">
        <ele>317</ele>
        <time>2025-09-13T15:40:04Z</time>
      </trkpt>
      <trkpt lat="47.50514" lon="6.79964">
        <ele>317</ele>
        <time>2025-09-13T15:40:05Z</time>
      </trkpt>
      <trkpt lat="47.50513" lon="6.79983">
        <ele>317.1</ele>
        <time>2025-09-13T15:40:06Z</time>
      </trkpt>
      <trkpt lat="47.50512" lon="6.79993">
        <ele>317.1</ele>
        <time>2025-09-13T15:40:07Z</time>
      </trkpt>
      <trkpt lat="47.50512" lon="6.80003">
        <ele>317.1</ele>
        <time>2025-09-13T15:40:08Z</time>
      </trkpt>
      <trkpt lat="47.50511" lon="6.80013">
        <ele>317.1</ele>
        <time>2025-09-13T15:40:09Z</time>
      </trkpt>
      <trkpt lat="47.50511" lon="6.80021">
        <ele>317.2</ele>
        <time>2025-09-13T15:40:10Z</time>
      </trkpt>
      <trkpt lat="47.5051" lon="6.80032">
        <ele>317.2</ele>
        <time>2025-09-13T15:40:11Z</time>
      </trkpt>
      <trkpt lat="47.50509" lon="6.80042">
        <ele>317.2</ele>
        <time>2025-09-13T15:40:12Z</time>
      </trkpt>
      <trkpt lat="47.50509" lon="6.80051">
        <ele>317.2</ele>
        <time>2025-09-13T15:40:13Z</time>
      </trkpt>
      <trkpt lat="47.50509" lon="6.80062">
        <ele>317.2</ele>
        <time>2025-09-13T15:40:14Z</time>
      </trkpt>
      <trkpt lat="47.50509" lon="6.80073">
        <ele>317.2</ele>
        <time>2025-09-13T15:40:15Z</time>
      </trkpt>
      <trkpt lat="47.50508" lon="6.80083">
        <ele>317.3</ele>
        <time>2025-09-13T15:40:16Z</time>
      </trkpt>
      <trkpt lat="47.50507" lon="6.80093">
        <ele>317.3</ele>
        <time>2025-09-13T15:40:17Z</time>
      </trkpt>
      <trkpt lat="47.50507" lon="6.80103">
        <ele>317.3</ele>
        <time>2025-09-13T15:40:18Z</time>
      </trkpt>
      <trkpt lat="47.50507" lon="6.80113">
        <ele>317.3</ele>
        <time>2025-09-13T15:40:19Z</time>
      </trkpt>
      <trkpt lat="47.50507" lon="6.80123">
        <ele>317.3</ele>
        <time>2025-09-13T15:40:20Z</time>
      </trkpt>
      <trkpt lat="47.50507" lon="6.80132">
        <ele>317.3</ele>
        <time>2025-09-13T15:40:21Z</time>
      </trkpt>
      <trkpt lat="47.50506" lon="6.80143">
        <ele>317.3</ele>
        <time>2025-09-13T15:40:22Z</time>
      </trkpt>
      <trkpt lat="47.50506" lon="6.80153">
        <ele>317.3</ele>
        <time>2025-09-13T15:40:23Z</time>
      </trkpt>
      <trkpt lat="47.50506" lon="6.80163">
        <ele>317.3</ele>
        <time>2025-09-13T15:40:24Z</time>
      </trkpt>
      <trkpt lat="47.50505" lon="6.80174">
        <ele>317.3</ele>
        <time>2025-09-13T15:40:25Z</time>
      </trkpt>
      <trkpt lat="47.50505" lon="6.80184">
        <ele>317.3</ele>
        <time>2025-09-13T15:40:26Z</time>
      </trkpt>
      <trkpt lat="47.50504" lon="6.80194">
        <ele>317.3</ele>
        <time>2025-09-13T15:40:27Z</time>
      </trkpt>
      <trkpt lat="47.50504" lon="6.80204">
        <ele>317.3</ele>
        <time>2025-09-13T15:40:28Z</time>
      </trkpt>
      <trkpt lat="47.50504" lon="6.80214">
        <ele>317.3</ele>
        <time>2025-09-13T15:40:29Z</time>
      </trkpt>
      <trkpt lat="47.50503" lon="6.80224">
        <ele>317.3</ele>
        <time>2025-09-13T15:40:30Z</time>
      </trkpt>
      <trkpt lat="47.50503" lon="6.80234">
        <ele>317.3</ele>
        <time>2025-09-13T15:40:31Z</time>
      </trkpt>
      <trkpt lat="47.50503" lon="6.80245">
        <ele>317.3</ele>
        <time>2025-09-13T15:40:32Z</time>
      </trkpt>
      <trkpt lat="47.50503" lon="6.80255">
        <ele>317.2</ele>
        <time>2025-09-13T15:40:33Z</time>
      </trkpt>
      <trkpt lat="47.50502" lon="6.80265">
        <ele>317.2</ele>
        <time>2025-09-13T15:40:34Z</time>
      </trkpt>
      <trkpt lat="47.50501" lon="6.80276">
        <ele>317.1</ele>
        <time>2025-09-13T15:40:35Z</time>
      </trkpt>
      <trkpt lat="47.50501" lon="6.80286">
        <ele>317.1</ele>
        <time>2025-09-13T15:40:36Z</time>
      </trkpt>
      <trkpt lat="47.505" lon="6.80296">
        <ele>317</ele>
        <time>2025-09-13T15:40:37Z</time>
      </trkpt>
      <trkpt lat="47.50501" lon="6.80305">
        <ele>317</ele>
        <time>2025-09-13T15:40:38Z</time>
      </trkpt>
      <trkpt lat="47.50501" lon="6.80315">
        <ele>317</ele>
        <time>2025-09-13T15:40:39Z</time>
      </trkpt>
      <trkpt lat="47.505" lon="6.80325">
        <ele>316.9</ele>
        <time>2025-09-13T15:40:40Z</time>
      </trkpt>
      <trkpt lat="47.50499" lon="6.80335">
        <ele>316.9</ele>
        <time>2025-09-13T15:40:41Z</time>
      </trkpt>
      <trkpt lat="47.505" lon="6.80344">
        <ele>317</ele>
        <time>2025-09-13T15:40:42Z</time>
      </trkpt>
      <trkpt lat="47.505" lon="6.80352">
        <ele>317</ele>
        <time>2025-09-13T15:40:43Z</time>
      </trkpt>
      <trkpt lat="47.50499" lon="6.80361">
        <ele>316.9</ele>
        <time>2025-09-13T15:40:44Z</time>
      </trkpt>
      <trkpt lat="47.50499" lon="6.80371">
        <ele>316.9</ele>
        <time>2025-09-13T15:40:45Z</time>
      </trkpt>
      <trkpt lat="47.50499" lon="6.80379">
        <ele>316.9</ele>
        <time>2025-09-13T15:40:46Z</time>
      </trkpt>
      <trkpt lat="47.50498" lon="6.80388">
        <ele>316.9</ele>
        <time>2025-09-13T15:40:47Z</time>
      </trkpt>
      <trkpt lat="47.50498" lon="6.80395">
        <ele>316.9</ele>
        <time>2025-09-13T15:40:48Z</time>
      </trkpt>
      <trkpt lat="47.50498" lon="6.80403">
        <ele>317</ele>
        <time>2025-09-13T15:40:49Z</time>
      </trkpt>
      <trkpt lat="47.50501" lon="6.80411">
        <ele>317</ele>
        <time>2025-09-13T15:40:50Z</time>
      </trkpt>
      <trkpt lat="47.50505" lon="6.8042">
        <ele>317.2</ele>
        <time>2025-09-13T15:40:51Z</time>
      </trkpt>
      <trkpt lat="47.5051" lon="6.80424">
        <ele>317.4</ele>
        <time>2025-09-13T15:40:52Z</time>
      </trkpt>
      <trkpt lat="47.50513" lon="6.80426">
        <ele>317.5</ele>
        <time>2025-09-13T15:40:53Z</time>
      </trkpt>
      <trkpt lat="47.50516" lon="6.80429">
        <ele>317.6</ele>
        <time>2025-09-13T15:40:54Z</time>
      </trkpt>
      <trkpt lat="47.50517" lon="6.80434">
        <ele>317.8</ele>
        <time>2025-09-13T15:40:55Z</time>
      </trkpt>
      <trkpt lat="47.5052" lon="6.80438">
        <ele>318</ele>
        <time>2025-09-13T15:40:56Z</time>
      </trkpt>
      <trkpt lat="47.50526" lon="6.80437">
        <ele>318.2</ele>
        <time>2025-09-13T15:40:57Z</time>
      </trkpt>
      <trkpt lat="47.50531" lon="6.80438">
        <ele>318.4</ele>
        <time>2025-09-13T15:40:58Z</time>
      </trkpt>
      <trkpt lat="47.50534" lon="6.80433">
        <ele>318.6</ele>
        <time>2025-09-13T15:40:59Z</time>
      </trkpt>
      <trkpt lat="47.50535" lon="6.80427">
        <ele>318.8</ele>
        <time>2025-09-13T15:41:00Z</time>
      </trkpt>
      <trkpt lat="47.50535" lon="6.80423">
        <ele>319</ele>
        <time>2025-09-13T15:41:01Z</time>
      </trkpt>
      <trkpt lat="47.50533" lon="6.80417">
        <ele>319.2</ele>
        <time>2025-09-13T15:41:02Z</time>
      </trkpt>
      <trkpt lat="47.50532" lon="6.8041">
        <ele>319.4</ele>
        <time>2025-09-13T15:41:03Z</time>
      </trkpt>
      <trkpt lat="47.50534" lon="6.80404">
        <ele>319.5</ele>
        <time>2025-09-13T15:41:04Z</time>
      </trkpt>
      <trkpt lat="47.50538" lon="6.80405">
        <ele>319.7</ele>
        <time>2025-09-13T15:41:05Z</time>
      </trkpt>
      <trkpt lat="47.50542" lon="6.8041">
        <ele>319.9</ele>
        <time>2025-09-13T15:41:06Z</time>
      </trkpt>
      <trkpt lat="47.50544" lon="6.80416">
        <ele>320</ele>
        <time>2025-09-13T15:41:07Z</time>
      </trkpt>
      <trkpt lat="47.50542" lon="6.80425">
        <ele>320.2</ele>
        <time>2025-09-13T15:41:08Z</time>
      </trkpt>
      <trkpt lat="47.50541" lon="6.8043">
        <ele>320.3</ele>
        <time>2025-09-13T15:41:09Z</time>
      </trkpt>
      <trkpt lat="47.5054" lon="6.80436">
        <ele>320.4</ele>
        <time>2025-09-13T15:41:10Z</time>
      </trkpt>
      <trkpt lat="47.5054" lon="6.80437">
        <ele>320.4</ele>
        <time>2025-09-13T15:41:11Z</time>
      </trkpt>
      <trkpt lat="47.5054" lon="6.80441">
        <ele>320.5</ele>
        <time>2025-09-13T15:41:12Z</time>
      </trkpt>
      <trkpt lat="47.5054" lon="6.80446">
        <ele>320.6</ele>
        <time>2025-09-13T15:41:13Z</time>
      </trkpt>
      <trkpt lat="47.50539" lon="6.80448">
        <ele>320.7</ele>
        <time>2025-09-13T15:41:14Z</time>
      </trkpt>
      <trkpt lat="47.5054" lon="6.8045">
        <ele>320.7</ele>
        <time>2025-09-13T15:41:15Z</time>
      </trkpt>
      <trkpt lat="47.50539" lon="6.80453">
        <ele>320.8</ele>
        <time>2025-09-13T15:41:16Z</time>
      </trkpt>
      <trkpt lat="47.50537" lon="6.80456">
        <ele>320.9</ele>
        <time>2025-09-13T15:41:17Z</time>
      </trkpt>
      <trkpt lat="47.50534" lon="6.80456">
        <ele>320.9</ele>
        <time>2025-09-13T15:41:18Z</time>
      </trkpt>
      <trkpt lat="47.50533" lon="6.80455">
        <ele>320.9</ele>
        <time>2025-09-13T15:41:19Z</time>
      </trkpt>
      <trkpt lat="47.50529" lon="6.80453">
        <ele>320.9</ele>
        <time>2025-09-13T15:41:20Z</time>
      </trkpt>
      <trkpt lat="47.50523" lon="6.80452">
        <ele>320.9</ele>
        <time>2025-09-13T15:41:21Z</time>
      </trkpt>
      <trkpt lat="47.50518" lon="6.80451">
        <ele>321</ele>
        <time>2025-09-13T15:41:22Z</time>
      </trkpt>
      <trkpt lat="47.50513" lon="6.8045">
        <ele>321.1</ele>
        <time>2025-09-13T15:41:23Z</time>
      </trkpt>
      <trkpt lat="47.50507" lon="6.8045">
        <ele>321.1</ele>
        <time>2025-09-13T15:41:24Z</time>
      </trkpt>
      <trkpt lat="47.50502" lon="6.8045">
        <ele>321.2</ele>
        <time>2025-09-13T15:41:25Z</time>
      </trkpt>
      <trkpt lat="47.50497" lon="6.8045">
        <ele>321.3</ele>
        <time>2025-09-13T15:41:26Z</time>
      </trkpt>
      <trkpt lat="47.50492" lon="6.80451">
        <ele>321.3</ele>
        <time>2025-09-13T15:41:27Z</time>
      </trkpt>
      <trkpt lat="47.50487" lon="6.80451">
        <ele>321.4</ele>
        <time>2025-09-13T15:41:28Z</time>
      </trkpt>
      <trkpt lat="47.50481" lon="6.80447">
        <ele>321.4</ele>
        <time>2025-09-13T15:41:29Z</time>
      </trkpt>
      <trkpt lat="47.50476" lon="6.80447">
        <ele>321.5</ele>
        <time>2025-09-13T15:41:30Z</time>
      </trkpt>
      <trkpt lat="47.50472" lon="6.80448">
        <ele>321.5</ele>
        <time>2025-09-13T15:41:31Z</time>
      </trkpt>
      <trkpt lat="47.50468" lon="6.80449">
        <ele>321.5</ele>
        <time>2025-09-13T15:41:32Z</time>
      </trkpt>
      <trkpt lat="47.50464" lon="6.8045">
        <ele>321.5</ele>
        <time>2025-09-13T15:41:33Z</time>
      </trkpt>
      <trkpt lat="47.5046" lon="6.8045">
        <ele>321.5</ele>
        <time>2025-09-13T15:41:34Z</time>
      </trkpt>
      <trkpt lat="47.50455" lon="6.80451">
        <ele>321.5</ele>
        <time>2025-09-13T15:41:35Z</time>
      </trkpt>
      <trkpt lat="47.5045" lon="6.80452">
        <ele>321.4</ele>
        <time>2025-09-13T15:41:36Z</time>
      </trkpt>
      <trkpt lat="47.50445" lon="6.80453">
        <ele>321.2</ele>
        <time>2025-09-13T15:41:37Z</time>
      </trkpt>
      <trkpt lat="47.5044" lon="6.80451">
        <ele>321</ele>
        <time>2025-09-13T15:41:38Z</time>
      </trkpt>
      <trkpt lat="47.50436" lon="6.80445">
        <ele>320.8</ele>
        <time>2025-09-13T15:41:39Z</time>
      </trkpt>
      <trkpt lat="47.50436" lon="6.8044">
        <ele>320.6</ele>
        <time>2025-09-13T15:41:40Z</time>
      </trkpt>
      <trkpt lat="47.50438" lon="6.80431">
        <ele>320.3</ele>
        <time>2025-09-13T15:41:41Z</time>
      </trkpt>
      <trkpt lat="47.50442" lon="6.80425">
        <ele>320</ele>
        <time>2025-09-13T15:41:42Z</time>
      </trkpt>
      <trkpt lat="47.50446" lon="6.80419">
        <ele>319.7</ele>
        <time>2025-09-13T15:41:43Z</time>
      </trkpt>
      <trkpt lat="47.50451" lon="6.80418">
        <ele>319.4</ele>
        <time>2025-09-13T15:41:44Z</time>
      </trkpt>
      <trkpt lat="47.50457" lon="6.80422">
        <ele>319.1</ele>
        <time>2025-09-13T15:41:45Z</time>
      </trkpt>
      <trkpt lat="47.50461" lon="6.80426">
        <ele>318.8</ele>
        <time>2025-09-13T15:41:46Z</time>
      </trkpt>
      <trkpt lat="47.50465" lon="6.80434">
        <ele>318.5</ele>
        <time>2025-09-13T15:41:47Z</time>
      </trkpt>
      <trkpt lat="47.50467" lon="6.80442">
        <ele>318.3</ele>
        <time>2025-09-13T15:41:48Z</time>
      </trkpt>
      <trkpt lat="47.50467" lon="6.80451">
        <ele>318.2</ele>
        <time>2025-09-13T15:41:49Z</time>
      </trkpt>
      <trkpt lat="47.50468" lon="6.80461">
        <ele>318</ele>
        <time>2025-09-13T15:41:50Z</time>
      </trkpt>
      <trkpt lat="47.50468" lon="6.80471">
        <ele>317.8</ele>
        <time>2025-09-13T15:41:51Z</time>
      </trkpt>
      <trkpt lat="47.50469" lon="6.80482">
        <ele>317.6</ele>
        <time>2025-09-13T15:41:52Z</time>
      </trkpt>
      <trkpt lat="47.50469" lon="6.80493">
        <ele>317.5</ele>
        <time>2025-09-13T15:41:53Z</time>
      </trkpt>
      <trkpt lat="47.50467" lon="6.80502">
        <ele>317.4</ele>
        <time>2025-09-13T15:41:54Z</time>
      </trkpt>
      <trkpt lat="47.50465" lon="6.80513">
        <ele>317.3</ele>
        <time>2025-09-13T15:41:55Z</time>
      </trkpt>
      <trkpt lat="47.50465" lon="6.80524">
        <ele>317.3</ele>
        <time>2025-09-13T15:41:57Z</time>
      </trkpt>
      <trkpt lat="47.50466" lon="6.80534">
        <ele>317.3</ele>
        <time>2025-09-13T15:41:58Z</time>
      </trkpt>
      <trkpt lat="47.50465" lon="6.80543">
        <ele>317.3</ele>
        <time>2025-09-13T15:41:59Z</time>
      </trkpt>
      <trkpt lat="47.50464" lon="6.80553">
        <ele>317.2</ele>
        <time>2025-09-13T15:42:00Z</time>
      </trkpt>
      <trkpt lat="47.50464" lon="6.80563">
        <ele>317.2</ele>
        <time>2025-09-13T15:42:01Z</time>
      </trkpt>
      <trkpt lat="47.50464" lon="6.80573">
        <ele>317.2</ele>
        <time>2025-09-13T15:42:02Z</time>
      </trkpt>
      <trkpt lat="47.50464" lon="6.80582">
        <ele>317.2</ele>
        <time>2025-09-13T15:42:03Z</time>
      </trkpt>
      <trkpt lat="47.50464" lon="6.80592">
        <ele>317.2</ele>
        <time>2025-09-13T15:42:04Z</time>
      </trkpt>
      <trkpt lat="47.50463" lon="6.80603">
        <ele>317.2</ele>
        <time>2025-09-13T15:42:05Z</time>
      </trkpt>
      <trkpt lat="47.50463" lon="6.80613">
        <ele>317.2</ele>
        <time>2025-09-13T15:42:06Z</time>
      </trkpt>
      <trkpt lat="47.50462" lon="6.80623">
        <ele>317.2</ele>
        <time>2025-09-13T15:42:07Z</time>
      </trkpt>
      <trkpt lat="47.50462" lon="6.80633">
        <ele>317.2</ele>
        <time>2025-09-13T15:42:08Z</time>
      </trkpt>
      <trkpt lat="47.50462" lon="6.80643">
        <ele>317.2</ele>
        <time>2025-09-13T15:42:09Z</time>
      </trkpt>
      <trkpt lat="47.50461" lon="6.80653">
        <ele>317.3</ele>
        <time>2025-09-13T15:42:10Z</time>
      </trkpt>
      <trkpt lat="47.50462" lon="6.80664">
        <ele>317.3</ele>
        <time>2025-09-13T15:42:11Z</time>
      </trkpt>
      <trkpt lat="47.50461" lon="6.80684">
        <ele>317.2</ele>
        <time>2025-09-13T15:42:12Z</time>
      </trkpt>
      <trkpt lat="47.5046" lon="6.80694">
        <ele>317.2</ele>
        <time>2025-09-13T15:42:13Z</time>
      </trkpt>
      <trkpt lat="47.50461" lon="6.80703">
        <ele>317.2</ele>
        <time>2025-09-13T15:42:14Z</time>
      </trkpt>
      <trkpt lat="47.5046" lon="6.80713">
        <ele>317.2</ele>
        <time>2025-09-13T15:42:15Z</time>
      </trkpt>
      <trkpt lat="47.50459" lon="6.80723">
        <ele>317.3</ele>
        <time>2025-09-13T15:42:16Z</time>
      </trkpt>
      <trkpt lat="47.50458" lon="6.80733">
        <ele>317.3</ele>
        <time>2025-09-13T15:42:17Z</time>
      </trkpt>
      <trkpt lat="47.50457" lon="6.80744">
        <ele>317.4</ele>
        <time>2025-09-13T15:42:18Z</time>
      </trkpt>
      <trkpt lat="47.50457" lon="6.80753">
        <ele>317.4</ele>
        <time>2025-09-13T15:42:19Z</time>
      </trkpt>
      <trkpt lat="47.50456" lon="6.80763">
        <ele>317.5</ele>
        <time>2025-09-13T15:42:20Z</time>
      </trkpt>
      <trkpt lat="47.50455" lon="6.80773">
        <ele>317.7</ele>
        <time>2025-09-13T15:42:21Z</time>
      </trkpt>
      <trkpt lat="47.50453" lon="6.80784">
        <ele>317.9</ele>
        <time>2025-09-13T15:42:22Z</time>
      </trkpt>
      <trkpt lat="47.50451" lon="6.80793">
        <ele>318.1</ele>
        <time>2025-09-13T15:42:23Z</time>
      </trkpt>
      <trkpt lat="47.50449" lon="6.80802">
        <ele>318.2</ele>
        <time>2025-09-13T15:42:24Z</time>
      </trkpt>
      <trkpt lat="47.50447" lon="6.80811">
        <ele>318.3</ele>
        <time>2025-09-13T15:42:25Z</time>
      </trkpt>
      <trkpt lat="47.50448" lon="6.80821">
        <ele>318.4</ele>
        <time>2025-09-13T15:42:26Z</time>
      </trkpt>
      <trkpt lat="47.50448" lon="6.8083">
        <ele>318.3</ele>
        <time>2025-09-13T15:42:27Z</time>
      </trkpt>
      <trkpt lat="47.50449" lon="6.80839">
        <ele>318.2</ele>
        <time>2025-09-13T15:42:28Z</time>
      </trkpt>
      <trkpt lat="47.5045" lon="6.8085">
        <ele>318</ele>
        <time>2025-09-13T15:42:29Z</time>
      </trkpt>
      <trkpt lat="47.50452" lon="6.8086">
        <ele>317.9</ele>
        <time>2025-09-13T15:42:30Z</time>
      </trkpt>
      <trkpt lat="47.50451" lon="6.80871">
        <ele>317.9</ele>
        <time>2025-09-13T15:42:31Z</time>
      </trkpt>
      <trkpt lat="47.50451" lon="6.80881">
        <ele>317.8</ele>
        <time>2025-09-13T15:42:32Z</time>
      </trkpt>
      <trkpt lat="47.5045" lon="6.80892">
        <ele>317.8</ele>
        <time>2025-09-13T15:42:33Z</time>
      </trkpt>
      <trkpt lat="47.50449" lon="6.80903">
        <ele>317.8</ele>
        <time>2025-09-13T15:42:34Z</time>
      </trkpt>
      <trkpt lat="47.50448" lon="6.80914">
        <ele>317.8</ele>
        <time>2025-09-13T15:42:35Z</time>
      </trkpt>
      <trkpt lat="47.50447" lon="6.80924">
        <ele>317.8</ele>
        <time>2025-09-13T15:42:36Z</time>
      </trkpt>
      <trkpt lat="47.50446" lon="6.80935">
        <ele>317.8</ele>
        <time>2025-09-13T15:42:37Z</time>
      </trkpt>
      <trkpt lat="47.50446" lon="6.80945">
        <ele>317.8</ele>
        <time>2025-09-13T15:42:38Z</time>
      </trkpt>
      <trkpt lat="47.50445" lon="6.80955">
        <ele>317.8</ele>
        <time>2025-09-13T15:42:39Z</time>
      </trkpt>
      <trkpt lat="47.50444" lon="6.80966">
        <ele>317.8</ele>
        <time>2025-09-13T15:42:40Z</time>
      </trkpt>
      <trkpt lat="47.50443" lon="6.80977">
        <ele>317.7</ele>
        <time>2025-09-13T15:42:41Z</time>
      </trkpt>
      <trkpt lat="47.50443" lon="6.80987">
        <ele>317.7</ele>
        <time>2025-09-13T15:42:42Z</time>
      </trkpt>
      <trkpt lat="47.50443" lon="6.80997">
        <ele>317.7</ele>
        <time>2025-09-13T15:42:43Z</time>
      </trkpt>
      <trkpt lat="47.50443" lon="6.81009">
        <ele>317.7</ele>
        <time>2025-09-13T15:42:44Z</time>
      </trkpt>
      <trkpt lat="47.50442" lon="6.81018">
        <ele>317.7</ele>
        <time>2025-09-13T15:42:45Z</time>
      </trkpt>
      <trkpt lat="47.50441" lon="6.81027">
        <ele>317.7</ele>
        <time>2025-09-13T15:42:46Z</time>
      </trkpt>
      <trkpt lat="47.50439" lon="6.81039">
        <ele>317.7</ele>
        <time>2025-09-13T15:42:47Z</time>
      </trkpt>
      <trkpt lat="47.50439" lon="6.81048">
        <ele>317.7</ele>
        <time>2025-09-13T15:42:48Z</time>
      </trkpt>
      <trkpt lat="47.5044" lon="6.8106">
        <ele>317.7</ele>
        <time>2025-09-13T15:42:49Z</time>
      </trkpt>
      <trkpt lat="47.50438" lon="6.81069">
        <ele>317.7</ele>
        <time>2025-09-13T15:42:50Z</time>
      </trkpt>
      <trkpt lat="47.50437" lon="6.81077">
        <ele>317.7</ele>
        <time>2025-09-13T15:42:51Z</time>
      </trkpt>
      <trkpt lat="47.50437" lon="6.81089">
        <ele>317.8</ele>
        <time>2025-09-13T15:42:52Z</time>
      </trkpt>
      <trkpt lat="47.50436" lon="6.81098">
        <ele>317.8</ele>
        <time>2025-09-13T15:42:53Z</time>
      </trkpt>
      <trkpt lat="47.50435" lon="6.81109">
        <ele>317.9</ele>
        <time>2025-09-13T15:42:54Z</time>
      </trkpt>
      <trkpt lat="47.50436" lon="6.81121">
        <ele>317.9</ele>
        <time>2025-09-13T15:42:55Z</time>
      </trkpt>
      <trkpt lat="47.50435" lon="6.81131">
        <ele>318</ele>
        <time>2025-09-13T15:42:56Z</time>
      </trkpt>
      <trkpt lat="47.50435" lon="6.81142">
        <ele>318</ele>
        <time>2025-09-13T15:42:57Z</time>
      </trkpt>
      <trkpt lat="47.50434" lon="6.81153">
        <ele>318.1</ele>
        <time>2025-09-13T15:42:58Z</time>
      </trkpt>
      <trkpt lat="47.50434" lon="6.81163">
        <ele>318.1</ele>
        <time>2025-09-13T15:42:59Z</time>
      </trkpt>
      <trkpt lat="47.50433" lon="6.81173">
        <ele>318.2</ele>
        <time>2025-09-13T15:43:00Z</time>
      </trkpt>
      <trkpt lat="47.50433" lon="6.81183">
        <ele>318.2</ele>
        <time>2025-09-13T15:43:01Z</time>
      </trkpt>
      <trkpt lat="47.50431" lon="6.81187">
        <ele>318.3</ele>
        <time>2025-09-13T15:43:02Z</time>
      </trkpt>
      <trkpt lat="47.50428" lon="6.81195">
        <ele>318.4</ele>
        <time>2025-09-13T15:43:03Z</time>
      </trkpt>
      <trkpt lat="47.50427" lon="6.81207">
        <ele>318.5</ele>
        <time>2025-09-13T15:43:04Z</time>
      </trkpt>
      <trkpt lat="47.50426" lon="6.81216">
        <ele>318.7</ele>
        <time>2025-09-13T15:43:05Z</time>
      </trkpt>
      <trkpt lat="47.50424" lon="6.81226">
        <ele>318.7</ele>
        <time>2025-09-13T15:43:06Z</time>
      </trkpt>
      <trkpt lat="47.50422" lon="6.81235">
        <ele>318.8</ele>
        <time>2025-09-13T15:43:07Z</time>
      </trkpt>
      <trkpt lat="47.5042" lon="6.81244">
        <ele>318.8</ele>
        <time>2025-09-13T15:43:08Z</time>
      </trkpt>
      <trkpt lat="47.50417" lon="6.81253">
        <ele>318.7</ele>
        <time>2025-09-13T15:43:09Z</time>
      </trkpt>
      <trkpt lat="47.50415" lon="6.81262">
        <ele>318.7</ele>
        <time>2025-09-13T15:43:10Z</time>
      </trkpt>
      <trkpt lat="47.50414" lon="6.81271">
        <ele>318.6</ele>
        <time>2025-09-13T15:43:11Z</time>
      </trkpt>
      <trkpt lat="47.50414" lon="6.81281">
        <ele>318.6</ele>
        <time>2025-09-13T15:43:12Z</time>
      </trkpt>
      <trkpt lat="47.50414" lon="6.8129">
        <ele>318.6</ele>
        <time>2025-09-13T15:43:13Z</time>
      </trkpt>
      <trkpt lat="47.50414" lon="6.813">
        <ele>318.5</ele>
        <time>2025-09-13T15:43:14Z</time>
      </trkpt>
      <trkpt lat="47.50415" lon="6.81312">
        <ele>318.5</ele>
        <time>2025-09-13T15:43:15Z</time>
      </trkpt>
      <trkpt lat="47.50415" lon="6.81325">
        <ele>318.5</ele>
        <time>2025-09-13T15:43:16Z</time>
      </trkpt>
      <trkpt lat="47.50414" lon="6.81335">
        <ele>318.5</ele>
        <time>2025-09-13T15:43:17Z</time>
      </trkpt>
      <trkpt lat="47.50413" lon="6.81344">
        <ele>318.5</ele>
        <time>2025-09-13T15:43:18Z</time>
      </trkpt>
      <trkpt lat="47.50412" lon="6.81354">
        <ele>318.5</ele>
        <time>2025-09-13T15:43:19Z</time>
      </trkpt>
      <trkpt lat="47.50412" lon="6.81364">
        <ele>318.5</ele>
        <time>2025-09-13T15:43:20Z</time>
      </trkpt>
      <trkpt lat="47.5041" lon="6.81374">
        <ele>318.4</ele>
        <time>2025-09-13T15:43:21Z</time>
      </trkpt>
      <trkpt lat="47.50409" lon="6.81382">
        <ele>318.4</ele>
        <time>2025-09-13T15:43:22Z</time>
      </trkpt>
      <trkpt lat="47.50409" lon="6.81393">
        <ele>318.4</ele>
        <time>2025-09-13T15:43:23Z</time>
      </trkpt>
      <trkpt lat="47.50408" lon="6.81404">
        <ele>318.4</ele>
        <time>2025-09-13T15:43:24Z</time>
      </trkpt>
      <trkpt lat="47.50408" lon="6.81414">
        <ele>318.3</ele>
        <time>2025-09-13T15:43:25Z</time>
      </trkpt>
      <trkpt lat="47.50408" lon="6.81426">
        <ele>318.3</ele>
        <time>2025-09-13T15:43:26Z</time>
      </trkpt>
      <trkpt lat="47.50407" lon="6.81436">
        <ele>318.4</ele>
        <time>2025-09-13T15:43:27Z</time>
      </trkpt>
      <trkpt lat="47.50408" lon="6.81446">
        <ele>318.4</ele>
        <time>2025-09-13T15:43:28Z</time>
      </trkpt>
      <trkpt lat="47.50407" lon="6.81456">
        <ele>318.5</ele>
        <time>2025-09-13T15:43:29Z</time>
      </trkpt>
      <trkpt lat="47.50407" lon="6.81466">
        <ele>318.5</ele>
        <time>2025-09-13T15:43:30Z</time>
      </trkpt>
      <trkpt lat="47.50406" lon="6.81477">
        <ele>318.5</ele>
        <time>2025-09-13T15:43:31Z</time>
      </trkpt>
      <trkpt lat="47.50406" lon="6.81488">
        <ele>318.5</ele>
        <time>2025-09-13T15:43:32Z</time>
      </trkpt>
      <trkpt lat="47.50406" lon="6.81498">
        <ele>318.4</ele>
        <time>2025-09-13T15:43:33Z</time>
      </trkpt>
      <trkpt lat="47.50406" lon="6.81509">
        <ele>318.4</ele>
        <time>2025-09-13T15:43:34Z</time>
      </trkpt>
      <trkpt lat="47.50405" lon="6.8152">
        <ele>318.4</ele>
        <time>2025-09-13T15:43:35Z</time>
      </trkpt>
      <trkpt lat="47.50404" lon="6.8153">
        <ele>318.4</ele>
        <time>2025-09-13T15:43:36Z</time>
      </trkpt>
      <trkpt lat="47.50404" lon="6.8154">
        <ele>318.3</ele>
        <time>2025-09-13T15:43:37Z</time>
      </trkpt>
      <trkpt lat="47.50404" lon="6.8155">
        <ele>318.3</ele>
        <time>2025-09-13T15:43:38Z</time>
      </trkpt>
      <trkpt lat="47.50403" lon="6.81561">
        <ele>318.3</ele>
        <time>2025-09-13T15:43:39Z</time>
      </trkpt>
      <trkpt lat="47.50403" lon="6.81571">
        <ele>318.3</ele>
        <time>2025-09-13T15:43:40Z</time>
      </trkpt>
      <trkpt lat="47.50401" lon="6.81582">
        <ele>318.4</ele>
        <time>2025-09-13T15:43:41Z</time>
      </trkpt>
      <trkpt lat="47.50401" lon="6.81593">
        <ele>318.4</ele>
        <time>2025-09-13T15:43:42Z</time>
      </trkpt>
      <trkpt lat="47.504" lon="6.81604">
        <ele>318.4</ele>
        <time>2025-09-13T15:43:43Z</time>
      </trkpt>
      <trkpt lat="47.50399" lon="6.81613">
        <ele>318.4</ele>
        <time>2025-09-13T15:43:44Z</time>
      </trkpt>
      <trkpt lat="47.50398" lon="6.81624">
        <ele>318.4</ele>
        <time>2025-09-13T15:43:45Z</time>
      </trkpt>
      <trkpt lat="47.50398" lon="6.81634">
        <ele>318.4</ele>
        <time>2025-09-13T15:43:46Z</time>
      </trkpt>
      <trkpt lat="47.50397" lon="6.81645">
        <ele>318.4</ele>
        <time>2025-09-13T15:43:47Z</time>
      </trkpt>
      <trkpt lat="47.50397" lon="6.81655">
        <ele>318.5</ele>
        <time>2025-09-13T15:43:48Z</time>
      </trkpt>
      <trkpt lat="47.50395" lon="6.81666">
        <ele>318.5</ele>
        <time>2025-09-13T15:43:49Z</time>
      </trkpt>
      <trkpt lat="47.50394" lon="6.81675">
        <ele>318.5</ele>
        <time>2025-09-13T15:43:50Z</time>
      </trkpt>
      <trkpt lat="47.50394" lon="6.81684">
        <ele>318.5</ele>
        <time>2025-09-13T15:43:51Z</time>
      </trkpt>
      <trkpt lat="47.50393" lon="6.81695">
        <ele>318.5</ele>
        <time>2025-09-13T15:43:52Z</time>
      </trkpt>
      <trkpt lat="47.50393" lon="6.81705">
        <ele>318.5</ele>
        <time>2025-09-13T15:43:53Z</time>
      </trkpt>
      <trkpt lat="47.50392" lon="6.81716">
        <ele>318.5</ele>
        <time>2025-09-13T15:43:54Z</time>
      </trkpt>
      <trkpt lat="47.50391" lon="6.81726">
        <ele>318.5</ele>
        <time>2025-09-13T15:43:55Z</time>
      </trkpt>
      <trkpt lat="47.50391" lon="6.81737">
        <ele>318.5</ele>
        <time>2025-09-13T15:43:56Z</time>
      </trkpt>
      <trkpt lat="47.50389" lon="6.81746">
        <ele>318.5</ele>
        <time>2025-09-13T15:43:57Z</time>
      </trkpt>
      <trkpt lat="47.5039" lon="6.81758">
        <ele>318.5</ele>
        <time>2025-09-13T15:43:58Z</time>
      </trkpt>
      <trkpt lat="47.50389" lon="6.81768">
        <ele>318.5</ele>
        <time>2025-09-13T15:43:59Z</time>
      </trkpt>
      <trkpt lat="47.50388" lon="6.81778">
        <ele>318.5</ele>
        <time>2025-09-13T15:44:00Z</time>
      </trkpt>
      <trkpt lat="47.50387" lon="6.81788">
        <ele>318.5</ele>
        <time>2025-09-13T15:44:01Z</time>
      </trkpt>
      <trkpt lat="47.50385" lon="6.81798">
        <ele>318.5</ele>
        <time>2025-09-13T15:44:02Z</time>
      </trkpt>
      <trkpt lat="47.50385" lon="6.81808">
        <ele>318.5</ele>
        <time>2025-09-13T15:44:03Z</time>
      </trkpt>
      <trkpt lat="47.50384" lon="6.81818">
        <ele>318.5</ele>
        <time>2025-09-13T15:44:04Z</time>
      </trkpt>
      <trkpt lat="47.50382" lon="6.81827">
        <ele>318.5</ele>
        <time>2025-09-13T15:44:05Z</time>
      </trkpt>
      <trkpt lat="47.50382" lon="6.81837">
        <ele>318.5</ele>
        <time>2025-09-13T15:44:06Z</time>
      </trkpt>
      <trkpt lat="47.50381" lon="6.81847">
        <ele>318.5</ele>
        <time>2025-09-13T15:44:07Z</time>
      </trkpt>
      <trkpt lat="47.50381" lon="6.81857">
        <ele>318.4</ele>
        <time>2025-09-13T15:44:08Z</time>
      </trkpt>
      <trkpt lat="47.5038" lon="6.81868">
        <ele>318.4</ele>
        <time>2025-09-13T15:44:09Z</time>
      </trkpt>
      <trkpt lat="47.5038" lon="6.81879">
        <ele>318.4</ele>
        <time>2025-09-13T15:44:10Z</time>
      </trkpt>
      <trkpt lat="47.50379" lon="6.81889">
        <ele>318.3</ele>
        <time>2025-09-13T15:44:11Z</time>
      </trkpt>
      <trkpt lat="47.50377" lon="6.819">
        <ele>318.3</ele>
        <time>2025-09-13T15:44:12Z</time>
      </trkpt>
      <trkpt lat="47.50376" lon="6.81909">
        <ele>318.4</ele>
        <time>2025-09-13T15:44:13Z</time>
      </trkpt>
      <trkpt lat="47.50375" lon="6.8192">
        <ele>318.4</ele>
        <time>2025-09-13T15:44:14Z</time>
      </trkpt>
      <trkpt lat="47.50375" lon="6.8193">
        <ele>318.4</ele>
        <time>2025-09-13T15:44:15Z</time>
      </trkpt>
      <trkpt lat="47.50374" lon="6.81941">
        <ele>318.4</ele>
        <time>2025-09-13T15:44:16Z</time>
      </trkpt>
      <trkpt lat="47.50373" lon="6.81951">
        <ele>318.4</ele>
        <time>2025-09-13T15:44:17Z</time>
      </trkpt>
      <trkpt lat="47.50373" lon="6.81962">
        <ele>318.4</ele>
        <time>2025-09-13T15:44:18Z</time>
      </trkpt>
      <trkpt lat="47.50372" lon="6.81972">
        <ele>318.4</ele>
        <time>2025-09-13T15:44:19Z</time>
      </trkpt>
      <trkpt lat="47.50371" lon="6.81983">
        <ele>318.4</ele>
        <time>2025-09-13T15:44:20Z</time>
      </trkpt>
      <trkpt lat="47.5037" lon="6.81993">
        <ele>318.4</ele>
        <time>2025-09-13T15:44:21Z</time>
      </trkpt>
      <trkpt lat="47.5037" lon="6.82003">
        <ele>318.4</ele>
        <time>2025-09-13T15:44:22Z</time>
      </trkpt>
      <trkpt lat="47.50369" lon="6.82015">
        <ele>318.5</ele>
        <time>2025-09-13T15:44:23Z</time>
      </trkpt>
      <trkpt lat="47.50368" lon="6.82026">
        <ele>318.5</ele>
        <time>2025-09-13T15:44:24Z</time>
      </trkpt>
      <trkpt lat="47.50368" lon="6.82036">
        <ele>318.5</ele>
        <time>2025-09-13T15:44:25Z</time>
      </trkpt>
      <trkpt lat="47.50367" lon="6.82048">
        <ele>318.5</ele>
        <time>2025-09-13T15:44:26Z</time>
      </trkpt>
      <trkpt lat="47.50367" lon="6.82058">
        <ele>318.5</ele>
        <time>2025-09-13T15:44:27Z</time>
      </trkpt>
      <trkpt lat="47.50366" lon="6.82068">
        <ele>318.5</ele>
        <time>2025-09-13T15:44:28Z</time>
      </trkpt>
      <trkpt lat="47.50365" lon="6.82079">
        <ele>318.5</ele>
        <time>2025-09-13T15:44:29Z</time>
      </trkpt>
      <trkpt lat="47.50365" lon="6.8209">
        <ele>318.5</ele>
        <time>2025-09-13T15:44:30Z</time>
      </trkpt>
      <trkpt lat="47.50362" lon="6.82098">
        <ele>318.6</ele>
        <time>2025-09-13T15:44:31Z</time>
      </trkpt>
      <trkpt lat="47.50361" lon="6.82108">
        <ele>318.6</ele>
        <time>2025-09-13T15:44:32Z</time>
      </trkpt>
      <trkpt lat="47.50361" lon="6.82119">
        <ele>318.6</ele>
        <time>2025-09-13T15:44:33Z</time>
      </trkpt>
      <trkpt lat="47.5036" lon="6.82131">
        <ele>318.7</ele>
        <time>2025-09-13T15:44:34Z</time>
      </trkpt>
      <trkpt lat="47.50359" lon="6.82141">
        <ele>318.7</ele>
        <time>2025-09-13T15:44:35Z</time>
      </trkpt>
      <trkpt lat="47.50358" lon="6.82151">
        <ele>318.7</ele>
        <time>2025-09-13T15:44:36Z</time>
      </trkpt>
      <trkpt lat="47.50358" lon="6.82161">
        <ele>318.7</ele>
        <time>2025-09-13T15:44:37Z</time>
      </trkpt>
      <trkpt lat="47.50358" lon="6.8217">
        <ele>318.6</ele>
        <time>2025-09-13T15:44:38Z</time>
      </trkpt>
      <trkpt lat="47.50356" lon="6.82179">
        <ele>318.6</ele>
        <time>2025-09-13T15:44:39Z</time>
      </trkpt>
      <trkpt lat="47.50354" lon="6.82191">
        <ele>318.6</ele>
        <time>2025-09-13T15:44:40Z</time>
      </trkpt>
      <trkpt lat="47.50354" lon="6.82201">
        <ele>318.6</ele>
        <time>2025-09-13T15:44:41Z</time>
      </trkpt>
      <trkpt lat="47.50353" lon="6.82212">
        <ele>318.7</ele>
        <time>2025-09-13T15:44:42Z</time>
      </trkpt>
      <trkpt lat="47.50353" lon="6.82222">
        <ele>318.7</ele>
        <time>2025-09-13T15:44:43Z</time>
      </trkpt>
      <trkpt lat="47.50352" lon="6.82232">
        <ele>318.7</ele>
        <time>2025-09-13T15:44:44Z</time>
      </trkpt>
      <trkpt lat="47.50352" lon="6.82242">
        <ele>318.7</ele>
        <time>2025-09-13T15:44:45Z</time>
      </trkpt>
      <trkpt lat="47.50351" lon="6.82252">
        <ele>318.7</ele>
        <time>2025-09-13T15:44:46Z</time>
      </trkpt>
      <trkpt lat="47.5035" lon="6.82262">
        <ele>318.6</ele>
        <time>2025-09-13T15:44:47Z</time>
      </trkpt>
      <trkpt lat="47.50348" lon="6.82274">
        <ele>318.6</ele>
        <time>2025-09-13T15:44:48Z</time>
      </trkpt>
      <trkpt lat="47.50347" lon="6.82284">
        <ele>318.6</ele>
        <time>2025-09-13T15:44:49Z</time>
      </trkpt>
      <trkpt lat="47.50347" lon="6.82294">
        <ele>318.5</ele>
        <time>2025-09-13T15:44:50Z</time>
      </trkpt>
      <trkpt lat="47.50347" lon="6.82305">
        <ele>318.5</ele>
        <time>2025-09-13T15:44:51Z</time>
      </trkpt>
      <trkpt lat="47.50347" lon="6.82315">
        <ele>318.5</ele>
        <time>2025-09-13T15:44:52Z</time>
      </trkpt>
      <trkpt lat="47.50345" lon="6.82325">
        <ele>318.5</ele>
        <time>2025-09-13T15:44:53Z</time>
      </trkpt>
      <trkpt lat="47.50347" lon="6.82337">
        <ele>318.5</ele>
        <time>2025-09-13T15:44:54Z</time>
      </trkpt>
      <trkpt lat="47.50348" lon="6.82348">
        <ele>318.5</ele>
        <time>2025-09-13T15:44:55Z</time>
      </trkpt>
      <trkpt lat="47.50347" lon="6.8236">
        <ele>318.5</ele>
        <time>2025-09-13T15:44:56Z</time>
      </trkpt>
      <trkpt lat="47.50345" lon="6.82369">
        <ele>318.5</ele>
        <time>2025-09-13T15:44:57Z</time>
      </trkpt>
      <trkpt lat="47.50346" lon="6.8238">
        <ele>318.5</ele>
        <time>2025-09-13T15:44:58Z</time>
      </trkpt>
      <trkpt lat="47.50348" lon="6.82391">
        <ele>318.6</ele>
        <time>2025-09-13T15:44:59Z</time>
      </trkpt>
      <trkpt lat="47.5035" lon="6.824">
        <ele>318.6</ele>
        <time>2025-09-13T15:45:00Z</time>
      </trkpt>
      <trkpt lat="47.50354" lon="6.82408">
        <ele>318.6</ele>
        <time>2025-09-13T15:45:01Z</time>
      </trkpt>
      <trkpt lat="47.50356" lon="6.82415">
        <ele>318.6</ele>
        <time>2025-09-13T15:45:02Z</time>
      </trkpt>
      <trkpt lat="47.50358" lon="6.82423">
        <ele>318.7</ele>
        <time>2025-09-13T15:45:03Z</time>
      </trkpt>
      <trkpt lat="47.50361" lon="6.8243">
        <ele>318.7</ele>
        <time>2025-09-13T15:45:04Z</time>
      </trkpt>
      <trkpt lat="47.50363" lon="6.82438">
        <ele>318.7</ele>
        <time>2025-09-13T15:45:05Z</time>
      </trkpt>
      <trkpt lat="47.50365" lon="6.82445">
        <ele>318.7</ele>
        <time>2025-09-13T15:45:06Z</time>
      </trkpt>
      <trkpt lat="47.50365" lon="6.82454">
        <ele>318.7</ele>
        <time>2025-09-13T15:45:07Z</time>
      </trkpt>
      <trkpt lat="47.50366" lon="6.82459">
        <ele>318.7</ele>
        <time>2025-09-13T15:45:08Z</time>
      </trkpt>
      <trkpt lat="47.5037" lon="6.82463">
        <ele>318.8</ele>
        <time>2025-09-13T15:45:09Z</time>
      </trkpt>
      <trkpt lat="47.50372" lon="6.82466">
        <ele>318.8</ele>
        <time>2025-09-13T15:45:10Z</time>
      </trkpt>
      <trkpt lat="47.50373" lon="6.8247">
        <ele>318.8</ele>
        <time>2025-09-13T15:45:11Z</time>
      </trkpt>
      <trkpt lat="47.5037" lon="6.82486">
        <ele>318.8</ele>
        <time>2025-09-13T15:45:12Z</time>
      </trkpt>
      <trkpt lat="47.50372" lon="6.82497">
        <ele>318.8</ele>
        <time>2025-09-13T15:45:13Z</time>
      </trkpt>
      <trkpt lat="47.50374" lon="6.82502">
        <ele>318.8</ele>
        <time>2025-09-13T15:45:14Z</time>
      </trkpt>
      <trkpt lat="47.50377" lon="6.82508">
        <ele>318.8</ele>
        <time>2025-09-13T15:45:15Z</time>
      </trkpt>
      <trkpt lat="47.5038" lon="6.82515">
        <ele>318.9</ele>
        <time>2025-09-13T15:45:16Z</time>
      </trkpt>
      <trkpt lat="47.50382" lon="6.82521">
        <ele>318.9</ele>
        <time>2025-09-13T15:45:17Z</time>
      </trkpt>
      <trkpt lat="47.50384" lon="6.82526">
        <ele>318.9</ele>
        <time>2025-09-13T15:45:18Z</time>
      </trkpt>
      <trkpt lat="47.50387" lon="6.82532">
        <ele>318.9</ele>
        <time>2025-09-13T15:45:19Z</time>
      </trkpt>
      <trkpt lat="47.5039" lon="6.82538">
        <ele>318.9</ele>
        <time>2025-09-13T15:45:20Z</time>
      </trkpt>
      <trkpt lat="47.50393" lon="6.82545">
        <ele>318.9</ele>
        <time>2025-09-13T15:45:21Z</time>
      </trkpt>
      <trkpt lat="47.50396" lon="6.82551">
        <ele>319</ele>
        <time>2025-09-13T15:45:22Z</time>
      </trkpt>
      <trkpt lat="47.50393" lon="6.8254">
        <ele>319</ele>
        <time>2025-09-13T15:45:23Z</time>
      </trkpt>
      <trkpt lat="47.50387" lon="6.8252">
        <ele>318.9</ele>
        <time>2025-09-13T15:45:24Z</time>
      </trkpt>
      <trkpt lat="47.50384" lon="6.8253">
        <ele>318.9</ele>
        <time>2025-09-13T15:45:25Z</time>
      </trkpt>
      <trkpt lat="47.50379" lon="6.82538">
        <ele>318.9</ele>
        <time>2025-09-13T15:45:26Z</time>
      </trkpt>
      <trkpt lat="47.50376" lon="6.82544">
        <ele>319</ele>
        <time>2025-09-13T15:45:27Z</time>
      </trkpt>
      <trkpt lat="47.5037" lon="6.82551">
        <ele>319</ele>
        <time>2025-09-13T15:45:28Z</time>
      </trkpt>
      <trkpt lat="47.50364" lon="6.82562">
        <ele>319</ele>
        <time>2025-09-13T15:45:29Z</time>
      </trkpt>
      <trkpt lat="47.50363" lon="6.82569">
        <ele>319</ele>
        <time>2025-09-13T15:45:30Z</time>
      </trkpt>
      <trkpt lat="47.50361" lon="6.82577">
        <ele>319</ele>
        <time>2025-09-13T15:45:31Z</time>
      </trkpt>
      <trkpt lat="47.5036" lon="6.82585">
        <ele>318.9</ele>
        <time>2025-09-13T15:45:32Z</time>
      </trkpt>
      <trkpt lat="47.50359" lon="6.82594">
        <ele>318.8</ele>
        <time>2025-09-13T15:45:33Z</time>
      </trkpt>
      <trkpt lat="47.50359" lon="6.82602">
        <ele>318.7</ele>
        <time>2025-09-13T15:45:34Z</time>
      </trkpt>
      <trkpt lat="47.50359" lon="6.82611">
        <ele>318.7</ele>
        <time>2025-09-13T15:45:35Z</time>
      </trkpt>
      <trkpt lat="47.50359" lon="6.82622">
        <ele>318.6</ele>
        <time>2025-09-13T15:45:36Z</time>
      </trkpt>
      <trkpt lat="47.50357" lon="6.82631">
        <ele>318.6</ele>
        <time>2025-09-13T15:45:37Z</time>
      </trkpt>
      <trkpt lat="47.50355" lon="6.82641">
        <ele>318.5</ele>
        <time>2025-09-13T15:45:38Z</time>
      </trkpt>
      <trkpt lat="47.5035" lon="6.8265">
        <ele>318.5</ele>
        <time>2025-09-13T15:45:39Z</time>
      </trkpt>
      <trkpt lat="47.5035" lon="6.82661">
        <ele>318.5</ele>
        <time>2025-09-13T15:45:40Z</time>
      </trkpt>
      <trkpt lat="47.5035" lon="6.8267">
        <ele>318.6</ele>
        <time>2025-09-13T15:45:41Z</time>
      </trkpt>
      <trkpt lat="47.5035" lon="6.82681">
        <ele>318.6</ele>
        <time>2025-09-13T15:45:42Z</time>
      </trkpt>
      <trkpt lat="47.5035" lon="6.82691">
        <ele>318.7</ele>
        <time>2025-09-13T15:45:43Z</time>
      </trkpt>
      <trkpt lat="47.50349" lon="6.82701">
        <ele>318.7</ele>
        <time>2025-09-13T15:45:44Z</time>
      </trkpt>
      <trkpt lat="47.50349" lon="6.82712">
        <ele>318.8</ele>
        <time>2025-09-13T15:45:45Z</time>
      </trkpt>
      <trkpt lat="47.5035" lon="6.8272">
        <ele>318.8</ele>
        <time>2025-09-13T15:45:46Z</time>
      </trkpt>
      <trkpt lat="47.5035" lon="6.82729">
        <ele>318.9</ele>
        <time>2025-09-13T15:45:47Z</time>
      </trkpt>
      <trkpt lat="47.5035" lon="6.8274">
        <ele>318.9</ele>
        <time>2025-09-13T15:45:48Z</time>
      </trkpt>
      <trkpt lat="47.50351" lon="6.82749">
        <ele>318.9</ele>
        <time>2025-09-13T15:45:49Z</time>
      </trkpt>
      <trkpt lat="47.50352" lon="6.82759">
        <ele>318.9</ele>
        <time>2025-09-13T15:45:50Z</time>
      </trkpt>
      <trkpt lat="47.50353" lon="6.82768">
        <ele>318.9</ele>
        <time>2025-09-13T15:45:51Z</time>
      </trkpt>
      <trkpt lat="47.50354" lon="6.82777">
        <ele>318.9</ele>
        <time>2025-09-13T15:45:52Z</time>
      </trkpt>
      <trkpt lat="47.50355" lon="6.82788">
        <ele>318.9</ele>
        <time>2025-09-13T15:45:53Z</time>
      </trkpt>
      <trkpt lat="47.50357" lon="6.82798">
        <ele>318.9</ele>
        <time>2025-09-13T15:45:54Z</time>
      </trkpt>
      <trkpt lat="47.50357" lon="6.82808">
        <ele>318.9</ele>
        <time>2025-09-13T15:45:55Z</time>
      </trkpt>
      <trkpt lat="47.50359" lon="6.82818">
        <ele>318.9</ele>
        <time>2025-09-13T15:45:56Z</time>
      </trkpt>
      <trkpt lat="47.50361" lon="6.82827">
        <ele>318.9</ele>
        <time>2025-09-13T15:45:57Z</time>
      </trkpt>
      <trkpt lat="47.50363" lon="6.82836">
        <ele>318.9</ele>
        <time>2025-09-13T15:45:58Z</time>
      </trkpt>
      <trkpt lat="47.50365" lon="6.82846">
        <ele>318.9</ele>
        <time>2025-09-13T15:45:59Z</time>
      </trkpt>
      <trkpt lat="47.50369" lon="6.82856">
        <ele>318.9</ele>
        <time>2025-09-13T15:46:00Z</time>
      </trkpt>
      <trkpt lat="47.50372" lon="6.82865">
        <ele>319</ele>
        <time>2025-09-13T15:46:01Z</time>
      </trkpt>
      <trkpt lat="47.50373" lon="6.82875">
        <ele>319</ele>
        <time>2025-09-13T15:46:02Z</time>
      </trkpt>
      <trkpt lat="47.50376" lon="6.82884">
        <ele>319</ele>
        <time>2025-09-13T15:46:03Z</time>
      </trkpt>
      <trkpt lat="47.50377" lon="6.82893">
        <ele>319</ele>
        <time>2025-09-13T15:46:04Z</time>
      </trkpt>
      <trkpt lat="47.50379" lon="6.82902">
        <ele>319.1</ele>
        <time>2025-09-13T15:46:05Z</time>
      </trkpt>
      <trkpt lat="47.5038" lon="6.82912">
        <ele>319.1</ele>
        <time>2025-09-13T15:46:06Z</time>
      </trkpt>
      <trkpt lat="47.50381" lon="6.82921">
        <ele>319.2</ele>
        <time>2025-09-13T15:46:07Z</time>
      </trkpt>
      <trkpt lat="47.50381" lon="6.8293">
        <ele>319.2</ele>
        <time>2025-09-13T15:46:08Z</time>
      </trkpt>
      <trkpt lat="47.50382" lon="6.82939">
        <ele>319.3</ele>
        <time>2025-09-13T15:46:09Z</time>
      </trkpt>
      <trkpt lat="47.50383" lon="6.82947">
        <ele>319.3</ele>
        <time>2025-09-13T15:46:10Z</time>
      </trkpt>
      <trkpt lat="47.50384" lon="6.82957">
        <ele>319.2</ele>
        <time>2025-09-13T15:46:11Z</time>
      </trkpt>
      <trkpt lat="47.50386" lon="6.82965">
        <ele>319.2</ele>
        <time>2025-09-13T15:46:12Z</time>
      </trkpt>
      <trkpt lat="47.50387" lon="6.82974">
        <ele>319.2</ele>
        <time>2025-09-13T15:46:13Z</time>
      </trkpt>
      <trkpt lat="47.50388" lon="6.82984">
        <ele>319.2</ele>
        <time>2025-09-13T15:46:14Z</time>
      </trkpt>
      <trkpt lat="47.50389" lon="6.82993">
        <ele>319.2</ele>
        <time>2025-09-13T15:46:15Z</time>
      </trkpt>
      <trkpt lat="47.50391" lon="6.83003">
        <ele>319.2</ele>
        <time>2025-09-13T15:46:16Z</time>
      </trkpt>
      <trkpt lat="47.50393" lon="6.83013">
        <ele>319.2</ele>
        <time>2025-09-13T15:46:17Z</time>
      </trkpt>
      <trkpt lat="47.50393" lon="6.83023">
        <ele>319.2</ele>
        <time>2025-09-13T15:46:18Z</time>
      </trkpt>
      <trkpt lat="47.50395" lon="6.83032">
        <ele>319.2</ele>
        <time>2025-09-13T15:46:19Z</time>
      </trkpt>
      <trkpt lat="47.50397" lon="6.83042">
        <ele>319.2</ele>
        <time>2025-09-13T15:46:20Z</time>
      </trkpt>
      <trkpt lat="47.50398" lon="6.83052">
        <ele>319.2</ele>
        <time>2025-09-13T15:46:21Z</time>
      </trkpt>
      <trkpt lat="47.504" lon="6.83063">
        <ele>319.2</ele>
        <time>2025-09-13T15:46:22Z</time>
      </trkpt>
      <trkpt lat="47.50404" lon="6.83073">
        <ele>319.2</ele>
        <time>2025-09-13T15:46:23Z</time>
      </trkpt>
      <trkpt lat="47.50405" lon="6.83083">
        <ele>319.2</ele>
        <time>2025-09-13T15:46:24Z</time>
      </trkpt>
      <trkpt lat="47.50406" lon="6.83093">
        <ele>319.2</ele>
        <time>2025-09-13T15:46:25Z</time>
      </trkpt>
      <trkpt lat="47.50407" lon="6.83102">
        <ele>319.2</ele>
        <time>2025-09-13T15:46:26Z</time>
      </trkpt>
      <trkpt lat="47.50409" lon="6.83111">
        <ele>319.2</ele>
        <time>2025-09-13T15:46:27Z</time>
      </trkpt>
      <trkpt lat="47.50411" lon="6.83121">
        <ele>319.2</ele>
        <time>2025-09-13T15:46:28Z</time>
      </trkpt>
      <trkpt lat="47.50412" lon="6.83132">
        <ele>319.2</ele>
        <time>2025-09-13T15:46:29Z</time>
      </trkpt>
      <trkpt lat="47.50413" lon="6.83141">
        <ele>319.2</ele>
        <time>2025-09-13T15:46:30Z</time>
      </trkpt>
      <trkpt lat="47.50414" lon="6.8315">
        <ele>319.2</ele>
        <time>2025-09-13T15:46:31Z</time>
      </trkpt>
      <trkpt lat="47.50414" lon="6.83159">
        <ele>319.2</ele>
        <time>2025-09-13T15:46:32Z</time>
      </trkpt>
      <trkpt lat="47.50415" lon="6.83167">
        <ele>319.2</ele>
        <time>2025-09-13T15:46:33Z</time>
      </trkpt>
      <trkpt lat="47.50417" lon="6.83174">
        <ele>319.2</ele>
        <time>2025-09-13T15:46:34Z</time>
      </trkpt>
      <trkpt lat="47.50421" lon="6.83182">
        <ele>319.2</ele>
        <time>2025-09-13T15:46:35Z</time>
      </trkpt>
      <trkpt lat="47.50424" lon="6.83188">
        <ele>319.2</ele>
        <time>2025-09-13T15:46:36Z</time>
      </trkpt>
      <trkpt lat="47.50426" lon="6.83196">
        <ele>319.2</ele>
        <time>2025-09-13T15:46:37Z</time>
      </trkpt>
      <trkpt lat="47.50428" lon="6.83204">
        <ele>319.2</ele>
        <time>2025-09-13T15:46:38Z</time>
      </trkpt>
      <trkpt lat="47.50429" lon="6.83211">
        <ele>319.3</ele>
        <time>2025-09-13T15:46:39Z</time>
      </trkpt>
      <trkpt lat="47.5043" lon="6.83219">
        <ele>319.3</ele>
        <time>2025-09-13T15:46:40Z</time>
      </trkpt>
      <trkpt lat="47.50432" lon="6.83231">
        <ele>319.2</ele>
        <time>2025-09-13T15:46:41Z</time>
      </trkpt>
      <trkpt lat="47.50435" lon="6.8324">
        <ele>319.2</ele>
        <time>2025-09-13T15:46:42Z</time>
      </trkpt>
      <trkpt lat="47.50437" lon="6.83249">
        <ele>319.2</ele>
        <time>2025-09-13T15:46:43Z</time>
      </trkpt>
      <trkpt lat="47.50438" lon="6.83257">
        <ele>319.2</ele>
        <time>2025-09-13T15:46:44Z</time>
      </trkpt>
      <trkpt lat="47.50438" lon="6.83268">
        <ele>319.2</ele>
        <time>2025-09-13T15:46:45Z</time>
      </trkpt>
      <trkpt lat="47.50439" lon="6.83278">
        <ele>319.2</ele>
        <time>2025-09-13T15:46:46Z</time>
      </trkpt>
      <trkpt lat="47.50442" lon="6.83286">
        <ele>319.2</ele>
        <time>2025-09-13T15:46:47Z</time>
      </trkpt>
      <trkpt lat="47.50444" lon="6.83295">
        <ele>319.2</ele>
        <time>2025-09-13T15:46:48Z</time>
      </trkpt>
      <trkpt lat="47.50447" lon="6.83306">
        <ele>319.3</ele>
        <time>2025-09-13T15:46:49Z</time>
      </trkpt>
      <trkpt lat="47.50447" lon="6.83315">
        <ele>319.3</ele>
        <time>2025-09-13T15:46:50Z</time>
      </trkpt>
      <trkpt lat="47.50442" lon="6.83327">
        <ele>319.5</ele>
        <time>2025-09-13T15:46:51Z</time>
      </trkpt>
      <trkpt lat="47.50441" lon="6.83335">
        <ele>319.6</ele>
        <time>2025-09-13T15:46:52Z</time>
      </trkpt>
      <trkpt lat="47.50443" lon="6.83339">
        <ele>319.7</ele>
        <time>2025-09-13T15:46:53Z</time>
      </trkpt>
      <trkpt lat="47.50444" lon="6.83342">
        <ele>319.7</ele>
        <time>2025-09-13T15:46:54Z</time>
      </trkpt>
      <trkpt lat="47.50448" lon="6.83338">
        <ele>319.9</ele>
        <time>2025-09-13T15:46:55Z</time>
      </trkpt>
      <trkpt lat="47.50451" lon="6.83336">
        <ele>320</ele>
        <time>2025-09-13T15:46:56Z</time>
      </trkpt>
      <trkpt lat="47.50462" lon="6.83326">
        <ele>320.5</ele>
        <time>2025-09-13T15:46:57Z</time>
      </trkpt>
      <trkpt lat="47.50465" lon="6.83321">
        <ele>320.7</ele>
        <time>2025-09-13T15:46:58Z</time>
      </trkpt>
      <trkpt lat="47.50469" lon="6.83317">
        <ele>320.8</ele>
        <time>2025-09-13T15:46:59Z</time>
      </trkpt>
      <trkpt lat="47.50474" lon="6.83311">
        <ele>320.8</ele>
        <time>2025-09-13T15:47:00Z</time>
      </trkpt>
      <trkpt lat="47.50479" lon="6.83307">
        <ele>320.9</ele>
        <time>2025-09-13T15:47:01Z</time>
      </trkpt>
      <trkpt lat="47.50484" lon="6.83305">
        <ele>320.9</ele>
        <time>2025-09-13T15:47:02Z</time>
      </trkpt>
      <trkpt lat="47.50491" lon="6.83302">
        <ele>320.9</ele>
        <time>2025-09-13T15:47:03Z</time>
      </trkpt>
      <trkpt lat="47.50498" lon="6.83299">
        <ele>320.9</ele>
        <time>2025-09-13T15:47:04Z</time>
      </trkpt>
      <trkpt lat="47.50505" lon="6.83296">
        <ele>320.8</ele>
        <time>2025-09-13T15:47:05Z</time>
      </trkpt>
      <trkpt lat="47.50511" lon="6.83293">
        <ele>320.8</ele>
        <time>2025-09-13T15:47:06Z</time>
      </trkpt>
      <trkpt lat="47.50517" lon="6.83289">
        <ele>320.8</ele>
        <time>2025-09-13T15:47:07Z</time>
      </trkpt>
      <trkpt lat="47.50522" lon="6.83287">
        <ele>320.7</ele>
        <time>2025-09-13T15:47:08Z</time>
      </trkpt>
      <trkpt lat="47.50528" lon="6.83285">
        <ele>320.7</ele>
        <time>2025-09-13T15:47:09Z</time>
      </trkpt>
      <trkpt lat="47.50533" lon="6.83288">
        <ele>320.3</ele>
        <time>2025-09-13T15:47:10Z</time>
      </trkpt>
      <trkpt lat="47.50539" lon="6.83294">
        <ele>319.7</ele>
        <time>2025-09-13T15:47:11Z</time>
      </trkpt>
      <trkpt lat="47.50543" lon="6.83305">
        <ele>319.1</ele>
        <time>2025-09-13T15:47:12Z</time>
      </trkpt>
      <trkpt lat="47.50543" lon="6.83318">
        <ele>318.6</ele>
        <time>2025-09-13T15:47:13Z</time>
      </trkpt>
      <trkpt lat="47.50544" lon="6.8333">
        <ele>318.3</ele>
        <time>2025-09-13T15:47:14Z</time>
      </trkpt>
      <trkpt lat="47.50543" lon="6.83343">
        <ele>318.2</ele>
        <time>2025-09-13T15:47:15Z</time>
      </trkpt>
      <trkpt lat="47.50541" lon="6.83356">
        <ele>318.2</ele>
        <time>2025-09-13T15:47:16Z</time>
      </trkpt>
      <trkpt lat="47.50541" lon="6.83369">
        <ele>318.2</ele>
        <time>2025-09-13T15:47:17Z</time>
      </trkpt>
      <trkpt lat="47.50541" lon="6.83381">
        <ele>318.2</ele>
        <time>2025-09-13T15:47:18Z</time>
      </trkpt>
      <trkpt lat="47.50543" lon="6.83392">
        <ele>318.2</ele>
        <time>2025-09-13T15:47:19Z</time>
      </trkpt>
      <trkpt lat="47.50545" lon="6.83403">
        <ele>318.3</ele>
        <time>2025-09-13T15:47:20Z</time>
      </trkpt>
      <trkpt lat="47.50549" lon="6.83413">
        <ele>318.3</ele>
        <time>2025-09-13T15:47:21Z</time>
      </trkpt>
      <trkpt lat="47.50551" lon="6.83425">
        <ele>318.3</ele>
        <time>2025-09-13T15:47:22Z</time>
      </trkpt>
      <trkpt lat="47.50553" lon="6.83436">
        <ele>318.3</ele>
        <time>2025-09-13T15:47:23Z</time>
      </trkpt>
      <trkpt lat="47.50556" lon="6.83447">
        <ele>318.3</ele>
        <time>2025-09-13T15:47:24Z</time>
      </trkpt>
      <trkpt lat="47.50559" lon="6.83457">
        <ele>318.4</ele>
        <time>2025-09-13T15:47:25Z</time>
      </trkpt>
      <trkpt lat="47.50563" lon="6.83467">
        <ele>318.4</ele>
        <time>2025-09-13T15:47:26Z</time>
      </trkpt>
      <trkpt lat="47.50566" lon="6.83478">
        <ele>318.5</ele>
        <time>2025-09-13T15:47:27Z</time>
      </trkpt>
      <trkpt lat="47.50568" lon="6.83488">
        <ele>318.5</ele>
        <time>2025-09-13T15:47:28Z</time>
      </trkpt>
      <trkpt lat="47.5057" lon="6.83498">
        <ele>318.6</ele>
        <time>2025-09-13T15:47:29Z</time>
      </trkpt>
      <trkpt lat="47.50573" lon="6.8351">
        <ele>318.6</ele>
        <time>2025-09-13T15:47:30Z</time>
      </trkpt>
      <trkpt lat="47.50576" lon="6.8352">
        <ele>318.7</ele>
        <time>2025-09-13T15:47:31Z</time>
      </trkpt>
      <trkpt lat="47.5058" lon="6.83532">
        <ele>318.7</ele>
        <time>2025-09-13T15:47:32Z</time>
      </trkpt>
      <trkpt lat="47.50587" lon="6.83544">
        <ele>318.7</ele>
        <time>2025-09-13T15:47:33Z</time>
      </trkpt>
      <trkpt lat="47.50589" lon="6.83554">
        <ele>318.7</ele>
        <time>2025-09-13T15:47:34Z</time>
      </trkpt>
      <trkpt lat="47.50591" lon="6.83562">
        <ele>318.7</ele>
        <time>2025-09-13T15:47:35Z</time>
      </trkpt>
      <trkpt lat="47.50593" lon="6.83573">
        <ele>318.7</ele>
        <time>2025-09-13T15:47:36Z</time>
      </trkpt>
      <trkpt lat="47.50596" lon="6.83583">
        <ele>318.7</ele>
        <time>2025-09-13T15:47:37Z</time>
      </trkpt>
      <trkpt lat="47.506" lon="6.83594">
        <ele>318.7</ele>
        <time>2025-09-13T15:47:38Z</time>
      </trkpt>
      <trkpt lat="47.50603" lon="6.83606">
        <ele>318.7</ele>
        <time>2025-09-13T15:47:39Z</time>
      </trkpt>
      <trkpt lat="47.50605" lon="6.83615">
        <ele>318.7</ele>
        <time>2025-09-13T15:47:40Z</time>
      </trkpt>
      <trkpt lat="47.50606" lon="6.83626">
        <ele>318.8</ele>
        <time>2025-09-13T15:47:41Z</time>
      </trkpt>
      <trkpt lat="47.50608" lon="6.83636">
        <ele>318.8</ele>
        <time>2025-09-13T15:47:42Z</time>
      </trkpt>
      <trkpt lat="47.5061" lon="6.83646">
        <ele>318.8</ele>
        <time>2025-09-13T15:47:43Z</time>
      </trkpt>
      <trkpt lat="47.50614" lon="6.83657">
        <ele>318.8</ele>
        <time>2025-09-13T15:47:44Z</time>
      </trkpt>
      <trkpt lat="47.50617" lon="6.83668">
        <ele>318.8</ele>
        <time>2025-09-13T15:47:45Z</time>
      </trkpt>
      <trkpt lat="47.50618" lon="6.83679">
        <ele>318.8</ele>
        <time>2025-09-13T15:47:46Z</time>
      </trkpt>
      <trkpt lat="47.5062" lon="6.83689">
        <ele>318.8</ele>
        <time>2025-09-13T15:47:47Z</time>
      </trkpt>
      <trkpt lat="47.50622" lon="6.837">
        <ele>318.8</ele>
        <time>2025-09-13T15:47:48Z</time>
      </trkpt>
      <trkpt lat="47.50626" lon="6.8371">
        <ele>318.8</ele>
        <time>2025-09-13T15:47:49Z</time>
      </trkpt>
      <trkpt lat="47.50629" lon="6.83721">
        <ele>318.8</ele>
        <time>2025-09-13T15:47:50Z</time>
      </trkpt>
      <trkpt lat="47.50631" lon="6.83732">
        <ele>318.8</ele>
        <time>2025-09-13T15:47:51Z</time>
      </trkpt>
      <trkpt lat="47.50633" lon="6.83743">
        <ele>318.8</ele>
        <time>2025-09-13T15:47:52Z</time>
      </trkpt>
      <trkpt lat="47.50635" lon="6.83754">
        <ele>318.8</ele>
        <time>2025-09-13T15:47:53Z</time>
      </trkpt>
      <trkpt lat="47.50637" lon="6.83764">
        <ele>318.8</ele>
        <time>2025-09-13T15:47:54Z</time>
      </trkpt>
      <trkpt lat="47.5064" lon="6.83774">
        <ele>318.9</ele>
        <time>2025-09-13T15:47:55Z</time>
      </trkpt>
      <trkpt lat="47.50643" lon="6.83785">
        <ele>318.9</ele>
        <time>2025-09-13T15:47:56Z</time>
      </trkpt>
      <trkpt lat="47.50645" lon="6.83795">
        <ele>318.9</ele>
        <time>2025-09-13T15:47:57Z</time>
      </trkpt>
      <trkpt lat="47.50647" lon="6.83807">
        <ele>318.9</ele>
        <time>2025-09-13T15:47:58Z</time>
      </trkpt>
      <trkpt lat="47.50649" lon="6.83816">
        <ele>318.9</ele>
        <time>2025-09-13T15:47:59Z</time>
      </trkpt>
      <trkpt lat="47.50651" lon="6.83827">
        <ele>319</ele>
        <time>2025-09-13T15:48:00Z</time>
      </trkpt>
      <trkpt lat="47.50653" lon="6.83838">
        <ele>319</ele>
        <time>2025-09-13T15:48:01Z</time>
      </trkpt>
      <trkpt lat="47.50654" lon="6.8385">
        <ele>319</ele>
        <time>2025-09-13T15:48:02Z</time>
      </trkpt>
      <trkpt lat="47.50656" lon="6.83859">
        <ele>319.1</ele>
        <time>2025-09-13T15:48:03Z</time>
      </trkpt>
      <trkpt lat="47.50657" lon="6.8387">
        <ele>319.1</ele>
        <time>2025-09-13T15:48:04Z</time>
      </trkpt>
      <trkpt lat="47.50659" lon="6.83881">
        <ele>319.1</ele>
        <time>2025-09-13T15:48:05Z</time>
      </trkpt>
      <trkpt lat="47.50662" lon="6.83891">
        <ele>319.2</ele>
        <time>2025-09-13T15:48:06Z</time>
      </trkpt>
      <trkpt lat="47.50668" lon="6.83902">
        <ele>319.2</ele>
        <time>2025-09-13T15:48:07Z</time>
      </trkpt>
      <trkpt lat="47.50669" lon="6.83912">
        <ele>319.2</ele>
        <time>2025-09-13T15:48:08Z</time>
      </trkpt>
      <trkpt lat="47.50673" lon="6.83922">
        <ele>319.3</ele>
        <time>2025-09-13T15:48:09Z</time>
      </trkpt>
      <trkpt lat="47.50675" lon="6.83932">
        <ele>319.3</ele>
        <time>2025-09-13T15:48:10Z</time>
      </trkpt>
      <trkpt lat="47.50677" lon="6.83942">
        <ele>319.3</ele>
        <time>2025-09-13T15:48:11Z</time>
      </trkpt>
      <trkpt lat="47.5068" lon="6.83952">
        <ele>319.4</ele>
        <time>2025-09-13T15:48:12Z</time>
      </trkpt>
      <trkpt lat="47.50682" lon="6.83962">
        <ele>319.4</ele>
        <time>2025-09-13T15:48:13Z</time>
      </trkpt>
      <trkpt lat="47.50685" lon="6.83972">
        <ele>319.4</ele>
        <time>2025-09-13T15:48:14Z</time>
      </trkpt>
      <trkpt lat="47.50687" lon="6.83983">
        <ele>319.4</ele>
        <time>2025-09-13T15:48:15Z</time>
      </trkpt>
      <trkpt lat="47.50691" lon="6.83992">
        <ele>319.4</ele>
        <time>2025-09-13T15:48:16Z</time>
      </trkpt>
      <trkpt lat="47.50694" lon="6.84002">
        <ele>319.3</ele>
        <time>2025-09-13T15:48:17Z</time>
      </trkpt>
      <trkpt lat="47.50696" lon="6.84012">
        <ele>319.3</ele>
        <time>2025-09-13T15:48:18Z</time>
      </trkpt>
      <trkpt lat="47.50698" lon="6.84023">
        <ele>319.3</ele>
        <time>2025-09-13T15:48:19Z</time>
      </trkpt>
      <trkpt lat="47.50701" lon="6.84035">
        <ele>319.3</ele>
        <time>2025-09-13T15:48:20Z</time>
      </trkpt>
      <trkpt lat="47.50704" lon="6.84045">
        <ele>319.3</ele>
        <time>2025-09-13T15:48:21Z</time>
      </trkpt>
      <trkpt lat="47.50707" lon="6.84055">
        <ele>319.3</ele>
        <time>2025-09-13T15:48:22Z</time>
      </trkpt>
      <trkpt lat="47.50711" lon="6.84065">
        <ele>319.3</ele>
        <time>2025-09-13T15:48:23Z</time>
      </trkpt>
      <trkpt lat="47.50715" lon="6.84075">
        <ele>319.4</ele>
        <time>2025-09-13T15:48:24Z</time>
      </trkpt>
      <trkpt lat="47.5072" lon="6.84083">
        <ele>319.4</ele>
        <time>2025-09-13T15:48:25Z</time>
      </trkpt>
      <trkpt lat="47.50725" lon="6.84092">
        <ele>319.4</ele>
        <time>2025-09-13T15:48:26Z</time>
      </trkpt>
      <trkpt lat="47.50731" lon="6.84098">
        <ele>319.4</ele>
        <time>2025-09-13T15:48:27Z</time>
      </trkpt>
      <trkpt lat="47.50736" lon="6.84106">
        <ele>319.3</ele>
        <time>2025-09-13T15:48:28Z</time>
      </trkpt>
      <trkpt lat="47.50739" lon="6.84116">
        <ele>319.3</ele>
        <time>2025-09-13T15:48:29Z</time>
      </trkpt>
      <trkpt lat="47.50743" lon="6.84125">
        <ele>319.3</ele>
        <time>2025-09-13T15:48:30Z</time>
      </trkpt>
      <trkpt lat="47.50746" lon="6.84134">
        <ele>319.2</ele>
        <time>2025-09-13T15:48:31Z</time>
      </trkpt>
      <trkpt lat="47.50746" lon="6.84152">
        <ele>319.2</ele>
        <time>2025-09-13T15:48:32Z</time>
      </trkpt>
      <trkpt lat="47.50743" lon="6.84165">
        <ele>319.1</ele>
        <time>2025-09-13T15:48:33Z</time>
      </trkpt>
      <trkpt lat="47.50745" lon="6.84177">
        <ele>319.1</ele>
        <time>2025-09-13T15:48:34Z</time>
      </trkpt>
      <trkpt lat="47.50748" lon="6.84187">
        <ele>319.1</ele>
        <time>2025-09-13T15:48:35Z</time>
      </trkpt>
      <trkpt lat="47.50751" lon="6.84197">
        <ele>319.1</ele>
        <time>2025-09-13T15:48:36Z</time>
      </trkpt>
      <trkpt lat="47.50754" lon="6.84206">
        <ele>319.2</ele>
        <time>2025-09-13T15:48:37Z</time>
      </trkpt>
      <trkpt lat="47.50758" lon="6.84217">
        <ele>319.2</ele>
        <time>2025-09-13T15:48:38Z</time>
      </trkpt>
      <trkpt lat="47.50762" lon="6.84227">
        <ele>319.2</ele>
        <time>2025-09-13T15:48:39Z</time>
      </trkpt>
      <trkpt lat="47.50768" lon="6.84237">
        <ele>319.2</ele>
        <time>2025-09-13T15:48:40Z</time>
      </trkpt>
      <trkpt lat="47.50771" lon="6.84247">
        <ele>319.2</ele>
        <time>2025-09-13T15:48:41Z</time>
      </trkpt>
      <trkpt lat="47.50775" lon="6.84256">
        <ele>319.2</ele>
        <time>2025-09-13T15:48:42Z</time>
      </trkpt>
      <trkpt lat="47.5078" lon="6.84265">
        <ele>319.2</ele>
        <time>2025-09-13T15:48:43Z</time>
      </trkpt>
      <trkpt lat="47.50784" lon="6.84275">
        <ele>319.2</ele>
        <time>2025-09-13T15:48:44Z</time>
      </trkpt>
      <trkpt lat="47.50789" lon="6.84286">
        <ele>319.2</ele>
        <time>2025-09-13T15:48:45Z</time>
      </trkpt>
      <trkpt lat="47.50794" lon="6.84297">
        <ele>319.2</ele>
        <time>2025-09-13T15:48:46Z</time>
      </trkpt>
      <trkpt lat="47.50798" lon="6.84307">
        <ele>319.2</ele>
        <time>2025-09-13T15:48:47Z</time>
      </trkpt>
      <trkpt lat="47.50802" lon="6.84318">
        <ele>319.2</ele>
        <time>2025-09-13T15:48:48Z</time>
      </trkpt>
      <trkpt lat="47.50807" lon="6.84328">
        <ele>319.3</ele>
        <time>2025-09-13T15:48:49Z</time>
      </trkpt>
      <trkpt lat="47.50811" lon="6.84338">
        <ele>319.3</ele>
        <time>2025-09-13T15:48:50Z</time>
      </trkpt>
      <trkpt lat="47.50816" lon="6.84349">
        <ele>319.3</ele>
        <time>2025-09-13T15:48:51Z</time>
      </trkpt>
      <trkpt lat="47.5082" lon="6.84359">
        <ele>319.4</ele>
        <time>2025-09-13T15:48:52Z</time>
      </trkpt>
      <trkpt lat="47.50824" lon="6.8437">
        <ele>319.4</ele>
        <time>2025-09-13T15:48:53Z</time>
      </trkpt>
      <trkpt lat="47.50829" lon="6.84381">
        <ele>319.4</ele>
        <time>2025-09-13T15:48:54Z</time>
      </trkpt>
      <trkpt lat="47.50835" lon="6.84392">
        <ele>319.5</ele>
        <time>2025-09-13T15:48:55Z</time>
      </trkpt>
      <trkpt lat="47.50839" lon="6.84403">
        <ele>319.4</ele>
        <time>2025-09-13T15:48:56Z</time>
      </trkpt>
      <trkpt lat="47.50844" lon="6.84413">
        <ele>319.4</ele>
        <time>2025-09-13T15:48:57Z</time>
      </trkpt>
      <trkpt lat="47.50849" lon="6.84423">
        <ele>319.4</ele>
        <time>2025-09-13T15:48:58Z</time>
      </trkpt>
      <trkpt lat="47.50853" lon="6.84432">
        <ele>319.4</ele>
        <time>2025-09-13T15:48:59Z</time>
      </trkpt>
      <trkpt lat="47.50859" lon="6.84443">
        <ele>319.3</ele>
        <time>2025-09-13T15:49:00Z</time>
      </trkpt>
      <trkpt lat="47.50866" lon="6.84452">
        <ele>319.2</ele>
        <time>2025-09-13T15:49:01Z</time>
      </trkpt>
      <trkpt lat="47.50871" lon="6.84462">
        <ele>319.2</ele>
        <time>2025-09-13T15:49:02Z</time>
      </trkpt>
      <trkpt lat="47.50876" lon="6.84474">
        <ele>319.1</ele>
        <time>2025-09-13T15:49:03Z</time>
      </trkpt>
      <trkpt lat="47.50879" lon="6.84486">
        <ele>319.1</ele>
        <time>2025-09-13T15:49:04Z</time>
      </trkpt>
      <trkpt lat="47.50887" lon="6.84493">
        <ele>319</ele>
        <time>2025-09-13T15:49:05Z</time>
      </trkpt>
      <trkpt lat="47.50893" lon="6.84504">
        <ele>319</ele>
        <time>2025-09-13T15:49:06Z</time>
      </trkpt>
      <trkpt lat="47.50898" lon="6.84514">
        <ele>319</ele>
        <time>2025-09-13T15:49:07Z</time>
      </trkpt>
      <trkpt lat="47.50903" lon="6.84524">
        <ele>319</ele>
        <time>2025-09-13T15:49:08Z</time>
      </trkpt>
      <trkpt lat="47.50908" lon="6.84533">
        <ele>318.9</ele>
        <time>2025-09-13T15:49:09Z</time>
      </trkpt>
      <trkpt lat="47.50913" lon="6.84543">
        <ele>318.9</ele>
        <time>2025-09-13T15:49:10Z</time>
      </trkpt>
      <trkpt lat="47.50919" lon="6.84552">
        <ele>318.9</ele>
        <time>2025-09-13T15:49:11Z</time>
      </trkpt>
      <trkpt lat="47.50925" lon="6.84561">
        <ele>318.9</ele>
        <time>2025-09-13T15:49:12Z</time>
      </trkpt>
      <trkpt lat="47.5093" lon="6.84571">
        <ele>318.9</ele>
        <time>2025-09-13T15:49:13Z</time>
      </trkpt>
      <trkpt lat="47.50933" lon="6.84582">
        <ele>318.9</ele>
        <time>2025-09-13T15:49:14Z</time>
      </trkpt>
      <trkpt lat="47.50941" lon="6.84591">
        <ele>318.9</ele>
        <time>2025-09-13T15:49:15Z</time>
      </trkpt>
      <trkpt lat="47.50947" lon="6.84599">
        <ele>318.9</ele>
        <time>2025-09-13T15:49:16Z</time>
      </trkpt>
      <trkpt lat="47.50952" lon="6.84608">
        <ele>319</ele>
        <time>2025-09-13T15:49:17Z</time>
      </trkpt>
      <trkpt lat="47.50958" lon="6.84619">
        <ele>319</ele>
        <time>2025-09-13T15:49:18Z</time>
      </trkpt>
      <trkpt lat="47.50963" lon="6.84627">
        <ele>319</ele>
        <time>2025-09-13T15:49:19Z</time>
      </trkpt>
      <trkpt lat="47.50969" lon="6.84637">
        <ele>319.1</ele>
        <time>2025-09-13T15:49:20Z</time>
      </trkpt>
      <trkpt lat="47.50974" lon="6.84647">
        <ele>319.1</ele>
        <time>2025-09-13T15:49:21Z</time>
      </trkpt>
      <trkpt lat="47.50979" lon="6.84657">
        <ele>319.2</ele>
        <time>2025-09-13T15:49:22Z</time>
      </trkpt>
      <trkpt lat="47.50984" lon="6.84666">
        <ele>319.2</ele>
        <time>2025-09-13T15:49:23Z</time>
      </trkpt>
      <trkpt lat="47.5099" lon="6.84675">
        <ele>319.3</ele>
        <time>2025-09-13T15:49:24Z</time>
      </trkpt>
      <trkpt lat="47.50995" lon="6.84684">
        <ele>319.3</ele>
        <time>2025-09-13T15:49:25Z</time>
      </trkpt>
      <trkpt lat="47.50999" lon="6.84694">
        <ele>319.4</ele>
        <time>2025-09-13T15:49:26Z</time>
      </trkpt>
      <trkpt lat="47.51004" lon="6.84703">
        <ele>319.4</ele>
        <time>2025-09-13T15:49:27Z</time>
      </trkpt>
      <trkpt lat="47.51009" lon="6.84712">
        <ele>319.4</ele>
        <time>2025-09-13T15:49:28Z</time>
      </trkpt>
      <trkpt lat="47.51013" lon="6.8472">
        <ele>319.4</ele>
        <time>2025-09-13T15:49:29Z</time>
      </trkpt>
      <trkpt lat="47.51019" lon="6.84729">
        <ele>319.3</ele>
        <time>2025-09-13T15:49:30Z</time>
      </trkpt>
      <trkpt lat="47.51025" lon="6.84739">
        <ele>319.3</ele>
        <time>2025-09-13T15:49:31Z</time>
      </trkpt>
      <trkpt lat="47.51031" lon="6.84747">
        <ele>319.3</ele>
        <time>2025-09-13T15:49:32Z</time>
      </trkpt>
      <trkpt lat="47.51036" lon="6.84757">
        <ele>319.3</ele>
        <time>2025-09-13T15:49:33Z</time>
      </trkpt>
      <trkpt lat="47.51041" lon="6.84766">
        <ele>319.3</ele>
        <time>2025-09-13T15:49:34Z</time>
      </trkpt>
      <trkpt lat="47.51047" lon="6.84774">
        <ele>319.3</ele>
        <time>2025-09-13T15:49:35Z</time>
      </trkpt>
      <trkpt lat="47.51053" lon="6.84783">
        <ele>319.4</ele>
        <time>2025-09-13T15:49:36Z</time>
      </trkpt>
      <trkpt lat="47.51059" lon="6.84791">
        <ele>319.4</ele>
        <time>2025-09-13T15:49:37Z</time>
      </trkpt>
      <trkpt lat="47.51066" lon="6.84798">
        <ele>319.4</ele>
        <time>2025-09-13T15:49:38Z</time>
      </trkpt>
      <trkpt lat="47.51073" lon="6.84805">
        <ele>319.4</ele>
        <time>2025-09-13T15:49:39Z</time>
      </trkpt>
      <trkpt lat="47.5108" lon="6.84811">
        <ele>319.5</ele>
        <time>2025-09-13T15:49:40Z</time>
      </trkpt>
      <trkpt lat="47.51086" lon="6.84816">
        <ele>319.5</ele>
        <time>2025-09-13T15:49:41Z</time>
      </trkpt>
      <trkpt lat="47.51093" lon="6.84821">
        <ele>319.5</ele>
        <time>2025-09-13T15:49:42Z</time>
      </trkpt>
      <trkpt lat="47.51101" lon="6.84828">
        <ele>319.5</ele>
        <time>2025-09-13T15:49:43Z</time>
      </trkpt>
      <trkpt lat="47.51108" lon="6.84834">
        <ele>319.5</ele>
        <time>2025-09-13T15:49:44Z</time>
      </trkpt>
      <trkpt lat="47.51115" lon="6.84839">
        <ele>319.5</ele>
        <time>2025-09-13T15:49:45Z</time>
      </trkpt>
      <trkpt lat="47.51123" lon="6.84843">
        <ele>319.6</ele>
        <time>2025-09-13T15:49:46Z</time>
      </trkpt>
      <trkpt lat="47.51131" lon="6.84846">
        <ele>319.6</ele>
        <time>2025-09-13T15:49:47Z</time>
      </trkpt>
      <trkpt lat="47.51139" lon="6.84848">
        <ele>319.6</ele>
        <time>2025-09-13T15:49:48Z</time>
      </trkpt>
      <trkpt lat="47.51146" lon="6.84851">
        <ele>319.6</ele>
        <time>2025-09-13T15:49:49Z</time>
      </trkpt>
      <trkpt lat="47.51155" lon="6.84852">
        <ele>319.6</ele>
        <time>2025-09-13T15:49:50Z</time>
      </trkpt>
      <trkpt lat="47.51164" lon="6.84854">
        <ele>319.6</ele>
        <time>2025-09-13T15:49:51Z</time>
      </trkpt>
      <trkpt lat="47.51172" lon="6.84856">
        <ele>319.6</ele>
        <time>2025-09-13T15:49:52Z</time>
      </trkpt>
      <trkpt lat="47.5118" lon="6.84859">
        <ele>319.7</ele>
        <time>2025-09-13T15:49:53Z</time>
      </trkpt>
      <trkpt lat="47.51189" lon="6.84862">
        <ele>319.7</ele>
        <time>2025-09-13T15:49:54Z</time>
      </trkpt>
      <trkpt lat="47.51196" lon="6.84862">
        <ele>319.7</ele>
        <time>2025-09-13T15:49:55Z</time>
      </trkpt>
      <trkpt lat="47.51205" lon="6.84864">
        <ele>319.8</ele>
        <time>2025-09-13T15:49:56Z</time>
      </trkpt>
      <trkpt lat="47.51212" lon="6.84866">
        <ele>319.8</ele>
        <time>2025-09-13T15:49:57Z</time>
      </trkpt>
      <trkpt lat="47.51221" lon="6.84868">
        <ele>319.8</ele>
        <time>2025-09-13T15:49:58Z</time>
      </trkpt>
      <trkpt lat="47.51229" lon="6.84869">
        <ele>319.8</ele>
        <time>2025-09-13T15:49:59Z</time>
      </trkpt>
      <trkpt lat="47.51237" lon="6.8487">
        <ele>319.7</ele>
        <time>2025-09-13T15:50:00Z</time>
      </trkpt>
      <trkpt lat="47.51245" lon="6.8487">
        <ele>319.7</ele>
        <time>2025-09-13T15:50:01Z</time>
      </trkpt>
      <trkpt lat="47.51253" lon="6.84869">
        <ele>319.6</ele>
        <time>2025-09-13T15:50:02Z</time>
      </trkpt>
      <trkpt lat="47.51262" lon="6.84867">
        <ele>319.6</ele>
        <time>2025-09-13T15:50:03Z</time>
      </trkpt>
      <trkpt lat="47.5127" lon="6.84865">
        <ele>319.5</ele>
        <time>2025-09-13T15:50:04Z</time>
      </trkpt>
      <trkpt lat="47.51279" lon="6.84863">
        <ele>319.5</ele>
        <time>2025-09-13T15:50:05Z</time>
      </trkpt>
      <trkpt lat="47.51287" lon="6.8486">
        <ele>319.5</ele>
        <time>2025-09-13T15:50:06Z</time>
      </trkpt>
      <trkpt lat="47.51294" lon="6.84856">
        <ele>319.5</ele>
        <time>2025-09-13T15:50:07Z</time>
      </trkpt>
      <trkpt lat="47.51301" lon="6.84852">
        <ele>319.4</ele>
        <time>2025-09-13T15:50:08Z</time>
      </trkpt>
      <trkpt lat="47.51307" lon="6.84847">
        <ele>319.3</ele>
        <time>2025-09-13T15:50:09Z</time>
      </trkpt>
      <trkpt lat="47.51314" lon="6.84843">
        <ele>319.1</ele>
        <time>2025-09-13T15:50:10Z</time>
      </trkpt>
      <trkpt lat="47.5132" lon="6.84838">
        <ele>318.8</ele>
        <time>2025-09-13T15:50:11Z</time>
      </trkpt>
      <trkpt lat="47.51326" lon="6.84832">
        <ele>318.6</ele>
        <time>2025-09-13T15:50:12Z</time>
      </trkpt>
      <trkpt lat="47.51332" lon="6.84825">
        <ele>318.3</ele>
        <time>2025-09-13T15:50:13Z</time>
      </trkpt>
      <trkpt lat="47.51337" lon="6.84818">
        <ele>318.1</ele>
        <time>2025-09-13T15:50:14Z</time>
      </trkpt>
      <trkpt lat="47.51343" lon="6.8481">
        <ele>318</ele>
        <time>2025-09-13T15:50:15Z</time>
      </trkpt>
      <trkpt lat="47.51348" lon="6.84804">
        <ele>318</ele>
        <time>2025-09-13T15:50:16Z</time>
      </trkpt>
      <trkpt lat="47.51354" lon="6.84795">
        <ele>317.9</ele>
        <time>2025-09-13T15:50:17Z</time>
      </trkpt>
      <trkpt lat="47.51359" lon="6.84786">
        <ele>317.9</ele>
        <time>2025-09-13T15:50:18Z</time>
      </trkpt>
      <trkpt lat="47.51363" lon="6.84777">
        <ele>317.8</ele>
        <time>2025-09-13T15:50:19Z</time>
      </trkpt>
      <trkpt lat="47.51368" lon="6.84768">
        <ele>317.8</ele>
        <time>2025-09-13T15:50:20Z</time>
      </trkpt>
      <trkpt lat="47.51373" lon="6.84759">
        <ele>317.8</ele>
        <time>2025-09-13T15:50:21Z</time>
      </trkpt>
      <trkpt lat="47.51377" lon="6.84752">
        <ele>317.9</ele>
        <time>2025-09-13T15:50:22Z</time>
      </trkpt>
      <trkpt lat="47.51382" lon="6.84743">
        <ele>318.2</ele>
        <time>2025-09-13T15:50:23Z</time>
      </trkpt>
      <trkpt lat="47.51382" lon="6.8473">
        <ele>318.7</ele>
        <time>2025-09-13T15:50:24Z</time>
      </trkpt>
      <trkpt lat="47.51384" lon="6.84722">
        <ele>319.1</ele>
        <time>2025-09-13T15:50:25Z</time>
      </trkpt>
      <trkpt lat="47.51387" lon="6.84712">
        <ele>319.5</ele>
        <time>2025-09-13T15:50:26Z</time>
      </trkpt>
      <trkpt lat="47.5139" lon="6.84703">
        <ele>319.9</ele>
        <time>2025-09-13T15:50:27Z</time>
      </trkpt>
      <trkpt lat="47.51393" lon="6.84693">
        <ele>320.2</ele>
        <time>2025-09-13T15:50:28Z</time>
      </trkpt>
      <trkpt lat="47.51397" lon="6.84684">
        <ele>320.3</ele>
        <time>2025-09-13T15:50:29Z</time>
      </trkpt>
      <trkpt lat="47.51401" lon="6.84675">
        <ele>320.5</ele>
        <time>2025-09-13T15:50:30Z</time>
      </trkpt>
      <trkpt lat="47.51406" lon="6.84667">
        <ele>320.5</ele>
        <time>2025-09-13T15:50:31Z</time>
      </trkpt>
      <trkpt lat="47.51414" lon="6.8466">
        <ele>320.5</ele>
        <time>2025-09-13T15:50:32Z</time>
      </trkpt>
      <trkpt lat="47.51421" lon="6.84651">
        <ele>320.5</ele>
        <time>2025-09-13T15:50:33Z</time>
      </trkpt>
      <trkpt lat="47.51426" lon="6.84643">
        <ele>320.5</ele>
        <time>2025-09-13T15:50:34Z</time>
      </trkpt>
      <trkpt lat="47.51433" lon="6.84637">
        <ele>320.5</ele>
        <time>2025-09-13T15:50:35Z</time>
      </trkpt>
      <trkpt lat="47.51438" lon="6.84628">
        <ele>320.5</ele>
        <time>2025-09-13T15:50:36Z</time>
      </trkpt>
      <trkpt lat="47.51445" lon="6.84621">
        <ele>320.5</ele>
        <time>2025-09-13T15:50:37Z</time>
      </trkpt>
      <trkpt lat="47.51451" lon="6.84614">
        <ele>320.6</ele>
        <time>2025-09-13T15:50:38Z</time>
      </trkpt>
      <trkpt lat="47.51457" lon="6.84606">
        <ele>320.6</ele>
        <time>2025-09-13T15:50:39Z</time>
      </trkpt>
      <trkpt lat="47.51463" lon="6.84595">
        <ele>320.7</ele>
        <time>2025-09-13T15:50:40Z</time>
      </trkpt>
      <trkpt lat="47.51468" lon="6.84588">
        <ele>320.7</ele>
        <time>2025-09-13T15:50:41Z</time>
      </trkpt>
      <trkpt lat="47.51474" lon="6.84581">
        <ele>320.8</ele>
        <time>2025-09-13T15:50:42Z</time>
      </trkpt>
      <trkpt lat="47.5148" lon="6.84575">
        <ele>320.8</ele>
        <time>2025-09-13T15:50:43Z</time>
      </trkpt>
      <trkpt lat="47.51486" lon="6.84568">
        <ele>320.8</ele>
        <time>2025-09-13T15:50:44Z</time>
      </trkpt>
      <trkpt lat="47.51492" lon="6.84561">
        <ele>320.8</ele>
        <time>2025-09-13T15:50:45Z</time>
      </trkpt>
      <trkpt lat="47.51498" lon="6.84553">
        <ele>320.8</ele>
        <time>2025-09-13T15:50:46Z</time>
      </trkpt>
      <trkpt lat="47.51503" lon="6.84546">
        <ele>320.8</ele>
        <time>2025-09-13T15:50:47Z</time>
      </trkpt>
      <trkpt lat="47.51509" lon="6.84538">
        <ele>320.9</ele>
        <time>2025-09-13T15:50:48Z</time>
      </trkpt>
      <trkpt lat="47.51514" lon="6.84531">
        <ele>320.9</ele>
        <time>2025-09-13T15:50:49Z</time>
      </trkpt>
      <trkpt lat="47.51519" lon="6.84524">
        <ele>320.9</ele>
        <time>2025-09-13T15:50:50Z</time>
      </trkpt>
      <trkpt lat="47.51525" lon="6.84517">
        <ele>320.9</ele>
        <time>2025-09-13T15:50:51Z</time>
      </trkpt>
      <trkpt lat="47.51531" lon="6.8451">
        <ele>321</ele>
        <time>2025-09-13T15:50:52Z</time>
      </trkpt>
      <trkpt lat="47.51536" lon="6.84503">
        <ele>321</ele>
        <time>2025-09-13T15:50:53Z</time>
      </trkpt>
      <trkpt lat="47.51542" lon="6.84496">
        <ele>321</ele>
        <time>2025-09-13T15:50:54Z</time>
      </trkpt>
      <trkpt lat="47.51547" lon="6.84488">
        <ele>321</ele>
        <time>2025-09-13T15:50:55Z</time>
      </trkpt>
      <trkpt lat="47.51553" lon="6.84481">
        <ele>321</ele>
        <time>2025-09-13T15:50:56Z</time>
      </trkpt>
      <trkpt lat="47.51558" lon="6.84474">
        <ele>321</ele>
        <time>2025-09-13T15:50:57Z</time>
      </trkpt>
      <trkpt lat="47.51563" lon="6.84467">
        <ele>321</ele>
        <time>2025-09-13T15:50:58Z</time>
      </trkpt>
      <trkpt lat="47.51569" lon="6.8446">
        <ele>321</ele>
        <time>2025-09-13T15:50:59Z</time>
      </trkpt>
      <trkpt lat="47.51574" lon="6.84452">
        <ele>320.9</ele>
        <time>2025-09-13T15:51:00Z</time>
      </trkpt>
      <trkpt lat="47.5158" lon="6.84445">
        <ele>320.9</ele>
        <time>2025-09-13T15:51:01Z</time>
      </trkpt>
      <trkpt lat="47.51585" lon="6.84436">
        <ele>320.8</ele>
        <time>2025-09-13T15:51:02Z</time>
      </trkpt>
      <trkpt lat="47.5159" lon="6.84427">
        <ele>320.7</ele>
        <time>2025-09-13T15:51:03Z</time>
      </trkpt>
      <trkpt lat="47.51596" lon="6.84418">
        <ele>320.7</ele>
        <time>2025-09-13T15:51:04Z</time>
      </trkpt>
      <trkpt lat="47.51601" lon="6.84409">
        <ele>320.6</ele>
        <time>2025-09-13T15:51:05Z</time>
      </trkpt>
      <trkpt lat="47.51605" lon="6.84401">
        <ele>320.6</ele>
        <time>2025-09-13T15:51:06Z</time>
      </trkpt>
      <trkpt lat="47.51612" lon="6.84391">
        <ele>320.6</ele>
        <time>2025-09-13T15:51:07Z</time>
      </trkpt>
      <trkpt lat="47.51617" lon="6.84382">
        <ele>320.6</ele>
        <time>2025-09-13T15:51:08Z</time>
      </trkpt>
      <trkpt lat="47.51623" lon="6.84374">
        <ele>320.6</ele>
        <time>2025-09-13T15:51:09Z</time>
      </trkpt>
      <trkpt lat="47.51628" lon="6.84365">
        <ele>320.6</ele>
        <time>2025-09-13T15:51:10Z</time>
      </trkpt>
      <trkpt lat="47.51633" lon="6.84357">
        <ele>320.5</ele>
        <time>2025-09-13T15:51:11Z</time>
      </trkpt>
      <trkpt lat="47.51639" lon="6.84348">
        <ele>320.5</ele>
        <time>2025-09-13T15:51:12Z</time>
      </trkpt>
      <trkpt lat="47.51645" lon="6.84339">
        <ele>320.5</ele>
        <time>2025-09-13T15:51:13Z</time>
      </trkpt>
      <trkpt lat="47.5165" lon="6.84331">
        <ele>320.5</ele>
        <time>2025-09-13T15:51:14Z</time>
      </trkpt>
      <trkpt lat="47.51655" lon="6.84323">
        <ele>320.5</ele>
        <time>2025-09-13T15:51:15Z</time>
      </trkpt>
      <trkpt lat="47.51661" lon="6.84316">
        <ele>320.5</ele>
        <time>2025-09-13T15:51:16Z</time>
      </trkpt>
      <trkpt lat="47.51668" lon="6.84309">
        <ele>320.5</ele>
        <time>2025-09-13T15:51:17Z</time>
      </trkpt>
      <trkpt lat="47.51675" lon="6.84303">
        <ele>320.5</ele>
        <time>2025-09-13T15:51:18Z</time>
      </trkpt>
      <trkpt lat="47.51682" lon="6.84295">
        <ele>320.5</ele>
        <time>2025-09-13T15:51:19Z</time>
      </trkpt>
      <trkpt lat="47.51688" lon="6.84288">
        <ele>320.5</ele>
        <time>2025-09-13T15:51:20Z</time>
      </trkpt>
      <trkpt lat="47.51694" lon="6.84281">
        <ele>320.5</ele>
        <time>2025-09-13T15:51:21Z</time>
      </trkpt>
      <trkpt lat="47.517" lon="6.84272">
        <ele>320.5</ele>
        <time>2025-09-13T15:51:22Z</time>
      </trkpt>
      <trkpt lat="47.51705" lon="6.84262">
        <ele>320.6</ele>
        <time>2025-09-13T15:51:23Z</time>
      </trkpt>
      <trkpt lat="47.51709" lon="6.84254">
        <ele>320.6</ele>
        <time>2025-09-13T15:51:24Z</time>
      </trkpt>
      <trkpt lat="47.51715" lon="6.84245">
        <ele>320.6</ele>
        <time>2025-09-13T15:51:25Z</time>
      </trkpt>
      <trkpt lat="47.51719" lon="6.84235">
        <ele>320.7</ele>
        <time>2025-09-13T15:51:26Z</time>
      </trkpt>
      <trkpt lat="47.51723" lon="6.84226">
        <ele>320.7</ele>
        <time>2025-09-13T15:51:27Z</time>
      </trkpt>
      <trkpt lat="47.51727" lon="6.84217">
        <ele>320.7</ele>
        <time>2025-09-13T15:51:28Z</time>
      </trkpt>
      <trkpt lat="47.51732" lon="6.84208">
        <ele>320.7</ele>
        <time>2025-09-13T15:51:29Z</time>
      </trkpt>
      <trkpt lat="47.51736" lon="6.842">
        <ele>320.7</ele>
        <time>2025-09-13T15:51:30Z</time>
      </trkpt>
      <trkpt lat="47.51742" lon="6.84192">
        <ele>320.8</ele>
        <time>2025-09-13T15:51:31Z</time>
      </trkpt>
      <trkpt lat="47.51747" lon="6.84183">
        <ele>320.8</ele>
        <time>2025-09-13T15:51:32Z</time>
      </trkpt>
      <trkpt lat="47.51751" lon="6.84173">
        <ele>320.8</ele>
        <time>2025-09-13T15:51:33Z</time>
      </trkpt>
      <trkpt lat="47.51757" lon="6.84164">
        <ele>320.8</ele>
        <time>2025-09-13T15:51:34Z</time>
      </trkpt>
      <trkpt lat="47.51762" lon="6.84155">
        <ele>320.8</ele>
        <time>2025-09-13T15:51:35Z</time>
      </trkpt>
      <trkpt lat="47.51767" lon="6.84147">
        <ele>320.8</ele>
        <time>2025-09-13T15:51:36Z</time>
      </trkpt>
      <trkpt lat="47.51773" lon="6.84139">
        <ele>320.8</ele>
        <time>2025-09-13T15:51:37Z</time>
      </trkpt>
      <trkpt lat="47.5178" lon="6.84132">
        <ele>320.8</ele>
        <time>2025-09-13T15:51:38Z</time>
      </trkpt>
      <trkpt lat="47.51785" lon="6.84124">
        <ele>320.8</ele>
        <time>2025-09-13T15:51:39Z</time>
      </trkpt>
      <trkpt lat="47.51791" lon="6.84117">
        <ele>320.8</ele>
        <time>2025-09-13T15:51:40Z</time>
      </trkpt>
      <trkpt lat="47.51798" lon="6.84111">
        <ele>320.8</ele>
        <time>2025-09-13T15:51:41Z</time>
      </trkpt>
      <trkpt lat="47.51805" lon="6.84107">
        <ele>320.8</ele>
        <time>2025-09-13T15:51:42Z</time>
      </trkpt>
      <trkpt lat="47.51812" lon="6.84102">
        <ele>320.8</ele>
        <time>2025-09-13T15:51:43Z</time>
      </trkpt>
      <trkpt lat="47.5182" lon="6.84099">
        <ele>320.7</ele>
        <time>2025-09-13T15:51:44Z</time>
      </trkpt>
      <trkpt lat="47.51829" lon="6.84098">
        <ele>320.7</ele>
        <time>2025-09-13T15:51:45Z</time>
      </trkpt>
      <trkpt lat="47.51837" lon="6.84099">
        <ele>320.7</ele>
        <time>2025-09-13T15:51:46Z</time>
      </trkpt>
      <trkpt lat="47.51845" lon="6.84104">
        <ele>320.8</ele>
        <time>2025-09-13T15:51:47Z</time>
      </trkpt>
      <trkpt lat="47.51853" lon="6.84108">
        <ele>320.8</ele>
        <time>2025-09-13T15:51:48Z</time>
      </trkpt>
      <trkpt lat="47.51861" lon="6.84113">
        <ele>320.8</ele>
        <time>2025-09-13T15:51:49Z</time>
      </trkpt>
      <trkpt lat="47.51868" lon="6.84117">
        <ele>320.8</ele>
        <time>2025-09-13T15:51:50Z</time>
      </trkpt>
      <trkpt lat="47.51876" lon="6.84122">
        <ele>320.8</ele>
        <time>2025-09-13T15:51:51Z</time>
      </trkpt>
      <trkpt lat="47.51883" lon="6.84127">
        <ele>320.8</ele>
        <time>2025-09-13T15:51:52Z</time>
      </trkpt>
      <trkpt lat="47.51891" lon="6.84133">
        <ele>320.8</ele>
        <time>2025-09-13T15:51:53Z</time>
      </trkpt>
      <trkpt lat="47.51898" lon="6.84137">
        <ele>320.8</ele>
        <time>2025-09-13T15:51:54Z</time>
      </trkpt>
      <trkpt lat="47.51905" lon="6.84142">
        <ele>320.8</ele>
        <time>2025-09-13T15:51:55Z</time>
      </trkpt>
      <trkpt lat="47.51913" lon="6.84148">
        <ele>320.8</ele>
        <time>2025-09-13T15:51:56Z</time>
      </trkpt>
      <trkpt lat="47.5192" lon="6.84153">
        <ele>320.8</ele>
        <time>2025-09-13T15:51:57Z</time>
      </trkpt>
      <trkpt lat="47.51928" lon="6.8416">
        <ele>320.8</ele>
        <time>2025-09-13T15:51:58Z</time>
      </trkpt>
      <trkpt lat="47.51935" lon="6.84166">
        <ele>320.7</ele>
        <time>2025-09-13T15:51:59Z</time>
      </trkpt>
      <trkpt lat="47.51943" lon="6.8417">
        <ele>320.7</ele>
        <time>2025-09-13T15:52:00Z</time>
      </trkpt>
      <trkpt lat="47.5195" lon="6.84174">
        <ele>320.7</ele>
        <time>2025-09-13T15:52:01Z</time>
      </trkpt>
      <trkpt lat="47.51958" lon="6.8418">
        <ele>320.6</ele>
        <time>2025-09-13T15:52:02Z</time>
      </trkpt>
      <trkpt lat="47.51966" lon="6.84184">
        <ele>320.6</ele>
        <time>2025-09-13T15:52:03Z</time>
      </trkpt>
      <trkpt lat="47.51975" lon="6.84189">
        <ele>320.6</ele>
        <time>2025-09-13T15:52:04Z</time>
      </trkpt>
      <trkpt lat="47.51982" lon="6.84194">
        <ele>320.5</ele>
        <time>2025-09-13T15:52:05Z</time>
      </trkpt>
      <trkpt lat="47.5199" lon="6.84199">
        <ele>320.5</ele>
        <time>2025-09-13T15:52:06Z</time>
      </trkpt>
      <trkpt lat="47.51999" lon="6.84204">
        <ele>320.5</ele>
        <time>2025-09-13T15:52:07Z</time>
      </trkpt>
      <trkpt lat="47.52008" lon="6.84208">
        <ele>320.5</ele>
        <time>2025-09-13T15:52:08Z</time>
      </trkpt>
      <trkpt lat="47.52016" lon="6.84212">
        <ele>320.5</ele>
        <time>2025-09-13T15:52:09Z</time>
      </trkpt>
      <trkpt lat="47.52024" lon="6.84216">
        <ele>320.6</ele>
        <time>2025-09-13T15:52:10Z</time>
      </trkpt>
      <trkpt lat="47.52033" lon="6.8422">
        <ele>320.6</ele>
        <time>2025-09-13T15:52:11Z</time>
      </trkpt>
      <trkpt lat="47.52042" lon="6.84225">
        <ele>320.6</ele>
        <time>2025-09-13T15:52:12Z</time>
      </trkpt>
      <trkpt lat="47.5205" lon="6.84229">
        <ele>320.6</ele>
        <time>2025-09-13T15:52:13Z</time>
      </trkpt>
      <trkpt lat="47.52058" lon="6.84234">
        <ele>320.6</ele>
        <time>2025-09-13T15:52:14Z</time>
      </trkpt>
      <trkpt lat="47.52066" lon="6.84239">
        <ele>320.6</ele>
        <time>2025-09-13T15:52:15Z</time>
      </trkpt>
      <trkpt lat="47.52074" lon="6.84244">
        <ele>320.6</ele>
        <time>2025-09-13T15:52:16Z</time>
      </trkpt>
      <trkpt lat="47.52083" lon="6.84251">
        <ele>320.6</ele>
        <time>2025-09-13T15:52:17Z</time>
      </trkpt>
      <trkpt lat="47.52091" lon="6.84257">
        <ele>320.6</ele>
        <time>2025-09-13T15:52:18Z</time>
      </trkpt>
      <trkpt lat="47.52099" lon="6.84263">
        <ele>320.6</ele>
        <time>2025-09-13T15:52:19Z</time>
      </trkpt>
      <trkpt lat="47.52107" lon="6.8427">
        <ele>320.6</ele>
        <time>2025-09-13T15:52:20Z</time>
      </trkpt>
      <trkpt lat="47.52115" lon="6.84276">
        <ele>320.7</ele>
        <time>2025-09-13T15:52:21Z</time>
      </trkpt>
      <trkpt lat="47.52122" lon="6.84283">
        <ele>320.7</ele>
        <time>2025-09-13T15:52:22Z</time>
      </trkpt>
      <trkpt lat="47.5213" lon="6.84289">
        <ele>320.7</ele>
        <time>2025-09-13T15:52:23Z</time>
      </trkpt>
      <trkpt lat="47.52137" lon="6.84295">
        <ele>320.7</ele>
        <time>2025-09-13T15:52:24Z</time>
      </trkpt>
      <trkpt lat="47.52144" lon="6.84302">
        <ele>320.8</ele>
        <time>2025-09-13T15:52:25Z</time>
      </trkpt>
      <trkpt lat="47.52151" lon="6.84306">
        <ele>320.8</ele>
        <time>2025-09-13T15:52:27Z</time>
      </trkpt>
      <trkpt lat="47.52158" lon="6.84313">
        <ele>320.9</ele>
        <time>2025-09-13T15:52:28Z</time>
      </trkpt>
      <trkpt lat="47.52165" lon="6.8432">
        <ele>321</ele>
        <time>2025-09-13T15:52:29Z</time>
      </trkpt>
      <trkpt lat="47.52171" lon="6.84326">
        <ele>321.1</ele>
        <time>2025-09-13T15:52:30Z</time>
      </trkpt>
      <trkpt lat="47.52177" lon="6.84331">
        <ele>321.3</ele>
        <time>2025-09-13T15:52:31Z</time>
      </trkpt>
      <trkpt lat="47.52183" lon="6.84336">
        <ele>321.6</ele>
        <time>2025-09-13T15:52:32Z</time>
      </trkpt>
      <trkpt lat="47.52188" lon="6.84341">
        <ele>321.9</ele>
        <time>2025-09-13T15:52:33Z</time>
      </trkpt>
      <trkpt lat="47.5219" lon="6.84344">
        <ele>322</ele>
        <time>2025-09-13T15:52:34Z</time>
      </trkpt>
      <trkpt lat="47.5219" lon="6.84346">
        <ele>322</ele>
        <time>2025-09-13T15:52:35Z</time>
      </trkpt>
      <trkpt lat="47.52189" lon="6.84351">
        <ele>322</ele>
        <time>2025-09-13T15:52:36Z</time>
      </trkpt>
      <trkpt lat="47.52185" lon="6.84356">
        <ele>322</ele>
        <time>2025-09-13T15:52:37Z</time>
      </trkpt>
      <trkpt lat="47.52181" lon="6.8436">
        <ele>322</ele>
        <time>2025-09-13T15:52:38Z</time>
      </trkpt>
      <trkpt lat="47.52178" lon="6.84367">
        <ele>322</ele>
        <time>2025-09-13T15:52:39Z</time>
      </trkpt>
      <trkpt lat="47.52174" lon="6.84374">
        <ele>322</ele>
        <time>2025-09-13T15:52:40Z</time>
      </trkpt>
      <trkpt lat="47.5217" lon="6.84381">
        <ele>322</ele>
        <time>2025-09-13T15:52:41Z</time>
      </trkpt>
      <trkpt lat="47.52167" lon="6.84389">
        <ele>321.9</ele>
        <time>2025-09-13T15:52:42Z</time>
      </trkpt>
      <trkpt lat="47.52162" lon="6.84397">
        <ele>321.9</ele>
        <time>2025-09-13T15:52:43Z</time>
      </trkpt>
      <trkpt lat="47.52157" lon="6.84404">
        <ele>321.8</ele>
        <time>2025-09-13T15:52:44Z</time>
      </trkpt>
      <trkpt lat="47.52153" lon="6.84412">
        <ele>321.7</ele>
        <time>2025-09-13T15:52:45Z</time>
      </trkpt>
      <trkpt lat="47.52145" lon="6.84428">
        <ele>321.5</ele>
        <time>2025-09-13T15:52:46Z</time>
      </trkpt>
      <trkpt lat="47.52142" lon="6.84436">
        <ele>321.4</ele>
        <time>2025-09-13T15:52:47Z</time>
      </trkpt>
      <trkpt lat="47.52139" lon="6.84445">
        <ele>321.3</ele>
        <time>2025-09-13T15:52:48Z</time>
      </trkpt>
      <trkpt lat="47.52135" lon="6.84454">
        <ele>321.2</ele>
        <time>2025-09-13T15:52:49Z</time>
      </trkpt>
      <trkpt lat="47.52131" lon="6.84462">
        <ele>321.1</ele>
        <time>2025-09-13T15:52:50Z</time>
      </trkpt>
      <trkpt lat="47.52127" lon="6.8447">
        <ele>321</ele>
        <time>2025-09-13T15:52:51Z</time>
      </trkpt>
      <trkpt lat="47.52122" lon="6.8448">
        <ele>320.9</ele>
        <time>2025-09-13T15:52:52Z</time>
      </trkpt>
      <trkpt lat="47.52117" lon="6.84489">
        <ele>320.8</ele>
        <time>2025-09-13T15:52:53Z</time>
      </trkpt>
      <trkpt lat="47.52113" lon="6.84498">
        <ele>320.8</ele>
        <time>2025-09-13T15:52:54Z</time>
      </trkpt>
      <trkpt lat="47.52109" lon="6.84507">
        <ele>320.7</ele>
        <time>2025-09-13T15:52:55Z</time>
      </trkpt>
      <trkpt lat="47.52103" lon="6.84517">
        <ele>320.7</ele>
        <time>2025-09-13T15:52:56Z</time>
      </trkpt>
      <trkpt lat="47.52099" lon="6.84524">
        <ele>320.7</ele>
        <time>2025-09-13T15:52:57Z</time>
      </trkpt>
      <trkpt lat="47.52094" lon="6.84534">
        <ele>320.6</ele>
        <time>2025-09-13T15:52:58Z</time>
      </trkpt>
      <trkpt lat="47.52091" lon="6.84544">
        <ele>320.7</ele>
        <time>2025-09-13T15:52:59Z</time>
      </trkpt>
      <trkpt lat="47.52088" lon="6.84555">
        <ele>320.7</ele>
        <time>2025-09-13T15:53:00Z</time>
      </trkpt>
      <trkpt lat="47.52086" lon="6.84567">
        <ele>320.7</ele>
        <time>2025-09-13T15:53:01Z</time>
      </trkpt>
      <trkpt lat="47.52083" lon="6.8458">
        <ele>320.7</ele>
        <time>2025-09-13T15:53:02Z</time>
      </trkpt>
      <trkpt lat="47.52082" lon="6.84591">
        <ele>320.7</ele>
        <time>2025-09-13T15:53:03Z</time>
      </trkpt>
      <trkpt lat="47.52082" lon="6.84602">
        <ele>320.8</ele>
        <time>2025-09-13T15:53:04Z</time>
      </trkpt>
      <trkpt lat="47.52083" lon="6.84614">
        <ele>320.8</ele>
        <time>2025-09-13T15:53:05Z</time>
      </trkpt>
      <trkpt lat="47.52084" lon="6.84625">
        <ele>320.9</ele>
        <time>2025-09-13T15:53:06Z</time>
      </trkpt>
      <trkpt lat="47.52086" lon="6.84636">
        <ele>320.9</ele>
        <time>2025-09-13T15:53:07Z</time>
      </trkpt>
      <trkpt lat="47.52088" lon="6.84647">
        <ele>320.9</ele>
        <time>2025-09-13T15:53:08Z</time>
      </trkpt>
      <trkpt lat="47.52091" lon="6.8466">
        <ele>321</ele>
        <time>2025-09-13T15:53:09Z</time>
      </trkpt>
      <trkpt lat="47.52093" lon="6.8467">
        <ele>321</ele>
        <time>2025-09-13T15:53:10Z</time>
      </trkpt>
      <trkpt lat="47.52094" lon="6.84681">
        <ele>321.1</ele>
        <time>2025-09-13T15:53:11Z</time>
      </trkpt>
      <trkpt lat="47.52097" lon="6.84692">
        <ele>321.1</ele>
        <time>2025-09-13T15:53:12Z</time>
      </trkpt>
      <trkpt lat="47.521" lon="6.84701">
        <ele>321.1</ele>
        <time>2025-09-13T15:53:13Z</time>
      </trkpt>
      <trkpt lat="47.52101" lon="6.84713">
        <ele>321.2</ele>
        <time>2025-09-13T15:53:14Z</time>
      </trkpt>
      <trkpt lat="47.52105" lon="6.84723">
        <ele>321.2</ele>
        <time>2025-09-13T15:53:15Z</time>
      </trkpt>
      <trkpt lat="47.5211" lon="6.84735">
        <ele>321.2</ele>
        <time>2025-09-13T15:53:16Z</time>
      </trkpt>
      <trkpt lat="47.52113" lon="6.84745">
        <ele>321.3</ele>
        <time>2025-09-13T15:53:17Z</time>
      </trkpt>
      <trkpt lat="47.52118" lon="6.84756">
        <ele>321.3</ele>
        <time>2025-09-13T15:53:18Z</time>
      </trkpt>
      <trkpt lat="47.52122" lon="6.84768">
        <ele>321.3</ele>
        <time>2025-09-13T15:53:19Z</time>
      </trkpt>
      <trkpt lat="47.52127" lon="6.84777">
        <ele>321.4</ele>
        <time>2025-09-13T15:53:20Z</time>
      </trkpt>
      <trkpt lat="47.52131" lon="6.84787">
        <ele>321.4</ele>
        <time>2025-09-13T15:53:21Z</time>
      </trkpt>
      <trkpt lat="47.52135" lon="6.84797">
        <ele>321.4</ele>
        <time>2025-09-13T15:53:22Z</time>
      </trkpt>
      <trkpt lat="47.5214" lon="6.84807">
        <ele>321.4</ele>
        <time>2025-09-13T15:53:23Z</time>
      </trkpt>
      <trkpt lat="47.52146" lon="6.84816">
        <ele>321.4</ele>
        <time>2025-09-13T15:53:24Z</time>
      </trkpt>
      <trkpt lat="47.52151" lon="6.84825">
        <ele>321.4</ele>
        <time>2025-09-13T15:53:25Z</time>
      </trkpt>
      <trkpt lat="47.52157" lon="6.84834">
        <ele>321.5</ele>
        <time>2025-09-13T15:53:26Z</time>
      </trkpt>
      <trkpt lat="47.52162" lon="6.84843">
        <ele>321.5</ele>
        <time>2025-09-13T15:53:27Z</time>
      </trkpt>
      <trkpt lat="47.52167" lon="6.8485">
        <ele>321.6</ele>
        <time>2025-09-13T15:53:28Z</time>
      </trkpt>
      <trkpt lat="47.52174" lon="6.84859">
        <ele>321.6</ele>
        <time>2025-09-13T15:53:29Z</time>
      </trkpt>
      <trkpt lat="47.52179" lon="6.84866">
        <ele>321.7</ele>
        <time>2025-09-13T15:53:30Z</time>
      </trkpt>
      <trkpt lat="47.52185" lon="6.84873">
        <ele>321.8</ele>
        <time>2025-09-13T15:53:31Z</time>
      </trkpt>
      <trkpt lat="47.5219" lon="6.84882">
        <ele>321.8</ele>
        <time>2025-09-13T15:53:32Z</time>
      </trkpt>
      <trkpt lat="47.52196" lon="6.8489">
        <ele>321.9</ele>
        <time>2025-09-13T15:53:33Z</time>
      </trkpt>
      <trkpt lat="47.52202" lon="6.84897">
        <ele>322</ele>
        <time>2025-09-13T15:53:34Z</time>
      </trkpt>
      <trkpt lat="47.52208" lon="6.84906">
        <ele>322.1</ele>
        <time>2025-09-13T15:53:35Z</time>
      </trkpt>
      <trkpt lat="47.52213" lon="6.84914">
        <ele>322.2</ele>
        <time>2025-09-13T15:53:36Z</time>
      </trkpt>
      <trkpt lat="47.52219" lon="6.84922">
        <ele>322.2</ele>
        <time>2025-09-13T15:53:37Z</time>
      </trkpt>
      <trkpt lat="47.52225" lon="6.84931">
        <ele>322.2</ele>
        <time>2025-09-13T15:53:38Z</time>
      </trkpt>
      <trkpt lat="47.52229" lon="6.8494">
        <ele>322.1</ele>
        <time>2025-09-13T15:53:39Z</time>
      </trkpt>
      <trkpt lat="47.52233" lon="6.84949">
        <ele>322.1</ele>
        <time>2025-09-13T15:53:40Z</time>
      </trkpt>
      <trkpt lat="47.52236" lon="6.8496">
        <ele>322.1</ele>
        <time>2025-09-13T15:53:41Z</time>
      </trkpt>
      <trkpt lat="47.52242" lon="6.8497">
        <ele>322.2</ele>
        <time>2025-09-13T15:53:42Z</time>
      </trkpt>
      <trkpt lat="47.52249" lon="6.84978">
        <ele>322.3</ele>
        <time>2025-09-13T15:53:43Z</time>
      </trkpt>
      <trkpt lat="47.52254" lon="6.84985">
        <ele>322.4</ele>
        <time>2025-09-13T15:53:44Z</time>
      </trkpt>
      <trkpt lat="47.52261" lon="6.84988">
        <ele>322.4</ele>
        <time>2025-09-13T15:53:45Z</time>
      </trkpt>
      <trkpt lat="47.52267" lon="6.84994">
        <ele>322.5</ele>
        <time>2025-09-13T15:53:46Z</time>
      </trkpt>
      <trkpt lat="47.52274" lon="6.84999">
        <ele>322.5</ele>
        <time>2025-09-13T15:53:47Z</time>
      </trkpt>
      <trkpt lat="47.52281" lon="6.85006">
        <ele>322.4</ele>
        <time>2025-09-13T15:53:48Z</time>
      </trkpt>
      <trkpt lat="47.52287" lon="6.85016">
        <ele>322.4</ele>
        <time>2025-09-13T15:53:49Z</time>
      </trkpt>
      <trkpt lat="47.52293" lon="6.85026">
        <ele>322.4</ele>
        <time>2025-09-13T15:53:50Z</time>
      </trkpt>
      <trkpt lat="47.52298" lon="6.85035">
        <ele>322.4</ele>
        <time>2025-09-13T15:53:51Z</time>
      </trkpt>
      <trkpt lat="47.52303" lon="6.85044">
        <ele>322.4</ele>
        <time>2025-09-13T15:53:52Z</time>
      </trkpt>
      <trkpt lat="47.52309" lon="6.85052">
        <ele>322.5</ele>
        <time>2025-09-13T15:53:53Z</time>
      </trkpt>
      <trkpt lat="47.52315" lon="6.8506">
        <ele>322.5</ele>
        <time>2025-09-13T15:53:54Z</time>
      </trkpt>
      <trkpt lat="47.5232" lon="6.85068">
        <ele>322.5</ele>
        <time>2025-09-13T15:53:55Z</time>
      </trkpt>
      <trkpt lat="47.52326" lon="6.85075">
        <ele>322.6</ele>
        <time>2025-09-13T15:53:56Z</time>
      </trkpt>
      <trkpt lat="47.52331" lon="6.85085">
        <ele>322.6</ele>
        <time>2025-09-13T15:53:57Z</time>
      </trkpt>
      <trkpt lat="47.52337" lon="6.85094">
        <ele>322.7</ele>
        <time>2025-09-13T15:53:58Z</time>
      </trkpt>
      <trkpt lat="47.52343" lon="6.85103">
        <ele>322.7</ele>
        <time>2025-09-13T15:53:59Z</time>
      </trkpt>
      <trkpt lat="47.52349" lon="6.8511">
        <ele>322.7</ele>
        <time>2025-09-13T15:54:00Z</time>
      </trkpt>
      <trkpt lat="47.52355" lon="6.85118">
        <ele>322.8</ele>
        <time>2025-09-13T15:54:01Z</time>
      </trkpt>
      <trkpt lat="47.52361" lon="6.85127">
        <ele>322.8</ele>
        <time>2025-09-13T15:54:02Z</time>
      </trkpt>
      <trkpt lat="47.52367" lon="6.85135">
        <ele>322.9</ele>
        <time>2025-09-13T15:54:03Z</time>
      </trkpt>
      <trkpt lat="47.52374" lon="6.85143">
        <ele>322.9</ele>
        <time>2025-09-13T15:54:04Z</time>
      </trkpt>
      <trkpt lat="47.52379" lon="6.85151">
        <ele>322.8</ele>
        <time>2025-09-13T15:54:05Z</time>
      </trkpt>
      <trkpt lat="47.52384" lon="6.85159">
        <ele>322.8</ele>
        <time>2025-09-13T15:54:06Z</time>
      </trkpt>
      <trkpt lat="47.52389" lon="6.85168">
        <ele>322.7</ele>
        <time>2025-09-13T15:54:07Z</time>
      </trkpt>
      <trkpt lat="47.52395" lon="6.85176">
        <ele>322.7</ele>
        <time>2025-09-13T15:54:08Z</time>
      </trkpt>
      <trkpt lat="47.52403" lon="6.85187">
        <ele>322.5</ele>
        <time>2025-09-13T15:54:09Z</time>
      </trkpt>
      <trkpt lat="47.52407" lon="6.85199">
        <ele>322.4</ele>
        <time>2025-09-13T15:54:10Z</time>
      </trkpt>
      <trkpt lat="47.52412" lon="6.8521">
        <ele>322.4</ele>
        <time>2025-09-13T15:54:11Z</time>
      </trkpt>
      <trkpt lat="47.52417" lon="6.85221">
        <ele>322.3</ele>
        <time>2025-09-13T15:54:12Z</time>
      </trkpt>
      <trkpt lat="47.52422" lon="6.85231">
        <ele>322.3</ele>
        <time>2025-09-13T15:54:13Z</time>
      </trkpt>
      <trkpt lat="47.52429" lon="6.85241">
        <ele>322.3</ele>
        <time>2025-09-13T15:54:14Z</time>
      </trkpt>
      <trkpt lat="47.52435" lon="6.85248">
        <ele>322.4</ele>
        <time>2025-09-13T15:54:15Z</time>
      </trkpt>
      <trkpt lat="47.52443" lon="6.85253">
        <ele>322.4</ele>
        <time>2025-09-13T15:54:16Z</time>
      </trkpt>
      <trkpt lat="47.52451" lon="6.85255">
        <ele>322.5</ele>
        <time>2025-09-13T15:54:17Z</time>
      </trkpt>
      <trkpt lat="47.5246" lon="6.85256">
        <ele>322.6</ele>
        <time>2025-09-13T15:54:18Z</time>
      </trkpt>
      <trkpt lat="47.52468" lon="6.85257">
        <ele>322.6</ele>
        <time>2025-09-13T15:54:19Z</time>
      </trkpt>
      <trkpt lat="47.52477" lon="6.85258">
        <ele>322.6</ele>
        <time>2025-09-13T15:54:20Z</time>
      </trkpt>
      <trkpt lat="47.52485" lon="6.85257">
        <ele>322.7</ele>
        <time>2025-09-13T15:54:21Z</time>
      </trkpt>
      <trkpt lat="47.52495" lon="6.85255">
        <ele>322.7</ele>
        <time>2025-09-13T15:54:22Z</time>
      </trkpt>
      <trkpt lat="47.52503" lon="6.85257">
        <ele>322.7</ele>
        <time>2025-09-13T15:54:23Z</time>
      </trkpt>
      <trkpt lat="47.52511" lon="6.85258">
        <ele>322.7</ele>
        <time>2025-09-13T15:54:24Z</time>
      </trkpt>
      <trkpt lat="47.5252" lon="6.85259">
        <ele>322.8</ele>
        <time>2025-09-13T15:54:25Z</time>
      </trkpt>
      <trkpt lat="47.52528" lon="6.85261">
        <ele>322.8</ele>
        <time>2025-09-13T15:54:26Z</time>
      </trkpt>
      <trkpt lat="47.52536" lon="6.85263">
        <ele>322.8</ele>
        <time>2025-09-13T15:54:27Z</time>
      </trkpt>
      <trkpt lat="47.52544" lon="6.85266">
        <ele>322.9</ele>
        <time>2025-09-13T15:54:28Z</time>
      </trkpt>
      <trkpt lat="47.52552" lon="6.85268">
        <ele>323</ele>
        <time>2025-09-13T15:54:29Z</time>
      </trkpt>
      <trkpt lat="47.52559" lon="6.8527">
        <ele>323</ele>
        <time>2025-09-13T15:54:30Z</time>
      </trkpt>
      <trkpt lat="47.52567" lon="6.85271">
        <ele>323.1</ele>
        <time>2025-09-13T15:54:31Z</time>
      </trkpt>
      <trkpt lat="47.52575" lon="6.85272">
        <ele>323.1</ele>
        <time>2025-09-13T15:54:32Z</time>
      </trkpt>
      <trkpt lat="47.52582" lon="6.85274">
        <ele>323.2</ele>
        <time>2025-09-13T15:54:34Z</time>
      </trkpt>
      <trkpt lat="47.5259" lon="6.85276">
        <ele>323.2</ele>
        <time>2025-09-13T15:54:35Z</time>
      </trkpt>
      <trkpt lat="47.52598" lon="6.85277">
        <ele>323.2</ele>
        <time>2025-09-13T15:54:36Z</time>
      </trkpt>
      <trkpt lat="47.52605" lon="6.85278">
        <ele>323.3</ele>
        <time>2025-09-13T15:54:37Z</time>
      </trkpt>
      <trkpt lat="47.52612" lon="6.85281">
        <ele>323.3</ele>
        <time>2025-09-13T15:54:38Z</time>
      </trkpt>
      <trkpt lat="47.5262" lon="6.85282">
        <ele>323.4</ele>
        <time>2025-09-13T15:54:39Z</time>
      </trkpt>
      <trkpt lat="47.52627" lon="6.85284">
        <ele>323.4</ele>
        <time>2025-09-13T15:54:40Z</time>
      </trkpt>
      <trkpt lat="47.52635" lon="6.85286">
        <ele>323.4</ele>
        <time>2025-09-13T15:54:41Z</time>
      </trkpt>
      <trkpt lat="47.52642" lon="6.85288">
        <ele>323.4</ele>
        <time>2025-09-13T15:54:42Z</time>
      </trkpt>
      <trkpt lat="47.5265" lon="6.85291">
        <ele>323.5</ele>
        <time>2025-09-13T15:54:43Z</time>
      </trkpt>
      <trkpt lat="47.52657" lon="6.85294">
        <ele>323.5</ele>
        <time>2025-09-13T15:54:44Z</time>
      </trkpt>
      <trkpt lat="47.52664" lon="6.853">
        <ele>323.5</ele>
        <time>2025-09-13T15:54:45Z</time>
      </trkpt>
      <trkpt lat="47.5267" lon="6.85307">
        <ele>323.5</ele>
        <time>2025-09-13T15:54:46Z</time>
      </trkpt>
      <trkpt lat="47.52676" lon="6.85315">
        <ele>323.5</ele>
        <time>2025-09-13T15:54:47Z</time>
      </trkpt>
      <trkpt lat="47.52682" lon="6.85323">
        <ele>323.5</ele>
        <time>2025-09-13T15:54:48Z</time>
      </trkpt>
      <trkpt lat="47.52686" lon="6.85332">
        <ele>323.5</ele>
        <time>2025-09-13T15:54:49Z</time>
      </trkpt>
      <trkpt lat="47.52691" lon="6.85342">
        <ele>323.5</ele>
        <time>2025-09-13T15:54:50Z</time>
      </trkpt>
      <trkpt lat="47.52701" lon="6.85358">
        <ele>323.5</ele>
        <time>2025-09-13T15:54:51Z</time>
      </trkpt>
      <trkpt lat="47.52706" lon="6.85368">
        <ele>323.6</ele>
        <time>2025-09-13T15:54:52Z</time>
      </trkpt>
      <trkpt lat="47.5271" lon="6.85377">
        <ele>323.6</ele>
        <time>2025-09-13T15:54:53Z</time>
      </trkpt>
      <trkpt lat="47.52716" lon="6.85387">
        <ele>323.6</ele>
        <time>2025-09-13T15:54:54Z</time>
      </trkpt>
      <trkpt lat="47.52721" lon="6.85396">
        <ele>323.7</ele>
        <time>2025-09-13T15:54:55Z</time>
      </trkpt>
      <trkpt lat="47.52725" lon="6.85404">
        <ele>323.7</ele>
        <time>2025-09-13T15:54:56Z</time>
      </trkpt>
      <trkpt lat="47.52731" lon="6.85413">
        <ele>323.7</ele>
        <time>2025-09-13T15:54:57Z</time>
      </trkpt>
      <trkpt lat="47.52736" lon="6.8542">
        <ele>323.7</ele>
        <time>2025-09-13T15:54:58Z</time>
      </trkpt>
      <trkpt lat="47.52741" lon="6.85429">
        <ele>323.7</ele>
        <time>2025-09-13T15:54:59Z</time>
      </trkpt>
      <trkpt lat="47.52747" lon="6.85438">
        <ele>323.7</ele>
        <time>2025-09-13T15:55:00Z</time>
      </trkpt>
      <trkpt lat="47.52752" lon="6.85447">
        <ele>323.7</ele>
        <time>2025-09-13T15:55:01Z</time>
      </trkpt>
      <trkpt lat="47.52756" lon="6.85457">
        <ele>323.7</ele>
        <time>2025-09-13T15:55:02Z</time>
      </trkpt>
      <trkpt lat="47.52762" lon="6.85465">
        <ele>323.7</ele>
        <time>2025-09-13T15:55:03Z</time>
      </trkpt>
      <trkpt lat="47.52768" lon="6.85474">
        <ele>323.7</ele>
        <time>2025-09-13T15:55:04Z</time>
      </trkpt>
      <trkpt lat="47.52773" lon="6.85481">
        <ele>323.7</ele>
        <time>2025-09-13T15:55:05Z</time>
      </trkpt>
      <trkpt lat="47.52778" lon="6.85489">
        <ele>323.8</ele>
        <time>2025-09-13T15:55:06Z</time>
      </trkpt>
      <trkpt lat="47.52783" lon="6.85498">
        <ele>323.7</ele>
        <time>2025-09-13T15:55:07Z</time>
      </trkpt>
      <trkpt lat="47.52788" lon="6.85507">
        <ele>323.7</ele>
        <time>2025-09-13T15:55:08Z</time>
      </trkpt>
      <trkpt lat="47.52794" lon="6.85516">
        <ele>323.7</ele>
        <time>2025-09-13T15:55:09Z</time>
      </trkpt>
      <trkpt lat="47.52799" lon="6.85524">
        <ele>323.7</ele>
        <time>2025-09-13T15:55:10Z</time>
      </trkpt>
      <trkpt lat="47.52804" lon="6.85533">
        <ele>323.7</ele>
        <time>2025-09-13T15:55:11Z</time>
      </trkpt>
      <trkpt lat="47.5281" lon="6.85543">
        <ele>323.7</ele>
        <time>2025-09-13T15:55:12Z</time>
      </trkpt>
      <trkpt lat="47.52815" lon="6.8555">
        <ele>323.7</ele>
        <time>2025-09-13T15:55:13Z</time>
      </trkpt>
      <trkpt lat="47.52821" lon="6.8556">
        <ele>323.7</ele>
        <time>2025-09-13T15:55:14Z</time>
      </trkpt>
      <trkpt lat="47.52826" lon="6.85569">
        <ele>323.8</ele>
        <time>2025-09-13T15:55:15Z</time>
      </trkpt>
      <trkpt lat="47.52832" lon="6.85579">
        <ele>323.8</ele>
        <time>2025-09-13T15:55:16Z</time>
      </trkpt>
      <trkpt lat="47.52838" lon="6.85588">
        <ele>323.8</ele>
        <time>2025-09-13T15:55:17Z</time>
      </trkpt>
      <trkpt lat="47.52844" lon="6.85595">
        <ele>323.8</ele>
        <time>2025-09-13T15:55:18Z</time>
      </trkpt>
      <trkpt lat="47.5285" lon="6.85602">
        <ele>323.9</ele>
        <time>2025-09-13T15:55:19Z</time>
      </trkpt>
      <trkpt lat="47.52856" lon="6.85608">
        <ele>323.9</ele>
        <time>2025-09-13T15:55:20Z</time>
      </trkpt>
      <trkpt lat="47.52861" lon="6.85616">
        <ele>324</ele>
        <time>2025-09-13T15:55:21Z</time>
      </trkpt>
      <trkpt lat="47.52869" lon="6.85623">
        <ele>324.1</ele>
        <time>2025-09-13T15:55:22Z</time>
      </trkpt>
      <trkpt lat="47.52877" lon="6.8563">
        <ele>324.2</ele>
        <time>2025-09-13T15:55:23Z</time>
      </trkpt>
      <trkpt lat="47.52883" lon="6.85634">
        <ele>324.5</ele>
        <time>2025-09-13T15:55:24Z</time>
      </trkpt>
      <trkpt lat="47.5289" lon="6.8564">
        <ele>324.7</ele>
        <time>2025-09-13T15:55:25Z</time>
      </trkpt>
      <trkpt lat="47.52896" lon="6.85645">
        <ele>325</ele>
        <time>2025-09-13T15:55:26Z</time>
      </trkpt>
      <trkpt lat="47.52902" lon="6.8565">
        <ele>325.3</ele>
        <time>2025-09-13T15:55:27Z</time>
      </trkpt>
      <trkpt lat="47.52909" lon="6.85656">
        <ele>325.6</ele>
        <time>2025-09-13T15:55:28Z</time>
      </trkpt>
      <trkpt lat="47.52915" lon="6.85662">
        <ele>325.9</ele>
        <time>2025-09-13T15:55:29Z</time>
      </trkpt>
      <trkpt lat="47.52922" lon="6.85668">
        <ele>326.3</ele>
        <time>2025-09-13T15:55:30Z</time>
      </trkpt>
      <trkpt lat="47.52928" lon="6.85673">
        <ele>326.6</ele>
        <time>2025-09-13T15:55:31Z</time>
      </trkpt>
      <trkpt lat="47.52934" lon="6.85679">
        <ele>327</ele>
        <time>2025-09-13T15:55:32Z</time>
      </trkpt>
      <trkpt lat="47.52939" lon="6.85686">
        <ele>327.3</ele>
        <time>2025-09-13T15:55:33Z</time>
      </trkpt>
      <trkpt lat="47.52945" lon="6.85691">
        <ele>327.6</ele>
        <time>2025-09-13T15:55:34Z</time>
      </trkpt>
      <trkpt lat="47.52951" lon="6.85697">
        <ele>328</ele>
        <time>2025-09-13T15:55:35Z</time>
      </trkpt>
      <trkpt lat="47.52957" lon="6.85703">
        <ele>328.3</ele>
        <time>2025-09-13T15:55:36Z</time>
      </trkpt>
      <trkpt lat="47.52962" lon="6.8571">
        <ele>328.6</ele>
        <time>2025-09-13T15:55:37Z</time>
      </trkpt>
      <trkpt lat="47.52967" lon="6.85718">
        <ele>328.9</ele>
        <time>2025-09-13T15:55:38Z</time>
      </trkpt>
      <trkpt lat="47.52971" lon="6.85727">
        <ele>329.3</ele>
        <time>2025-09-13T15:55:39Z</time>
      </trkpt>
      <trkpt lat="47.52974" lon="6.85737">
        <ele>329.6</ele>
        <time>2025-09-13T15:55:40Z</time>
      </trkpt>
      <trkpt lat="47.52977" lon="6.85746">
        <ele>329.8</ele>
        <time>2025-09-13T15:55:41Z</time>
      </trkpt>
      <trkpt lat="47.5298" lon="6.85755">
        <ele>330.1</ele>
        <time>2025-09-13T15:55:42Z</time>
      </trkpt>
      <trkpt lat="47.52982" lon="6.85766">
        <ele>330.4</ele>
        <time>2025-09-13T15:55:43Z</time>
      </trkpt>
      <trkpt lat="47.52984" lon="6.85776">
        <ele>330.6</ele>
        <time>2025-09-13T15:55:44Z</time>
      </trkpt>
      <trkpt lat="47.52985" lon="6.85787">
        <ele>330.8</ele>
        <time>2025-09-13T15:55:45Z</time>
      </trkpt>
      <trkpt lat="47.52986" lon="6.85798">
        <ele>331</ele>
        <time>2025-09-13T15:55:46Z</time>
      </trkpt>
      <trkpt lat="47.52986" lon="6.85809">
        <ele>331.2</ele>
        <time>2025-09-13T15:55:47Z</time>
      </trkpt>
      <trkpt lat="47.52986" lon="6.8582">
        <ele>331.4</ele>
        <time>2025-09-13T15:55:48Z</time>
      </trkpt>
      <trkpt lat="47.52985" lon="6.85831">
        <ele>331.6</ele>
        <time>2025-09-13T15:55:49Z</time>
      </trkpt>
      <trkpt lat="47.52983" lon="6.85842">
        <ele>331.7</ele>
        <time>2025-09-13T15:55:50Z</time>
      </trkpt>
      <trkpt lat="47.52982" lon="6.85852">
        <ele>331.7</ele>
        <time>2025-09-13T15:55:51Z</time>
      </trkpt>
      <trkpt lat="47.5298" lon="6.85862">
        <ele>331.8</ele>
        <time>2025-09-13T15:55:52Z</time>
      </trkpt>
      <trkpt lat="47.52978" lon="6.85873">
        <ele>331.8</ele>
        <time>2025-09-13T15:55:53Z</time>
      </trkpt>
      <trkpt lat="47.52977" lon="6.85884">
        <ele>331.8</ele>
        <time>2025-09-13T15:55:54Z</time>
      </trkpt>
      <trkpt lat="47.52976" lon="6.85894">
        <ele>331.8</ele>
        <time>2025-09-13T15:55:55Z</time>
      </trkpt>
      <trkpt lat="47.52975" lon="6.85904">
        <ele>331.7</ele>
        <time>2025-09-13T15:55:56Z</time>
      </trkpt>
      <trkpt lat="47.52973" lon="6.85914">
        <ele>331.7</ele>
        <time>2025-09-13T15:55:57Z</time>
      </trkpt>
      <trkpt lat="47.52971" lon="6.85923">
        <ele>331.6</ele>
        <time>2025-09-13T15:55:58Z</time>
      </trkpt>
      <trkpt lat="47.5297" lon="6.85934">
        <ele>331.5</ele>
        <time>2025-09-13T15:55:59Z</time>
      </trkpt>
      <trkpt lat="47.52968" lon="6.85944">
        <ele>331.4</ele>
        <time>2025-09-13T15:56:00Z</time>
      </trkpt>
      <trkpt lat="47.52965" lon="6.85951">
        <ele>331.3</ele>
        <time>2025-09-13T15:56:01Z</time>
      </trkpt>
      <trkpt lat="47.52959" lon="6.85954">
        <ele>330.7</ele>
        <time>2025-09-13T15:56:02Z</time>
      </trkpt>
      <trkpt lat="47.52952" lon="6.8595">
        <ele>330.1</ele>
        <time>2025-09-13T15:56:03Z</time>
      </trkpt>
      <trkpt lat="47.52944" lon="6.85946">
        <ele>329.6</ele>
        <time>2025-09-13T15:56:04Z</time>
      </trkpt>
      <trkpt lat="47.52937" lon="6.85946">
        <ele>329.2</ele>
        <time>2025-09-13T15:56:05Z</time>
      </trkpt>
      <trkpt lat="47.52931" lon="6.85945">
        <ele>328.9</ele>
        <time>2025-09-13T15:56:06Z</time>
      </trkpt>
      <trkpt lat="47.52925" lon="6.85946">
        <ele>328.7</ele>
        <time>2025-09-13T15:56:07Z</time>
      </trkpt>
      <trkpt lat="47.52921" lon="6.85946">
        <ele>328.5</ele>
        <time>2025-09-13T15:56:08Z</time>
      </trkpt>
      <trkpt lat="47.5292" lon="6.85953">
        <ele>328.4</ele>
        <time>2025-09-13T15:56:09Z</time>
      </trkpt>
      <trkpt lat="47.52921" lon="6.85955">
        <ele>328.3</ele>
        <time>2025-09-13T15:56:10Z</time>
      </trkpt>
      <trkpt lat="47.52923" lon="6.8596">
        <ele>328.3</ele>
        <time>2025-09-13T15:56:11Z</time>
      </trkpt>
      <trkpt lat="47.52926" lon="6.85963">
        <ele>328.4</ele>
        <time>2025-09-13T15:56:12Z</time>
      </trkpt>
      <trkpt lat="47.52931" lon="6.85963">
        <ele>328.4</ele>
        <time>2025-09-13T15:56:13Z</time>
      </trkpt>
      <trkpt lat="47.52935" lon="6.85962">
        <ele>328.4</ele>
        <time>2025-09-13T15:56:14Z</time>
      </trkpt>
      <trkpt lat="47.52939" lon="6.85963">
        <ele>328.4</ele>
        <time>2025-09-13T15:56:15Z</time>
      </trkpt>
      <trkpt lat="47.52944" lon="6.85965">
        <ele>328.4</ele>
        <time>2025-09-13T15:56:16Z</time>
      </trkpt>
      <trkpt lat="47.52949" lon="6.85968">
        <ele>328.4</ele>
        <time>2025-09-13T15:56:17Z</time>
      </trkpt>
      <trkpt lat="47.52955" lon="6.85972">
        <ele>328.4</ele>
        <time>2025-09-13T15:56:18Z</time>
      </trkpt>
      <trkpt lat="47.52961" lon="6.85977">
        <ele>328.3</ele>
        <time>2025-09-13T15:56:19Z</time>
      </trkpt>
      <trkpt lat="47.52966" lon="6.85979">
        <ele>328.3</ele>
        <time>2025-09-13T15:56:20Z</time>
      </trkpt>
      <trkpt lat="47.52972" lon="6.85981">
        <ele>328.3</ele>
        <time>2025-09-13T15:56:21Z</time>
      </trkpt>
      <trkpt lat="47.52982" lon="6.8598">
        <ele>328.3</ele>
        <time>2025-09-13T15:56:22Z</time>
      </trkpt>
      <trkpt lat="47.5299" lon="6.85978">
        <ele>328.2</ele>
        <time>2025-09-13T15:56:23Z</time>
      </trkpt>
      <trkpt lat="47.52995" lon="6.85978">
        <ele>328.2</ele>
        <time>2025-09-13T15:56:24Z</time>
      </trkpt>
      <trkpt lat="47.53002" lon="6.85982">
        <ele>328.1</ele>
        <time>2025-09-13T15:56:25Z</time>
      </trkpt>
      <trkpt lat="47.53009" lon="6.85986">
        <ele>328</ele>
        <time>2025-09-13T15:56:26Z</time>
      </trkpt>
      <trkpt lat="47.53015" lon="6.8599">
        <ele>327.9</ele>
        <time>2025-09-13T15:56:27Z</time>
      </trkpt>
      <trkpt lat="47.5302" lon="6.85995">
        <ele>327.9</ele>
        <time>2025-09-13T15:56:28Z</time>
      </trkpt>
      <trkpt lat="47.53028" lon="6.85996">
        <ele>327.9</ele>
        <time>2025-09-13T15:56:29Z</time>
      </trkpt>
      <trkpt lat="47.53035" lon="6.85999">
        <ele>327.9</ele>
        <time>2025-09-13T15:56:30Z</time>
      </trkpt>
      <trkpt lat="47.53041" lon="6.86002">
        <ele>327.9</ele>
        <time>2025-09-13T15:56:31Z</time>
      </trkpt>
      <trkpt lat="47.53047" lon="6.86004">
        <ele>327.9</ele>
        <time>2025-09-13T15:56:32Z</time>
      </trkpt>
      <trkpt lat="47.53054" lon="6.86007">
        <ele>328</ele>
        <time>2025-09-13T15:56:33Z</time>
      </trkpt>
      <trkpt lat="47.53061" lon="6.86008">
        <ele>328</ele>
        <time>2025-09-13T15:56:34Z</time>
      </trkpt>
      <trkpt lat="47.53069" lon="6.86009">
        <ele>328</ele>
        <time>2025-09-13T15:56:35Z</time>
      </trkpt>
      <trkpt lat="47.53076" lon="6.86011">
        <ele>328</ele>
        <time>2025-09-13T15:56:36Z</time>
      </trkpt>
      <trkpt lat="47.53083" lon="6.86015">
        <ele>328</ele>
        <time>2025-09-13T15:56:37Z</time>
      </trkpt>
      <trkpt lat="47.53091" lon="6.86017">
        <ele>328</ele>
        <time>2025-09-13T15:56:39Z</time>
      </trkpt>
      <trkpt lat="47.53097" lon="6.86019">
        <ele>328</ele>
        <time>2025-09-13T15:56:40Z</time>
      </trkpt>
      <trkpt lat="47.53104" lon="6.86021">
        <ele>328</ele>
        <time>2025-09-13T15:56:41Z</time>
      </trkpt>
      <trkpt lat="47.5311" lon="6.86024">
        <ele>328</ele>
        <time>2025-09-13T15:56:42Z</time>
      </trkpt>
      <trkpt lat="47.53117" lon="6.86026">
        <ele>328</ele>
        <time>2025-09-13T15:56:43Z</time>
      </trkpt>
      <trkpt lat="47.53123" lon="6.86031">
        <ele>328</ele>
        <time>2025-09-13T15:56:44Z</time>
      </trkpt>
      <trkpt lat="47.53129" lon="6.86034">
        <ele>328.1</ele>
        <time>2025-09-13T15:56:45Z</time>
      </trkpt>
      <trkpt lat="47.53134" lon="6.86037">
        <ele>328.1</ele>
        <time>2025-09-13T15:56:46Z</time>
      </trkpt>
      <trkpt lat="47.53141" lon="6.8604">
        <ele>328.1</ele>
        <time>2025-09-13T15:56:47Z</time>
      </trkpt>
      <trkpt lat="47.53149" lon="6.86042">
        <ele>328.1</ele>
        <time>2025-09-13T15:56:48Z</time>
      </trkpt>
      <trkpt lat="47.53158" lon="6.86045">
        <ele>328.1</ele>
        <time>2025-09-13T15:56:49Z</time>
      </trkpt>
      <trkpt lat="47.53165" lon="6.86048">
        <ele>328.1</ele>
        <time>2025-09-13T15:56:50Z</time>
      </trkpt>
      <trkpt lat="47.53173" lon="6.86049">
        <ele>328.1</ele>
        <time>2025-09-13T15:56:51Z</time>
      </trkpt>
      <trkpt lat="47.53181" lon="6.86051">
        <ele>328.1</ele>
        <time>2025-09-13T15:56:52Z</time>
      </trkpt>
      <trkpt lat="47.53187" lon="6.86055">
        <ele>328.1</ele>
        <time>2025-09-13T15:56:53Z</time>
      </trkpt>
      <trkpt lat="47.53203" lon="6.8606">
        <ele>328.1</ele>
        <time>2025-09-13T15:56:54Z</time>
      </trkpt>
      <trkpt lat="47.53212" lon="6.86061">
        <ele>328.1</ele>
        <time>2025-09-13T15:56:55Z</time>
      </trkpt>
      <trkpt lat="47.53219" lon="6.86063">
        <ele>328</ele>
        <time>2025-09-13T15:56:56Z</time>
      </trkpt>
      <trkpt lat="47.53225" lon="6.86065">
        <ele>328</ele>
        <time>2025-09-13T15:56:57Z</time>
      </trkpt>
      <trkpt lat="47.53232" lon="6.86068">
        <ele>328</ele>
        <time>2025-09-13T15:56:58Z</time>
      </trkpt>
      <trkpt lat="47.5324" lon="6.86071">
        <ele>328</ele>
        <time>2025-09-13T15:56:59Z</time>
      </trkpt>
      <trkpt lat="47.53247" lon="6.86073">
        <ele>328</ele>
        <time>2025-09-13T15:57:00Z</time>
      </trkpt>
      <trkpt lat="47.53256" lon="6.86076">
        <ele>328</ele>
        <time>2025-09-13T15:57:01Z</time>
      </trkpt>
      <trkpt lat="47.53263" lon="6.86078">
        <ele>328</ele>
        <time>2025-09-13T15:57:02Z</time>
      </trkpt>
      <trkpt lat="47.53271" lon="6.8608">
        <ele>328</ele>
        <time>2025-09-13T15:57:03Z</time>
      </trkpt>
      <trkpt lat="47.53278" lon="6.86085">
        <ele>328</ele>
        <time>2025-09-13T15:57:04Z</time>
      </trkpt>
      <trkpt lat="47.53287" lon="6.86086">
        <ele>328</ele>
        <time>2025-09-13T15:57:05Z</time>
      </trkpt>
      <trkpt lat="47.53294" lon="6.86089">
        <ele>328</ele>
        <time>2025-09-13T15:57:06Z</time>
      </trkpt>
      <trkpt lat="47.53301" lon="6.86091">
        <ele>328</ele>
        <time>2025-09-13T15:57:07Z</time>
      </trkpt>
      <trkpt lat="47.53308" lon="6.86094">
        <ele>328.1</ele>
        <time>2025-09-13T15:57:08Z</time>
      </trkpt>
      <trkpt lat="47.53314" lon="6.86095">
        <ele>328.1</ele>
        <time>2025-09-13T15:57:09Z</time>
      </trkpt>
      <trkpt lat="47.53323" lon="6.86097">
        <ele>328.1</ele>
        <time>2025-09-13T15:57:10Z</time>
      </trkpt>
      <trkpt lat="47.53331" lon="6.861">
        <ele>328.1</ele>
        <time>2025-09-13T15:57:11Z</time>
      </trkpt>
      <trkpt lat="47.53339" lon="6.86102">
        <ele>328</ele>
        <time>2025-09-13T15:57:12Z</time>
      </trkpt>
      <trkpt lat="47.53346" lon="6.86107">
        <ele>328</ele>
        <time>2025-09-13T15:57:13Z</time>
      </trkpt>
      <trkpt lat="47.53353" lon="6.86109">
        <ele>328</ele>
        <time>2025-09-13T15:57:14Z</time>
      </trkpt>
      <trkpt lat="47.5336" lon="6.86114">
        <ele>328</ele>
        <time>2025-09-13T15:57:15Z</time>
      </trkpt>
      <trkpt lat="47.53368" lon="6.86116">
        <ele>328.1</ele>
        <time>2025-09-13T15:57:16Z</time>
      </trkpt>
      <trkpt lat="47.53376" lon="6.86117">
        <ele>328.1</ele>
        <time>2025-09-13T15:57:17Z</time>
      </trkpt>
      <trkpt lat="47.53383" lon="6.86121">
        <ele>328.1</ele>
        <time>2025-09-13T15:57:18Z</time>
      </trkpt>
      <trkpt lat="47.53391" lon="6.86124">
        <ele>328.1</ele>
        <time>2025-09-13T15:57:19Z</time>
      </trkpt>
      <trkpt lat="47.53398" lon="6.86126">
        <ele>328.1</ele>
        <time>2025-09-13T15:57:20Z</time>
      </trkpt>
      <trkpt lat="47.53406" lon="6.86127">
        <ele>328.1</ele>
        <time>2025-09-13T15:57:21Z</time>
      </trkpt>
      <trkpt lat="47.53414" lon="6.8613">
        <ele>328.1</ele>
        <time>2025-09-13T15:57:22Z</time>
      </trkpt>
      <trkpt lat="47.53422" lon="6.86132">
        <ele>328.1</ele>
        <time>2025-09-13T15:57:23Z</time>
      </trkpt>
      <trkpt lat="47.53429" lon="6.86135">
        <ele>328.1</ele>
        <time>2025-09-13T15:57:24Z</time>
      </trkpt>
      <trkpt lat="47.53436" lon="6.86139">
        <ele>328.1</ele>
        <time>2025-09-13T15:57:25Z</time>
      </trkpt>
      <trkpt lat="47.53442" lon="6.86141">
        <ele>328.1</ele>
        <time>2025-09-13T15:57:26Z</time>
      </trkpt>
      <trkpt lat="47.5345" lon="6.86144">
        <ele>328.1</ele>
        <time>2025-09-13T15:57:27Z</time>
      </trkpt>
      <trkpt lat="47.53457" lon="6.86146">
        <ele>328.1</ele>
        <time>2025-09-13T15:57:28Z</time>
      </trkpt>
      <trkpt lat="47.53463" lon="6.86151">
        <ele>328.1</ele>
        <time>2025-09-13T15:57:29Z</time>
      </trkpt>
      <trkpt lat="47.53473" lon="6.86153">
        <ele>328.2</ele>
        <time>2025-09-13T15:57:30Z</time>
      </trkpt>
      <trkpt lat="47.5348" lon="6.86156">
        <ele>328.2</ele>
        <time>2025-09-13T15:57:31Z</time>
      </trkpt>
      <trkpt lat="47.53488" lon="6.86158">
        <ele>328.2</ele>
        <time>2025-09-13T15:57:32Z</time>
      </trkpt>
      <trkpt lat="47.53495" lon="6.86162">
        <ele>328.2</ele>
        <time>2025-09-13T15:57:33Z</time>
      </trkpt>
      <trkpt lat="47.53503" lon="6.86166">
        <ele>328.2</ele>
        <time>2025-09-13T15:57:34Z</time>
      </trkpt>
      <trkpt lat="47.53512" lon="6.86169">
        <ele>328.3</ele>
        <time>2025-09-13T15:57:35Z</time>
      </trkpt>
      <trkpt lat="47.53521" lon="6.8617">
        <ele>328.3</ele>
        <time>2025-09-13T15:57:36Z</time>
      </trkpt>
      <trkpt lat="47.5353" lon="6.86172">
        <ele>328.2</ele>
        <time>2025-09-13T15:57:37Z</time>
      </trkpt>
      <trkpt lat="47.53537" lon="6.86173">
        <ele>328.2</ele>
        <time>2025-09-13T15:57:38Z</time>
      </trkpt>
      <trkpt lat="47.53545" lon="6.86174">
        <ele>328.2</ele>
        <time>2025-09-13T15:57:39Z</time>
      </trkpt>
      <trkpt lat="47.53553" lon="6.86178">
        <ele>328.1</ele>
        <time>2025-09-13T15:57:40Z</time>
      </trkpt>
      <trkpt lat="47.53558" lon="6.86181">
        <ele>328.1</ele>
        <time>2025-09-13T15:57:41Z</time>
      </trkpt>
      <trkpt lat="47.53565" lon="6.86183">
        <ele>328.1</ele>
        <time>2025-09-13T15:57:42Z</time>
      </trkpt>
      <trkpt lat="47.53571" lon="6.86186">
        <ele>328.1</ele>
        <time>2025-09-13T15:57:43Z</time>
      </trkpt>
      <trkpt lat="47.53579" lon="6.86188">
        <ele>328.1</ele>
        <time>2025-09-13T15:57:44Z</time>
      </trkpt>
      <trkpt lat="47.53587" lon="6.86193">
        <ele>328</ele>
        <time>2025-09-13T15:57:45Z</time>
      </trkpt>
      <trkpt lat="47.53594" lon="6.86194">
        <ele>328</ele>
        <time>2025-09-13T15:57:46Z</time>
      </trkpt>
      <trkpt lat="47.53603" lon="6.86196">
        <ele>328</ele>
        <time>2025-09-13T15:57:47Z</time>
      </trkpt>
      <trkpt lat="47.5361" lon="6.86199">
        <ele>328</ele>
        <time>2025-09-13T15:57:48Z</time>
      </trkpt>
      <trkpt lat="47.53618" lon="6.86201">
        <ele>328</ele>
        <time>2025-09-13T15:57:49Z</time>
      </trkpt>
      <trkpt lat="47.53625" lon="6.86204">
        <ele>328</ele>
        <time>2025-09-13T15:57:50Z</time>
      </trkpt>
      <trkpt lat="47.53633" lon="6.86206">
        <ele>328</ele>
        <time>2025-09-13T15:57:51Z</time>
      </trkpt>
      <trkpt lat="47.53641" lon="6.86208">
        <ele>328</ele>
        <time>2025-09-13T15:57:52Z</time>
      </trkpt>
      <trkpt lat="47.53648" lon="6.86213">
        <ele>327.9</ele>
        <time>2025-09-13T15:57:53Z</time>
      </trkpt>
      <trkpt lat="47.53655" lon="6.86216">
        <ele>327.9</ele>
        <time>2025-09-13T15:57:54Z</time>
      </trkpt>
      <trkpt lat="47.53662" lon="6.86218">
        <ele>327.9</ele>
        <time>2025-09-13T15:57:55Z</time>
      </trkpt>
      <trkpt lat="47.53671" lon="6.86221">
        <ele>327.9</ele>
        <time>2025-09-13T15:57:56Z</time>
      </trkpt>
      <trkpt lat="47.53678" lon="6.86222">
        <ele>328</ele>
        <time>2025-09-13T15:57:57Z</time>
      </trkpt>
      <trkpt lat="47.53686" lon="6.86225">
        <ele>328</ele>
        <time>2025-09-13T15:57:58Z</time>
      </trkpt>
      <trkpt lat="47.53694" lon="6.86228">
        <ele>328</ele>
        <time>2025-09-13T15:57:59Z</time>
      </trkpt>
      <trkpt lat="47.53702" lon="6.8623">
        <ele>328.1</ele>
        <time>2025-09-13T15:58:00Z</time>
      </trkpt>
      <trkpt lat="47.5371" lon="6.86234">
        <ele>328.1</ele>
        <time>2025-09-13T15:58:01Z</time>
      </trkpt>
      <trkpt lat="47.53717" lon="6.86236">
        <ele>328.1</ele>
        <time>2025-09-13T15:58:02Z</time>
      </trkpt>
      <trkpt lat="47.53725" lon="6.86237">
        <ele>328.1</ele>
        <time>2025-09-13T15:58:03Z</time>
      </trkpt>
      <trkpt lat="47.53732" lon="6.86241">
        <ele>328</ele>
        <time>2025-09-13T15:58:04Z</time>
      </trkpt>
      <trkpt lat="47.5374" lon="6.86245">
        <ele>328</ele>
        <time>2025-09-13T15:58:05Z</time>
      </trkpt>
      <trkpt lat="47.53748" lon="6.86247">
        <ele>327.9</ele>
        <time>2025-09-13T15:58:06Z</time>
      </trkpt>
      <trkpt lat="47.53756" lon="6.86251">
        <ele>327.9</ele>
        <time>2025-09-13T15:58:07Z</time>
      </trkpt>
      <trkpt lat="47.53764" lon="6.86253">
        <ele>327.9</ele>
        <time>2025-09-13T15:58:08Z</time>
      </trkpt>
      <trkpt lat="47.53772" lon="6.86255">
        <ele>327.9</ele>
        <time>2025-09-13T15:58:09Z</time>
      </trkpt>
      <trkpt lat="47.53781" lon="6.86258">
        <ele>328</ele>
        <time>2025-09-13T15:58:10Z</time>
      </trkpt>
      <trkpt lat="47.53788" lon="6.86261">
        <ele>328</ele>
        <time>2025-09-13T15:58:11Z</time>
      </trkpt>
      <trkpt lat="47.53798" lon="6.86264">
        <ele>328.1</ele>
        <time>2025-09-13T15:58:12Z</time>
      </trkpt>
      <trkpt lat="47.53805" lon="6.86267">
        <ele>328.2</ele>
        <time>2025-09-13T15:58:13Z</time>
      </trkpt>
      <trkpt lat="47.53813" lon="6.8627">
        <ele>328.3</ele>
        <time>2025-09-13T15:58:14Z</time>
      </trkpt>
      <trkpt lat="47.53821" lon="6.86272">
        <ele>328.5</ele>
        <time>2025-09-13T15:58:15Z</time>
      </trkpt>
      <trkpt lat="47.53828" lon="6.86275">
        <ele>328.6</ele>
        <time>2025-09-13T15:58:16Z</time>
      </trkpt>
      <trkpt lat="47.53835" lon="6.86278">
        <ele>328.8</ele>
        <time>2025-09-13T15:58:17Z</time>
      </trkpt>
      <trkpt lat="47.53843" lon="6.8628">
        <ele>329.1</ele>
        <time>2025-09-13T15:58:18Z</time>
      </trkpt>
      <trkpt lat="47.53849" lon="6.86283">
        <ele>329.4</ele>
        <time>2025-09-13T15:58:19Z</time>
      </trkpt>
      <trkpt lat="47.53857" lon="6.86286">
        <ele>329.7</ele>
        <time>2025-09-13T15:58:20Z</time>
      </trkpt>
      <trkpt lat="47.53865" lon="6.86287">
        <ele>330</ele>
        <time>2025-09-13T15:58:21Z</time>
      </trkpt>
      <trkpt lat="47.53872" lon="6.8629">
        <ele>330.3</ele>
        <time>2025-09-13T15:58:22Z</time>
      </trkpt>
      <trkpt lat="47.5388" lon="6.86292">
        <ele>330.5</ele>
        <time>2025-09-13T15:58:23Z</time>
      </trkpt>
      <trkpt lat="47.53886" lon="6.86296">
        <ele>330.7</ele>
        <time>2025-09-13T15:58:24Z</time>
      </trkpt>
      <trkpt lat="47.53893" lon="6.86302">
        <ele>330.8</ele>
        <time>2025-09-13T15:58:25Z</time>
      </trkpt>
      <trkpt lat="47.539" lon="6.86306">
        <ele>330.9</ele>
        <time>2025-09-13T15:58:26Z</time>
      </trkpt>
      <trkpt lat="47.53906" lon="6.86309">
        <ele>331</ele>
        <time>2025-09-13T15:58:27Z</time>
      </trkpt>
      <trkpt lat="47.53913" lon="6.86311">
        <ele>331</ele>
        <time>2025-09-13T15:58:28Z</time>
      </trkpt>
      <trkpt lat="47.53921" lon="6.86312">
        <ele>331</ele>
        <time>2025-09-13T15:58:29Z</time>
      </trkpt>
      <trkpt lat="47.53928" lon="6.86313">
        <ele>331.1</ele>
        <time>2025-09-13T15:58:30Z</time>
      </trkpt>
      <trkpt lat="47.53935" lon="6.86315">
        <ele>331.1</ele>
        <time>2025-09-13T15:58:31Z</time>
      </trkpt>
      <trkpt lat="47.53943" lon="6.86316">
        <ele>331.1</ele>
        <time>2025-09-13T15:58:32Z</time>
      </trkpt>
      <trkpt lat="47.5395" lon="6.86319">
        <ele>331.1</ele>
        <time>2025-09-13T15:58:33Z</time>
      </trkpt>
      <trkpt lat="47.53957" lon="6.86321">
        <ele>331</ele>
        <time>2025-09-13T15:58:34Z</time>
      </trkpt>
      <trkpt lat="47.53965" lon="6.86323">
        <ele>331</ele>
        <time>2025-09-13T15:58:35Z</time>
      </trkpt>
      <trkpt lat="47.53973" lon="6.86326">
        <ele>330.9</ele>
        <time>2025-09-13T15:58:36Z</time>
      </trkpt>
      <trkpt lat="47.5398" lon="6.86329">
        <ele>330.9</ele>
        <time>2025-09-13T15:58:37Z</time>
      </trkpt>
      <trkpt lat="47.53988" lon="6.86332">
        <ele>330.9</ele>
        <time>2025-09-13T15:58:38Z</time>
      </trkpt>
      <trkpt lat="47.53995" lon="6.86334">
        <ele>330.9</ele>
        <time>2025-09-13T15:58:39Z</time>
      </trkpt>
      <trkpt lat="47.54003" lon="6.86337">
        <ele>330.9</ele>
        <time>2025-09-13T15:58:40Z</time>
      </trkpt>
      <trkpt lat="47.5401" lon="6.8634">
        <ele>330.8</ele>
        <time>2025-09-13T15:58:41Z</time>
      </trkpt>
      <trkpt lat="47.54017" lon="6.86342">
        <ele>330.8</ele>
        <time>2025-09-13T15:58:42Z</time>
      </trkpt>
      <trkpt lat="47.54023" lon="6.86344">
        <ele>330.8</ele>
        <time>2025-09-13T15:58:43Z</time>
      </trkpt>
      <trkpt lat="47.54028" lon="6.86349">
        <ele>330.8</ele>
        <time>2025-09-13T15:58:44Z</time>
      </trkpt>
      <trkpt lat="47.54034" lon="6.86352">
        <ele>330.8</ele>
        <time>2025-09-13T15:58:45Z</time>
      </trkpt>
      <trkpt lat="47.54042" lon="6.86353">
        <ele>330.9</ele>
        <time>2025-09-13T15:58:46Z</time>
      </trkpt>
      <trkpt lat="47.5405" lon="6.86356">
        <ele>330.9</ele>
        <time>2025-09-13T15:58:47Z</time>
      </trkpt>
      <trkpt lat="47.54059" lon="6.86358">
        <ele>330.9</ele>
        <time>2025-09-13T15:58:48Z</time>
      </trkpt>
      <trkpt lat="47.54068" lon="6.8636">
        <ele>330.9</ele>
        <time>2025-09-13T15:58:49Z</time>
      </trkpt>
      <trkpt lat="47.54076" lon="6.86362">
        <ele>330.9</ele>
        <time>2025-09-13T15:58:50Z</time>
      </trkpt>
      <trkpt lat="47.54083" lon="6.86364">
        <ele>330.9</ele>
        <time>2025-09-13T15:58:51Z</time>
      </trkpt>
      <trkpt lat="47.54091" lon="6.86367">
        <ele>330.9</ele>
        <time>2025-09-13T15:58:52Z</time>
      </trkpt>
      <trkpt lat="47.54098" lon="6.8637">
        <ele>330.9</ele>
        <time>2025-09-13T15:58:53Z</time>
      </trkpt>
      <trkpt lat="47.54106" lon="6.86372">
        <ele>330.9</ele>
        <time>2025-09-13T15:58:54Z</time>
      </trkpt>
      <trkpt lat="47.54112" lon="6.86376">
        <ele>330.9</ele>
        <time>2025-09-13T15:58:55Z</time>
      </trkpt>
      <trkpt lat="47.5412" lon="6.86378">
        <ele>331</ele>
        <time>2025-09-13T15:58:56Z</time>
      </trkpt>
      <trkpt lat="47.54127" lon="6.86381">
        <ele>331</ele>
        <time>2025-09-13T15:58:57Z</time>
      </trkpt>
      <trkpt lat="47.54135" lon="6.86383">
        <ele>331</ele>
        <time>2025-09-13T15:58:58Z</time>
      </trkpt>
      <trkpt lat="47.54141" lon="6.86387">
        <ele>331</ele>
        <time>2025-09-13T15:58:59Z</time>
      </trkpt>
      <trkpt lat="47.54149" lon="6.86389">
        <ele>331</ele>
        <time>2025-09-13T15:59:00Z</time>
      </trkpt>
      <trkpt lat="47.54156" lon="6.86394">
        <ele>331</ele>
        <time>2025-09-13T15:59:01Z</time>
      </trkpt>
      <trkpt lat="47.54162" lon="6.86397">
        <ele>331</ele>
        <time>2025-09-13T15:59:02Z</time>
      </trkpt>
      <trkpt lat="47.54168" lon="6.86401">
        <ele>331</ele>
        <time>2025-09-13T15:59:03Z</time>
      </trkpt>
      <trkpt lat="47.54174" lon="6.86404">
        <ele>331</ele>
        <time>2025-09-13T15:59:04Z</time>
      </trkpt>
      <trkpt lat="47.54181" lon="6.86409">
        <ele>331</ele>
        <time>2025-09-13T15:59:05Z</time>
      </trkpt>
      <trkpt lat="47.54188" lon="6.86413">
        <ele>331</ele>
        <time>2025-09-13T15:59:06Z</time>
      </trkpt>
      <trkpt lat="47.54195" lon="6.86416">
        <ele>331.1</ele>
        <time>2025-09-13T15:59:07Z</time>
      </trkpt>
      <trkpt lat="47.54205" lon="6.86415">
        <ele>331.1</ele>
        <time>2025-09-13T15:59:08Z</time>
      </trkpt>
      <trkpt lat="47.54212" lon="6.86416">
        <ele>331.1</ele>
        <time>2025-09-13T15:59:09Z</time>
      </trkpt>
      <trkpt lat="47.54219" lon="6.86418">
        <ele>331.1</ele>
        <time>2025-09-13T15:59:10Z</time>
      </trkpt>
      <trkpt lat="47.54226" lon="6.86422">
        <ele>331.2</ele>
        <time>2025-09-13T15:59:11Z</time>
      </trkpt>
      <trkpt lat="47.54234" lon="6.86423">
        <ele>331.2</ele>
        <time>2025-09-13T15:59:12Z</time>
      </trkpt>
      <trkpt lat="47.54242" lon="6.86425">
        <ele>331.2</ele>
        <time>2025-09-13T15:59:13Z</time>
      </trkpt>
      <trkpt lat="47.54252" lon="6.86426">
        <ele>331.2</ele>
        <time>2025-09-13T15:59:14Z</time>
      </trkpt>
      <trkpt lat="47.5426" lon="6.86427">
        <ele>331.2</ele>
        <time>2025-09-13T15:59:15Z</time>
      </trkpt>
      <trkpt lat="47.54267" lon="6.8643">
        <ele>331.2</ele>
        <time>2025-09-13T15:59:16Z</time>
      </trkpt>
      <trkpt lat="47.54273" lon="6.86431">
        <ele>331.2</ele>
        <time>2025-09-13T15:59:17Z</time>
      </trkpt>
      <trkpt lat="47.54282" lon="6.86433">
        <ele>331.2</ele>
        <time>2025-09-13T15:59:18Z</time>
      </trkpt>
      <trkpt lat="47.54288" lon="6.86435">
        <ele>331.2</ele>
        <time>2025-09-13T15:59:19Z</time>
      </trkpt>
      <trkpt lat="47.54293" lon="6.86439">
        <ele>331.1</ele>
        <time>2025-09-13T15:59:20Z</time>
      </trkpt>
      <trkpt lat="47.54301" lon="6.86442">
        <ele>331.1</ele>
        <time>2025-09-13T15:59:21Z</time>
      </trkpt>
      <trkpt lat="47.5431" lon="6.86445">
        <ele>331.1</ele>
        <time>2025-09-13T15:59:22Z</time>
      </trkpt>
      <trkpt lat="47.54317" lon="6.86446">
        <ele>331.1</ele>
        <time>2025-09-13T15:59:23Z</time>
      </trkpt>
      <trkpt lat="47.54325" lon="6.86448">
        <ele>331.1</ele>
        <time>2025-09-13T15:59:24Z</time>
      </trkpt>
      <trkpt lat="47.54333" lon="6.86451">
        <ele>331.1</ele>
        <time>2025-09-13T15:59:25Z</time>
      </trkpt>
      <trkpt lat="47.54341" lon="6.86455">
        <ele>331.1</ele>
        <time>2025-09-13T15:59:26Z</time>
      </trkpt>
      <trkpt lat="47.54348" lon="6.86458">
        <ele>331.1</ele>
        <time>2025-09-13T15:59:27Z</time>
      </trkpt>
      <trkpt lat="47.54355" lon="6.86462">
        <ele>331.1</ele>
        <time>2025-09-13T15:59:28Z</time>
      </trkpt>
      <trkpt lat="47.54363" lon="6.86465">
        <ele>331.1</ele>
        <time>2025-09-13T15:59:29Z</time>
      </trkpt>
      <trkpt lat="47.5437" lon="6.86469">
        <ele>331.1</ele>
        <time>2025-09-13T15:59:30Z</time>
      </trkpt>
      <trkpt lat="47.54376" lon="6.86472">
        <ele>331.1</ele>
        <time>2025-09-13T15:59:31Z</time>
      </trkpt>
      <trkpt lat="47.54384" lon="6.86473">
        <ele>331.1</ele>
        <time>2025-09-13T15:59:32Z</time>
      </trkpt>
      <trkpt lat="47.54391" lon="6.86477">
        <ele>331.1</ele>
        <time>2025-09-13T15:59:33Z</time>
      </trkpt>
      <trkpt lat="47.544" lon="6.86476">
        <ele>331.1</ele>
        <time>2025-09-13T15:59:34Z</time>
      </trkpt>
      <trkpt lat="47.54407" lon="6.86481">
        <ele>331.1</ele>
        <time>2025-09-13T15:59:35Z</time>
      </trkpt>
      <trkpt lat="47.54415" lon="6.86484">
        <ele>331.1</ele>
        <time>2025-09-13T15:59:36Z</time>
      </trkpt>
      <trkpt lat="47.54423" lon="6.86488">
        <ele>331.1</ele>
        <time>2025-09-13T15:59:37Z</time>
      </trkpt>
      <trkpt lat="47.54432" lon="6.86488">
        <ele>331</ele>
        <time>2025-09-13T15:59:38Z</time>
      </trkpt>
      <trkpt lat="47.54439" lon="6.8649">
        <ele>331</ele>
        <time>2025-09-13T15:59:39Z</time>
      </trkpt>
      <trkpt lat="47.54447" lon="6.86491">
        <ele>331</ele>
        <time>2025-09-13T15:59:40Z</time>
      </trkpt>
      <trkpt lat="47.54455" lon="6.86493">
        <ele>331</ele>
        <time>2025-09-13T15:59:41Z</time>
      </trkpt>
      <trkpt lat="47.54463" lon="6.86495">
        <ele>331</ele>
        <time>2025-09-13T15:59:42Z</time>
      </trkpt>
      <trkpt lat="47.54468" lon="6.865">
        <ele>331</ele>
        <time>2025-09-13T15:59:43Z</time>
      </trkpt>
      <trkpt lat="47.54475" lon="6.86503">
        <ele>331</ele>
        <time>2025-09-13T15:59:44Z</time>
      </trkpt>
      <trkpt lat="47.54483" lon="6.86505">
        <ele>331</ele>
        <time>2025-09-13T15:59:45Z</time>
      </trkpt>
      <trkpt lat="47.54491" lon="6.86509">
        <ele>331</ele>
        <time>2025-09-13T15:59:46Z</time>
      </trkpt>
      <trkpt lat="47.54498" lon="6.86512">
        <ele>331</ele>
        <time>2025-09-13T15:59:47Z</time>
      </trkpt>
      <trkpt lat="47.54505" lon="6.86516">
        <ele>331</ele>
        <time>2025-09-13T15:59:48Z</time>
      </trkpt>
      <trkpt lat="47.54513" lon="6.86521">
        <ele>331</ele>
        <time>2025-09-13T15:59:49Z</time>
      </trkpt>
      <trkpt lat="47.5452" lon="6.86526">
        <ele>331</ele>
        <time>2025-09-13T15:59:50Z</time>
      </trkpt>
      <trkpt lat="47.54526" lon="6.8653">
        <ele>330.9</ele>
        <time>2025-09-13T15:59:51Z</time>
      </trkpt>
      <trkpt lat="47.54534" lon="6.8653">
        <ele>330.9</ele>
        <time>2025-09-13T15:59:52Z</time>
      </trkpt>
      <trkpt lat="47.54542" lon="6.86527">
        <ele>330.9</ele>
        <time>2025-09-13T15:59:53Z</time>
      </trkpt>
      <trkpt lat="47.54546" lon="6.8653">
        <ele>330.8</ele>
        <time>2025-09-13T15:59:54Z</time>
      </trkpt>
      <trkpt lat="47.54554" lon="6.86534">
        <ele>330.8</ele>
        <time>2025-09-13T15:59:55Z</time>
      </trkpt>
      <trkpt lat="47.54561" lon="6.86535">
        <ele>330.8</ele>
        <time>2025-09-13T15:59:56Z</time>
      </trkpt>
      <trkpt lat="47.5457" lon="6.86538">
        <ele>330.8</ele>
        <time>2025-09-13T15:59:57Z</time>
      </trkpt>
      <trkpt lat="47.54578" lon="6.8654">
        <ele>330.8</ele>
        <time>2025-09-13T15:59:58Z</time>
      </trkpt>
      <trkpt lat="47.54584" lon="6.86543">
        <ele>330.8</ele>
        <time>2025-09-13T15:59:59Z</time>
      </trkpt>
      <trkpt lat="47.54592" lon="6.86545">
        <ele>330.8</ele>
        <time>2025-09-13T16:00:00Z</time>
      </trkpt>
      <trkpt lat="47.54599" lon="6.86547">
        <ele>330.8</ele>
        <time>2025-09-13T16:00:01Z</time>
      </trkpt>
      <trkpt lat="47.54607" lon="6.8655">
        <ele>330.8</ele>
        <time>2025-09-13T16:00:02Z</time>
      </trkpt>
      <trkpt lat="47.54614" lon="6.86553">
        <ele>330.7</ele>
        <time>2025-09-13T16:00:03Z</time>
      </trkpt>
      <trkpt lat="47.54622" lon="6.86556">
        <ele>330.7</ele>
        <time>2025-09-13T16:00:04Z</time>
      </trkpt>
      <trkpt lat="47.54628" lon="6.86559">
        <ele>330.7</ele>
        <time>2025-09-13T16:00:05Z</time>
      </trkpt>
      <trkpt lat="47.54636" lon="6.86561">
        <ele>330.7</ele>
        <time>2025-09-13T16:00:06Z</time>
      </trkpt>
      <trkpt lat="47.54643" lon="6.86563">
        <ele>330.6</ele>
        <time>2025-09-13T16:00:07Z</time>
      </trkpt>
      <trkpt lat="47.54651" lon="6.86565">
        <ele>330.6</ele>
        <time>2025-09-13T16:00:08Z</time>
      </trkpt>
      <trkpt lat="47.54658" lon="6.86567">
        <ele>330.6</ele>
        <time>2025-09-13T16:00:09Z</time>
      </trkpt>
      <trkpt lat="47.54665" lon="6.8657">
        <ele>330.6</ele>
        <time>2025-09-13T16:00:10Z</time>
      </trkpt>
      <trkpt lat="47.54673" lon="6.86573">
        <ele>330.5</ele>
        <time>2025-09-13T16:00:11Z</time>
      </trkpt>
      <trkpt lat="47.5468" lon="6.86576">
        <ele>330.5</ele>
        <time>2025-09-13T16:00:12Z</time>
      </trkpt>
      <trkpt lat="47.54687" lon="6.86579">
        <ele>330.5</ele>
        <time>2025-09-13T16:00:13Z</time>
      </trkpt>
      <trkpt lat="47.54695" lon="6.86582">
        <ele>330.5</ele>
        <time>2025-09-13T16:00:14Z</time>
      </trkpt>
      <trkpt lat="47.54702" lon="6.86585">
        <ele>330.4</ele>
        <time>2025-09-13T16:00:15Z</time>
      </trkpt>
      <trkpt lat="47.5471" lon="6.86588">
        <ele>330.4</ele>
        <time>2025-09-13T16:00:16Z</time>
      </trkpt>
      <trkpt lat="47.54718" lon="6.86589">
        <ele>330.4</ele>
        <time>2025-09-13T16:00:17Z</time>
      </trkpt>
      <trkpt lat="47.54724" lon="6.86592">
        <ele>330.4</ele>
        <time>2025-09-13T16:00:18Z</time>
      </trkpt>
      <trkpt lat="47.54732" lon="6.86595">
        <ele>330.3</ele>
        <time>2025-09-13T16:00:19Z</time>
      </trkpt>
      <trkpt lat="47.54739" lon="6.866">
        <ele>330.3</ele>
        <time>2025-09-13T16:00:20Z</time>
      </trkpt>
      <trkpt lat="47.54747" lon="6.86602">
        <ele>330.3</ele>
        <time>2025-09-13T16:00:21Z</time>
      </trkpt>
      <trkpt lat="47.54755" lon="6.86605">
        <ele>330.3</ele>
        <time>2025-09-13T16:00:22Z</time>
      </trkpt>
      <trkpt lat="47.54762" lon="6.86606">
        <ele>330.3</ele>
        <time>2025-09-13T16:00:23Z</time>
      </trkpt>
      <trkpt lat="47.5477" lon="6.86608">
        <ele>330.3</ele>
        <time>2025-09-13T16:00:24Z</time>
      </trkpt>
      <trkpt lat="47.54778" lon="6.8661">
        <ele>330.2</ele>
        <time>2025-09-13T16:00:25Z</time>
      </trkpt>
      <trkpt lat="47.54786" lon="6.86613">
        <ele>330.2</ele>
        <time>2025-09-13T16:00:26Z</time>
      </trkpt>
      <trkpt lat="47.54793" lon="6.86614">
        <ele>330.2</ele>
        <time>2025-09-13T16:00:27Z</time>
      </trkpt>
      <trkpt lat="47.548" lon="6.86616">
        <ele>330.1</ele>
        <time>2025-09-13T16:00:28Z</time>
      </trkpt>
      <trkpt lat="47.54808" lon="6.86618">
        <ele>330.1</ele>
        <time>2025-09-13T16:00:29Z</time>
      </trkpt>
      <trkpt lat="47.54816" lon="6.8662">
        <ele>330.1</ele>
        <time>2025-09-13T16:00:30Z</time>
      </trkpt>
      <trkpt lat="47.54823" lon="6.86622">
        <ele>330.1</ele>
        <time>2025-09-13T16:00:31Z</time>
      </trkpt>
      <trkpt lat="47.54831" lon="6.86623">
        <ele>330.2</ele>
        <time>2025-09-13T16:00:32Z</time>
      </trkpt>
      <trkpt lat="47.54839" lon="6.86625">
        <ele>330.3</ele>
        <time>2025-09-13T16:00:33Z</time>
      </trkpt>
      <trkpt lat="47.54847" lon="6.86626">
        <ele>330.5</ele>
        <time>2025-09-13T16:00:34Z</time>
      </trkpt>
      <trkpt lat="47.54854" lon="6.86626">
        <ele>330.6</ele>
        <time>2025-09-13T16:00:35Z</time>
      </trkpt>
      <trkpt lat="47.54861" lon="6.86627">
        <ele>330.9</ele>
        <time>2025-09-13T16:00:36Z</time>
      </trkpt>
      <trkpt lat="47.5487" lon="6.86626">
        <ele>331.2</ele>
        <time>2025-09-13T16:00:37Z</time>
      </trkpt>
      <trkpt lat="47.54877" lon="6.86626">
        <ele>331.6</ele>
        <time>2025-09-13T16:00:38Z</time>
      </trkpt>
      <trkpt lat="47.54885" lon="6.86627">
        <ele>332</ele>
        <time>2025-09-13T16:00:39Z</time>
      </trkpt>
      <trkpt lat="47.54893" lon="6.86627">
        <ele>332.4</ele>
        <time>2025-09-13T16:00:40Z</time>
      </trkpt>
      <trkpt lat="47.549" lon="6.86628">
        <ele>332.8</ele>
        <time>2025-09-13T16:00:41Z</time>
      </trkpt>
      <trkpt lat="47.54907" lon="6.86628">
        <ele>333.1</ele>
        <time>2025-09-13T16:00:42Z</time>
      </trkpt>
      <trkpt lat="47.54913" lon="6.86629">
        <ele>333.2</ele>
        <time>2025-09-13T16:00:43Z</time>
      </trkpt>
      <trkpt lat="47.54921" lon="6.86629">
        <ele>333.2</ele>
        <time>2025-09-13T16:00:44Z</time>
      </trkpt>
      <trkpt lat="47.54928" lon="6.86631">
        <ele>333.2</ele>
        <time>2025-09-13T16:00:45Z</time>
      </trkpt>
      <trkpt lat="47.54934" lon="6.86634">
        <ele>333.2</ele>
        <time>2025-09-13T16:00:46Z</time>
      </trkpt>
      <trkpt lat="47.54941" lon="6.86635">
        <ele>333.2</ele>
        <time>2025-09-13T16:00:47Z</time>
      </trkpt>
      <trkpt lat="47.54949" lon="6.86634">
        <ele>333.2</ele>
        <time>2025-09-13T16:00:48Z</time>
      </trkpt>
      <trkpt lat="47.54955" lon="6.86634">
        <ele>333.3</ele>
        <time>2025-09-13T16:00:49Z</time>
      </trkpt>
      <trkpt lat="47.54963" lon="6.86634">
        <ele>333.3</ele>
        <time>2025-09-13T16:00:50Z</time>
      </trkpt>
      <trkpt lat="47.54978" lon="6.86632">
        <ele>333.4</ele>
        <time>2025-09-13T16:00:52Z</time>
      </trkpt>
      <trkpt lat="47.54986" lon="6.86631">
        <ele>333.4</ele>
        <time>2025-09-13T16:00:54Z</time>
      </trkpt>
      <trkpt lat="47.54993" lon="6.8663">
        <ele>333.4</ele>
        <time>2025-09-13T16:00:55Z</time>
      </trkpt>
      <trkpt lat="47.55008" lon="6.86627">
        <ele>333.5</ele>
        <time>2025-09-13T16:00:56Z</time>
      </trkpt>
      <trkpt lat="47.55015" lon="6.86627">
        <ele>333.6</ele>
        <time>2025-09-13T16:00:57Z</time>
      </trkpt>
      <trkpt lat="47.55022" lon="6.86626">
        <ele>333.6</ele>
        <time>2025-09-13T16:00:58Z</time>
      </trkpt>
      <trkpt lat="47.5503" lon="6.86625">
        <ele>333.6</ele>
        <time>2025-09-13T16:00:59Z</time>
      </trkpt>
      <trkpt lat="47.55038" lon="6.86624">
        <ele>333.6</ele>
        <time>2025-09-13T16:01:00Z</time>
      </trkpt>
      <trkpt lat="47.55045" lon="6.86623">
        <ele>333.6</ele>
        <time>2025-09-13T16:01:01Z</time>
      </trkpt>
      <trkpt lat="47.55052" lon="6.86622">
        <ele>333.6</ele>
        <time>2025-09-13T16:01:02Z</time>
      </trkpt>
      <trkpt lat="47.55058" lon="6.86623">
        <ele>333.7</ele>
        <time>2025-09-13T16:01:03Z</time>
      </trkpt>
      <trkpt lat="47.55065" lon="6.86621">
        <ele>333.7</ele>
        <time>2025-09-13T16:01:04Z</time>
      </trkpt>
      <trkpt lat="47.55072" lon="6.86622">
        <ele>333.7</ele>
        <time>2025-09-13T16:01:05Z</time>
      </trkpt>
      <trkpt lat="47.55079" lon="6.86621">
        <ele>333.7</ele>
        <time>2025-09-13T16:01:06Z</time>
      </trkpt>
      <trkpt lat="47.55087" lon="6.86621">
        <ele>333.6</ele>
        <time>2025-09-13T16:01:07Z</time>
      </trkpt>
      <trkpt lat="47.55094" lon="6.8662">
        <ele>333.6</ele>
        <time>2025-09-13T16:01:08Z</time>
      </trkpt>
      <trkpt lat="47.55101" lon="6.8662">
        <ele>333.6</ele>
        <time>2025-09-13T16:01:09Z</time>
      </trkpt>
      <trkpt lat="47.55109" lon="6.86616">
        <ele>333.6</ele>
        <time>2025-09-13T16:01:10Z</time>
      </trkpt>
      <trkpt lat="47.55117" lon="6.86613">
        <ele>333.5</ele>
        <time>2025-09-13T16:01:11Z</time>
      </trkpt>
      <trkpt lat="47.55123" lon="6.86611">
        <ele>333.5</ele>
        <time>2025-09-13T16:01:12Z</time>
      </trkpt>
      <trkpt lat="47.55132" lon="6.86607">
        <ele>333.5</ele>
        <time>2025-09-13T16:01:13Z</time>
      </trkpt>
      <trkpt lat="47.55139" lon="6.86607">
        <ele>333.5</ele>
        <time>2025-09-13T16:01:14Z</time>
      </trkpt>
      <trkpt lat="47.55148" lon="6.86606">
        <ele>333.5</ele>
        <time>2025-09-13T16:01:15Z</time>
      </trkpt>
      <trkpt lat="47.55156" lon="6.86604">
        <ele>333.5</ele>
        <time>2025-09-13T16:01:16Z</time>
      </trkpt>
      <trkpt lat="47.55163" lon="6.86602">
        <ele>333.5</ele>
        <time>2025-09-13T16:01:17Z</time>
      </trkpt>
      <trkpt lat="47.5517" lon="6.86601">
        <ele>333.5</ele>
        <time>2025-09-13T16:01:18Z</time>
      </trkpt>
      <trkpt lat="47.55178" lon="6.86598">
        <ele>333.5</ele>
        <time>2025-09-13T16:01:19Z</time>
      </trkpt>
      <trkpt lat="47.55187" lon="6.86594">
        <ele>333.5</ele>
        <time>2025-09-13T16:01:20Z</time>
      </trkpt>
      <trkpt lat="47.55194" lon="6.86595">
        <ele>333.5</ele>
        <time>2025-09-13T16:01:21Z</time>
      </trkpt>
      <trkpt lat="47.55202" lon="6.86593">
        <ele>333.5</ele>
        <time>2025-09-13T16:01:22Z</time>
      </trkpt>
      <trkpt lat="47.55209" lon="6.86592">
        <ele>333.4</ele>
        <time>2025-09-13T16:01:23Z</time>
      </trkpt>
      <trkpt lat="47.55217" lon="6.8659">
        <ele>333.4</ele>
        <time>2025-09-13T16:01:24Z</time>
      </trkpt>
      <trkpt lat="47.55225" lon="6.86588">
        <ele>333.4</ele>
        <time>2025-09-13T16:01:25Z</time>
      </trkpt>
      <trkpt lat="47.55233" lon="6.86586">
        <ele>333.4</ele>
        <time>2025-09-13T16:01:26Z</time>
      </trkpt>
      <trkpt lat="47.55241" lon="6.86585">
        <ele>333.4</ele>
        <time>2025-09-13T16:01:27Z</time>
      </trkpt>
      <trkpt lat="47.55249" lon="6.86584">
        <ele>333.4</ele>
        <time>2025-09-13T16:01:28Z</time>
      </trkpt>
      <trkpt lat="47.55257" lon="6.86582">
        <ele>333.5</ele>
        <time>2025-09-13T16:01:29Z</time>
      </trkpt>
      <trkpt lat="47.55265" lon="6.8658">
        <ele>333.5</ele>
        <time>2025-09-13T16:01:30Z</time>
      </trkpt>
      <trkpt lat="47.55272" lon="6.86579">
        <ele>333.5</ele>
        <time>2025-09-13T16:01:31Z</time>
      </trkpt>
      <trkpt lat="47.55279" lon="6.86577">
        <ele>333.5</ele>
        <time>2025-09-13T16:01:32Z</time>
      </trkpt>
      <trkpt lat="47.55287" lon="6.86574">
        <ele>333.5</ele>
        <time>2025-09-13T16:01:33Z</time>
      </trkpt>
      <trkpt lat="47.55296" lon="6.86573">
        <ele>333.5</ele>
        <time>2025-09-13T16:01:34Z</time>
      </trkpt>
      <trkpt lat="47.55303" lon="6.86572">
        <ele>333.5</ele>
        <time>2025-09-13T16:01:35Z</time>
      </trkpt>
      <trkpt lat="47.55311" lon="6.8657">
        <ele>333.5</ele>
        <time>2025-09-13T16:01:36Z</time>
      </trkpt>
      <trkpt lat="47.55319" lon="6.86568">
        <ele>333.5</ele>
        <time>2025-09-13T16:01:37Z</time>
      </trkpt>
      <trkpt lat="47.55327" lon="6.86566">
        <ele>333.6</ele>
        <time>2025-09-13T16:01:38Z</time>
      </trkpt>
      <trkpt lat="47.55335" lon="6.86563">
        <ele>333.6</ele>
        <time>2025-09-13T16:01:39Z</time>
      </trkpt>
      <trkpt lat="47.55343" lon="6.86562">
        <ele>333.6</ele>
        <time>2025-09-13T16:01:40Z</time>
      </trkpt>
      <trkpt lat="47.55351" lon="6.86561">
        <ele>333.6</ele>
        <time>2025-09-13T16:01:41Z</time>
      </trkpt>
      <trkpt lat="47.55358" lon="6.8656">
        <ele>333.6</ele>
        <time>2025-09-13T16:01:42Z</time>
      </trkpt>
      <trkpt lat="47.55367" lon="6.86559">
        <ele>333.6</ele>
        <time>2025-09-13T16:01:43Z</time>
      </trkpt>
      <trkpt lat="47.55375" lon="6.86558">
        <ele>333.6</ele>
        <time>2025-09-13T16:01:44Z</time>
      </trkpt>
      <trkpt lat="47.55383" lon="6.86557">
        <ele>333.6</ele>
        <time>2025-09-13T16:01:45Z</time>
      </trkpt>
      <trkpt lat="47.55393" lon="6.86553">
        <ele>333.6</ele>
        <time>2025-09-13T16:01:46Z</time>
      </trkpt>
      <trkpt lat="47.554" lon="6.86552">
        <ele>333.6</ele>
        <time>2025-09-13T16:01:47Z</time>
      </trkpt>
      <trkpt lat="47.55405" lon="6.86552">
        <ele>333.6</ele>
        <time>2025-09-13T16:01:48Z</time>
      </trkpt>
      <trkpt lat="47.55415" lon="6.86548">
        <ele>333.6</ele>
        <time>2025-09-13T16:01:49Z</time>
      </trkpt>
      <trkpt lat="47.55423" lon="6.86546">
        <ele>333.6</ele>
        <time>2025-09-13T16:01:50Z</time>
      </trkpt>
      <trkpt lat="47.55432" lon="6.86545">
        <ele>333.6</ele>
        <time>2025-09-13T16:01:51Z</time>
      </trkpt>
      <trkpt lat="47.5544" lon="6.86544">
        <ele>333.6</ele>
        <time>2025-09-13T16:01:52Z</time>
      </trkpt>
      <trkpt lat="47.55449" lon="6.86542">
        <ele>333.6</ele>
        <time>2025-09-13T16:01:53Z</time>
      </trkpt>
      <trkpt lat="47.55457" lon="6.86539">
        <ele>333.6</ele>
        <time>2025-09-13T16:01:54Z</time>
      </trkpt>
      <trkpt lat="47.55465" lon="6.86538">
        <ele>333.6</ele>
        <time>2025-09-13T16:01:55Z</time>
      </trkpt>
      <trkpt lat="47.55472" lon="6.86537">
        <ele>333.7</ele>
        <time>2025-09-13T16:01:56Z</time>
      </trkpt>
      <trkpt lat="47.5548" lon="6.86534">
        <ele>333.7</ele>
        <time>2025-09-13T16:01:57Z</time>
      </trkpt>
      <trkpt lat="47.55488" lon="6.86532">
        <ele>333.7</ele>
        <time>2025-09-13T16:01:58Z</time>
      </trkpt>
      <trkpt lat="47.55496" lon="6.86531">
        <ele>333.7</ele>
        <time>2025-09-13T16:01:59Z</time>
      </trkpt>
      <trkpt lat="47.55505" lon="6.86529">
        <ele>333.7</ele>
        <time>2025-09-13T16:02:00Z</time>
      </trkpt>
      <trkpt lat="47.55512" lon="6.86527">
        <ele>333.7</ele>
        <time>2025-09-13T16:02:01Z</time>
      </trkpt>
      <trkpt lat="47.55521" lon="6.86526">
        <ele>333.7</ele>
        <time>2025-09-13T16:02:02Z</time>
      </trkpt>
      <trkpt lat="47.55528" lon="6.86524">
        <ele>333.7</ele>
        <time>2025-09-13T16:02:03Z</time>
      </trkpt>
      <trkpt lat="47.55536" lon="6.86523">
        <ele>333.7</ele>
        <time>2025-09-13T16:02:04Z</time>
      </trkpt>
      <trkpt lat="47.55544" lon="6.86522">
        <ele>333.7</ele>
        <time>2025-09-13T16:02:05Z</time>
      </trkpt>
      <trkpt lat="47.55552" lon="6.86521">
        <ele>333.7</ele>
        <time>2025-09-13T16:02:06Z</time>
      </trkpt>
      <trkpt lat="47.5556" lon="6.86519">
        <ele>333.7</ele>
        <time>2025-09-13T16:02:07Z</time>
      </trkpt>
      <trkpt lat="47.55567" lon="6.86517">
        <ele>333.7</ele>
        <time>2025-09-13T16:02:08Z</time>
      </trkpt>
      <trkpt lat="47.55576" lon="6.86516">
        <ele>333.7</ele>
        <time>2025-09-13T16:02:09Z</time>
      </trkpt>
      <trkpt lat="47.55583" lon="6.86513">
        <ele>333.7</ele>
        <time>2025-09-13T16:02:10Z</time>
      </trkpt>
      <trkpt lat="47.5559" lon="6.86512">
        <ele>333.7</ele>
        <time>2025-09-13T16:02:11Z</time>
      </trkpt>
      <trkpt lat="47.55598" lon="6.86511">
        <ele>333.7</ele>
        <time>2025-09-13T16:02:12Z</time>
      </trkpt>
      <trkpt lat="47.55606" lon="6.8651">
        <ele>333.7</ele>
        <time>2025-09-13T16:02:13Z</time>
      </trkpt>
      <trkpt lat="47.55614" lon="6.86506">
        <ele>333.7</ele>
        <time>2025-09-13T16:02:14Z</time>
      </trkpt>
      <trkpt lat="47.55623" lon="6.86505">
        <ele>333.7</ele>
        <time>2025-09-13T16:02:15Z</time>
      </trkpt>
      <trkpt lat="47.55634" lon="6.86503">
        <ele>333.7</ele>
        <time>2025-09-13T16:02:16Z</time>
      </trkpt>
      <trkpt lat="47.55642" lon="6.86503">
        <ele>333.8</ele>
        <time>2025-09-13T16:02:17Z</time>
      </trkpt>
      <trkpt lat="47.55651" lon="6.865">
        <ele>333.8</ele>
        <time>2025-09-13T16:02:18Z</time>
      </trkpt>
      <trkpt lat="47.55658" lon="6.86499">
        <ele>333.7</ele>
        <time>2025-09-13T16:02:19Z</time>
      </trkpt>
      <trkpt lat="47.55666" lon="6.86496">
        <ele>333.7</ele>
        <time>2025-09-13T16:02:20Z</time>
      </trkpt>
      <trkpt lat="47.55674" lon="6.86495">
        <ele>333.7</ele>
        <time>2025-09-13T16:02:21Z</time>
      </trkpt>
      <trkpt lat="47.55682" lon="6.86493">
        <ele>333.7</ele>
        <time>2025-09-13T16:02:22Z</time>
      </trkpt>
      <trkpt lat="47.5569" lon="6.8649">
        <ele>333.7</ele>
        <time>2025-09-13T16:02:23Z</time>
      </trkpt>
      <trkpt lat="47.55699" lon="6.86488">
        <ele>333.7</ele>
        <time>2025-09-13T16:02:24Z</time>
      </trkpt>
      <trkpt lat="47.55707" lon="6.86487">
        <ele>333.6</ele>
        <time>2025-09-13T16:02:25Z</time>
      </trkpt>
      <trkpt lat="47.55715" lon="6.86485">
        <ele>333.6</ele>
        <time>2025-09-13T16:02:26Z</time>
      </trkpt>
      <trkpt lat="47.55723" lon="6.86486">
        <ele>333.6</ele>
        <time>2025-09-13T16:02:27Z</time>
      </trkpt>
      <trkpt lat="47.5573" lon="6.86485">
        <ele>333.6</ele>
        <time>2025-09-13T16:02:28Z</time>
      </trkpt>
      <trkpt lat="47.55738" lon="6.86485">
        <ele>333.6</ele>
        <time>2025-09-13T16:02:29Z</time>
      </trkpt>
      <trkpt lat="47.55748" lon="6.86481">
        <ele>333.6</ele>
        <time>2025-09-13T16:02:30Z</time>
      </trkpt>
      <trkpt lat="47.55757" lon="6.86478">
        <ele>333.6</ele>
        <time>2025-09-13T16:02:31Z</time>
      </trkpt>
      <trkpt lat="47.55764" lon="6.86474">
        <ele>333.6</ele>
        <time>2025-09-13T16:02:32Z</time>
      </trkpt>
      <trkpt lat="47.55773" lon="6.86471">
        <ele>333.6</ele>
        <time>2025-09-13T16:02:33Z</time>
      </trkpt>
      <trkpt lat="47.5578" lon="6.8647">
        <ele>333.6</ele>
        <time>2025-09-13T16:02:34Z</time>
      </trkpt>
      <trkpt lat="47.55789" lon="6.86469">
        <ele>333.6</ele>
        <time>2025-09-13T16:02:35Z</time>
      </trkpt>
      <trkpt lat="47.55798" lon="6.86468">
        <ele>333.6</ele>
        <time>2025-09-13T16:02:36Z</time>
      </trkpt>
      <trkpt lat="47.55806" lon="6.86465">
        <ele>333.6</ele>
        <time>2025-09-13T16:02:37Z</time>
      </trkpt>
      <trkpt lat="47.55814" lon="6.86463">
        <ele>333.6</ele>
        <time>2025-09-13T16:02:38Z</time>
      </trkpt>
      <trkpt lat="47.55822" lon="6.8646">
        <ele>333.6</ele>
        <time>2025-09-13T16:02:39Z</time>
      </trkpt>
      <trkpt lat="47.55828" lon="6.86462">
        <ele>333.7</ele>
        <time>2025-09-13T16:02:40Z</time>
      </trkpt>
      <trkpt lat="47.55836" lon="6.86461">
        <ele>333.7</ele>
        <time>2025-09-13T16:02:41Z</time>
      </trkpt>
      <trkpt lat="47.55843" lon="6.86461">
        <ele>333.7</ele>
        <time>2025-09-13T16:02:42Z</time>
      </trkpt>
      <trkpt lat="47.55849" lon="6.86466">
        <ele>333.7</ele>
        <time>2025-09-13T16:02:43Z</time>
      </trkpt>
      <trkpt lat="47.55857" lon="6.86466">
        <ele>333.7</ele>
        <time>2025-09-13T16:02:44Z</time>
      </trkpt>
      <trkpt lat="47.55864" lon="6.86463">
        <ele>333.7</ele>
        <time>2025-09-13T16:02:45Z</time>
      </trkpt>
      <trkpt lat="47.55869" lon="6.86461">
        <ele>333.7</ele>
        <time>2025-09-13T16:02:46Z</time>
      </trkpt>
      <trkpt lat="47.55874" lon="6.86453">
        <ele>333.7</ele>
        <time>2025-09-13T16:02:47Z</time>
      </trkpt>
      <trkpt lat="47.5588" lon="6.8645">
        <ele>333.7</ele>
        <time>2025-09-13T16:02:48Z</time>
      </trkpt>
      <trkpt lat="47.55887" lon="6.86447">
        <ele>333.7</ele>
        <time>2025-09-13T16:02:49Z</time>
      </trkpt>
      <trkpt lat="47.55895" lon="6.86444">
        <ele>333.7</ele>
        <time>2025-09-13T16:02:50Z</time>
      </trkpt>
      <trkpt lat="47.55902" lon="6.86442">
        <ele>333.7</ele>
        <time>2025-09-13T16:02:51Z</time>
      </trkpt>
      <trkpt lat="47.55909" lon="6.8644">
        <ele>333.7</ele>
        <time>2025-09-13T16:02:52Z</time>
      </trkpt>
      <trkpt lat="47.55916" lon="6.86438">
        <ele>333.7</ele>
        <time>2025-09-13T16:02:53Z</time>
      </trkpt>
      <trkpt lat="47.55924" lon="6.86435">
        <ele>333.7</ele>
        <time>2025-09-13T16:02:54Z</time>
      </trkpt>
      <trkpt lat="47.5593" lon="6.86432">
        <ele>333.7</ele>
        <time>2025-09-13T16:02:55Z</time>
      </trkpt>
      <trkpt lat="47.55938" lon="6.86429">
        <ele>333.7</ele>
        <time>2025-09-13T16:02:57Z</time>
      </trkpt>
      <trkpt lat="47.55945" lon="6.86427">
        <ele>333.7</ele>
        <time>2025-09-13T16:02:58Z</time>
      </trkpt>
      <trkpt lat="47.55952" lon="6.86424">
        <ele>333.7</ele>
        <time>2025-09-13T16:02:59Z</time>
      </trkpt>
      <trkpt lat="47.5596" lon="6.8642">
        <ele>333.6</ele>
        <time>2025-09-13T16:03:00Z</time>
      </trkpt>
      <trkpt lat="47.55967" lon="6.86416">
        <ele>333.6</ele>
        <time>2025-09-13T16:03:01Z</time>
      </trkpt>
      <trkpt lat="47.55975" lon="6.86413">
        <ele>333.6</ele>
        <time>2025-09-13T16:03:02Z</time>
      </trkpt>
      <trkpt lat="47.55982" lon="6.86409">
        <ele>333.6</ele>
        <time>2025-09-13T16:03:03Z</time>
      </trkpt>
      <trkpt lat="47.55989" lon="6.86406">
        <ele>333.6</ele>
        <time>2025-09-13T16:03:04Z</time>
      </trkpt>
      <trkpt lat="47.55996" lon="6.86403">
        <ele>333.6</ele>
        <time>2025-09-13T16:03:05Z</time>
      </trkpt>
      <trkpt lat="47.56004" lon="6.864">
        <ele>333.6</ele>
        <time>2025-09-13T16:03:06Z</time>
      </trkpt>
      <trkpt lat="47.56011" lon="6.86396">
        <ele>333.6</ele>
        <time>2025-09-13T16:03:07Z</time>
      </trkpt>
      <trkpt lat="47.56018" lon="6.86393">
        <ele>333.6</ele>
        <time>2025-09-13T16:03:08Z</time>
      </trkpt>
      <trkpt lat="47.56025" lon="6.86389">
        <ele>333.7</ele>
        <time>2025-09-13T16:03:09Z</time>
      </trkpt>
      <trkpt lat="47.56033" lon="6.86386">
        <ele>333.7</ele>
        <time>2025-09-13T16:03:10Z</time>
      </trkpt>
      <trkpt lat="47.5604" lon="6.86382">
        <ele>333.7</ele>
        <time>2025-09-13T16:03:11Z</time>
      </trkpt>
      <trkpt lat="47.56047" lon="6.86379">
        <ele>333.7</ele>
        <time>2025-09-13T16:03:12Z</time>
      </trkpt>
      <trkpt lat="47.56055" lon="6.86374">
        <ele>333.7</ele>
        <time>2025-09-13T16:03:13Z</time>
      </trkpt>
      <trkpt lat="47.56063" lon="6.86372">
        <ele>333.7</ele>
        <time>2025-09-13T16:03:14Z</time>
      </trkpt>
      <trkpt lat="47.5607" lon="6.86366">
        <ele>333.7</ele>
        <time>2025-09-13T16:03:15Z</time>
      </trkpt>
      <trkpt lat="47.56078" lon="6.86363">
        <ele>333.7</ele>
        <time>2025-09-13T16:03:16Z</time>
      </trkpt>
      <trkpt lat="47.56092" lon="6.86357">
        <ele>333.8</ele>
        <time>2025-09-13T16:03:17Z</time>
      </trkpt>
      <trkpt lat="47.561" lon="6.86352">
        <ele>333.8</ele>
        <time>2025-09-13T16:03:18Z</time>
      </trkpt>
      <trkpt lat="47.56107" lon="6.86349">
        <ele>333.8</ele>
        <time>2025-09-13T16:03:19Z</time>
      </trkpt>
      <trkpt lat="47.56114" lon="6.86345">
        <ele>333.8</ele>
        <time>2025-09-13T16:03:20Z</time>
      </trkpt>
      <trkpt lat="47.56121" lon="6.86342">
        <ele>333.8</ele>
        <time>2025-09-13T16:03:21Z</time>
      </trkpt>
      <trkpt lat="47.56128" lon="6.86339">
        <ele>333.8</ele>
        <time>2025-09-13T16:03:22Z</time>
      </trkpt>
      <trkpt lat="47.56135" lon="6.86335">
        <ele>333.8</ele>
        <time>2025-09-13T16:03:23Z</time>
      </trkpt>
      <trkpt lat="47.56143" lon="6.86331">
        <ele>333.8</ele>
        <time>2025-09-13T16:03:24Z</time>
      </trkpt>
      <trkpt lat="47.5615" lon="6.86328">
        <ele>333.8</ele>
        <time>2025-09-13T16:03:25Z</time>
      </trkpt>
      <trkpt lat="47.56157" lon="6.86325">
        <ele>333.8</ele>
        <time>2025-09-13T16:03:26Z</time>
      </trkpt>
      <trkpt lat="47.56165" lon="6.86321">
        <ele>333.7</ele>
        <time>2025-09-13T16:03:27Z</time>
      </trkpt>
      <trkpt lat="47.56173" lon="6.86317">
        <ele>333.7</ele>
        <time>2025-09-13T16:03:28Z</time>
      </trkpt>
      <trkpt lat="47.5618" lon="6.86314">
        <ele>333.7</ele>
        <time>2025-09-13T16:03:29Z</time>
      </trkpt>
      <trkpt lat="47.56188" lon="6.8631">
        <ele>333.7</ele>
        <time>2025-09-13T16:03:30Z</time>
      </trkpt>
      <trkpt lat="47.56196" lon="6.86307">
        <ele>333.7</ele>
        <time>2025-09-13T16:03:31Z</time>
      </trkpt>
      <trkpt lat="47.56203" lon="6.86303">
        <ele>333.7</ele>
        <time>2025-09-13T16:03:32Z</time>
      </trkpt>
      <trkpt lat="47.56211" lon="6.863">
        <ele>333.8</ele>
        <time>2025-09-13T16:03:33Z</time>
      </trkpt>
      <trkpt lat="47.56218" lon="6.86298">
        <ele>333.8</ele>
        <time>2025-09-13T16:03:34Z</time>
      </trkpt>
      <trkpt lat="47.56226" lon="6.86294">
        <ele>333.8</ele>
        <time>2025-09-13T16:03:35Z</time>
      </trkpt>
      <trkpt lat="47.56233" lon="6.8629">
        <ele>333.8</ele>
        <time>2025-09-13T16:03:36Z</time>
      </trkpt>
      <trkpt lat="47.56241" lon="6.86286">
        <ele>333.8</ele>
        <time>2025-09-13T16:03:37Z</time>
      </trkpt>
      <trkpt lat="47.56248" lon="6.86282">
        <ele>333.8</ele>
        <time>2025-09-13T16:03:38Z</time>
      </trkpt>
      <trkpt lat="47.56255" lon="6.86279">
        <ele>333.8</ele>
        <time>2025-09-13T16:03:39Z</time>
      </trkpt>
      <trkpt lat="47.56263" lon="6.86276">
        <ele>333.8</ele>
        <time>2025-09-13T16:03:40Z</time>
      </trkpt>
      <trkpt lat="47.5627" lon="6.86272">
        <ele>333.8</ele>
        <time>2025-09-13T16:03:41Z</time>
      </trkpt>
      <trkpt lat="47.56278" lon="6.86268">
        <ele>333.8</ele>
        <time>2025-09-13T16:03:42Z</time>
      </trkpt>
      <trkpt lat="47.56285" lon="6.86265">
        <ele>333.8</ele>
        <time>2025-09-13T16:03:43Z</time>
      </trkpt>
      <trkpt lat="47.56293" lon="6.86261">
        <ele>333.8</ele>
        <time>2025-09-13T16:03:44Z</time>
      </trkpt>
      <trkpt lat="47.563" lon="6.86257">
        <ele>333.7</ele>
        <time>2025-09-13T16:03:45Z</time>
      </trkpt>
      <trkpt lat="47.56308" lon="6.86253">
        <ele>333.7</ele>
        <time>2025-09-13T16:03:46Z</time>
      </trkpt>
      <trkpt lat="47.56315" lon="6.8625">
        <ele>333.7</ele>
        <time>2025-09-13T16:03:47Z</time>
      </trkpt>
      <trkpt lat="47.56323" lon="6.86247">
        <ele>333.7</ele>
        <time>2025-09-13T16:03:48Z</time>
      </trkpt>
      <trkpt lat="47.5633" lon="6.86243">
        <ele>333.7</ele>
        <time>2025-09-13T16:03:49Z</time>
      </trkpt>
      <trkpt lat="47.56338" lon="6.8624">
        <ele>333.7</ele>
        <time>2025-09-13T16:03:50Z</time>
      </trkpt>
      <trkpt lat="47.56346" lon="6.86236">
        <ele>333.7</ele>
        <time>2025-09-13T16:03:51Z</time>
      </trkpt>
      <trkpt lat="47.56353" lon="6.86233">
        <ele>333.7</ele>
        <time>2025-09-13T16:03:52Z</time>
      </trkpt>
      <trkpt lat="47.56361" lon="6.86229">
        <ele>333.7</ele>
        <time>2025-09-13T16:03:53Z</time>
      </trkpt>
      <trkpt lat="47.56369" lon="6.86226">
        <ele>333.7</ele>
        <time>2025-09-13T16:03:54Z</time>
      </trkpt>
      <trkpt lat="47.56376" lon="6.86222">
        <ele>333.7</ele>
        <time>2025-09-13T16:03:55Z</time>
      </trkpt>
      <trkpt lat="47.56384" lon="6.86218">
        <ele>333.7</ele>
        <time>2025-09-13T16:03:56Z</time>
      </trkpt>
      <trkpt lat="47.56391" lon="6.86214">
        <ele>333.7</ele>
        <time>2025-09-13T16:03:57Z</time>
      </trkpt>
      <trkpt lat="47.56399" lon="6.8621">
        <ele>333.7</ele>
        <time>2025-09-13T16:03:58Z</time>
      </trkpt>
      <trkpt lat="47.56406" lon="6.86206">
        <ele>333.7</ele>
        <time>2025-09-13T16:03:59Z</time>
      </trkpt>
      <trkpt lat="47.56414" lon="6.86203">
        <ele>333.7</ele>
        <time>2025-09-13T16:04:00Z</time>
      </trkpt>
      <trkpt lat="47.56421" lon="6.86199">
        <ele>333.7</ele>
        <time>2025-09-13T16:04:01Z</time>
      </trkpt>
      <trkpt lat="47.56429" lon="6.86196">
        <ele>333.7</ele>
        <time>2025-09-13T16:04:02Z</time>
      </trkpt>
      <trkpt lat="47.56436" lon="6.86192">
        <ele>333.7</ele>
        <time>2025-09-13T16:04:03Z</time>
      </trkpt>
      <trkpt lat="47.56444" lon="6.86188">
        <ele>333.7</ele>
        <time>2025-09-13T16:04:04Z</time>
      </trkpt>
      <trkpt lat="47.56451" lon="6.86185">
        <ele>333.7</ele>
        <time>2025-09-13T16:04:05Z</time>
      </trkpt>
      <trkpt lat="47.56459" lon="6.86181">
        <ele>333.7</ele>
        <time>2025-09-13T16:04:06Z</time>
      </trkpt>
      <trkpt lat="47.56467" lon="6.86177">
        <ele>333.7</ele>
        <time>2025-09-13T16:04:07Z</time>
      </trkpt>
      <trkpt lat="47.56474" lon="6.86173">
        <ele>333.7</ele>
        <time>2025-09-13T16:04:08Z</time>
      </trkpt>
      <trkpt lat="47.56482" lon="6.8617">
        <ele>333.8</ele>
        <time>2025-09-13T16:04:09Z</time>
      </trkpt>
      <trkpt lat="47.56487" lon="6.86161">
        <ele>333.8</ele>
        <time>2025-09-13T16:04:10Z</time>
      </trkpt>
      <trkpt lat="47.56488" lon="6.86152">
        <ele>333.8</ele>
        <time>2025-09-13T16:04:11Z</time>
      </trkpt>
      <trkpt lat="47.5649" lon="6.86139">
        <ele>333.9</ele>
        <time>2025-09-13T16:04:12Z</time>
      </trkpt>
      <trkpt lat="47.5649" lon="6.86128">
        <ele>333.9</ele>
        <time>2025-09-13T16:04:13Z</time>
      </trkpt>
      <trkpt lat="47.56492" lon="6.86117">
        <ele>333.9</ele>
        <time>2025-09-13T16:04:14Z</time>
      </trkpt>
      <trkpt lat="47.56496" lon="6.86108">
        <ele>333.9</ele>
        <time>2025-09-13T16:04:15Z</time>
      </trkpt>
      <trkpt lat="47.56503" lon="6.86103">
        <ele>333.9</ele>
        <time>2025-09-13T16:04:16Z</time>
      </trkpt>
      <trkpt lat="47.56509" lon="6.86097">
        <ele>333.9</ele>
        <time>2025-09-13T16:04:17Z</time>
      </trkpt>
      <trkpt lat="47.5652" lon="6.86096">
        <ele>333.8</ele>
        <time>2025-09-13T16:04:18Z</time>
      </trkpt>
      <trkpt lat="47.56528" lon="6.86093">
        <ele>333.8</ele>
        <time>2025-09-13T16:04:19Z</time>
      </trkpt>
      <trkpt lat="47.56536" lon="6.8609">
        <ele>333.7</ele>
        <time>2025-09-13T16:04:20Z</time>
      </trkpt>
      <trkpt lat="47.56543" lon="6.86086">
        <ele>333.7</ele>
        <time>2025-09-13T16:04:21Z</time>
      </trkpt>
      <trkpt lat="47.56551" lon="6.86082">
        <ele>333.8</ele>
        <time>2025-09-13T16:04:22Z</time>
      </trkpt>
      <trkpt lat="47.56557" lon="6.86078">
        <ele>333.8</ele>
        <time>2025-09-13T16:04:23Z</time>
      </trkpt>
      <trkpt lat="47.56564" lon="6.86076">
        <ele>333.9</ele>
        <time>2025-09-13T16:04:24Z</time>
      </trkpt>
      <trkpt lat="47.56571" lon="6.86072">
        <ele>333.4</ele>
        <time>2025-09-13T16:04:25Z</time>
      </trkpt>
      <trkpt lat="47.56577" lon="6.86067">
        <ele>332.9</ele>
        <time>2025-09-13T16:04:26Z</time>
      </trkpt>
      <trkpt lat="47.56583" lon="6.86063">
        <ele>332.5</ele>
        <time>2025-09-13T16:04:27Z</time>
      </trkpt>
      <trkpt lat="47.5659" lon="6.86059">
        <ele>332</ele>
        <time>2025-09-13T16:04:28Z</time>
      </trkpt>
      <trkpt lat="47.56597" lon="6.86056">
        <ele>332.1</ele>
        <time>2025-09-13T16:04:29Z</time>
      </trkpt>
      <trkpt lat="47.56604" lon="6.86053">
        <ele>332.2</ele>
        <time>2025-09-13T16:04:30Z</time>
      </trkpt>
      <trkpt lat="47.56611" lon="6.86049">
        <ele>332.3</ele>
        <time>2025-09-13T16:04:31Z</time>
      </trkpt>
      <trkpt lat="47.56618" lon="6.86048">
        <ele>332.5</ele>
        <time>2025-09-13T16:04:32Z</time>
      </trkpt>
      <trkpt lat="47.56624" lon="6.86045">
        <ele>332.5</ele>
        <time>2025-09-13T16:04:33Z</time>
      </trkpt>
      <trkpt lat="47.56631" lon="6.86042">
        <ele>332.6</ele>
        <time>2025-09-13T16:04:34Z</time>
      </trkpt>
      <trkpt lat="47.56637" lon="6.86041">
        <ele>332.7</ele>
        <time>2025-09-13T16:04:35Z</time>
      </trkpt>
      <trkpt lat="47.56645" lon="6.86042">
        <ele>332.8</ele>
        <time>2025-09-13T16:04:36Z</time>
      </trkpt>
      <trkpt lat="47.56652" lon="6.86046">
        <ele>333.2</ele>
        <time>2025-09-13T16:04:37Z</time>
      </trkpt>
      <trkpt lat="47.56659" lon="6.86051">
        <ele>333.7</ele>
        <time>2025-09-13T16:04:38Z</time>
      </trkpt>
      <trkpt lat="47.56665" lon="6.86055">
        <ele>334.2</ele>
        <time>2025-09-13T16:04:39Z</time>
      </trkpt>
      <trkpt lat="47.56672" lon="6.86056">
        <ele>334.8</ele>
        <time>2025-09-13T16:04:40Z</time>
      </trkpt>
      <trkpt lat="47.56678" lon="6.86055">
        <ele>335.4</ele>
        <time>2025-09-13T16:04:41Z</time>
      </trkpt>
      <trkpt lat="47.56684" lon="6.86052">
        <ele>336</ele>
        <time>2025-09-13T16:04:42Z</time>
      </trkpt>
      <trkpt lat="47.56691" lon="6.8605">
        <ele>336.7</ele>
        <time>2025-09-13T16:04:43Z</time>
      </trkpt>
      <trkpt lat="47.56696" lon="6.86049">
        <ele>337.2</ele>
        <time>2025-09-13T16:04:44Z</time>
      </trkpt>
      <trkpt lat="47.56701" lon="6.86047">
        <ele>337.8</ele>
        <time>2025-09-13T16:04:45Z</time>
      </trkpt>
      <trkpt lat="47.56705" lon="6.86047">
        <ele>338.2</ele>
        <time>2025-09-13T16:04:46Z</time>
      </trkpt>
      <trkpt lat="47.56709" lon="6.86047">
        <ele>338.3</ele>
        <time>2025-09-13T16:04:47Z</time>
      </trkpt>
      <trkpt lat="47.56712" lon="6.86051">
        <ele>338.3</ele>
        <time>2025-09-13T16:04:48Z</time>
      </trkpt>
      <trkpt lat="47.56717" lon="6.86053">
        <ele>338.2</ele>
        <time>2025-09-13T16:04:49Z</time>
      </trkpt>
      <trkpt lat="47.56716" lon="6.86056">
        <ele>338.1</ele>
        <time>2025-09-13T16:04:50Z</time>
      </trkpt>
      <trkpt lat="47.56718" lon="6.86058">
        <ele>338</ele>
        <time>2025-09-13T16:04:51Z</time>
      </trkpt>
      <trkpt lat="47.56722" lon="6.86058">
        <ele>337.9</ele>
        <time>2025-09-13T16:04:52Z</time>
      </trkpt>
      <trkpt lat="47.56723" lon="6.86058">
        <ele>337.8</ele>
        <time>2025-09-13T16:04:53Z</time>
      </trkpt>
      <trkpt lat="47.56729" lon="6.86044">
        <ele>337.3</ele>
        <time>2025-09-13T16:04:54Z</time>
      </trkpt>
      <trkpt lat="47.56733" lon="6.86044">
        <ele>337.2</ele>
        <time>2025-09-13T16:04:55Z</time>
      </trkpt>
      <trkpt lat="47.56737" lon="6.86045">
        <ele>337</ele>
        <time>2025-09-13T16:04:56Z</time>
      </trkpt>
      <trkpt lat="47.56741" lon="6.86045">
        <ele>336.9</ele>
        <time>2025-09-13T16:04:57Z</time>
      </trkpt>
      <trkpt lat="47.56745" lon="6.86044">
        <ele>336.7</ele>
        <time>2025-09-13T16:04:58Z</time>
      </trkpt>
      <trkpt lat="47.56752" lon="6.86036">
        <ele>336.6</ele>
        <time>2025-09-13T16:04:59Z</time>
      </trkpt>
      <trkpt lat="47.56756" lon="6.86036">
        <ele>336.5</ele>
        <time>2025-09-13T16:05:00Z</time>
      </trkpt>
      <trkpt lat="47.56761" lon="6.86038">
        <ele>336.4</ele>
        <time>2025-09-13T16:05:01Z</time>
      </trkpt>
      <trkpt lat="47.5677" lon="6.86034">
        <ele>336.4</ele>
        <time>2025-09-13T16:05:03Z</time>
      </trkpt>
      <trkpt lat="47.56781" lon="6.8603">
        <ele>336.3</ele>
        <time>2025-09-13T16:05:04Z</time>
      </trkpt>
      <trkpt lat="47.56792" lon="6.86027">
        <ele>336.3</ele>
        <time>2025-09-13T16:05:05Z</time>
      </trkpt>
      <trkpt lat="47.56803" lon="6.86021">
        <ele>336.4</ele>
        <time>2025-09-13T16:05:06Z</time>
      </trkpt>
      <trkpt lat="47.56813" lon="6.86019">
        <ele>336.4</ele>
        <time>2025-09-13T16:05:07Z</time>
      </trkpt>
      <trkpt lat="47.56823" lon="6.86015">
        <ele>336.4</ele>
        <time>2025-09-13T16:05:08Z</time>
      </trkpt>
      <trkpt lat="47.56833" lon="6.86009">
        <ele>336.5</ele>
        <time>2025-09-13T16:05:09Z</time>
      </trkpt>
      <trkpt lat="47.56843" lon="6.86005">
        <ele>336.5</ele>
        <time>2025-09-13T16:05:10Z</time>
      </trkpt>
      <trkpt lat="47.56851" lon="6.85997">
        <ele>336.5</ele>
        <time>2025-09-13T16:05:11Z</time>
      </trkpt>
      <trkpt lat="47.5686" lon="6.85993">
        <ele>336.5</ele>
        <time>2025-09-13T16:05:12Z</time>
      </trkpt>
      <trkpt lat="47.56868" lon="6.85989">
        <ele>336.5</ele>
        <time>2025-09-13T16:05:13Z</time>
      </trkpt>
      <trkpt lat="47.56877" lon="6.85987">
        <ele>336.5</ele>
        <time>2025-09-13T16:05:14Z</time>
      </trkpt>
      <trkpt lat="47.56885" lon="6.85981">
        <ele>336.6</ele>
        <time>2025-09-13T16:05:15Z</time>
      </trkpt>
      <trkpt lat="47.56893" lon="6.85976">
        <ele>336.6</ele>
        <time>2025-09-13T16:05:16Z</time>
      </trkpt>
      <trkpt lat="47.56901" lon="6.85974">
        <ele>336.6</ele>
        <time>2025-09-13T16:05:17Z</time>
      </trkpt>
      <trkpt lat="47.56909" lon="6.8597">
        <ele>336.6</ele>
        <time>2025-09-13T16:05:18Z</time>
      </trkpt>
      <trkpt lat="47.56916" lon="6.85967">
        <ele>336.6</ele>
        <time>2025-09-13T16:05:19Z</time>
      </trkpt>
      <trkpt lat="47.56924" lon="6.85962">
        <ele>336.6</ele>
        <time>2025-09-13T16:05:20Z</time>
      </trkpt>
      <trkpt lat="47.56938" lon="6.85952">
        <ele>336.6</ele>
        <time>2025-09-13T16:05:21Z</time>
      </trkpt>
      <trkpt lat="47.56945" lon="6.85949">
        <ele>336.6</ele>
        <time>2025-09-13T16:05:22Z</time>
      </trkpt>
      <trkpt lat="47.56952" lon="6.85947">
        <ele>336.6</ele>
        <time>2025-09-13T16:05:23Z</time>
      </trkpt>
      <trkpt lat="47.5696" lon="6.85943">
        <ele>336.6</ele>
        <time>2025-09-13T16:05:24Z</time>
      </trkpt>
      <trkpt lat="47.56967" lon="6.85938">
        <ele>336.7</ele>
        <time>2025-09-13T16:05:25Z</time>
      </trkpt>
      <trkpt lat="47.56975" lon="6.85934">
        <ele>336.7</ele>
        <time>2025-09-13T16:05:26Z</time>
      </trkpt>
      <trkpt lat="47.56983" lon="6.85931">
        <ele>336.7</ele>
        <time>2025-09-13T16:05:27Z</time>
      </trkpt>
      <trkpt lat="47.5699" lon="6.85928">
        <ele>336.7</ele>
        <time>2025-09-13T16:05:28Z</time>
      </trkpt>
      <trkpt lat="47.56998" lon="6.85924">
        <ele>336.6</ele>
        <time>2025-09-13T16:05:29Z</time>
      </trkpt>
      <trkpt lat="47.57005" lon="6.85923">
        <ele>336.6</ele>
        <time>2025-09-13T16:05:30Z</time>
      </trkpt>
      <trkpt lat="47.57013" lon="6.85922">
        <ele>336.6</ele>
        <time>2025-09-13T16:05:31Z</time>
      </trkpt>
      <trkpt lat="47.57019" lon="6.8592">
        <ele>336.6</ele>
        <time>2025-09-13T16:05:32Z</time>
      </trkpt>
      <trkpt lat="47.57026" lon="6.85917">
        <ele>336.6</ele>
        <time>2025-09-13T16:05:33Z</time>
      </trkpt>
      <trkpt lat="47.57034" lon="6.85917">
        <ele>336.6</ele>
        <time>2025-09-13T16:05:34Z</time>
      </trkpt>
      <trkpt lat="47.57042" lon="6.85915">
        <ele>336.6</ele>
        <time>2025-09-13T16:05:35Z</time>
      </trkpt>
      <trkpt lat="47.5705" lon="6.85913">
        <ele>336.6</ele>
        <time>2025-09-13T16:05:36Z</time>
      </trkpt>
      <trkpt lat="47.57058" lon="6.85911">
        <ele>336.6</ele>
        <time>2025-09-13T16:05:37Z</time>
      </trkpt>
      <trkpt lat="47.57066" lon="6.8591">
        <ele>336.7</ele>
        <time>2025-09-13T16:05:38Z</time>
      </trkpt>
      <trkpt lat="47.57073" lon="6.85909">
        <ele>336.7</ele>
        <time>2025-09-13T16:05:39Z</time>
      </trkpt>
      <trkpt lat="47.5708" lon="6.85909">
        <ele>336.7</ele>
        <time>2025-09-13T16:05:40Z</time>
      </trkpt>
      <trkpt lat="47.57088" lon="6.85909">
        <ele>336.7</ele>
        <time>2025-09-13T16:05:41Z</time>
      </trkpt>
      <trkpt lat="47.57096" lon="6.85908">
        <ele>336.7</ele>
        <time>2025-09-13T16:05:42Z</time>
      </trkpt>
      <trkpt lat="47.57104" lon="6.85909">
        <ele>336.7</ele>
        <time>2025-09-13T16:05:43Z</time>
      </trkpt>
      <trkpt lat="47.57112" lon="6.85909">
        <ele>336.7</ele>
        <time>2025-09-13T16:05:44Z</time>
      </trkpt>
      <trkpt lat="47.57119" lon="6.85909">
        <ele>336.7</ele>
        <time>2025-09-13T16:05:45Z</time>
      </trkpt>
      <trkpt lat="47.57128" lon="6.85909">
        <ele>336.7</ele>
        <time>2025-09-13T16:05:46Z</time>
      </trkpt>
      <trkpt lat="47.57136" lon="6.85909">
        <ele>336.7</ele>
        <time>2025-09-13T16:05:47Z</time>
      </trkpt>
      <trkpt lat="47.57144" lon="6.8591">
        <ele>336.7</ele>
        <time>2025-09-13T16:05:48Z</time>
      </trkpt>
      <trkpt lat="47.57152" lon="6.8591">
        <ele>336.7</ele>
        <time>2025-09-13T16:05:49Z</time>
      </trkpt>
      <trkpt lat="47.5716" lon="6.85909">
        <ele>336.7</ele>
        <time>2025-09-13T16:05:50Z</time>
      </trkpt>
      <trkpt lat="47.57168" lon="6.85909">
        <ele>336.7</ele>
        <time>2025-09-13T16:05:51Z</time>
      </trkpt>
      <trkpt lat="47.57176" lon="6.85909">
        <ele>336.7</ele>
        <time>2025-09-13T16:05:52Z</time>
      </trkpt>
      <trkpt lat="47.57184" lon="6.85909">
        <ele>336.8</ele>
        <time>2025-09-13T16:05:53Z</time>
      </trkpt>
      <trkpt lat="47.57192" lon="6.8591">
        <ele>336.8</ele>
        <time>2025-09-13T16:05:54Z</time>
      </trkpt>
      <trkpt lat="47.572" lon="6.8591">
        <ele>336.8</ele>
        <time>2025-09-13T16:05:55Z</time>
      </trkpt>
      <trkpt lat="47.57209" lon="6.8591">
        <ele>336.8</ele>
        <time>2025-09-13T16:05:56Z</time>
      </trkpt>
      <trkpt lat="47.57218" lon="6.8591">
        <ele>336.8</ele>
        <time>2025-09-13T16:05:57Z</time>
      </trkpt>
      <trkpt lat="47.57226" lon="6.8591">
        <ele>336.8</ele>
        <time>2025-09-13T16:05:58Z</time>
      </trkpt>
      <trkpt lat="47.57236" lon="6.8591">
        <ele>336.8</ele>
        <time>2025-09-13T16:05:59Z</time>
      </trkpt>
      <trkpt lat="47.57244" lon="6.8591">
        <ele>336.8</ele>
        <time>2025-09-13T16:06:00Z</time>
      </trkpt>
      <trkpt lat="47.57253" lon="6.85909">
        <ele>336.8</ele>
        <time>2025-09-13T16:06:01Z</time>
      </trkpt>
      <trkpt lat="47.57261" lon="6.85908">
        <ele>336.8</ele>
        <time>2025-09-13T16:06:02Z</time>
      </trkpt>
      <trkpt lat="47.57269" lon="6.85909">
        <ele>336.8</ele>
        <time>2025-09-13T16:06:03Z</time>
      </trkpt>
      <trkpt lat="47.57277" lon="6.8591">
        <ele>336.8</ele>
        <time>2025-09-13T16:06:04Z</time>
      </trkpt>
      <trkpt lat="47.57286" lon="6.85909">
        <ele>336.8</ele>
        <time>2025-09-13T16:06:05Z</time>
      </trkpt>
      <trkpt lat="47.57295" lon="6.85909">
        <ele>336.8</ele>
        <time>2025-09-13T16:06:06Z</time>
      </trkpt>
      <trkpt lat="47.57303" lon="6.85909">
        <ele>336.9</ele>
        <time>2025-09-13T16:06:07Z</time>
        <extensions>
          <visugpx:TrkExtension xmlns:visugpx="https://www.visugpx.com/editgpx/">
            <visugpx:node>10</visugpx:node>
            </visugpx:TrkExtension>
        </extensions>
      </trkpt>
      <trkpt lat="47.58039" lon="6.85924">
        <ele>339.9</ele>
        <extensions>
          <visugpx:TrkExtension xmlns:visugpx="https://www.visugpx.com/editgpx/">
            <visugpx:node>11</visugpx:node>
            </visugpx:TrkExtension>
        </extensions>
      </trkpt>
      <trkpt lat="47.58211" lon="6.85695">
        <ele>343</ele>
        <extensions>
          <visugpx:TrkExtension xmlns:visugpx="https://www.visugpx.com/editgpx/">
            <visugpx:node>12</visugpx:node>
            </visugpx:TrkExtension>
        </extensions>
      </trkpt>
      <trkpt lat="47.58346" lon="6.85712">
        <ele>341.5</ele>
        <extensions>
          <visugpx:TrkExtension xmlns:visugpx="https://www.visugpx.com/editgpx/">
            <visugpx:node>13</visugpx:node>
            </visugpx:TrkExtension>
        </extensions>
      </trkpt>
      <trkpt lat="47.58633" lon="6.85822">
        <ele>342.3</ele>
        <extensions>
          <visugpx:TrkExtension xmlns:visugpx="https://www.visugpx.com/editgpx/">
            <visugpx:node>14</visugpx:node>
            </visugpx:TrkExtension>
        </extensions>
      </trkpt>
      <trkpt lat="47.588" lon="6.85867">
        <ele>342.8</ele>
        <extensions>
          <visugpx:TrkExtension xmlns:visugpx="https://www.visugpx.com/editgpx/">
            <visugpx:node>15</visugpx:node>
            </visugpx:TrkExtension>
        </extensions>
      </trkpt>
      <trkpt lat="47.59232" lon="6.85955">
        <ele>342.6</ele>
        <extensions>
          <visugpx:TrkExtension xmlns:visugpx="https://www.visugpx.com/editgpx/">
            <visugpx:node>16</visugpx:node>
            </visugpx:TrkExtension>
        </extensions>
      </trkpt>
      <trkpt lat="47.5944" lon="6.85967">
        <ele>342.8</ele>
        <extensions>
          <visugpx:TrkExtension xmlns:visugpx="https://www.visugpx.com/editgpx/">
            <visugpx:node>17</visugpx:node>
            </visugpx:TrkExtension>
        </extensions>
      </trkpt>
      <trkpt lat="47.59559" lon="6.85916">
        <ele>342.1</ele>
        <extensions>
          <visugpx:TrkExtension xmlns:visugpx="https://www.visugpx.com/editgpx/">
            <visugpx:node>18</visugpx:node>
            </visugpx:TrkExtension>
        </extensions>
      </trkpt>
      <trkpt lat="47.59634" lon="6.85824">
        <ele>342.3</ele>
        <extensions>
          <visugpx:TrkExtension xmlns:visugpx="https://www.visugpx.com/editgpx/">
            <visugpx:node>19</visugpx:node>
            </visugpx:TrkExtension>
        </extensions>
      </trkpt>
      <trkpt lat="47.5975" lon="6.85635">
        <ele>343.3</ele>
        <extensions>
          <visugpx:TrkExtension xmlns:visugpx="https://www.visugpx.com/editgpx/">
            <visugpx:node>20</visugpx:node>
            </visugpx:TrkExtension>
        </extensions>
      </trkpt>
      <trkpt lat="47.59793" lon="6.85689">
        <ele>344</ele>
        <extensions>
          <visugpx:TrkExtension xmlns:visugpx="https://www.visugpx.com/editgpx/">
            <visugpx:node>21</visugpx:node>
            </visugpx:TrkExtension>
        </extensions>
      </trkpt>
      <trkpt lat="47.59818" lon="6.85781">
        <ele>344</ele>
        <extensions>
          <visugpx:TrkExtension xmlns:visugpx="https://www.visugpx.com/editgpx/">
            <visugpx:node>22</visugpx:node>
            </visugpx:TrkExtension>
        </extensions>
      </trkpt>
      <trkpt lat="47.59886" lon="6.85931">
        <ele>344.5</ele>
        <extensions>
          <visugpx:TrkExtension xmlns:visugpx="https://www.visugpx.com/editgpx/">
            <visugpx:node>23</visugpx:node>
            </visugpx:TrkExtension>
        </extensions>
      </trkpt>
      <trkpt lat="47.59968" lon="6.85931">
        <ele>345.9</ele>
        <extensions>
          <visugpx:TrkExtension xmlns:visugpx="https://www.visugpx.com/editgpx/">
            <visugpx:node>24</visugpx:node>
            </visugpx:TrkExtension>
        </extensions>
      </trkpt>
      <trkpt lat="47.60016" lon="6.85978">
        <ele>344.3</ele>
        <extensions>
          <visugpx:TrkExtension xmlns:visugpx="https://www.visugpx.com/editgpx/">
            <visugpx:node>25</visugpx:node>
            </visugpx:TrkExtension>
        </extensions>
      </trkpt>
      <trkpt lat="47.60061" lon="6.86098">
        <ele>345.4</ele>
        <extensions>
          <visugpx:TrkExtension xmlns:visugpx="https://www.visugpx.com/editgpx/">
            <visugpx:node>26</visugpx:node>
            </visugpx:TrkExtension>
        </extensions>
      </trkpt>
      <trkpt lat="47.60071" lon="6.86266">
        <ele>344.4</ele>
        <extensions>
          <visugpx:TrkExtension xmlns:visugpx="https://www.visugpx.com/editgpx/">
            <visugpx:node>27</visugpx:node>
            </visugpx:TrkExtension>
        </extensions>
      </trkpt>
      <trkpt lat="47.60081" lon="6.86418">
        <ele>344</ele>
        <extensions>
          <visugpx:TrkExtension xmlns:visugpx="https://www.visugpx.com/editgpx/">
            <visugpx:node>28</visugpx:node>
            </visugpx:TrkExtension>
        </extensions>
      </trkpt>
      <trkpt lat="47.60111" lon="6.86422">
        <ele>345</ele>
        <extensions>
          <visugpx:TrkExtension xmlns:visugpx="https://www.visugpx.com/editgpx/">
            <visugpx:node>29</visugpx:node>
            </visugpx:TrkExtension>
        </extensions>
      </trkpt>
      <trkpt lat="47.60132" lon="6.86497">
        <ele>344</ele>
        <extensions>
          <visugpx:TrkExtension xmlns:visugpx="https://www.visugpx.com/editgpx/">
            <visugpx:node>30</visugpx:node>
            </visugpx:TrkExtension>
        </extensions>
      </trkpt>
      <trkpt lat="47.60185" lon="6.86618">
        <ele>343.9</ele>
        <extensions>
          <visugpx:TrkExtension xmlns:visugpx="https://www.visugpx.com/editgpx/">
            <visugpx:node>31</visugpx:node>
            </visugpx:TrkExtension>
        </extensions>
      </trkpt>
      <trkpt lat="47.60255" lon="6.86633">
        <ele>344.1</ele>
        <extensions>
          <visugpx:TrkExtension xmlns:visugpx="https://www.visugpx.com/editgpx/">
            <visugpx:node>32</visugpx:node>
            </visugpx:TrkExtension>
        </extensions>
      </trkpt>
      <trkpt lat="47.60321" lon="6.86676">
        <ele>343.7</ele>
        <extensions>
          <visugpx:TrkExtension xmlns:visugpx="https://www.visugpx.com/editgpx/">
            <visugpx:node>33</visugpx:node>
            </visugpx:TrkExtension>
        </extensions>
      </trkpt>
      <trkpt lat="47.60431" lon="6.86684">
        <ele>343.7</ele>
        <extensions>
          <visugpx:TrkExtension xmlns:visugpx="https://www.visugpx.com/editgpx/">
            <visugpx:node>34</visugpx:node>
            </visugpx:TrkExtension>
        </extensions>
      </trkpt>
      <trkpt lat="47.60519" lon="6.86716">
        <ele>343.9</ele>
        <extensions>
          <visugpx:TrkExtension xmlns:visugpx="https://www.visugpx.com/editgpx/">
            <visugpx:node>35</visugpx:node>
            </visugpx:TrkExtension>
        </extensions>
      </trkpt>
      <trkpt lat="47.60622" lon="6.86678">
        <ele>344</ele>
        <extensions>
          <visugpx:TrkExtension xmlns:visugpx="https://www.visugpx.com/editgpx/">
            <visugpx:node>36</visugpx:node>
            </visugpx:TrkExtension>
        </extensions>
      </trkpt>
      <trkpt lat="47.60732" lon="6.86513">
        <ele>345</ele>
        <extensions>
          <visugpx:TrkExtension xmlns:visugpx="https://www.visugpx.com/editgpx/">
            <visugpx:node>37</visugpx:node>
            </visugpx:TrkExtension>
        </extensions>
      </trkpt>
      <trkpt lat="47.6078" lon="6.8654">
        <ele>343.9</ele>
        <extensions>
          <visugpx:TrkExtension xmlns:visugpx="https://www.visugpx.com/editgpx/">
            <visugpx:node>38</visugpx:node>
            </visugpx:TrkExtension>
        </extensions>
      </trkpt>
      <trkpt lat="47.60852" lon="6.86437">
        <ele>345</ele>
        <extensions>
          <visugpx:TrkExtension xmlns:visugpx="https://www.visugpx.com/editgpx/">
            <visugpx:node>39</visugpx:node>
            </visugpx:TrkExtension>
        </extensions>
      </trkpt>
      <trkpt lat="47.60927" lon="6.8651">
        <ele>344.9</ele>
        <extensions>
          <visugpx:TrkExtension xmlns:visugpx="https://www.visugpx.com/editgpx/">
            <visugpx:node>40</visugpx:node>
            </visugpx:TrkExtension>
        </extensions>
      </trkpt>
      <trkpt lat="47.60948" lon="6.86515">
        <ele>344.8</ele>
        <extensions>
          <visugpx:TrkExtension xmlns:visugpx="https://www.visugpx.com/editgpx/">
            <visugpx:node>41</visugpx:node>
            </visugpx:TrkExtension>
        </extensions>
      </trkpt>
      <trkpt lat="47.61023" lon="6.8644">
        <ele>345</ele>
        <extensions>
          <visugpx:TrkExtension xmlns:visugpx="https://www.visugpx.com/editgpx/">
            <visugpx:node>42</visugpx:node>
            </visugpx:TrkExtension>
        </extensions>
      </trkpt>
      <trkpt lat="47.61076" lon="6.86369">
        <ele>346</ele>
        <extensions>
          <visugpx:TrkExtension xmlns:visugpx="https://www.visugpx.com/editgpx/">
            <visugpx:node>43</visugpx:node>
            </visugpx:TrkExtension>
        </extensions>
      </trkpt>
      <trkpt lat="47.61133" lon="6.8636">
        <ele>345.2</ele>
        <extensions>
          <visugpx:TrkExtension xmlns:visugpx="https://www.visugpx.com/editgpx/">
            <visugpx:node>44</visugpx:node>
            </visugpx:TrkExtension>
        </extensions>
      </trkpt>
      <trkpt lat="47.61257" lon="6.8621">
        <ele>345.7</ele>
        <extensions>
          <visugpx:TrkExtension xmlns:visugpx="https://www.visugpx.com/editgpx/">
            <visugpx:node>45</visugpx:node>
            </visugpx:TrkExtension>
        </extensions>
      </trkpt>
      <trkpt lat="47.61301" lon="6.86111">
        <ele>348</ele>
        <extensions>
          <visugpx:TrkExtension xmlns:visugpx="https://www.visugpx.com/editgpx/">
            <visugpx:node>46</visugpx:node>
            </visugpx:TrkExtension>
        </extensions>
      </trkpt>
      <trkpt lat="47.61369" lon="6.86186">
        <ele>348.3</ele>
        <extensions>
          <visugpx:TrkExtension xmlns:visugpx="https://www.visugpx.com/editgpx/">
            <visugpx:node>47</visugpx:node>
            </visugpx:TrkExtension>
        </extensions>
      </trkpt>
      <trkpt lat="47.61412" lon="6.86182">
        <ele>349</ele>
        <extensions>
          <visugpx:TrkExtension xmlns:visugpx="https://www.visugpx.com/editgpx/">
            <visugpx:node>48</visugpx:node>
            </visugpx:TrkExtension>
        </extensions>
      </trkpt>
      <trkpt lat="47.61509" lon="6.8627">
        <ele>349.2</ele>
        <extensions>
          <visugpx:TrkExtension xmlns:visugpx="https://www.visugpx.com/editgpx/">
            <visugpx:node>49</visugpx:node>
            </visugpx:TrkExtension>
        </extensions>
      </trkpt>
      <trkpt lat="47.61596" lon="6.86167">
        <ele>350</ele>
      </trkpt>
    </trkseg>
  </trk>
</gpx>